<gpx xmlns="http://www.topografix.com/GPX/1/1" xmlns:xsi="http://www.w3.org/2001/XMLSchema-instance" version="1.1" xsi:schemaLocation="http://www.topografix.com/GPX/1/1 http://www.topografix.com/GPX/1/1/gpx.xsd" creator="MotionXGPSFull 24.1 Build 5049R64">
<trk>
<name>Gateway Run to QMF</name>
<desc>16 Jan 2016  5:47 am</desc>
<trkseg>
<trkpt lat="-27.3567280" lon="152.9564668">
<ele>41.013</ele>
<time>2016-01-15T19:49:56.050Z</time>
</trkpt>
<trkpt lat="-27.3561765" lon="152.9569541">
<ele>40.994</ele>
<time>2016-01-15T19:50:26.343Z</time>
</trkpt>
<trkpt lat="-27.3560455" lon="152.9570133">
<ele>39.884</ele>
<time>2016-01-15T19:50:32.437Z</time>
</trkpt>
<trkpt lat="-27.3557067" lon="152.9572126">
<ele>36.900</ele>
<time>2016-01-15T19:50:48.954Z</time>
</trkpt>
<trkpt lat="-27.3554251" lon="152.9572948">
<ele>33.510</ele>
<time>2016-01-15T19:51:01.523Z</time>
</trkpt>
<trkpt lat="-27.3552408" lon="152.9573201">
<ele>31.349</ele>
<time>2016-01-15T19:51:09.546Z</time>
</trkpt>
<trkpt lat="-27.3550774" lon="152.9573331">
<ele>30.378</ele>
<time>2016-01-15T19:51:16.623Z</time>
</trkpt>
<trkpt lat="-27.3549540" lon="152.9572587">
<ele>30.041</ele>
<time>2016-01-15T19:51:22.667Z</time>
</trkpt>
<trkpt lat="-27.3548983" lon="152.9569760">
<ele>29.863</ele>
<time>2016-01-15T19:51:33.780Z</time>
</trkpt>
<trkpt lat="-27.3548884" lon="152.9566295">
<ele>29.733</ele>
<time>2016-01-15T19:51:47.083Z</time>
</trkpt>
<trkpt lat="-27.3548812" lon="152.9564201">
<ele>29.843</ele>
<time>2016-01-15T19:51:55.122Z</time>
</trkpt>
<trkpt lat="-27.3548656" lon="152.9562565">
<ele>30.257</ele>
<time>2016-01-15T19:52:01.434Z</time>
</trkpt>
<trkpt lat="-27.3548626" lon="152.9560031">
<ele>30.696</ele>
<time>2016-01-15T19:52:11.157Z</time>
</trkpt>
<trkpt lat="-27.3547907" lon="152.9556646">
<ele>31.132</ele>
<time>2016-01-15T19:52:24.514Z</time>
</trkpt>
<trkpt lat="-27.3547080" lon="152.9554259">
<ele>32.400</ele>
<time>2016-01-15T19:52:34.343Z</time>
</trkpt>
<trkpt lat="-27.3545737" lon="152.9551311">
<ele>34.856</ele>
<time>2016-01-15T19:52:47.059Z</time>
</trkpt>
<trkpt lat="-27.3544428" lon="152.9549726">
<ele>37.834</ele>
<time>2016-01-15T19:52:55.362Z</time>
</trkpt>
<trkpt lat="-27.3541904" lon="152.9547123">
<ele>40.621</ele>
<time>2016-01-15T19:53:10.148Z</time>
</trkpt>
<trkpt lat="-27.3539735" lon="152.9545437">
<ele>42.689</ele>
<time>2016-01-15T19:53:21.537Z</time>
</trkpt>
<trkpt lat="-27.3536161" lon="152.9543512">
<ele>43.733</ele>
<time>2016-01-15T19:53:38.652Z</time>
</trkpt>
<trkpt lat="-27.3532838" lon="152.9542627">
<ele>44.005</ele>
<time>2016-01-15T19:53:53.406Z</time>
</trkpt>
<trkpt lat="-27.3530718" lon="152.9542390">
<ele>43.835</ele>
<time>2016-01-15T19:54:02.610Z</time>
</trkpt>
<trkpt lat="-27.3527659" lon="152.9542712">
<ele>43.324</ele>
<time>2016-01-15T19:54:15.881Z</time>
</trkpt>
<trkpt lat="-27.3525579" lon="152.9543414">
<ele>42.147</ele>
<time>2016-01-15T19:54:25.264Z</time>
</trkpt>
<trkpt lat="-27.3521974" lon="152.9544724">
<ele>40.355</ele>
<time>2016-01-15T19:54:41.633Z</time>
</trkpt>
<trkpt lat="-27.3519541" lon="152.9545648">
<ele>38.807</ele>
<time>2016-01-15T19:54:52.727Z</time>
</trkpt>
<trkpt lat="-27.3515752" lon="152.9547137">
<ele>38.095</ele>
<time>2016-01-15T19:55:10.063Z</time>
</trkpt>
<trkpt lat="-27.3511819" lon="152.9548708">
<ele>38.053</ele>
<time>2016-01-15T19:55:28.097Z</time>
</trkpt>
<trkpt lat="-27.3509525" lon="152.9549624">
<ele>38.629</ele>
<time>2016-01-15T19:55:38.613Z</time>
</trkpt>
<trkpt lat="-27.3506048" lon="152.9551013">
<ele>39.706</ele>
<time>2016-01-15T19:55:54.555Z</time>
</trkpt>
<trkpt lat="-27.3503710" lon="152.9551946">
<ele>40.168</ele>
<time>2016-01-15T19:56:05.273Z</time>
</trkpt>
<trkpt lat="-27.3501370" lon="152.9552881">
<ele>38.948</ele>
<time>2016-01-15T19:56:16.002Z</time>
</trkpt>
<trkpt lat="-27.3499468" lon="152.9553641">
<ele>36.702</ele>
<time>2016-01-15T19:56:24.716Z</time>
</trkpt>
<trkpt lat="-27.3495109" lon="152.9555387">
<ele>34.663</ele>
<time>2016-01-15T19:56:44.707Z</time>
</trkpt>
<trkpt lat="-27.3492806" lon="152.9556330">
<ele>33.028</ele>
<time>2016-01-15T19:56:55.293Z</time>
</trkpt>
<trkpt lat="-27.3490584" lon="152.9557625">
<ele>31.655</ele>
<time>2016-01-15T19:57:03.867Z</time>
</trkpt>
<trkpt lat="-27.3487952" lon="152.9560305">
<ele>30.943</ele>
<time>2016-01-15T19:57:10.268Z</time>
</trkpt>
<trkpt lat="-27.3485131" lon="152.9563397">
<ele>31.613</ele>
<time>2016-01-15T19:57:19.536Z</time>
</trkpt>
<trkpt lat="-27.3483287" lon="152.9565393">
<ele>33.824</ele>
<time>2016-01-15T19:57:24.596Z</time>
</trkpt>
<trkpt lat="-27.3481550" lon="152.9567273">
<ele>36.498</ele>
<time>2016-01-15T19:57:29.414Z</time>
</trkpt>
<trkpt lat="-27.3480071" lon="152.9569398">
<ele>38.114</ele>
<time>2016-01-15T19:57:33.918Z</time>
</trkpt>
<trkpt lat="-27.3478481" lon="152.9572727">
<ele>38.310</ele>
<time>2016-01-15T19:57:39.706Z</time>
</trkpt>
<trkpt lat="-27.3477794" lon="152.9575200">
<ele>37.557</ele>
<time>2016-01-15T19:57:43.443Z</time>
</trkpt>
<trkpt lat="-27.3477308" lon="152.9579498">
<ele>36.164</ele>
<time>2016-01-15T19:57:48.879Z</time>
</trkpt>
<trkpt lat="-27.3477471" lon="152.9582222">
<ele>34.198</ele>
<time>2016-01-15T19:57:52.439Z</time>
</trkpt>
<trkpt lat="-27.3478058" lon="152.9586506">
<ele>31.877</ele>
<time>2016-01-15T19:57:58.539Z</time>
</trkpt>
<trkpt lat="-27.3478648" lon="152.9590779">
<ele>29.677</ele>
<time>2016-01-15T19:58:03.862Z</time>
</trkpt>
<trkpt lat="-27.3479074" lon="152.9593818">
<ele>27.560</ele>
<time>2016-01-15T19:58:07.483Z</time>
</trkpt>
<trkpt lat="-27.3479823" lon="152.9598236">
<ele>25.290</ele>
<time>2016-01-15T19:58:12.965Z</time>
</trkpt>
<trkpt lat="-27.3480265" lon="152.9601026">
<ele>23.470</ele>
<time>2016-01-15T19:58:16.561Z</time>
</trkpt>
<trkpt lat="-27.3480278" lon="152.9605346">
<ele>22.655</ele>
<time>2016-01-15T19:58:21.795Z</time>
</trkpt>
<trkpt lat="-27.3479115" lon="152.9609937">
<ele>22.666</ele>
<time>2016-01-15T19:58:27.618Z</time>
</trkpt>
<trkpt lat="-27.3477199" lon="152.9613652">
<ele>23.518</ele>
<time>2016-01-15T19:58:32.763Z</time>
</trkpt>
<trkpt lat="-27.3474388" lon="152.9616660">
<ele>25.153</ele>
<time>2016-01-15T19:58:38.042Z</time>
</trkpt>
<trkpt lat="-27.3471444" lon="152.9619862">
<ele>27.003</ele>
<time>2016-01-15T19:58:43.819Z</time>
</trkpt>
<trkpt lat="-27.3469470" lon="152.9621812">
<ele>28.498</ele>
<time>2016-01-15T19:58:47.388Z</time>
</trkpt>
<trkpt lat="-27.3466390" lon="152.9624795">
<ele>29.490</ele>
<time>2016-01-15T19:58:52.908Z</time>
</trkpt>
<trkpt lat="-27.3462943" lon="152.9628052">
<ele>30.292</ele>
<time>2016-01-15T19:58:58.892Z</time>
</trkpt>
<trkpt lat="-27.3460379" lon="152.9629968">
<ele>31.450</ele>
<time>2016-01-15T19:59:02.987Z</time>
</trkpt>
<trkpt lat="-27.3458372" lon="152.9630954">
<ele>32.857</ele>
<time>2016-01-15T19:59:05.971Z</time>
</trkpt>
<trkpt lat="-27.3455519" lon="152.9635032">
<ele>33.248</ele>
<time>2016-01-15T19:59:12.175Z</time>
</trkpt>
<trkpt lat="-27.3457351" lon="152.9636282">
<ele>31.504</ele>
<time>2016-01-15T19:59:15.041Z</time>
</trkpt>
<trkpt lat="-27.3459296" lon="152.9639185">
<ele>28.509</ele>
<time>2016-01-15T19:59:19.329Z</time>
</trkpt>
<trkpt lat="-27.3460762" lon="152.9641472">
<ele>26.556</ele>
<time>2016-01-15T19:59:22.627Z</time>
</trkpt>
<trkpt lat="-27.3462157" lon="152.9643628">
<ele>26.543</ele>
<time>2016-01-15T19:59:25.488Z</time>
</trkpt>
<trkpt lat="-27.3463426" lon="152.9645613">
<ele>27.171</ele>
<time>2016-01-15T19:59:28.058Z</time>
</trkpt>
<trkpt lat="-27.3465054" lon="152.9648408">
<ele>26.869</ele>
<time>2016-01-15T19:59:32.716Z</time>
</trkpt>
<trkpt lat="-27.3465268" lon="152.9650194">
<ele>25.308</ele>
<time>2016-01-15T19:59:35.936Z</time>
</trkpt>
<trkpt lat="-27.3464189" lon="152.9652106">
<ele>23.103</ele>
<time>2016-01-15T19:59:39.339Z</time>
</trkpt>
<trkpt lat="-27.3463331" lon="152.9652977">
<ele>20.961</ele>
<time>2016-01-15T19:59:41.028Z</time>
</trkpt>
<trkpt lat="-27.3461195" lon="152.9653485">
<ele>19.305</ele>
<time>2016-01-15T19:59:44.335Z</time>
</trkpt>
<trkpt lat="-27.3459750" lon="152.9653764">
<ele>18.246</ele>
<time>2016-01-15T19:59:46.858Z</time>
</trkpt>
<trkpt lat="-27.3458151" lon="152.9654003">
<ele>17.571</ele>
<time>2016-01-15T19:59:50.275Z</time>
</trkpt>
<trkpt lat="-27.3457357" lon="152.9654611">
<ele>16.891</ele>
<time>2016-01-15T19:59:52.553Z</time>
</trkpt>
<trkpt lat="-27.3456916" lon="152.9652130">
<ele>16.142</ele>
<time>2016-01-15T19:59:57.861Z</time>
</trkpt>
<trkpt lat="-27.3456647" lon="152.9650610">
<ele>15.756</ele>
<time>2016-01-15T20:00:01.842Z</time>
</trkpt>
<trkpt lat="-27.3456424" lon="152.9649254">
<ele>16.091</ele>
<time>2016-01-15T20:00:07.902Z</time>
</trkpt>
<trkpt lat="-27.3456380" lon="152.9648132">
<ele>16.836</ele>
<time>2016-01-15T20:00:12.000Z</time>
</trkpt>
<trkpt lat="-27.3455220" lon="152.9647041">
<ele>17.382</ele>
<time>2016-01-15T20:00:21.000Z</time>
</trkpt>
<trkpt lat="-27.3455220" lon="152.9647041">
<ele>17.508</ele>
<time>2016-01-15T20:00:26.000Z</time>
</trkpt>
<trkpt lat="-27.3455220" lon="152.9647041">
<ele>17.422</ele>
<time>2016-01-15T20:01:40.433Z</time>
</trkpt>
<trkpt lat="-27.3453106" lon="152.9648417">
<ele>17.351</ele>
<time>2016-01-15T20:02:01.000Z</time>
</trkpt>
<trkpt lat="-27.3453106" lon="152.9648417">
<ele>17.332</ele>
<time>2016-01-15T20:02:16.000Z</time>
</trkpt>
<trkpt lat="-27.3453106" lon="152.9648417">
<ele>17.328</ele>
<time>2016-01-15T20:06:48.990Z</time>
</trkpt>
<trkpt lat="-27.3453284" lon="152.9650728">
<ele>17.321</ele>
<time>2016-01-15T20:07:03.064Z</time>
</trkpt>
<trkpt lat="-27.3452366" lon="152.9650647">
<ele>17.099</ele>
<time>2016-01-15T20:07:07.905Z</time>
</trkpt>
<trkpt lat="-27.3451659" lon="152.9649978">
<ele>16.490</ele>
<time>2016-01-15T20:07:13.000Z</time>
</trkpt>
<trkpt lat="-27.3451659" lon="152.9649978">
<ele>15.798</ele>
<time>2016-01-15T20:07:20.000Z</time>
</trkpt>
<trkpt lat="-27.3451659" lon="152.9649978">
<ele>15.455</ele>
<time>2016-01-15T20:14:09.553Z</time>
</trkpt>
<trkpt lat="-27.3451981" lon="152.9648436">
<ele>15.482</ele>
<time>2016-01-15T20:14:19.084Z</time>
</trkpt>
<trkpt lat="-27.3452146" lon="152.9647428">
<ele>14.707</ele>
<time>2016-01-15T20:14:23.182Z</time>
</trkpt>
<trkpt lat="-27.3452897" lon="152.9646510">
<ele>12.372</ele>
<time>2016-01-15T20:14:28.170Z</time>
</trkpt>
<trkpt lat="-27.3454321" lon="152.9646887">
<ele>9.963</ele>
<time>2016-01-15T20:14:34.113Z</time>
</trkpt>
<trkpt lat="-27.3455697" lon="152.9647122">
<ele>9.095</ele>
<time>2016-01-15T20:14:37.594Z</time>
</trkpt>
<trkpt lat="-27.3457115" lon="152.9645920">
<ele>9.614</ele>
<time>2016-01-15T20:14:41.553Z</time>
</trkpt>
<trkpt lat="-27.3460288" lon="152.9643220">
<ele>10.753</ele>
<time>2016-01-15T20:14:50.628Z</time>
</trkpt>
<trkpt lat="-27.3458462" lon="152.9644677">
<ele>11.833</ele>
<time>2016-01-15T20:14:55.104Z</time>
</trkpt>
<trkpt lat="-27.3462313" lon="152.9644355">
<ele>12.619</ele>
<time>2016-01-15T20:15:01.830Z</time>
</trkpt>
<trkpt lat="-27.3461305" lon="152.9646713">
<ele>13.141</ele>
<time>2016-01-15T20:15:04.237Z</time>
</trkpt>
<trkpt lat="-27.3462646" lon="152.9646134">
<ele>13.413</ele>
<time>2016-01-15T20:15:05.544Z</time>
</trkpt>
<trkpt lat="-27.3463853" lon="152.9646433">
<ele>13.424</ele>
<time>2016-01-15T20:15:06.534Z</time>
</trkpt>
<trkpt lat="-27.3465140" lon="152.9647464">
<ele>13.358</ele>
<time>2016-01-15T20:15:07.800Z</time>
</trkpt>
<trkpt lat="-27.3466881" lon="152.9650445">
<ele>13.602</ele>
<time>2016-01-15T20:15:10.069Z</time>
</trkpt>
<trkpt lat="-27.3469855" lon="152.9653665">
<ele>14.477</ele>
<time>2016-01-15T20:15:12.808Z</time>
</trkpt>
<trkpt lat="-27.3473420" lon="152.9655852">
<ele>16.359</ele>
<time>2016-01-15T20:15:15.160Z</time>
</trkpt>
<trkpt lat="-27.3476438" lon="152.9657458">
<ele>19.129</ele>
<time>2016-01-15T20:15:16.984Z</time>
</trkpt>
<trkpt lat="-27.3481640" lon="152.9659656">
<ele>21.798</ele>
<time>2016-01-15T20:15:19.933Z</time>
</trkpt>
<trkpt lat="-27.3485154" lon="152.9660944">
<ele>23.858</ele>
<time>2016-01-15T20:15:21.956Z</time>
</trkpt>
<trkpt lat="-27.3490009" lon="152.9662602">
<ele>25.462</ele>
<time>2016-01-15T20:15:24.842Z</time>
</trkpt>
<trkpt lat="-27.3493186" lon="152.9663668">
<ele>26.505</ele>
<time>2016-01-15T20:15:26.700Z</time>
</trkpt>
<trkpt lat="-27.3496514" lon="152.9664587">
<ele>27.056</ele>
<time>2016-01-15T20:15:28.583Z</time>
</trkpt>
<trkpt lat="-27.3501450" lon="152.9664727">
<ele>27.810</ele>
<time>2016-01-15T20:15:31.159Z</time>
</trkpt>
<trkpt lat="-27.3505283" lon="152.9664974">
<ele>29.625</ele>
<time>2016-01-15T20:15:33.153Z</time>
</trkpt>
<trkpt lat="-27.3508962" lon="152.9665113">
<ele>32.657</ele>
<time>2016-01-15T20:15:35.106Z</time>
</trkpt>
<trkpt lat="-27.3512663" lon="152.9665261">
<ele>36.237</ele>
<time>2016-01-15T20:15:37.091Z</time>
</trkpt>
<trkpt lat="-27.3518047" lon="152.9666702">
<ele>39.489</ele>
<time>2016-01-15T20:15:40.155Z</time>
</trkpt>
<trkpt lat="-27.3521308" lon="152.9667730">
<ele>41.637</ele>
<time>2016-01-15T20:15:42.085Z</time>
</trkpt>
<trkpt lat="-27.3524268" lon="152.9669360">
<ele>42.260</ele>
<time>2016-01-15T20:15:43.968Z</time>
</trkpt>
<trkpt lat="-27.3528690" lon="152.9672655">
<ele>41.444</ele>
<time>2016-01-15T20:15:46.906Z</time>
</trkpt>
<trkpt lat="-27.3532615" lon="152.9676799">
<ele>39.748</ele>
<time>2016-01-15T20:15:49.876Z</time>
</trkpt>
<trkpt lat="-27.3536270" lon="152.9681112">
<ele>37.980</ele>
<time>2016-01-15T20:15:52.830Z</time>
</trkpt>
<trkpt lat="-27.3539859" lon="152.9685400">
<ele>36.814</ele>
<time>2016-01-15T20:15:55.764Z</time>
</trkpt>
<trkpt lat="-27.3543771" lon="152.9689307">
<ele>36.232</ele>
<time>2016-01-15T20:15:58.750Z</time>
</trkpt>
<trkpt lat="-27.3546666" lon="152.9691388">
<ele>36.009</ele>
<time>2016-01-15T20:16:00.754Z</time>
</trkpt>
<trkpt lat="-27.3551106" lon="152.9693599">
<ele>36.239</ele>
<time>2016-01-15T20:16:03.628Z</time>
</trkpt>
<trkpt lat="-27.3556233" lon="152.9694905">
<ele>36.770</ele>
<time>2016-01-15T20:16:06.817Z</time>
</trkpt>
<trkpt lat="-27.3559435" lon="152.9695258">
<ele>37.015</ele>
<time>2016-01-15T20:16:08.817Z</time>
</trkpt>
<trkpt lat="-27.3564053" lon="152.9695361">
<ele>36.600</ele>
<time>2016-01-15T20:16:11.631Z</time>
</trkpt>
<trkpt lat="-27.3567409" lon="152.9695468">
<ele>35.328</ele>
<time>2016-01-15T20:16:13.657Z</time>
</trkpt>
<trkpt lat="-27.3572153" lon="152.9696116">
<ele>33.419</ele>
<time>2016-01-15T20:16:16.540Z</time>
</trkpt>
<trkpt lat="-27.3574979" lon="152.9696891">
<ele>31.401</ele>
<time>2016-01-15T20:16:18.239Z</time>
</trkpt>
<trkpt lat="-27.3580195" lon="152.9699084">
<ele>29.705</ele>
<time>2016-01-15T20:16:21.383Z</time>
</trkpt>
<trkpt lat="-27.3583290" lon="152.9701058">
<ele>28.601</ele>
<time>2016-01-15T20:16:23.337Z</time>
</trkpt>
<trkpt lat="-27.3587862" lon="152.9704108">
<ele>28.129</ele>
<time>2016-01-15T20:16:26.193Z</time>
</trkpt>
<trkpt lat="-27.3591106" lon="152.9706158">
<ele>28.024</ele>
<time>2016-01-15T20:16:28.166Z</time>
</trkpt>
<trkpt lat="-27.3595240" lon="152.9708963">
<ele>28.069</ele>
<time>2016-01-15T20:16:30.773Z</time>
</trkpt>
<trkpt lat="-27.3599633" lon="152.9711964">
<ele>28.526</ele>
<time>2016-01-15T20:16:33.602Z</time>
</trkpt>
<trkpt lat="-27.3604063" lon="152.9714908">
<ele>30.063</ele>
<time>2016-01-15T20:16:36.456Z</time>
</trkpt>
<trkpt lat="-27.3608589" lon="152.9717901">
<ele>32.896</ele>
<time>2016-01-15T20:16:39.354Z</time>
</trkpt>
<trkpt lat="-27.3611712" lon="152.9719748">
<ele>36.391</ele>
<time>2016-01-15T20:16:41.263Z</time>
</trkpt>
<trkpt lat="-27.3616547" lon="152.9722526">
<ele>39.835</ele>
<time>2016-01-15T20:16:44.166Z</time>
</trkpt>
<trkpt lat="-27.3619589" lon="152.9724555">
<ele>43.160</ele>
<time>2016-01-15T20:16:46.064Z</time>
</trkpt>
<trkpt lat="-27.3623933" lon="152.9728007">
<ele>46.167</ele>
<time>2016-01-15T20:16:48.947Z</time>
</trkpt>
<trkpt lat="-27.3626619" lon="152.9730601">
<ele>48.091</ele>
<time>2016-01-15T20:16:50.885Z</time>
</trkpt>
<trkpt lat="-27.3630757" lon="152.9734459">
<ele>48.665</ele>
<time>2016-01-15T20:16:53.843Z</time>
</trkpt>
<trkpt lat="-27.3633718" lon="152.9736640">
<ele>48.472</ele>
<time>2016-01-15T20:16:55.795Z</time>
</trkpt>
<trkpt lat="-27.3636886" lon="152.9738509">
<ele>48.147</ele>
<time>2016-01-15T20:16:57.760Z</time>
</trkpt>
<trkpt lat="-27.3641768" lon="152.9741226">
<ele>48.165</ele>
<time>2016-01-15T20:17:00.769Z</time>
</trkpt>
<trkpt lat="-27.3645898" lon="152.9744050">
<ele>48.735</ele>
<time>2016-01-15T20:17:03.568Z</time>
</trkpt>
<trkpt lat="-27.3649454" lon="152.9747258">
<ele>49.574</ele>
<time>2016-01-15T20:17:06.376Z</time>
</trkpt>
<trkpt lat="-27.3652827" lon="152.9751149">
<ele>50.038</ele>
<time>2016-01-15T20:17:09.330Z</time>
</trkpt>
<trkpt lat="-27.3656323" lon="152.9755901">
<ele>49.519</ele>
<time>2016-01-15T20:17:12.472Z</time>
</trkpt>
<trkpt lat="-27.3661361" lon="152.9763929">
<ele>47.371</ele>
<time>2016-01-15T20:17:17.232Z</time>
</trkpt>
<trkpt lat="-27.3664343" lon="152.9768806">
<ele>43.823</ele>
<time>2016-01-15T20:17:20.249Z</time>
</trkpt>
<trkpt lat="-27.3666675" lon="152.9772367">
<ele>40.506</ele>
<time>2016-01-15T20:17:22.545Z</time>
</trkpt>
<trkpt lat="-27.3669678" lon="152.9776844">
<ele>38.764</ele>
<time>2016-01-15T20:17:25.306Z</time>
</trkpt>
<trkpt lat="-27.3673426" lon="152.9781420">
<ele>38.638</ele>
<time>2016-01-15T20:17:28.321Z</time>
</trkpt>
<trkpt lat="-27.3676197" lon="152.9784338">
<ele>39.936</ele>
<time>2016-01-15T20:17:30.355Z</time>
</trkpt>
<trkpt lat="-27.3680520" lon="152.9787743">
<ele>42.182</ele>
<time>2016-01-15T20:17:33.179Z</time>
</trkpt>
<trkpt lat="-27.3685232" lon="152.9790556">
<ele>44.245</ele>
<time>2016-01-15T20:17:36.059Z</time>
</trkpt>
<trkpt lat="-27.3688524" lon="152.9792134">
<ele>44.761</ele>
<time>2016-01-15T20:17:38.036Z</time>
</trkpt>
<trkpt lat="-27.3693294" lon="152.9794427">
<ele>43.556</ele>
<time>2016-01-15T20:17:40.939Z</time>
</trkpt>
<trkpt lat="-27.3696657" lon="152.9795958">
<ele>41.759</ele>
<time>2016-01-15T20:17:42.933Z</time>
</trkpt>
<trkpt lat="-27.3701589" lon="152.9798408">
<ele>40.578</ele>
<time>2016-01-15T20:17:45.782Z</time>
</trkpt>
<trkpt lat="-27.3705366" lon="152.9800259">
<ele>41.039</ele>
<time>2016-01-15T20:17:47.821Z</time>
</trkpt>
<trkpt lat="-27.3709238" lon="152.9801938">
<ele>43.475</ele>
<time>2016-01-15T20:17:49.900Z</time>
</trkpt>
<trkpt lat="-27.3714445" lon="152.9803628">
<ele>46.541</ele>
<time>2016-01-15T20:17:52.741Z</time>
</trkpt>
<trkpt lat="-27.3719010" lon="152.9803889">
<ele>49.116</ele>
<time>2016-01-15T20:17:55.205Z</time>
</trkpt>
<trkpt lat="-27.3722808" lon="152.9804124">
<ele>51.759</ele>
<time>2016-01-15T20:17:57.269Z</time>
</trkpt>
<trkpt lat="-27.3726534" lon="152.9804177">
<ele>54.793</ele>
<time>2016-01-15T20:17:59.302Z</time>
</trkpt>
<trkpt lat="-27.3731965" lon="152.9804030">
<ele>57.212</ele>
<time>2016-01-15T20:18:02.283Z</time>
</trkpt>
<trkpt lat="-27.3735376" lon="152.9803859">
<ele>58.241</ele>
<time>2016-01-15T20:18:04.165Z</time>
</trkpt>
<trkpt lat="-27.3738988" lon="152.9803787">
<ele>58.193</ele>
<time>2016-01-15T20:18:06.166Z</time>
</trkpt>
<trkpt lat="-27.3744288" lon="152.9803735">
<ele>57.614</ele>
<time>2016-01-15T20:18:09.116Z</time>
</trkpt>
<trkpt lat="-27.3747857" lon="152.9803781">
<ele>56.808</ele>
<time>2016-01-15T20:18:11.099Z</time>
</trkpt>
<trkpt lat="-27.3753220" lon="152.9803809">
<ele>56.058</ele>
<time>2016-01-15T20:18:14.057Z</time>
</trkpt>
<trkpt lat="-27.3758670" lon="152.9804750">
<ele>56.134</ele>
<time>2016-01-15T20:18:17.058Z</time>
</trkpt>
<trkpt lat="-27.3762382" lon="152.9805051">
<ele>57.519</ele>
<time>2016-01-15T20:18:19.055Z</time>
</trkpt>
<trkpt lat="-27.3765823" lon="152.9804951">
<ele>59.501</ele>
<time>2016-01-15T20:18:21.007Z</time>
</trkpt>
<trkpt lat="-27.3770042" lon="152.9805725">
<ele>60.987</ele>
<time>2016-01-15T20:18:23.699Z</time>
</trkpt>
<trkpt lat="-27.3772414" lon="152.9805817">
<ele>61.456</ele>
<time>2016-01-15T20:18:25.450Z</time>
</trkpt>
<trkpt lat="-27.3776608" lon="152.9806261">
<ele>61.035</ele>
<time>2016-01-15T20:18:28.592Z</time>
</trkpt>
<trkpt lat="-27.3779732" lon="152.9806544">
<ele>60.509</ele>
<time>2016-01-15T20:18:30.667Z</time>
</trkpt>
<trkpt lat="-27.3782938" lon="152.9807024">
<ele>60.443</ele>
<time>2016-01-15T20:18:32.665Z</time>
</trkpt>
<trkpt lat="-27.3787670" lon="152.9807853">
<ele>60.553</ele>
<time>2016-01-15T20:18:35.595Z</time>
</trkpt>
<trkpt lat="-27.3790666" lon="152.9808477">
<ele>59.903</ele>
<time>2016-01-15T20:18:37.542Z</time>
</trkpt>
<trkpt lat="-27.3793445" lon="152.9809122">
<ele>57.757</ele>
<time>2016-01-15T20:18:39.557Z</time>
</trkpt>
<trkpt lat="-27.3796676" lon="152.9809984">
<ele>54.712</ele>
<time>2016-01-15T20:18:42.386Z</time>
</trkpt>
<trkpt lat="-27.3798887" lon="152.9810953">
<ele>51.533</ele>
<time>2016-01-15T20:18:45.284Z</time>
</trkpt>
<trkpt lat="-27.3800073" lon="152.9811583">
<ele>47.824</ele>
<time>2016-01-15T20:18:47.993Z</time>
</trkpt>
<trkpt lat="-27.3800073" lon="152.9811583">
<ele>43.950</ele>
<time>2016-01-15T20:18:54.993Z</time>
</trkpt>
<trkpt lat="-27.3800073" lon="152.9811583">
<ele>41.775</ele>
<time>2016-01-15T20:18:55.465Z</time>
</trkpt>
<trkpt lat="-27.3801632" lon="152.9812614">
<ele>41.922</ele>
<time>2016-01-15T20:19:00.199Z</time>
</trkpt>
<trkpt lat="-27.3803978" lon="152.9814439">
<ele>42.367</ele>
<time>2016-01-15T20:19:03.413Z</time>
</trkpt>
<trkpt lat="-27.3805981" lon="152.9815818">
<ele>41.347</ele>
<time>2016-01-15T20:19:05.353Z</time>
</trkpt>
<trkpt lat="-27.3809307" lon="152.9818865">
<ele>39.711</ele>
<time>2016-01-15T20:19:08.578Z</time>
</trkpt>
<trkpt lat="-27.3811584" lon="152.9821079">
<ele>38.915</ele>
<time>2016-01-15T20:19:10.565Z</time>
</trkpt>
<trkpt lat="-27.3815126" lon="152.9824574">
<ele>39.093</ele>
<time>2016-01-15T20:19:13.504Z</time>
</trkpt>
<trkpt lat="-27.3817388" lon="152.9826764">
<ele>39.736</ele>
<time>2016-01-15T20:19:15.327Z</time>
</trkpt>
<trkpt lat="-27.3819591" lon="152.9828470">
<ele>40.422</ele>
<time>2016-01-15T20:19:16.993Z</time>
</trkpt>
<trkpt lat="-27.3824043" lon="152.9830692">
<ele>41.090</ele>
<time>2016-01-15T20:19:20.044Z</time>
</trkpt>
<trkpt lat="-27.3828738" lon="152.9832211">
<ele>41.873</ele>
<time>2016-01-15T20:19:23.059Z</time>
</trkpt>
<trkpt lat="-27.3831956" lon="152.9833123">
<ele>43.196</ele>
<time>2016-01-15T20:19:25.049Z</time>
</trkpt>
<trkpt lat="-27.3836884" lon="152.9834526">
<ele>45.614</ele>
<time>2016-01-15T20:19:27.996Z</time>
</trkpt>
<trkpt lat="-27.3840350" lon="152.9835616">
<ele>49.278</ele>
<time>2016-01-15T20:19:29.981Z</time>
</trkpt>
<trkpt lat="-27.3845520" lon="152.9837456">
<ele>53.532</ele>
<time>2016-01-15T20:19:32.954Z</time>
</trkpt>
<trkpt lat="-27.3850005" lon="152.9840236">
<ele>57.849</ele>
<time>2016-01-15T20:19:35.842Z</time>
</trkpt>
<trkpt lat="-27.3854089" lon="152.9843641">
<ele>61.846</ele>
<time>2016-01-15T20:19:38.763Z</time>
</trkpt>
<trkpt lat="-27.3858750" lon="152.9846464">
<ele>64.630</ele>
<time>2016-01-15T20:19:41.768Z</time>
</trkpt>
<trkpt lat="-27.3864004" lon="152.9847686">
<ele>65.621</ele>
<time>2016-01-15T20:19:44.771Z</time>
</trkpt>
<trkpt lat="-27.3867596" lon="152.9847824">
<ele>65.275</ele>
<time>2016-01-15T20:19:46.791Z</time>
</trkpt>
<trkpt lat="-27.3872738" lon="152.9848086">
<ele>64.283</ele>
<time>2016-01-15T20:19:49.777Z</time>
</trkpt>
<trkpt lat="-27.3875827" lon="152.9848332">
<ele>62.970</ele>
<time>2016-01-15T20:19:51.708Z</time>
</trkpt>
<trkpt lat="-27.3878794" lon="152.9848637">
<ele>61.388</ele>
<time>2016-01-15T20:19:53.665Z</time>
</trkpt>
<trkpt lat="-27.3881805" lon="152.9849072">
<ele>60.010</ele>
<time>2016-01-15T20:19:55.685Z</time>
</trkpt>
<trkpt lat="-27.3886385" lon="152.9849743">
<ele>59.470</ele>
<time>2016-01-15T20:19:58.708Z</time>
</trkpt>
<trkpt lat="-27.3889542" lon="152.9850304">
<ele>60.018</ele>
<time>2016-01-15T20:20:00.725Z</time>
</trkpt>
<trkpt lat="-27.3894259" lon="152.9851097">
<ele>61.625</ele>
<time>2016-01-15T20:20:03.681Z</time>
</trkpt>
<trkpt lat="-27.3897564" lon="152.9851279">
<ele>64.056</ele>
<time>2016-01-15T20:20:05.724Z</time>
</trkpt>
<trkpt lat="-27.3902337" lon="152.9851566">
<ele>66.769</ele>
<time>2016-01-15T20:20:08.648Z</time>
</trkpt>
<trkpt lat="-27.3905655" lon="152.9851759">
<ele>69.083</ele>
<time>2016-01-15T20:20:10.655Z</time>
</trkpt>
<trkpt lat="-27.3908855" lon="152.9851081">
<ele>70.649</ele>
<time>2016-01-15T20:20:12.679Z</time>
</trkpt>
<trkpt lat="-27.3913220" lon="152.9850442">
<ele>71.492</ele>
<time>2016-01-15T20:20:15.539Z</time>
</trkpt>
<trkpt lat="-27.3917721" lon="152.9850197">
<ele>71.757</ele>
<time>2016-01-15T20:20:18.550Z</time>
</trkpt>
<trkpt lat="-27.3920649" lon="152.9849767">
<ele>71.651</ele>
<time>2016-01-15T20:20:20.525Z</time>
</trkpt>
<trkpt lat="-27.3923482" lon="152.9849563">
<ele>70.819</ele>
<time>2016-01-15T20:20:22.469Z</time>
</trkpt>
<trkpt lat="-27.3926086" lon="152.9849889">
<ele>68.581</ele>
<time>2016-01-15T20:20:24.333Z</time>
</trkpt>
<trkpt lat="-27.3930405" lon="152.9851435">
<ele>64.911</ele>
<time>2016-01-15T20:20:27.561Z</time>
</trkpt>
<trkpt lat="-27.3934634" lon="152.9853274">
<ele>61.079</ele>
<time>2016-01-15T20:20:30.659Z</time>
</trkpt>
<trkpt lat="-27.3937327" lon="152.9854417">
<ele>58.836</ele>
<time>2016-01-15T20:20:32.626Z</time>
</trkpt>
<trkpt lat="-27.3941447" lon="152.9856092">
<ele>58.767</ele>
<time>2016-01-15T20:20:35.667Z</time>
</trkpt>
<trkpt lat="-27.3945474" lon="152.9857804">
<ele>60.359</ele>
<time>2016-01-15T20:20:38.708Z</time>
</trkpt>
<trkpt lat="-27.3949491" lon="152.9859564">
<ele>62.678</ele>
<time>2016-01-15T20:20:41.754Z</time>
</trkpt>
<trkpt lat="-27.3952244" lon="152.9860745">
<ele>63.764</ele>
<time>2016-01-15T20:20:43.758Z</time>
</trkpt>
<trkpt lat="-27.3955077" lon="152.9862005">
<ele>62.156</ele>
<time>2016-01-15T20:20:45.778Z</time>
</trkpt>
<trkpt lat="-27.3957846" lon="152.9863246">
<ele>58.644</ele>
<time>2016-01-15T20:20:47.739Z</time>
</trkpt>
<trkpt lat="-27.3961879" lon="152.9865180">
<ele>54.821</ele>
<time>2016-01-15T20:20:50.626Z</time>
</trkpt>
<trkpt lat="-27.3965919" lon="152.9867049">
<ele>51.842</ele>
<time>2016-01-15T20:20:53.534Z</time>
</trkpt>
<trkpt lat="-27.3969954" lon="152.9868983">
<ele>50.783</ele>
<time>2016-01-15T20:20:56.500Z</time>
</trkpt>
<trkpt lat="-27.3972704" lon="152.9869948">
<ele>52.485</ele>
<time>2016-01-15T20:20:58.557Z</time>
</trkpt>
<trkpt lat="-27.3976241" lon="152.9870455">
<ele>56.379</ele>
<time>2016-01-15T20:21:01.309Z</time>
</trkpt>
<trkpt lat="-27.3978952" lon="152.9868765">
<ele>60.311</ele>
<time>2016-01-15T20:21:03.711Z</time>
</trkpt>
<trkpt lat="-27.3982528" lon="152.9866089">
<ele>62.788</ele>
<time>2016-01-15T20:21:06.790Z</time>
</trkpt>
<trkpt lat="-27.3985091" lon="152.9864529">
<ele>63.981</ele>
<time>2016-01-15T20:21:08.808Z</time>
</trkpt>
<trkpt lat="-27.3988616" lon="152.9862545">
<ele>63.934</ele>
<time>2016-01-15T20:21:11.624Z</time>
</trkpt>
<trkpt lat="-27.3991268" lon="152.9862471">
<ele>61.976</ele>
<time>2016-01-15T20:21:13.534Z</time>
</trkpt>
<trkpt lat="-27.3995447" lon="152.9863190">
<ele>58.184</ele>
<time>2016-01-15T20:21:16.466Z</time>
</trkpt>
<trkpt lat="-27.3998731" lon="152.9863898">
<ele>53.470</ele>
<time>2016-01-15T20:21:18.641Z</time>
</trkpt>
<trkpt lat="-27.4001800" lon="152.9864579">
<ele>48.703</ele>
<time>2016-01-15T20:21:20.609Z</time>
</trkpt>
<trkpt lat="-27.4006389" lon="152.9865336">
<ele>44.723</ele>
<time>2016-01-15T20:21:23.574Z</time>
</trkpt>
<trkpt lat="-27.4010477" lon="152.9866998">
<ele>42.016</ele>
<time>2016-01-15T20:21:26.492Z</time>
</trkpt>
<trkpt lat="-27.4013006" lon="152.9868405">
<ele>40.246</ele>
<time>2016-01-15T20:21:28.465Z</time>
</trkpt>
<trkpt lat="-27.4015346" lon="152.9869128">
<ele>38.596</ele>
<time>2016-01-15T20:21:30.197Z</time>
</trkpt>
<trkpt lat="-27.4018522" lon="152.9869591">
<ele>36.628</ele>
<time>2016-01-15T20:21:32.452Z</time>
</trkpt>
<trkpt lat="-27.4022887" lon="152.9870149">
<ele>34.772</ele>
<time>2016-01-15T20:21:35.479Z</time>
</trkpt>
<trkpt lat="-27.4025630" lon="152.9871017">
<ele>33.479</ele>
<time>2016-01-15T20:21:37.451Z</time>
</trkpt>
<trkpt lat="-27.4028095" lon="152.9872621">
<ele>32.697</ele>
<time>2016-01-15T20:21:39.407Z</time>
</trkpt>
<trkpt lat="-27.4030562" lon="152.9874726">
<ele>32.257</ele>
<time>2016-01-15T20:21:41.453Z</time>
</trkpt>
<trkpt lat="-27.4034174" lon="152.9877842">
<ele>31.964</ele>
<time>2016-01-15T20:21:44.388Z</time>
</trkpt>
<trkpt lat="-27.4037094" lon="152.9880315">
<ele>31.746</ele>
<time>2016-01-15T20:21:46.768Z</time>
</trkpt>
<trkpt lat="-27.4040191" lon="152.9882887">
<ele>31.491</ele>
<time>2016-01-15T20:21:49.339Z</time>
</trkpt>
<trkpt lat="-27.4043633" lon="152.9885691">
<ele>30.917</ele>
<time>2016-01-15T20:21:52.262Z</time>
</trkpt>
<trkpt lat="-27.4046416" lon="152.9889300">
<ele>29.954</ele>
<time>2016-01-15T20:21:55.218Z</time>
</trkpt>
<trkpt lat="-27.4047992" lon="152.9892144">
<ele>28.944</ele>
<time>2016-01-15T20:21:57.228Z</time>
</trkpt>
<trkpt lat="-27.4050522" lon="152.9896308">
<ele>28.414</ele>
<time>2016-01-15T20:22:00.185Z</time>
</trkpt>
<trkpt lat="-27.4053408" lon="152.9900088">
<ele>28.499</ele>
<time>2016-01-15T20:22:03.177Z</time>
</trkpt>
<trkpt lat="-27.4055137" lon="152.9902240">
<ele>28.620</ele>
<time>2016-01-15T20:22:05.043Z</time>
</trkpt>
<trkpt lat="-27.4057752" lon="152.9905411">
<ele>28.292</ele>
<time>2016-01-15T20:22:08.081Z</time>
</trkpt>
<trkpt lat="-27.4060466" lon="152.9907277">
<ele>27.679</ele>
<time>2016-01-15T20:22:10.901Z</time>
</trkpt>
<trkpt lat="-27.4063233" lon="152.9907845">
<ele>26.644</ele>
<time>2016-01-15T20:22:13.786Z</time>
</trkpt>
<trkpt lat="-27.4065770" lon="152.9908231">
<ele>24.992</ele>
<time>2016-01-15T20:22:16.754Z</time>
</trkpt>
<trkpt lat="-27.4067772" lon="152.9908433">
<ele>23.242</ele>
<time>2016-01-15T20:22:19.491Z</time>
</trkpt>
<trkpt lat="-27.4068814" lon="152.9908594">
<ele>21.896</ele>
<time>2016-01-15T20:22:21.163Z</time>
</trkpt>
<trkpt lat="-27.4069868" lon="152.9908899">
<ele>21.049</ele>
<time>2016-01-15T20:22:23.109Z</time>
</trkpt>
<trkpt lat="-27.4071759" lon="152.9908793">
<ele>20.761</ele>
<time>2016-01-15T20:22:26.578Z</time>
</trkpt>
<trkpt lat="-27.4070670" lon="152.9912807">
<ele>20.910</ele>
<time>2016-01-15T20:22:30.845Z</time>
</trkpt>
<trkpt lat="-27.4069472" lon="152.9917023">
<ele>21.398</ele>
<time>2016-01-15T20:22:33.862Z</time>
</trkpt>
<trkpt lat="-27.4068820" lon="152.9920494">
<ele>22.272</ele>
<time>2016-01-15T20:22:35.945Z</time>
</trkpt>
<trkpt lat="-27.4068685" lon="152.9925626">
<ele>23.318</ele>
<time>2016-01-15T20:22:38.920Z</time>
</trkpt>
<trkpt lat="-27.4069205" lon="152.9928868">
<ele>23.996</ele>
<time>2016-01-15T20:22:40.770Z</time>
</trkpt>
<trkpt lat="-27.4069906" lon="152.9933372">
<ele>24.106</ele>
<time>2016-01-15T20:22:43.308Z</time>
</trkpt>
<trkpt lat="-27.4070793" lon="152.9939636">
<ele>23.943</ele>
<time>2016-01-15T20:22:46.794Z</time>
</trkpt>
<trkpt lat="-27.4071336" lon="152.9943087">
<ele>23.794</ele>
<time>2016-01-15T20:22:48.722Z</time>
</trkpt>
<trkpt lat="-27.4072034" lon="152.9947894">
<ele>23.687</ele>
<time>2016-01-15T20:22:51.407Z</time>
</trkpt>
<trkpt lat="-27.4072925" lon="152.9953756">
<ele>23.570</ele>
<time>2016-01-15T20:22:54.701Z</time>
</trkpt>
<trkpt lat="-27.4073469" lon="152.9957179">
<ele>23.314</ele>
<time>2016-01-15T20:22:56.655Z</time>
</trkpt>
<trkpt lat="-27.4073945" lon="152.9962370">
<ele>23.051</ele>
<time>2016-01-15T20:22:59.613Z</time>
</trkpt>
<trkpt lat="-27.4073733" lon="152.9965794">
<ele>23.342</ele>
<time>2016-01-15T20:23:01.578Z</time>
</trkpt>
<trkpt lat="-27.4073269" lon="152.9969215">
<ele>24.284</ele>
<time>2016-01-15T20:23:03.573Z</time>
</trkpt>
<trkpt lat="-27.4072568" lon="152.9974228">
<ele>25.374</ele>
<time>2016-01-15T20:23:06.514Z</time>
</trkpt>
<trkpt lat="-27.4072018" lon="152.9977594">
<ele>26.769</ele>
<time>2016-01-15T20:23:08.506Z</time>
</trkpt>
<trkpt lat="-27.4071516" lon="152.9980998">
<ele>28.906</ele>
<time>2016-01-15T20:23:10.586Z</time>
</trkpt>
<trkpt lat="-27.4071501" lon="152.9984101">
<ele>31.616</ele>
<time>2016-01-15T20:23:12.575Z</time>
</trkpt>
<trkpt lat="-27.4072473" lon="152.9986802">
<ele>34.393</ele>
<time>2016-01-15T20:23:14.419Z</time>
</trkpt>
<trkpt lat="-27.4074825" lon="152.9991309">
<ele>36.633</ele>
<time>2016-01-15T20:23:17.492Z</time>
</trkpt>
<trkpt lat="-27.4076419" lon="152.9994357">
<ele>38.461</ele>
<time>2016-01-15T20:23:19.483Z</time>
</trkpt>
<trkpt lat="-27.4077993" lon="152.9997315">
<ele>40.431</ele>
<time>2016-01-15T20:23:21.459Z</time>
</trkpt>
<trkpt lat="-27.4080219" lon="153.0001755">
<ele>42.184</ele>
<time>2016-01-15T20:23:24.440Z</time>
</trkpt>
<trkpt lat="-27.4081105" lon="153.0004886">
<ele>43.134</ele>
<time>2016-01-15T20:23:26.365Z</time>
</trkpt>
<trkpt lat="-27.4081843" lon="153.0010033">
<ele>43.164</ele>
<time>2016-01-15T20:23:29.377Z</time>
</trkpt>
<trkpt lat="-27.4082266" lon="153.0013184">
<ele>42.441</ele>
<time>2016-01-15T20:23:31.190Z</time>
</trkpt>
<trkpt lat="-27.4082933" lon="153.0017136">
<ele>41.479</ele>
<time>2016-01-15T20:23:33.445Z</time>
</trkpt>
<trkpt lat="-27.4083456" lon="153.0020652">
<ele>40.493</ele>
<time>2016-01-15T20:23:35.435Z</time>
</trkpt>
<trkpt lat="-27.4084196" lon="153.0025787">
<ele>39.207</ele>
<time>2016-01-15T20:23:38.353Z</time>
</trkpt>
<trkpt lat="-27.4084713" lon="153.0029194">
<ele>37.407</ele>
<time>2016-01-15T20:23:40.299Z</time>
</trkpt>
<trkpt lat="-27.4085481" lon="153.0034426">
<ele>35.355</ele>
<time>2016-01-15T20:23:43.270Z</time>
</trkpt>
<trkpt lat="-27.4086019" lon="153.0037886">
<ele>33.633</ele>
<time>2016-01-15T20:23:45.235Z</time>
</trkpt>
<trkpt lat="-27.4086841" lon="153.0043159">
<ele>32.281</ele>
<time>2016-01-15T20:23:48.267Z</time>
</trkpt>
<trkpt lat="-27.4087369" lon="153.0046474">
<ele>30.775</ele>
<time>2016-01-15T20:23:50.221Z</time>
</trkpt>
<trkpt lat="-27.4087873" lon="153.0049787">
<ele>29.145</ele>
<time>2016-01-15T20:23:52.203Z</time>
</trkpt>
<trkpt lat="-27.4088341" lon="153.0052941">
<ele>27.961</ele>
<time>2016-01-15T20:23:54.105Z</time>
</trkpt>
<trkpt lat="-27.4089075" lon="153.0057943">
<ele>26.955</ele>
<time>2016-01-15T20:23:57.148Z</time>
</trkpt>
<trkpt lat="-27.4089559" lon="153.0061202">
<ele>25.567</ele>
<time>2016-01-15T20:23:59.157Z</time>
</trkpt>
<trkpt lat="-27.4089870" lon="153.0064278">
<ele>23.942</ele>
<time>2016-01-15T20:24:01.131Z</time>
</trkpt>
<trkpt lat="-27.4090369" lon="153.0068581">
<ele>22.232</ele>
<time>2016-01-15T20:24:04.107Z</time>
</trkpt>
<trkpt lat="-27.4090733" lon="153.0071069">
<ele>20.589</ele>
<time>2016-01-15T20:24:06.312Z</time>
</trkpt>
<trkpt lat="-27.4091066" lon="153.0073465">
<ele>19.269</ele>
<time>2016-01-15T20:24:09.635Z</time>
</trkpt>
<trkpt lat="-27.4091221" lon="153.0074508">
<ele>17.680</ele>
<time>2016-01-15T20:24:11.999Z</time>
</trkpt>
<trkpt lat="-27.4091221" lon="153.0074508">
<ele>15.552</ele>
<time>2016-01-15T20:24:12.999Z</time>
</trkpt>
<trkpt lat="-27.4091221" lon="153.0074508">
<ele>14.124</ele>
<time>2016-01-15T20:24:40.718Z</time>
</trkpt>
<trkpt lat="-27.4091516" lon="153.0076723">
<ele>14.399</ele>
<time>2016-01-15T20:24:45.264Z</time>
</trkpt>
<trkpt lat="-27.4091819" lon="153.0078959">
<ele>15.694</ele>
<time>2016-01-15T20:24:47.274Z</time>
</trkpt>
<trkpt lat="-27.4092279" lon="153.0083108">
<ele>16.919</ele>
<time>2016-01-15T20:24:50.347Z</time>
</trkpt>
<trkpt lat="-27.4092899" lon="153.0087461">
<ele>17.865</ele>
<time>2016-01-15T20:24:53.258Z</time>
</trkpt>
<trkpt lat="-27.4093515" lon="153.0092486">
<ele>18.720</ele>
<time>2016-01-15T20:24:56.429Z</time>
</trkpt>
<trkpt lat="-27.4094200" lon="153.0097395">
<ele>19.448</ele>
<time>2016-01-15T20:24:59.386Z</time>
</trkpt>
<trkpt lat="-27.4095115" lon="153.0102415">
<ele>19.969</ele>
<time>2016-01-15T20:25:02.347Z</time>
</trkpt>
<trkpt lat="-27.4095690" lon="153.0105957">
<ele>20.078</ele>
<time>2016-01-15T20:25:04.408Z</time>
</trkpt>
<trkpt lat="-27.4096163" lon="153.0109329">
<ele>19.698</ele>
<time>2016-01-15T20:25:06.378Z</time>
</trkpt>
<trkpt lat="-27.4096861" lon="153.0114468">
<ele>19.292</ele>
<time>2016-01-15T20:25:09.393Z</time>
</trkpt>
<trkpt lat="-27.4097603" lon="153.0119539">
<ele>19.245</ele>
<time>2016-01-15T20:25:12.388Z</time>
</trkpt>
<trkpt lat="-27.4098067" lon="153.0122870">
<ele>19.226</ele>
<time>2016-01-15T20:25:14.353Z</time>
</trkpt>
<trkpt lat="-27.4098526" lon="153.0126259">
<ele>18.889</ele>
<time>2016-01-15T20:25:16.377Z</time>
</trkpt>
<trkpt lat="-27.4099166" lon="153.0131166">
<ele>18.615</ele>
<time>2016-01-15T20:25:19.324Z</time>
</trkpt>
<trkpt lat="-27.4099614" lon="153.0134414">
<ele>18.802</ele>
<time>2016-01-15T20:25:21.260Z</time>
</trkpt>
<trkpt lat="-27.4100304" lon="153.0139556">
<ele>19.341</ele>
<time>2016-01-15T20:25:24.308Z</time>
</trkpt>
<trkpt lat="-27.4100774" lon="153.0142915">
<ele>19.971</ele>
<time>2016-01-15T20:25:26.328Z</time>
</trkpt>
<trkpt lat="-27.4101445" lon="153.0147754">
<ele>20.201</ele>
<time>2016-01-15T20:25:29.267Z</time>
</trkpt>
<trkpt lat="-27.4102131" lon="153.0152638">
<ele>19.603</ele>
<time>2016-01-15T20:25:32.248Z</time>
</trkpt>
<trkpt lat="-27.4102761" lon="153.0157498">
<ele>18.507</ele>
<time>2016-01-15T20:25:35.229Z</time>
</trkpt>
<trkpt lat="-27.4103204" lon="153.0160616">
<ele>17.612</ele>
<time>2016-01-15T20:25:37.161Z</time>
</trkpt>
<trkpt lat="-27.4103575" lon="153.0163848">
<ele>17.223</ele>
<time>2016-01-15T20:25:39.138Z</time>
</trkpt>
<trkpt lat="-27.4103689" lon="153.0166632">
<ele>17.245</ele>
<time>2016-01-15T20:25:40.824Z</time>
</trkpt>
<trkpt lat="-27.4104245" lon="153.0169447">
<ele>17.461</ele>
<time>2016-01-15T20:25:42.573Z</time>
</trkpt>
<trkpt lat="-27.4104795" lon="153.0173645">
<ele>17.618</ele>
<time>2016-01-15T20:25:45.128Z</time>
</trkpt>
<trkpt lat="-27.4105260" lon="153.0176960">
<ele>17.450</ele>
<time>2016-01-15T20:25:47.118Z</time>
</trkpt>
<trkpt lat="-27.4106061" lon="153.0181910">
<ele>16.946</ele>
<time>2016-01-15T20:25:50.087Z</time>
</trkpt>
<trkpt lat="-27.4106544" lon="153.0185229">
<ele>16.422</ele>
<time>2016-01-15T20:25:52.071Z</time>
</trkpt>
<trkpt lat="-27.4107229" lon="153.0190275">
<ele>16.378</ele>
<time>2016-01-15T20:25:55.093Z</time>
</trkpt>
<trkpt lat="-27.4107924" lon="153.0195252">
<ele>16.933</ele>
<time>2016-01-15T20:25:58.087Z</time>
</trkpt>
<trkpt lat="-27.4108343" lon="153.0198507">
<ele>17.286</ele>
<time>2016-01-15T20:26:00.045Z</time>
</trkpt>
<trkpt lat="-27.4108730" lon="153.0201825">
<ele>16.790</ele>
<time>2016-01-15T20:26:02.006Z</time>
</trkpt>
<trkpt lat="-27.4109157" lon="153.0205321">
<ele>15.861</ele>
<time>2016-01-15T20:26:04.016Z</time>
</trkpt>
<trkpt lat="-27.4109820" lon="153.0210652">
<ele>15.070</ele>
<time>2016-01-15T20:26:07.041Z</time>
</trkpt>
<trkpt lat="-27.4110346" lon="153.0214122">
<ele>14.618</ele>
<time>2016-01-15T20:26:09.020Z</time>
</trkpt>
<trkpt lat="-27.4111114" lon="153.0219360">
<ele>14.644</ele>
<time>2016-01-15T20:26:12.019Z</time>
</trkpt>
<trkpt lat="-27.4111592" lon="153.0222763">
<ele>15.365</ele>
<time>2016-01-15T20:26:13.998Z</time>
</trkpt>
<trkpt lat="-27.4112225" lon="153.0227673">
<ele>16.625</ele>
<time>2016-01-15T20:26:16.861Z</time>
</trkpt>
<trkpt lat="-27.4112949" lon="153.0233023">
<ele>17.697</ele>
<time>2016-01-15T20:26:19.920Z</time>
</trkpt>
<trkpt lat="-27.4113658" lon="153.0238286">
<ele>18.291</ele>
<time>2016-01-15T20:26:22.907Z</time>
</trkpt>
<trkpt lat="-27.4114078" lon="153.0241611">
<ele>18.820</ele>
<time>2016-01-15T20:26:24.827Z</time>
</trkpt>
<trkpt lat="-27.4114549" lon="153.0245084">
<ele>19.666</ele>
<time>2016-01-15T20:26:26.843Z</time>
</trkpt>
<trkpt lat="-27.4115200" lon="153.0250258">
<ele>20.781</ele>
<time>2016-01-15T20:26:29.822Z</time>
</trkpt>
<trkpt lat="-27.4115653" lon="153.0253613">
<ele>21.874</ele>
<time>2016-01-15T20:26:31.846Z</time>
</trkpt>
<trkpt lat="-27.4116212" lon="153.0257933">
<ele>22.840</ele>
<time>2016-01-15T20:26:34.750Z</time>
</trkpt>
<trkpt lat="-27.4116574" lon="153.0260905">
<ele>23.633</ele>
<time>2016-01-15T20:26:37.070Z</time>
</trkpt>
<trkpt lat="-27.4116893" lon="153.0263564">
<ele>23.988</ele>
<time>2016-01-15T20:26:39.590Z</time>
</trkpt>
<trkpt lat="-27.4117137" lon="153.0265409">
<ele>23.876</ele>
<time>2016-01-15T20:26:41.581Z</time>
</trkpt>
<trkpt lat="-27.4117326" lon="153.0266953">
<ele>23.425</ele>
<time>2016-01-15T20:26:43.426Z</time>
</trkpt>
<trkpt lat="-27.4117612" lon="153.0269119">
<ele>22.787</ele>
<time>2016-01-15T20:26:46.333Z</time>
</trkpt>
<trkpt lat="-27.4117831" lon="153.0270662">
<ele>22.262</ele>
<time>2016-01-15T20:26:48.999Z</time>
</trkpt>
<trkpt lat="-27.4117831" lon="153.0270662">
<ele>22.052</ele>
<time>2016-01-15T20:26:52.999Z</time>
</trkpt>
<trkpt lat="-27.4117831" lon="153.0270662">
<ele>22.032</ele>
<time>2016-01-15T20:26:54.396Z</time>
</trkpt>
<trkpt lat="-27.4118063" lon="153.0272506">
<ele>22.043</ele>
<time>2016-01-15T20:27:03.991Z</time>
</trkpt>
<trkpt lat="-27.4118261" lon="153.0274030">
<ele>22.003</ele>
<time>2016-01-15T20:27:05.614Z</time>
</trkpt>
<trkpt lat="-27.4118620" lon="153.0277094">
<ele>21.903</ele>
<time>2016-01-15T20:27:08.262Z</time>
</trkpt>
<trkpt lat="-27.4119113" lon="153.0281094">
<ele>22.070</ele>
<time>2016-01-15T20:27:11.150Z</time>
</trkpt>
<trkpt lat="-27.4119906" lon="153.0286760">
<ele>22.715</ele>
<time>2016-01-15T20:27:14.827Z</time>
</trkpt>
<trkpt lat="-27.4120316" lon="153.0290023">
<ele>23.422</ele>
<time>2016-01-15T20:27:16.822Z</time>
</trkpt>
<trkpt lat="-27.4120732" lon="153.0293258">
<ele>23.396</ele>
<time>2016-01-15T20:27:18.791Z</time>
</trkpt>
<trkpt lat="-27.4121210" lon="153.0296620">
<ele>22.097</ele>
<time>2016-01-15T20:27:20.841Z</time>
</trkpt>
<trkpt lat="-27.4121644" lon="153.0299927">
<ele>19.868</ele>
<time>2016-01-15T20:27:22.870Z</time>
</trkpt>
<trkpt lat="-27.4122028" lon="153.0303247">
<ele>17.620</ele>
<time>2016-01-15T20:27:24.933Z</time>
</trkpt>
<trkpt lat="-27.4122294" lon="153.0308138">
<ele>15.518</ele>
<time>2016-01-15T20:27:28.032Z</time>
</trkpt>
<trkpt lat="-27.4122413" lon="153.0312681">
<ele>13.181</ele>
<time>2016-01-15T20:27:31.052Z</time>
</trkpt>
<trkpt lat="-27.4122620" lon="153.0315769">
<ele>10.302</ele>
<time>2016-01-15T20:27:33.171Z</time>
</trkpt>
<trkpt lat="-27.4122960" lon="153.0320037">
<ele>6.986</ele>
<time>2016-01-15T20:27:36.198Z</time>
</trkpt>
<trkpt lat="-27.4123214" lon="153.0322847">
<ele>3.643</ele>
<time>2016-01-15T20:27:38.151Z</time>
</trkpt>
<trkpt lat="-27.4123499" lon="153.0325701">
<ele>0.558</ele>
<time>2016-01-15T20:27:40.090Z</time>
</trkpt>
<trkpt lat="-27.4123949" lon="153.0330146">
<ele>0.000</ele>
<time>2016-01-15T20:27:42.529Z</time>
</trkpt>
<trkpt lat="-27.4123949" lon="153.0330146">
<ele>0.000</ele>
<time>2016-01-15T20:27:42.529Z</time>
</trkpt>
<trkpt lat="-27.4111212" lon="153.0607709">
<ele>0.937</ele>
<time>2016-01-15T20:30:13.901Z</time>
</trkpt>
<trkpt lat="-27.4112022" lon="153.0614131">
<ele>0.936</ele>
<time>2016-01-15T20:30:16.865Z</time>
</trkpt>
<trkpt lat="-27.4112679" lon="153.0618447">
<ele>1.290</ele>
<time>2016-01-15T20:30:18.857Z</time>
</trkpt>
<trkpt lat="-27.4113270" lon="153.0622719">
<ele>2.375</ele>
<time>2016-01-15T20:30:20.821Z</time>
</trkpt>
<trkpt lat="-27.4114642" lon="153.0629059">
<ele>3.936</ele>
<time>2016-01-15T20:30:23.792Z</time>
</trkpt>
<trkpt lat="-27.4115829" lon="153.0633246">
<ele>5.555</ele>
<time>2016-01-15T20:30:25.807Z</time>
</trkpt>
<trkpt lat="-27.4117066" lon="153.0637377">
<ele>6.979</ele>
<time>2016-01-15T20:30:27.815Z</time>
</trkpt>
<trkpt lat="-27.4118922" lon="153.0643505">
<ele>7.863</ele>
<time>2016-01-15T20:30:30.792Z</time>
</trkpt>
<trkpt lat="-27.4120441" lon="153.0649829">
<ele>8.074</ele>
<time>2016-01-15T20:30:33.770Z</time>
</trkpt>
<trkpt lat="-27.4120951" lon="153.0656470">
<ele>7.842</ele>
<time>2016-01-15T20:30:36.773Z</time>
</trkpt>
<trkpt lat="-27.4120480" lon="153.0663042">
<ele>7.426</ele>
<time>2016-01-15T20:30:39.743Z</time>
</trkpt>
<trkpt lat="-27.4119076" lon="153.0669548">
<ele>6.998</ele>
<time>2016-01-15T20:30:42.750Z</time>
</trkpt>
<trkpt lat="-27.4117551" lon="153.0673828">
<ele>5.878</ele>
<time>2016-01-15T20:30:44.793Z</time>
</trkpt>
<trkpt lat="-27.4114733" lon="153.0680014">
<ele>3.628</ele>
<time>2016-01-15T20:30:47.842Z</time>
</trkpt>
<trkpt lat="-27.4111673" lon="153.0685883">
<ele>1.373</ele>
<time>2016-01-15T20:30:50.835Z</time>
</trkpt>
<trkpt lat="-27.4109732" lon="153.0689685">
<ele>0.212</ele>
<time>2016-01-15T20:30:52.794Z</time>
</trkpt>
<trkpt lat="-27.4107890" lon="153.0693704">
<ele>0.000</ele>
<time>2016-01-15T20:30:54.816Z</time>
</trkpt>
<trkpt lat="-27.4105952" lon="153.0700112">
<ele>0.085</ele>
<time>2016-01-15T20:30:57.835Z</time>
</trkpt>
<trkpt lat="-27.4105319" lon="153.0704569">
<ele>0.370</ele>
<time>2016-01-15T20:30:59.910Z</time>
</trkpt>
<trkpt lat="-27.4105016" lon="153.0710605">
<ele>0.576</ele>
<time>2016-01-15T20:31:02.859Z</time>
</trkpt>
<trkpt lat="-27.4105677" lon="153.0716101">
<ele>0.278</ele>
<time>2016-01-15T20:31:05.806Z</time>
</trkpt>
<trkpt lat="-27.4106383" lon="153.0721398">
<ele>0.000</ele>
<time>2016-01-15T20:31:08.824Z</time>
</trkpt>
<trkpt lat="-27.4106812" lon="153.0724808">
<ele>0.000</ele>
<time>2016-01-15T20:31:10.858Z</time>
</trkpt>
<trkpt lat="-27.4107084" lon="153.0727937">
<ele>0.000</ele>
<time>2016-01-15T20:31:12.851Z</time>
</trkpt>
<trkpt lat="-27.4107730" lon="153.0732147">
<ele>0.000</ele>
<time>2016-01-15T20:31:15.796Z</time>
</trkpt>
<trkpt lat="-27.4108774" lon="153.0735873">
<ele>0.000</ele>
<time>2016-01-15T20:31:18.818Z</time>
</trkpt>
<trkpt lat="-27.4109638" lon="153.0737682">
<ele>0.000</ele>
<time>2016-01-15T20:31:20.708Z</time>
</trkpt>
<trkpt lat="-27.4110856" lon="153.0739835">
<ele>0.000</ele>
<time>2016-01-15T20:31:23.471Z</time>
</trkpt>
<trkpt lat="-27.4112060" lon="153.0741716">
<ele>0.000</ele>
<time>2016-01-15T20:31:26.395Z</time>
</trkpt>
<trkpt lat="-27.4113251" lon="153.0743113">
<ele>0.000</ele>
<time>2016-01-15T20:31:28.999Z</time>
</trkpt>
<trkpt lat="-27.4113251" lon="153.0743113">
<ele>0.000</ele>
<time>2016-01-15T20:31:34.999Z</time>
</trkpt>
<trkpt lat="-27.4113251" lon="153.0743113">
<ele>0.000</ele>
<time>2016-01-15T20:31:35.099Z</time>
</trkpt>
<trkpt lat="-27.4115386" lon="153.0745818">
<ele>0.000</ele>
<time>2016-01-15T20:31:40.809Z</time>
</trkpt>
<trkpt lat="-27.4117213" lon="153.0749186">
<ele>0.000</ele>
<time>2016-01-15T20:31:43.729Z</time>
</trkpt>
<trkpt lat="-27.4118401" lon="153.0752412">
<ele>0.000</ele>
<time>2016-01-15T20:31:45.911Z</time>
</trkpt>
<trkpt lat="-27.4119106" lon="153.0755256">
<ele>0.000</ele>
<time>2016-01-15T20:31:47.728Z</time>
</trkpt>
<trkpt lat="-27.4119708" lon="153.0758062">
<ele>0.000</ele>
<time>2016-01-15T20:31:49.618Z</time>
</trkpt>
<trkpt lat="-27.4120406" lon="153.0761631">
<ele>0.000</ele>
<time>2016-01-15T20:31:52.187Z</time>
</trkpt>
<trkpt lat="-27.4120944" lon="153.0763735">
<ele>0.000</ele>
<time>2016-01-15T20:31:54.252Z</time>
</trkpt>
<trkpt lat="-27.4121405" lon="153.0765205">
<ele>0.000</ele>
<time>2016-01-15T20:31:55.999Z</time>
</trkpt>
<trkpt lat="-27.4121405" lon="153.0765205">
<ele>0.000</ele>
<time>2016-01-15T20:31:59.999Z</time>
</trkpt>
<trkpt lat="-27.4121405" lon="153.0765205">
<ele>0.000</ele>
<time>2016-01-15T20:32:32.505Z</time>
</trkpt>
<trkpt lat="-27.4121834" lon="153.0767109">
<ele>0.000</ele>
<time>2016-01-15T20:32:39.825Z</time>
</trkpt>
<trkpt lat="-27.4122431" lon="153.0768613">
<ele>0.000</ele>
<time>2016-01-15T20:32:41.507Z</time>
</trkpt>
<trkpt lat="-27.4125230" lon="153.0772135">
<ele>0.000</ele>
<time>2016-01-15T20:32:45.247Z</time>
</trkpt>
<trkpt lat="-27.4127475" lon="153.0773755">
<ele>0.000</ele>
<time>2016-01-15T20:32:47.228Z</time>
</trkpt>
<trkpt lat="-27.4130264" lon="153.0774373">
<ele>0.000</ele>
<time>2016-01-15T20:32:49.189Z</time>
</trkpt>
<trkpt lat="-27.4133295" lon="153.0774128">
<ele>0.000</ele>
<time>2016-01-15T20:32:51.077Z</time>
</trkpt>
<trkpt lat="-27.4138655" lon="153.0772607">
<ele>0.000</ele>
<time>2016-01-15T20:32:54.157Z</time>
</trkpt>
<trkpt lat="-27.4142590" lon="153.0771161">
<ele>1.730</ele>
<time>2016-01-15T20:32:56.139Z</time>
</trkpt>
<trkpt lat="-27.4146729" lon="153.0769924">
<ele>4.378</ele>
<time>2016-01-15T20:32:58.093Z</time>
</trkpt>
<trkpt lat="-27.4153296" lon="153.0768231">
<ele>6.869</ele>
<time>2016-01-15T20:33:01.124Z</time>
</trkpt>
<trkpt lat="-27.4159956" lon="153.0767779">
<ele>8.254</ele>
<time>2016-01-15T20:33:04.094Z</time>
</trkpt>
<trkpt lat="-27.4164458" lon="153.0768409">
<ele>8.706</ele>
<time>2016-01-15T20:33:06.114Z</time>
</trkpt>
<trkpt lat="-27.4170981" lon="153.0769958">
<ele>8.677</ele>
<time>2016-01-15T20:33:09.103Z</time>
</trkpt>
<trkpt lat="-27.4175141" lon="153.0771717">
<ele>8.276</ele>
<time>2016-01-15T20:33:11.094Z</time>
</trkpt>
<trkpt lat="-27.4179346" lon="153.0773740">
<ele>7.519</ele>
<time>2016-01-15T20:33:13.111Z</time>
</trkpt>
<trkpt lat="-27.4185059" lon="153.0777898">
<ele>6.813</ele>
<time>2016-01-15T20:33:16.116Z</time>
</trkpt>
<trkpt lat="-27.4188304" lon="153.0781310">
<ele>6.182</ele>
<time>2016-01-15T20:33:18.081Z</time>
</trkpt>
<trkpt lat="-27.4193169" lon="153.0786474">
<ele>5.322</ele>
<time>2016-01-15T20:33:21.019Z</time>
</trkpt>
<trkpt lat="-27.4196343" lon="153.0790002">
<ele>4.675</ele>
<time>2016-01-15T20:33:23.001Z</time>
</trkpt>
<trkpt lat="-27.4201344" lon="153.0794429">
<ele>4.685</ele>
<time>2016-01-15T20:33:25.863Z</time>
</trkpt>
<trkpt lat="-27.4204898" lon="153.0797232">
<ele>4.836</ele>
<time>2016-01-15T20:33:27.816Z</time>
</trkpt>
<trkpt lat="-27.4210994" lon="153.0800793">
<ele>4.620</ele>
<time>2016-01-15T20:33:30.910Z</time>
</trkpt>
<trkpt lat="-27.4215267" lon="153.0802154">
<ele>4.238</ele>
<time>2016-01-15T20:33:32.950Z</time>
</trkpt>
<trkpt lat="-27.4221599" lon="153.0803596">
<ele>4.181</ele>
<time>2016-01-15T20:33:35.956Z</time>
</trkpt>
<trkpt lat="-27.4228003" lon="153.0803940">
<ele>4.429</ele>
<time>2016-01-15T20:33:38.975Z</time>
</trkpt>
<trkpt lat="-27.4232176" lon="153.0803558">
<ele>4.578</ele>
<time>2016-01-15T20:33:40.893Z</time>
</trkpt>
<trkpt lat="-27.4238847" lon="153.0802272">
<ele>4.526</ele>
<time>2016-01-15T20:33:43.917Z</time>
</trkpt>
<trkpt lat="-27.4243347" lon="153.0801404">
<ele>4.561</ele>
<time>2016-01-15T20:33:45.903Z</time>
</trkpt>
<trkpt lat="-27.4250139" lon="153.0799839">
<ele>4.782</ele>
<time>2016-01-15T20:33:48.917Z</time>
</trkpt>
<trkpt lat="-27.4256920" lon="153.0798120">
<ele>5.036</ele>
<time>2016-01-15T20:33:51.946Z</time>
</trkpt>
<trkpt lat="-27.4261272" lon="153.0797139">
<ele>4.704</ele>
<time>2016-01-15T20:33:53.883Z</time>
</trkpt>
<trkpt lat="-27.4268297" lon="153.0796650">
<ele>3.528</ele>
<time>2016-01-15T20:33:57.000Z</time>
</trkpt>
<trkpt lat="-27.4272655" lon="153.0796833">
<ele>2.368</ele>
<time>2016-01-15T20:33:59.013Z</time>
</trkpt>
<trkpt lat="-27.4278886" lon="153.0798333">
<ele>2.000</ele>
<time>2016-01-15T20:34:02.122Z</time>
</trkpt>
<trkpt lat="-27.4282601" lon="153.0799687">
<ele>2.067</ele>
<time>2016-01-15T20:34:04.124Z</time>
</trkpt>
<trkpt lat="-27.4287981" lon="153.0802459">
<ele>1.680</ele>
<time>2016-01-15T20:34:07.144Z</time>
</trkpt>
<trkpt lat="-27.4291354" lon="153.0804695">
<ele>0.518</ele>
<time>2016-01-15T20:34:09.117Z</time>
</trkpt>
<trkpt lat="-27.4294676" lon="153.0807244">
<ele>0.000</ele>
<time>2016-01-15T20:34:11.150Z</time>
</trkpt>
<trkpt lat="-27.4298906" lon="153.0811518">
<ele>0.000</ele>
<time>2016-01-15T20:34:14.061Z</time>
</trkpt>
<trkpt lat="-27.4301912" lon="153.0814175">
<ele>0.000</ele>
<time>2016-01-15T20:34:16.042Z</time>
</trkpt>
<trkpt lat="-27.4306993" lon="153.0817683">
<ele>0.637</ele>
<time>2016-01-15T20:34:19.138Z</time>
</trkpt>
<trkpt lat="-27.4310490" lon="153.0819580">
<ele>2.185</ele>
<time>2016-01-15T20:34:21.166Z</time>
</trkpt>
<trkpt lat="-27.4313958" lon="153.0821409">
<ele>4.217</ele>
<time>2016-01-15T20:34:23.158Z</time>
</trkpt>
<trkpt lat="-27.4317408" lon="153.0823154">
<ele>6.384</ele>
<time>2016-01-15T20:34:25.085Z</time>
</trkpt>
<trkpt lat="-27.4321065" lon="153.0825009">
<ele>7.864</ele>
<time>2016-01-15T20:34:27.080Z</time>
</trkpt>
<trkpt lat="-27.4326410" lon="153.0828256">
<ele>8.247</ele>
<time>2016-01-15T20:34:30.101Z</time>
</trkpt>
<trkpt lat="-27.4331269" lon="153.0832235">
<ele>7.936</ele>
<time>2016-01-15T20:34:33.091Z</time>
</trkpt>
<trkpt lat="-27.4334171" lon="153.0835359">
<ele>7.561</ele>
<time>2016-01-15T20:34:35.078Z</time>
</trkpt>
<trkpt lat="-27.4337891" lon="153.0840488">
<ele>7.343</ele>
<time>2016-01-15T20:34:37.985Z</time>
</trkpt>
<trkpt lat="-27.4340051" lon="153.0844343">
<ele>7.102</ele>
<time>2016-01-15T20:34:39.973Z</time>
</trkpt>
<trkpt lat="-27.4341904" lon="153.0848447">
<ele>6.529</ele>
<time>2016-01-15T20:34:41.992Z</time>
</trkpt>
<trkpt lat="-27.4343983" lon="153.0854594">
<ele>5.407</ele>
<time>2016-01-15T20:34:44.900Z</time>
</trkpt>
<trkpt lat="-27.4345853" lon="153.0861019">
<ele>3.769</ele>
<time>2016-01-15T20:34:47.912Z</time>
</trkpt>
<trkpt lat="-27.4347183" lon="153.0867489">
<ele>1.866</ele>
<time>2016-01-15T20:34:50.862Z</time>
</trkpt>
<trkpt lat="-27.4348058" lon="153.0871954">
<ele>0.308</ele>
<time>2016-01-15T20:34:52.864Z</time>
</trkpt>
<trkpt lat="-27.4348488" lon="153.0876690">
<ele>0.000</ele>
<time>2016-01-15T20:34:54.935Z</time>
</trkpt>
<trkpt lat="-27.4349077" lon="153.0883537">
<ele>0.000</ele>
<time>2016-01-15T20:34:57.933Z</time>
</trkpt>
<trkpt lat="-27.4349072" lon="153.0887976">
<ele>0.120</ele>
<time>2016-01-15T20:34:59.877Z</time>
</trkpt>
<trkpt lat="-27.4349090" lon="153.0892442">
<ele>0.289</ele>
<time>2016-01-15T20:35:01.819Z</time>
</trkpt>
<trkpt lat="-27.4348671" lon="153.0899253">
<ele>0.036</ele>
<time>2016-01-15T20:35:04.778Z</time>
</trkpt>
<trkpt lat="-27.4347967" lon="153.0905996">
<ele>0.000</ele>
<time>2016-01-15T20:35:07.714Z</time>
</trkpt>
<trkpt lat="-27.4347190" lon="153.0910437">
<ele>0.000</ele>
<time>2016-01-15T20:35:09.678Z</time>
</trkpt>
<trkpt lat="-27.4345863" lon="153.0917087">
<ele>0.076</ele>
<time>2016-01-15T20:35:12.666Z</time>
</trkpt>
<trkpt lat="-27.4344073" lon="153.0923157">
<ele>0.140</ele>
<time>2016-01-15T20:35:15.504Z</time>
</trkpt>
<trkpt lat="-27.4342278" lon="153.0929501">
<ele>0.000</ele>
<time>2016-01-15T20:35:18.496Z</time>
</trkpt>
<trkpt lat="-27.4341238" lon="153.0933727">
<ele>0.000</ele>
<time>2016-01-15T20:35:20.495Z</time>
</trkpt>
<trkpt lat="-27.4340772" lon="153.0940432">
<ele>0.000</ele>
<time>2016-01-15T20:35:23.559Z</time>
</trkpt>
<trkpt lat="-27.4341363" lon="153.0944802">
<ele>0.000</ele>
<time>2016-01-15T20:35:25.577Z</time>
</trkpt>
<trkpt lat="-27.4343339" lon="153.0950971">
<ele>0.000</ele>
<time>2016-01-15T20:35:28.554Z</time>
</trkpt>
<trkpt lat="-27.4345828" lon="153.0954982">
<ele>0.000</ele>
<time>2016-01-15T20:35:30.748Z</time>
</trkpt>
<trkpt lat="-27.4350257" lon="153.0959648">
<ele>0.000</ele>
<time>2016-01-15T20:35:33.849Z</time>
</trkpt>
<trkpt lat="-27.4353573" lon="153.0961966">
<ele>0.582</ele>
<time>2016-01-15T20:35:35.877Z</time>
</trkpt>
<trkpt lat="-27.4357324" lon="153.0963485">
<ele>2.719</ele>
<time>2016-01-15T20:35:37.937Z</time>
</trkpt>
<trkpt lat="-27.4362781" lon="153.0965626">
<ele>4.850</ele>
<time>2016-01-15T20:35:40.903Z</time>
</trkpt>
<trkpt lat="-27.4366471" lon="153.0967250">
<ele>5.855</ele>
<time>2016-01-15T20:35:42.899Z</time>
</trkpt>
<trkpt lat="-27.4370102" lon="153.0969088">
<ele>6.420</ele>
<time>2016-01-15T20:35:44.904Z</time>
</trkpt>
<trkpt lat="-27.4375292" lon="153.0971955">
<ele>7.487</ele>
<time>2016-01-15T20:35:47.820Z</time>
</trkpt>
<trkpt lat="-27.4378898" lon="153.0973913">
<ele>9.523</ele>
<time>2016-01-15T20:35:49.848Z</time>
</trkpt>
<trkpt lat="-27.4382488" lon="153.0975882">
<ele>12.337</ele>
<time>2016-01-15T20:35:51.891Z</time>
</trkpt>
<trkpt lat="-27.4386121" lon="153.0977698">
<ele>15.044</ele>
<time>2016-01-15T20:35:53.921Z</time>
</trkpt>
<trkpt lat="-27.4391360" lon="153.0980315">
<ele>17.217</ele>
<time>2016-01-15T20:35:56.847Z</time>
</trkpt>
<trkpt lat="-27.4394898" lon="153.0981994">
<ele>19.392</ele>
<time>2016-01-15T20:35:58.783Z</time>
</trkpt>
<trkpt lat="-27.4400396" lon="153.0984836">
<ele>22.295</ele>
<time>2016-01-15T20:36:01.835Z</time>
</trkpt>
<trkpt lat="-27.4403976" lon="153.0986648">
<ele>26.541</ele>
<time>2016-01-15T20:36:03.814Z</time>
</trkpt>
<trkpt lat="-27.4409529" lon="153.0989592">
<ele>31.301</ele>
<time>2016-01-15T20:36:06.869Z</time>
</trkpt>
<trkpt lat="-27.4413196" lon="153.0991677">
<ele>35.238</ele>
<time>2016-01-15T20:36:08.910Z</time>
</trkpt>
<trkpt lat="-27.4416784" lon="153.0993575">
<ele>38.303</ele>
<time>2016-01-15T20:36:10.904Z</time>
</trkpt>
<trkpt lat="-27.4420249" lon="153.0995355">
<ele>40.579</ele>
<time>2016-01-15T20:36:12.832Z</time>
</trkpt>
<trkpt lat="-27.4423869" lon="153.0997391">
<ele>42.266</ele>
<time>2016-01-15T20:36:14.865Z</time>
</trkpt>
<trkpt lat="-27.4429367" lon="153.1000309">
<ele>44.170</ele>
<time>2016-01-15T20:36:17.896Z</time>
</trkpt>
<trkpt lat="-27.4434884" lon="153.1003220">
<ele>46.387</ele>
<time>2016-01-15T20:36:20.925Z</time>
</trkpt>
<trkpt lat="-27.4438413" lon="153.1005270">
<ele>48.913</ele>
<time>2016-01-15T20:36:22.924Z</time>
</trkpt>
<trkpt lat="-27.4443613" lon="153.1008196">
<ele>51.701</ele>
<time>2016-01-15T20:36:25.869Z</time>
</trkpt>
<trkpt lat="-27.4447119" lon="153.1010204">
<ele>54.294</ele>
<time>2016-01-15T20:36:27.879Z</time>
</trkpt>
<trkpt lat="-27.4452347" lon="153.1013081">
<ele>56.798</ele>
<time>2016-01-15T20:36:30.868Z</time>
</trkpt>
<trkpt lat="-27.4457496" lon="153.1016063">
<ele>59.497</ele>
<time>2016-01-15T20:36:33.830Z</time>
</trkpt>
<trkpt lat="-27.4462779" lon="153.1019183">
<ele>61.846</ele>
<time>2016-01-15T20:36:36.830Z</time>
</trkpt>
<trkpt lat="-27.4466442" lon="153.1021265">
<ele>62.971</ele>
<time>2016-01-15T20:36:38.859Z</time>
</trkpt>
<trkpt lat="-27.4469949" lon="153.1023329">
<ele>62.620</ele>
<time>2016-01-15T20:36:40.812Z</time>
</trkpt>
<trkpt lat="-27.4475293" lon="153.1026465">
<ele>60.974</ele>
<time>2016-01-15T20:36:43.780Z</time>
</trkpt>
<trkpt lat="-27.4478858" lon="153.1028647">
<ele>58.298</ele>
<time>2016-01-15T20:36:45.769Z</time>
</trkpt>
<trkpt lat="-27.4484372" lon="153.1031890">
<ele>55.528</ele>
<time>2016-01-15T20:36:48.828Z</time>
</trkpt>
<trkpt lat="-27.4487808" lon="153.1033610">
<ele>53.265</ele>
<time>2016-01-15T20:36:50.693Z</time>
</trkpt>
<trkpt lat="-27.4493256" lon="153.1036736">
<ele>50.942</ele>
<time>2016-01-15T20:36:53.708Z</time>
</trkpt>
<trkpt lat="-27.4496961" lon="153.1038843">
<ele>47.875</ele>
<time>2016-01-15T20:36:55.750Z</time>
</trkpt>
<trkpt lat="-27.4502410" lon="153.1041984">
<ele>44.324</ele>
<time>2016-01-15T20:36:58.764Z</time>
</trkpt>
<trkpt lat="-27.4507821" lon="153.1045118">
<ele>41.080</ele>
<time>2016-01-15T20:37:01.733Z</time>
</trkpt>
<trkpt lat="-27.4513291" lon="153.1047811">
<ele>37.946</ele>
<time>2016-01-15T20:37:04.646Z</time>
</trkpt>
<trkpt lat="-27.4517007" lon="153.1049560">
<ele>34.317</ele>
<time>2016-01-15T20:37:06.637Z</time>
</trkpt>
<trkpt lat="-27.4520728" lon="153.1050993">
<ele>30.437</ele>
<time>2016-01-15T20:37:08.565Z</time>
</trkpt>
<trkpt lat="-27.4524709" lon="153.1052374">
<ele>26.654</ele>
<time>2016-01-15T20:37:10.586Z</time>
</trkpt>
<trkpt lat="-27.4528740" lon="153.1053730">
<ele>23.460</ele>
<time>2016-01-15T20:37:12.623Z</time>
</trkpt>
<trkpt lat="-27.4532852" lon="153.1055243">
<ele>21.573</ele>
<time>2016-01-15T20:37:14.717Z</time>
</trkpt>
<trkpt lat="-27.4536793" lon="153.1056865">
<ele>20.875</ele>
<time>2016-01-15T20:37:16.744Z</time>
</trkpt>
<trkpt lat="-27.4542721" lon="153.1059519">
<ele>20.607</ele>
<time>2016-01-15T20:37:19.848Z</time>
</trkpt>
<trkpt lat="-27.4546237" lon="153.1061449">
<ele>20.253</ele>
<time>2016-01-15T20:37:21.778Z</time>
</trkpt>
<trkpt lat="-27.4551636" lon="153.1064725">
<ele>19.651</ele>
<time>2016-01-15T20:37:24.805Z</time>
</trkpt>
<trkpt lat="-27.4556386" lon="153.1068742">
<ele>18.498</ele>
<time>2016-01-15T20:37:27.706Z</time>
</trkpt>
<trkpt lat="-27.4561626" lon="153.1072892">
<ele>16.699</ele>
<time>2016-01-15T20:37:30.814Z</time>
</trkpt>
<trkpt lat="-27.4566892" lon="153.1076315">
<ele>14.774</ele>
<time>2016-01-15T20:37:33.807Z</time>
</trkpt>
<trkpt lat="-27.4570211" lon="153.1078663">
<ele>13.347</ele>
<time>2016-01-15T20:37:35.769Z</time>
</trkpt>
<trkpt lat="-27.4575283" lon="153.1081938">
<ele>12.523</ele>
<time>2016-01-15T20:37:38.632Z</time>
</trkpt>
<trkpt lat="-27.4579224" lon="153.1084290">
<ele>12.223</ele>
<time>2016-01-15T20:37:40.659Z</time>
</trkpt>
<trkpt lat="-27.4583353" lon="153.1086955">
<ele>12.356</ele>
<time>2016-01-15T20:37:42.662Z</time>
</trkpt>
<trkpt lat="-27.4587838" lon="153.1089809">
<ele>13.613</ele>
<time>2016-01-15T20:37:44.725Z</time>
</trkpt>
<trkpt lat="-27.4594086" lon="153.1093918">
<ele>16.368</ele>
<time>2016-01-15T20:37:47.602Z</time>
</trkpt>
<trkpt lat="-27.4600494" lon="153.1098285">
<ele>19.327</ele>
<time>2016-01-15T20:37:50.574Z</time>
</trkpt>
<trkpt lat="-27.4606981" lon="153.1102695">
<ele>21.278</ele>
<time>2016-01-15T20:37:53.575Z</time>
</trkpt>
<trkpt lat="-27.4611382" lon="153.1105607">
<ele>22.487</ele>
<time>2016-01-15T20:37:55.609Z</time>
</trkpt>
<trkpt lat="-27.4615517" lon="153.1108611">
<ele>23.266</ele>
<time>2016-01-15T20:37:57.570Z</time>
</trkpt>
<trkpt lat="-27.4619580" lon="153.1111976">
<ele>23.665</ele>
<time>2016-01-15T20:37:59.561Z</time>
</trkpt>
<trkpt lat="-27.4625699" lon="153.1117025">
<ele>23.631</ele>
<time>2016-01-15T20:38:02.564Z</time>
</trkpt>
<trkpt lat="-27.4629647" lon="153.1120245">
<ele>23.118</ele>
<time>2016-01-15T20:38:04.512Z</time>
</trkpt>
<trkpt lat="-27.4635528" lon="153.1125504">
<ele>22.295</ele>
<time>2016-01-15T20:38:07.544Z</time>
</trkpt>
<trkpt lat="-27.4640985" lon="153.1130749">
<ele>21.218</ele>
<time>2016-01-15T20:38:10.462Z</time>
</trkpt>
<trkpt lat="-27.4646396" lon="153.1136195">
<ele>19.441</ele>
<time>2016-01-15T20:38:13.428Z</time>
</trkpt>
<trkpt lat="-27.4650046" lon="153.1139936">
<ele>16.742</ele>
<time>2016-01-15T20:38:15.446Z</time>
</trkpt>
<trkpt lat="-27.4653622" lon="153.1143616">
<ele>13.663</ele>
<time>2016-01-15T20:38:17.411Z</time>
</trkpt>
<trkpt lat="-27.4657241" lon="153.1147520">
<ele>11.084</ele>
<time>2016-01-15T20:38:19.433Z</time>
</trkpt>
<trkpt lat="-27.4662686" lon="153.1153229">
<ele>9.533</ele>
<time>2016-01-15T20:38:22.451Z</time>
</trkpt>
<trkpt lat="-27.4668316" lon="153.1158455">
<ele>8.931</ele>
<time>2016-01-15T20:38:25.442Z</time>
</trkpt>
<trkpt lat="-27.4672277" lon="153.1161618">
<ele>8.847</ele>
<time>2016-01-15T20:38:27.438Z</time>
</trkpt>
<trkpt lat="-27.4676351" lon="153.1164361">
<ele>8.928</ele>
<time>2016-01-15T20:38:29.391Z</time>
</trkpt>
<trkpt lat="-27.4682964" lon="153.1167864">
<ele>8.976</ele>
<time>2016-01-15T20:38:32.408Z</time>
</trkpt>
<trkpt lat="-27.4687478" lon="153.1169582">
<ele>9.066</ele>
<time>2016-01-15T20:38:34.392Z</time>
</trkpt>
<trkpt lat="-27.4692050" lon="153.1170987">
<ele>9.200</ele>
<time>2016-01-15T20:38:36.352Z</time>
</trkpt>
<trkpt lat="-27.4699420" lon="153.1172359">
<ele>9.034</ele>
<time>2016-01-15T20:38:39.409Z</time>
</trkpt>
<trkpt lat="-27.4704377" lon="153.1172693">
<ele>8.494</ele>
<time>2016-01-15T20:38:41.420Z</time>
</trkpt>
<trkpt lat="-27.4711853" lon="153.1172157">
<ele>7.916</ele>
<time>2016-01-15T20:38:44.443Z</time>
</trkpt>
<trkpt lat="-27.4716787" lon="153.1171704">
<ele>7.444</ele>
<time>2016-01-15T20:38:46.416Z</time>
</trkpt>
<trkpt lat="-27.4721751" lon="153.1171199">
<ele>7.089</ele>
<time>2016-01-15T20:38:48.392Z</time>
</trkpt>
<trkpt lat="-27.4726828" lon="153.1170703">
<ele>7.130</ele>
<time>2016-01-15T20:38:50.424Z</time>
</trkpt>
<trkpt lat="-27.4734179" lon="153.1169865">
<ele>7.750</ele>
<time>2016-01-15T20:38:53.398Z</time>
</trkpt>
<trkpt lat="-27.4741501" lon="153.1169326">
<ele>8.648</ele>
<time>2016-01-15T20:38:56.349Z</time>
</trkpt>
<trkpt lat="-27.4749149" lon="153.1168711">
<ele>9.465</ele>
<time>2016-01-15T20:38:59.393Z</time>
</trkpt>
<trkpt lat="-27.4754091" lon="153.1168388">
<ele>10.168</ele>
<time>2016-01-15T20:39:01.377Z</time>
</trkpt>
<trkpt lat="-27.4759129" lon="153.1168045">
<ele>10.722</ele>
<time>2016-01-15T20:39:03.416Z</time>
</trkpt>
<trkpt lat="-27.4766691" lon="153.1168219">
<ele>10.779</ele>
<time>2016-01-15T20:39:06.454Z</time>
</trkpt>
<trkpt lat="-27.4771657" lon="153.1168569">
<ele>9.899</ele>
<time>2016-01-15T20:39:08.426Z</time>
</trkpt>
<trkpt lat="-27.4779186" lon="153.1170293">
<ele>8.137</ele>
<time>2016-01-15T20:39:11.478Z</time>
</trkpt>
<trkpt lat="-27.4784078" lon="153.1171418">
<ele>6.253</ele>
<time>2016-01-15T20:39:13.479Z</time>
</trkpt>
<trkpt lat="-27.4791160" lon="153.1173561">
<ele>4.811</ele>
<time>2016-01-15T20:39:16.431Z</time>
</trkpt>
<trkpt lat="-27.4795733" lon="153.1175617">
<ele>3.807</ele>
<time>2016-01-15T20:39:18.426Z</time>
</trkpt>
<trkpt lat="-27.4800210" lon="153.1177993">
<ele>3.228</ele>
<time>2016-01-15T20:39:20.429Z</time>
</trkpt>
<trkpt lat="-27.4806726" lon="153.1181823">
<ele>3.030</ele>
<time>2016-01-15T20:39:23.387Z</time>
</trkpt>
<trkpt lat="-27.4810948" lon="153.1184518">
<ele>2.955</ele>
<time>2016-01-15T20:39:25.311Z</time>
</trkpt>
<trkpt lat="-27.4815448" lon="153.1187500">
<ele>2.906</ele>
<time>2016-01-15T20:39:27.368Z</time>
</trkpt>
<trkpt lat="-27.4821870" lon="153.1191905">
<ele>2.900</ele>
<time>2016-01-15T20:39:30.347Z</time>
</trkpt>
<trkpt lat="-27.4826077" lon="153.1194664">
<ele>2.769</ele>
<time>2016-01-15T20:39:32.305Z</time>
</trkpt>
<trkpt lat="-27.4832423" lon="153.1198913">
<ele>2.585</ele>
<time>2016-01-15T20:39:35.292Z</time>
</trkpt>
<trkpt lat="-27.4838987" lon="153.1202615">
<ele>2.722</ele>
<time>2016-01-15T20:39:38.264Z</time>
</trkpt>
<trkpt lat="-27.4843512" lon="153.1205001">
<ele>3.507</ele>
<time>2016-01-15T20:39:40.257Z</time>
</trkpt>
<trkpt lat="-27.4848195" lon="153.1207354">
<ele>4.789</ele>
<time>2016-01-15T20:39:42.280Z</time>
</trkpt>
<trkpt lat="-27.4855341" lon="153.1210620">
<ele>5.917</ele>
<time>2016-01-15T20:39:45.303Z</time>
</trkpt>
<trkpt lat="-27.4860107" lon="153.1212704">
<ele>6.852</ele>
<time>2016-01-15T20:39:47.309Z</time>
</trkpt>
<trkpt lat="-27.4867333" lon="153.1215510">
<ele>8.150</ele>
<time>2016-01-15T20:39:50.296Z</time>
</trkpt>
<trkpt lat="-27.4872120" lon="153.1217368">
<ele>9.471</ele>
<time>2016-01-15T20:39:52.260Z</time>
</trkpt>
<trkpt lat="-27.4877061" lon="153.1219536">
<ele>10.147</ele>
<time>2016-01-15T20:39:54.304Z</time>
</trkpt>
<trkpt lat="-27.4884275" lon="153.1222963">
<ele>10.101</ele>
<time>2016-01-15T20:39:57.299Z</time>
</trkpt>
<trkpt lat="-27.4889073" lon="153.1225401">
<ele>9.259</ele>
<time>2016-01-15T20:39:59.311Z</time>
</trkpt>
<trkpt lat="-27.4893751" lon="153.1227801">
<ele>7.828</ele>
<time>2016-01-15T20:40:01.312Z</time>
</trkpt>
<trkpt lat="-27.4900500" lon="153.1231460">
<ele>6.258</ele>
<time>2016-01-15T20:40:04.271Z</time>
</trkpt>
<trkpt lat="-27.4904848" lon="153.1234097">
<ele>4.454</ele>
<time>2016-01-15T20:40:06.245Z</time>
</trkpt>
<trkpt lat="-27.4911291" lon="153.1238285">
<ele>2.403</ele>
<time>2016-01-15T20:40:09.218Z</time>
</trkpt>
<trkpt lat="-27.4915687" lon="153.1241143">
<ele>0.680</ele>
<time>2016-01-15T20:40:11.234Z</time>
</trkpt>
<trkpt lat="-27.4922283" lon="153.1245424">
<ele>0.000</ele>
<time>2016-01-15T20:40:14.251Z</time>
</trkpt>
<trkpt lat="-27.4926544" lon="153.1248383">
<ele>0.000</ele>
<time>2016-01-15T20:40:16.245Z</time>
</trkpt>
<trkpt lat="-27.4933158" lon="153.1252141">
<ele>0.800</ele>
<time>2016-01-15T20:40:19.217Z</time>
</trkpt>
<trkpt lat="-27.4937655" lon="153.1254260">
<ele>1.552</ele>
<time>2016-01-15T20:40:21.191Z</time>
</trkpt>
<trkpt lat="-27.4944694" lon="153.1256897">
<ele>1.658</ele>
<time>2016-01-15T20:40:24.207Z</time>
</trkpt>
<trkpt lat="-27.4949473" lon="153.1258279">
<ele>1.498</ele>
<time>2016-01-15T20:40:26.211Z</time>
</trkpt>
<trkpt lat="-27.4956767" lon="153.1259968">
<ele>1.520</ele>
<time>2016-01-15T20:40:29.218Z</time>
</trkpt>
<trkpt lat="-27.4964261" lon="153.1260999">
<ele>1.682</ele>
<time>2016-01-15T20:40:32.235Z</time>
</trkpt>
<trkpt lat="-27.4971897" lon="153.1261333">
<ele>1.791</ele>
<time>2016-01-15T20:40:35.287Z</time>
</trkpt>
<trkpt lat="-27.4976872" lon="153.1261010">
<ele>1.827</ele>
<time>2016-01-15T20:40:37.295Z</time>
</trkpt>
<trkpt lat="-27.4984163" lon="153.1259941">
<ele>2.200</ele>
<time>2016-01-15T20:40:40.270Z</time>
</trkpt>
<trkpt lat="-27.4988987" lon="153.1258960">
<ele>3.557</ele>
<time>2016-01-15T20:40:42.271Z</time>
</trkpt>
<trkpt lat="-27.4995986" lon="153.1257213">
<ele>5.734</ele>
<time>2016-01-15T20:40:45.200Z</time>
</trkpt>
<trkpt lat="-27.5003055" lon="153.1254727">
<ele>7.670</ele>
<time>2016-01-15T20:40:48.183Z</time>
</trkpt>
<trkpt lat="-27.5010228" lon="153.1251806">
<ele>8.916</ele>
<time>2016-01-15T20:40:51.203Z</time>
</trkpt>
<trkpt lat="-27.5015139" lon="153.1250102">
<ele>9.893</ele>
<time>2016-01-15T20:40:53.250Z</time>
</trkpt>
<trkpt lat="-27.5019808" lon="153.1248476">
<ele>11.103</ele>
<time>2016-01-15T20:40:55.216Z</time>
</trkpt>
<trkpt lat="-27.5024636" lon="153.1247323">
<ele>12.671</ele>
<time>2016-01-15T20:40:57.210Z</time>
</trkpt>
<trkpt lat="-27.5031908" lon="153.1245978">
<ele>15.066</ele>
<time>2016-01-15T20:41:00.194Z</time>
</trkpt>
<trkpt lat="-27.5039201" lon="153.1245253">
<ele>18.442</ele>
<time>2016-01-15T20:41:03.155Z</time>
</trkpt>
<trkpt lat="-27.5044065" lon="153.1244931">
<ele>21.630</ele>
<time>2016-01-15T20:41:05.122Z</time>
</trkpt>
<trkpt lat="-27.5048968" lon="153.1244887">
<ele>23.543</ele>
<time>2016-01-15T20:41:07.091Z</time>
</trkpt>
<trkpt lat="-27.5056541" lon="153.1245389">
<ele>24.332</ele>
<time>2016-01-15T20:41:10.108Z</time>
</trkpt>
<trkpt lat="-27.5061745" lon="153.1246131">
<ele>24.453</ele>
<time>2016-01-15T20:41:12.179Z</time>
</trkpt>
<trkpt lat="-27.5068981" lon="153.1247752">
<ele>24.419</ele>
<time>2016-01-15T20:41:15.100Z</time>
</trkpt>
<trkpt lat="-27.5073796" lon="153.1249141">
<ele>24.555</ele>
<time>2016-01-15T20:41:17.090Z</time>
</trkpt>
<trkpt lat="-27.5080919" lon="153.1251547">
<ele>25.055</ele>
<time>2016-01-15T20:41:20.092Z</time>
</trkpt>
<trkpt lat="-27.5085613" lon="153.1253208">
<ele>26.126</ele>
<time>2016-01-15T20:41:22.082Z</time>
</trkpt>
<trkpt lat="-27.5090433" lon="153.1254772">
<ele>27.560</ele>
<time>2016-01-15T20:41:24.104Z</time>
</trkpt>
<trkpt lat="-27.5097577" lon="153.1256955">
<ele>29.017</ele>
<time>2016-01-15T20:41:27.075Z</time>
</trkpt>
<trkpt lat="-27.5102391" lon="153.1258285">
<ele>30.306</ele>
<time>2016-01-15T20:41:29.076Z</time>
</trkpt>
<trkpt lat="-27.5109507" lon="153.1259452">
<ele>31.131</ele>
<time>2016-01-15T20:41:32.010Z</time>
</trkpt>
<trkpt lat="-27.5114383" lon="153.1259898">
<ele>31.234</ele>
<time>2016-01-15T20:41:34.008Z</time>
</trkpt>
<trkpt lat="-27.5121667" lon="153.1259972">
<ele>30.785</ele>
<time>2016-01-15T20:41:36.997Z</time>
</trkpt>
<trkpt lat="-27.5126506" lon="153.1259718">
<ele>30.255</ele>
<time>2016-01-15T20:41:38.993Z</time>
</trkpt>
<trkpt lat="-27.5131376" lon="153.1259176">
<ele>30.052</ele>
<time>2016-01-15T20:41:41.001Z</time>
</trkpt>
<trkpt lat="-27.5138724" lon="153.1258211">
<ele>30.242</ele>
<time>2016-01-15T20:41:44.008Z</time>
</trkpt>
<trkpt lat="-27.5146210" lon="153.1257230">
<ele>30.836</ele>
<time>2016-01-15T20:41:47.035Z</time>
</trkpt>
<trkpt lat="-27.5151134" lon="153.1256581">
<ele>32.164</ele>
<time>2016-01-15T20:41:49.006Z</time>
</trkpt>
<trkpt lat="-27.5156339" lon="153.1255979">
<ele>34.416</ele>
<time>2016-01-15T20:41:51.050Z</time>
</trkpt>
<trkpt lat="-27.5164064" lon="153.1255329">
<ele>37.190</ele>
<time>2016-01-15T20:41:54.025Z</time>
</trkpt>
<trkpt lat="-27.5169251" lon="153.1254834">
<ele>40.220</ele>
<time>2016-01-15T20:41:56.014Z</time>
</trkpt>
<trkpt lat="-27.5176950" lon="153.1254193">
<ele>43.230</ele>
<time>2016-01-15T20:41:58.991Z</time>
</trkpt>
<trkpt lat="-27.5182076" lon="153.1254051">
<ele>45.735</ele>
<time>2016-01-15T20:42:00.991Z</time>
</trkpt>
<trkpt lat="-27.5187182" lon="153.1254005">
<ele>47.509</ele>
<time>2016-01-15T20:42:03.005Z</time>
</trkpt>
<trkpt lat="-27.5194458" lon="153.1253414">
<ele>48.332</ele>
<time>2016-01-15T20:42:05.925Z</time>
</trkpt>
<trkpt lat="-27.5199296" lon="153.1252737">
<ele>48.133</ele>
<time>2016-01-15T20:42:07.918Z</time>
</trkpt>
<trkpt lat="-27.5206434" lon="153.1251851">
<ele>47.010</ele>
<time>2016-01-15T20:42:10.882Z</time>
</trkpt>
<trkpt lat="-27.5211264" lon="153.1251313">
<ele>44.307</ele>
<time>2016-01-15T20:42:12.885Z</time>
</trkpt>
<trkpt lat="-27.5218477" lon="153.1250199">
<ele>40.181</ele>
<time>2016-01-15T20:42:15.861Z</time>
</trkpt>
<trkpt lat="-27.5223511" lon="153.1249127">
<ele>36.119</ele>
<time>2016-01-15T20:42:17.930Z</time>
</trkpt>
<trkpt lat="-27.5228303" lon="153.1248171">
<ele>32.801</ele>
<time>2016-01-15T20:42:19.886Z</time>
</trkpt>
<trkpt lat="-27.5233214" lon="153.1247185">
<ele>30.118</ele>
<time>2016-01-15T20:42:21.882Z</time>
</trkpt>
<trkpt lat="-27.5238186" lon="153.1246139">
<ele>28.144</ele>
<time>2016-01-15T20:42:23.897Z</time>
</trkpt>
<trkpt lat="-27.5245459" lon="153.1244718">
<ele>26.676</ele>
<time>2016-01-15T20:42:26.847Z</time>
</trkpt>
<trkpt lat="-27.5250522" lon="153.1243856">
<ele>25.557</ele>
<time>2016-01-15T20:42:28.907Z</time>
</trkpt>
<trkpt lat="-27.5257993" lon="153.1242323">
<ele>24.871</ele>
<time>2016-01-15T20:42:31.972Z</time>
</trkpt>
<trkpt lat="-27.5262717" lon="153.1241251">
<ele>24.528</ele>
<time>2016-01-15T20:42:33.926Z</time>
</trkpt>
<trkpt lat="-27.5267551" lon="153.1240296">
<ele>24.189</ele>
<time>2016-01-15T20:42:35.926Z</time>
</trkpt>
<trkpt lat="-27.5274654" lon="153.1238970">
<ele>23.493</ele>
<time>2016-01-15T20:42:38.894Z</time>
</trkpt>
<trkpt lat="-27.5281699" lon="153.1237579">
<ele>22.496</ele>
<time>2016-01-15T20:42:41.910Z</time>
</trkpt>
<trkpt lat="-27.5288567" lon="153.1236253">
<ele>21.255</ele>
<time>2016-01-15T20:42:44.892Z</time>
</trkpt>
<trkpt lat="-27.5293212" lon="153.1235344">
<ele>19.815</ele>
<time>2016-01-15T20:42:46.898Z</time>
</trkpt>
<trkpt lat="-27.5300115" lon="153.1233961">
<ele>18.803</ele>
<time>2016-01-15T20:42:49.846Z</time>
</trkpt>
<trkpt lat="-27.5307297" lon="153.1232592">
<ele>18.715</ele>
<time>2016-01-15T20:42:52.866Z</time>
</trkpt>
<trkpt lat="-27.5311977" lon="153.1231637">
<ele>19.695</ele>
<time>2016-01-15T20:42:54.848Z</time>
</trkpt>
<trkpt lat="-27.5316549" lon="153.1230530">
<ele>21.802</ele>
<time>2016-01-15T20:42:56.822Z</time>
</trkpt>
<trkpt lat="-27.5323316" lon="153.1228497">
<ele>24.145</ele>
<time>2016-01-15T20:42:59.810Z</time>
</trkpt>
<trkpt lat="-27.5327641" lon="153.1226659">
<ele>25.455</ele>
<time>2016-01-15T20:43:01.806Z</time>
</trkpt>
<trkpt lat="-27.5333782" lon="153.1223293">
<ele>25.578</ele>
<time>2016-01-15T20:43:04.769Z</time>
</trkpt>
<trkpt lat="-27.5337766" lon="153.1220883">
<ele>25.193</ele>
<time>2016-01-15T20:43:06.729Z</time>
</trkpt>
<trkpt lat="-27.5343724" lon="153.1216826">
<ele>24.949</ele>
<time>2016-01-15T20:43:09.725Z</time>
</trkpt>
<trkpt lat="-27.5347688" lon="153.1214165">
<ele>25.026</ele>
<time>2016-01-15T20:43:11.691Z</time>
</trkpt>
<trkpt lat="-27.5351836" lon="153.1211500">
<ele>25.337</ele>
<time>2016-01-15T20:43:13.726Z</time>
</trkpt>
<trkpt lat="-27.5357680" lon="153.1207431">
<ele>25.737</ele>
<time>2016-01-15T20:43:16.701Z</time>
</trkpt>
<trkpt lat="-27.5363547" lon="153.1203528">
<ele>25.614</ele>
<time>2016-01-15T20:43:19.704Z</time>
</trkpt>
<trkpt lat="-27.5367300" lon="153.1200981">
<ele>24.002</ele>
<time>2016-01-15T20:43:21.666Z</time>
</trkpt>
<trkpt lat="-27.5371071" lon="153.1198493">
<ele>21.234</ele>
<time>2016-01-15T20:43:23.652Z</time>
</trkpt>
<trkpt lat="-27.5376805" lon="153.1194969">
<ele>18.930</ele>
<time>2016-01-15T20:43:26.701Z</time>
</trkpt>
<trkpt lat="-27.5381909" lon="153.1191833">
<ele>17.942</ele>
<time>2016-01-15T20:43:29.618Z</time>
</trkpt>
<trkpt lat="-27.5384969" lon="153.1190042">
<ele>17.663</ele>
<time>2016-01-15T20:43:31.526Z</time>
</trkpt>
<trkpt lat="-27.5389619" lon="153.1187243">
<ele>17.380</ele>
<time>2016-01-15T20:43:34.570Z</time>
</trkpt>
<trkpt lat="-27.5393824" lon="153.1184389">
<ele>17.432</ele>
<time>2016-01-15T20:43:37.519Z</time>
</trkpt>
<trkpt lat="-27.5397916" lon="153.1181609">
<ele>18.266</ele>
<time>2016-01-15T20:43:40.494Z</time>
</trkpt>
<trkpt lat="-27.5402227" lon="153.1179425">
<ele>19.486</ele>
<time>2016-01-15T20:43:43.439Z</time>
</trkpt>
<trkpt lat="-27.5406865" lon="153.1177532">
<ele>20.852</ele>
<time>2016-01-15T20:43:46.479Z</time>
</trkpt>
<trkpt lat="-27.5410163" lon="153.1176409">
<ele>22.627</ele>
<time>2016-01-15T20:43:48.557Z</time>
</trkpt>
<trkpt lat="-27.5415123" lon="153.1175277">
<ele>24.568</ele>
<time>2016-01-15T20:43:51.569Z</time>
</trkpt>
<trkpt lat="-27.5419928" lon="153.1174423">
<ele>25.974</ele>
<time>2016-01-15T20:43:54.515Z</time>
</trkpt>
<trkpt lat="-27.5424620" lon="153.1174127">
<ele>26.336</ele>
<time>2016-01-15T20:43:57.434Z</time>
</trkpt>
<trkpt lat="-27.5427831" lon="153.1174039">
<ele>25.834</ele>
<time>2016-01-15T20:43:59.432Z</time>
</trkpt>
<trkpt lat="-27.5432653" lon="153.1174348">
<ele>25.142</ele>
<time>2016-01-15T20:44:02.393Z</time>
</trkpt>
<trkpt lat="-27.5437554" lon="153.1175066">
<ele>24.756</ele>
<time>2016-01-15T20:44:05.424Z</time>
</trkpt>
<trkpt lat="-27.5442029" lon="153.1175870">
<ele>24.370</ele>
<time>2016-01-15T20:44:08.374Z</time>
</trkpt>
<trkpt lat="-27.5445684" lon="153.1176676">
<ele>23.506</ele>
<time>2016-01-15T20:44:11.179Z</time>
</trkpt>
<trkpt lat="-27.5448115" lon="153.1177632">
<ele>21.554</ele>
<time>2016-01-15T20:44:13.786Z</time>
</trkpt>
<trkpt lat="-27.5449130" lon="153.1178729">
<ele>18.073</ele>
<time>2016-01-15T20:44:15.617Z</time>
</trkpt>
<trkpt lat="-27.5450168" lon="153.1181710">
<ele>14.173</ele>
<time>2016-01-15T20:44:19.028Z</time>
</trkpt>
<trkpt lat="-27.5450733" lon="153.1184454">
<ele>12.169</ele>
<time>2016-01-15T20:44:21.285Z</time>
</trkpt>
<trkpt lat="-27.5451145" lon="153.1187308">
<ele>13.035</ele>
<time>2016-01-15T20:44:23.305Z</time>
</trkpt>
<trkpt lat="-27.5451679" lon="153.1191859">
<ele>15.945</ele>
<time>2016-01-15T20:44:26.388Z</time>
</trkpt>
<trkpt lat="-27.5452037" lon="153.1194603">
<ele>19.798</ele>
<time>2016-01-15T20:44:28.317Z</time>
</trkpt>
<trkpt lat="-27.5452457" lon="153.1197254">
<ele>23.731</ele>
<time>2016-01-15T20:44:30.312Z</time>
</trkpt>
<trkpt lat="-27.5453059" lon="153.1200827">
<ele>26.923</ele>
<time>2016-01-15T20:44:33.318Z</time>
</trkpt>
<trkpt lat="-27.5453310" lon="153.1202606">
<ele>29.118</ele>
<time>2016-01-15T20:44:35.092Z</time>
</trkpt>
<trkpt lat="-27.5453820" lon="153.1204887">
<ele>30.492</ele>
<time>2016-01-15T20:44:37.976Z</time>
</trkpt>
<trkpt lat="-27.5454038" lon="153.1206146">
<ele>31.239</ele>
<time>2016-01-15T20:44:39.999Z</time>
</trkpt>
<trkpt lat="-27.5454038" lon="153.1206146">
<ele>31.620</ele>
<time>2016-01-15T20:44:44.999Z</time>
</trkpt>
<trkpt lat="-27.5454038" lon="153.1206146">
<ele>31.766</ele>
<time>2016-01-15T20:44:55.477Z</time>
</trkpt>
<trkpt lat="-27.5454572" lon="153.1208327">
<ele>31.731</ele>
<time>2016-01-15T20:45:00.218Z</time>
</trkpt>
<trkpt lat="-27.5455405" lon="153.1211143">
<ele>32.042</ele>
<time>2016-01-15T20:45:03.410Z</time>
</trkpt>
<trkpt lat="-27.5455855" lon="153.1213025">
<ele>33.220</ele>
<time>2016-01-15T20:45:05.604Z</time>
</trkpt>
<trkpt lat="-27.5456166" lon="153.1214324">
<ele>34.778</ele>
<time>2016-01-15T20:45:07.900Z</time>
</trkpt>
<trkpt lat="-27.5455458" lon="153.1215541">
<ele>35.760</ele>
<time>2016-01-15T20:45:11.138Z</time>
</trkpt>
<trkpt lat="-27.5454989" lon="153.1216497">
<ele>35.966</ele>
<time>2016-01-15T20:45:14.809Z</time>
</trkpt>
<trkpt lat="-27.5455034" lon="153.1217524">
<ele>35.831</ele>
<time>2016-01-15T20:45:20.999Z</time>
</trkpt>
<trkpt lat="-27.5455034" lon="153.1217524">
<ele>35.742</ele>
<time>2016-01-15T20:45:24.999Z</time>
</trkpt>
<trkpt lat="-27.5455034" lon="153.1217524">
<ele>35.750</ele>
<time>2016-01-15T20:58:14.233Z</time>
</trkpt>
<trkpt lat="-27.5453189" lon="153.1218749">
<ele>35.764</ele>
<time>2016-01-15T20:59:13.811Z</time>
</trkpt>
<trkpt lat="-27.5454003" lon="153.1219220">
<ele>35.714</ele>
<time>2016-01-15T20:59:25.291Z</time>
</trkpt>
<trkpt lat="-27.5454901" lon="153.1219490">
<ele>35.583</ele>
<time>2016-01-15T20:59:27.999Z</time>
</trkpt>
<trkpt lat="-27.5454901" lon="153.1219490">
<ele>35.451</ele>
<time>2016-01-15T20:59:39.999Z</time>
</trkpt>
<trkpt lat="-27.5454901" lon="153.1219490">
<ele>35.397</ele>
<time>2016-01-15T21:02:05.768Z</time>
</trkpt>
<trkpt lat="-27.5456064" lon="153.1218467">
<ele>35.396</ele>
<time>2016-01-15T21:02:14.262Z</time>
</trkpt>
<trkpt lat="-27.5457252" lon="153.1218601">
<ele>35.303</ele>
<time>2016-01-15T21:02:17.118Z</time>
</trkpt>
<trkpt lat="-27.5457987" lon="153.1220091">
<ele>35.048</ele>
<time>2016-01-15T21:02:19.031Z</time>
</trkpt>
<trkpt lat="-27.5459147" lon="153.1223433">
<ele>34.964</ele>
<time>2016-01-15T21:02:22.135Z</time>
</trkpt>
<trkpt lat="-27.5459945" lon="153.1225818">
<ele>35.644</ele>
<time>2016-01-15T21:02:23.980Z</time>
</trkpt>
<trkpt lat="-27.5460756" lon="153.1228390">
<ele>36.978</ele>
<time>2016-01-15T21:02:26.011Z</time>
</trkpt>
<trkpt lat="-27.5461885" lon="153.1231716">
<ele>38.108</ele>
<time>2016-01-15T21:02:28.923Z</time>
</trkpt>
<trkpt lat="-27.5462451" lon="153.1233632">
<ele>38.368</ele>
<time>2016-01-15T21:02:31.069Z</time>
</trkpt>
<trkpt lat="-27.5463184" lon="153.1235671">
<ele>37.776</ele>
<time>2016-01-15T21:02:34.046Z</time>
</trkpt>
<trkpt lat="-27.5463678" lon="153.1237074">
<ele>36.870</ele>
<time>2016-01-15T21:02:36.545Z</time>
</trkpt>
<trkpt lat="-27.5464281" lon="153.1238583">
<ele>36.473</ele>
<time>2016-01-15T21:02:39.010Z</time>
</trkpt>
<trkpt lat="-27.5465397" lon="153.1241340">
<ele>37.477</ele>
<time>2016-01-15T21:02:42.129Z</time>
</trkpt>
<trkpt lat="-27.5467055" lon="153.1245044">
<ele>40.289</ele>
<time>2016-01-15T21:02:45.125Z</time>
</trkpt>
<trkpt lat="-27.5468504" lon="153.1248839">
<ele>44.385</ele>
<time>2016-01-15T21:02:47.564Z</time>
</trkpt>
<trkpt lat="-27.5469362" lon="153.1252019">
<ele>48.431</ele>
<time>2016-01-15T21:02:49.409Z</time>
</trkpt>
<trkpt lat="-27.5470022" lon="153.1255528">
<ele>51.101</ele>
<time>2016-01-15T21:02:51.364Z</time>
</trkpt>
<trkpt lat="-27.5470785" lon="153.1260518">
<ele>52.142</ele>
<time>2016-01-15T21:02:54.100Z</time>
</trkpt>
<trkpt lat="-27.5471241" lon="153.1264063">
<ele>52.449</ele>
<time>2016-01-15T21:02:55.996Z</time>
</trkpt>
<trkpt lat="-27.5471338" lon="153.1267604">
<ele>52.841</ele>
<time>2016-01-15T21:02:57.829Z</time>
</trkpt>
<trkpt lat="-27.5470774" lon="153.1273173">
<ele>53.761</ele>
<time>2016-01-15T21:03:00.663Z</time>
</trkpt>
<trkpt lat="-27.5470361" lon="153.1277232">
<ele>55.182</ele>
<time>2016-01-15T21:03:02.672Z</time>
</trkpt>
<trkpt lat="-27.5470146" lon="153.1282728">
<ele>56.979</ele>
<time>2016-01-15T21:03:05.414Z</time>
</trkpt>
<trkpt lat="-27.5470126" lon="153.1286041">
<ele>58.912</ele>
<time>2016-01-15T21:03:07.202Z</time>
</trkpt>
<trkpt lat="-27.5470128" lon="153.1288748">
<ele>60.106</ele>
<time>2016-01-15T21:03:08.825Z</time>
</trkpt>
<trkpt lat="-27.5470029" lon="153.1290944">
<ele>59.697</ele>
<time>2016-01-15T21:03:10.376Z</time>
</trkpt>
<trkpt lat="-27.5469881" lon="153.1292382">
<ele>58.027</ele>
<time>2016-01-15T21:03:11.597Z</time>
</trkpt>
<trkpt lat="-27.5468802" lon="153.1293822">
<ele>56.089</ele>
<time>2016-01-15T21:03:13.528Z</time>
</trkpt>
<trkpt lat="-27.5466678" lon="153.1295047">
<ele>54.676</ele>
<time>2016-01-15T21:03:17.821Z</time>
</trkpt>
<trkpt lat="-27.5466218" lon="153.1296019">
<ele>53.905</ele>
<time>2016-01-15T21:03:19.994Z</time>
</trkpt>
<trkpt lat="-27.5466066" lon="153.1297298">
<ele>53.422</ele>
<time>2016-01-15T21:03:22.539Z</time>
</trkpt>
<trkpt lat="-27.5465937" lon="153.1299018">
<ele>52.759</ele>
<time>2016-01-15T21:03:25.910Z</time>
</trkpt>
<trkpt lat="-27.5465871" lon="153.1300029">
<ele>51.720</ele>
<time>2016-01-15T21:03:27.922Z</time>
</trkpt>
<trkpt lat="-27.5465855" lon="153.1301130">
<ele>50.570</ele>
<time>2016-01-15T21:03:30.053Z</time>
</trkpt>
<trkpt lat="-27.5465872" lon="153.1302331">
<ele>49.650</ele>
<time>2016-01-15T21:03:32.295Z</time>
</trkpt>
<trkpt lat="-27.5465783" lon="153.1304052">
<ele>48.949</ele>
<time>2016-01-15T21:03:35.201Z</time>
</trkpt>
<trkpt lat="-27.5464991" lon="153.1306416">
<ele>48.294</ele>
<time>2016-01-15T21:03:39.259Z</time>
</trkpt>
<trkpt lat="-27.5463649" lon="153.1308000">
<ele>47.604</ele>
<time>2016-01-15T21:03:42.549Z</time>
</trkpt>
<trkpt lat="-27.5461917" lon="153.1308857">
<ele>46.804</ele>
<time>2016-01-15T21:03:45.476Z</time>
</trkpt>
<trkpt lat="-27.5460539" lon="153.1309120">
<ele>45.854</ele>
<time>2016-01-15T21:03:47.573Z</time>
</trkpt>
<trkpt lat="-27.5458665" lon="153.1309443">
<ele>45.013</ele>
<time>2016-01-15T21:03:50.459Z</time>
</trkpt>
<trkpt lat="-27.5457372" lon="153.1309666">
<ele>44.616</ele>
<time>2016-01-15T21:03:52.443Z</time>
</trkpt>
<trkpt lat="-27.5455794" lon="153.1309937">
<ele>44.676</ele>
<time>2016-01-15T21:03:54.782Z</time>
</trkpt>
<trkpt lat="-27.5454689" lon="153.1310125">
<ele>44.992</ele>
<time>2016-01-15T21:03:56.430Z</time>
</trkpt>
<trkpt lat="-27.5450693" lon="153.1310497">
<ele>45.434</ele>
<time>2016-01-15T21:04:03.112Z</time>
</trkpt>
<trkpt lat="-27.5452782" lon="153.1310409">
<ele>45.967</ele>
<time>2016-01-15T21:04:07.437Z</time>
</trkpt>
<trkpt lat="-27.5451553" lon="153.1310505">
<ele>46.473</ele>
<time>2016-01-15T21:04:10.204Z</time>
</trkpt>
<trkpt lat="-27.5450394" lon="153.1310531">
<ele>46.997</ele>
<time>2016-01-15T21:04:12.420Z</time>
</trkpt>
<trkpt lat="-27.5448600" lon="153.1310445">
<ele>47.661</ele>
<time>2016-01-15T21:04:15.591Z</time>
</trkpt>
<trkpt lat="-27.5446870" lon="153.1310170">
<ele>48.323</ele>
<time>2016-01-15T21:04:18.813Z</time>
</trkpt>
<trkpt lat="-27.5445645" lon="153.1309788">
<ele>48.753</ele>
<time>2016-01-15T21:04:21.614Z</time>
</trkpt>
<trkpt lat="-27.5444610" lon="153.1309116">
<ele>48.880</ele>
<time>2016-01-15T21:04:24.999Z</time>
</trkpt>
<trkpt lat="-27.5444610" lon="153.1309116">
<ele>48.751</ele>
<time>2016-01-15T21:04:30.999Z</time>
</trkpt>
<trkpt lat="-27.5444610" lon="153.1309116">
<ele>48.594</ele>
<time>2016-01-15T21:04:35.377Z</time>
</trkpt>
<trkpt lat="-27.5443314" lon="153.1308457">
<ele>48.590</ele>
<time>2016-01-15T21:04:41.807Z</time>
</trkpt>
<trkpt lat="-27.5442318" lon="153.1307719">
<ele>48.687</ele>
<time>2016-01-15T21:04:44.793Z</time>
</trkpt>
<trkpt lat="-27.5441580" lon="153.1307139">
<ele>48.766</ele>
<time>2016-01-15T21:04:46.792Z</time>
</trkpt>
<trkpt lat="-27.5440493" lon="153.1306252">
<ele>48.772</ele>
<time>2016-01-15T21:04:49.519Z</time>
</trkpt>
<trkpt lat="-27.5438896" lon="153.1304794">
<ele>48.721</ele>
<time>2016-01-15T21:04:53.410Z</time>
</trkpt>
<trkpt lat="-27.5438314" lon="153.1303594">
<ele>48.700</ele>
<time>2016-01-15T21:04:56.123Z</time>
</trkpt>
<trkpt lat="-27.5437616" lon="153.1300422">
<ele>48.766</ele>
<time>2016-01-15T21:05:03.418Z</time>
</trkpt>
<trkpt lat="-27.5436807" lon="153.1300888">
<ele>48.761</ele>
<time>2016-01-15T21:05:06.690Z</time>
</trkpt>
<trkpt lat="-27.5436744" lon="153.1302062">
<ele>48.555</ele>
<time>2016-01-15T21:05:10.302Z</time>
</trkpt>
<trkpt lat="-27.5438499" lon="153.1304351">
<ele>48.300</ele>
<time>2016-01-15T21:05:17.102Z</time>
</trkpt>
<trkpt lat="-27.5439242" lon="153.1305116">
<ele>48.216</ele>
<time>2016-01-15T21:05:19.467Z</time>
</trkpt>
<trkpt lat="-27.5440258" lon="153.1306042">
<ele>48.322</ele>
<time>2016-01-15T21:05:22.514Z</time>
</trkpt>
<trkpt lat="-27.5441179" lon="153.1306819">
<ele>48.456</ele>
<time>2016-01-15T21:05:25.294Z</time>
</trkpt>
<trkpt lat="-27.5442129" lon="153.1307570">
<ele>48.470</ele>
<time>2016-01-15T21:05:28.106Z</time>
</trkpt>
<trkpt lat="-27.5442941" lon="153.1308191">
<ele>48.395</ele>
<time>2016-01-15T21:05:30.345Z</time>
</trkpt>
<trkpt lat="-27.5444135" lon="153.1308988">
<ele>48.323</ele>
<time>2016-01-15T21:05:33.445Z</time>
</trkpt>
<trkpt lat="-27.5445270" lon="153.1309619">
<ele>48.382</ele>
<time>2016-01-15T21:05:36.469Z</time>
</trkpt>
<trkpt lat="-27.5445667" lon="153.1311082">
<ele>48.692</ele>
<time>2016-01-15T21:05:39.923Z</time>
</trkpt>
<trkpt lat="-27.5445350" lon="153.1312507">
<ele>49.254</ele>
<time>2016-01-15T21:05:42.997Z</time>
</trkpt>
<trkpt lat="-27.5445335" lon="153.1313537">
<ele>49.946</ele>
<time>2016-01-15T21:05:45.064Z</time>
</trkpt>
<trkpt lat="-27.5445601" lon="153.1314951">
<ele>50.617</ele>
<time>2016-01-15T21:05:48.260Z</time>
</trkpt>
<trkpt lat="-27.5446069" lon="153.1315977">
<ele>51.162</ele>
<time>2016-01-15T21:05:51.563Z</time>
</trkpt>
<trkpt lat="-27.5446674" lon="153.1316875">
<ele>51.606</ele>
<time>2016-01-15T21:05:55.513Z</time>
</trkpt>
<trkpt lat="-27.5447715" lon="153.1317355">
<ele>51.977</ele>
<time>2016-01-15T21:06:00.027Z</time>
</trkpt>
<trkpt lat="-27.5448853" lon="153.1317363">
<ele>52.346</ele>
<time>2016-01-15T21:06:03.253Z</time>
</trkpt>
<trkpt lat="-27.5449856" lon="153.1317192">
<ele>52.937</ele>
<time>2016-01-15T21:06:05.368Z</time>
</trkpt>
<trkpt lat="-27.5451435" lon="153.1316889">
<ele>53.796</ele>
<time>2016-01-15T21:06:08.430Z</time>
</trkpt>
<trkpt lat="-27.5452457" lon="153.1316660">
<ele>54.623</ele>
<time>2016-01-15T21:06:10.469Z</time>
</trkpt>
<trkpt lat="-27.5454195" lon="153.1316424">
<ele>55.158</ele>
<time>2016-01-15T21:06:14.127Z</time>
</trkpt>
<trkpt lat="-27.5455305" lon="153.1315998">
<ele>55.276</ele>
<time>2016-01-15T21:06:16.947Z</time>
</trkpt>
<trkpt lat="-27.5456050" lon="153.1315168">
<ele>54.926</ele>
<time>2016-01-15T21:06:19.836Z</time>
</trkpt>
<trkpt lat="-27.5455599" lon="153.1314069">
<ele>54.260</ele>
<time>2016-01-15T21:06:23.236Z</time>
</trkpt>
<trkpt lat="-27.5454572" lon="153.1313788">
<ele>53.516</ele>
<time>2016-01-15T21:06:26.366Z</time>
</trkpt>
<trkpt lat="-27.5453473" lon="153.1314157">
<ele>52.888</ele>
<time>2016-01-15T21:06:28.747Z</time>
</trkpt>
<trkpt lat="-27.5452197" lon="153.1314242">
<ele>52.612</ele>
<time>2016-01-15T21:06:30.857Z</time>
</trkpt>
<trkpt lat="-27.5450198" lon="153.1314237">
<ele>52.875</ele>
<time>2016-01-15T21:06:33.967Z</time>
</trkpt>
<trkpt lat="-27.5449151" lon="153.1314325">
<ele>53.558</ele>
<time>2016-01-15T21:06:35.742Z</time>
</trkpt>
<trkpt lat="-27.5447636" lon="153.1314347">
<ele>54.252</ele>
<time>2016-01-15T21:06:38.616Z</time>
</trkpt>
<trkpt lat="-27.5446169" lon="153.1314129">
<ele>54.603</ele>
<time>2016-01-15T21:06:41.907Z</time>
</trkpt>
<trkpt lat="-27.5445732" lon="153.1313230">
<ele>54.560</ele>
<time>2016-01-15T21:06:44.444Z</time>
</trkpt>
<trkpt lat="-27.5445923" lon="153.1311797">
<ele>54.317</ele>
<time>2016-01-15T21:06:47.859Z</time>
</trkpt>
<trkpt lat="-27.5446068" lon="153.1310326">
<ele>54.109</ele>
<time>2016-01-15T21:06:50.989Z</time>
</trkpt>
<trkpt lat="-27.5445370" lon="153.1309528">
<ele>53.876</ele>
<time>2016-01-15T21:06:53.813Z</time>
</trkpt>
<trkpt lat="-27.5444123" lon="153.1308981">
<ele>53.336</ele>
<time>2016-01-15T21:06:57.999Z</time>
</trkpt>
<trkpt lat="-27.5444123" lon="153.1308981">
<ele>52.561</ele>
<time>2016-01-15T21:07:02.999Z</time>
</trkpt>
<trkpt lat="-27.5444123" lon="153.1308981">
<ele>52.061</ele>
<time>2016-01-15T21:07:05.638Z</time>
</trkpt>
<trkpt lat="-27.5442663" lon="153.1307990">
<ele>52.066</ele>
<time>2016-01-15T21:07:12.677Z</time>
</trkpt>
<trkpt lat="-27.5441837" lon="153.1307340">
<ele>51.971</ele>
<time>2016-01-15T21:07:16.104Z</time>
</trkpt>
<trkpt lat="-27.5441060" lon="153.1306721">
<ele>51.247</ele>
<time>2016-01-15T21:07:19.999Z</time>
</trkpt>
<trkpt lat="-27.5441060" lon="153.1306721">
<ele>50.326</ele>
<time>2016-01-15T21:07:22.999Z</time>
</trkpt>
<trkpt lat="-27.5441060" lon="153.1306721">
<ele>49.859</ele>
<time>2016-01-15T22:09:27.390Z</time>
</trkpt>
<trkpt lat="-27.5442088" lon="153.1308024">
<ele>50.010</ele>
<time>2016-01-15T22:09:37.998Z</time>
</trkpt>
<trkpt lat="-27.5443150" lon="153.1308843">
<ele>51.154</ele>
<time>2016-01-15T22:09:41.349Z</time>
</trkpt>
<trkpt lat="-27.5444231" lon="153.1309533">
<ele>53.297</ele>
<time>2016-01-15T22:09:43.420Z</time>
</trkpt>
<trkpt lat="-27.5445627" lon="153.1309780">
<ele>55.519</ele>
<time>2016-01-15T22:09:45.579Z</time>
</trkpt>
<trkpt lat="-27.5446818" lon="153.1310156">
<ele>57.118</ele>
<time>2016-01-15T22:09:47.462Z</time>
</trkpt>
<trkpt lat="-27.5448510" lon="153.1310435">
<ele>58.136</ele>
<time>2016-01-15T22:09:50.135Z</time>
</trkpt>
<trkpt lat="-27.5450397" lon="153.1310531">
<ele>58.667</ele>
<time>2016-01-15T22:09:53.132Z</time>
</trkpt>
<trkpt lat="-27.5451652" lon="153.1310497">
<ele>58.851</ele>
<time>2016-01-15T22:09:55.217Z</time>
</trkpt>
<trkpt lat="-27.5453323" lon="153.1310340">
<ele>58.856</ele>
<time>2016-01-15T22:09:58.318Z</time>
</trkpt>
<trkpt lat="-27.5454612" lon="153.1310138">
<ele>58.577</ele>
<time>2016-01-15T22:10:00.479Z</time>
</trkpt>
<trkpt lat="-27.5456834" lon="153.1309758">
<ele>57.937</ele>
<time>2016-01-15T22:10:03.422Z</time>
</trkpt>
<trkpt lat="-27.5458972" lon="153.1309390">
<ele>57.389</ele>
<time>2016-01-15T22:10:05.660Z</time>
</trkpt>
<trkpt lat="-27.5460963" lon="153.1309047">
<ele>57.312</ele>
<time>2016-01-15T22:10:07.842Z</time>
</trkpt>
<trkpt lat="-27.5462282" lon="153.1308764">
<ele>57.313</ele>
<time>2016-01-15T22:10:09.344Z</time>
</trkpt>
<trkpt lat="-27.5465027" lon="153.1306352">
<ele>56.876</ele>
<time>2016-01-15T22:10:13.449Z</time>
</trkpt>
<trkpt lat="-27.5465828" lon="153.1303571">
<ele>56.135</ele>
<time>2016-01-15T22:10:16.367Z</time>
</trkpt>
<trkpt lat="-27.5465852" lon="153.1300856">
<ele>55.590</ele>
<time>2016-01-15T22:10:19.063Z</time>
</trkpt>
<trkpt lat="-27.5465950" lon="153.1298845">
<ele>55.769</ele>
<time>2016-01-15T22:10:21.465Z</time>
</trkpt>
<trkpt lat="-27.5466074" lon="153.1297231">
<ele>56.865</ele>
<time>2016-01-15T22:10:23.801Z</time>
</trkpt>
<trkpt lat="-27.5466232" lon="153.1295973">
<ele>58.261</ele>
<time>2016-01-15T22:10:25.886Z</time>
</trkpt>
<trkpt lat="-27.5467720" lon="153.1294383">
<ele>59.392</ele>
<time>2016-01-15T22:10:29.527Z</time>
</trkpt>
<trkpt lat="-27.5469000" lon="153.1294532">
<ele>60.518</ele>
<time>2016-01-15T22:10:32.082Z</time>
</trkpt>
<trkpt lat="-27.5470059" lon="153.1295497">
<ele>61.719</ele>
<time>2016-01-15T22:10:34.488Z</time>
</trkpt>
<trkpt lat="-27.5470483" lon="153.1297141">
<ele>62.557</ele>
<time>2016-01-15T22:10:36.238Z</time>
</trkpt>
<trkpt lat="-27.5470410" lon="153.1299774">
<ele>62.992</ele>
<time>2016-01-15T22:10:38.214Z</time>
</trkpt>
<trkpt lat="-27.5470626" lon="153.1304971">
<ele>63.869</ele>
<time>2016-01-15T22:10:41.460Z</time>
</trkpt>
<trkpt lat="-27.5470615" lon="153.1308565">
<ele>65.818</ele>
<time>2016-01-15T22:10:43.439Z</time>
</trkpt>
<trkpt lat="-27.5470584" lon="153.1312037">
<ele>68.144</ele>
<time>2016-01-15T22:10:45.315Z</time>
</trkpt>
<trkpt lat="-27.5470153" lon="153.1317446">
<ele>69.724</ele>
<time>2016-01-15T22:10:48.219Z</time>
</trkpt>
<trkpt lat="-27.5469926" lon="153.1321045">
<ele>70.475</ele>
<time>2016-01-15T22:10:50.136Z</time>
</trkpt>
<trkpt lat="-27.5469865" lon="153.1324745">
<ele>70.875</ele>
<time>2016-01-15T22:10:52.128Z</time>
</trkpt>
<trkpt lat="-27.5470097" lon="153.1329352">
<ele>70.843</ele>
<time>2016-01-15T22:10:55.128Z</time>
</trkpt>
<trkpt lat="-27.5470176" lon="153.1330662">
<ele>69.464</ele>
<time>2016-01-15T22:10:56.140Z</time>
</trkpt>
<trkpt lat="-27.5471373" lon="153.1334150">
<ele>66.422</ele>
<time>2016-01-15T22:10:59.803Z</time>
</trkpt>
<trkpt lat="-27.5471690" lon="153.1335528">
<ele>62.763</ele>
<time>2016-01-15T22:11:01.585Z</time>
</trkpt>
<trkpt lat="-27.5471921" lon="153.1337066">
<ele>59.744</ele>
<time>2016-01-15T22:11:04.000Z</time>
</trkpt>
<trkpt lat="-27.5471921" lon="153.1337066">
<ele>57.942</ele>
<time>2016-01-15T22:11:09.000Z</time>
</trkpt>
<trkpt lat="-27.5471921" lon="153.1337066">
<ele>57.349</ele>
<time>2016-01-15T22:12:20.267Z</time>
</trkpt>
<trkpt lat="-27.5472642" lon="153.1339287">
<ele>57.695</ele>
<time>2016-01-15T22:12:31.376Z</time>
</trkpt>
<trkpt lat="-27.5472958" lon="153.1340596">
<ele>58.661</ele>
<time>2016-01-15T22:12:35.566Z</time>
</trkpt>
<trkpt lat="-27.5473683" lon="153.1341244">
<ele>59.654</ele>
<time>2016-01-15T22:12:38.220Z</time>
</trkpt>
<trkpt lat="-27.5473763" lon="153.1340064">
<ele>60.155</ele>
<time>2016-01-15T22:12:39.868Z</time>
</trkpt>
<trkpt lat="-27.5473325" lon="153.1338576">
<ele>60.190</ele>
<time>2016-01-15T22:12:41.454Z</time>
</trkpt>
<trkpt lat="-27.5472807" lon="153.1336497">
<ele>60.128</ele>
<time>2016-01-15T22:12:43.248Z</time>
</trkpt>
<trkpt lat="-27.5471983" lon="153.1332620">
<ele>60.474</ele>
<time>2016-01-15T22:12:46.146Z</time>
</trkpt>
<trkpt lat="-27.5471611" lon="153.1329609">
<ele>61.692</ele>
<time>2016-01-15T22:12:48.150Z</time>
</trkpt>
<trkpt lat="-27.5471440" lon="153.1326398">
<ele>63.717</ele>
<time>2016-01-15T22:12:50.342Z</time>
</trkpt>
<trkpt lat="-27.5471443" lon="153.1322111">
<ele>66.035</ele>
<time>2016-01-15T22:12:53.344Z</time>
</trkpt>
<trkpt lat="-27.5471448" lon="153.1317873">
<ele>68.118</ele>
<time>2016-01-15T22:12:56.297Z</time>
</trkpt>
<trkpt lat="-27.5471411" lon="153.1314949">
<ele>69.553</ele>
<time>2016-01-15T22:12:58.273Z</time>
</trkpt>
<trkpt lat="-27.5471367" lon="153.1311980">
<ele>70.366</ele>
<time>2016-01-15T22:13:00.239Z</time>
</trkpt>
<trkpt lat="-27.5471119" lon="153.1308928">
<ele>70.968</ele>
<time>2016-01-15T22:13:02.252Z</time>
</trkpt>
<trkpt lat="-27.5471119" lon="153.1304374">
<ele>71.468</ele>
<time>2016-01-15T22:13:05.331Z</time>
</trkpt>
<trkpt lat="-27.5471094" lon="153.1300359">
<ele>71.744</ele>
<time>2016-01-15T22:13:08.200Z</time>
</trkpt>
<trkpt lat="-27.5471084" lon="153.1297583">
<ele>71.724</ele>
<time>2016-01-15T22:13:10.192Z</time>
</trkpt>
<trkpt lat="-27.5471080" lon="153.1294812">
<ele>71.475</ele>
<time>2016-01-15T22:13:12.145Z</time>
</trkpt>
<trkpt lat="-27.5471065" lon="153.1292275">
<ele>71.242</ele>
<time>2016-01-15T22:13:13.922Z</time>
</trkpt>
<trkpt lat="-27.5470989" lon="153.1288098">
<ele>71.312</ele>
<time>2016-01-15T22:13:16.806Z</time>
</trkpt>
<trkpt lat="-27.5470965" lon="153.1283598">
<ele>71.674</ele>
<time>2016-01-15T22:13:19.813Z</time>
</trkpt>
<trkpt lat="-27.5471008" lon="153.1279060">
<ele>72.009</ele>
<time>2016-01-15T22:13:22.771Z</time>
</trkpt>
<trkpt lat="-27.5471347" lon="153.1276025">
<ele>71.977</ele>
<time>2016-01-15T22:13:24.755Z</time>
</trkpt>
<trkpt lat="-27.5471702" lon="153.1272972">
<ele>71.497</ele>
<time>2016-01-15T22:13:26.734Z</time>
</trkpt>
<trkpt lat="-27.5472146" lon="153.1268391">
<ele>70.784</ele>
<time>2016-01-15T22:13:29.660Z</time>
</trkpt>
<trkpt lat="-27.5472229" lon="153.1265076">
<ele>70.191</ele>
<time>2016-01-15T22:13:31.724Z</time>
</trkpt>
<trkpt lat="-27.5471965" lon="153.1261915">
<ele>69.899</ele>
<time>2016-01-15T22:13:33.645Z</time>
</trkpt>
<trkpt lat="-27.5471453" lon="153.1258403">
<ele>69.598</ele>
<time>2016-01-15T22:13:35.685Z</time>
</trkpt>
<trkpt lat="-27.5470936" lon="153.1254867">
<ele>68.736</ele>
<time>2016-01-15T22:13:37.605Z</time>
</trkpt>
<trkpt lat="-27.5469868" lon="153.1249436">
<ele>67.337</ele>
<time>2016-01-15T22:13:40.517Z</time>
</trkpt>
<trkpt lat="-27.5468581" lon="153.1246039">
<ele>65.940</ele>
<time>2016-01-15T22:13:42.477Z</time>
</trkpt>
<trkpt lat="-27.5467356" lon="153.1242722">
<ele>64.910</ele>
<time>2016-01-15T22:13:44.452Z</time>
</trkpt>
<trkpt lat="-27.5466136" lon="153.1239504">
<ele>64.123</ele>
<time>2016-01-15T22:13:46.397Z</time>
</trkpt>
<trkpt lat="-27.5464874" lon="153.1236102">
<ele>62.929</ele>
<time>2016-01-15T22:13:48.445Z</time>
</trkpt>
<trkpt lat="-27.5463081" lon="153.1231145">
<ele>61.073</ele>
<time>2016-01-15T22:13:51.513Z</time>
</trkpt>
<trkpt lat="-27.5461645" lon="153.1226624">
<ele>58.986</ele>
<time>2016-01-15T22:13:54.571Z</time>
</trkpt>
<trkpt lat="-27.5460650" lon="153.1222691">
<ele>56.773</ele>
<time>2016-01-15T22:13:57.611Z</time>
</trkpt>
<trkpt lat="-27.5459747" lon="153.1219285">
<ele>54.380</ele>
<time>2016-01-15T22:14:00.442Z</time>
</trkpt>
<trkpt lat="-27.5458723" lon="153.1215454">
<ele>52.386</ele>
<time>2016-01-15T22:14:03.363Z</time>
</trkpt>
<trkpt lat="-27.5457822" lon="153.1212470">
<ele>51.507</ele>
<time>2016-01-15T22:14:05.357Z</time>
</trkpt>
<trkpt lat="-27.5456975" lon="153.1209362">
<ele>51.875</ele>
<time>2016-01-15T22:14:07.369Z</time>
</trkpt>
<trkpt lat="-27.5456227" lon="153.1206455">
<ele>52.853</ele>
<time>2016-01-15T22:14:09.295Z</time>
</trkpt>
<trkpt lat="-27.5455588" lon="153.1203778">
<ele>53.369</ele>
<time>2016-01-15T22:14:11.137Z</time>
</trkpt>
<trkpt lat="-27.5454966" lon="153.1200861">
<ele>52.908</ele>
<time>2016-01-15T22:14:13.173Z</time>
</trkpt>
<trkpt lat="-27.5454141" lon="153.1196524">
<ele>51.964</ele>
<time>2016-01-15T22:14:16.187Z</time>
</trkpt>
<trkpt lat="-27.5453440" lon="153.1192012">
<ele>50.976</ele>
<time>2016-01-15T22:14:19.230Z</time>
</trkpt>
<trkpt lat="-27.5452835" lon="153.1187607">
<ele>49.691</ele>
<time>2016-01-15T22:14:22.252Z</time>
</trkpt>
<trkpt lat="-27.5452322" lon="153.1183508">
<ele>47.472</ele>
<time>2016-01-15T22:14:25.425Z</time>
</trkpt>
<trkpt lat="-27.5452035" lon="153.1181430">
<ele>43.926</ele>
<time>2016-01-15T22:14:27.562Z</time>
</trkpt>
<trkpt lat="-27.5451918" lon="153.1179051">
<ele>39.637</ele>
<time>2016-01-15T22:14:30.347Z</time>
</trkpt>
<trkpt lat="-27.5453681" lon="153.1177554">
<ele>35.553</ele>
<time>2016-01-15T22:14:33.459Z</time>
</trkpt>
<trkpt lat="-27.5454942" lon="153.1176733">
<ele>32.372</ele>
<time>2016-01-15T22:14:35.168Z</time>
</trkpt>
<trkpt lat="-27.5458086" lon="153.1176658">
<ele>30.730</ele>
<time>2016-01-15T22:14:38.150Z</time>
</trkpt>
<trkpt lat="-27.5462336" lon="153.1176314">
<ele>30.924</ele>
<time>2016-01-15T22:14:41.205Z</time>
</trkpt>
<trkpt lat="-27.5465587" lon="153.1175834">
<ele>32.822</ele>
<time>2016-01-15T22:14:43.152Z</time>
</trkpt>
<trkpt lat="-27.5469387" lon="153.1175200">
<ele>35.791</ele>
<time>2016-01-15T22:14:45.222Z</time>
</trkpt>
<trkpt lat="-27.5476013" lon="153.1173417">
<ele>38.684</ele>
<time>2016-01-15T22:14:48.610Z</time>
</trkpt>
<trkpt lat="-27.5480793" lon="153.1171646">
<ele>41.083</ele>
<time>2016-01-15T22:14:50.888Z</time>
</trkpt>
<trkpt lat="-27.5487692" lon="153.1168206">
<ele>43.094</ele>
<time>2016-01-15T22:14:54.041Z</time>
</trkpt>
<trkpt lat="-27.5493833" lon="153.1164254">
<ele>43.960</ele>
<time>2016-01-15T22:14:57.103Z</time>
</trkpt>
<trkpt lat="-27.5497294" lon="153.1161424">
<ele>43.057</ele>
<time>2016-01-15T22:14:59.121Z</time>
</trkpt>
<trkpt lat="-27.5500559" lon="153.1158514">
<ele>40.792</ele>
<time>2016-01-15T22:15:01.139Z</time>
</trkpt>
<trkpt lat="-27.5505836" lon="153.1154181">
<ele>38.079</ele>
<time>2016-01-15T22:15:04.294Z</time>
</trkpt>
<trkpt lat="-27.5509048" lon="153.1151426">
<ele>36.008</ele>
<time>2016-01-15T22:15:06.251Z</time>
</trkpt>
<trkpt lat="-27.5514380" lon="153.1147572">
<ele>35.105</ele>
<time>2016-01-15T22:15:09.297Z</time>
</trkpt>
<trkpt lat="-27.5519680" lon="153.1143607">
<ele>34.969</ele>
<time>2016-01-15T22:15:12.298Z</time>
</trkpt>
<trkpt lat="-27.5523156" lon="153.1140931">
<ele>34.807</ele>
<time>2016-01-15T22:15:14.301Z</time>
</trkpt>
<trkpt lat="-27.5528437" lon="153.1137267">
<ele>33.979</ele>
<time>2016-01-15T22:15:17.430Z</time>
</trkpt>
<trkpt lat="-27.5531835" lon="153.1134985">
<ele>32.481</ele>
<time>2016-01-15T22:15:19.547Z</time>
</trkpt>
<trkpt lat="-27.5538128" lon="153.1131048">
<ele>30.461</ele>
<time>2016-01-15T22:15:23.438Z</time>
</trkpt>
<trkpt lat="-27.5542996" lon="153.1128052">
<ele>28.068</ele>
<time>2016-01-15T22:15:26.351Z</time>
</trkpt>
<trkpt lat="-27.5546420" lon="153.1125994">
<ele>25.974</ele>
<time>2016-01-15T22:15:28.367Z</time>
</trkpt>
<trkpt lat="-27.5551523" lon="153.1123106">
<ele>25.009</ele>
<time>2016-01-15T22:15:31.343Z</time>
</trkpt>
<trkpt lat="-27.5556569" lon="153.1120283">
<ele>25.234</ele>
<time>2016-01-15T22:15:34.298Z</time>
</trkpt>
<trkpt lat="-27.5560015" lon="153.1118471">
<ele>25.898</ele>
<time>2016-01-15T22:15:36.279Z</time>
</trkpt>
<trkpt lat="-27.5563652" lon="153.1116514">
<ele>26.191</ele>
<time>2016-01-15T22:15:38.336Z</time>
</trkpt>
<trkpt lat="-27.5568882" lon="153.1113736">
<ele>25.917</ele>
<time>2016-01-15T22:15:41.257Z</time>
</trkpt>
<trkpt lat="-27.5572684" lon="153.1111637">
<ele>25.523</ele>
<time>2016-01-15T22:15:43.366Z</time>
</trkpt>
<trkpt lat="-27.5579885" lon="153.1107641">
<ele>25.487</ele>
<time>2016-01-15T22:15:47.280Z</time>
</trkpt>
<trkpt lat="-27.5583604" lon="153.1105746">
<ele>25.783</ele>
<time>2016-01-15T22:15:49.227Z</time>
</trkpt>
<trkpt lat="-27.5589307" lon="153.1102761">
<ele>26.220</ele>
<time>2016-01-15T22:15:52.205Z</time>
</trkpt>
<trkpt lat="-27.5595004" lon="153.1099765">
<ele>27.249</ele>
<time>2016-01-15T22:15:55.131Z</time>
</trkpt>
<trkpt lat="-27.5601064" lon="153.1096596">
<ele>29.190</ele>
<time>2016-01-15T22:15:58.205Z</time>
</trkpt>
<trkpt lat="-27.5605011" lon="153.1094535">
<ele>31.368</ele>
<time>2016-01-15T22:16:00.225Z</time>
</trkpt>
<trkpt lat="-27.5610847" lon="153.1091567">
<ele>33.015</ele>
<time>2016-01-15T22:16:03.253Z</time>
</trkpt>
<trkpt lat="-27.5614566" lon="153.1089603">
<ele>33.971</ele>
<time>2016-01-15T22:16:05.235Z</time>
</trkpt>
<trkpt lat="-27.5620180" lon="153.1086651">
<ele>34.467</ele>
<time>2016-01-15T22:16:08.268Z</time>
</trkpt>
<trkpt lat="-27.5623793" lon="153.1084851">
<ele>35.072</ele>
<time>2016-01-15T22:16:10.213Z</time>
</trkpt>
<trkpt lat="-27.5627530" lon="153.1082953">
<ele>36.169</ele>
<time>2016-01-15T22:16:12.238Z</time>
</trkpt>
<trkpt lat="-27.5631250" lon="153.1081105">
<ele>37.491</ele>
<time>2016-01-15T22:16:14.273Z</time>
</trkpt>
<trkpt lat="-27.5636936" lon="153.1078828">
<ele>38.412</ele>
<time>2016-01-15T22:16:17.375Z</time>
</trkpt>
<trkpt lat="-27.5640541" lon="153.1077807">
<ele>38.720</ele>
<time>2016-01-15T22:16:19.384Z</time>
</trkpt>
<trkpt lat="-27.5644111" lon="153.1076910">
<ele>38.523</ele>
<time>2016-01-15T22:16:21.448Z</time>
</trkpt>
<trkpt lat="-27.5649227" lon="153.1076212">
<ele>37.961</ele>
<time>2016-01-15T22:16:24.543Z</time>
</trkpt>
<trkpt lat="-27.5654047" lon="153.1076030">
<ele>37.084</ele>
<time>2016-01-15T22:16:27.564Z</time>
</trkpt>
<trkpt lat="-27.5656930" lon="153.1076144">
<ele>35.516</ele>
<time>2016-01-15T22:16:29.330Z</time>
</trkpt>
<trkpt lat="-27.5661942" lon="153.1076741">
<ele>33.102</ele>
<time>2016-01-15T22:16:32.219Z</time>
</trkpt>
<trkpt lat="-27.5665413" lon="153.1077594">
<ele>30.735</ele>
<time>2016-01-15T22:16:34.099Z</time>
</trkpt>
<trkpt lat="-27.5669240" lon="153.1078718">
<ele>29.424</ele>
<time>2016-01-15T22:16:36.117Z</time>
</trkpt>
<trkpt lat="-27.5674894" lon="153.1080263">
<ele>29.188</ele>
<time>2016-01-15T22:16:39.045Z</time>
</trkpt>
<trkpt lat="-27.5680845" lon="153.1081499">
<ele>29.267</ele>
<time>2016-01-15T22:16:42.029Z</time>
</trkpt>
<trkpt lat="-27.5686868" lon="153.1081964">
<ele>28.973</ele>
<time>2016-01-15T22:16:44.962Z</time>
</trkpt>
<trkpt lat="-27.5691181" lon="153.1081947">
<ele>28.334</ele>
<time>2016-01-15T22:16:47.050Z</time>
</trkpt>
<trkpt lat="-27.5697380" lon="153.1081278">
<ele>27.842</ele>
<time>2016-01-15T22:16:50.089Z</time>
</trkpt>
<trkpt lat="-27.5703150" lon="153.1079979">
<ele>27.744</ele>
<time>2016-01-15T22:16:53.022Z</time>
</trkpt>
<trkpt lat="-27.5706993" lon="153.1078757">
<ele>27.909</ele>
<time>2016-01-15T22:16:55.029Z</time>
</trkpt>
<trkpt lat="-27.5710838" lon="153.1077568">
<ele>28.118</ele>
<time>2016-01-15T22:16:56.990Z</time>
</trkpt>
<trkpt lat="-27.5714836" lon="153.1076081">
<ele>28.387</ele>
<time>2016-01-15T22:16:58.944Z</time>
</trkpt>
<trkpt lat="-27.5719149" lon="153.1074569">
<ele>28.897</ele>
<time>2016-01-15T22:17:00.833Z</time>
</trkpt>
<trkpt lat="-27.5726425" lon="153.1072330">
<ele>29.546</ele>
<time>2016-01-15T22:17:03.873Z</time>
</trkpt>
<trkpt lat="-27.5731386" lon="153.1071009">
<ele>30.693</ele>
<time>2016-01-15T22:17:05.946Z</time>
</trkpt>
<trkpt lat="-27.5738464" lon="153.1069086">
<ele>32.653</ele>
<time>2016-01-15T22:17:08.956Z</time>
</trkpt>
<trkpt lat="-27.5745721" lon="153.1067397">
<ele>34.333</ele>
<time>2016-01-15T22:17:12.098Z</time>
</trkpt>
<trkpt lat="-27.5750037" lon="153.1066209">
<ele>34.527</ele>
<time>2016-01-15T22:17:14.090Z</time>
</trkpt>
<trkpt lat="-27.5756321" lon="153.1064449">
<ele>33.615</ele>
<time>2016-01-15T22:17:17.036Z</time>
</trkpt>
<trkpt lat="-27.5760639" lon="153.1063216">
<ele>32.640</ele>
<time>2016-01-15T22:17:18.997Z</time>
</trkpt>
<trkpt lat="-27.5767118" lon="153.1060975">
<ele>32.213</ele>
<time>2016-01-15T22:17:21.933Z</time>
</trkpt>
<trkpt lat="-27.5773893" lon="153.1059244">
<ele>32.279</ele>
<time>2016-01-15T22:17:25.003Z</time>
</trkpt>
<trkpt lat="-27.5777614" lon="153.1057517">
<ele>32.633</ele>
<time>2016-01-15T22:17:26.913Z</time>
</trkpt>
<trkpt lat="-27.5783768" lon="153.1056089">
<ele>32.985</ele>
<time>2016-01-15T22:17:29.961Z</time>
</trkpt>
<trkpt lat="-27.5787397" lon="153.1054630">
<ele>33.007</ele>
<time>2016-01-15T22:17:31.862Z</time>
</trkpt>
<trkpt lat="-27.5791549" lon="153.1053475">
<ele>32.707</ele>
<time>2016-01-15T22:17:33.975Z</time>
</trkpt>
<trkpt lat="-27.5797199" lon="153.1051487">
<ele>32.403</ele>
<time>2016-01-15T22:17:36.883Z</time>
</trkpt>
<trkpt lat="-27.5801298" lon="153.1050433">
<ele>32.245</ele>
<time>2016-01-15T22:17:38.863Z</time>
</trkpt>
<trkpt lat="-27.5805696" lon="153.1049179">
<ele>32.187</ele>
<time>2016-01-15T22:17:40.954Z</time>
</trkpt>
<trkpt lat="-27.5811969" lon="153.1047681">
<ele>32.499</ele>
<time>2016-01-15T22:17:43.919Z</time>
</trkpt>
<trkpt lat="-27.5816411" lon="153.1047100">
<ele>33.362</ele>
<time>2016-01-15T22:17:46.012Z</time>
</trkpt>
<trkpt lat="-27.5822560" lon="153.1046933">
<ele>34.263</ele>
<time>2016-01-15T22:17:48.935Z</time>
</trkpt>
<trkpt lat="-27.5828214" lon="153.1047421">
<ele>34.702</ele>
<time>2016-01-15T22:17:51.681Z</time>
</trkpt>
<trkpt lat="-27.5833903" lon="153.1048980">
<ele>34.459</ele>
<time>2016-01-15T22:17:54.518Z</time>
</trkpt>
<trkpt lat="-27.5838082" lon="153.1050214">
<ele>33.430</ele>
<time>2016-01-15T22:17:56.562Z</time>
</trkpt>
<trkpt lat="-27.5842175" lon="153.1052074">
<ele>32.071</ele>
<time>2016-01-15T22:17:58.598Z</time>
</trkpt>
<trkpt lat="-27.5848104" lon="153.1055459">
<ele>31.132</ele>
<time>2016-01-15T22:18:01.594Z</time>
</trkpt>
<trkpt lat="-27.5852157" lon="153.1057983">
<ele>30.780</ele>
<time>2016-01-15T22:18:03.512Z</time>
</trkpt>
<trkpt lat="-27.5858771" lon="153.1062103">
<ele>30.931</ele>
<time>2016-01-15T22:18:06.488Z</time>
</trkpt>
<trkpt lat="-27.5863301" lon="153.1065089">
<ele>31.881</ele>
<time>2016-01-15T22:18:08.524Z</time>
</trkpt>
<trkpt lat="-27.5869794" lon="153.1069244">
<ele>33.552</ele>
<time>2016-01-15T22:18:11.502Z</time>
</trkpt>
<trkpt lat="-27.5874055" lon="153.1071758">
<ele>35.016</ele>
<time>2016-01-15T22:18:13.532Z</time>
</trkpt>
<trkpt lat="-27.5878000" lon="153.1074240">
<ele>35.422</ele>
<time>2016-01-15T22:18:15.556Z</time>
</trkpt>
<trkpt lat="-27.5883537" lon="153.1077713">
<ele>34.666</ele>
<time>2016-01-15T22:18:18.504Z</time>
</trkpt>
<trkpt lat="-27.5887244" lon="153.1079993">
<ele>33.418</ele>
<time>2016-01-15T22:18:20.542Z</time>
</trkpt>
<trkpt lat="-27.5890725" lon="153.1082250">
<ele>32.331</ele>
<time>2016-01-15T22:18:22.518Z</time>
</trkpt>
<trkpt lat="-27.5894190" lon="153.1084454">
<ele>31.575</ele>
<time>2016-01-15T22:18:24.498Z</time>
</trkpt>
<trkpt lat="-27.5899374" lon="153.1087829">
<ele>31.213</ele>
<time>2016-01-15T22:18:27.476Z</time>
</trkpt>
<trkpt lat="-27.5904752" lon="153.1091321">
<ele>31.491</ele>
<time>2016-01-15T22:18:30.558Z</time>
</trkpt>
<trkpt lat="-27.5910024" lon="153.1094522">
<ele>32.473</ele>
<time>2016-01-15T22:18:33.549Z</time>
</trkpt>
<trkpt lat="-27.5915060" lon="153.1097784">
<ele>33.879</ele>
<time>2016-01-15T22:18:36.475Z</time>
</trkpt>
<trkpt lat="-27.5918603" lon="153.1099984">
<ele>35.252</ele>
<time>2016-01-15T22:18:38.514Z</time>
</trkpt>
<trkpt lat="-27.5923686" lon="153.1103285">
<ele>36.503</ele>
<time>2016-01-15T22:18:41.418Z</time>
</trkpt>
<trkpt lat="-27.5929040" lon="153.1106708">
<ele>37.687</ele>
<time>2016-01-15T22:18:44.363Z</time>
</trkpt>
<trkpt lat="-27.5932757" lon="153.1109218">
<ele>38.972</ele>
<time>2016-01-15T22:18:46.371Z</time>
</trkpt>
<trkpt lat="-27.5938534" lon="153.1112782">
<ele>40.452</ele>
<time>2016-01-15T22:18:49.367Z</time>
</trkpt>
<trkpt lat="-27.5942508" lon="153.1115294">
<ele>41.791</ele>
<time>2016-01-15T22:18:51.390Z</time>
</trkpt>
<trkpt lat="-27.5948553" lon="153.1119238">
<ele>42.709</ele>
<time>2016-01-15T22:18:54.467Z</time>
</trkpt>
<trkpt lat="-27.5954348" lon="153.1123121">
<ele>43.700</ele>
<time>2016-01-15T22:18:57.434Z</time>
</trkpt>
<trkpt lat="-27.5960265" lon="153.1126780">
<ele>45.103</ele>
<time>2016-01-15T22:19:00.397Z</time>
</trkpt>
<trkpt lat="-27.5964316" lon="153.1129384">
<ele>46.675</ele>
<time>2016-01-15T22:19:02.442Z</time>
</trkpt>
<trkpt lat="-27.5970301" lon="153.1133232">
<ele>47.980</ele>
<time>2016-01-15T22:19:05.504Z</time>
</trkpt>
<trkpt lat="-27.5974069" lon="153.1135559">
<ele>48.693</ele>
<time>2016-01-15T22:19:07.469Z</time>
</trkpt>
<trkpt lat="-27.5977787" lon="153.1138009">
<ele>48.764</ele>
<time>2016-01-15T22:19:09.458Z</time>
</trkpt>
<trkpt lat="-27.5983285" lon="153.1141561">
<ele>48.447</ele>
<time>2016-01-15T22:19:12.383Z</time>
</trkpt>
<trkpt lat="-27.5989101" lon="153.1145298">
<ele>48.007</ele>
<time>2016-01-15T22:19:15.494Z</time>
</trkpt>
<trkpt lat="-27.5994461" lon="153.1148774">
<ele>47.059</ele>
<time>2016-01-15T22:19:18.409Z</time>
</trkpt>
<trkpt lat="-27.5998182" lon="153.1151141">
<ele>45.409</ele>
<time>2016-01-15T22:19:20.420Z</time>
</trkpt>
<trkpt lat="-27.6001789" lon="153.1153457">
<ele>44.069</ele>
<time>2016-01-15T22:19:22.361Z</time>
</trkpt>
<trkpt lat="-27.6005505" lon="153.1155853">
<ele>43.821</ele>
<time>2016-01-15T22:19:24.342Z</time>
</trkpt>
<trkpt lat="-27.6011263" lon="153.1159565">
<ele>43.886</ele>
<time>2016-01-15T22:19:27.399Z</time>
</trkpt>
<trkpt lat="-27.6016899" lon="153.1163200">
<ele>43.460</ele>
<time>2016-01-15T22:19:30.411Z</time>
</trkpt>
<trkpt lat="-27.6020609" lon="153.1165579">
<ele>42.231</ele>
<time>2016-01-15T22:19:32.431Z</time>
</trkpt>
<trkpt lat="-27.6025954" lon="153.1169089">
<ele>40.262</ele>
<time>2016-01-15T22:19:35.394Z</time>
</trkpt>
<trkpt lat="-27.6029528" lon="153.1171364">
<ele>37.922</ele>
<time>2016-01-15T22:19:37.370Z</time>
</trkpt>
<trkpt lat="-27.6033126" lon="153.1173790">
<ele>35.758</ele>
<time>2016-01-15T22:19:39.356Z</time>
</trkpt>
<trkpt lat="-27.6038753" lon="153.1177615">
<ele>34.454</ele>
<time>2016-01-15T22:19:42.413Z</time>
</trkpt>
<trkpt lat="-27.6044337" lon="153.1181250">
<ele>34.738</ele>
<time>2016-01-15T22:19:45.367Z</time>
</trkpt>
<trkpt lat="-27.6048155" lon="153.1183777">
<ele>36.284</ele>
<time>2016-01-15T22:19:47.402Z</time>
</trkpt>
<trkpt lat="-27.6051816" lon="153.1186185">
<ele>37.841</ele>
<time>2016-01-15T22:19:49.381Z</time>
</trkpt>
<trkpt lat="-27.6055437" lon="153.1188392">
<ele>38.584</ele>
<time>2016-01-15T22:19:51.338Z</time>
</trkpt>
<trkpt lat="-27.6060831" lon="153.1191771">
<ele>38.881</ele>
<time>2016-01-15T22:19:54.309Z</time>
</trkpt>
<trkpt lat="-27.6066208" lon="153.1195099">
<ele>39.462</ele>
<time>2016-01-15T22:19:57.288Z</time>
</trkpt>
<trkpt lat="-27.6069724" lon="153.1197458">
<ele>40.441</ele>
<time>2016-01-15T22:19:59.274Z</time>
</trkpt>
<trkpt lat="-27.6075040" lon="153.1200904">
<ele>41.255</ele>
<time>2016-01-15T22:20:02.229Z</time>
</trkpt>
<trkpt lat="-27.6078735" lon="153.1203243">
<ele>41.117</ele>
<time>2016-01-15T22:20:04.226Z</time>
</trkpt>
<trkpt lat="-27.6084469" lon="153.1206879">
<ele>40.001</ele>
<time>2016-01-15T22:20:07.277Z</time>
</trkpt>
<trkpt lat="-27.6088224" lon="153.1209321">
<ele>38.783</ele>
<time>2016-01-15T22:20:09.279Z</time>
</trkpt>
<trkpt lat="-27.6093846" lon="153.1212664">
<ele>37.928</ele>
<time>2016-01-15T22:20:12.253Z</time>
</trkpt>
<trkpt lat="-27.6097487" lon="153.1215040">
<ele>36.724</ele>
<time>2016-01-15T22:20:14.242Z</time>
</trkpt>
<trkpt lat="-27.6101127" lon="153.1217479">
<ele>34.806</ele>
<time>2016-01-15T22:20:16.233Z</time>
</trkpt>
<trkpt lat="-27.6106591" lon="153.1221041">
<ele>32.828</ele>
<time>2016-01-15T22:20:19.180Z</time>
</trkpt>
<trkpt lat="-27.6112227" lon="153.1224629">
<ele>31.114</ele>
<time>2016-01-15T22:20:22.133Z</time>
</trkpt>
<trkpt lat="-27.6116285" lon="153.1226952">
<ele>29.542</ele>
<time>2016-01-15T22:20:24.076Z</time>
</trkpt>
<trkpt lat="-27.6123286" lon="153.1230292">
<ele>28.622</ele>
<time>2016-01-15T22:20:27.180Z</time>
</trkpt>
<trkpt lat="-27.6130322" lon="153.1233067">
<ele>28.679</ele>
<time>2016-01-15T22:20:30.163Z</time>
</trkpt>
<trkpt lat="-27.6134944" lon="153.1234523">
<ele>29.199</ele>
<time>2016-01-15T22:20:32.115Z</time>
</trkpt>
<trkpt lat="-27.6141944" lon="153.1236703">
<ele>29.378</ele>
<time>2016-01-15T22:20:35.141Z</time>
</trkpt>
<trkpt lat="-27.6148546" lon="153.1238959">
<ele>28.871</ele>
<time>2016-01-15T22:20:38.090Z</time>
</trkpt>
<trkpt lat="-27.6152926" lon="153.1240774">
<ele>28.112</ele>
<time>2016-01-15T22:20:40.091Z</time>
</trkpt>
<trkpt lat="-27.6157343" lon="153.1242591">
<ele>27.476</ele>
<time>2016-01-15T22:20:42.085Z</time>
</trkpt>
<trkpt lat="-27.6163831" lon="153.1246075">
<ele>26.796</ele>
<time>2016-01-15T22:20:45.096Z</time>
</trkpt>
<trkpt lat="-27.6170247" lon="153.1250055">
<ele>26.119</ele>
<time>2016-01-15T22:20:48.144Z</time>
</trkpt>
<trkpt lat="-27.6176509" lon="153.1253851">
<ele>25.698</ele>
<time>2016-01-15T22:20:51.132Z</time>
</trkpt>
<trkpt lat="-27.6180595" lon="153.1256069">
<ele>25.237</ele>
<time>2016-01-15T22:20:53.057Z</time>
</trkpt>
<trkpt lat="-27.6187042" lon="153.1259338">
<ele>24.135</ele>
<time>2016-01-15T22:20:56.045Z</time>
</trkpt>
<trkpt lat="-27.6191543" lon="153.1261420">
<ele>22.549</ele>
<time>2016-01-15T22:20:58.086Z</time>
</trkpt>
<trkpt lat="-27.6198193" lon="153.1264374">
<ele>21.136</ele>
<time>2016-01-15T22:21:01.114Z</time>
</trkpt>
<trkpt lat="-27.6204411" lon="153.1267222">
<ele>19.696</ele>
<time>2016-01-15T22:21:03.991Z</time>
</trkpt>
<trkpt lat="-27.6208937" lon="153.1269333">
<ele>17.809</ele>
<time>2016-01-15T22:21:06.043Z</time>
</trkpt>
<trkpt lat="-27.6213600" lon="153.1271277">
<ele>16.177</ele>
<time>2016-01-15T22:21:08.085Z</time>
</trkpt>
<trkpt lat="-27.6220340" lon="153.1274286">
<ele>15.594</ele>
<time>2016-01-15T22:21:11.103Z</time>
</trkpt>
<trkpt lat="-27.6226682" lon="153.1277139">
<ele>15.747</ele>
<time>2016-01-15T22:21:14.181Z</time>
</trkpt>
<trkpt lat="-27.6231966" lon="153.1279696">
<ele>16.023</ele>
<time>2016-01-15T22:21:17.082Z</time>
</trkpt>
<trkpt lat="-27.6236960" lon="153.1282230">
<ele>15.703</ele>
<time>2016-01-15T22:21:19.996Z</time>
</trkpt>
<trkpt lat="-27.6242291" lon="153.1284785">
<ele>14.501</ele>
<time>2016-01-15T22:21:23.008Z</time>
</trkpt>
<trkpt lat="-27.6247833" lon="153.1287345">
<ele>13.289</ele>
<time>2016-01-15T22:21:26.004Z</time>
</trkpt>
<trkpt lat="-27.6252005" lon="153.1289016">
<ele>13.489</ele>
<time>2016-01-15T22:21:28.083Z</time>
</trkpt>
<trkpt lat="-27.6256227" lon="153.1290729">
<ele>15.321</ele>
<time>2016-01-15T22:21:30.056Z</time>
</trkpt>
<trkpt lat="-27.6262976" lon="153.1293474">
<ele>17.641</ele>
<time>2016-01-15T22:21:33.066Z</time>
</trkpt>
<trkpt lat="-27.6270031" lon="153.1296261">
<ele>19.727</ele>
<time>2016-01-15T22:21:36.106Z</time>
</trkpt>
<trkpt lat="-27.6274571" lon="153.1298096">
<ele>21.583</ele>
<time>2016-01-15T22:21:38.061Z</time>
</trkpt>
<trkpt lat="-27.6279242" lon="153.1299951">
<ele>22.833</ele>
<time>2016-01-15T22:21:40.071Z</time>
</trkpt>
<trkpt lat="-27.6286143" lon="153.1302678">
<ele>23.281</ele>
<time>2016-01-15T22:21:43.058Z</time>
</trkpt>
<trkpt lat="-27.6290629" lon="153.1304488">
<ele>23.268</ele>
<time>2016-01-15T22:21:45.051Z</time>
</trkpt>
<trkpt lat="-27.6294904" lon="153.1306286">
<ele>23.280</ele>
<time>2016-01-15T22:21:47.011Z</time>
</trkpt>
<trkpt lat="-27.6299047" lon="153.1308018">
<ele>23.955</ele>
<time>2016-01-15T22:21:48.946Z</time>
</trkpt>
<trkpt lat="-27.6305361" lon="153.1310797">
<ele>25.364</ele>
<time>2016-01-15T22:21:51.915Z</time>
</trkpt>
<trkpt lat="-27.6311735" lon="153.1314349">
<ele>26.927</ele>
<time>2016-01-15T22:21:55.005Z</time>
</trkpt>
<trkpt lat="-27.6315578" lon="153.1316904">
<ele>28.151</ele>
<time>2016-01-15T22:21:56.977Z</time>
</trkpt>
<trkpt lat="-27.6321031" lon="153.1321222">
<ele>28.714</ele>
<time>2016-01-15T22:21:59.973Z</time>
</trkpt>
<trkpt lat="-27.6326027" lon="153.1326047">
<ele>28.333</ele>
<time>2016-01-15T22:22:02.939Z</time>
</trkpt>
<trkpt lat="-27.6329357" lon="153.1329500">
<ele>27.377</ele>
<time>2016-01-15T22:22:04.967Z</time>
</trkpt>
<trkpt lat="-27.6332587" lon="153.1332856">
<ele>26.447</ele>
<time>2016-01-15T22:22:06.973Z</time>
</trkpt>
<trkpt lat="-27.6336950" lon="153.1337612">
<ele>25.257</ele>
<time>2016-01-15T22:22:09.819Z</time>
</trkpt>
<trkpt lat="-27.6340148" lon="153.1340987">
<ele>23.456</ele>
<time>2016-01-15T22:22:11.949Z</time>
</trkpt>
<trkpt lat="-27.6344508" lon="153.1345660">
<ele>21.751</ele>
<time>2016-01-15T22:22:14.916Z</time>
</trkpt>
<trkpt lat="-27.6348932" lon="153.1350440">
<ele>20.410</ele>
<time>2016-01-15T22:22:17.921Z</time>
</trkpt>
<trkpt lat="-27.6352001" lon="153.1353678">
<ele>18.943</ele>
<time>2016-01-15T22:22:19.950Z</time>
</trkpt>
<trkpt lat="-27.6356539" lon="153.1358412">
<ele>17.178</ele>
<time>2016-01-15T22:22:22.909Z</time>
</trkpt>
<trkpt lat="-27.6359632" lon="153.1361679">
<ele>15.287</ele>
<time>2016-01-15T22:22:24.897Z</time>
</trkpt>
<trkpt lat="-27.6364457" lon="153.1366598">
<ele>13.773</ele>
<time>2016-01-15T22:22:27.903Z</time>
</trkpt>
<trkpt lat="-27.6369148" lon="153.1371604">
<ele>13.075</ele>
<time>2016-01-15T22:22:30.874Z</time>
</trkpt>
<trkpt lat="-27.6373774" lon="153.1376536">
<ele>12.875</ele>
<time>2016-01-15T22:22:33.840Z</time>
</trkpt>
<trkpt lat="-27.6376730" lon="153.1379831">
<ele>12.706</ele>
<time>2016-01-15T22:22:35.790Z</time>
</trkpt>
<trkpt lat="-27.6381265" lon="153.1384981">
<ele>12.248</ele>
<time>2016-01-15T22:22:38.781Z</time>
</trkpt>
<trkpt lat="-27.6384197" lon="153.1388602">
<ele>11.478</ele>
<time>2016-01-15T22:22:40.790Z</time>
</trkpt>
<trkpt lat="-27.6387160" lon="153.1392104">
<ele>10.712</ele>
<time>2016-01-15T22:22:42.766Z</time>
</trkpt>
<trkpt lat="-27.6391976" lon="153.1397250">
<ele>10.223</ele>
<time>2016-01-15T22:22:45.772Z</time>
</trkpt>
<trkpt lat="-27.6396950" lon="153.1402612">
<ele>10.162</ele>
<time>2016-01-15T22:22:48.806Z</time>
</trkpt>
<trkpt lat="-27.6401875" lon="153.1407902">
<ele>10.577</ele>
<time>2016-01-15T22:22:51.810Z</time>
</trkpt>
<trkpt lat="-27.6406292" lon="153.1413313">
<ele>11.182</ele>
<time>2016-01-15T22:22:54.820Z</time>
</trkpt>
<trkpt lat="-27.6410155" lon="153.1418289">
<ele>11.667</ele>
<time>2016-01-15T22:22:57.782Z</time>
</trkpt>
<trkpt lat="-27.6412304" lon="153.1421330">
<ele>11.509</ele>
<time>2016-01-15T22:22:59.749Z</time>
</trkpt>
<trkpt lat="-27.6414847" lon="153.1425720">
<ele>10.245</ele>
<time>2016-01-15T22:23:02.631Z</time>
</trkpt>
<trkpt lat="-27.6416730" lon="153.1428405">
<ele>8.614</ele>
<time>2016-01-15T22:23:04.637Z</time>
</trkpt>
<trkpt lat="-27.6419303" lon="153.1432114">
<ele>7.749</ele>
<time>2016-01-15T22:23:07.497Z</time>
</trkpt>
<trkpt lat="-27.6421687" lon="153.1436192">
<ele>8.012</ele>
<time>2016-01-15T22:23:10.510Z</time>
</trkpt>
<trkpt lat="-27.6424079" lon="153.1440503">
<ele>9.528</ele>
<time>2016-01-15T22:23:13.494Z</time>
</trkpt>
<trkpt lat="-27.6425759" lon="153.1443573">
<ele>12.186</ele>
<time>2016-01-15T22:23:15.542Z</time>
</trkpt>
<trkpt lat="-27.6427516" lon="153.1446536">
<ele>14.966</ele>
<time>2016-01-15T22:23:17.583Z</time>
</trkpt>
<trkpt lat="-27.6431392" lon="153.1452224">
<ele>17.091</ele>
<time>2016-01-15T22:23:21.638Z</time>
</trkpt>
<trkpt lat="-27.6433529" lon="153.1455145">
<ele>18.896</ele>
<time>2016-01-15T22:23:23.679Z</time>
</trkpt>
<trkpt lat="-27.6435769" lon="153.1457982">
<ele>21.180</ele>
<time>2016-01-15T22:23:25.686Z</time>
</trkpt>
<trkpt lat="-27.6439226" lon="153.1462492">
<ele>23.251</ele>
<time>2016-01-15T22:23:28.833Z</time>
</trkpt>
<trkpt lat="-27.6441041" lon="153.1465169">
<ele>23.792</ele>
<time>2016-01-15T22:23:30.730Z</time>
</trkpt>
<trkpt lat="-27.6442655" lon="153.1467779">
<ele>23.104</ele>
<time>2016-01-15T22:23:32.755Z</time>
</trkpt>
<trkpt lat="-27.6443591" lon="153.1469999">
<ele>21.734</ele>
<time>2016-01-15T22:23:34.602Z</time>
</trkpt>
<trkpt lat="-27.6443712" lon="153.1473104">
<ele>19.618</ele>
<time>2016-01-15T22:23:37.380Z</time>
</trkpt>
<trkpt lat="-27.6442733" lon="153.1474812">
<ele>17.636</ele>
<time>2016-01-15T22:23:39.489Z</time>
</trkpt>
<trkpt lat="-27.6440801" lon="153.1475726">
<ele>16.553</ele>
<time>2016-01-15T22:23:42.050Z</time>
</trkpt>
<trkpt lat="-27.6438830" lon="153.1474888">
<ele>16.235</ele>
<time>2016-01-15T22:23:44.745Z</time>
</trkpt>
<trkpt lat="-27.6437836" lon="153.1472058">
<ele>16.423</ele>
<time>2016-01-15T22:23:47.758Z</time>
</trkpt>
<trkpt lat="-27.6437035" lon="153.1467557">
<ele>17.065</ele>
<time>2016-01-15T22:23:51.288Z</time>
</trkpt>
<trkpt lat="-27.6436254" lon="153.1464838">
<ele>18.527</ele>
<time>2016-01-15T22:23:53.532Z</time>
</trkpt>
<trkpt lat="-27.6435836" lon="153.1463307">
<ele>20.621</ele>
<time>2016-01-15T22:23:55.207Z</time>
</trkpt>
<trkpt lat="-27.6435317" lon="153.1460874">
<ele>22.235</ele>
<time>2016-01-15T22:23:58.510Z</time>
</trkpt>
<trkpt lat="-27.6435470" lon="153.1459682">
<ele>22.495</ele>
<time>2016-01-15T22:24:00.291Z</time>
</trkpt>
<trkpt lat="-27.6437077" lon="153.1458163">
<ele>21.684</ele>
<time>2016-01-15T22:24:03.706Z</time>
</trkpt>
<trkpt lat="-27.6438675" lon="153.1457101">
<ele>20.872</ele>
<time>2016-01-15T22:24:07.373Z</time>
</trkpt>
<trkpt lat="-27.6439658" lon="153.1456418">
<ele>20.772</ele>
<time>2016-01-15T22:24:11.011Z</time>
</trkpt>
<trkpt lat="-27.6440527" lon="153.1455842">
<ele>21.084</ele>
<time>2016-01-15T22:24:14.470Z</time>
</trkpt>
<trkpt lat="-27.6441322" lon="153.1455201">
<ele>21.169</ele>
<time>2016-01-15T22:24:16.733Z</time>
</trkpt>
<trkpt lat="-27.6442306" lon="153.1454430">
<ele>20.824</ele>
<time>2016-01-15T22:24:18.481Z</time>
</trkpt>
<trkpt lat="-27.6443506" lon="153.1453371">
<ele>20.513</ele>
<time>2016-01-15T22:24:20.196Z</time>
</trkpt>
<trkpt lat="-27.6445518" lon="153.1451643">
<ele>20.627</ele>
<time>2016-01-15T22:24:22.504Z</time>
</trkpt>
<trkpt lat="-27.6448343" lon="153.1449139">
<ele>20.928</ele>
<time>2016-01-15T22:24:25.451Z</time>
</trkpt>
<trkpt lat="-27.6449933" lon="153.1447800">
<ele>21.069</ele>
<time>2016-01-15T22:24:26.954Z</time>
</trkpt>
<trkpt lat="-27.6454110" lon="153.1444805">
<ele>20.901</ele>
<time>2016-01-15T22:24:30.539Z</time>
</trkpt>
<trkpt lat="-27.6456798" lon="153.1443387">
<ele>20.329</ele>
<time>2016-01-15T22:24:32.584Z</time>
</trkpt>
<trkpt lat="-27.6459474" lon="153.1442494">
<ele>18.994</ele>
<time>2016-01-15T22:24:34.397Z</time>
</trkpt>
<trkpt lat="-27.6464308" lon="153.1441557">
<ele>16.775</ele>
<time>2016-01-15T22:24:37.457Z</time>
</trkpt>
<trkpt lat="-27.6467590" lon="153.1440894">
<ele>14.114</ele>
<time>2016-01-15T22:24:39.530Z</time>
</trkpt>
<trkpt lat="-27.6470541" lon="153.1440411">
<ele>11.300</ele>
<time>2016-01-15T22:24:41.539Z</time>
</trkpt>
<trkpt lat="-27.6473034" lon="153.1439924">
<ele>8.589</ele>
<time>2016-01-15T22:24:43.315Z</time>
</trkpt>
<trkpt lat="-27.6476960" lon="153.1439525">
<ele>6.526</ele>
<time>2016-01-15T22:24:46.203Z</time>
</trkpt>
<trkpt lat="-27.6479968" lon="153.1439793">
<ele>5.318</ele>
<time>2016-01-15T22:24:48.328Z</time>
</trkpt>
<trkpt lat="-27.6484228" lon="153.1440627">
<ele>4.950</ele>
<time>2016-01-15T22:24:51.260Z</time>
</trkpt>
<trkpt lat="-27.6487240" lon="153.1441403">
<ele>5.441</ele>
<time>2016-01-15T22:24:53.300Z</time>
</trkpt>
<trkpt lat="-27.6490107" lon="153.1442315">
<ele>6.418</ele>
<time>2016-01-15T22:24:55.263Z</time>
</trkpt>
<trkpt lat="-27.6493146" lon="153.1443281">
<ele>7.196</ele>
<time>2016-01-15T22:24:57.322Z</time>
</trkpt>
<trkpt lat="-27.6495923" lon="153.1444229">
<ele>7.453</ele>
<time>2016-01-15T22:24:59.160Z</time>
</trkpt>
<trkpt lat="-27.6500576" lon="153.1445740">
<ele>7.562</ele>
<time>2016-01-15T22:25:02.154Z</time>
</trkpt>
<trkpt lat="-27.6505229" lon="153.1447248">
<ele>7.876</ele>
<time>2016-01-15T22:25:05.082Z</time>
</trkpt>
<trkpt lat="-27.6508512" lon="153.1448373">
<ele>8.130</ele>
<time>2016-01-15T22:25:07.137Z</time>
</trkpt>
<trkpt lat="-27.6513220" lon="153.1450181">
<ele>8.018</ele>
<time>2016-01-15T22:25:10.096Z</time>
</trkpt>
<trkpt lat="-27.6516517" lon="153.1451276">
<ele>7.727</ele>
<time>2016-01-15T22:25:12.112Z</time>
</trkpt>
<trkpt lat="-27.6521548" lon="153.1452969">
<ele>7.462</ele>
<time>2016-01-15T22:25:15.225Z</time>
</trkpt>
<trkpt lat="-27.6526226" lon="153.1454674">
<ele>7.098</ele>
<time>2016-01-15T22:25:18.325Z</time>
</trkpt>
<trkpt lat="-27.6528738" lon="153.1455538">
<ele>6.480</ele>
<time>2016-01-15T22:25:20.120Z</time>
</trkpt>
<trkpt lat="-27.6533077" lon="153.1456709">
<ele>5.641</ele>
<time>2016-01-15T22:25:23.223Z</time>
</trkpt>
<trkpt lat="-27.6536034" lon="153.1457110">
<ele>4.819</ele>
<time>2016-01-15T22:25:25.261Z</time>
</trkpt>
<trkpt lat="-27.6542715" lon="153.1456492">
<ele>4.457</ele>
<time>2016-01-15T22:25:29.425Z</time>
</trkpt>
<trkpt lat="-27.6547464" lon="153.1454701">
<ele>5.054</ele>
<time>2016-01-15T22:25:32.436Z</time>
</trkpt>
<trkpt lat="-27.6551763" lon="153.1451955">
<ele>6.388</ele>
<time>2016-01-15T22:25:35.412Z</time>
</trkpt>
<trkpt lat="-27.6554415" lon="153.1449493">
<ele>7.652</ele>
<time>2016-01-15T22:25:37.398Z</time>
</trkpt>
<trkpt lat="-27.6558024" lon="153.1445100">
<ele>8.426</ele>
<time>2016-01-15T22:25:40.404Z</time>
</trkpt>
<trkpt lat="-27.6560264" lon="153.1441955">
<ele>8.788</ele>
<time>2016-01-15T22:25:42.419Z</time>
</trkpt>
<trkpt lat="-27.6563612" lon="153.1437356">
<ele>8.769</ele>
<time>2016-01-15T22:25:45.414Z</time>
</trkpt>
<trkpt lat="-27.6567270" lon="153.1433144">
<ele>8.358</ele>
<time>2016-01-15T22:25:48.374Z</time>
</trkpt>
<trkpt lat="-27.6570117" lon="153.1430716">
<ele>7.741</ele>
<time>2016-01-15T22:25:50.371Z</time>
</trkpt>
<trkpt lat="-27.6571579" lon="153.1429567">
<ele>7.458</ele>
<time>2016-01-15T22:25:51.366Z</time>
</trkpt>
<trkpt lat="-27.6577816" lon="153.1425373">
<ele>7.756</ele>
<time>2016-01-15T22:25:55.351Z</time>
</trkpt>
<trkpt lat="-27.6581114" lon="153.1422904">
<ele>8.241</ele>
<time>2016-01-15T22:25:57.401Z</time>
</trkpt>
<trkpt lat="-27.6584361" lon="153.1420393">
<ele>8.722</ele>
<time>2016-01-15T22:25:59.417Z</time>
</trkpt>
<trkpt lat="-27.6587481" lon="153.1417817">
<ele>9.448</ele>
<time>2016-01-15T22:26:01.451Z</time>
</trkpt>
<trkpt lat="-27.6590437" lon="153.1415570">
<ele>10.306</ele>
<time>2016-01-15T22:26:03.427Z</time>
</trkpt>
<trkpt lat="-27.6594753" lon="153.1412535">
<ele>10.878</ele>
<time>2016-01-15T22:26:06.366Z</time>
</trkpt>
<trkpt lat="-27.6597671" lon="153.1410883">
<ele>10.898</ele>
<time>2016-01-15T22:26:08.375Z</time>
</trkpt>
<trkpt lat="-27.6602056" lon="153.1409083">
<ele>10.295</ele>
<time>2016-01-15T22:26:11.327Z</time>
</trkpt>
<trkpt lat="-27.6605158" lon="153.1408315">
<ele>9.544</ele>
<time>2016-01-15T22:26:13.361Z</time>
</trkpt>
<trkpt lat="-27.6609780" lon="153.1407483">
<ele>8.908</ele>
<time>2016-01-15T22:26:16.399Z</time>
</trkpt>
<trkpt lat="-27.6614073" lon="153.1406793">
<ele>8.105</ele>
<time>2016-01-15T22:26:19.297Z</time>
</trkpt>
<trkpt lat="-27.6616824" lon="153.1406273">
<ele>7.139</ele>
<time>2016-01-15T22:26:21.194Z</time>
</trkpt>
<trkpt lat="-27.6620969" lon="153.1405570">
<ele>6.323</ele>
<time>2016-01-15T22:26:24.081Z</time>
</trkpt>
<trkpt lat="-27.6623508" lon="153.1405026">
<ele>5.843</ele>
<time>2016-01-15T22:26:25.953Z</time>
</trkpt>
<trkpt lat="-27.6626170" lon="153.1404563">
<ele>5.770</ele>
<time>2016-01-15T22:26:28.018Z</time>
</trkpt>
<trkpt lat="-27.6628792" lon="153.1404166">
<ele>5.742</ele>
<time>2016-01-15T22:26:30.101Z</time>
</trkpt>
<trkpt lat="-27.6632646" lon="153.1403437">
<ele>5.485</ele>
<time>2016-01-15T22:26:33.215Z</time>
</trkpt>
<trkpt lat="-27.6636036" lon="153.1402770">
<ele>5.210</ele>
<time>2016-01-15T22:26:36.010Z</time>
</trkpt>
<trkpt lat="-27.6638626" lon="153.1402439">
<ele>5.193</ele>
<time>2016-01-15T22:26:38.065Z</time>
</trkpt>
<trkpt lat="-27.6641424" lon="153.1402147">
<ele>5.403</ele>
<time>2016-01-15T22:26:40.209Z</time>
</trkpt>
<trkpt lat="-27.6645005" lon="153.1401649">
<ele>5.744</ele>
<time>2016-01-15T22:26:42.945Z</time>
</trkpt>
<trkpt lat="-27.6648945" lon="153.1400934">
<ele>6.143</ele>
<time>2016-01-15T22:26:45.954Z</time>
</trkpt>
<trkpt lat="-27.6651758" lon="153.1400410">
<ele>6.638</ele>
<time>2016-01-15T22:26:47.977Z</time>
</trkpt>
<trkpt lat="-27.6656766" lon="153.1399381">
<ele>7.451</ele>
<time>2016-01-15T22:26:51.359Z</time>
</trkpt>
<trkpt lat="-27.6659972" lon="153.1398633">
<ele>8.491</ele>
<time>2016-01-15T22:26:53.533Z</time>
</trkpt>
<trkpt lat="-27.6664005" lon="153.1397764">
<ele>9.145</ele>
<time>2016-01-15T22:26:56.669Z</time>
</trkpt>
<trkpt lat="-27.6666806" lon="153.1397277">
<ele>9.036</ele>
<time>2016-01-15T22:26:59.708Z</time>
</trkpt>
<trkpt lat="-27.6668713" lon="153.1396997">
<ele>7.810</ele>
<time>2016-01-15T22:27:02.970Z</time>
</trkpt>
<trkpt lat="-27.6669761" lon="153.1396783">
<ele>5.495</ele>
<time>2016-01-15T22:27:05.948Z</time>
</trkpt>
<trkpt lat="-27.6671203" lon="153.1396411">
<ele>3.245</ele>
<time>2016-01-15T22:27:10.999Z</time>
</trkpt>
<trkpt lat="-27.6671203" lon="153.1396411">
<ele>2.078</ele>
<time>2016-01-15T22:27:15.999Z</time>
</trkpt>
<trkpt lat="-27.6671203" lon="153.1396411">
<ele>1.795</ele>
<time>2016-01-15T22:27:37.987Z</time>
</trkpt>
<trkpt lat="-27.6673479" lon="153.1396013">
<ele>2.043</ele>
<time>2016-01-15T22:27:43.496Z</time>
</trkpt>
<trkpt lat="-27.6676218" lon="153.1396289">
<ele>2.993</ele>
<time>2016-01-15T22:27:46.521Z</time>
</trkpt>
<trkpt lat="-27.6679017" lon="153.1395202">
<ele>4.717</ele>
<time>2016-01-15T22:27:49.183Z</time>
</trkpt>
<trkpt lat="-27.6682144" lon="153.1394548">
<ele>6.720</ele>
<time>2016-01-15T22:27:51.873Z</time>
</trkpt>
<trkpt lat="-27.6685380" lon="153.1394016">
<ele>8.376</ele>
<time>2016-01-15T22:27:54.620Z</time>
</trkpt>
<trkpt lat="-27.6688066" lon="153.1393642">
<ele>9.217</ele>
<time>2016-01-15T22:27:56.793Z</time>
</trkpt>
<trkpt lat="-27.6690758" lon="153.1393191">
<ele>9.224</ele>
<time>2016-01-15T22:27:58.854Z</time>
</trkpt>
<trkpt lat="-27.6694626" lon="153.1392359">
<ele>9.050</ele>
<time>2016-01-15T22:28:01.702Z</time>
</trkpt>
<trkpt lat="-27.6697428" lon="153.1391871">
<ele>9.473</ele>
<time>2016-01-15T22:28:03.625Z</time>
</trkpt>
<trkpt lat="-27.6701893" lon="153.1391107">
<ele>10.587</ele>
<time>2016-01-15T22:28:06.671Z</time>
</trkpt>
<trkpt lat="-27.6704612" lon="153.1390691">
<ele>12.001</ele>
<time>2016-01-15T22:28:08.566Z</time>
</trkpt>
<trkpt lat="-27.6708715" lon="153.1389539">
<ele>13.591</ele>
<time>2016-01-15T22:28:11.529Z</time>
</trkpt>
<trkpt lat="-27.6711464" lon="153.1388868">
<ele>15.478</ele>
<time>2016-01-15T22:28:13.549Z</time>
</trkpt>
<trkpt lat="-27.6714186" lon="153.1388196">
<ele>17.449</ele>
<time>2016-01-15T22:28:15.572Z</time>
</trkpt>
<trkpt lat="-27.6718209" lon="153.1387375">
<ele>18.953</ele>
<time>2016-01-15T22:28:18.509Z</time>
</trkpt>
<trkpt lat="-27.6721030" lon="153.1386891">
<ele>19.483</ele>
<time>2016-01-15T22:28:20.498Z</time>
</trkpt>
<trkpt lat="-27.6723917" lon="153.1386440">
<ele>18.919</ele>
<time>2016-01-15T22:28:22.505Z</time>
</trkpt>
<trkpt lat="-27.6728253" lon="153.1385708">
<ele>17.603</ele>
<time>2016-01-15T22:28:25.514Z</time>
</trkpt>
<trkpt lat="-27.6731220" lon="153.1385174">
<ele>15.806</ele>
<time>2016-01-15T22:28:27.580Z</time>
</trkpt>
<trkpt lat="-27.6735558" lon="153.1384385">
<ele>13.555</ele>
<time>2016-01-15T22:28:30.598Z</time>
</trkpt>
<trkpt lat="-27.6740066" lon="153.1384148">
<ele>11.203</ele>
<time>2016-01-15T22:28:33.656Z</time>
</trkpt>
<trkpt lat="-27.6743147" lon="153.1384123">
<ele>9.398</ele>
<time>2016-01-15T22:28:35.714Z</time>
</trkpt>
<trkpt lat="-27.6746193" lon="153.1383748">
<ele>8.430</ele>
<time>2016-01-15T22:28:37.768Z</time>
</trkpt>
<trkpt lat="-27.6750536" lon="153.1383370">
<ele>8.175</ele>
<time>2016-01-15T22:28:40.694Z</time>
</trkpt>
<trkpt lat="-27.6753317" lon="153.1382887">
<ele>8.458</ele>
<time>2016-01-15T22:28:42.631Z</time>
</trkpt>
<trkpt lat="-27.6757724" lon="153.1382147">
<ele>9.270</ele>
<time>2016-01-15T22:28:45.757Z</time>
</trkpt>
<trkpt lat="-27.6760589" lon="153.1381670">
<ele>10.298</ele>
<time>2016-01-15T22:28:47.810Z</time>
</trkpt>
<trkpt lat="-27.6762049" lon="153.1381427">
<ele>10.984</ele>
<time>2016-01-15T22:28:48.851Z</time>
</trkpt>
<trkpt lat="-27.6767790" lon="153.1380487">
<ele>11.072</ele>
<time>2016-01-15T22:28:52.874Z</time>
</trkpt>
<trkpt lat="-27.6770874" lon="153.1379973">
<ele>10.829</ele>
<time>2016-01-15T22:28:54.879Z</time>
</trkpt>
<trkpt lat="-27.6774107" lon="153.1379423">
<ele>10.550</ele>
<time>2016-01-15T22:28:56.876Z</time>
</trkpt>
<trkpt lat="-27.6779050" lon="153.1378562">
<ele>10.282</ele>
<time>2016-01-15T22:28:59.861Z</time>
</trkpt>
<trkpt lat="-27.6782415" lon="153.1377969">
<ele>9.861</ele>
<time>2016-01-15T22:29:01.931Z</time>
</trkpt>
<trkpt lat="-27.6786765" lon="153.1377284">
<ele>9.245</ele>
<time>2016-01-15T22:29:04.700Z</time>
</trkpt>
<trkpt lat="-27.6789799" lon="153.1376753">
<ele>8.874</ele>
<time>2016-01-15T22:29:06.728Z</time>
</trkpt>
<trkpt lat="-27.6792777" lon="153.1376249">
<ele>9.096</ele>
<time>2016-01-15T22:29:08.733Z</time>
</trkpt>
<trkpt lat="-27.6797365" lon="153.1375476">
<ele>9.544</ele>
<time>2016-01-15T22:29:11.737Z</time>
</trkpt>
<trkpt lat="-27.6802165" lon="153.1374677">
<ele>9.946</ele>
<time>2016-01-15T22:29:14.718Z</time>
</trkpt>
<trkpt lat="-27.6805495" lon="153.1374137">
<ele>10.863</ele>
<time>2016-01-15T22:29:16.623Z</time>
</trkpt>
<trkpt lat="-27.6810826" lon="153.1373296">
<ele>12.648</ele>
<time>2016-01-15T22:29:19.539Z</time>
</trkpt>
<trkpt lat="-27.6814630" lon="153.1372697">
<ele>14.504</ele>
<time>2016-01-15T22:29:21.629Z</time>
</trkpt>
<trkpt lat="-27.6816916" lon="153.1372321">
<ele>15.233</ele>
<time>2016-01-15T22:29:22.990Z</time>
</trkpt>
<trkpt lat="-27.6821741" lon="153.1371987">
<ele>14.640</ele>
<time>2016-01-15T22:29:25.885Z</time>
</trkpt>
<trkpt lat="-27.6827057" lon="153.1372079">
<ele>13.519</ele>
<time>2016-01-15T22:29:28.904Z</time>
</trkpt>
<trkpt lat="-27.6831026" lon="153.1372884">
<ele>12.458</ele>
<time>2016-01-15T22:29:30.993Z</time>
</trkpt>
<trkpt lat="-27.6836828" lon="153.1374723">
<ele>11.483</ele>
<time>2016-01-15T22:29:34.034Z</time>
</trkpt>
<trkpt lat="-27.6841928" lon="153.1375672">
<ele>10.763</ele>
<time>2016-01-15T22:29:36.701Z</time>
</trkpt>
<trkpt lat="-27.6844553" lon="153.1375431">
<ele>10.602</ele>
<time>2016-01-15T22:29:38.158Z</time>
</trkpt>
<trkpt lat="-27.6847786" lon="153.1375180">
<ele>10.983</ele>
<time>2016-01-15T22:29:40.098Z</time>
</trkpt>
<trkpt lat="-27.6851084" lon="153.1374662">
<ele>11.481</ele>
<time>2016-01-15T22:29:42.098Z</time>
</trkpt>
<trkpt lat="-27.6855925" lon="153.1373853">
<ele>11.714</ele>
<time>2016-01-15T22:29:45.036Z</time>
</trkpt>
<trkpt lat="-27.6859179" lon="153.1373258">
<ele>11.687</ele>
<time>2016-01-15T22:29:47.040Z</time>
</trkpt>
<trkpt lat="-27.6862507" lon="153.1372715">
<ele>11.480</ele>
<time>2016-01-15T22:29:49.062Z</time>
</trkpt>
<trkpt lat="-27.6865588" lon="153.1372293">
<ele>11.131</ele>
<time>2016-01-15T22:29:50.945Z</time>
</trkpt>
<trkpt lat="-27.6868492" lon="153.1371887">
<ele>10.569</ele>
<time>2016-01-15T22:29:52.808Z</time>
</trkpt>
<trkpt lat="-27.6872905" lon="153.1371472">
<ele>9.829</ele>
<time>2016-01-15T22:29:55.765Z</time>
</trkpt>
<trkpt lat="-27.6877291" lon="153.1370256">
<ele>8.987</ele>
<time>2016-01-15T22:29:58.856Z</time>
</trkpt>
<trkpt lat="-27.6881557" lon="153.1369199">
<ele>8.214</ele>
<time>2016-01-15T22:30:01.843Z</time>
</trkpt>
<trkpt lat="-27.6884410" lon="153.1368505">
<ele>7.812</ele>
<time>2016-01-15T22:30:03.845Z</time>
</trkpt>
<trkpt lat="-27.6885785" lon="153.1368165">
<ele>7.826</ele>
<time>2016-01-15T22:30:04.853Z</time>
</trkpt>
<trkpt lat="-27.6890658" lon="153.1367418">
<ele>7.949</ele>
<time>2016-01-15T22:30:08.675Z</time>
</trkpt>
<trkpt lat="-27.6893580" lon="153.1366986">
<ele>7.965</ele>
<time>2016-01-15T22:30:11.394Z</time>
</trkpt>
<trkpt lat="-27.6896219" lon="153.1366632">
<ele>7.584</ele>
<time>2016-01-15T22:30:14.151Z</time>
</trkpt>
<trkpt lat="-27.6898180" lon="153.1366360">
<ele>6.792</ele>
<time>2016-01-15T22:30:16.219Z</time>
</trkpt>
<trkpt lat="-27.6901611" lon="153.1365769">
<ele>6.053</ele>
<time>2016-01-15T22:30:19.545Z</time>
</trkpt>
<trkpt lat="-27.6903464" lon="153.1365450">
<ele>5.710</ele>
<time>2016-01-15T22:30:21.283Z</time>
</trkpt>
<trkpt lat="-27.6906822" lon="153.1364978">
<ele>5.704</ele>
<time>2016-01-15T22:30:24.500Z</time>
</trkpt>
<trkpt lat="-27.6908660" lon="153.1364889">
<ele>5.712</ele>
<time>2016-01-15T22:30:26.370Z</time>
</trkpt>
<trkpt lat="-27.6910203" lon="153.1364725">
<ele>5.317</ele>
<time>2016-01-15T22:30:28.127Z</time>
</trkpt>
<trkpt lat="-27.6912492" lon="153.1364313">
<ele>4.463</ele>
<time>2016-01-15T22:30:31.074Z</time>
</trkpt>
<trkpt lat="-27.6913943" lon="153.1364043">
<ele>3.497</ele>
<time>2016-01-15T22:30:33.035Z</time>
</trkpt>
<trkpt lat="-27.6915692" lon="153.1363785">
<ele>2.745</ele>
<time>2016-01-15T22:30:35.638Z</time>
</trkpt>
<trkpt lat="-27.6918117" lon="153.1363692">
<ele>2.365</ele>
<time>2016-01-15T22:30:39.559Z</time>
</trkpt>
<trkpt lat="-27.6919793" lon="153.1365408">
<ele>2.393</ele>
<time>2016-01-15T22:30:43.122Z</time>
</trkpt>
<trkpt lat="-27.6920916" lon="153.1368869">
<ele>2.778</ele>
<time>2016-01-15T22:30:47.014Z</time>
</trkpt>
<trkpt lat="-27.6922147" lon="153.1374599">
<ele>3.862</ele>
<time>2016-01-15T22:30:50.760Z</time>
</trkpt>
<trkpt lat="-27.6923253" lon="153.1378618">
<ele>6.618</ele>
<time>2016-01-15T22:30:52.972Z</time>
</trkpt>
<trkpt lat="-27.6923832" lon="153.1380755">
<ele>10.643</ele>
<time>2016-01-15T22:30:54.096Z</time>
</trkpt>
<trkpt lat="-27.6925821" lon="153.1388024">
<ele>13.589</ele>
<time>2016-01-15T22:30:58.054Z</time>
</trkpt>
<trkpt lat="-27.6926706" lon="153.1391242">
<ele>14.013</ele>
<time>2016-01-15T22:30:59.973Z</time>
</trkpt>
<trkpt lat="-27.6927616" lon="153.1394581">
<ele>12.810</ele>
<time>2016-01-15T22:31:02.039Z</time>
</trkpt>
<trkpt lat="-27.6928431" lon="153.1397592">
<ele>11.520</ele>
<time>2016-01-15T22:31:03.959Z</time>
</trkpt>
<trkpt lat="-27.6929268" lon="153.1400603">
<ele>10.875</ele>
<time>2016-01-15T22:31:05.946Z</time>
</trkpt>
<trkpt lat="-27.6930741" lon="153.1404878">
<ele>10.685</ele>
<time>2016-01-15T22:31:08.936Z</time>
</trkpt>
<trkpt lat="-27.6931521" lon="153.1407621">
<ele>10.561</ele>
<time>2016-01-15T22:31:11.076Z</time>
</trkpt>
<trkpt lat="-27.6932229" lon="153.1410653">
<ele>10.232</ele>
<time>2016-01-15T22:31:14.005Z</time>
</trkpt>
<trkpt lat="-27.6932655" lon="153.1412544">
<ele>9.567</ele>
<time>2016-01-15T22:31:16.705Z</time>
</trkpt>
<trkpt lat="-27.6932910" lon="153.1413816">
<ele>8.742</ele>
<time>2016-01-15T22:31:19.346Z</time>
</trkpt>
<trkpt lat="-27.6933117" lon="153.1415098">
<ele>8.247</ele>
<time>2016-01-15T22:31:23.000Z</time>
</trkpt>
<trkpt lat="-27.6933117" lon="153.1415098">
<ele>8.276</ele>
<time>2016-01-15T22:31:27.000Z</time>
</trkpt>
<trkpt lat="-27.6933117" lon="153.1415098">
<ele>8.463</ele>
<time>2016-01-15T22:31:36.060Z</time>
</trkpt>
<trkpt lat="-27.6933403" lon="153.1417604">
<ele>8.476</ele>
<time>2016-01-15T22:31:41.753Z</time>
</trkpt>
<trkpt lat="-27.6934575" lon="153.1419424">
<ele>9.204</ele>
<time>2016-01-15T22:31:44.897Z</time>
</trkpt>
<trkpt lat="-27.6935887" lon="153.1419394">
<ele>11.318</ele>
<time>2016-01-15T22:31:46.671Z</time>
</trkpt>
<trkpt lat="-27.6937523" lon="153.1419450">
<ele>13.583</ele>
<time>2016-01-15T22:31:48.414Z</time>
</trkpt>
<trkpt lat="-27.6940260" lon="153.1421238">
<ele>14.796</ele>
<time>2016-01-15T22:31:51.305Z</time>
</trkpt>
<trkpt lat="-27.6942211" lon="153.1423110">
<ele>15.415</ele>
<time>2016-01-15T22:31:53.310Z</time>
</trkpt>
<trkpt lat="-27.6945481" lon="153.1426129">
<ele>16.026</ele>
<time>2016-01-15T22:31:56.230Z</time>
</trkpt>
<trkpt lat="-27.6947723" lon="153.1428275">
<ele>16.723</ele>
<time>2016-01-15T22:31:58.205Z</time>
</trkpt>
<trkpt lat="-27.6949853" lon="153.1430311">
<ele>17.506</ele>
<time>2016-01-15T22:32:00.182Z</time>
</trkpt>
<trkpt lat="-27.6952759" lon="153.1433111">
<ele>18.404</ele>
<time>2016-01-15T22:32:03.189Z</time>
</trkpt>
<trkpt lat="-27.6954159" lon="153.1434587">
<ele>19.209</ele>
<time>2016-01-15T22:32:05.248Z</time>
</trkpt>
<trkpt lat="-27.6955649" lon="153.1436052">
<ele>19.297</ele>
<time>2016-01-15T22:32:08.097Z</time>
</trkpt>
<trkpt lat="-27.6956668" lon="153.1436942">
<ele>18.149</ele>
<time>2016-01-15T22:32:10.824Z</time>
</trkpt>
<trkpt lat="-27.6957433" lon="153.1437560">
<ele>16.355</ele>
<time>2016-01-15T22:32:13.582Z</time>
</trkpt>
<trkpt lat="-27.6958128" lon="153.1438247">
<ele>15.025</ele>
<time>2016-01-15T22:32:17.000Z</time>
</trkpt>
<trkpt lat="-27.6958128" lon="153.1438247">
<ele>14.489</ele>
<time>2016-01-15T22:32:22.000Z</time>
</trkpt>
<trkpt lat="-27.6958128" lon="153.1438247">
<ele>14.411</ele>
<time>2016-01-15T22:37:13.238Z</time>
</trkpt>
<trkpt lat="-27.6959912" lon="153.1439419">
<ele>14.525</ele>
<time>2016-01-15T22:37:20.005Z</time>
</trkpt>
<trkpt lat="-27.6961332" lon="153.1440731">
<ele>14.744</ele>
<time>2016-01-15T22:37:23.141Z</time>
</trkpt>
<trkpt lat="-27.6962682" lon="153.1441964">
<ele>15.153</ele>
<time>2016-01-15T22:37:25.470Z</time>
</trkpt>
<trkpt lat="-27.6964327" lon="153.1443356">
<ele>15.790</ele>
<time>2016-01-15T22:37:27.468Z</time>
</trkpt>
<trkpt lat="-27.6967116" lon="153.1446066">
<ele>16.847</ele>
<time>2016-01-15T22:37:30.528Z</time>
</trkpt>
<trkpt lat="-27.6970871" lon="153.1449563">
<ele>18.776</ele>
<time>2016-01-15T22:37:33.985Z</time>
</trkpt>
<trkpt lat="-27.6974535" lon="153.1453051">
<ele>21.326</ele>
<time>2016-01-15T22:37:37.034Z</time>
</trkpt>
<trkpt lat="-27.6976958" lon="153.1455371">
<ele>23.361</ele>
<time>2016-01-15T22:37:39.042Z</time>
</trkpt>
<trkpt lat="-27.6980491" lon="153.1458757">
<ele>24.287</ele>
<time>2016-01-15T22:37:42.060Z</time>
</trkpt>
<trkpt lat="-27.6982708" lon="153.1460877">
<ele>23.977</ele>
<time>2016-01-15T22:37:43.966Z</time>
</trkpt>
<trkpt lat="-27.6984935" lon="153.1462999">
<ele>22.679</ele>
<time>2016-01-15T22:37:45.804Z</time>
</trkpt>
<trkpt lat="-27.6987484" lon="153.1465561">
<ele>21.441</ele>
<time>2016-01-15T22:37:47.923Z</time>
</trkpt>
<trkpt lat="-27.6991082" lon="153.1469355">
<ele>21.077</ele>
<time>2016-01-15T22:37:50.983Z</time>
</trkpt>
<trkpt lat="-27.6993681" lon="153.1471665">
<ele>21.319</ele>
<time>2016-01-15T22:37:53.006Z</time>
</trkpt>
<trkpt lat="-27.6998063" lon="153.1474550">
<ele>21.602</ele>
<time>2016-01-15T22:37:56.102Z</time>
</trkpt>
<trkpt lat="-27.6999599" lon="153.1475359">
<ele>21.634</ele>
<time>2016-01-15T22:37:57.117Z</time>
</trkpt>
<trkpt lat="-27.7006226" lon="153.1477672">
<ele>21.486</ele>
<time>2016-01-15T22:38:01.152Z</time>
</trkpt>
<trkpt lat="-27.7009799" lon="153.1478292">
<ele>21.407</ele>
<time>2016-01-15T22:38:03.123Z</time>
</trkpt>
<trkpt lat="-27.7015382" lon="153.1478581">
<ele>21.531</ele>
<time>2016-01-15T22:38:06.126Z</time>
</trkpt>
<trkpt lat="-27.7019166" lon="153.1478233">
<ele>22.049</ele>
<time>2016-01-15T22:38:08.138Z</time>
</trkpt>
<trkpt lat="-27.7022764" lon="153.1477781">
<ele>22.978</ele>
<time>2016-01-15T22:38:10.022Z</time>
</trkpt>
<trkpt lat="-27.7028468" lon="153.1476752">
<ele>23.859</ele>
<time>2016-01-15T22:38:13.001Z</time>
</trkpt>
<trkpt lat="-27.7032395" lon="153.1476213">
<ele>24.316</ele>
<time>2016-01-15T22:38:15.007Z</time>
</trkpt>
<trkpt lat="-27.7038329" lon="153.1475523">
<ele>24.626</ele>
<time>2016-01-15T22:38:18.006Z</time>
</trkpt>
<trkpt lat="-27.7042111" lon="153.1474770">
<ele>25.168</ele>
<time>2016-01-15T22:38:19.925Z</time>
</trkpt>
<trkpt lat="-27.7046035" lon="153.1474198">
<ele>25.892</ele>
<time>2016-01-15T22:38:21.868Z</time>
</trkpt>
<trkpt lat="-27.7052265" lon="153.1473383">
<ele>26.545</ele>
<time>2016-01-15T22:38:24.929Z</time>
</trkpt>
<trkpt lat="-27.7056201" lon="153.1472846">
<ele>27.100</ele>
<time>2016-01-15T22:38:26.875Z</time>
</trkpt>
<trkpt lat="-27.7060157" lon="153.1472294">
<ele>27.474</ele>
<time>2016-01-15T22:38:28.831Z</time>
</trkpt>
<trkpt lat="-27.7066113" lon="153.1471274">
<ele>27.605</ele>
<time>2016-01-15T22:38:31.826Z</time>
</trkpt>
<trkpt lat="-27.7070070" lon="153.1470261">
<ele>27.330</ele>
<time>2016-01-15T22:38:33.946Z</time>
</trkpt>
<trkpt lat="-27.7075097" lon="153.1467671">
<ele>26.326</ele>
<time>2016-01-15T22:38:36.898Z</time>
</trkpt>
<trkpt lat="-27.7078073" lon="153.1465449">
<ele>24.734</ele>
<time>2016-01-15T22:38:38.805Z</time>
</trkpt>
<trkpt lat="-27.7082582" lon="153.1461367">
<ele>23.260</ele>
<time>2016-01-15T22:38:41.819Z</time>
</trkpt>
<trkpt lat="-27.7086655" lon="153.1456415">
<ele>22.422</ele>
<time>2016-01-15T22:38:44.851Z</time>
</trkpt>
<trkpt lat="-27.7090194" lon="153.1451039">
<ele>22.363</ele>
<time>2016-01-15T22:38:47.855Z</time>
</trkpt>
<trkpt lat="-27.7091424" lon="153.1446924">
<ele>22.830</ele>
<time>2016-01-15T22:38:49.801Z</time>
</trkpt>
<trkpt lat="-27.7092473" lon="153.1440237">
<ele>23.337</ele>
<time>2016-01-15T22:38:52.809Z</time>
</trkpt>
<trkpt lat="-27.7092186" lon="153.1433326">
<ele>23.780</ele>
<time>2016-01-15T22:38:55.815Z</time>
</trkpt>
<trkpt lat="-27.7091584" lon="153.1428685">
<ele>24.537</ele>
<time>2016-01-15T22:38:57.802Z</time>
</trkpt>
<trkpt lat="-27.7090396" lon="153.1421755">
<ele>25.564</ele>
<time>2016-01-15T22:39:00.786Z</time>
</trkpt>
<trkpt lat="-27.7089763" lon="153.1417080">
<ele>26.309</ele>
<time>2016-01-15T22:39:02.808Z</time>
</trkpt>
<trkpt lat="-27.7089040" lon="153.1412581">
<ele>26.420</ele>
<time>2016-01-15T22:39:04.862Z</time>
</trkpt>
<trkpt lat="-27.7088090" lon="153.1406394">
<ele>25.992</ele>
<time>2016-01-15T22:39:07.730Z</time>
</trkpt>
<trkpt lat="-27.7087123" lon="153.1400001">
<ele>25.053</ele>
<time>2016-01-15T22:39:10.635Z</time>
</trkpt>
<trkpt lat="-27.7085972" lon="153.1393378">
<ele>23.638</ele>
<time>2016-01-15T22:39:13.534Z</time>
</trkpt>
<trkpt lat="-27.7084956" lon="153.1388647">
<ele>22.392</ele>
<time>2016-01-15T22:39:15.575Z</time>
</trkpt>
<trkpt lat="-27.7084121" lon="153.1384016">
<ele>21.988</ele>
<time>2016-01-15T22:39:17.596Z</time>
</trkpt>
<trkpt lat="-27.7082983" lon="153.1377327">
<ele>22.220</ele>
<time>2016-01-15T22:39:20.564Z</time>
</trkpt>
<trkpt lat="-27.7081943" lon="153.1370606">
<ele>22.185</ele>
<time>2016-01-15T22:39:23.587Z</time>
</trkpt>
<trkpt lat="-27.7080890" lon="153.1364010">
<ele>21.366</ele>
<time>2016-01-15T22:39:26.563Z</time>
</trkpt>
<trkpt lat="-27.7080032" lon="153.1359530">
<ele>20.355</ele>
<time>2016-01-15T22:39:28.585Z</time>
</trkpt>
<trkpt lat="-27.7079400" lon="153.1352852">
<ele>19.939</ele>
<time>2016-01-15T22:39:31.577Z</time>
</trkpt>
<trkpt lat="-27.7078994" lon="153.1348534">
<ele>20.094</ele>
<time>2016-01-15T22:39:33.558Z</time>
</trkpt>
<trkpt lat="-27.7078850" lon="153.1341931">
<ele>20.324</ele>
<time>2016-01-15T22:39:36.554Z</time>
</trkpt>
<trkpt lat="-27.7079610" lon="153.1337528">
<ele>20.314</ele>
<time>2016-01-15T22:39:38.516Z</time>
</trkpt>
<trkpt lat="-27.7081669" lon="153.1330981">
<ele>20.465</ele>
<time>2016-01-15T22:39:41.521Z</time>
</trkpt>
<trkpt lat="-27.7083712" lon="153.1327011">
<ele>21.597</ele>
<time>2016-01-15T22:39:43.531Z</time>
</trkpt>
<trkpt lat="-27.7087905" lon="153.1322082">
<ele>23.684</ele>
<time>2016-01-15T22:39:46.603Z</time>
</trkpt>
<trkpt lat="-27.7092462" lon="153.1318197">
<ele>25.800</ele>
<time>2016-01-15T22:39:49.564Z</time>
</trkpt>
<trkpt lat="-27.7097888" lon="153.1315505">
<ele>27.344</ele>
<time>2016-01-15T22:39:52.621Z</time>
</trkpt>
<trkpt lat="-27.7101729" lon="153.1313869">
<ele>28.252</ele>
<time>2016-01-15T22:39:54.716Z</time>
</trkpt>
<trkpt lat="-27.7107007" lon="153.1311537">
<ele>28.451</ele>
<time>2016-01-15T22:39:57.645Z</time>
</trkpt>
<trkpt lat="-27.7110264" lon="153.1309755">
<ele>27.980</ele>
<time>2016-01-15T22:39:59.550Z</time>
</trkpt>
<trkpt lat="-27.7115430" lon="153.1307245">
<ele>27.233</ele>
<time>2016-01-15T22:40:02.509Z</time>
</trkpt>
<trkpt lat="-27.7119034" lon="153.1305718">
<ele>26.662</ele>
<time>2016-01-15T22:40:04.533Z</time>
</trkpt>
<trkpt lat="-27.7122763" lon="153.1304069">
<ele>26.379</ele>
<time>2016-01-15T22:40:06.665Z</time>
</trkpt>
<trkpt lat="-27.7126260" lon="153.1302458">
<ele>26.195</ele>
<time>2016-01-15T22:40:08.693Z</time>
</trkpt>
<trkpt lat="-27.7131502" lon="153.1300267">
<ele>25.955</ele>
<time>2016-01-15T22:40:11.669Z</time>
</trkpt>
<trkpt lat="-27.7136562" lon="153.1297833">
<ele>26.008</ele>
<time>2016-01-15T22:40:14.529Z</time>
</trkpt>
<trkpt lat="-27.7140351" lon="153.1296327">
<ele>26.732</ele>
<time>2016-01-15T22:40:16.549Z</time>
</trkpt>
<trkpt lat="-27.7143928" lon="153.1294590">
<ele>28.024</ele>
<time>2016-01-15T22:40:18.479Z</time>
</trkpt>
<trkpt lat="-27.7147866" lon="153.1293035">
<ele>29.448</ele>
<time>2016-01-15T22:40:20.553Z</time>
</trkpt>
<trkpt lat="-27.7151646" lon="153.1291533">
<ele>30.346</ele>
<time>2016-01-15T22:40:22.568Z</time>
</trkpt>
<trkpt lat="-27.7155516" lon="153.1290336">
<ele>30.127</ele>
<time>2016-01-15T22:40:24.603Z</time>
</trkpt>
<trkpt lat="-27.7161004" lon="153.1288826">
<ele>29.061</ele>
<time>2016-01-15T22:40:27.436Z</time>
</trkpt>
<trkpt lat="-27.7167297" lon="153.1287646">
<ele>28.061</ele>
<time>2016-01-15T22:40:30.519Z</time>
</trkpt>
<trkpt lat="-27.7174067" lon="153.1286616">
<ele>27.667</ele>
<time>2016-01-15T22:40:33.742Z</time>
</trkpt>
<trkpt lat="-27.7180022" lon="153.1285331">
<ele>27.564</ele>
<time>2016-01-15T22:40:36.652Z</time>
</trkpt>
<trkpt lat="-27.7184134" lon="153.1284725">
<ele>27.374</ele>
<time>2016-01-15T22:40:38.692Z</time>
</trkpt>
<trkpt lat="-27.7188073" lon="153.1284043">
<ele>27.139</ele>
<time>2016-01-15T22:40:40.638Z</time>
</trkpt>
<trkpt lat="-27.7194110" lon="153.1282663">
<ele>26.811</ele>
<time>2016-01-15T22:40:43.601Z</time>
</trkpt>
<trkpt lat="-27.7198381" lon="153.1281731">
<ele>26.073</ele>
<time>2016-01-15T22:40:45.665Z</time>
</trkpt>
<trkpt lat="-27.7202465" lon="153.1280924">
<ele>25.078</ele>
<time>2016-01-15T22:40:47.650Z</time>
</trkpt>
<trkpt lat="-27.7206410" lon="153.1280134">
<ele>24.409</ele>
<time>2016-01-15T22:40:49.555Z</time>
</trkpt>
<trkpt lat="-27.7212703" lon="153.1278856">
<ele>24.582</ele>
<time>2016-01-15T22:40:52.509Z</time>
</trkpt>
<trkpt lat="-27.7217624" lon="153.1278258">
<ele>25.525</ele>
<time>2016-01-15T22:40:54.676Z</time>
</trkpt>
<trkpt lat="-27.7222048" lon="153.1277391">
<ele>26.727</ele>
<time>2016-01-15T22:40:56.612Z</time>
</trkpt>
<trkpt lat="-27.7228774" lon="153.1275981">
<ele>27.967</ele>
<time>2016-01-15T22:40:59.522Z</time>
</trkpt>
<trkpt lat="-27.7235996" lon="153.1274659">
<ele>29.224</ele>
<time>2016-01-15T22:41:02.571Z</time>
</trkpt>
<trkpt lat="-27.7242916" lon="153.1273159">
<ele>30.089</ele>
<time>2016-01-15T22:41:05.482Z</time>
</trkpt>
<trkpt lat="-27.7247699" lon="153.1272308">
<ele>30.226</ele>
<time>2016-01-15T22:41:07.491Z</time>
</trkpt>
<trkpt lat="-27.7252399" lon="153.1271498">
<ele>29.653</ele>
<time>2016-01-15T22:41:09.473Z</time>
</trkpt>
<trkpt lat="-27.7260029" lon="153.1271298">
<ele>28.691</ele>
<time>2016-01-15T22:41:12.630Z</time>
</trkpt>
<trkpt lat="-27.7264804" lon="153.1271767">
<ele>27.830</ele>
<time>2016-01-15T22:41:14.585Z</time>
</trkpt>
<trkpt lat="-27.7269743" lon="153.1272797">
<ele>27.528</ele>
<time>2016-01-15T22:41:16.644Z</time>
</trkpt>
<trkpt lat="-27.7274458" lon="153.1274114">
<ele>27.783</ele>
<time>2016-01-15T22:41:18.679Z</time>
</trkpt>
<trkpt lat="-27.7281039" lon="153.1276563">
<ele>27.938</ele>
<time>2016-01-15T22:41:21.664Z</time>
</trkpt>
<trkpt lat="-27.7287308" lon="153.1279134">
<ele>27.515</ele>
<time>2016-01-15T22:41:24.636Z</time>
</trkpt>
<trkpt lat="-27.7291404" lon="153.1280628">
<ele>26.765</ele>
<time>2016-01-15T22:41:26.584Z</time>
</trkpt>
<trkpt lat="-27.7297692" lon="153.1283117">
<ele>25.996</ele>
<time>2016-01-15T22:41:29.541Z</time>
</trkpt>
<trkpt lat="-27.7302118" lon="153.1284911">
<ele>25.363</ele>
<time>2016-01-15T22:41:31.473Z</time>
</trkpt>
<trkpt lat="-27.7309464" lon="153.1287278">
<ele>25.575</ele>
<time>2016-01-15T22:41:34.502Z</time>
</trkpt>
<trkpt lat="-27.7317052" lon="153.1288410">
<ele>27.432</ele>
<time>2016-01-15T22:41:37.459Z</time>
</trkpt>
<trkpt lat="-27.7322249" lon="153.1288475">
<ele>30.354</ele>
<time>2016-01-15T22:41:39.372Z</time>
</trkpt>
<trkpt lat="-27.7330543" lon="153.1287669">
<ele>32.922</ele>
<time>2016-01-15T22:41:42.304Z</time>
</trkpt>
<trkpt lat="-27.7336386" lon="153.1286390">
<ele>34.897</ele>
<time>2016-01-15T22:41:44.244Z</time>
</trkpt>
<trkpt lat="-27.7343294" lon="153.1285373">
<ele>37.840</ele>
<time>2016-01-15T22:41:46.359Z</time>
</trkpt>
<trkpt lat="-27.7350193" lon="153.1283950">
<ele>42.538</ele>
<time>2016-01-15T22:41:48.416Z</time>
</trkpt>
<trkpt lat="-27.7360382" lon="153.1281900">
<ele>47.100</ele>
<time>2016-01-15T22:41:51.540Z</time>
</trkpt>
<trkpt lat="-27.7366354" lon="153.1280834">
<ele>49.137</ele>
<time>2016-01-15T22:41:53.558Z</time>
</trkpt>
<trkpt lat="-27.7372061" lon="153.1279943">
<ele>47.727</ele>
<time>2016-01-15T22:41:55.655Z</time>
</trkpt>
<trkpt lat="-27.7379384" lon="153.1278297">
<ele>43.723</ele>
<time>2016-01-15T22:41:58.542Z</time>
</trkpt>
<trkpt lat="-27.7386340" lon="153.1276676">
<ele>39.406</ele>
<time>2016-01-15T22:42:01.434Z</time>
</trkpt>
<trkpt lat="-27.7391495" lon="153.1275890">
<ele>36.480</ele>
<time>2016-01-15T22:42:03.590Z</time>
</trkpt>
<trkpt lat="-27.7396005" lon="153.1274889">
<ele>35.271</ele>
<time>2016-01-15T22:42:05.556Z</time>
</trkpt>
<trkpt lat="-27.7402276" lon="153.1273443">
<ele>35.327</ele>
<time>2016-01-15T22:42:08.377Z</time>
</trkpt>
<trkpt lat="-27.7408909" lon="153.1272428">
<ele>36.071</ele>
<time>2016-01-15T22:42:11.414Z</time>
</trkpt>
<trkpt lat="-27.7413247" lon="153.1271547">
<ele>37.264</ele>
<time>2016-01-15T22:42:13.424Z</time>
</trkpt>
<trkpt lat="-27.7417811" lon="153.1270722">
<ele>38.754</ele>
<time>2016-01-15T22:42:15.532Z</time>
</trkpt>
<trkpt lat="-27.7424064" lon="153.1269104">
<ele>40.208</ele>
<time>2016-01-15T22:42:18.462Z</time>
</trkpt>
<trkpt lat="-27.7428236" lon="153.1268144">
<ele>41.065</ele>
<time>2016-01-15T22:42:20.402Z</time>
</trkpt>
<trkpt lat="-27.7432489" lon="153.1267140">
<ele>40.984</ele>
<time>2016-01-15T22:42:22.347Z</time>
</trkpt>
<trkpt lat="-27.7439861" lon="153.1265577">
<ele>40.100</ele>
<time>2016-01-15T22:42:25.439Z</time>
</trkpt>
<trkpt lat="-27.7447276" lon="153.1263953">
<ele>38.572</ele>
<time>2016-01-15T22:42:28.441Z</time>
</trkpt>
<trkpt lat="-27.7452262" lon="153.1262988">
<ele>36.629</ele>
<time>2016-01-15T22:42:30.460Z</time>
</trkpt>
<trkpt lat="-27.7459597" lon="153.1261550">
<ele>34.339</ele>
<time>2016-01-15T22:42:33.468Z</time>
</trkpt>
<trkpt lat="-27.7466478" lon="153.1260103">
<ele>31.663</ele>
<time>2016-01-15T22:42:36.347Z</time>
</trkpt>
<trkpt lat="-27.7471875" lon="153.1259396">
<ele>28.998</ele>
<time>2016-01-15T22:42:38.609Z</time>
</trkpt>
<trkpt lat="-27.7476262" lon="153.1258384">
<ele>27.018</ele>
<time>2016-01-15T22:42:40.504Z</time>
</trkpt>
<trkpt lat="-27.7480761" lon="153.1257318">
<ele>26.038</ele>
<time>2016-01-15T22:42:42.479Z</time>
</trkpt>
<trkpt lat="-27.7487630" lon="153.1256109">
<ele>25.656</ele>
<time>2016-01-15T22:42:45.512Z</time>
</trkpt>
<trkpt lat="-27.7491680" lon="153.1254998">
<ele>25.099</ele>
<time>2016-01-15T22:42:47.408Z</time>
</trkpt>
<trkpt lat="-27.7498257" lon="153.1253542">
<ele>24.104</ele>
<time>2016-01-15T22:42:50.551Z</time>
</trkpt>
<trkpt lat="-27.7502193" lon="153.1252481">
<ele>23.055</ele>
<time>2016-01-15T22:42:52.537Z</time>
</trkpt>
<trkpt lat="-27.7505904" lon="153.1251576">
<ele>22.197</ele>
<time>2016-01-15T22:42:54.437Z</time>
</trkpt>
<trkpt lat="-27.7511832" lon="153.1249896">
<ele>21.252</ele>
<time>2016-01-15T22:42:57.508Z</time>
</trkpt>
<trkpt lat="-27.7515197" lon="153.1247880">
<ele>20.089</ele>
<time>2016-01-15T22:42:59.428Z</time>
</trkpt>
<trkpt lat="-27.7518678" lon="153.1245658">
<ele>19.139</ele>
<time>2016-01-15T22:43:01.431Z</time>
</trkpt>
<trkpt lat="-27.7521856" lon="153.1242782">
<ele>18.733</ele>
<time>2016-01-15T22:43:03.413Z</time>
</trkpt>
<trkpt lat="-27.7525576" lon="153.1237513">
<ele>18.734</ele>
<time>2016-01-15T22:43:06.224Z</time>
</trkpt>
<trkpt lat="-27.7527821" lon="153.1233183">
<ele>18.852</ele>
<time>2016-01-15T22:43:08.165Z</time>
</trkpt>
<trkpt lat="-27.7530293" lon="153.1228148">
<ele>19.105</ele>
<time>2016-01-15T22:43:10.269Z</time>
</trkpt>
<trkpt lat="-27.7532777" lon="153.1223275">
<ele>20.011</ele>
<time>2016-01-15T22:43:12.326Z</time>
</trkpt>
<trkpt lat="-27.7535086" lon="153.1218920">
<ele>21.615</ele>
<time>2016-01-15T22:43:14.255Z</time>
</trkpt>
<trkpt lat="-27.7538375" lon="153.1212323">
<ele>22.659</ele>
<time>2016-01-15T22:43:17.223Z</time>
</trkpt>
<trkpt lat="-27.7541490" lon="153.1205750">
<ele>22.299</ele>
<time>2016-01-15T22:43:20.321Z</time>
</trkpt>
<trkpt lat="-27.7544373" lon="153.1199995">
<ele>21.319</ele>
<time>2016-01-15T22:43:23.275Z</time>
</trkpt>
<trkpt lat="-27.7547024" lon="153.1194454">
<ele>20.270</ele>
<time>2016-01-15T22:43:26.191Z</time>
</trkpt>
<trkpt lat="-27.7548980" lon="153.1190699">
<ele>19.050</ele>
<time>2016-01-15T22:43:28.158Z</time>
</trkpt>
<trkpt lat="-27.7552356" lon="153.1185021">
<ele>18.098</ele>
<time>2016-01-15T22:43:31.142Z</time>
</trkpt>
<trkpt lat="-27.7555313" lon="153.1181481">
<ele>17.822</ele>
<time>2016-01-15T22:43:33.177Z</time>
</trkpt>
<trkpt lat="-27.7558323" lon="153.1177965">
<ele>18.066</ele>
<time>2016-01-15T22:43:35.207Z</time>
</trkpt>
<trkpt lat="-27.7562460" lon="153.1172446">
<ele>18.571</ele>
<time>2016-01-15T22:43:38.224Z</time>
</trkpt>
<trkpt lat="-27.7564517" lon="153.1168349">
<ele>18.723</ele>
<time>2016-01-15T22:43:40.209Z</time>
</trkpt>
<trkpt lat="-27.7566651" lon="153.1161708">
<ele>18.107</ele>
<time>2016-01-15T22:43:43.191Z</time>
</trkpt>
<trkpt lat="-27.7567597" lon="153.1157077">
<ele>17.097</ele>
<time>2016-01-15T22:43:45.150Z</time>
</trkpt>
<trkpt lat="-27.7568196" lon="153.1152050">
<ele>16.244</ele>
<time>2016-01-15T22:43:47.203Z</time>
</trkpt>
<trkpt lat="-27.7568718" lon="153.1144625">
<ele>15.773</ele>
<time>2016-01-15T22:43:50.237Z</time>
</trkpt>
<trkpt lat="-27.7569638" lon="153.1140001">
<ele>15.797</ele>
<time>2016-01-15T22:43:52.203Z</time>
</trkpt>
<trkpt lat="-27.7570792" lon="153.1133027">
<ele>16.198</ele>
<time>2016-01-15T22:43:55.180Z</time>
</trkpt>
<trkpt lat="-27.7572454" lon="153.1126443">
<ele>16.628</ele>
<time>2016-01-15T22:43:58.071Z</time>
</trkpt>
<trkpt lat="-27.7573955" lon="153.1122032">
<ele>16.847</ele>
<time>2016-01-15T22:44:00.013Z</time>
</trkpt>
<trkpt lat="-27.7576607" lon="153.1118081">
<ele>17.228</ele>
<time>2016-01-15T22:44:02.006Z</time>
</trkpt>
<trkpt lat="-27.7581328" lon="153.1112530">
<ele>18.145</ele>
<time>2016-01-15T22:44:05.081Z</time>
</trkpt>
<trkpt lat="-27.7584846" lon="153.1109495">
<ele>19.496</ele>
<time>2016-01-15T22:44:07.088Z</time>
</trkpt>
<trkpt lat="-27.7588935" lon="153.1107248">
<ele>20.887</ele>
<time>2016-01-15T22:44:09.206Z</time>
</trkpt>
<trkpt lat="-27.7594554" lon="153.1104824">
<ele>21.865</ele>
<time>2016-01-15T22:44:12.088Z</time>
</trkpt>
<trkpt lat="-27.7598579" lon="153.1103906">
<ele>22.221</ele>
<time>2016-01-15T22:44:14.123Z</time>
</trkpt>
<trkpt lat="-27.7604236" lon="153.1102691">
<ele>22.128</ele>
<time>2016-01-15T22:44:17.037Z</time>
</trkpt>
<trkpt lat="-27.7609748" lon="153.1101600">
<ele>21.789</ele>
<time>2016-01-15T22:44:19.930Z</time>
</trkpt>
<trkpt lat="-27.7613503" lon="153.1100832">
<ele>21.408</ele>
<time>2016-01-15T22:44:21.899Z</time>
</trkpt>
<trkpt lat="-27.7617450" lon="153.1100156">
<ele>21.129</ele>
<time>2016-01-15T22:44:23.930Z</time>
</trkpt>
<trkpt lat="-27.7623334" lon="153.1099034">
<ele>20.988</ele>
<time>2016-01-15T22:44:26.922Z</time>
</trkpt>
<trkpt lat="-27.7629374" lon="153.1097750">
<ele>20.867</ele>
<time>2016-01-15T22:44:29.991Z</time>
</trkpt>
<trkpt lat="-27.7633291" lon="153.1097161">
<ele>20.556</ele>
<time>2016-01-15T22:44:32.098Z</time>
</trkpt>
<trkpt lat="-27.7638100" lon="153.1096169">
<ele>19.833</ele>
<time>2016-01-15T22:44:34.961Z</time>
</trkpt>
<trkpt lat="-27.7640758" lon="153.1095609">
<ele>18.229</ele>
<time>2016-01-15T22:44:36.779Z</time>
</trkpt>
<trkpt lat="-27.7643308" lon="153.1095150">
<ele>15.630</ele>
<time>2016-01-15T22:44:38.680Z</time>
</trkpt>
<trkpt lat="-27.7647187" lon="153.1094318">
<ele>12.954</ele>
<time>2016-01-15T22:44:41.827Z</time>
</trkpt>
<trkpt lat="-27.7650446" lon="153.1093956">
<ele>11.148</ele>
<time>2016-01-15T22:44:44.771Z</time>
</trkpt>
<trkpt lat="-27.7653146" lon="153.1093840">
<ele>10.280</ele>
<time>2016-01-15T22:44:47.615Z</time>
</trkpt>
<trkpt lat="-27.7654612" lon="153.1093706">
<ele>9.837</ele>
<time>2016-01-15T22:44:49.584Z</time>
</trkpt>
<trkpt lat="-27.7655858" lon="153.1093730">
<ele>9.386</ele>
<time>2016-01-15T22:44:51.782Z</time>
</trkpt>
<trkpt lat="-27.7656707" lon="153.1093388">
<ele>8.665</ele>
<time>2016-01-15T22:44:54.856Z</time>
</trkpt>
<trkpt lat="-27.7657833" lon="153.1093336">
<ele>7.678</ele>
<time>2016-01-15T22:44:58.920Z</time>
</trkpt>
<trkpt lat="-27.7659800" lon="153.1093637">
<ele>6.952</ele>
<time>2016-01-15T22:45:03.158Z</time>
</trkpt>
<trkpt lat="-27.7661041" lon="153.1093269">
<ele>7.060</ele>
<time>2016-01-15T22:45:05.146Z</time>
</trkpt>
<trkpt lat="-27.7661953" lon="153.1092004">
<ele>7.815</ele>
<time>2016-01-15T22:45:07.305Z</time>
</trkpt>
<trkpt lat="-27.7663396" lon="153.1090594">
<ele>8.606</ele>
<time>2016-01-15T22:45:10.224Z</time>
</trkpt>
<trkpt lat="-27.7664761" lon="153.1089754">
<ele>8.980</ele>
<time>2016-01-15T22:45:12.973Z</time>
</trkpt>
<trkpt lat="-27.7665565" lon="153.1089190">
<ele>8.899</ele>
<time>2016-01-15T22:45:14.959Z</time>
</trkpt>
<trkpt lat="-27.7666420" lon="153.1088779">
<ele>8.540</ele>
<time>2016-01-15T22:45:17.254Z</time>
</trkpt>
<trkpt lat="-27.7667209" lon="153.1088281">
<ele>8.109</ele>
<time>2016-01-15T22:45:19.999Z</time>
</trkpt>
<trkpt lat="-27.7667209" lon="153.1088281">
<ele>7.777</ele>
<time>2016-01-15T22:45:27.999Z</time>
</trkpt>
<trkpt lat="-27.7667209" lon="153.1088281">
<ele>7.641</ele>
<time>2016-01-15T22:58:46.573Z</time>
</trkpt>
<trkpt lat="-27.7668193" lon="153.1085895">
<ele>7.703</ele>
<time>2016-01-15T22:58:52.682Z</time>
</trkpt>
<trkpt lat="-27.7671165" lon="153.1084564">
<ele>9.187</ele>
<time>2016-01-15T22:58:56.449Z</time>
</trkpt>
<trkpt lat="-27.7672920" lon="153.1083653">
<ele>12.820</ele>
<time>2016-01-15T22:58:58.299Z</time>
</trkpt>
<trkpt lat="-27.7675918" lon="153.1081949">
<ele>16.703</ele>
<time>2016-01-15T22:59:01.330Z</time>
</trkpt>
<trkpt lat="-27.7677989" lon="153.1080620">
<ele>18.902</ele>
<time>2016-01-15T22:59:03.288Z</time>
</trkpt>
<trkpt lat="-27.7681495" lon="153.1078378">
<ele>19.606</ele>
<time>2016-01-15T22:59:06.306Z</time>
</trkpt>
<trkpt lat="-27.7685157" lon="153.1075657">
<ele>19.817</ele>
<time>2016-01-15T22:59:09.478Z</time>
</trkpt>
<trkpt lat="-27.7688467" lon="153.1073322">
<ele>20.377</ele>
<time>2016-01-15T22:59:12.249Z</time>
</trkpt>
<trkpt lat="-27.7691221" lon="153.1071690">
<ele>21.299</ele>
<time>2016-01-15T22:59:14.378Z</time>
</trkpt>
<trkpt lat="-27.7694017" lon="153.1070132">
<ele>22.183</ele>
<time>2016-01-15T22:59:16.487Z</time>
</trkpt>
<trkpt lat="-27.7698111" lon="153.1067811">
<ele>22.841</ele>
<time>2016-01-15T22:59:19.569Z</time>
</trkpt>
<trkpt lat="-27.7700878" lon="153.1066285">
<ele>23.183</ele>
<time>2016-01-15T22:59:21.607Z</time>
</trkpt>
<trkpt lat="-27.7703347" lon="153.1064739">
<ele>23.281</ele>
<time>2016-01-15T22:59:23.392Z</time>
</trkpt>
<trkpt lat="-27.7707938" lon="153.1061928">
<ele>23.449</ele>
<time>2016-01-15T22:59:26.618Z</time>
</trkpt>
<trkpt lat="-27.7711934" lon="153.1059341">
<ele>23.856</ele>
<time>2016-01-15T22:59:29.554Z</time>
</trkpt>
<trkpt lat="-27.7714576" lon="153.1057656">
<ele>24.430</ele>
<time>2016-01-15T22:59:31.487Z</time>
</trkpt>
<trkpt lat="-27.7717222" lon="153.1055790">
<ele>25.095</ele>
<time>2016-01-15T22:59:33.453Z</time>
</trkpt>
<trkpt lat="-27.7721305" lon="153.1053161">
<ele>25.665</ele>
<time>2016-01-15T22:59:36.351Z</time>
</trkpt>
<trkpt lat="-27.7724064" lon="153.1051241">
<ele>26.097</ele>
<time>2016-01-15T22:59:38.228Z</time>
</trkpt>
<trkpt lat="-27.7729177" lon="153.1048357">
<ele>26.799</ele>
<time>2016-01-15T22:59:41.408Z</time>
</trkpt>
<trkpt lat="-27.7733956" lon="153.1045392">
<ele>28.155</ele>
<time>2016-01-15T22:59:44.435Z</time>
</trkpt>
<trkpt lat="-27.7738514" lon="153.1042437">
<ele>29.966</ele>
<time>2016-01-15T22:59:47.406Z</time>
</trkpt>
<trkpt lat="-27.7741588" lon="153.1040561">
<ele>31.575</ele>
<time>2016-01-15T22:59:49.380Z</time>
</trkpt>
<trkpt lat="-27.7746205" lon="153.1037493">
<ele>32.695</ele>
<time>2016-01-15T22:59:52.350Z</time>
</trkpt>
<trkpt lat="-27.7749206" lon="153.1035452">
<ele>33.461</ele>
<time>2016-01-15T22:59:54.229Z</time>
</trkpt>
<trkpt lat="-27.7754260" lon="153.1032141">
<ele>34.091</ele>
<time>2016-01-15T22:59:57.279Z</time>
</trkpt>
<trkpt lat="-27.7757657" lon="153.1029994">
<ele>34.681</ele>
<time>2016-01-15T22:59:59.279Z</time>
</trkpt>
<trkpt lat="-27.7762664" lon="153.1026701">
<ele>35.169</ele>
<time>2016-01-15T23:00:02.240Z</time>
</trkpt>
<trkpt lat="-27.7766195" lon="153.1024531">
<ele>35.484</ele>
<time>2016-01-15T23:00:04.283Z</time>
</trkpt>
<trkpt lat="-27.7771207" lon="153.1021325">
<ele>35.687</ele>
<time>2016-01-15T23:00:07.212Z</time>
</trkpt>
<trkpt lat="-27.7774633" lon="153.1019230">
<ele>35.784</ele>
<time>2016-01-15T23:00:09.224Z</time>
</trkpt>
<trkpt lat="-27.7777999" lon="153.1017295">
<ele>35.852</ele>
<time>2016-01-15T23:00:11.237Z</time>
</trkpt>
<trkpt lat="-27.7782899" lon="153.1014449">
<ele>35.976</ele>
<time>2016-01-15T23:00:14.218Z</time>
</trkpt>
<trkpt lat="-27.7786092" lon="153.1012600">
<ele>35.869</ele>
<time>2016-01-15T23:00:16.141Z</time>
</trkpt>
<trkpt lat="-27.7791127" lon="153.1009764">
<ele>35.319</ele>
<time>2016-01-15T23:00:19.059Z</time>
</trkpt>
<trkpt lat="-27.7796262" lon="153.1006499">
<ele>34.899</ele>
<time>2016-01-15T23:00:21.949Z</time>
</trkpt>
<trkpt lat="-27.7802201" lon="153.1002954">
<ele>35.480</ele>
<time>2016-01-15T23:00:25.075Z</time>
</trkpt>
<trkpt lat="-27.7806341" lon="153.1000717">
<ele>36.958</ele>
<time>2016-01-15T23:00:27.197Z</time>
</trkpt>
<trkpt lat="-27.7811994" lon="153.0997189">
<ele>38.338</ele>
<time>2016-01-15T23:00:30.385Z</time>
</trkpt>
<trkpt lat="-27.7816180" lon="153.0994130">
<ele>38.854</ele>
<time>2016-01-15T23:00:33.081Z</time>
</trkpt>
<trkpt lat="-27.7819306" lon="153.0992239">
<ele>38.572</ele>
<time>2016-01-15T23:00:35.107Z</time>
</trkpt>
<trkpt lat="-27.7824138" lon="153.0989895">
<ele>37.896</ele>
<time>2016-01-15T23:00:38.136Z</time>
</trkpt>
<trkpt lat="-27.7829433" lon="153.0988877">
<ele>37.006</ele>
<time>2016-01-15T23:00:41.209Z</time>
</trkpt>
<trkpt lat="-27.7834859" lon="153.0988970">
<ele>36.042</ele>
<time>2016-01-15T23:00:44.216Z</time>
</trkpt>
<trkpt lat="-27.7838445" lon="153.0989852">
<ele>35.392</ele>
<time>2016-01-15T23:00:46.135Z</time>
</trkpt>
<trkpt lat="-27.7842112" lon="153.0991416">
<ele>35.755</ele>
<time>2016-01-15T23:00:48.098Z</time>
</trkpt>
<trkpt lat="-27.7845943" lon="153.0993081">
<ele>37.303</ele>
<time>2016-01-15T23:00:50.119Z</time>
</trkpt>
<trkpt lat="-27.7851813" lon="153.0995615">
<ele>39.153</ele>
<time>2016-01-15T23:00:53.255Z</time>
</trkpt>
<trkpt lat="-27.7855333" lon="153.0997435">
<ele>40.454</ele>
<time>2016-01-15T23:00:55.276Z</time>
</trkpt>
<trkpt lat="-27.7858762" lon="153.0999198">
<ele>41.447</ele>
<time>2016-01-15T23:00:57.331Z</time>
</trkpt>
<trkpt lat="-27.7863463" lon="153.1001607">
<ele>42.472</ele>
<time>2016-01-15T23:01:00.219Z</time>
</trkpt>
<trkpt lat="-27.7866618" lon="153.1003357">
<ele>43.345</ele>
<time>2016-01-15T23:01:02.220Z</time>
</trkpt>
<trkpt lat="-27.7871409" lon="153.1005656">
<ele>44.079</ele>
<time>2016-01-15T23:01:05.230Z</time>
</trkpt>
<trkpt lat="-27.7874834" lon="153.1006101">
<ele>44.930</ele>
<time>2016-01-15T23:01:07.257Z</time>
</trkpt>
<trkpt lat="-27.7878149" lon="153.1006419">
<ele>45.629</ele>
<time>2016-01-15T23:01:09.159Z</time>
</trkpt>
<trkpt lat="-27.7883603" lon="153.1005767">
<ele>45.921</ele>
<time>2016-01-15T23:01:12.167Z</time>
</trkpt>
<trkpt lat="-27.7888965" lon="153.1004155">
<ele>46.057</ele>
<time>2016-01-15T23:01:15.059Z</time>
</trkpt>
<trkpt lat="-27.7892935" lon="153.1003187">
<ele>46.531</ele>
<time>2016-01-15T23:01:17.069Z</time>
</trkpt>
<trkpt lat="-27.7898847" lon="153.1001509">
<ele>47.425</ele>
<time>2016-01-15T23:01:20.065Z</time>
</trkpt>
<trkpt lat="-27.7902774" lon="153.1000290">
<ele>48.363</ele>
<time>2016-01-15T23:01:22.110Z</time>
</trkpt>
<trkpt lat="-27.7906754" lon="153.0999267">
<ele>48.890</ele>
<time>2016-01-15T23:01:24.266Z</time>
</trkpt>
<trkpt lat="-27.7909995" lon="153.0998373">
<ele>48.938</ele>
<time>2016-01-15T23:01:26.079Z</time>
</trkpt>
<trkpt lat="-27.7915365" lon="153.0996972">
<ele>48.869</ele>
<time>2016-01-15T23:01:29.003Z</time>
</trkpt>
<trkpt lat="-27.7921187" lon="153.0995569">
<ele>49.526</ele>
<time>2016-01-15T23:01:32.070Z</time>
</trkpt>
<trkpt lat="-27.7927155" lon="153.0994157">
<ele>51.323</ele>
<time>2016-01-15T23:01:35.232Z</time>
</trkpt>
<trkpt lat="-27.7930677" lon="153.0993489">
<ele>53.653</ele>
<time>2016-01-15T23:01:37.125Z</time>
</trkpt>
<trkpt lat="-27.7934500" lon="153.0993283">
<ele>55.775</ele>
<time>2016-01-15T23:01:39.120Z</time>
</trkpt>
<trkpt lat="-27.7940428" lon="153.0993361">
<ele>57.601</ele>
<time>2016-01-15T23:01:42.150Z</time>
</trkpt>
<trkpt lat="-27.7946345" lon="153.0994496">
<ele>59.471</ele>
<time>2016-01-15T23:01:45.153Z</time>
</trkpt>
<trkpt lat="-27.7952192" lon="153.0996356">
<ele>61.514</ele>
<time>2016-01-15T23:01:48.221Z</time>
</trkpt>
<trkpt lat="-27.7957401" lon="153.0997964">
<ele>63.098</ele>
<time>2016-01-15T23:01:51.068Z</time>
</trkpt>
<trkpt lat="-27.7962844" lon="153.0999649">
<ele>63.768</ele>
<time>2016-01-15T23:01:54.205Z</time>
</trkpt>
<trkpt lat="-27.7967803" lon="153.1001498">
<ele>63.473</ele>
<time>2016-01-15T23:01:57.280Z</time>
</trkpt>
<trkpt lat="-27.7971007" lon="153.1002181">
<ele>62.262</ele>
<time>2016-01-15T23:01:59.269Z</time>
</trkpt>
<trkpt lat="-27.7974501" lon="153.1002470">
<ele>60.817</ele>
<time>2016-01-15T23:02:01.407Z</time>
</trkpt>
<trkpt lat="-27.7979527" lon="153.1002910">
<ele>59.895</ele>
<time>2016-01-15T23:02:04.626Z</time>
</trkpt>
<trkpt lat="-27.7983646" lon="153.1002870">
<ele>59.644</ele>
<time>2016-01-15T23:02:07.652Z</time>
</trkpt>
<trkpt lat="-27.7987370" lon="153.1002363">
<ele>59.840</ele>
<time>2016-01-15T23:02:11.023Z</time>
</trkpt>
<trkpt lat="-27.7990243" lon="153.1001820">
<ele>59.942</ele>
<time>2016-01-15T23:02:14.545Z</time>
</trkpt>
<trkpt lat="-27.7992599" lon="153.1001312">
<ele>59.363</ele>
<time>2016-01-15T23:02:18.352Z</time>
</trkpt>
<trkpt lat="-27.7993825" lon="153.1000875">
<ele>58.042</ele>
<time>2016-01-15T23:02:20.838Z</time>
</trkpt>
<trkpt lat="-27.7995305" lon="153.1000315">
<ele>56.512</ele>
<time>2016-01-15T23:02:24.194Z</time>
</trkpt>
<trkpt lat="-27.7996636" lon="153.1000012">
<ele>55.371</ele>
<time>2016-01-15T23:02:27.160Z</time>
</trkpt>
<trkpt lat="-27.7997508" lon="153.0999761">
<ele>54.851</ele>
<time>2016-01-15T23:02:29.218Z</time>
</trkpt>
<trkpt lat="-27.7998392" lon="153.0999542">
<ele>54.825</ele>
<time>2016-01-15T23:02:31.587Z</time>
</trkpt>
<trkpt lat="-27.7999385" lon="153.0998977">
<ele>55.024</ele>
<time>2016-01-15T23:02:34.983Z</time>
</trkpt>
<trkpt lat="-27.8000439" lon="153.0998851">
<ele>55.162</ele>
<time>2016-01-15T23:02:38.265Z</time>
</trkpt>
<trkpt lat="-27.8001584" lon="153.0999136">
<ele>55.071</ele>
<time>2016-01-15T23:02:41.893Z</time>
</trkpt>
<trkpt lat="-27.8002776" lon="153.0998557">
<ele>54.877</ele>
<time>2016-01-15T23:02:44.362Z</time>
</trkpt>
<trkpt lat="-27.8004108" lon="153.0997598">
<ele>54.906</ele>
<time>2016-01-15T23:02:46.646Z</time>
</trkpt>
<trkpt lat="-27.8005396" lon="153.0995707">
<ele>55.243</ele>
<time>2016-01-15T23:02:49.523Z</time>
</trkpt>
<trkpt lat="-27.8005299" lon="153.0993307">
<ele>55.618</ele>
<time>2016-01-15T23:02:52.056Z</time>
</trkpt>
<trkpt lat="-27.8004992" lon="153.0991128">
<ele>55.823</ele>
<time>2016-01-15T23:02:53.819Z</time>
</trkpt>
<trkpt lat="-27.8004964" lon="153.0987991">
<ele>56.003</ele>
<time>2016-01-15T23:02:55.850Z</time>
</trkpt>
<trkpt lat="-27.8006596" lon="153.0982725">
<ele>56.543</ele>
<time>2016-01-15T23:02:59.062Z</time>
</trkpt>
<trkpt lat="-27.8008793" lon="153.0977443">
<ele>58.046</ele>
<time>2016-01-15T23:03:02.098Z</time>
</trkpt>
<trkpt lat="-27.8010322" lon="153.0973774">
<ele>60.942</ele>
<time>2016-01-15T23:03:04.148Z</time>
</trkpt>
<trkpt lat="-27.8012576" lon="153.0968562">
<ele>64.764</ele>
<time>2016-01-15T23:03:07.011Z</time>
</trkpt>
<trkpt lat="-27.8014217" lon="153.0964597">
<ele>68.155</ele>
<time>2016-01-15T23:03:08.993Z</time>
</trkpt>
<trkpt lat="-27.8017001" lon="153.0958300">
<ele>70.240</ele>
<time>2016-01-15T23:03:12.121Z</time>
</trkpt>
<trkpt lat="-27.8018760" lon="153.0954294">
<ele>71.485</ele>
<time>2016-01-15T23:03:14.099Z</time>
</trkpt>
<trkpt lat="-27.8021203" lon="153.0948302">
<ele>72.533</ele>
<time>2016-01-15T23:03:17.001Z</time>
</trkpt>
<trkpt lat="-27.8022913" lon="153.0944205">
<ele>73.163</ele>
<time>2016-01-15T23:03:18.968Z</time>
</trkpt>
<trkpt lat="-27.8024638" lon="153.0940030">
<ele>72.898</ele>
<time>2016-01-15T23:03:20.914Z</time>
</trkpt>
<trkpt lat="-27.8026405" lon="153.0933142">
<ele>71.796</ele>
<time>2016-01-15T23:03:23.865Z</time>
</trkpt>
<trkpt lat="-27.8027641" lon="153.0925719">
<ele>70.251</ele>
<time>2016-01-15T23:03:26.912Z</time>
</trkpt>
<trkpt lat="-27.8028005" lon="153.0920845">
<ele>68.620</ele>
<time>2016-01-15T23:03:28.950Z</time>
</trkpt>
<trkpt lat="-27.8027528" lon="153.0913821">
<ele>67.335</ele>
<time>2016-01-15T23:03:31.934Z</time>
</trkpt>
<trkpt lat="-27.8026693" lon="153.0907135">
<ele>66.617</ele>
<time>2016-01-15T23:03:34.845Z</time>
</trkpt>
<trkpt lat="-27.8026322" lon="153.0902950">
<ele>65.755</ele>
<time>2016-01-15T23:03:36.720Z</time>
</trkpt>
<trkpt lat="-27.8025689" lon="153.0898719">
<ele>64.036</ele>
<time>2016-01-15T23:03:38.643Z</time>
</trkpt>
<trkpt lat="-27.8024610" lon="153.0892132">
<ele>61.747</ele>
<time>2016-01-15T23:03:41.625Z</time>
</trkpt>
<trkpt lat="-27.8023930" lon="153.0887647">
<ele>59.444</ele>
<time>2016-01-15T23:03:43.622Z</time>
</trkpt>
<trkpt lat="-27.8023471" lon="153.0883156">
<ele>56.940</ele>
<time>2016-01-15T23:03:45.598Z</time>
</trkpt>
<trkpt lat="-27.8023213" lon="153.0878617">
<ele>54.144</ele>
<time>2016-01-15T23:03:47.545Z</time>
</trkpt>
<trkpt lat="-27.8023403" lon="153.0871474">
<ele>51.840</ele>
<time>2016-01-15T23:03:50.517Z</time>
</trkpt>
<trkpt lat="-27.8023919" lon="153.0864208">
<ele>50.711</ele>
<time>2016-01-15T23:03:53.475Z</time>
</trkpt>
<trkpt lat="-27.8024532" lon="153.0859446">
<ele>50.704</ele>
<time>2016-01-15T23:03:55.471Z</time>
</trkpt>
<trkpt lat="-27.8026030" lon="153.0852517">
<ele>51.618</ele>
<time>2016-01-15T23:03:58.481Z</time>
</trkpt>
<trkpt lat="-27.8027070" lon="153.0848034">
<ele>52.931</ele>
<time>2016-01-15T23:04:00.456Z</time>
</trkpt>
<trkpt lat="-27.8028499" lon="153.0841174">
<ele>53.879</ele>
<time>2016-01-15T23:04:03.474Z</time>
</trkpt>
<trkpt lat="-27.8029528" lon="153.0836782">
<ele>53.866</ele>
<time>2016-01-15T23:04:05.441Z</time>
</trkpt>
<trkpt lat="-27.8030359" lon="153.0832200">
<ele>52.695</ele>
<time>2016-01-15T23:04:07.480Z</time>
</trkpt>
<trkpt lat="-27.8031380" lon="153.0827882">
<ele>50.907</ele>
<time>2016-01-15T23:04:09.418Z</time>
</trkpt>
<trkpt lat="-27.8032245" lon="153.0823358">
<ele>49.561</ele>
<time>2016-01-15T23:04:11.398Z</time>
</trkpt>
<trkpt lat="-27.8033774" lon="153.0816531">
<ele>49.142</ele>
<time>2016-01-15T23:04:14.386Z</time>
</trkpt>
<trkpt lat="-27.8034366" lon="153.0811927">
<ele>49.805</ele>
<time>2016-01-15T23:04:16.357Z</time>
</trkpt>
<trkpt lat="-27.8035130" lon="153.0807356">
<ele>51.513</ele>
<time>2016-01-15T23:04:18.359Z</time>
</trkpt>
<trkpt lat="-27.8036181" lon="153.0800650">
<ele>53.733</ele>
<time>2016-01-15T23:04:21.361Z</time>
</trkpt>
<trkpt lat="-27.8036842" lon="153.0796469">
<ele>55.731</ele>
<time>2016-01-15T23:04:23.292Z</time>
</trkpt>
<trkpt lat="-27.8037564" lon="153.0789952">
<ele>57.163</ele>
<time>2016-01-15T23:04:26.262Z</time>
</trkpt>
<trkpt lat="-27.8038088" lon="153.0783335">
<ele>57.981</ele>
<time>2016-01-15T23:04:29.175Z</time>
</trkpt>
<trkpt lat="-27.8039028" lon="153.0776370">
<ele>58.303</ele>
<time>2016-01-15T23:04:32.127Z</time>
</trkpt>
<trkpt lat="-27.8039234" lon="153.0768977">
<ele>58.116</ele>
<time>2016-01-15T23:04:35.089Z</time>
</trkpt>
<trkpt lat="-27.8039835" lon="153.0761284">
<ele>57.517</ele>
<time>2016-01-15T23:04:38.104Z</time>
</trkpt>
<trkpt lat="-27.8040436" lon="153.0753578">
<ele>56.823</ele>
<time>2016-01-15T23:04:41.103Z</time>
</trkpt>
<trkpt lat="-27.8040582" lon="153.0750988">
<ele>55.947</ele>
<time>2016-01-15T23:04:42.111Z</time>
</trkpt>
<trkpt lat="-27.8041366" lon="153.0740468">
<ele>54.624</ele>
<time>2016-01-15T23:04:46.155Z</time>
</trkpt>
<trkpt lat="-27.8041774" lon="153.0732607">
<ele>53.357</ele>
<time>2016-01-15T23:04:49.181Z</time>
</trkpt>
<trkpt lat="-27.8042108" lon="153.0727741">
<ele>52.622</ele>
<time>2016-01-15T23:04:51.094Z</time>
</trkpt>
<trkpt lat="-27.8042768" lon="153.0720201">
<ele>52.350</ele>
<time>2016-01-15T23:04:54.071Z</time>
</trkpt>
<trkpt lat="-27.8043789" lon="153.0712808">
<ele>52.605</ele>
<time>2016-01-15T23:04:57.026Z</time>
</trkpt>
<trkpt lat="-27.8044990" lon="153.0705513">
<ele>53.524</ele>
<time>2016-01-15T23:05:00.001Z</time>
</trkpt>
<trkpt lat="-27.8046026" lon="153.0700710">
<ele>54.834</ele>
<time>2016-01-15T23:05:02.018Z</time>
</trkpt>
<trkpt lat="-27.8046990" lon="153.0696077">
<ele>55.876</ele>
<time>2016-01-15T23:05:04.015Z</time>
</trkpt>
<trkpt lat="-27.8048604" lon="153.0689349">
<ele>56.345</ele>
<time>2016-01-15T23:05:06.990Z</time>
</trkpt>
<trkpt lat="-27.8049556" lon="153.0684768">
<ele>56.580</ele>
<time>2016-01-15T23:05:08.966Z</time>
</trkpt>
<trkpt lat="-27.8050997" lon="153.0677721">
<ele>56.805</ele>
<time>2016-01-15T23:05:11.942Z</time>
</trkpt>
<trkpt lat="-27.8051715" lon="153.0672998">
<ele>56.670</ele>
<time>2016-01-15T23:05:13.851Z</time>
</trkpt>
<trkpt lat="-27.8053279" lon="153.0665265">
<ele>55.995</ele>
<time>2016-01-15T23:05:16.891Z</time>
</trkpt>
<trkpt lat="-27.8054847" lon="153.0657382">
<ele>55.541</ele>
<time>2016-01-15T23:05:19.929Z</time>
</trkpt>
<trkpt lat="-27.8055844" lon="153.0652504">
<ele>55.930</ele>
<time>2016-01-15T23:05:21.894Z</time>
</trkpt>
<trkpt lat="-27.8056838" lon="153.0647927">
<ele>56.247</ele>
<time>2016-01-15T23:05:23.832Z</time>
</trkpt>
<trkpt lat="-27.8057908" lon="153.0641080">
<ele>55.639</ele>
<time>2016-01-15T23:05:26.765Z</time>
</trkpt>
<trkpt lat="-27.8059485" lon="153.0634182">
<ele>54.711</ele>
<time>2016-01-15T23:05:29.754Z</time>
</trkpt>
<trkpt lat="-27.8060646" lon="153.0629489">
<ele>54.693</ele>
<time>2016-01-15T23:05:31.757Z</time>
</trkpt>
<trkpt lat="-27.8062173" lon="153.0622361">
<ele>55.844</ele>
<time>2016-01-15T23:05:34.767Z</time>
</trkpt>
<trkpt lat="-27.8062620" lon="153.0617528">
<ele>56.957</ele>
<time>2016-01-15T23:05:36.765Z</time>
</trkpt>
<trkpt lat="-27.8062857" lon="153.0612986">
<ele>56.990</ele>
<time>2016-01-15T23:05:38.634Z</time>
</trkpt>
<trkpt lat="-27.8063143" lon="153.0605856">
<ele>56.139</ele>
<time>2016-01-15T23:05:41.533Z</time>
</trkpt>
<trkpt lat="-27.8062790" lon="153.0600885">
<ele>54.823</ele>
<time>2016-01-15T23:05:43.540Z</time>
</trkpt>
<trkpt lat="-27.8062298" lon="153.0595790">
<ele>53.081</ele>
<time>2016-01-15T23:05:45.619Z</time>
</trkpt>
<trkpt lat="-27.8061526" lon="153.0588742">
<ele>51.127</ele>
<time>2016-01-15T23:05:48.561Z</time>
</trkpt>
<trkpt lat="-27.8061277" lon="153.0584055">
<ele>49.298</ele>
<time>2016-01-15T23:05:50.520Z</time>
</trkpt>
<trkpt lat="-27.8060961" lon="153.0579272">
<ele>47.811</ele>
<time>2016-01-15T23:05:52.497Z</time>
</trkpt>
<trkpt lat="-27.8060426" lon="153.0574359">
<ele>47.064</ele>
<time>2016-01-15T23:05:54.540Z</time>
</trkpt>
<trkpt lat="-27.8059700" lon="153.0567683">
<ele>47.268</ele>
<time>2016-01-15T23:05:57.440Z</time>
</trkpt>
<trkpt lat="-27.8058956" lon="153.0561187">
<ele>47.818</ele>
<time>2016-01-15T23:06:00.385Z</time>
</trkpt>
<trkpt lat="-27.8058505" lon="153.0554404">
<ele>48.502</ele>
<time>2016-01-15T23:06:03.382Z</time>
</trkpt>
<trkpt lat="-27.8058428" lon="153.0549791">
<ele>49.731</ele>
<time>2016-01-15T23:06:05.372Z</time>
</trkpt>
<trkpt lat="-27.8058457" lon="153.0542667">
<ele>51.329</ele>
<time>2016-01-15T23:06:08.436Z</time>
</trkpt>
<trkpt lat="-27.8058871" lon="153.0535765">
<ele>52.721</ele>
<time>2016-01-15T23:06:11.395Z</time>
</trkpt>
<trkpt lat="-27.8059156" lon="153.0531089">
<ele>53.984</ele>
<time>2016-01-15T23:06:13.390Z</time>
</trkpt>
<trkpt lat="-27.8059683" lon="153.0524202">
<ele>55.243</ele>
<time>2016-01-15T23:06:16.353Z</time>
</trkpt>
<trkpt lat="-27.8060061" lon="153.0519561">
<ele>56.046</ele>
<time>2016-01-15T23:06:18.380Z</time>
</trkpt>
<trkpt lat="-27.8060307" lon="153.0515199">
<ele>56.151</ele>
<time>2016-01-15T23:06:20.319Z</time>
</trkpt>
<trkpt lat="-27.8060758" lon="153.0510935">
<ele>55.900</ele>
<time>2016-01-15T23:06:22.268Z</time>
</trkpt>
<trkpt lat="-27.8061261" lon="153.0504551">
<ele>55.655</ele>
<time>2016-01-15T23:06:25.208Z</time>
</trkpt>
<trkpt lat="-27.8061552" lon="153.0500204">
<ele>55.744</ele>
<time>2016-01-15T23:06:27.193Z</time>
</trkpt>
<trkpt lat="-27.8061425" lon="153.0495750">
<ele>56.280</ele>
<time>2016-01-15T23:06:29.201Z</time>
</trkpt>
<trkpt lat="-27.8061861" lon="153.0491329">
<ele>57.077</ele>
<time>2016-01-15T23:06:31.178Z</time>
</trkpt>
<trkpt lat="-27.8062656" lon="153.0484622">
<ele>57.923</ele>
<time>2016-01-15T23:06:34.111Z</time>
</trkpt>
<trkpt lat="-27.8063537" lon="153.0480038">
<ele>58.634</ele>
<time>2016-01-15T23:06:36.086Z</time>
</trkpt>
<trkpt lat="-27.8064635" lon="153.0475286">
<ele>59.232</ele>
<time>2016-01-15T23:06:38.119Z</time>
</trkpt>
<trkpt lat="-27.8066078" lon="153.0470773">
<ele>59.867</ele>
<time>2016-01-15T23:06:40.098Z</time>
</trkpt>
<trkpt lat="-27.8068905" lon="153.0464053">
<ele>60.360</ele>
<time>2016-01-15T23:06:43.135Z</time>
</trkpt>
<trkpt lat="-27.8072647" lon="153.0458030">
<ele>60.534</ele>
<time>2016-01-15T23:06:46.109Z</time>
</trkpt>
<trkpt lat="-27.8076741" lon="153.0452152">
<ele>60.425</ele>
<time>2016-01-15T23:06:49.150Z</time>
</trkpt>
<trkpt lat="-27.8081237" lon="153.0446535">
<ele>60.083</ele>
<time>2016-01-15T23:06:52.241Z</time>
</trkpt>
<trkpt lat="-27.8085564" lon="153.0441280">
<ele>59.516</ele>
<time>2016-01-15T23:06:55.186Z</time>
</trkpt>
<trkpt lat="-27.8088627" lon="153.0437456">
<ele>58.622</ele>
<time>2016-01-15T23:06:57.305Z</time>
</trkpt>
<trkpt lat="-27.8091131" lon="153.0433625">
<ele>57.457</ele>
<time>2016-01-15T23:06:59.257Z</time>
</trkpt>
<trkpt lat="-27.8094633" lon="153.0427675">
<ele>55.932</ele>
<time>2016-01-15T23:07:02.181Z</time>
</trkpt>
<trkpt lat="-27.8096628" lon="153.0423341">
<ele>53.672</ele>
<time>2016-01-15T23:07:04.172Z</time>
</trkpt>
<trkpt lat="-27.8098163" lon="153.0418765">
<ele>50.839</ele>
<time>2016-01-15T23:07:06.161Z</time>
</trkpt>
<trkpt lat="-27.8100042" lon="153.0411593">
<ele>48.303</ele>
<time>2016-01-15T23:07:09.199Z</time>
</trkpt>
<trkpt lat="-27.8101070" lon="153.0404311">
<ele>46.231</ele>
<time>2016-01-15T23:07:12.156Z</time>
</trkpt>
<trkpt lat="-27.8101762" lon="153.0399249">
<ele>44.231</ele>
<time>2016-01-15T23:07:14.137Z</time>
</trkpt>
<trkpt lat="-27.8102825" lon="153.0391510">
<ele>42.572</ele>
<time>2016-01-15T23:07:17.092Z</time>
</trkpt>
<trkpt lat="-27.8103811" lon="153.0383968">
<ele>41.298</ele>
<time>2016-01-15T23:07:19.991Z</time>
</trkpt>
<trkpt lat="-27.8105254" lon="153.0376847">
<ele>39.934</ele>
<time>2016-01-15T23:07:22.925Z</time>
</trkpt>
<trkpt lat="-27.8106145" lon="153.0370056">
<ele>38.371</ele>
<time>2016-01-15T23:07:25.816Z</time>
</trkpt>
<trkpt lat="-27.8106894" lon="153.0365398">
<ele>36.655</ele>
<time>2016-01-15T23:07:27.822Z</time>
</trkpt>
<trkpt lat="-27.8107723" lon="153.0358338">
<ele>35.146</ele>
<time>2016-01-15T23:07:30.830Z</time>
</trkpt>
<trkpt lat="-27.8108207" lon="153.0353517">
<ele>34.388</ele>
<time>2016-01-15T23:07:32.864Z</time>
</trkpt>
<trkpt lat="-27.8109053" lon="153.0349046">
<ele>34.262</ele>
<time>2016-01-15T23:07:34.793Z</time>
</trkpt>
<trkpt lat="-27.8109645" lon="153.0342099">
<ele>34.314</ele>
<time>2016-01-15T23:07:37.767Z</time>
</trkpt>
<trkpt lat="-27.8110393" lon="153.0335408">
<ele>34.089</ele>
<time>2016-01-15T23:07:40.712Z</time>
</trkpt>
<trkpt lat="-27.8111365" lon="153.0331274">
<ele>33.224</ele>
<time>2016-01-15T23:07:42.641Z</time>
</trkpt>
<trkpt lat="-27.8113304" lon="153.0324799">
<ele>31.923</ele>
<time>2016-01-15T23:07:45.703Z</time>
</trkpt>
<trkpt lat="-27.8115910" lon="153.0318569">
<ele>31.006</ele>
<time>2016-01-15T23:07:48.682Z</time>
</trkpt>
<trkpt lat="-27.8118941" lon="153.0312735">
<ele>30.889</ele>
<time>2016-01-15T23:07:51.656Z</time>
</trkpt>
<trkpt lat="-27.8122069" lon="153.0307554">
<ele>31.117</ele>
<time>2016-01-15T23:07:54.662Z</time>
</trkpt>
<trkpt lat="-27.8123947" lon="153.0304825">
<ele>30.686</ele>
<time>2016-01-15T23:07:56.540Z</time>
</trkpt>
<trkpt lat="-27.8126103" lon="153.0301447">
<ele>29.001</ele>
<time>2016-01-15T23:07:59.239Z</time>
</trkpt>
<trkpt lat="-27.8126797" lon="153.0299768">
<ele>26.533</ele>
<time>2016-01-15T23:08:00.631Z</time>
</trkpt>
<trkpt lat="-27.8127990" lon="153.0297732">
<ele>24.093</ele>
<time>2016-01-15T23:08:02.774Z</time>
</trkpt>
<trkpt lat="-27.8129078" lon="153.0295704">
<ele>22.235</ele>
<time>2016-01-15T23:08:05.367Z</time>
</trkpt>
<trkpt lat="-27.8129681" lon="153.0294558">
<ele>21.303</ele>
<time>2016-01-15T23:08:06.985Z</time>
</trkpt>
<trkpt lat="-27.8130010" lon="153.0293365">
<ele>21.151</ele>
<time>2016-01-15T23:08:08.554Z</time>
</trkpt>
<trkpt lat="-27.8130477" lon="153.0292194">
<ele>21.371</ele>
<time>2016-01-15T23:08:10.314Z</time>
</trkpt>
<trkpt lat="-27.8130794" lon="153.0290683">
<ele>21.630</ele>
<time>2016-01-15T23:08:12.670Z</time>
</trkpt>
<trkpt lat="-27.8131645" lon="153.0289787">
<ele>21.773</ele>
<time>2016-01-15T23:08:14.832Z</time>
</trkpt>
<trkpt lat="-27.8132888" lon="153.0289203">
<ele>21.881</ele>
<time>2016-01-15T23:08:17.732Z</time>
</trkpt>
<trkpt lat="-27.8135067" lon="153.0288959">
<ele>22.330</ele>
<time>2016-01-15T23:08:22.751Z</time>
</trkpt>
<trkpt lat="-27.8140165" lon="153.0289229">
<ele>23.552</ele>
<time>2016-01-15T23:08:27.536Z</time>
</trkpt>
<trkpt lat="-27.8145967" lon="153.0289898">
<ele>26.327</ele>
<time>2016-01-15T23:08:31.432Z</time>
</trkpt>
<trkpt lat="-27.8150165" lon="153.0290540">
<ele>30.416</ele>
<time>2016-01-15T23:08:33.829Z</time>
</trkpt>
<trkpt lat="-27.8156206" lon="153.0291628">
<ele>33.713</ele>
<time>2016-01-15T23:08:36.996Z</time>
</trkpt>
<trkpt lat="-27.8160079" lon="153.0292396">
<ele>34.687</ele>
<time>2016-01-15T23:08:38.982Z</time>
</trkpt>
<trkpt lat="-27.8163950" lon="153.0293063">
<ele>34.002</ele>
<time>2016-01-15T23:08:40.975Z</time>
</trkpt>
<trkpt lat="-27.8169737" lon="153.0293825">
<ele>32.874</ele>
<time>2016-01-15T23:08:43.961Z</time>
</trkpt>
<trkpt lat="-27.8173652" lon="153.0294737">
<ele>31.959</ele>
<time>2016-01-15T23:08:46.040Z</time>
</trkpt>
<trkpt lat="-27.8177331" lon="153.0295780">
<ele>31.360</ele>
<time>2016-01-15T23:08:48.029Z</time>
</trkpt>
<trkpt lat="-27.8181032" lon="153.0296581">
<ele>31.209</ele>
<time>2016-01-15T23:08:50.012Z</time>
</trkpt>
<trkpt lat="-27.8186681" lon="153.0297637">
<ele>31.488</ele>
<time>2016-01-15T23:08:53.057Z</time>
</trkpt>
<trkpt lat="-27.8190259" lon="153.0297934">
<ele>31.757</ele>
<time>2016-01-15T23:08:55.078Z</time>
</trkpt>
<trkpt lat="-27.8195070" lon="153.0297733">
<ele>31.585</ele>
<time>2016-01-15T23:08:58.025Z</time>
</trkpt>
<trkpt lat="-27.8199350" lon="153.0297626">
<ele>30.897</ele>
<time>2016-01-15T23:09:01.051Z</time>
</trkpt>
<trkpt lat="-27.8201737" lon="153.0297613">
<ele>29.626</ele>
<time>2016-01-15T23:09:03.104Z</time>
</trkpt>
<trkpt lat="-27.8204569" lon="153.0297589">
<ele>27.946</ele>
<time>2016-01-15T23:09:05.980Z</time>
</trkpt>
<trkpt lat="-27.8205920" lon="153.0297304">
<ele>26.541</ele>
<time>2016-01-15T23:09:07.891Z</time>
</trkpt>
<trkpt lat="-27.8207347" lon="153.0297285">
<ele>25.719</ele>
<time>2016-01-15T23:09:10.413Z</time>
</trkpt>
<trkpt lat="-27.8208544" lon="153.0297285">
<ele>25.082</ele>
<time>2016-01-15T23:09:13.248Z</time>
</trkpt>
<trkpt lat="-27.8209829" lon="153.0297194">
<ele>24.442</ele>
<time>2016-01-15T23:09:16.526Z</time>
</trkpt>
<trkpt lat="-27.8210945" lon="153.0297202">
<ele>23.987</ele>
<time>2016-01-15T23:09:19.841Z</time>
</trkpt>
<trkpt lat="-27.8211870" lon="153.0297050">
<ele>23.807</ele>
<time>2016-01-15T23:09:23.996Z</time>
</trkpt>
<trkpt lat="-27.8211870" lon="153.0297050">
<ele>23.799</ele>
<time>2016-01-15T23:09:29.996Z</time>
</trkpt>
<trkpt lat="-27.8211870" lon="153.0297050">
<ele>23.823</ele>
<time>2016-01-15T23:09:35.392Z</time>
</trkpt>
<trkpt lat="-27.8214169" lon="153.0296789">
<ele>23.814</ele>
<time>2016-01-15T23:09:40.445Z</time>
</trkpt>
<trkpt lat="-27.8216199" lon="153.0296635">
<ele>24.765</ele>
<time>2016-01-15T23:09:42.522Z</time>
</trkpt>
<trkpt lat="-27.8219830" lon="153.0296109">
<ele>27.480</ele>
<time>2016-01-15T23:09:45.744Z</time>
</trkpt>
<trkpt lat="-27.8223832" lon="153.0295345">
<ele>30.857</ele>
<time>2016-01-15T23:09:48.941Z</time>
</trkpt>
<trkpt lat="-27.8226380" lon="153.0294808">
<ele>33.391</ele>
<time>2016-01-15T23:09:50.740Z</time>
</trkpt>
<trkpt lat="-27.8229467" lon="153.0294393">
<ele>34.852</ele>
<time>2016-01-15T23:09:52.726Z</time>
</trkpt>
<trkpt lat="-27.8232778" lon="153.0294190">
<ele>35.978</ele>
<time>2016-01-15T23:09:54.762Z</time>
</trkpt>
<trkpt lat="-27.8237765" lon="153.0293862">
<ele>37.494</ele>
<time>2016-01-15T23:09:57.779Z</time>
</trkpt>
<trkpt lat="-27.8241305" lon="153.0293625">
<ele>39.148</ele>
<time>2016-01-15T23:09:59.862Z</time>
</trkpt>
<trkpt lat="-27.8246762" lon="153.0293307">
<ele>40.569</ele>
<time>2016-01-15T23:10:03.026Z</time>
</trkpt>
<trkpt lat="-27.8250263" lon="153.0292832">
<ele>41.754</ele>
<time>2016-01-15T23:10:05.102Z</time>
</trkpt>
<trkpt lat="-27.8253608" lon="153.0292274">
<ele>42.783</ele>
<time>2016-01-15T23:10:07.130Z</time>
</trkpt>
<trkpt lat="-27.8258500" lon="153.0291845">
<ele>43.872</ele>
<time>2016-01-15T23:10:10.063Z</time>
</trkpt>
<trkpt lat="-27.8261906" lon="153.0291557">
<ele>45.232</ele>
<time>2016-01-15T23:10:12.061Z</time>
</trkpt>
<trkpt lat="-27.8267080" lon="153.0291176">
<ele>46.832</ele>
<time>2016-01-15T23:10:15.096Z</time>
</trkpt>
<trkpt lat="-27.8272093" lon="153.0290686">
<ele>48.647</ele>
<time>2016-01-15T23:10:18.061Z</time>
</trkpt>
<trkpt lat="-27.8275526" lon="153.0290552">
<ele>50.604</ele>
<time>2016-01-15T23:10:20.024Z</time>
</trkpt>
<trkpt lat="-27.8280891" lon="153.0290079">
<ele>52.235</ele>
<time>2016-01-15T23:10:23.088Z</time>
</trkpt>
<trkpt lat="-27.8286225" lon="153.0289719">
<ele>52.920</ele>
<time>2016-01-15T23:10:26.188Z</time>
</trkpt>
<trkpt lat="-27.8289483" lon="153.0289456">
<ele>52.723</ele>
<time>2016-01-15T23:10:28.092Z</time>
</trkpt>
<trkpt lat="-27.8294419" lon="153.0288921">
<ele>52.295</ele>
<time>2016-01-15T23:10:30.954Z</time>
</trkpt>
<trkpt lat="-27.8298044" lon="153.0288543">
<ele>52.191</ele>
<time>2016-01-15T23:10:33.021Z</time>
</trkpt>
<trkpt lat="-27.8303225" lon="153.0287764">
<ele>52.444</ele>
<time>2016-01-15T23:10:35.987Z</time>
</trkpt>
<trkpt lat="-27.8306635" lon="153.0287142">
<ele>53.128</ele>
<time>2016-01-15T23:10:37.951Z</time>
</trkpt>
<trkpt lat="-27.8311652" lon="153.0285798">
<ele>54.303</ele>
<time>2016-01-15T23:10:40.889Z</time>
</trkpt>
<trkpt lat="-27.8315054" lon="153.0284870">
<ele>55.395</ele>
<time>2016-01-15T23:10:42.886Z</time>
</trkpt>
<trkpt lat="-27.8320294" lon="153.0283561">
<ele>55.657</ele>
<time>2016-01-15T23:10:45.974Z</time>
</trkpt>
<trkpt lat="-27.8325078" lon="153.0281869">
<ele>54.855</ele>
<time>2016-01-15T23:10:48.966Z</time>
</trkpt>
<trkpt lat="-27.8329701" lon="153.0280103">
<ele>53.162</ele>
<time>2016-01-15T23:10:52.056Z</time>
</trkpt>
<trkpt lat="-27.8332627" lon="153.0279143">
<ele>50.934</ele>
<time>2016-01-15T23:10:54.084Z</time>
</trkpt>
<trkpt lat="-27.8336815" lon="153.0277529">
<ele>48.512</ele>
<time>2016-01-15T23:10:56.989Z</time>
</trkpt>
<trkpt lat="-27.8339734" lon="153.0276264">
<ele>46.210</ele>
<time>2016-01-15T23:10:58.890Z</time>
</trkpt>
<trkpt lat="-27.8344656" lon="153.0274295">
<ele>44.432</ele>
<time>2016-01-15T23:11:01.976Z</time>
</trkpt>
<trkpt lat="-27.8349443" lon="153.0272409">
<ele>43.412</ele>
<time>2016-01-15T23:11:04.953Z</time>
</trkpt>
<trkpt lat="-27.8352422" lon="153.0271151">
<ele>42.630</ele>
<time>2016-01-15T23:11:06.853Z</time>
</trkpt>
<trkpt lat="-27.8357114" lon="153.0269020">
<ele>41.437</ele>
<time>2016-01-15T23:11:09.944Z</time>
</trkpt>
<trkpt lat="-27.8361381" lon="153.0267027">
<ele>40.034</ele>
<time>2016-01-15T23:11:12.896Z</time>
</trkpt>
<trkpt lat="-27.8363899" lon="153.0265751">
<ele>38.603</ele>
<time>2016-01-15T23:11:14.727Z</time>
</trkpt>
<trkpt lat="-27.8368000" lon="153.0264078">
<ele>37.118</ele>
<time>2016-01-15T23:11:17.606Z</time>
</trkpt>
<trkpt lat="-27.8371096" lon="153.0262847">
<ele>36.014</ele>
<time>2016-01-15T23:11:19.701Z</time>
</trkpt>
<trkpt lat="-27.8374068" lon="153.0261402">
<ele>35.564</ele>
<time>2016-01-15T23:11:21.656Z</time>
</trkpt>
<trkpt lat="-27.8378819" lon="153.0258776">
<ele>35.702</ele>
<time>2016-01-15T23:11:24.582Z</time>
</trkpt>
<trkpt lat="-27.8382170" lon="153.0256732">
<ele>36.560</ele>
<time>2016-01-15T23:11:26.567Z</time>
</trkpt>
<trkpt lat="-27.8385548" lon="153.0254720">
<ele>38.339</ele>
<time>2016-01-15T23:11:28.536Z</time>
</trkpt>
<trkpt lat="-27.8390652" lon="153.0251616">
<ele>40.787</ele>
<time>2016-01-15T23:11:31.511Z</time>
</trkpt>
<trkpt lat="-27.8394066" lon="153.0249582">
<ele>43.293</ele>
<time>2016-01-15T23:11:33.480Z</time>
</trkpt>
<trkpt lat="-27.8397448" lon="153.0247444">
<ele>45.485</ele>
<time>2016-01-15T23:11:35.458Z</time>
</trkpt>
<trkpt lat="-27.8400468" lon="153.0245437">
<ele>47.324</ele>
<time>2016-01-15T23:11:37.270Z</time>
</trkpt>
<trkpt lat="-27.8405697" lon="153.0242305">
<ele>48.673</ele>
<time>2016-01-15T23:11:40.352Z</time>
</trkpt>
<trkpt lat="-27.8410786" lon="153.0239329">
<ele>49.360</ele>
<time>2016-01-15T23:11:43.315Z</time>
</trkpt>
<trkpt lat="-27.8414484" lon="153.0237173">
<ele>49.448</ele>
<time>2016-01-15T23:11:45.410Z</time>
</trkpt>
<trkpt lat="-27.8418069" lon="153.0234790">
<ele>49.254</ele>
<time>2016-01-15T23:11:47.453Z</time>
</trkpt>
<trkpt lat="-27.8423458" lon="153.0231359">
<ele>48.936</ele>
<time>2016-01-15T23:11:50.480Z</time>
</trkpt>
<trkpt lat="-27.8428811" lon="153.0228036">
<ele>48.093</ele>
<time>2016-01-15T23:11:53.494Z</time>
</trkpt>
<trkpt lat="-27.8432205" lon="153.0225778">
<ele>46.232</ele>
<time>2016-01-15T23:11:55.452Z</time>
</trkpt>
<trkpt lat="-27.8435834" lon="153.0223568">
<ele>43.736</ele>
<time>2016-01-15T23:11:57.489Z</time>
</trkpt>
<trkpt lat="-27.8441097" lon="153.0219963">
<ele>41.648</ele>
<time>2016-01-15T23:12:00.494Z</time>
</trkpt>
<trkpt lat="-27.8446171" lon="153.0216188">
<ele>40.592</ele>
<time>2016-01-15T23:12:03.423Z</time>
</trkpt>
<trkpt lat="-27.8451210" lon="153.0212351">
<ele>40.480</ele>
<time>2016-01-15T23:12:06.334Z</time>
</trkpt>
<trkpt lat="-27.8454814" lon="153.0209730">
<ele>40.814</ele>
<time>2016-01-15T23:12:08.367Z</time>
</trkpt>
<trkpt lat="-27.8460089" lon="153.0205804">
<ele>41.149</ele>
<time>2016-01-15T23:12:11.349Z</time>
</trkpt>
<trkpt lat="-27.8463699" lon="153.0203223">
<ele>41.465</ele>
<time>2016-01-15T23:12:13.419Z</time>
</trkpt>
<trkpt lat="-27.8468509" lon="153.0199677">
<ele>41.880</ele>
<time>2016-01-15T23:12:16.315Z</time>
</trkpt>
<trkpt lat="-27.8473389" lon="153.0196281">
<ele>41.884</ele>
<time>2016-01-15T23:12:19.322Z</time>
</trkpt>
<trkpt lat="-27.8476472" lon="153.0193745">
<ele>41.128</ele>
<time>2016-01-15T23:12:21.356Z</time>
</trkpt>
<trkpt lat="-27.8479480" lon="153.0191424">
<ele>40.351</ele>
<time>2016-01-15T23:12:23.317Z</time>
</trkpt>
<trkpt lat="-27.8483384" lon="153.0186941">
<ele>40.397</ele>
<time>2016-01-15T23:12:26.313Z</time>
</trkpt>
<trkpt lat="-27.8486119" lon="153.0184054">
<ele>41.211</ele>
<time>2016-01-15T23:12:28.313Z</time>
</trkpt>
<trkpt lat="-27.8488760" lon="153.0180960">
<ele>42.247</ele>
<time>2016-01-15T23:12:30.346Z</time>
</trkpt>
<trkpt lat="-27.8492688" lon="153.0176401">
<ele>43.007</ele>
<time>2016-01-15T23:12:33.302Z</time>
</trkpt>
<trkpt lat="-27.8495888" lon="153.0170883">
<ele>43.340</ele>
<time>2016-01-15T23:12:36.188Z</time>
</trkpt>
<trkpt lat="-27.8498895" lon="153.0166906">
<ele>44.174</ele>
<time>2016-01-15T23:12:38.269Z</time>
</trkpt>
<trkpt lat="-27.8501727" lon="153.0162781">
<ele>46.339</ele>
<time>2016-01-15T23:12:40.253Z</time>
</trkpt>
<trkpt lat="-27.8506624" lon="153.0156888">
<ele>49.650</ele>
<time>2016-01-15T23:12:43.310Z</time>
</trkpt>
<trkpt lat="-27.8510875" lon="153.0151077">
<ele>53.236</ele>
<time>2016-01-15T23:12:46.218Z</time>
</trkpt>
<trkpt lat="-27.8514843" lon="153.0145223">
<ele>56.148</ele>
<time>2016-01-15T23:12:49.102Z</time>
</trkpt>
<trkpt lat="-27.8519548" lon="153.0139107">
<ele>58.271</ele>
<time>2016-01-15T23:12:52.225Z</time>
</trkpt>
<trkpt lat="-27.8522591" lon="153.0135064">
<ele>60.693</ele>
<time>2016-01-15T23:12:54.211Z</time>
</trkpt>
<trkpt lat="-27.8526984" lon="153.0128588">
<ele>63.822</ele>
<time>2016-01-15T23:12:57.218Z</time>
</trkpt>
<trkpt lat="-27.8530362" lon="153.0124465">
<ele>67.554</ele>
<time>2016-01-15T23:12:59.283Z</time>
</trkpt>
<trkpt lat="-27.8534814" lon="153.0118154">
<ele>71.505</ele>
<time>2016-01-15T23:13:02.274Z</time>
</trkpt>
<trkpt lat="-27.8537267" lon="153.0113784">
<ele>74.595</ele>
<time>2016-01-15T23:13:04.195Z</time>
</trkpt>
<trkpt lat="-27.8541852" lon="153.0107361">
<ele>75.953</ele>
<time>2016-01-15T23:13:07.258Z</time>
</trkpt>
<trkpt lat="-27.8544578" lon="153.0103259">
<ele>75.721</ele>
<time>2016-01-15T23:13:09.188Z</time>
</trkpt>
<trkpt lat="-27.8548643" lon="153.0096882">
<ele>74.096</ele>
<time>2016-01-15T23:13:12.135Z</time>
</trkpt>
<trkpt lat="-27.8551683" lon="153.0092334">
<ele>71.383</ele>
<time>2016-01-15T23:13:14.181Z</time>
</trkpt>
<trkpt lat="-27.8554900" lon="153.0087820">
<ele>68.573</ele>
<time>2016-01-15T23:13:16.229Z</time>
</trkpt>
<trkpt lat="-27.8559386" lon="153.0081520">
<ele>66.245</ele>
<time>2016-01-15T23:13:19.162Z</time>
</trkpt>
<trkpt lat="-27.8563471" lon="153.0075607">
<ele>63.406</ele>
<time>2016-01-15T23:13:22.023Z</time>
</trkpt>
<trkpt lat="-27.8566173" lon="153.0071578">
<ele>58.954</ele>
<time>2016-01-15T23:13:24.012Z</time>
</trkpt>
<trkpt lat="-27.8568820" lon="153.0067711">
<ele>54.000</ele>
<time>2016-01-15T23:13:25.972Z</time>
</trkpt>
<trkpt lat="-27.8572680" lon="153.0061872">
<ele>50.438</ele>
<time>2016-01-15T23:13:28.924Z</time>
</trkpt>
<trkpt lat="-27.8575599" lon="153.0057858">
<ele>48.660</ele>
<time>2016-01-15T23:13:30.978Z</time>
</trkpt>
<trkpt lat="-27.8578327" lon="153.0053483">
<ele>48.335</ele>
<time>2016-01-15T23:13:33.037Z</time>
</trkpt>
<trkpt lat="-27.8582296" lon="153.0047119">
<ele>49.095</ele>
<time>2016-01-15T23:13:36.045Z</time>
</trkpt>
<trkpt lat="-27.8585012" lon="153.0043322">
<ele>49.963</ele>
<time>2016-01-15T23:13:37.982Z</time>
</trkpt>
<trkpt lat="-27.8589126" lon="153.0037519">
<ele>50.278</ele>
<time>2016-01-15T23:13:40.964Z</time>
</trkpt>
<trkpt lat="-27.8593721" lon="153.0032338">
<ele>50.337</ele>
<time>2016-01-15T23:13:43.949Z</time>
</trkpt>
<trkpt lat="-27.8596982" lon="153.0029041">
<ele>50.713</ele>
<time>2016-01-15T23:13:45.973Z</time>
</trkpt>
<trkpt lat="-27.8601984" lon="153.0024392">
<ele>51.557</ele>
<time>2016-01-15T23:13:48.939Z</time>
</trkpt>
<trkpt lat="-27.8605717" lon="153.0021427">
<ele>52.640</ele>
<time>2016-01-15T23:13:50.969Z</time>
</trkpt>
<trkpt lat="-27.8611744" lon="153.0016952">
<ele>53.895</ele>
<time>2016-01-15T23:13:54.089Z</time>
</trkpt>
<trkpt lat="-27.8617523" lon="153.0012536">
<ele>55.372</ele>
<time>2016-01-15T23:13:57.052Z</time>
</trkpt>
<trkpt lat="-27.8621566" lon="153.0009689">
<ele>57.039</ele>
<time>2016-01-15T23:13:59.101Z</time>
</trkpt>
<trkpt lat="-27.8627318" lon="153.0005801">
<ele>58.742</ele>
<time>2016-01-15T23:14:02.058Z</time>
</trkpt>
<trkpt lat="-27.8631048" lon="153.0003757">
<ele>60.076</ele>
<time>2016-01-15T23:14:03.971Z</time>
</trkpt>
<trkpt lat="-27.8636882" lon="153.0000873">
<ele>60.506</ele>
<time>2016-01-15T23:14:06.959Z</time>
</trkpt>
<trkpt lat="-27.8641261" lon="152.9999402">
<ele>60.061</ele>
<time>2016-01-15T23:14:09.072Z</time>
</trkpt>
<trkpt lat="-27.8648018" lon="152.9997590">
<ele>59.489</ele>
<time>2016-01-15T23:14:12.212Z</time>
</trkpt>
<trkpt lat="-27.8652458" lon="152.9996607">
<ele>59.411</ele>
<time>2016-01-15T23:14:14.222Z</time>
</trkpt>
<trkpt lat="-27.8658969" lon="152.9995126">
<ele>59.870</ele>
<time>2016-01-15T23:14:17.144Z</time>
</trkpt>
<trkpt lat="-27.8663729" lon="152.9993996">
<ele>60.606</ele>
<time>2016-01-15T23:14:19.221Z</time>
</trkpt>
<trkpt lat="-27.8668565" lon="152.9992928">
<ele>61.250</ele>
<time>2016-01-15T23:14:21.262Z</time>
</trkpt>
<trkpt lat="-27.8675937" lon="152.9991421">
<ele>62.121</ele>
<time>2016-01-15T23:14:24.312Z</time>
</trkpt>
<trkpt lat="-27.8680853" lon="152.9990372">
<ele>63.829</ele>
<time>2016-01-15T23:14:26.344Z</time>
</trkpt>
<trkpt lat="-27.8687854" lon="152.9988475">
<ele>66.045</ele>
<time>2016-01-15T23:14:29.289Z</time>
</trkpt>
<trkpt lat="-27.8692388" lon="152.9986685">
<ele>68.436</ele>
<time>2016-01-15T23:14:31.277Z</time>
</trkpt>
<trkpt lat="-27.8696868" lon="152.9984578">
<ele>71.334</ele>
<time>2016-01-15T23:14:33.325Z</time>
</trkpt>
<trkpt lat="-27.8703098" lon="152.9981050">
<ele>74.310</ele>
<time>2016-01-15T23:14:36.319Z</time>
</trkpt>
<trkpt lat="-27.8709095" lon="152.9977045">
<ele>76.545</ele>
<time>2016-01-15T23:14:39.375Z</time>
</trkpt>
<trkpt lat="-27.8714526" lon="152.9972415">
<ele>78.686</ele>
<time>2016-01-15T23:14:42.411Z</time>
</trkpt>
<trkpt lat="-27.8718982" lon="152.9967168">
<ele>81.476</ele>
<time>2016-01-15T23:14:45.296Z</time>
</trkpt>
<trkpt lat="-27.8722211" lon="152.9963474">
<ele>84.276</ele>
<time>2016-01-15T23:14:47.276Z</time>
</trkpt>
<trkpt lat="-27.8727262" lon="152.9956937">
<ele>87.032</ele>
<time>2016-01-15T23:14:50.477Z</time>
</trkpt>
<trkpt lat="-27.8731700" lon="152.9950827">
<ele>90.745</ele>
<time>2016-01-15T23:14:53.361Z</time>
</trkpt>
<trkpt lat="-27.8736346" lon="152.9944786">
<ele>94.879</ele>
<time>2016-01-15T23:14:56.307Z</time>
</trkpt>
<trkpt lat="-27.8739380" lon="152.9940680">
<ele>97.938</ele>
<time>2016-01-15T23:14:58.303Z</time>
</trkpt>
<trkpt lat="-27.8744638" lon="152.9934968">
<ele>99.669</ele>
<time>2016-01-15T23:15:01.416Z</time>
</trkpt>
<trkpt lat="-27.8747947" lon="152.9931194">
<ele>100.461</ele>
<time>2016-01-15T23:15:03.433Z</time>
</trkpt>
<trkpt lat="-27.8751011" lon="152.9927308">
<ele>100.530</ele>
<time>2016-01-15T23:15:05.389Z</time>
</trkpt>
<trkpt lat="-27.8754497" lon="152.9923588">
<ele>100.367</ele>
<time>2016-01-15T23:15:07.402Z</time>
</trkpt>
<trkpt lat="-27.8757903" lon="152.9920064">
<ele>100.584</ele>
<time>2016-01-15T23:15:09.339Z</time>
</trkpt>
<trkpt lat="-27.8763535" lon="152.9914952">
<ele>101.739</ele>
<time>2016-01-15T23:15:12.427Z</time>
</trkpt>
<trkpt lat="-27.8766914" lon="152.9912150">
<ele>104.092</ele>
<time>2016-01-15T23:15:14.310Z</time>
</trkpt>
<trkpt lat="-27.8772770" lon="152.9908093">
<ele>107.059</ele>
<time>2016-01-15T23:15:17.389Z</time>
</trkpt>
<trkpt lat="-27.8776387" lon="152.9905100">
<ele>109.763</ele>
<time>2016-01-15T23:15:19.318Z</time>
</trkpt>
<trkpt lat="-27.8780102" lon="152.9902089">
<ele>112.583</ele>
<time>2016-01-15T23:15:21.288Z</time>
</trkpt>
<trkpt lat="-27.8783888" lon="152.9899287">
<ele>115.917</ele>
<time>2016-01-15T23:15:23.271Z</time>
</trkpt>
<trkpt lat="-27.8789507" lon="152.9894802">
<ele>118.503</ele>
<time>2016-01-15T23:15:26.281Z</time>
</trkpt>
<trkpt lat="-27.8793110" lon="152.9891526">
<ele>119.421</ele>
<time>2016-01-15T23:15:28.247Z</time>
</trkpt>
<trkpt lat="-27.8796777" lon="152.9887885">
<ele>119.254</ele>
<time>2016-01-15T23:15:30.299Z</time>
</trkpt>
<trkpt lat="-27.8801699" lon="152.9882120">
<ele>118.721</ele>
<time>2016-01-15T23:15:33.329Z</time>
</trkpt>
<trkpt lat="-27.8805906" lon="152.9876334">
<ele>117.490</ele>
<time>2016-01-15T23:15:36.228Z</time>
</trkpt>
<trkpt lat="-27.8809114" lon="152.9872311">
<ele>114.637</ele>
<time>2016-01-15T23:15:38.290Z</time>
</trkpt>
<trkpt lat="-27.8812321" lon="152.9868431">
<ele>110.714</ele>
<time>2016-01-15T23:15:40.227Z</time>
</trkpt>
<trkpt lat="-27.8817365" lon="152.9862157">
<ele>107.328</ele>
<time>2016-01-15T23:15:43.198Z</time>
</trkpt>
<trkpt lat="-27.8820695" lon="152.9857551">
<ele>105.119</ele>
<time>2016-01-15T23:15:45.192Z</time>
</trkpt>
<trkpt lat="-27.8824188" lon="152.9852978">
<ele>103.632</ele>
<time>2016-01-15T23:15:47.227Z</time>
</trkpt>
<trkpt lat="-27.8829572" lon="152.9846680">
<ele>102.039</ele>
<time>2016-01-15T23:15:50.273Z</time>
</trkpt>
<trkpt lat="-27.8834155" lon="152.9840678">
<ele>99.174</ele>
<time>2016-01-15T23:15:53.149Z</time>
</trkpt>
<trkpt lat="-27.8839161" lon="152.9834573">
<ele>94.564</ele>
<time>2016-01-15T23:15:56.185Z</time>
</trkpt>
<trkpt lat="-27.8844150" lon="152.9827765">
<ele>89.735</ele>
<time>2016-01-15T23:15:59.363Z</time>
</trkpt>
<trkpt lat="-27.8847073" lon="152.9823363">
<ele>86.469</ele>
<time>2016-01-15T23:16:01.422Z</time>
</trkpt>
<trkpt lat="-27.8850385" lon="152.9817429">
<ele>84.665</ele>
<time>2016-01-15T23:16:04.180Z</time>
</trkpt>
<trkpt lat="-27.8852539" lon="152.9813256">
<ele>83.305</ele>
<time>2016-01-15T23:16:06.148Z</time>
</trkpt>
<trkpt lat="-27.8855698" lon="152.9806837">
<ele>81.972</ele>
<time>2016-01-15T23:16:09.112Z</time>
</trkpt>
<trkpt lat="-27.8857866" lon="152.9802414">
<ele>81.786</ele>
<time>2016-01-15T23:16:11.121Z</time>
</trkpt>
<trkpt lat="-27.8859949" lon="152.9798014">
<ele>83.557</ele>
<time>2016-01-15T23:16:13.037Z</time>
</trkpt>
<trkpt lat="-27.8863546" lon="152.9790764">
<ele>86.282</ele>
<time>2016-01-15T23:16:16.111Z</time>
</trkpt>
<trkpt lat="-27.8867070" lon="152.9783427">
<ele>89.183</ele>
<time>2016-01-15T23:16:19.184Z</time>
</trkpt>
<trkpt lat="-27.8870205" lon="152.9776728">
<ele>91.991</ele>
<time>2016-01-15T23:16:22.140Z</time>
</trkpt>
<trkpt lat="-27.8872295" lon="152.9772737">
<ele>93.357</ele>
<time>2016-01-15T23:16:24.058Z</time>
</trkpt>
<trkpt lat="-27.8874306" lon="152.9768653">
<ele>92.647</ele>
<time>2016-01-15T23:16:26.019Z</time>
</trkpt>
<trkpt lat="-27.8877646" lon="152.9762669">
<ele>90.995</ele>
<time>2016-01-15T23:16:28.995Z</time>
</trkpt>
<trkpt lat="-27.8881548" lon="152.9757131">
<ele>89.478</ele>
<time>2016-01-15T23:16:31.997Z</time>
</trkpt>
<trkpt lat="-27.8884376" lon="152.9753915">
<ele>88.224</ele>
<time>2016-01-15T23:16:34.013Z</time>
</trkpt>
<trkpt lat="-27.8888530" lon="152.9749905">
<ele>87.080</ele>
<time>2016-01-15T23:16:36.917Z</time>
</trkpt>
<trkpt lat="-27.8891297" lon="152.9747610">
<ele>85.456</ele>
<time>2016-01-15T23:16:38.895Z</time>
</trkpt>
<trkpt lat="-27.8894057" lon="152.9745511">
<ele>82.718</ele>
<time>2016-01-15T23:16:40.986Z</time>
</trkpt>
<trkpt lat="-27.8897800" lon="152.9742962">
<ele>79.382</ele>
<time>2016-01-15T23:16:44.033Z</time>
</trkpt>
<trkpt lat="-27.8899864" lon="152.9741391">
<ele>76.426</ele>
<time>2016-01-15T23:16:46.074Z</time>
</trkpt>
<trkpt lat="-27.8902567" lon="152.9739190">
<ele>73.952</ele>
<time>2016-01-15T23:16:49.110Z</time>
</trkpt>
<trkpt lat="-27.8904369" lon="152.9738162">
<ele>71.824</ele>
<time>2016-01-15T23:16:51.368Z</time>
</trkpt>
<trkpt lat="-27.8906298" lon="152.9737191">
<ele>69.957</ele>
<time>2016-01-15T23:16:54.331Z</time>
</trkpt>
<trkpt lat="-27.8907191" lon="152.9736686">
<ele>67.907</ele>
<time>2016-01-15T23:16:56.414Z</time>
</trkpt>
<trkpt lat="-27.8908018" lon="152.9736211">
<ele>65.643</ele>
<time>2016-01-15T23:16:58.812Z</time>
</trkpt>
<trkpt lat="-27.8908919" lon="152.9735793">
<ele>63.856</ele>
<time>2016-01-15T23:17:01.999Z</time>
</trkpt>
<trkpt lat="-27.8908919" lon="152.9735793">
<ele>62.995</ele>
<time>2016-01-15T23:17:05.999Z</time>
</trkpt>
<trkpt lat="-27.8908919" lon="152.9735793">
<ele>62.813</ele>
<time>2016-01-15T23:17:15.165Z</time>
</trkpt>
<trkpt lat="-27.8910729" lon="152.9734433">
<ele>62.855</ele>
<time>2016-01-15T23:17:23.429Z</time>
</trkpt>
<trkpt lat="-27.8909953" lon="152.9733586">
<ele>62.816</ele>
<time>2016-01-15T23:17:25.319Z</time>
</trkpt>
<trkpt lat="-27.8908320" lon="152.9732327">
<ele>62.562</ele>
<time>2016-01-15T23:17:27.792Z</time>
</trkpt>
<trkpt lat="-27.8905252" lon="152.9732259">
<ele>62.198</ele>
<time>2016-01-15T23:17:30.735Z</time>
</trkpt>
<trkpt lat="-27.8902784" lon="152.9732659">
<ele>62.163</ele>
<time>2016-01-15T23:17:32.818Z</time>
</trkpt>
<trkpt lat="-27.8899193" lon="152.9733139">
<ele>62.647</ele>
<time>2016-01-15T23:17:35.892Z</time>
</trkpt>
<trkpt lat="-27.8896938" lon="152.9733437">
<ele>63.228</ele>
<time>2016-01-15T23:17:37.966Z</time>
</trkpt>
<trkpt lat="-27.8894940" lon="152.9733897">
<ele>63.503</ele>
<time>2016-01-15T23:17:40.028Z</time>
</trkpt>
<trkpt lat="-27.8892643" lon="152.9734142">
<ele>63.713</ele>
<time>2016-01-15T23:17:42.404Z</time>
</trkpt>
<trkpt lat="-27.8889606" lon="152.9734725">
<ele>64.157</ele>
<time>2016-01-15T23:17:45.655Z</time>
</trkpt>
<trkpt lat="-27.8886827" lon="152.9735030">
<ele>64.902</ele>
<time>2016-01-15T23:17:48.974Z</time>
</trkpt>
<trkpt lat="-27.8884935" lon="152.9734187">
<ele>66.040</ele>
<time>2016-01-15T23:17:51.656Z</time>
</trkpt>
<trkpt lat="-27.8884145" lon="152.9731504">
<ele>67.457</ele>
<time>2016-01-15T23:17:54.746Z</time>
</trkpt>
<trkpt lat="-27.8883997" lon="152.9729434">
<ele>68.865</ele>
<time>2016-01-15T23:17:56.756Z</time>
</trkpt>
<trkpt lat="-27.8882686" lon="152.9728008">
<ele>70.079</ele>
<time>2016-01-15T23:17:58.670Z</time>
</trkpt>
<trkpt lat="-27.8880856" lon="152.9727121">
<ele>70.739</ele>
<time>2016-01-15T23:18:00.730Z</time>
</trkpt>
<trkpt lat="-27.8878045" lon="152.9726487">
<ele>70.554</ele>
<time>2016-01-15T23:18:03.743Z</time>
</trkpt>
<trkpt lat="-27.8876225" lon="152.9726217">
<ele>69.562</ele>
<time>2016-01-15T23:18:05.881Z</time>
</trkpt>
<trkpt lat="-27.8874749" lon="152.9725899">
<ele>68.086</ele>
<time>2016-01-15T23:18:08.577Z</time>
</trkpt>
<trkpt lat="-27.8873869" lon="152.9724890">
<ele>66.687</ele>
<time>2016-01-15T23:18:10.882Z</time>
</trkpt>
<trkpt lat="-27.8873571" lon="152.9723894">
<ele>65.765</ele>
<time>2016-01-15T23:18:13.852Z</time>
</trkpt>
<trkpt lat="-27.8874018" lon="152.9722879">
<ele>65.352</ele>
<time>2016-01-15T23:18:17.532Z</time>
</trkpt>
<trkpt lat="-27.8873831" lon="152.9721727">
<ele>65.336</ele>
<time>2016-01-15T23:18:21.765Z</time>
</trkpt>
<trkpt lat="-27.8873216" lon="152.9720781">
<ele>65.546</ele>
<time>2016-01-15T23:18:25.999Z</time>
</trkpt>
<trkpt lat="-27.8873216" lon="152.9720781">
<ele>65.796</ele>
<time>2016-01-15T23:18:32.999Z</time>
</trkpt>
<trkpt lat="-27.8873216" lon="152.9720781">
<ele>65.916</ele>
<time>2016-01-16T00:16:48.651Z</time>
</trkpt>
<trkpt lat="-27.8873542" lon="152.9722064">
<ele>65.877</ele>
<time>2016-01-16T00:17:08.218Z</time>
</trkpt>
<trkpt lat="-27.8874119" lon="152.9723036">
<ele>66.520</ele>
<time>2016-01-16T00:17:13.970Z</time>
</trkpt>
<trkpt lat="-27.8874012" lon="152.9724212">
<ele>68.389</ele>
<time>2016-01-16T00:17:17.781Z</time>
</trkpt>
<trkpt lat="-27.8874004" lon="152.9725330">
<ele>70.357</ele>
<time>2016-01-16T00:17:20.866Z</time>
</trkpt>
<trkpt lat="-27.8874406" lon="152.9726546">
<ele>71.306</ele>
<time>2016-01-16T00:17:23.972Z</time>
</trkpt>
<trkpt lat="-27.8875246" lon="152.9727088">
<ele>71.662</ele>
<time>2016-01-16T00:17:25.343Z</time>
</trkpt>
<trkpt lat="-27.8878378" lon="152.9727141">
<ele>72.364</ele>
<time>2016-01-16T00:17:28.977Z</time>
</trkpt>
<trkpt lat="-27.8880310" lon="152.9727701">
<ele>73.660</ele>
<time>2016-01-16T00:17:30.937Z</time>
</trkpt>
<trkpt lat="-27.8882124" lon="152.9728644">
<ele>74.890</ele>
<time>2016-01-16T00:17:32.904Z</time>
</trkpt>
<trkpt lat="-27.8883970" lon="152.9731141">
<ele>75.694</ele>
<time>2016-01-16T00:17:35.775Z</time>
</trkpt>
<trkpt lat="-27.8884639" lon="152.9733151">
<ele>76.286</ele>
<time>2016-01-16T00:17:37.839Z</time>
</trkpt>
<trkpt lat="-27.8884861" lon="152.9734786">
<ele>76.747</ele>
<time>2016-01-16T00:17:39.696Z</time>
</trkpt>
<trkpt lat="-27.8886262" lon="152.9735762">
<ele>77.013</ele>
<time>2016-01-16T00:17:41.518Z</time>
</trkpt>
<trkpt lat="-27.8889407" lon="152.9735421">
<ele>77.113</ele>
<time>2016-01-16T00:17:44.358Z</time>
</trkpt>
<trkpt lat="-27.8892099" lon="152.9734755">
<ele>77.261</ele>
<time>2016-01-16T00:17:46.187Z</time>
</trkpt>
<trkpt lat="-27.8895590" lon="152.9734197">
<ele>77.849</ele>
<time>2016-01-16T00:17:48.298Z</time>
</trkpt>
<trkpt lat="-27.8898857" lon="152.9733706">
<ele>78.822</ele>
<time>2016-01-16T00:17:50.242Z</time>
</trkpt>
<trkpt lat="-27.8903384" lon="152.9733267">
<ele>79.315</ele>
<time>2016-01-16T00:17:53.211Z</time>
</trkpt>
<trkpt lat="-27.8906677" lon="152.9732828">
<ele>78.383</ele>
<time>2016-01-16T00:17:55.859Z</time>
</trkpt>
<trkpt lat="-27.8908170" lon="152.9732659">
<ele>75.887</ele>
<time>2016-01-16T00:17:57.523Z</time>
</trkpt>
<trkpt lat="-27.8909732" lon="152.9733460">
<ele>72.707</ele>
<time>2016-01-16T00:17:59.999Z</time>
</trkpt>
<trkpt lat="-27.8909732" lon="152.9733460">
<ele>70.175</ele>
<time>2016-01-16T00:18:04.999Z</time>
</trkpt>
<trkpt lat="-27.8909732" lon="152.9733460">
<ele>69.093</ele>
<time>2016-01-16T00:18:12.576Z</time>
</trkpt>
<trkpt lat="-27.8912991" lon="152.9734195">
<ele>69.356</ele>
<time>2016-01-16T00:18:19.855Z</time>
</trkpt>
<trkpt lat="-27.8915878" lon="152.9733985">
<ele>70.250</ele>
<time>2016-01-16T00:18:22.154Z</time>
</trkpt>
<trkpt lat="-27.8921467" lon="152.9734326">
<ele>71.798</ele>
<time>2016-01-16T00:18:26.017Z</time>
</trkpt>
<trkpt lat="-27.8924814" lon="152.9734765">
<ele>74.360</ele>
<time>2016-01-16T00:18:28.148Z</time>
</trkpt>
<trkpt lat="-27.8929839" lon="152.9735551">
<ele>76.960</ele>
<time>2016-01-16T00:18:31.151Z</time>
</trkpt>
<trkpt lat="-27.8933183" lon="152.9736121">
<ele>78.122</ele>
<time>2016-01-16T00:18:33.115Z</time>
</trkpt>
<trkpt lat="-27.8938245" lon="152.9737360">
<ele>77.737</ele>
<time>2016-01-16T00:18:36.024Z</time>
</trkpt>
<trkpt lat="-27.8941755" lon="152.9738217">
<ele>76.809</ele>
<time>2016-01-16T00:18:38.002Z</time>
</trkpt>
<trkpt lat="-27.8947108" lon="152.9739472">
<ele>76.299</ele>
<time>2016-01-16T00:18:40.739Z</time>
</trkpt>
<trkpt lat="-27.8953929" lon="152.9740611">
<ele>76.467</ele>
<time>2016-01-16T00:18:43.941Z</time>
</trkpt>
<trkpt lat="-27.8960592" lon="152.9741538">
<ele>77.104</ele>
<time>2016-01-16T00:18:47.065Z</time>
</trkpt>
<trkpt lat="-27.8966921" lon="152.9742355">
<ele>77.506</ele>
<time>2016-01-16T00:18:50.090Z</time>
</trkpt>
<trkpt lat="-27.8971030" lon="152.9742940">
<ele>76.796</ele>
<time>2016-01-16T00:18:52.057Z</time>
</trkpt>
<trkpt lat="-27.8977128" lon="152.9744091">
<ele>75.156</ele>
<time>2016-01-16T00:18:54.997Z</time>
</trkpt>
<trkpt lat="-27.8981320" lon="152.9744894">
<ele>73.728</ele>
<time>2016-01-16T00:18:57.022Z</time>
</trkpt>
<trkpt lat="-27.8987580" lon="152.9745764">
<ele>73.181</ele>
<time>2016-01-16T00:19:00.016Z</time>
</trkpt>
<trkpt lat="-27.8993818" lon="152.9746743">
<ele>73.759</ele>
<time>2016-01-16T00:19:03.050Z</time>
</trkpt>
<trkpt lat="-27.8997861" lon="152.9747445">
<ele>76.021</ele>
<time>2016-01-16T00:19:05.046Z</time>
</trkpt>
<trkpt lat="-27.9003828" lon="152.9748190">
<ele>79.497</ele>
<time>2016-01-16T00:19:08.005Z</time>
</trkpt>
<trkpt lat="-27.9009731" lon="152.9749162">
<ele>82.441</ele>
<time>2016-01-16T00:19:10.952Z</time>
</trkpt>
<trkpt lat="-27.9015696" lon="152.9750007">
<ele>83.943</ele>
<time>2016-01-16T00:19:13.899Z</time>
</trkpt>
<trkpt lat="-27.9021479" lon="152.9751835">
<ele>84.435</ele>
<time>2016-01-16T00:19:16.815Z</time>
</trkpt>
<trkpt lat="-27.9027932" lon="152.9753230">
<ele>84.278</ele>
<time>2016-01-16T00:19:20.023Z</time>
</trkpt>
<trkpt lat="-27.9031937" lon="152.9754259">
<ele>83.297</ele>
<time>2016-01-16T00:19:22.024Z</time>
</trkpt>
<trkpt lat="-27.9036062" lon="152.9755341">
<ele>80.998</ele>
<time>2016-01-16T00:19:24.084Z</time>
</trkpt>
<trkpt lat="-27.9040033" lon="152.9756439">
<ele>77.635</ele>
<time>2016-01-16T00:19:26.073Z</time>
</trkpt>
<trkpt lat="-27.9045950" lon="152.9758029">
<ele>74.170</ele>
<time>2016-01-16T00:19:29.047Z</time>
</trkpt>
<trkpt lat="-27.9049892" lon="152.9759243">
<ele>70.998</ele>
<time>2016-01-16T00:19:31.051Z</time>
</trkpt>
<trkpt lat="-27.9055761" lon="152.9761193">
<ele>68.113</ele>
<time>2016-01-16T00:19:34.036Z</time>
</trkpt>
<trkpt lat="-27.9061272" lon="152.9764403">
<ele>65.959</ele>
<time>2016-01-16T00:19:37.010Z</time>
</trkpt>
<trkpt lat="-27.9064643" lon="152.9767194">
<ele>64.829</ele>
<time>2016-01-16T00:19:39.004Z</time>
</trkpt>
<trkpt lat="-27.9067673" lon="152.9770499">
<ele>64.522</ele>
<time>2016-01-16T00:19:41.015Z</time>
</trkpt>
<trkpt lat="-27.9070920" lon="152.9776192">
<ele>64.587</ele>
<time>2016-01-16T00:19:43.881Z</time>
</trkpt>
<trkpt lat="-27.9074516" lon="152.9781926">
<ele>64.473</ele>
<time>2016-01-16T00:19:46.874Z</time>
</trkpt>
<trkpt lat="-27.9076723" lon="152.9785697">
<ele>63.906</ele>
<time>2016-01-16T00:19:48.824Z</time>
</trkpt>
<trkpt lat="-27.9080313" lon="152.9791331">
<ele>63.327</ele>
<time>2016-01-16T00:19:51.847Z</time>
</trkpt>
<trkpt lat="-27.9082509" lon="152.9795189">
<ele>63.721</ele>
<time>2016-01-16T00:19:53.844Z</time>
</trkpt>
<trkpt lat="-27.9085925" lon="152.9800896">
<ele>65.266</ele>
<time>2016-01-16T00:19:56.827Z</time>
</trkpt>
<trkpt lat="-27.9088228" lon="152.9804686">
<ele>66.943</ele>
<time>2016-01-16T00:19:58.750Z</time>
</trkpt>
<trkpt lat="-27.9090448" lon="152.9808586">
<ele>67.909</ele>
<time>2016-01-16T00:20:00.625Z</time>
</trkpt>
<trkpt lat="-27.9093918" lon="152.9815053">
<ele>68.334</ele>
<time>2016-01-16T00:20:03.635Z</time>
</trkpt>
<trkpt lat="-27.9096331" lon="152.9819470">
<ele>68.694</ele>
<time>2016-01-16T00:20:05.810Z</time>
</trkpt>
<trkpt lat="-27.9098454" lon="152.9823557">
<ele>69.293</ele>
<time>2016-01-16T00:20:07.865Z</time>
</trkpt>
<trkpt lat="-27.9101063" lon="152.9829200">
<ele>69.970</ele>
<time>2016-01-16T00:20:10.672Z</time>
</trkpt>
<trkpt lat="-27.9103299" lon="152.9832897">
<ele>70.180</ele>
<time>2016-01-16T00:20:12.620Z</time>
</trkpt>
<trkpt lat="-27.9108034" lon="152.9837685">
<ele>69.572</ele>
<time>2016-01-16T00:20:15.671Z</time>
</trkpt>
<trkpt lat="-27.9111120" lon="152.9840709">
<ele>68.347</ele>
<time>2016-01-16T00:20:17.593Z</time>
</trkpt>
<trkpt lat="-27.9116943" lon="152.9843717">
<ele>67.051</ele>
<time>2016-01-16T00:20:20.519Z</time>
</trkpt>
<trkpt lat="-27.9121113" lon="152.9845162">
<ele>66.349</ele>
<time>2016-01-16T00:20:22.483Z</time>
</trkpt>
<trkpt lat="-27.9127632" lon="152.9846419">
<ele>66.576</ele>
<time>2016-01-16T00:20:25.477Z</time>
</trkpt>
<trkpt lat="-27.9131795" lon="152.9846279">
<ele>67.325</ele>
<time>2016-01-16T00:20:27.335Z</time>
</trkpt>
<trkpt lat="-27.9136279" lon="152.9845678">
<ele>68.094</ele>
<time>2016-01-16T00:20:29.286Z</time>
</trkpt>
<trkpt lat="-27.9143254" lon="152.9844072">
<ele>68.831</ele>
<time>2016-01-16T00:20:32.299Z</time>
</trkpt>
<trkpt lat="-27.9147938" lon="152.9842907">
<ele>69.886</ele>
<time>2016-01-16T00:20:34.272Z</time>
</trkpt>
<trkpt lat="-27.9155028" lon="152.9841082">
<ele>71.296</ele>
<time>2016-01-16T00:20:37.221Z</time>
</trkpt>
<trkpt lat="-27.9159897" lon="152.9839809">
<ele>72.439</ele>
<time>2016-01-16T00:20:39.286Z</time>
</trkpt>
<trkpt lat="-27.9166827" lon="152.9838385">
<ele>72.845</ele>
<time>2016-01-16T00:20:42.262Z</time>
</trkpt>
<trkpt lat="-27.9173751" lon="152.9837129">
<ele>72.358</ele>
<time>2016-01-16T00:20:45.232Z</time>
</trkpt>
<trkpt lat="-27.9178537" lon="152.9836336">
<ele>70.933</ele>
<time>2016-01-16T00:20:47.271Z</time>
</trkpt>
<trkpt lat="-27.9185445" lon="152.9835183">
<ele>69.176</ele>
<time>2016-01-16T00:20:50.248Z</time>
</trkpt>
<trkpt lat="-27.9192247" lon="152.9833809">
<ele>67.901</ele>
<time>2016-01-16T00:20:53.228Z</time>
</trkpt>
<trkpt lat="-27.9196831" lon="152.9833090">
<ele>67.104</ele>
<time>2016-01-16T00:20:55.230Z</time>
</trkpt>
<trkpt lat="-27.9201409" lon="152.9832296">
<ele>66.416</ele>
<time>2016-01-16T00:20:57.226Z</time>
</trkpt>
<trkpt lat="-27.9208183" lon="152.9831122">
<ele>65.859</ele>
<time>2016-01-16T00:21:00.140Z</time>
</trkpt>
<trkpt lat="-27.9215236" lon="152.9829825">
<ele>66.070</ele>
<time>2016-01-16T00:21:03.148Z</time>
</trkpt>
<trkpt lat="-27.9222136" lon="152.9828599">
<ele>67.279</ele>
<time>2016-01-16T00:21:06.125Z</time>
</trkpt>
<trkpt lat="-27.9229025" lon="152.9827369">
<ele>68.650</ele>
<time>2016-01-16T00:21:09.153Z</time>
</trkpt>
<trkpt lat="-27.9233424" lon="152.9826710">
<ele>69.275</ele>
<time>2016-01-16T00:21:11.108Z</time>
</trkpt>
<trkpt lat="-27.9240121" lon="152.9825502">
<ele>68.961</ele>
<time>2016-01-16T00:21:14.101Z</time>
</trkpt>
<trkpt lat="-27.9244649" lon="152.9824691">
<ele>67.964</ele>
<time>2016-01-16T00:21:16.120Z</time>
</trkpt>
<trkpt lat="-27.9249122" lon="152.9823926">
<ele>67.014</ele>
<time>2016-01-16T00:21:18.109Z</time>
</trkpt>
<trkpt lat="-27.9255947" lon="152.9822549">
<ele>66.715</ele>
<time>2016-01-16T00:21:21.128Z</time>
</trkpt>
<trkpt lat="-27.9262823" lon="152.9821349">
<ele>67.039</ele>
<time>2016-01-16T00:21:24.098Z</time>
</trkpt>
<trkpt lat="-27.9269726" lon="152.9820054">
<ele>68.104</ele>
<time>2016-01-16T00:21:27.067Z</time>
</trkpt>
<trkpt lat="-27.9276576" lon="152.9818725">
<ele>69.856</ele>
<time>2016-01-16T00:21:30.059Z</time>
</trkpt>
<trkpt lat="-27.9283352" lon="152.9817558">
<ele>71.317</ele>
<time>2016-01-16T00:21:33.068Z</time>
</trkpt>
<trkpt lat="-27.9287597" lon="152.9816726">
<ele>71.785</ele>
<time>2016-01-16T00:21:34.980Z</time>
</trkpt>
<trkpt lat="-27.9291973" lon="152.9816185">
<ele>71.649</ele>
<time>2016-01-16T00:21:36.932Z</time>
</trkpt>
<trkpt lat="-27.9298911" lon="152.9815057">
<ele>71.801</ele>
<time>2016-01-16T00:21:40.094Z</time>
</trkpt>
<trkpt lat="-27.9303124" lon="152.9814435">
<ele>72.242</ele>
<time>2016-01-16T00:21:42.089Z</time>
</trkpt>
<trkpt lat="-27.9307379" lon="152.9813740">
<ele>72.172</ele>
<time>2016-01-16T00:21:44.152Z</time>
</trkpt>
<trkpt lat="-27.9311301" lon="152.9812753">
<ele>71.442</ele>
<time>2016-01-16T00:21:46.124Z</time>
</trkpt>
<trkpt lat="-27.9317298" lon="152.9811859">
<ele>70.261</ele>
<time>2016-01-16T00:21:49.134Z</time>
</trkpt>
<trkpt lat="-27.9323229" lon="152.9811577">
<ele>68.725</ele>
<time>2016-01-16T00:21:52.118Z</time>
</trkpt>
<trkpt lat="-27.9327140" lon="152.9811972">
<ele>67.340</ele>
<time>2016-01-16T00:21:54.118Z</time>
</trkpt>
<trkpt lat="-27.9331029" lon="152.9812259">
<ele>66.224</ele>
<time>2016-01-16T00:21:56.159Z</time>
</trkpt>
<trkpt lat="-27.9336465" lon="152.9813965">
<ele>65.152</ele>
<time>2016-01-16T00:21:59.227Z</time>
</trkpt>
<trkpt lat="-27.9340001" lon="152.9815017">
<ele>64.006</ele>
<time>2016-01-16T00:22:01.394Z</time>
</trkpt>
<trkpt lat="-27.9343105" lon="152.9815737">
<ele>62.719</ele>
<time>2016-01-16T00:22:03.434Z</time>
</trkpt>
<trkpt lat="-27.9347353" lon="152.9816759">
<ele>61.219</ele>
<time>2016-01-16T00:22:06.540Z</time>
</trkpt>
<trkpt lat="-27.9350077" lon="152.9817312">
<ele>59.464</ele>
<time>2016-01-16T00:22:08.669Z</time>
</trkpt>
<trkpt lat="-27.9353760" lon="152.9818223">
<ele>57.649</ele>
<time>2016-01-16T00:22:11.476Z</time>
</trkpt>
<trkpt lat="-27.9356363" lon="152.9818819">
<ele>56.295</ele>
<time>2016-01-16T00:22:13.364Z</time>
</trkpt>
<trkpt lat="-27.9360629" lon="152.9819804">
<ele>55.902</ele>
<time>2016-01-16T00:22:16.351Z</time>
</trkpt>
<trkpt lat="-27.9365115" lon="152.9820704">
<ele>56.722</ele>
<time>2016-01-16T00:22:19.367Z</time>
</trkpt>
<trkpt lat="-27.9368078" lon="152.9821411">
<ele>58.274</ele>
<time>2016-01-16T00:22:21.390Z</time>
</trkpt>
<trkpt lat="-27.9372511" lon="152.9822217">
<ele>59.536</ele>
<time>2016-01-16T00:22:24.481Z</time>
</trkpt>
<trkpt lat="-27.9375349" lon="152.9822888">
<ele>59.957</ele>
<time>2016-01-16T00:22:26.469Z</time>
</trkpt>
<trkpt lat="-27.9378074" lon="152.9823489">
<ele>59.763</ele>
<time>2016-01-16T00:22:28.323Z</time>
</trkpt>
<trkpt lat="-27.9382618" lon="152.9824597">
<ele>59.381</ele>
<time>2016-01-16T00:22:31.341Z</time>
</trkpt>
<trkpt lat="-27.9385592" lon="152.9825203">
<ele>59.091</ele>
<time>2016-01-16T00:22:33.243Z</time>
</trkpt>
<trkpt lat="-27.9390462" lon="152.9826309">
<ele>58.954</ele>
<time>2016-01-16T00:22:36.336Z</time>
</trkpt>
<trkpt lat="-27.9393599" lon="152.9826944">
<ele>58.686</ele>
<time>2016-01-16T00:22:38.277Z</time>
</trkpt>
<trkpt lat="-27.9398490" lon="152.9828008">
<ele>58.073</ele>
<time>2016-01-16T00:22:41.214Z</time>
</trkpt>
<trkpt lat="-27.9401788" lon="152.9828690">
<ele>57.757</ele>
<time>2016-01-16T00:22:43.067Z</time>
</trkpt>
<trkpt lat="-27.9405599" lon="152.9829591">
<ele>58.406</ele>
<time>2016-01-16T00:22:45.043Z</time>
</trkpt>
<trkpt lat="-27.9411586" lon="152.9831077">
<ele>59.955</ele>
<time>2016-01-16T00:22:48.053Z</time>
</trkpt>
<trkpt lat="-27.9415735" lon="152.9831935">
<ele>62.144</ele>
<time>2016-01-16T00:22:50.094Z</time>
</trkpt>
<trkpt lat="-27.9421682" lon="152.9833093">
<ele>64.423</ele>
<time>2016-01-16T00:22:53.007Z</time>
</trkpt>
<trkpt lat="-27.9428082" lon="152.9834665">
<ele>65.976</ele>
<time>2016-01-16T00:22:56.170Z</time>
</trkpt>
<trkpt lat="-27.9432100" lon="152.9835519">
<ele>66.585</ele>
<time>2016-01-16T00:22:58.199Z</time>
</trkpt>
<trkpt lat="-27.9435952" lon="152.9836413">
<ele>66.532</ele>
<time>2016-01-16T00:23:00.161Z</time>
</trkpt>
<trkpt lat="-27.9441842" lon="152.9837607">
<ele>66.157</ele>
<time>2016-01-16T00:23:03.075Z</time>
</trkpt>
<trkpt lat="-27.9448125" lon="152.9838961">
<ele>65.986</ele>
<time>2016-01-16T00:23:06.091Z</time>
</trkpt>
<trkpt lat="-27.9454386" lon="152.9840536">
<ele>66.510</ele>
<time>2016-01-16T00:23:09.014Z</time>
</trkpt>
<trkpt lat="-27.9459016" lon="152.9841316">
<ele>67.637</ele>
<time>2016-01-16T00:23:11.063Z</time>
</trkpt>
<trkpt lat="-27.9465924" lon="152.9842908">
<ele>69.306</ele>
<time>2016-01-16T00:23:14.096Z</time>
</trkpt>
<trkpt lat="-27.9472499" lon="152.9844525">
<ele>71.371</ele>
<time>2016-01-16T00:23:17.060Z</time>
</trkpt>
<trkpt lat="-27.9478936" lon="152.9846086">
<ele>72.996</ele>
<time>2016-01-16T00:23:19.977Z</time>
</trkpt>
<trkpt lat="-27.9485474" lon="152.9847827">
<ele>73.717</ele>
<time>2016-01-16T00:23:22.935Z</time>
</trkpt>
<trkpt lat="-27.9489913" lon="152.9848899">
<ele>74.009</ele>
<time>2016-01-16T00:23:24.909Z</time>
</trkpt>
<trkpt lat="-27.9497054" lon="152.9849990">
<ele>74.216</ele>
<time>2016-01-16T00:23:28.076Z</time>
</trkpt>
<trkpt lat="-27.9503288" lon="152.9851573">
<ele>74.347</ele>
<time>2016-01-16T00:23:30.945Z</time>
</trkpt>
<trkpt lat="-27.9507609" lon="152.9852310">
<ele>74.213</ele>
<time>2016-01-16T00:23:32.913Z</time>
</trkpt>
<trkpt lat="-27.9512014" lon="152.9853072">
<ele>73.685</ele>
<time>2016-01-16T00:23:34.943Z</time>
</trkpt>
<trkpt lat="-27.9516292" lon="152.9854205">
<ele>73.013</ele>
<time>2016-01-16T00:23:37.008Z</time>
</trkpt>
<trkpt lat="-27.9522157" lon="152.9855965">
<ele>72.376</ele>
<time>2016-01-16T00:23:39.876Z</time>
</trkpt>
<trkpt lat="-27.9526148" lon="152.9857567">
<ele>71.343</ele>
<time>2016-01-16T00:23:41.853Z</time>
</trkpt>
<trkpt lat="-27.9532050" lon="152.9860570">
<ele>69.615</ele>
<time>2016-01-16T00:23:44.845Z</time>
</trkpt>
<trkpt lat="-27.9535814" lon="152.9863000">
<ele>67.524</ele>
<time>2016-01-16T00:23:46.844Z</time>
</trkpt>
<trkpt lat="-27.9539326" lon="152.9865586">
<ele>65.479</ele>
<time>2016-01-16T00:23:48.807Z</time>
</trkpt>
<trkpt lat="-27.9542511" lon="152.9868464">
<ele>63.786</ele>
<time>2016-01-16T00:23:50.731Z</time>
</trkpt>
<trkpt lat="-27.9545661" lon="152.9871499">
<ele>62.718</ele>
<time>2016-01-16T00:23:52.716Z</time>
</trkpt>
<trkpt lat="-27.9550128" lon="152.9876422">
<ele>62.214</ele>
<time>2016-01-16T00:23:55.759Z</time>
</trkpt>
<trkpt lat="-27.9552811" lon="152.9879922">
<ele>61.883</ele>
<time>2016-01-16T00:23:57.808Z</time>
</trkpt>
<trkpt lat="-27.9555395" lon="152.9883072">
<ele>61.483</ele>
<time>2016-01-16T00:23:59.813Z</time>
</trkpt>
<trkpt lat="-27.9559297" lon="152.9887538">
<ele>61.393</ele>
<time>2016-01-16T00:24:02.829Z</time>
</trkpt>
<trkpt lat="-27.9563023" lon="152.9891834">
<ele>62.066</ele>
<time>2016-01-16T00:24:05.709Z</time>
</trkpt>
<trkpt lat="-27.9567061" lon="152.9896502">
<ele>63.426</ele>
<time>2016-01-16T00:24:08.769Z</time>
</trkpt>
<trkpt lat="-27.9569650" lon="152.9899675">
<ele>65.495</ele>
<time>2016-01-16T00:24:10.787Z</time>
</trkpt>
<trkpt lat="-27.9574725" lon="152.9905809">
<ele>68.022</ele>
<time>2016-01-16T00:24:14.776Z</time>
</trkpt>
<trkpt lat="-27.9578467" lon="152.9910272">
<ele>70.045</ele>
<time>2016-01-16T00:24:17.798Z</time>
</trkpt>
<trkpt lat="-27.9580754" lon="152.9913136">
<ele>71.023</ele>
<time>2016-01-16T00:24:19.755Z</time>
</trkpt>
<trkpt lat="-27.9584391" lon="152.9917311">
<ele>71.187</ele>
<time>2016-01-16T00:24:22.673Z</time>
</trkpt>
<trkpt lat="-27.9588295" lon="152.9921769">
<ele>70.907</ele>
<time>2016-01-16T00:24:25.673Z</time>
</trkpt>
<trkpt lat="-27.9590663" lon="152.9924774">
<ele>70.997</ele>
<time>2016-01-16T00:24:27.551Z</time>
</trkpt>
<trkpt lat="-27.9593106" lon="152.9927985">
<ele>72.018</ele>
<time>2016-01-16T00:24:29.541Z</time>
</trkpt>
<trkpt lat="-27.9595637" lon="152.9930995">
<ele>73.374</ele>
<time>2016-01-16T00:24:31.506Z</time>
</trkpt>
<trkpt lat="-27.9599740" lon="152.9935195">
<ele>74.133</ele>
<time>2016-01-16T00:24:34.462Z</time>
</trkpt>
<trkpt lat="-27.9602481" lon="152.9937795">
<ele>73.992</ele>
<time>2016-01-16T00:24:36.327Z</time>
</trkpt>
<trkpt lat="-27.9607248" lon="152.9942152">
<ele>73.436</ele>
<time>2016-01-16T00:24:39.433Z</time>
</trkpt>
<trkpt lat="-27.9610611" lon="152.9944795">
<ele>73.252</ele>
<time>2016-01-16T00:24:41.407Z</time>
</trkpt>
<trkpt lat="-27.9616392" lon="152.9948344">
<ele>73.523</ele>
<time>2016-01-16T00:24:44.506Z</time>
</trkpt>
<trkpt lat="-27.9620265" lon="152.9950558">
<ele>73.519</ele>
<time>2016-01-16T00:24:46.496Z</time>
</trkpt>
<trkpt lat="-27.9626723" lon="152.9953091">
<ele>72.565</ele>
<time>2016-01-16T00:24:49.597Z</time>
</trkpt>
<trkpt lat="-27.9633122" lon="152.9955114">
<ele>70.736</ele>
<time>2016-01-16T00:24:52.599Z</time>
</trkpt>
<trkpt lat="-27.9637461" lon="152.9956114">
<ele>68.810</ele>
<time>2016-01-16T00:24:54.619Z</time>
</trkpt>
<trkpt lat="-27.9641685" lon="152.9956873">
<ele>67.488</ele>
<time>2016-01-16T00:24:56.618Z</time>
</trkpt>
<trkpt lat="-27.9645921" lon="152.9957584">
<ele>67.060</ele>
<time>2016-01-16T00:24:58.665Z</time>
</trkpt>
<trkpt lat="-27.9651920" lon="152.9958624">
<ele>67.514</ele>
<time>2016-01-16T00:25:01.811Z</time>
</trkpt>
<trkpt lat="-27.9656964" lon="152.9959630">
<ele>68.793</ele>
<time>2016-01-16T00:25:04.721Z</time>
</trkpt>
<trkpt lat="-27.9660197" lon="152.9960221">
<ele>70.527</ele>
<time>2016-01-16T00:25:06.661Z</time>
</trkpt>
<trkpt lat="-27.9663512" lon="152.9960984">
<ele>72.039</ele>
<time>2016-01-16T00:25:08.623Z</time>
</trkpt>
<trkpt lat="-27.9668979" lon="152.9961620">
<ele>73.222</ele>
<time>2016-01-16T00:25:11.773Z</time>
</trkpt>
<trkpt lat="-27.9673956" lon="152.9962652">
<ele>75.028</ele>
<time>2016-01-16T00:25:14.665Z</time>
</trkpt>
<trkpt lat="-27.9677472" lon="152.9963281">
<ele>77.811</ele>
<time>2016-01-16T00:25:16.709Z</time>
</trkpt>
<trkpt lat="-27.9682577" lon="152.9963914">
<ele>80.386</ele>
<time>2016-01-16T00:25:19.692Z</time>
</trkpt>
<trkpt lat="-27.9687454" lon="152.9964577">
<ele>81.692</ele>
<time>2016-01-16T00:25:22.607Z</time>
</trkpt>
<trkpt lat="-27.9690769" lon="152.9965230">
<ele>82.000</ele>
<time>2016-01-16T00:25:24.619Z</time>
</trkpt>
<trkpt lat="-27.9694003" lon="152.9965860">
<ele>81.951</ele>
<time>2016-01-16T00:25:26.575Z</time>
</trkpt>
<trkpt lat="-27.9698911" lon="152.9966576">
<ele>81.896</ele>
<time>2016-01-16T00:25:29.567Z</time>
</trkpt>
<trkpt lat="-27.9703701" lon="152.9966469">
<ele>82.110</ele>
<time>2016-01-16T00:25:32.532Z</time>
</trkpt>
<trkpt lat="-27.9708407" lon="152.9965437">
<ele>82.721</ele>
<time>2016-01-16T00:25:35.508Z</time>
</trkpt>
<trkpt lat="-27.9713268" lon="152.9964857">
<ele>83.498</ele>
<time>2016-01-16T00:25:38.519Z</time>
</trkpt>
<trkpt lat="-27.9716411" lon="152.9963923">
<ele>84.146</ele>
<time>2016-01-16T00:25:40.519Z</time>
</trkpt>
<trkpt lat="-27.9719404" lon="152.9962561">
<ele>84.260</ele>
<time>2016-01-16T00:25:42.475Z</time>
</trkpt>
<trkpt lat="-27.9723733" lon="152.9959533">
<ele>83.406</ele>
<time>2016-01-16T00:25:45.512Z</time>
</trkpt>
<trkpt lat="-27.9727830" lon="152.9956118">
<ele>81.909</ele>
<time>2016-01-16T00:25:48.503Z</time>
</trkpt>
<trkpt lat="-27.9730581" lon="152.9953807">
<ele>80.173</ele>
<time>2016-01-16T00:25:50.518Z</time>
</trkpt>
<trkpt lat="-27.9734645" lon="152.9950396">
<ele>78.309</ele>
<time>2016-01-16T00:25:53.537Z</time>
</trkpt>
<trkpt lat="-27.9737741" lon="152.9948943">
<ele>76.371</ele>
<time>2016-01-16T00:25:55.572Z</time>
</trkpt>
<trkpt lat="-27.9742387" lon="152.9947278">
<ele>74.529</ele>
<time>2016-01-16T00:25:58.507Z</time>
</trkpt>
<trkpt lat="-27.9747145" lon="152.9945459">
<ele>73.248</ele>
<time>2016-01-16T00:26:01.501Z</time>
</trkpt>
<trkpt lat="-27.9752083" lon="152.9944054">
<ele>72.846</ele>
<time>2016-01-16T00:26:04.545Z</time>
</trkpt>
<trkpt lat="-27.9755124" lon="152.9942798">
<ele>72.710</ele>
<time>2016-01-16T00:26:06.481Z</time>
</trkpt>
<trkpt lat="-27.9758155" lon="152.9941269">
<ele>72.315</ele>
<time>2016-01-16T00:26:08.460Z</time>
</trkpt>
<trkpt lat="-27.9761322" lon="152.9940126">
<ele>71.838</ele>
<time>2016-01-16T00:26:10.492Z</time>
</trkpt>
<trkpt lat="-27.9764163" lon="152.9939077">
<ele>71.450</ele>
<time>2016-01-16T00:26:12.471Z</time>
</trkpt>
<trkpt lat="-27.9768201" lon="152.9937811">
<ele>70.662</ele>
<time>2016-01-16T00:26:15.487Z</time>
</trkpt>
<trkpt lat="-27.9770440" lon="152.9937026">
<ele>69.255</ele>
<time>2016-01-16T00:26:17.472Z</time>
</trkpt>
<trkpt lat="-27.9773361" lon="152.9936475">
<ele>67.505</ele>
<time>2016-01-16T00:26:20.285Z</time>
</trkpt>
<trkpt lat="-27.9775961" lon="152.9936299">
<ele>65.451</ele>
<time>2016-01-16T00:26:23.123Z</time>
</trkpt>
<trkpt lat="-27.9777632" lon="152.9936489">
<ele>63.127</ele>
<time>2016-01-16T00:26:24.959Z</time>
</trkpt>
<trkpt lat="-27.9780844" lon="152.9936609">
<ele>61.164</ele>
<time>2016-01-16T00:26:28.124Z</time>
</trkpt>
<trkpt lat="-27.9783096" lon="152.9937058">
<ele>60.479</ele>
<time>2016-01-16T00:26:30.055Z</time>
</trkpt>
<trkpt lat="-27.9785718" lon="152.9937633">
<ele>61.349</ele>
<time>2016-01-16T00:26:32.181Z</time>
</trkpt>
<trkpt lat="-27.9789448" lon="152.9939053">
<ele>62.881</ele>
<time>2016-01-16T00:26:35.209Z</time>
</trkpt>
<trkpt lat="-27.9791867" lon="152.9940060">
<ele>64.145</ele>
<time>2016-01-16T00:26:37.258Z</time>
</trkpt>
<trkpt lat="-27.9795041" lon="152.9941429">
<ele>64.813</ele>
<time>2016-01-16T00:26:40.067Z</time>
</trkpt>
<trkpt lat="-27.9797223" lon="152.9942416">
<ele>64.753</ele>
<time>2016-01-16T00:26:42.105Z</time>
</trkpt>
<trkpt lat="-27.9800238" lon="152.9944017">
<ele>64.130</ele>
<time>2016-01-16T00:26:45.090Z</time>
</trkpt>
<trkpt lat="-27.9803244" lon="152.9945374">
<ele>63.236</ele>
<time>2016-01-16T00:26:48.179Z</time>
</trkpt>
<trkpt lat="-27.9805968" lon="152.9946249">
<ele>62.096</ele>
<time>2016-01-16T00:26:50.995Z</time>
</trkpt>
<trkpt lat="-27.9807946" lon="152.9946869">
<ele>60.917</ele>
<time>2016-01-16T00:26:52.980Z</time>
</trkpt>
<trkpt lat="-27.9811400" lon="152.9947767">
<ele>60.144</ele>
<time>2016-01-16T00:26:56.191Z</time>
</trkpt>
<trkpt lat="-27.9814926" lon="152.9948731">
<ele>59.798</ele>
<time>2016-01-16T00:26:59.254Z</time>
</trkpt>
<trkpt lat="-27.9818444" lon="152.9949327">
<ele>59.426</ele>
<time>2016-01-16T00:27:02.200Z</time>
</trkpt>
<trkpt lat="-27.9820812" lon="152.9949881">
<ele>58.655</ele>
<time>2016-01-16T00:27:04.222Z</time>
</trkpt>
<trkpt lat="-27.9824094" lon="152.9950918">
<ele>57.627</ele>
<time>2016-01-16T00:27:07.060Z</time>
</trkpt>
<trkpt lat="-27.9826317" lon="152.9951585">
<ele>56.887</ele>
<time>2016-01-16T00:27:08.944Z</time>
</trkpt>
<trkpt lat="-27.9828798" lon="152.9951906">
<ele>56.711</ele>
<time>2016-01-16T00:27:10.989Z</time>
</trkpt>
<trkpt lat="-27.9832344" lon="152.9952512">
<ele>56.845</ele>
<time>2016-01-16T00:27:13.928Z</time>
</trkpt>
<trkpt lat="-27.9835995" lon="152.9953236">
<ele>57.074</ele>
<time>2016-01-16T00:27:16.891Z</time>
</trkpt>
<trkpt lat="-27.9840001" lon="152.9954080">
<ele>57.555</ele>
<time>2016-01-16T00:27:20.033Z</time>
</trkpt>
<trkpt lat="-27.9842325" lon="152.9954360">
<ele>58.298</ele>
<time>2016-01-16T00:27:21.847Z</time>
</trkpt>
<trkpt lat="-27.9846139" lon="152.9955254">
<ele>58.973</ele>
<time>2016-01-16T00:27:24.902Z</time>
</trkpt>
<trkpt lat="-27.9850137" lon="152.9955709">
<ele>59.390</ele>
<time>2016-01-16T00:27:28.092Z</time>
</trkpt>
<trkpt lat="-27.9852471" lon="152.9955849">
<ele>59.577</ele>
<time>2016-01-16T00:27:30.079Z</time>
</trkpt>
<trkpt lat="-27.9855681" lon="152.9956159">
<ele>59.447</ele>
<time>2016-01-16T00:27:32.937Z</time>
</trkpt>
<trkpt lat="-27.9859100" lon="152.9956667">
<ele>59.017</ele>
<time>2016-01-16T00:27:35.922Z</time>
</trkpt>
<trkpt lat="-27.9861625" lon="152.9956926">
<ele>58.684</ele>
<time>2016-01-16T00:27:37.965Z</time>
</trkpt>
<trkpt lat="-27.9865424" lon="152.9957289">
<ele>58.749</ele>
<time>2016-01-16T00:27:41.117Z</time>
</trkpt>
<trkpt lat="-27.9868444" lon="152.9957598">
<ele>58.761</ele>
<time>2016-01-16T00:27:43.928Z</time>
</trkpt>
<trkpt lat="-27.9870162" lon="152.9957831">
<ele>57.924</ele>
<time>2016-01-16T00:27:45.919Z</time>
</trkpt>
<trkpt lat="-27.9871786" lon="152.9958329">
<ele>56.136</ele>
<time>2016-01-16T00:27:48.257Z</time>
</trkpt>
<trkpt lat="-27.9872746" lon="152.9958460">
<ele>54.049</ele>
<time>2016-01-16T00:27:50.130Z</time>
</trkpt>
<trkpt lat="-27.9873952" lon="152.9958660">
<ele>52.352</ele>
<time>2016-01-16T00:27:52.924Z</time>
</trkpt>
<trkpt lat="-27.9874844" lon="152.9958529">
<ele>51.361</ele>
<time>2016-01-16T00:27:55.152Z</time>
</trkpt>
<trkpt lat="-27.9875995" lon="152.9958661">
<ele>50.985</ele>
<time>2016-01-16T00:27:58.211Z</time>
</trkpt>
<trkpt lat="-27.9877093" lon="152.9958848">
<ele>50.840</ele>
<time>2016-01-16T00:28:01.993Z</time>
</trkpt>
<trkpt lat="-27.9877093" lon="152.9958848">
<ele>50.678</ele>
<time>2016-01-16T00:28:06.993Z</time>
</trkpt>
<trkpt lat="-27.9877093" lon="152.9958848">
<ele>50.536</ele>
<time>2016-01-16T00:28:59.263Z</time>
</trkpt>
<trkpt lat="-27.9879194" lon="152.9958914">
<ele>50.518</ele>
<time>2016-01-16T00:29:05.563Z</time>
</trkpt>
<trkpt lat="-27.9880330" lon="152.9959070">
<ele>50.430</ele>
<time>2016-01-16T00:29:07.157Z</time>
</trkpt>
<trkpt lat="-27.9881943" lon="152.9958882">
<ele>50.116</ele>
<time>2016-01-16T00:29:09.260Z</time>
</trkpt>
<trkpt lat="-27.9883467" lon="152.9957071">
<ele>49.881</ele>
<time>2016-01-16T00:29:12.295Z</time>
</trkpt>
<trkpt lat="-27.9884445" lon="152.9956211">
<ele>50.003</ele>
<time>2016-01-16T00:29:14.470Z</time>
</trkpt>
<trkpt lat="-27.9885588" lon="152.9955373">
<ele>50.235</ele>
<time>2016-01-16T00:29:17.522Z</time>
</trkpt>
<trkpt lat="-27.9886339" lon="152.9954403">
<ele>50.212</ele>
<time>2016-01-16T00:29:21.136Z</time>
</trkpt>
<trkpt lat="-27.9887209" lon="152.9953882">
<ele>49.865</ele>
<time>2016-01-16T00:29:25.993Z</time>
</trkpt>
<trkpt lat="-27.9887209" lon="152.9953882">
<ele>49.413</ele>
<time>2016-01-16T00:29:28.993Z</time>
</trkpt>
<trkpt lat="-27.9887209" lon="152.9953882">
<ele>49.151</ele>
<time>2016-01-16T00:35:58.226Z</time>
</trkpt>
<trkpt lat="-27.9888743" lon="152.9952414">
<ele>49.150</ele>
<time>2016-01-16T00:36:16.214Z</time>
</trkpt>
<trkpt lat="-27.9889120" lon="152.9951295">
<ele>49.086</ele>
<time>2016-01-16T00:36:18.027Z</time>
</trkpt>
<trkpt lat="-27.9889818" lon="152.9949935">
<ele>48.718</ele>
<time>2016-01-16T00:36:19.683Z</time>
</trkpt>
<trkpt lat="-27.9891201" lon="152.9948228">
<ele>48.422</ele>
<time>2016-01-16T00:36:21.685Z</time>
</trkpt>
<trkpt lat="-27.9893494" lon="152.9945205">
<ele>48.740</ele>
<time>2016-01-16T00:36:24.854Z</time>
</trkpt>
<trkpt lat="-27.9895190" lon="152.9943334">
<ele>49.587</ele>
<time>2016-01-16T00:36:26.946Z</time>
</trkpt>
<trkpt lat="-27.9898354" lon="152.9940124">
<ele>50.460</ele>
<time>2016-01-16T00:36:30.961Z</time>
</trkpt>
<trkpt lat="-27.9899677" lon="152.9938771">
<ele>51.023</ele>
<time>2016-01-16T00:36:33.049Z</time>
</trkpt>
<trkpt lat="-27.9901361" lon="152.9937182">
<ele>51.125</ele>
<time>2016-01-16T00:36:35.953Z</time>
</trkpt>
<trkpt lat="-27.9902361" lon="152.9936397">
<ele>50.705</ele>
<time>2016-01-16T00:36:37.863Z</time>
</trkpt>
<trkpt lat="-27.9903887" lon="152.9935165">
<ele>50.021</ele>
<time>2016-01-16T00:36:40.901Z</time>
</trkpt>
<trkpt lat="-27.9904906" lon="152.9934413">
<ele>49.478</ele>
<time>2016-01-16T00:36:43.013Z</time>
</trkpt>
<trkpt lat="-27.9906298" lon="152.9933301">
<ele>49.220</ele>
<time>2016-01-16T00:36:46.071Z</time>
</trkpt>
<trkpt lat="-27.9907905" lon="152.9932131">
<ele>49.048</ele>
<time>2016-01-16T00:36:49.554Z</time>
</trkpt>
<trkpt lat="-27.9908981" lon="152.9931525">
<ele>48.801</ele>
<time>2016-01-16T00:36:51.762Z</time>
</trkpt>
<trkpt lat="-27.9910259" lon="152.9930764">
<ele>48.574</ele>
<time>2016-01-16T00:36:54.360Z</time>
</trkpt>
<trkpt lat="-27.9911294" lon="152.9930083">
<ele>48.498</ele>
<time>2016-01-16T00:36:56.381Z</time>
</trkpt>
<trkpt lat="-27.9912930" lon="152.9928871">
<ele>48.570</ele>
<time>2016-01-16T00:36:59.410Z</time>
</trkpt>
<trkpt lat="-27.9912563" lon="152.9926509">
<ele>48.789</ele>
<time>2016-01-16T00:37:01.956Z</time>
</trkpt>
<trkpt lat="-27.9911195" lon="152.9922917">
<ele>49.167</ele>
<time>2016-01-16T00:37:05.140Z</time>
</trkpt>
<trkpt lat="-27.9910073" lon="152.9920042">
<ele>49.885</ele>
<time>2016-01-16T00:37:07.234Z</time>
</trkpt>
<trkpt lat="-27.9908437" lon="152.9915655">
<ele>51.158</ele>
<time>2016-01-16T00:37:10.315Z</time>
</trkpt>
<trkpt lat="-27.9907261" lon="152.9912766">
<ele>52.693</ele>
<time>2016-01-16T00:37:12.280Z</time>
</trkpt>
<trkpt lat="-27.9906004" lon="152.9909898">
<ele>53.853</ele>
<time>2016-01-16T00:37:14.158Z</time>
</trkpt>
<trkpt lat="-27.9904863" lon="152.9906671">
<ele>54.501</ele>
<time>2016-01-16T00:37:16.128Z</time>
</trkpt>
<trkpt lat="-27.9903733" lon="152.9903306">
<ele>55.196</ele>
<time>2016-01-16T00:37:18.097Z</time>
</trkpt>
<trkpt lat="-27.9902687" lon="152.9899928">
<ele>56.229</ele>
<time>2016-01-16T00:37:19.997Z</time>
</trkpt>
<trkpt lat="-27.9900745" lon="152.9894449">
<ele>57.113</ele>
<time>2016-01-16T00:37:23.081Z</time>
</trkpt>
<trkpt lat="-27.9899441" lon="152.9888957">
<ele>57.468</ele>
<time>2016-01-16T00:37:25.996Z</time>
</trkpt>
<trkpt lat="-27.9898302" lon="152.9883382">
<ele>57.474</ele>
<time>2016-01-16T00:37:28.908Z</time>
</trkpt>
<trkpt lat="-27.9897690" lon="152.9877452">
<ele>57.130</ele>
<time>2016-01-16T00:37:31.956Z</time>
</trkpt>
<trkpt lat="-27.9897690" lon="152.9871610">
<ele>56.221</ele>
<time>2016-01-16T00:37:34.976Z</time>
</trkpt>
<trkpt lat="-27.9898105" lon="152.9867839">
<ele>54.817</ele>
<time>2016-01-16T00:37:36.998Z</time>
</trkpt>
<trkpt lat="-27.9898753" lon="152.9864344">
<ele>53.400</ele>
<time>2016-01-16T00:37:38.930Z</time>
</trkpt>
<trkpt lat="-27.9899657" lon="152.9860806">
<ele>52.299</ele>
<time>2016-01-16T00:37:40.941Z</time>
</trkpt>
<trkpt lat="-27.9900835" lon="152.9857310">
<ele>51.264</ele>
<time>2016-01-16T00:37:42.920Z</time>
</trkpt>
<trkpt lat="-27.9903270" lon="152.9852208">
<ele>50.125</ele>
<time>2016-01-16T00:37:45.862Z</time>
</trkpt>
<trkpt lat="-27.9905165" lon="152.9848564">
<ele>49.210</ele>
<time>2016-01-16T00:37:47.852Z</time>
</trkpt>
<trkpt lat="-27.9908060" lon="152.9842871">
<ele>48.784</ele>
<time>2016-01-16T00:37:50.883Z</time>
</trkpt>
<trkpt lat="-27.9909924" lon="152.9838954">
<ele>48.802</ele>
<time>2016-01-16T00:37:52.952Z</time>
</trkpt>
<trkpt lat="-27.9912466" lon="152.9833179">
<ele>49.037</ele>
<time>2016-01-16T00:37:55.953Z</time>
</trkpt>
<trkpt lat="-27.9914798" lon="152.9827552">
<ele>49.236</ele>
<time>2016-01-16T00:37:58.810Z</time>
</trkpt>
<trkpt lat="-27.9916024" lon="152.9823396">
<ele>49.209</ele>
<time>2016-01-16T00:38:00.838Z</time>
</trkpt>
<trkpt lat="-27.9916910" lon="152.9819381">
<ele>48.717</ele>
<time>2016-01-16T00:38:02.797Z</time>
</trkpt>
<trkpt lat="-27.9917621" lon="152.9813420">
<ele>47.839</ele>
<time>2016-01-16T00:38:05.660Z</time>
</trkpt>
<trkpt lat="-27.9917797" lon="152.9809312">
<ele>46.948</ele>
<time>2016-01-16T00:38:07.609Z</time>
</trkpt>
<trkpt lat="-27.9917961" lon="152.9805067">
<ele>46.399</ele>
<time>2016-01-16T00:38:09.578Z</time>
</trkpt>
<trkpt lat="-27.9918171" lon="152.9798547">
<ele>46.403</ele>
<time>2016-01-16T00:38:12.546Z</time>
</trkpt>
<trkpt lat="-27.9918349" lon="152.9791920">
<ele>46.919</ele>
<time>2016-01-16T00:38:15.487Z</time>
</trkpt>
<trkpt lat="-27.9918663" lon="152.9784918">
<ele>47.604</ele>
<time>2016-01-16T00:38:18.541Z</time>
</trkpt>
<trkpt lat="-27.9918639" lon="152.9778036">
<ele>48.113</ele>
<time>2016-01-16T00:38:21.553Z</time>
</trkpt>
<trkpt lat="-27.9918268" lon="152.9771272">
<ele>48.159</ele>
<time>2016-01-16T00:38:24.606Z</time>
</trkpt>
<trkpt lat="-27.9916345" lon="152.9765286">
<ele>47.674</ele>
<time>2016-01-16T00:38:27.570Z</time>
</trkpt>
<trkpt lat="-27.9913141" lon="152.9760258">
<ele>46.906</ele>
<time>2016-01-16T00:38:30.481Z</time>
</trkpt>
<trkpt lat="-27.9909992" lon="152.9757565">
<ele>46.179</ele>
<time>2016-01-16T00:38:32.506Z</time>
</trkpt>
<trkpt lat="-27.9906350" lon="152.9755477">
<ele>45.640</ele>
<time>2016-01-16T00:38:34.578Z</time>
</trkpt>
<trkpt lat="-27.9901153" lon="152.9752884">
<ele>45.320</ele>
<time>2016-01-16T00:38:37.485Z</time>
</trkpt>
<trkpt lat="-27.9896282" lon="152.9749597">
<ele>45.158</ele>
<time>2016-01-16T00:38:40.409Z</time>
</trkpt>
<trkpt lat="-27.9893440" lon="152.9746443">
<ele>44.913</ele>
<time>2016-01-16T00:38:42.473Z</time>
</trkpt>
<trkpt lat="-27.9891229" lon="152.9742749">
<ele>44.392</ele>
<time>2016-01-16T00:38:44.524Z</time>
</trkpt>
<trkpt lat="-27.9889446" lon="152.9736360">
<ele>43.791</ele>
<time>2016-01-16T00:38:47.555Z</time>
</trkpt>
<trkpt lat="-27.9888639" lon="152.9729463">
<ele>43.521</ele>
<time>2016-01-16T00:38:50.636Z</time>
</trkpt>
<trkpt lat="-27.9887615" lon="152.9723001">
<ele>44.011</ele>
<time>2016-01-16T00:38:53.574Z</time>
</trkpt>
<trkpt lat="-27.9886689" lon="152.9718693">
<ele>45.187</ele>
<time>2016-01-16T00:38:55.619Z</time>
</trkpt>
<trkpt lat="-27.9883670" lon="152.9713239">
<ele>46.228</ele>
<time>2016-01-16T00:38:58.571Z</time>
</trkpt>
<trkpt lat="-27.9880791" lon="152.9709773">
<ele>46.592</ele>
<time>2016-01-16T00:39:00.638Z</time>
</trkpt>
<trkpt lat="-27.9875191" lon="152.9706168">
<ele>46.553</ele>
<time>2016-01-16T00:39:03.682Z</time>
</trkpt>
<trkpt lat="-27.9869470" lon="152.9702983">
<ele>46.660</ele>
<time>2016-01-16T00:39:06.612Z</time>
</trkpt>
<trkpt lat="-27.9865597" lon="152.9700778">
<ele>47.274</ele>
<time>2016-01-16T00:39:08.675Z</time>
</trkpt>
<trkpt lat="-27.9860168" lon="152.9697714">
<ele>48.170</ele>
<time>2016-01-16T00:39:11.639Z</time>
</trkpt>
<trkpt lat="-27.9854649" lon="152.9694645">
<ele>48.638</ele>
<time>2016-01-16T00:39:14.661Z</time>
</trkpt>
<trkpt lat="-27.9849106" lon="152.9691582">
<ele>48.402</ele>
<time>2016-01-16T00:39:17.667Z</time>
</trkpt>
<trkpt lat="-27.9845338" lon="152.9689590">
<ele>47.911</ele>
<time>2016-01-16T00:39:19.690Z</time>
</trkpt>
<trkpt lat="-27.9839751" lon="152.9686587">
<ele>47.530</ele>
<time>2016-01-16T00:39:22.697Z</time>
</trkpt>
<trkpt lat="-27.9836082" lon="152.9684539">
<ele>46.885</ele>
<time>2016-01-16T00:39:24.695Z</time>
</trkpt>
<trkpt lat="-27.9830370" lon="152.9681544">
<ele>45.779</ele>
<time>2016-01-16T00:39:27.741Z</time>
</trkpt>
<trkpt lat="-27.9824909" lon="152.9678589">
<ele>44.844</ele>
<time>2016-01-16T00:39:30.626Z</time>
</trkpt>
<trkpt lat="-27.9821181" lon="152.9676308">
<ele>44.653</ele>
<time>2016-01-16T00:39:32.651Z</time>
</trkpt>
<trkpt lat="-27.9816149" lon="152.9671959">
<ele>45.005</ele>
<time>2016-01-16T00:39:35.704Z</time>
</trkpt>
<trkpt lat="-27.9812992" lon="152.9666216">
<ele>45.549</ele>
<time>2016-01-16T00:39:38.599Z</time>
</trkpt>
<trkpt lat="-27.9811038" lon="152.9659340">
<ele>46.077</ele>
<time>2016-01-16T00:39:41.670Z</time>
</trkpt>
<trkpt lat="-27.9810391" lon="152.9654648">
<ele>46.424</ele>
<time>2016-01-16T00:39:43.671Z</time>
</trkpt>
<trkpt lat="-27.9809821" lon="152.9649832">
<ele>46.472</ele>
<time>2016-01-16T00:39:45.723Z</time>
</trkpt>
<trkpt lat="-27.9808848" lon="152.9642872">
<ele>46.271</ele>
<time>2016-01-16T00:39:48.758Z</time>
</trkpt>
<trkpt lat="-27.9808255" lon="152.9638535">
<ele>45.652</ele>
<time>2016-01-16T00:39:50.724Z</time>
</trkpt>
<trkpt lat="-27.9807438" lon="152.9632023">
<ele>44.354</ele>
<time>2016-01-16T00:39:53.665Z</time>
</trkpt>
<trkpt lat="-27.9806921" lon="152.9627544">
<ele>42.794</ele>
<time>2016-01-16T00:39:55.637Z</time>
</trkpt>
<trkpt lat="-27.9806252" lon="152.9620464">
<ele>42.066</ele>
<time>2016-01-16T00:39:58.698Z</time>
</trkpt>
<trkpt lat="-27.9805294" lon="152.9615980">
<ele>42.556</ele>
<time>2016-01-16T00:40:00.659Z</time>
</trkpt>
<trkpt lat="-27.9804294" lon="152.9609112">
<ele>43.462</ele>
<time>2016-01-16T00:40:03.577Z</time>
</trkpt>
<trkpt lat="-27.9803135" lon="152.9601858">
<ele>44.147</ele>
<time>2016-01-16T00:40:06.573Z</time>
</trkpt>
<trkpt lat="-27.9802124" lon="152.9594350">
<ele>44.810</ele>
<time>2016-01-16T00:40:09.594Z</time>
</trkpt>
<trkpt lat="-27.9801587" lon="152.9589380">
<ele>45.512</ele>
<time>2016-01-16T00:40:11.585Z</time>
</trkpt>
<trkpt lat="-27.9800481" lon="152.9581948">
<ele>45.973</ele>
<time>2016-01-16T00:40:14.584Z</time>
</trkpt>
<trkpt lat="-27.9799743" lon="152.9576869">
<ele>46.111</ele>
<time>2016-01-16T00:40:16.620Z</time>
</trkpt>
<trkpt lat="-27.9798678" lon="152.9569190">
<ele>46.241</ele>
<time>2016-01-16T00:40:19.643Z</time>
</trkpt>
<trkpt lat="-27.9797988" lon="152.9564109">
<ele>46.516</ele>
<time>2016-01-16T00:40:21.648Z</time>
</trkpt>
<trkpt lat="-27.9796499" lon="152.9559488">
<ele>46.698</ele>
<time>2016-01-16T00:40:23.571Z</time>
</trkpt>
<trkpt lat="-27.9795893" lon="152.9554417">
<ele>46.691</ele>
<time>2016-01-16T00:40:25.562Z</time>
</trkpt>
<trkpt lat="-27.9795332" lon="152.9546530">
<ele>46.676</ele>
<time>2016-01-16T00:40:28.646Z</time>
</trkpt>
<trkpt lat="-27.9794261" lon="152.9541725">
<ele>46.714</ele>
<time>2016-01-16T00:40:30.575Z</time>
</trkpt>
<trkpt lat="-27.9793199" lon="152.9534101">
<ele>46.726</ele>
<time>2016-01-16T00:40:33.534Z</time>
</trkpt>
<trkpt lat="-27.9792108" lon="152.9526075">
<ele>46.637</ele>
<time>2016-01-16T00:40:36.582Z</time>
</trkpt>
<trkpt lat="-27.9791341" lon="152.9520809">
<ele>46.944</ele>
<time>2016-01-16T00:40:38.569Z</time>
</trkpt>
<trkpt lat="-27.9790571" lon="152.9515556">
<ele>47.986</ele>
<time>2016-01-16T00:40:40.557Z</time>
</trkpt>
<trkpt lat="-27.9790047" lon="152.9510277">
<ele>49.083</ele>
<time>2016-01-16T00:40:42.562Z</time>
</trkpt>
<trkpt lat="-27.9789039" lon="152.9502588">
<ele>49.569</ele>
<time>2016-01-16T00:40:45.476Z</time>
</trkpt>
<trkpt lat="-27.9788216" lon="152.9497144">
<ele>49.694</ele>
<time>2016-01-16T00:40:47.493Z</time>
</trkpt>
<trkpt lat="-27.9786969" lon="152.9488991">
<ele>49.838</ele>
<time>2016-01-16T00:40:50.519Z</time>
</trkpt>
<trkpt lat="-27.9785856" lon="152.9481057">
<ele>50.027</ele>
<time>2016-01-16T00:40:53.505Z</time>
</trkpt>
<trkpt lat="-27.9785406" lon="152.9475752">
<ele>50.114</ele>
<time>2016-01-16T00:40:55.530Z</time>
</trkpt>
<trkpt lat="-27.9784197" lon="152.9470933">
<ele>49.959</ele>
<time>2016-01-16T00:40:57.467Z</time>
</trkpt>
<trkpt lat="-27.9783344" lon="152.9465928">
<ele>49.569</ele>
<time>2016-01-16T00:40:59.471Z</time>
</trkpt>
<trkpt lat="-27.9782196" lon="152.9458547">
<ele>49.215</ele>
<time>2016-01-16T00:41:02.488Z</time>
</trkpt>
<trkpt lat="-27.9781360" lon="152.9451368">
<ele>49.090</ele>
<time>2016-01-16T00:41:05.515Z</time>
</trkpt>
<trkpt lat="-27.9780156" lon="152.9446995">
<ele>48.986</ele>
<time>2016-01-16T00:41:07.483Z</time>
</trkpt>
<trkpt lat="-27.9779394" lon="152.9440028">
<ele>48.707</ele>
<time>2016-01-16T00:41:10.487Z</time>
</trkpt>
<trkpt lat="-27.9778787" lon="152.9435371">
<ele>48.762</ele>
<time>2016-01-16T00:41:12.463Z</time>
</trkpt>
<trkpt lat="-27.9777647" lon="152.9428255">
<ele>49.636</ele>
<time>2016-01-16T00:41:15.487Z</time>
</trkpt>
<trkpt lat="-27.9776935" lon="152.9423564">
<ele>50.853</ele>
<time>2016-01-16T00:41:17.507Z</time>
</trkpt>
<trkpt lat="-27.9775709" lon="152.9416804">
<ele>51.739</ele>
<time>2016-01-16T00:41:20.487Z</time>
</trkpt>
<trkpt lat="-27.9775062" lon="152.9412451">
<ele>52.166</ele>
<time>2016-01-16T00:41:22.435Z</time>
</trkpt>
<trkpt lat="-27.9774398" lon="152.9407965">
<ele>52.499</ele>
<time>2016-01-16T00:41:24.467Z</time>
</trkpt>
<trkpt lat="-27.9773542" lon="152.9401656">
<ele>53.119</ele>
<time>2016-01-16T00:41:27.330Z</time>
</trkpt>
<trkpt lat="-27.9773132" lon="152.9397018">
<ele>53.815</ele>
<time>2016-01-16T00:41:29.383Z</time>
</trkpt>
<trkpt lat="-27.9771951" lon="152.9390297">
<ele>54.207</ele>
<time>2016-01-16T00:41:32.350Z</time>
</trkpt>
<trkpt lat="-27.9770524" lon="152.9385946">
<ele>54.887</ele>
<time>2016-01-16T00:41:34.334Z</time>
</trkpt>
<trkpt lat="-27.9769812" lon="152.9381329">
<ele>56.469</ele>
<time>2016-01-16T00:41:36.323Z</time>
</trkpt>
<trkpt lat="-27.9768892" lon="152.9374192">
<ele>58.236</ele>
<time>2016-01-16T00:41:39.364Z</time>
</trkpt>
<trkpt lat="-27.9768156" lon="152.9367051">
<ele>59.404</ele>
<time>2016-01-16T00:41:42.349Z</time>
</trkpt>
<trkpt lat="-27.9766965" lon="152.9359696">
<ele>60.158</ele>
<time>2016-01-16T00:41:45.359Z</time>
</trkpt>
<trkpt lat="-27.9765909" lon="152.9352149">
<ele>60.878</ele>
<time>2016-01-16T00:41:48.365Z</time>
</trkpt>
<trkpt lat="-27.9765086" lon="152.9344648">
<ele>61.687</ele>
<time>2016-01-16T00:41:51.325Z</time>
</trkpt>
<trkpt lat="-27.9764609" lon="152.9339484">
<ele>62.153</ele>
<time>2016-01-16T00:41:53.344Z</time>
</trkpt>
<trkpt lat="-27.9764152" lon="152.9334420">
<ele>61.942</ele>
<time>2016-01-16T00:41:55.330Z</time>
</trkpt>
<trkpt lat="-27.9763027" lon="152.9326980">
<ele>61.485</ele>
<time>2016-01-16T00:41:58.289Z</time>
</trkpt>
<trkpt lat="-27.9761176" lon="152.9319871">
<ele>61.300</ele>
<time>2016-01-16T00:42:01.187Z</time>
</trkpt>
<trkpt lat="-27.9760182" lon="152.9314816">
<ele>61.717</ele>
<time>2016-01-16T00:42:03.201Z</time>
</trkpt>
<trkpt lat="-27.9759238" lon="152.9309895">
<ele>62.798</ele>
<time>2016-01-16T00:42:05.191Z</time>
</trkpt>
<trkpt lat="-27.9757637" lon="152.9302594">
<ele>64.318</ele>
<time>2016-01-16T00:42:08.209Z</time>
</trkpt>
<trkpt lat="-27.9756565" lon="152.9297511">
<ele>66.255</ele>
<time>2016-01-16T00:42:10.327Z</time>
</trkpt>
<trkpt lat="-27.9755350" lon="152.9292883">
<ele>68.869</ele>
<time>2016-01-16T00:42:12.302Z</time>
</trkpt>
<trkpt lat="-27.9754220" lon="152.9285728">
<ele>71.843</ele>
<time>2016-01-16T00:42:15.271Z</time>
</trkpt>
<trkpt lat="-27.9753219" lon="152.9280941">
<ele>74.578</ele>
<time>2016-01-16T00:42:17.237Z</time>
</trkpt>
<trkpt lat="-27.9752218" lon="152.9275997">
<ele>77.370</ele>
<time>2016-01-16T00:42:19.210Z</time>
</trkpt>
<trkpt lat="-27.9750468" lon="152.9268363">
<ele>81.186</ele>
<time>2016-01-16T00:42:22.207Z</time>
</trkpt>
<trkpt lat="-27.9749248" lon="152.9263140">
<ele>85.595</ele>
<time>2016-01-16T00:42:24.186Z</time>
</trkpt>
<trkpt lat="-27.9747527" lon="152.9254905">
<ele>89.366</ele>
<time>2016-01-16T00:42:27.245Z</time>
</trkpt>
<trkpt lat="-27.9746375" lon="152.9249718">
<ele>92.003</ele>
<time>2016-01-16T00:42:29.191Z</time>
</trkpt>
<trkpt lat="-27.9745472" lon="152.9244597">
<ele>93.043</ele>
<time>2016-01-16T00:42:31.098Z</time>
</trkpt>
<trkpt lat="-27.9743984" lon="152.9236539">
<ele>92.035</ele>
<time>2016-01-16T00:42:34.089Z</time>
</trkpt>
<trkpt lat="-27.9742857" lon="152.9231166">
<ele>89.646</ele>
<time>2016-01-16T00:42:36.078Z</time>
</trkpt>
<trkpt lat="-27.9741686" lon="152.9225844">
<ele>87.092</ele>
<time>2016-01-16T00:42:38.078Z</time>
</trkpt>
<trkpt lat="-27.9740059" lon="152.9218171">
<ele>85.329</ele>
<time>2016-01-16T00:42:41.010Z</time>
</trkpt>
<trkpt lat="-27.9736973" lon="152.9210867">
<ele>84.270</ele>
<time>2016-01-16T00:42:44.057Z</time>
</trkpt>
<trkpt lat="-27.9734414" lon="152.9206368">
<ele>83.354</ele>
<time>2016-01-16T00:42:46.049Z</time>
</trkpt>
<trkpt lat="-27.9729856" lon="152.9200347">
<ele>82.690</ele>
<time>2016-01-16T00:42:48.975Z</time>
</trkpt>
<trkpt lat="-27.9724457" lon="152.9195336">
<ele>82.515</ele>
<time>2016-01-16T00:42:51.871Z</time>
</trkpt>
<trkpt lat="-27.9720125" lon="152.9192538">
<ele>82.595</ele>
<time>2016-01-16T00:42:53.914Z</time>
</trkpt>
<trkpt lat="-27.9715661" lon="152.9189757">
<ele>82.682</ele>
<time>2016-01-16T00:42:56.003Z</time>
</trkpt>
<trkpt lat="-27.9709564" lon="152.9185780">
<ele>82.796</ele>
<time>2016-01-16T00:42:58.949Z</time>
</trkpt>
<trkpt lat="-27.9705545" lon="152.9182972">
<ele>83.014</ele>
<time>2016-01-16T00:43:00.973Z</time>
</trkpt>
<trkpt lat="-27.9701702" lon="152.9179875">
<ele>83.378</ele>
<time>2016-01-16T00:43:02.989Z</time>
</trkpt>
<trkpt lat="-27.9697285" lon="152.9173734">
<ele>84.542</ele>
<time>2016-01-16T00:43:05.987Z</time>
</trkpt>
<trkpt lat="-27.9695164" lon="152.9169112">
<ele>87.428</ele>
<time>2016-01-16T00:43:07.992Z</time>
</trkpt>
<trkpt lat="-27.9692760" lon="152.9161413">
<ele>91.528</ele>
<time>2016-01-16T00:43:11.161Z</time>
</trkpt>
<trkpt lat="-27.9691932" lon="152.9156417">
<ele>95.439</ele>
<time>2016-01-16T00:43:13.150Z</time>
</trkpt>
<trkpt lat="-27.9691104" lon="152.9148806">
<ele>98.528</ele>
<time>2016-01-16T00:43:16.171Z</time>
</trkpt>
<trkpt lat="-27.9691412" lon="152.9140577">
<ele>100.707</ele>
<time>2016-01-16T00:43:19.373Z</time>
</trkpt>
<trkpt lat="-27.9691502" lon="152.9135366">
<ele>102.454</ele>
<time>2016-01-16T00:43:21.391Z</time>
</trkpt>
<trkpt lat="-27.9690407" lon="152.9127861">
<ele>104.465</ele>
<time>2016-01-16T00:43:24.378Z</time>
</trkpt>
<trkpt lat="-27.9688212" lon="152.9120770">
<ele>106.361</ele>
<time>2016-01-16T00:43:27.377Z</time>
</trkpt>
<trkpt lat="-27.9685597" lon="152.9116188">
<ele>106.971</ele>
<time>2016-01-16T00:43:29.516Z</time>
</trkpt>
<trkpt lat="-27.9681501" lon="152.9110188">
<ele>106.043</ele>
<time>2016-01-16T00:43:32.426Z</time>
</trkpt>
<trkpt lat="-27.9676363" lon="152.9104677">
<ele>104.360</ele>
<time>2016-01-16T00:43:35.488Z</time>
</trkpt>
<trkpt lat="-27.9670774" lon="152.9100604">
<ele>102.468</ele>
<time>2016-01-16T00:43:38.443Z</time>
</trkpt>
<trkpt lat="-27.9666875" lon="152.9098407">
<ele>99.123</ele>
<time>2016-01-16T00:43:40.433Z</time>
</trkpt>
<trkpt lat="-27.9660704" lon="152.9096023">
<ele>93.350</ele>
<time>2016-01-16T00:43:43.387Z</time>
</trkpt>
<trkpt lat="-27.9654001" lon="152.9094289">
<ele>86.333</ele>
<time>2016-01-16T00:43:46.434Z</time>
</trkpt>
<trkpt lat="-27.9647440" lon="152.9092298">
<ele>79.999</ele>
<time>2016-01-16T00:43:49.445Z</time>
</trkpt>
<trkpt lat="-27.9643216" lon="152.9090400">
<ele>75.020</ele>
<time>2016-01-16T00:43:51.492Z</time>
</trkpt>
<trkpt lat="-27.9637991" lon="152.9086467">
<ele>71.239</ele>
<time>2016-01-16T00:43:54.381Z</time>
</trkpt>
<trkpt lat="-27.9633269" lon="152.9081477">
<ele>67.981</ele>
<time>2016-01-16T00:43:57.369Z</time>
</trkpt>
<trkpt lat="-27.9629541" lon="152.9075677">
<ele>65.023</ele>
<time>2016-01-16T00:44:00.304Z</time>
</trkpt>
<trkpt lat="-27.9627718" lon="152.9071216">
<ele>62.278</ele>
<time>2016-01-16T00:44:02.299Z</time>
</trkpt>
<trkpt lat="-27.9625820" lon="152.9063992">
<ele>59.771</ele>
<time>2016-01-16T00:44:05.299Z</time>
</trkpt>
<trkpt lat="-27.9624661" lon="152.9058968">
<ele>57.990</ele>
<time>2016-01-16T00:44:07.306Z</time>
</trkpt>
<trkpt lat="-27.9622952" lon="152.9051346">
<ele>57.409</ele>
<time>2016-01-16T00:44:10.307Z</time>
</trkpt>
<trkpt lat="-27.9621893" lon="152.9046151">
<ele>58.359</ele>
<time>2016-01-16T00:44:12.325Z</time>
</trkpt>
<trkpt lat="-27.9620993" lon="152.9040901">
<ele>60.758</ele>
<time>2016-01-16T00:44:14.377Z</time>
</trkpt>
<trkpt lat="-27.9619013" lon="152.9033728">
<ele>63.166</ele>
<time>2016-01-16T00:44:17.316Z</time>
</trkpt>
<trkpt lat="-27.9616492" lon="152.9026953">
<ele>64.373</ele>
<time>2016-01-16T00:44:20.244Z</time>
</trkpt>
<trkpt lat="-27.9614515" lon="152.9022535">
<ele>64.646</ele>
<time>2016-01-16T00:44:22.220Z</time>
</trkpt>
<trkpt lat="-27.9612850" lon="152.9017840">
<ele>64.800</ele>
<time>2016-01-16T00:44:24.216Z</time>
</trkpt>
<trkpt lat="-27.9611673" lon="152.9012774">
<ele>65.217</ele>
<time>2016-01-16T00:44:26.230Z</time>
</trkpt>
<trkpt lat="-27.9610987" lon="152.9007489">
<ele>65.601</ele>
<time>2016-01-16T00:44:28.233Z</time>
</trkpt>
<trkpt lat="-27.9610634" lon="152.8999488">
<ele>65.436</ele>
<time>2016-01-16T00:44:31.183Z</time>
</trkpt>
<trkpt lat="-27.9611387" lon="152.8991234">
<ele>64.678</ele>
<time>2016-01-16T00:44:34.194Z</time>
</trkpt>
<trkpt lat="-27.9612595" lon="152.8985821">
<ele>63.870</ele>
<time>2016-01-16T00:44:36.230Z</time>
</trkpt>
<trkpt lat="-27.9614913" lon="152.8978145">
<ele>63.370</ele>
<time>2016-01-16T00:44:39.278Z</time>
</trkpt>
<trkpt lat="-27.9616613" lon="152.8973370">
<ele>62.629</ele>
<time>2016-01-16T00:44:41.290Z</time>
</trkpt>
<trkpt lat="-27.9617993" lon="152.8969043">
<ele>61.006</ele>
<time>2016-01-16T00:44:43.206Z</time>
</trkpt>
<trkpt lat="-27.9619378" lon="152.8964899">
<ele>58.522</ele>
<time>2016-01-16T00:44:45.229Z</time>
</trkpt>
<trkpt lat="-27.9621365" lon="152.8959332">
<ele>55.841</ele>
<time>2016-01-16T00:44:48.176Z</time>
</trkpt>
<trkpt lat="-27.9622569" lon="152.8955677">
<ele>53.188</ele>
<time>2016-01-16T00:44:50.143Z</time>
</trkpt>
<trkpt lat="-27.9624799" lon="152.8950168">
<ele>50.621</ele>
<time>2016-01-16T00:44:53.109Z</time>
</trkpt>
<trkpt lat="-27.9626702" lon="152.8944113">
<ele>48.957</ele>
<time>2016-01-16T00:44:56.134Z</time>
</trkpt>
<trkpt lat="-27.9627886" lon="152.8937844">
<ele>49.088</ele>
<time>2016-01-16T00:44:59.081Z</time>
</trkpt>
<trkpt lat="-27.9627875" lon="152.8933180">
<ele>50.745</ele>
<time>2016-01-16T00:45:01.179Z</time>
</trkpt>
<trkpt lat="-27.9626456" lon="152.8925326">
<ele>53.087</ele>
<time>2016-01-16T00:45:04.379Z</time>
</trkpt>
<trkpt lat="-27.9625437" lon="152.8919948">
<ele>55.760</ele>
<time>2016-01-16T00:45:06.396Z</time>
</trkpt>
<trkpt lat="-27.9624290" lon="152.8911687">
<ele>59.065</ele>
<time>2016-01-16T00:45:09.486Z</time>
</trkpt>
<trkpt lat="-27.9623115" lon="152.8904107">
<ele>63.433</ele>
<time>2016-01-16T00:45:12.433Z</time>
</trkpt>
<trkpt lat="-27.9621840" lon="152.8896736">
<ele>68.389</ele>
<time>2016-01-16T00:45:15.366Z</time>
</trkpt>
<trkpt lat="-27.9621123" lon="152.8891721">
<ele>72.562</ele>
<time>2016-01-16T00:45:17.348Z</time>
</trkpt>
<trkpt lat="-27.9619435" lon="152.8884302">
<ele>75.148</ele>
<time>2016-01-16T00:45:20.278Z</time>
</trkpt>
<trkpt lat="-27.9617598" lon="152.8879160">
<ele>76.751</ele>
<time>2016-01-16T00:45:22.296Z</time>
</trkpt>
<trkpt lat="-27.9613788" lon="152.8871874">
<ele>78.553</ele>
<time>2016-01-16T00:45:25.307Z</time>
</trkpt>
<trkpt lat="-27.9608987" lon="152.8864992">
<ele>81.502</ele>
<time>2016-01-16T00:45:28.404Z</time>
</trkpt>
<trkpt lat="-27.9606021" lon="152.8860856">
<ele>85.678</ele>
<time>2016-01-16T00:45:30.298Z</time>
</trkpt>
<trkpt lat="-27.9601072" lon="152.8854801">
<ele>90.110</ele>
<time>2016-01-16T00:45:33.214Z</time>
</trkpt>
<trkpt lat="-27.9597700" lon="152.8850480">
<ele>93.834</ele>
<time>2016-01-16T00:45:35.260Z</time>
</trkpt>
<trkpt lat="-27.9592673" lon="152.8844653">
<ele>96.824</ele>
<time>2016-01-16T00:45:38.234Z</time>
</trkpt>
<trkpt lat="-27.9586917" lon="152.8840090">
<ele>99.284</ele>
<time>2016-01-16T00:45:41.285Z</time>
</trkpt>
<trkpt lat="-27.9583005" lon="152.8838196">
<ele>101.077</ele>
<time>2016-01-16T00:45:43.243Z</time>
</trkpt>
<trkpt lat="-27.9576951" lon="152.8837252">
<ele>101.954</ele>
<time>2016-01-16T00:45:46.102Z</time>
</trkpt>
<trkpt lat="-27.9570430" lon="152.8837691">
<ele>101.967</ele>
<time>2016-01-16T00:45:49.064Z</time>
</trkpt>
<trkpt lat="-27.9565707" lon="152.8838252">
<ele>101.851</ele>
<time>2016-01-16T00:45:51.030Z</time>
</trkpt>
<trkpt lat="-27.9558035" lon="152.8839336">
<ele>102.463</ele>
<time>2016-01-16T00:45:54.086Z</time>
</trkpt>
<trkpt lat="-27.9552959" lon="152.8839946">
<ele>103.781</ele>
<time>2016-01-16T00:45:56.062Z</time>
</trkpt>
<trkpt lat="-27.9545144" lon="152.8839893">
<ele>104.777</ele>
<time>2016-01-16T00:45:59.051Z</time>
</trkpt>
<trkpt lat="-27.9539528" lon="152.8839088">
<ele>104.429</ele>
<time>2016-01-16T00:46:01.132Z</time>
</trkpt>
<trkpt lat="-27.9531160" lon="152.8836746">
<ele>102.832</ele>
<time>2016-01-16T00:46:04.229Z</time>
</trkpt>
<trkpt lat="-27.9523357" lon="152.8833092">
<ele>100.899</ele>
<time>2016-01-16T00:46:07.247Z</time>
</trkpt>
<trkpt lat="-27.9518471" lon="152.8830209">
<ele>98.566</ele>
<time>2016-01-16T00:46:09.216Z</time>
</trkpt>
<trkpt lat="-27.9513713" lon="152.8827017">
<ele>95.314</ele>
<time>2016-01-16T00:46:11.152Z</time>
</trkpt>
<trkpt lat="-27.9506945" lon="152.8820778">
<ele>92.058</ele>
<time>2016-01-16T00:46:14.143Z</time>
</trkpt>
<trkpt lat="-27.9502708" lon="152.8816387">
<ele>90.053</ele>
<time>2016-01-16T00:46:16.103Z</time>
</trkpt>
<trkpt lat="-27.9498927" lon="152.8811364">
<ele>89.501</ele>
<time>2016-01-16T00:46:18.170Z</time>
</trkpt>
<trkpt lat="-27.9494517" lon="152.8803835">
<ele>89.913</ele>
<time>2016-01-16T00:46:21.144Z</time>
</trkpt>
<trkpt lat="-27.9491519" lon="152.8795760">
<ele>90.268</ele>
<time>2016-01-16T00:46:24.205Z</time>
</trkpt>
<trkpt lat="-27.9489277" lon="152.8787918">
<ele>89.948</ele>
<time>2016-01-16T00:46:27.251Z</time>
</trkpt>
<trkpt lat="-27.9488032" lon="152.8780709">
<ele>89.352</ele>
<time>2016-01-16T00:46:30.053Z</time>
</trkpt>
<trkpt lat="-27.9486955" lon="152.8772719">
<ele>89.362</ele>
<time>2016-01-16T00:46:33.053Z</time>
</trkpt>
<trkpt lat="-27.9486640" lon="152.8766995">
<ele>91.431</ele>
<time>2016-01-16T00:46:35.107Z</time>
</trkpt>
<trkpt lat="-27.9485262" lon="152.8758474">
<ele>95.590</ele>
<time>2016-01-16T00:46:38.257Z</time>
</trkpt>
<trkpt lat="-27.9484118" lon="152.8753428">
<ele>98.414</ele>
<time>2016-01-16T00:46:40.235Z</time>
</trkpt>
<trkpt lat="-27.9481799" lon="152.8746185">
<ele>96.844</ele>
<time>2016-01-16T00:46:43.199Z</time>
</trkpt>
<trkpt lat="-27.9478179" lon="152.8739403">
<ele>91.663</ele>
<time>2016-01-16T00:46:46.208Z</time>
</trkpt>
<trkpt lat="-27.9475039" lon="152.8735184">
<ele>85.647</ele>
<time>2016-01-16T00:46:48.245Z</time>
</trkpt>
<trkpt lat="-27.9472405" lon="152.8730668">
<ele>81.243</ele>
<time>2016-01-16T00:46:50.233Z</time>
</trkpt>
<trkpt lat="-27.9469299" lon="152.8723333">
<ele>78.964</ele>
<time>2016-01-16T00:46:53.217Z</time>
</trkpt>
<trkpt lat="-27.9467801" lon="152.8718161">
<ele>77.826</ele>
<time>2016-01-16T00:46:55.167Z</time>
</trkpt>
<trkpt lat="-27.9466717" lon="152.8712457">
<ele>77.334</ele>
<time>2016-01-16T00:46:57.193Z</time>
</trkpt>
<trkpt lat="-27.9465945" lon="152.8703712">
<ele>77.413</ele>
<time>2016-01-16T00:47:00.236Z</time>
</trkpt>
<trkpt lat="-27.9466431" lon="152.8695177">
<ele>77.551</ele>
<time>2016-01-16T00:47:03.342Z</time>
</trkpt>
<trkpt lat="-27.9466638" lon="152.8687555">
<ele>76.796</ele>
<time>2016-01-16T00:47:06.409Z</time>
</trkpt>
<trkpt lat="-27.9467042" lon="152.8681206">
<ele>74.807</ele>
<time>2016-01-16T00:47:09.254Z</time>
</trkpt>
<trkpt lat="-27.9467342" lon="152.8674798">
<ele>72.171</ele>
<time>2016-01-16T00:47:12.233Z</time>
</trkpt>
<trkpt lat="-27.9467678" lon="152.8668092">
<ele>69.703</ele>
<time>2016-01-16T00:47:15.252Z</time>
</trkpt>
<trkpt lat="-27.9467934" lon="152.8663545">
<ele>68.585</ele>
<time>2016-01-16T00:47:17.181Z</time>
</trkpt>
<trkpt lat="-27.9467609" lon="152.8656097">
<ele>69.519</ele>
<time>2016-01-16T00:47:20.213Z</time>
</trkpt>
<trkpt lat="-27.9466680" lon="152.8651049">
<ele>71.660</ele>
<time>2016-01-16T00:47:22.197Z</time>
</trkpt>
<trkpt lat="-27.9464154" lon="152.8643008">
<ele>73.828</ele>
<time>2016-01-16T00:47:25.392Z</time>
</trkpt>
<trkpt lat="-27.9460766" lon="152.8635870">
<ele>75.583</ele>
<time>2016-01-16T00:47:28.378Z</time>
</trkpt>
<trkpt lat="-27.9458424" lon="152.8631178">
<ele>76.883</ele>
<time>2016-01-16T00:47:30.399Z</time>
</trkpt>
<trkpt lat="-27.9454842" lon="152.8624445">
<ele>77.442</ele>
<time>2016-01-16T00:47:33.406Z</time>
</trkpt>
<trkpt lat="-27.9451368" lon="152.8618129">
<ele>76.624</ele>
<time>2016-01-16T00:47:36.304Z</time>
</trkpt>
<trkpt lat="-27.9448849" lon="152.8613698">
<ele>74.502</ele>
<time>2016-01-16T00:47:38.341Z</time>
</trkpt>
<trkpt lat="-27.9445169" lon="152.8607150">
<ele>72.237</ele>
<time>2016-01-16T00:47:41.278Z</time>
</trkpt>
<trkpt lat="-27.9442625" lon="152.8602527">
<ele>71.189</ele>
<time>2016-01-16T00:47:43.279Z</time>
</trkpt>
<trkpt lat="-27.9440220" lon="152.8597943">
<ele>71.732</ele>
<time>2016-01-16T00:47:45.234Z</time>
</trkpt>
<trkpt lat="-27.9437864" lon="152.8593198">
<ele>73.515</ele>
<time>2016-01-16T00:47:47.223Z</time>
</trkpt>
<trkpt lat="-27.9434832" lon="152.8585402">
<ele>75.879</ele>
<time>2016-01-16T00:47:50.225Z</time>
</trkpt>
<trkpt lat="-27.9433002" lon="152.8579543">
<ele>77.922</ele>
<time>2016-01-16T00:47:52.248Z</time>
</trkpt>
<trkpt lat="-27.9430539" lon="152.8570517">
<ele>79.389</ele>
<time>2016-01-16T00:47:55.271Z</time>
</trkpt>
<trkpt lat="-27.9428858" lon="152.8561568">
<ele>80.640</ele>
<time>2016-01-16T00:47:58.259Z</time>
</trkpt>
<trkpt lat="-27.9428101" lon="152.8555786">
<ele>81.534</ele>
<time>2016-01-16T00:48:00.250Z</time>
</trkpt>
<trkpt lat="-27.9427594" lon="152.8550153">
<ele>81.623</ele>
<time>2016-01-16T00:48:02.227Z</time>
</trkpt>
<trkpt lat="-27.9427353" lon="152.8541584">
<ele>80.641</ele>
<time>2016-01-16T00:48:05.235Z</time>
</trkpt>
<trkpt lat="-27.9427463" lon="152.8533075">
<ele>78.530</ele>
<time>2016-01-16T00:48:08.208Z</time>
</trkpt>
<trkpt lat="-27.9427300" lon="152.8527460">
<ele>75.964</ele>
<time>2016-01-16T00:48:10.159Z</time>
</trkpt>
<trkpt lat="-27.9427023" lon="152.8521722">
<ele>74.041</ele>
<time>2016-01-16T00:48:12.169Z</time>
</trkpt>
<trkpt lat="-27.9426371" lon="152.8513633">
<ele>73.303</ele>
<time>2016-01-16T00:48:15.040Z</time>
</trkpt>
<trkpt lat="-27.9425621" lon="152.8508030">
<ele>73.575</ele>
<time>2016-01-16T00:48:17.058Z</time>
</trkpt>
<trkpt lat="-27.9423716" lon="152.8499842">
<ele>74.890</ele>
<time>2016-01-16T00:48:20.085Z</time>
</trkpt>
<trkpt lat="-27.9422499" lon="152.8494580">
<ele>76.971</ele>
<time>2016-01-16T00:48:22.025Z</time>
</trkpt>
<trkpt lat="-27.9420174" lon="152.8486399">
<ele>79.019</ele>
<time>2016-01-16T00:48:25.059Z</time>
</trkpt>
<trkpt lat="-27.9418542" lon="152.8481053">
<ele>80.542</ele>
<time>2016-01-16T00:48:27.034Z</time>
</trkpt>
<trkpt lat="-27.9416655" lon="152.8475519">
<ele>81.476</ele>
<time>2016-01-16T00:48:29.077Z</time>
</trkpt>
<trkpt lat="-27.9414781" lon="152.8470004">
<ele>81.955</ele>
<time>2016-01-16T00:48:31.087Z</time>
</trkpt>
<trkpt lat="-27.9412188" lon="152.8461629">
<ele>82.288</ele>
<time>2016-01-16T00:48:34.121Z</time>
</trkpt>
<trkpt lat="-27.9410015" lon="152.8453355">
<ele>82.499</ele>
<time>2016-01-16T00:48:37.163Z</time>
</trkpt>
<trkpt lat="-27.9409049" lon="152.8448187">
<ele>82.565</ele>
<time>2016-01-16T00:48:39.107Z</time>
</trkpt>
<trkpt lat="-27.9408274" lon="152.8443062">
<ele>82.463</ele>
<time>2016-01-16T00:48:41.061Z</time>
</trkpt>
<trkpt lat="-27.9407578" lon="152.8437841">
<ele>81.493</ele>
<time>2016-01-16T00:48:43.061Z</time>
</trkpt>
<trkpt lat="-27.9407168" lon="152.8432701">
<ele>79.048</ele>
<time>2016-01-16T00:48:45.026Z</time>
</trkpt>
<trkpt lat="-27.9406843" lon="152.8424986">
<ele>76.122</ele>
<time>2016-01-16T00:48:47.979Z</time>
</trkpt>
<trkpt lat="-27.9406838" lon="152.8419708">
<ele>74.172</ele>
<time>2016-01-16T00:48:50.005Z</time>
</trkpt>
<trkpt lat="-27.9406990" lon="152.8414576">
<ele>73.465</ele>
<time>2016-01-16T00:48:51.966Z</time>
</trkpt>
<trkpt lat="-27.9407666" lon="152.8406649">
<ele>73.665</ele>
<time>2016-01-16T00:48:54.962Z</time>
</trkpt>
<trkpt lat="-27.9408388" lon="152.8401310">
<ele>74.361</ele>
<time>2016-01-16T00:48:56.959Z</time>
</trkpt>
<trkpt lat="-27.9409249" lon="152.8395892">
<ele>75.787</ele>
<time>2016-01-16T00:48:59.011Z</time>
</trkpt>
<trkpt lat="-27.9410770" lon="152.8388107">
<ele>78.626</ele>
<time>2016-01-16T00:49:02.028Z</time>
</trkpt>
<trkpt lat="-27.9412669" lon="152.8380601">
<ele>82.149</ele>
<time>2016-01-16T00:49:05.007Z</time>
</trkpt>
<trkpt lat="-27.9414304" lon="152.8373103">
<ele>85.155</ele>
<time>2016-01-16T00:49:07.944Z</time>
</trkpt>
<trkpt lat="-27.9415260" lon="152.8367972">
<ele>87.878</ele>
<time>2016-01-16T00:49:09.926Z</time>
</trkpt>
<trkpt lat="-27.9415839" lon="152.8362751">
<ele>90.570</ele>
<time>2016-01-16T00:49:11.911Z</time>
</trkpt>
<trkpt lat="-27.9416421" lon="152.8355007">
<ele>92.804</ele>
<time>2016-01-16T00:49:14.846Z</time>
</trkpt>
<trkpt lat="-27.9416580" lon="152.8347009">
<ele>94.468</ele>
<time>2016-01-16T00:49:17.844Z</time>
</trkpt>
<trkpt lat="-27.9416220" lon="152.8338727">
<ele>95.639</ele>
<time>2016-01-16T00:49:20.876Z</time>
</trkpt>
<trkpt lat="-27.9414981" lon="152.8330694">
<ele>96.388</ele>
<time>2016-01-16T00:49:23.818Z</time>
</trkpt>
<trkpt lat="-27.9413936" lon="152.8325203">
<ele>97.068</ele>
<time>2016-01-16T00:49:25.861Z</time>
</trkpt>
<trkpt lat="-27.9410996" lon="152.8314822">
<ele>97.966</ele>
<time>2016-01-16T00:49:29.856Z</time>
</trkpt>
<trkpt lat="-27.9408160" lon="152.8307486">
<ele>98.883</ele>
<time>2016-01-16T00:49:32.759Z</time>
</trkpt>
<trkpt lat="-27.9405844" lon="152.8302225">
<ele>99.456</ele>
<time>2016-01-16T00:49:34.826Z</time>
</trkpt>
<trkpt lat="-27.9401831" lon="152.8294534">
<ele>100.069</ele>
<time>2016-01-16T00:49:37.892Z</time>
</trkpt>
<trkpt lat="-27.9397442" lon="152.8287359">
<ele>101.188</ele>
<time>2016-01-16T00:49:40.862Z</time>
</trkpt>
<trkpt lat="-27.9392325" lon="152.8280552">
<ele>102.473</ele>
<time>2016-01-16T00:49:43.918Z</time>
</trkpt>
<trkpt lat="-27.9388926" lon="152.8276398">
<ele>103.263</ele>
<time>2016-01-16T00:49:45.897Z</time>
</trkpt>
<trkpt lat="-27.9383467" lon="152.8270752">
<ele>103.008</ele>
<time>2016-01-16T00:49:48.894Z</time>
</trkpt>
<trkpt lat="-27.9379597" lon="152.8267166">
<ele>101.762</ele>
<time>2016-01-16T00:49:50.962Z</time>
</trkpt>
<trkpt lat="-27.9373756" lon="152.8262077">
<ele>100.541</ele>
<time>2016-01-16T00:49:53.946Z</time>
</trkpt>
<trkpt lat="-27.9369719" lon="152.8258765">
<ele>100.034</ele>
<time>2016-01-16T00:49:55.936Z</time>
</trkpt>
<trkpt lat="-27.9364081" lon="152.8253750">
<ele>99.622</ele>
<time>2016-01-16T00:49:58.826Z</time>
</trkpt>
<trkpt lat="-27.9360340" lon="152.8250145">
<ele>98.666</ele>
<time>2016-01-16T00:50:00.837Z</time>
</trkpt>
<trkpt lat="-27.9355158" lon="152.8244639">
<ele>97.011</ele>
<time>2016-01-16T00:50:03.755Z</time>
</trkpt>
<trkpt lat="-27.9350172" lon="152.8238425">
<ele>94.752</ele>
<time>2016-01-16T00:50:06.754Z</time>
</trkpt>
<trkpt lat="-27.9344956" lon="152.8231507">
<ele>92.208</ele>
<time>2016-01-16T00:50:09.882Z</time>
</trkpt>
<trkpt lat="-27.9341829" lon="152.8226882">
<ele>89.690</ele>
<time>2016-01-16T00:50:11.818Z</time>
</trkpt>
<trkpt lat="-27.9338714" lon="152.8221763">
<ele>86.987</ele>
<time>2016-01-16T00:50:13.866Z</time>
</trkpt>
<trkpt lat="-27.9334782" lon="152.8214522">
<ele>84.206</ele>
<time>2016-01-16T00:50:16.674Z</time>
</trkpt>
<trkpt lat="-27.9332112" lon="152.8209235">
<ele>81.431</ele>
<time>2016-01-16T00:50:18.671Z</time>
</trkpt>
<trkpt lat="-27.9328348" lon="152.8200817">
<ele>78.735</ele>
<time>2016-01-16T00:50:21.710Z</time>
</trkpt>
<trkpt lat="-27.9326125" lon="152.8195233">
<ele>76.799</ele>
<time>2016-01-16T00:50:23.704Z</time>
</trkpt>
<trkpt lat="-27.9324252" lon="152.8189852">
<ele>76.099</ele>
<time>2016-01-16T00:50:25.684Z</time>
</trkpt>
<trkpt lat="-27.9321872" lon="152.8181826">
<ele>75.905</ele>
<time>2016-01-16T00:50:28.737Z</time>
</trkpt>
<trkpt lat="-27.9319925" lon="152.8174027">
<ele>75.593</ele>
<time>2016-01-16T00:50:31.710Z</time>
</trkpt>
<trkpt lat="-27.9318715" lon="152.8168441">
<ele>75.935</ele>
<time>2016-01-16T00:50:33.786Z</time>
</trkpt>
<trkpt lat="-27.9317449" lon="152.8160313">
<ele>77.996</ele>
<time>2016-01-16T00:50:36.742Z</time>
</trkpt>
<trkpt lat="-27.9316450" lon="152.8151857">
<ele>81.329</ele>
<time>2016-01-16T00:50:39.776Z</time>
</trkpt>
<trkpt lat="-27.9316111" lon="152.8146348">
<ele>84.664</ele>
<time>2016-01-16T00:50:41.771Z</time>
</trkpt>
<trkpt lat="-27.9315839" lon="152.8138366">
<ele>87.143</ele>
<time>2016-01-16T00:50:44.718Z</time>
</trkpt>
<trkpt lat="-27.9316093" lon="152.8133024">
<ele>88.367</ele>
<time>2016-01-16T00:50:46.699Z</time>
</trkpt>
<trkpt lat="-27.9316245" lon="152.8127585">
<ele>88.740</ele>
<time>2016-01-16T00:50:48.667Z</time>
</trkpt>
<trkpt lat="-27.9316550" lon="152.8119089">
<ele>89.119</ele>
<time>2016-01-16T00:50:51.634Z</time>
</trkpt>
<trkpt lat="-27.9316841" lon="152.8110416">
<ele>89.795</ele>
<time>2016-01-16T00:50:54.589Z</time>
</trkpt>
<trkpt lat="-27.9316851" lon="152.8104564">
<ele>90.603</ele>
<time>2016-01-16T00:50:56.582Z</time>
</trkpt>
<trkpt lat="-27.9316705" lon="152.8098844">
<ele>91.203</ele>
<time>2016-01-16T00:50:58.556Z</time>
</trkpt>
<trkpt lat="-27.9316544" lon="152.8090500">
<ele>90.944</ele>
<time>2016-01-16T00:51:01.499Z</time>
</trkpt>
<trkpt lat="-27.9316200" lon="152.8082372">
<ele>89.394</ele>
<time>2016-01-16T00:51:04.481Z</time>
</trkpt>
<trkpt lat="-27.9315711" lon="152.8074647">
<ele>87.019</ele>
<time>2016-01-16T00:51:07.434Z</time>
</trkpt>
<trkpt lat="-27.9315120" lon="152.8067029">
<ele>84.460</ele>
<time>2016-01-16T00:51:10.412Z</time>
</trkpt>
<trkpt lat="-27.9314391" lon="152.8059450">
<ele>82.208</ele>
<time>2016-01-16T00:51:13.380Z</time>
</trkpt>
<trkpt lat="-27.9313271" lon="152.8051550">
<ele>81.337</ele>
<time>2016-01-16T00:51:16.393Z</time>
</trkpt>
<trkpt lat="-27.9311818" lon="152.8043112">
<ele>82.322</ele>
<time>2016-01-16T00:51:19.463Z</time>
</trkpt>
<trkpt lat="-27.9310522" lon="152.8034875">
<ele>84.359</ele>
<time>2016-01-16T00:51:22.405Z</time>
</trkpt>
<trkpt lat="-27.9309527" lon="152.8029602">
<ele>86.483</ele>
<time>2016-01-16T00:51:24.362Z</time>
</trkpt>
<trkpt lat="-27.9308499" lon="152.8024521">
<ele>87.802</ele>
<time>2016-01-16T00:51:26.338Z</time>
</trkpt>
<trkpt lat="-27.9306910" lon="152.8017211">
<ele>87.812</ele>
<time>2016-01-16T00:51:29.315Z</time>
</trkpt>
<trkpt lat="-27.9305634" lon="152.8012234">
<ele>87.208</ele>
<time>2016-01-16T00:51:31.399Z</time>
</trkpt>
<trkpt lat="-27.9304429" lon="152.8007404">
<ele>86.761</ele>
<time>2016-01-16T00:51:33.409Z</time>
</trkpt>
<trkpt lat="-27.9302323" lon="152.8000121">
<ele>86.553</ele>
<time>2016-01-16T00:51:36.430Z</time>
</trkpt>
<trkpt lat="-27.9301044" lon="152.7995259">
<ele>86.443</ele>
<time>2016-01-16T00:51:38.392Z</time>
</trkpt>
<trkpt lat="-27.9299720" lon="152.7990350">
<ele>86.729</ele>
<time>2016-01-16T00:51:40.356Z</time>
</trkpt>
<trkpt lat="-27.9297263" lon="152.7982816">
<ele>87.548</ele>
<time>2016-01-16T00:51:43.378Z</time>
</trkpt>
<trkpt lat="-27.9295590" lon="152.7977633">
<ele>87.937</ele>
<time>2016-01-16T00:51:45.398Z</time>
</trkpt>
<trkpt lat="-27.9293152" lon="152.7970136">
<ele>87.102</ele>
<time>2016-01-16T00:51:48.281Z</time>
</trkpt>
<trkpt lat="-27.9291372" lon="152.7965091">
<ele>85.508</ele>
<time>2016-01-16T00:51:50.258Z</time>
</trkpt>
<trkpt lat="-27.9288999" lon="152.7957630">
<ele>83.600</ele>
<time>2016-01-16T00:51:53.158Z</time>
</trkpt>
<trkpt lat="-27.9286269" lon="152.7949586">
<ele>81.448</ele>
<time>2016-01-16T00:51:56.238Z</time>
</trkpt>
<trkpt lat="-27.9283516" lon="152.7941347">
<ele>79.581</ele>
<time>2016-01-16T00:51:59.294Z</time>
</trkpt>
<trkpt lat="-27.9281790" lon="152.7935936">
<ele>78.380</ele>
<time>2016-01-16T00:52:01.275Z</time>
</trkpt>
<trkpt lat="-27.9280345" lon="152.7930480">
<ele>77.153</ele>
<time>2016-01-16T00:52:03.260Z</time>
</trkpt>
<trkpt lat="-27.9279320" lon="152.7924846">
<ele>74.559</ele>
<time>2016-01-16T00:52:05.281Z</time>
</trkpt>
<trkpt lat="-27.9278419" lon="152.7916277">
<ele>70.882</ele>
<time>2016-01-16T00:52:08.300Z</time>
</trkpt>
<trkpt lat="-27.9278305" lon="152.7907747">
<ele>68.195</ele>
<time>2016-01-16T00:52:11.280Z</time>
</trkpt>
<trkpt lat="-27.9278739" lon="152.7902049">
<ele>67.584</ele>
<time>2016-01-16T00:52:13.275Z</time>
</trkpt>
<trkpt lat="-27.9280253" lon="152.7893500">
<ele>68.608</ele>
<time>2016-01-16T00:52:16.279Z</time>
</trkpt>
<trkpt lat="-27.9281700" lon="152.7887873">
<ele>70.530</ele>
<time>2016-01-16T00:52:18.286Z</time>
</trkpt>
<trkpt lat="-27.9284610" lon="152.7879941">
<ele>72.325</ele>
<time>2016-01-16T00:52:21.231Z</time>
</trkpt>
<trkpt lat="-27.9288014" lon="152.7872148">
<ele>73.115</ele>
<time>2016-01-16T00:52:24.190Z</time>
</trkpt>
<trkpt lat="-27.9291029" lon="152.7867276">
<ele>72.957</ele>
<time>2016-01-16T00:52:26.209Z</time>
</trkpt>
<trkpt lat="-27.9296033" lon="152.7860612">
<ele>72.559</ele>
<time>2016-01-16T00:52:29.165Z</time>
</trkpt>
<trkpt lat="-27.9299564" lon="152.7856047">
<ele>72.445</ele>
<time>2016-01-16T00:52:31.182Z</time>
</trkpt>
<trkpt lat="-27.9303076" lon="152.7851366">
<ele>72.549</ele>
<time>2016-01-16T00:52:33.220Z</time>
</trkpt>
<trkpt lat="-27.9308164" lon="152.7844950">
<ele>72.515</ele>
<time>2016-01-16T00:52:36.157Z</time>
</trkpt>
<trkpt lat="-27.9311517" lon="152.7840617">
<ele>72.063</ele>
<time>2016-01-16T00:52:38.194Z</time>
</trkpt>
<trkpt lat="-27.9314771" lon="152.7836550">
<ele>71.269</ele>
<time>2016-01-16T00:52:40.178Z</time>
</trkpt>
<trkpt lat="-27.9318172" lon="152.7832671">
<ele>70.524</ele>
<time>2016-01-16T00:52:42.187Z</time>
</trkpt>
<trkpt lat="-27.9323925" lon="152.7827156">
<ele>70.126</ele>
<time>2016-01-16T00:52:45.281Z</time>
</trkpt>
<trkpt lat="-27.9330009" lon="152.7822683">
<ele>70.579</ele>
<time>2016-01-16T00:52:48.281Z</time>
</trkpt>
<trkpt lat="-27.9335772" lon="152.7818845">
<ele>72.258</ele>
<time>2016-01-16T00:52:51.169Z</time>
</trkpt>
<trkpt lat="-27.9340054" lon="152.7816636">
<ele>74.553</ele>
<time>2016-01-16T00:52:53.189Z</time>
</trkpt>
<trkpt lat="-27.9346860" lon="152.7813960">
<ele>77.209</ele>
<time>2016-01-16T00:52:56.207Z</time>
</trkpt>
<trkpt lat="-27.9353685" lon="152.7812021">
<ele>81.022</ele>
<time>2016-01-16T00:52:59.166Z</time>
</trkpt>
<trkpt lat="-27.9358334" lon="152.7810999">
<ele>86.014</ele>
<time>2016-01-16T00:53:01.169Z</time>
</trkpt>
<trkpt lat="-27.9365511" lon="152.7810576">
<ele>91.050</ele>
<time>2016-01-16T00:53:04.180Z</time>
</trkpt>
<trkpt lat="-27.9372708" lon="152.7810180">
<ele>94.875</ele>
<time>2016-01-16T00:53:07.224Z</time>
</trkpt>
<trkpt lat="-27.9377139" lon="152.7809874">
<ele>96.842</ele>
<time>2016-01-16T00:53:09.144Z</time>
</trkpt>
<trkpt lat="-27.9383803" lon="152.7809121">
<ele>97.323</ele>
<time>2016-01-16T00:53:12.145Z</time>
</trkpt>
<trkpt lat="-27.9389982" lon="152.7807542">
<ele>97.157</ele>
<time>2016-01-16T00:53:15.068Z</time>
</trkpt>
<trkpt lat="-27.9394023" lon="152.7805820">
<ele>97.005</ele>
<time>2016-01-16T00:53:17.063Z</time>
</trkpt>
<trkpt lat="-27.9400220" lon="152.7803061">
<ele>97.088</ele>
<time>2016-01-16T00:53:20.089Z</time>
</trkpt>
<trkpt lat="-27.9405949" lon="152.7798765">
<ele>97.432</ele>
<time>2016-01-16T00:53:23.147Z</time>
</trkpt>
<trkpt lat="-27.9409697" lon="152.7795926">
<ele>97.962</ele>
<time>2016-01-16T00:53:25.112Z</time>
</trkpt>
<trkpt lat="-27.9415075" lon="152.7790817">
<ele>98.438</ele>
<time>2016-01-16T00:53:28.124Z</time>
</trkpt>
<trkpt lat="-27.9418165" lon="152.7786782">
<ele>98.719</ele>
<time>2016-01-16T00:53:30.118Z</time>
</trkpt>
<trkpt lat="-27.9421154" lon="152.7782569">
<ele>98.856</ele>
<time>2016-01-16T00:53:32.106Z</time>
</trkpt>
<trkpt lat="-27.9423803" lon="152.7778003">
<ele>98.647</ele>
<time>2016-01-16T00:53:34.099Z</time>
</trkpt>
<trkpt lat="-27.9426878" lon="152.7770391">
<ele>98.042</ele>
<time>2016-01-16T00:53:37.109Z</time>
</trkpt>
<trkpt lat="-27.9428485" lon="152.7765146">
<ele>97.609</ele>
<time>2016-01-16T00:53:39.069Z</time>
</trkpt>
<trkpt lat="-27.9430384" lon="152.7756761">
<ele>97.889</ele>
<time>2016-01-16T00:53:42.068Z</time>
</trkpt>
<trkpt lat="-27.9431093" lon="152.7750838">
<ele>98.485</ele>
<time>2016-01-16T00:53:44.108Z</time>
</trkpt>
<trkpt lat="-27.9431612" lon="152.7745024">
<ele>98.446</ele>
<time>2016-01-16T00:53:46.096Z</time>
</trkpt>
<trkpt lat="-27.9432127" lon="152.7736313">
<ele>97.028</ele>
<time>2016-01-16T00:53:49.078Z</time>
</trkpt>
<trkpt lat="-27.9433213" lon="152.7727490">
<ele>94.633</ele>
<time>2016-01-16T00:53:52.093Z</time>
</trkpt>
<trkpt lat="-27.9434199" lon="152.7721485">
<ele>92.272</ele>
<time>2016-01-16T00:53:54.129Z</time>
</trkpt>
<trkpt lat="-27.9436165" lon="152.7713153">
<ele>89.621</ele>
<time>2016-01-16T00:53:57.047Z</time>
</trkpt>
<trkpt lat="-27.9438306" lon="152.7704650">
<ele>85.466</ele>
<time>2016-01-16T00:54:00.042Z</time>
</trkpt>
<trkpt lat="-27.9439624" lon="152.7698732">
<ele>80.479</ele>
<time>2016-01-16T00:54:02.051Z</time>
</trkpt>
<trkpt lat="-27.9442097" lon="152.7689643">
<ele>76.677</ele>
<time>2016-01-16T00:54:05.118Z</time>
</trkpt>
<trkpt lat="-27.9443741" lon="152.7683828">
<ele>74.859</ele>
<time>2016-01-16T00:54:07.088Z</time>
</trkpt>
<trkpt lat="-27.9446131" lon="152.7675391">
<ele>74.743</ele>
<time>2016-01-16T00:54:10.022Z</time>
</trkpt>
<trkpt lat="-27.9447643" lon="152.7670090">
<ele>76.158</ele>
<time>2016-01-16T00:54:11.939Z</time>
</trkpt>
<trkpt lat="-27.9449102" lon="152.7664727">
<ele>78.319</ele>
<time>2016-01-16T00:54:13.922Z</time>
</trkpt>
<trkpt lat="-27.9451123" lon="152.7656905">
<ele>79.980</ele>
<time>2016-01-16T00:54:16.831Z</time>
</trkpt>
<trkpt lat="-27.9452568" lon="152.7651677">
<ele>81.152</ele>
<time>2016-01-16T00:54:18.788Z</time>
</trkpt>
<trkpt lat="-27.9454531" lon="152.7643583">
<ele>82.487</ele>
<time>2016-01-16T00:54:21.771Z</time>
</trkpt>
<trkpt lat="-27.9456492" lon="152.7635544">
<ele>83.437</ele>
<time>2016-01-16T00:54:24.754Z</time>
</trkpt>
<trkpt lat="-27.9457757" lon="152.7630329">
<ele>82.491</ele>
<time>2016-01-16T00:54:26.723Z</time>
</trkpt>
<trkpt lat="-27.9459726" lon="152.7622794">
<ele>79.428</ele>
<time>2016-01-16T00:54:29.668Z</time>
</trkpt>
<trkpt lat="-27.9461815" lon="152.7615552">
<ele>75.512</ele>
<time>2016-01-16T00:54:32.630Z</time>
</trkpt>
<trkpt lat="-27.9463154" lon="152.7610688">
<ele>71.941</ele>
<time>2016-01-16T00:54:34.660Z</time>
</trkpt>
<trkpt lat="-27.9464961" lon="152.7603567">
<ele>69.290</ele>
<time>2016-01-16T00:54:37.647Z</time>
</trkpt>
<trkpt lat="-27.9466085" lon="152.7598810">
<ele>67.839</ele>
<time>2016-01-16T00:54:39.616Z</time>
</trkpt>
<trkpt lat="-27.9467221" lon="152.7593835">
<ele>67.231</ele>
<time>2016-01-16T00:54:41.636Z</time>
</trkpt>
<trkpt lat="-27.9468570" lon="152.7588789">
<ele>66.773</ele>
<time>2016-01-16T00:54:43.700Z</time>
</trkpt>
<trkpt lat="-27.9470582" lon="152.7581814">
<ele>65.822</ele>
<time>2016-01-16T00:54:46.613Z</time>
</trkpt>
<trkpt lat="-27.9472427" lon="152.7574867">
<ele>64.498</ele>
<time>2016-01-16T00:54:49.525Z</time>
</trkpt>
<trkpt lat="-27.9474058" lon="152.7567957">
<ele>63.483</ele>
<time>2016-01-16T00:54:52.424Z</time>
</trkpt>
<trkpt lat="-27.9475938" lon="152.7561078">
<ele>63.129</ele>
<time>2016-01-16T00:54:55.403Z</time>
</trkpt>
<trkpt lat="-27.9477476" lon="152.7556500">
<ele>63.341</ele>
<time>2016-01-16T00:54:57.459Z</time>
</trkpt>
<trkpt lat="-27.9479389" lon="152.7552206">
<ele>63.847</ele>
<time>2016-01-16T00:54:59.488Z</time>
</trkpt>
<trkpt lat="-27.9481944" lon="152.7548228">
<ele>64.464</ele>
<time>2016-01-16T00:55:01.551Z</time>
</trkpt>
<trkpt lat="-27.9486472" lon="152.7543274">
<ele>65.749</ele>
<time>2016-01-16T00:55:04.504Z</time>
</trkpt>
<trkpt lat="-27.9492195" lon="152.7539902">
<ele>68.452</ele>
<time>2016-01-16T00:55:07.514Z</time>
</trkpt>
<trkpt lat="-27.9496512" lon="152.7538654">
<ele>71.920</ele>
<time>2016-01-16T00:55:09.581Z</time>
</trkpt>
<trkpt lat="-27.9500889" lon="152.7537412">
<ele>74.598</ele>
<time>2016-01-16T00:55:11.635Z</time>
</trkpt>
<trkpt lat="-27.9505495" lon="152.7536286">
<ele>75.841</ele>
<time>2016-01-16T00:55:13.697Z</time>
</trkpt>
<trkpt lat="-27.9512689" lon="152.7535485">
<ele>75.920</ele>
<time>2016-01-16T00:55:16.695Z</time>
</trkpt>
<trkpt lat="-27.9519814" lon="152.7533810">
<ele>74.944</ele>
<time>2016-01-16T00:55:19.632Z</time>
</trkpt>
<trkpt lat="-27.9526388" lon="152.7532338">
<ele>73.007</ele>
<time>2016-01-16T00:55:22.409Z</time>
</trkpt>
<trkpt lat="-27.9530709" lon="152.7531458">
<ele>70.716</ele>
<time>2016-01-16T00:55:24.306Z</time>
</trkpt>
<trkpt lat="-27.9535192" lon="152.7530396">
<ele>69.106</ele>
<time>2016-01-16T00:55:26.349Z</time>
</trkpt>
<trkpt lat="-27.9539756" lon="152.7528906">
<ele>68.916</ele>
<time>2016-01-16T00:55:28.500Z</time>
</trkpt>
<trkpt lat="-27.9545567" lon="152.7525978">
<ele>69.831</ele>
<time>2016-01-16T00:55:31.418Z</time>
</trkpt>
<trkpt lat="-27.9551131" lon="152.7522487">
<ele>71.396</ele>
<time>2016-01-16T00:55:34.367Z</time>
</trkpt>
<trkpt lat="-27.9556216" lon="152.7517173">
<ele>73.488</ele>
<time>2016-01-16T00:55:37.541Z</time>
</trkpt>
<trkpt lat="-27.9559612" lon="152.7513531">
<ele>75.360</ele>
<time>2016-01-16T00:55:39.604Z</time>
</trkpt>
<trkpt lat="-27.9562415" lon="152.7509582">
<ele>76.066</ele>
<time>2016-01-16T00:55:41.524Z</time>
</trkpt>
<trkpt lat="-27.9565139" lon="152.7503127">
<ele>75.380</ele>
<time>2016-01-16T00:55:44.331Z</time>
</trkpt>
<trkpt lat="-27.9566903" lon="152.7495982">
<ele>73.087</ele>
<time>2016-01-16T00:55:47.369Z</time>
</trkpt>
<trkpt lat="-27.9567733" lon="152.7491295">
<ele>69.009</ele>
<time>2016-01-16T00:55:49.344Z</time>
</trkpt>
<trkpt lat="-27.9568184" lon="152.7484114">
<ele>64.391</ele>
<time>2016-01-16T00:55:52.340Z</time>
</trkpt>
<trkpt lat="-27.9567881" lon="152.7479353">
<ele>61.414</ele>
<time>2016-01-16T00:55:54.338Z</time>
</trkpt>
<trkpt lat="-27.9567141" lon="152.7474622">
<ele>60.668</ele>
<time>2016-01-16T00:55:56.347Z</time>
</trkpt>
<trkpt lat="-27.9566158" lon="152.7469964">
<ele>61.082</ele>
<time>2016-01-16T00:55:58.348Z</time>
</trkpt>
<trkpt lat="-27.9563762" lon="152.7463022">
<ele>61.588</ele>
<time>2016-01-16T00:56:01.440Z</time>
</trkpt>
<trkpt lat="-27.9561760" lon="152.7458487">
<ele>61.711</ele>
<time>2016-01-16T00:56:03.473Z</time>
</trkpt>
<trkpt lat="-27.9558953" lon="152.7451484">
<ele>61.515</ele>
<time>2016-01-16T00:56:06.481Z</time>
</trkpt>
<trkpt lat="-27.9556711" lon="152.7446552">
<ele>61.782</ele>
<time>2016-01-16T00:56:08.583Z</time>
</trkpt>
<trkpt lat="-27.9553345" lon="152.7438762">
<ele>63.578</ele>
<time>2016-01-16T00:56:11.705Z</time>
</trkpt>
<trkpt lat="-27.9551308" lon="152.7433795">
<ele>66.887</ele>
<time>2016-01-16T00:56:13.656Z</time>
</trkpt>
<trkpt lat="-27.9549347" lon="152.7426817">
<ele>70.218</ele>
<time>2016-01-16T00:56:16.424Z</time>
</trkpt>
<trkpt lat="-27.9548684" lon="152.7421984">
<ele>72.422</ele>
<time>2016-01-16T00:56:18.382Z</time>
</trkpt>
<trkpt lat="-27.9549191" lon="152.7416457">
<ele>74.172</ele>
<time>2016-01-16T00:56:20.634Z</time>
</trkpt>
<trkpt lat="-27.9551798" lon="152.7405953">
<ele>77.007</ele>
<time>2016-01-16T00:56:24.862Z</time>
</trkpt>
<trkpt lat="-27.9555074" lon="152.7398596">
<ele>80.724</ele>
<time>2016-01-16T00:56:27.869Z</time>
</trkpt>
<trkpt lat="-27.9559001" lon="152.7392145">
<ele>83.230</ele>
<time>2016-01-16T00:56:30.738Z</time>
</trkpt>
<trkpt lat="-27.9562828" lon="152.7385946">
<ele>82.785</ele>
<time>2016-01-16T00:56:33.653Z</time>
</trkpt>
<trkpt lat="-27.9565014" lon="152.7382054">
<ele>79.205</ele>
<time>2016-01-16T00:56:35.546Z</time>
</trkpt>
<trkpt lat="-27.9566731" lon="152.7375823">
<ele>73.718</ele>
<time>2016-01-16T00:56:38.388Z</time>
</trkpt>
<trkpt lat="-27.9567094" lon="152.7371277">
<ele>68.515</ele>
<time>2016-01-16T00:56:40.421Z</time>
</trkpt>
<trkpt lat="-27.9566930" lon="152.7366539">
<ele>65.280</ele>
<time>2016-01-16T00:56:42.514Z</time>
</trkpt>
<trkpt lat="-27.9565126" lon="152.7359256">
<ele>64.172</ele>
<time>2016-01-16T00:56:45.698Z</time>
</trkpt>
<trkpt lat="-27.9562352" lon="152.7352419">
<ele>64.485</ele>
<time>2016-01-16T00:56:48.724Z</time>
</trkpt>
<trkpt lat="-27.9558965" lon="152.7348827">
<ele>65.450</ele>
<time>2016-01-16T00:56:50.796Z</time>
</trkpt>
<trkpt lat="-27.9555467" lon="152.7345314">
<ele>66.313</ele>
<time>2016-01-16T00:56:52.835Z</time>
</trkpt>
<trkpt lat="-27.9552151" lon="152.7341928">
<ele>66.642</ele>
<time>2016-01-16T00:56:54.753Z</time>
</trkpt>
<trkpt lat="-27.9547545" lon="152.7336423">
<ele>66.549</ele>
<time>2016-01-16T00:56:57.681Z</time>
</trkpt>
<trkpt lat="-27.9544750" lon="152.7330042">
<ele>66.341</ele>
<time>2016-01-16T00:57:00.599Z</time>
</trkpt>
<trkpt lat="-27.9543948" lon="152.7325518">
<ele>66.365</ele>
<time>2016-01-16T00:57:02.601Z</time>
</trkpt>
<trkpt lat="-27.9543618" lon="152.7321299">
<ele>66.879</ele>
<time>2016-01-16T00:57:04.528Z</time>
</trkpt>
<trkpt lat="-27.9543486" lon="152.7315614">
<ele>67.629</ele>
<time>2016-01-16T00:57:07.305Z</time>
</trkpt>
<trkpt lat="-27.9543749" lon="152.7309474">
<ele>68.144</ele>
<time>2016-01-16T00:57:10.348Z</time>
</trkpt>
<trkpt lat="-27.9543664" lon="152.7303104">
<ele>68.304</ele>
<time>2016-01-16T00:57:13.386Z</time>
</trkpt>
<trkpt lat="-27.9542779" lon="152.7298877">
<ele>67.820</ele>
<time>2016-01-16T00:57:15.463Z</time>
</trkpt>
<trkpt lat="-27.9540863" lon="152.7293568">
<ele>66.362</ele>
<time>2016-01-16T00:57:18.362Z</time>
</trkpt>
<trkpt lat="-27.9538236" lon="152.7288862">
<ele>64.169</ele>
<time>2016-01-16T00:57:21.300Z</time>
</trkpt>
<trkpt lat="-27.9535972" lon="152.7286152">
<ele>61.937</ele>
<time>2016-01-16T00:57:23.279Z</time>
</trkpt>
<trkpt lat="-27.9533299" lon="152.7283749">
<ele>60.397</ele>
<time>2016-01-16T00:57:25.346Z</time>
</trkpt>
<trkpt lat="-27.9529320" lon="152.7280752">
<ele>59.627</ele>
<time>2016-01-16T00:57:28.302Z</time>
</trkpt>
<trkpt lat="-27.9526724" lon="152.7279020">
<ele>59.170</ele>
<time>2016-01-16T00:57:30.242Z</time>
</trkpt>
<trkpt lat="-27.9522237" lon="152.7275729">
<ele>58.880</ele>
<time>2016-01-16T00:57:33.653Z</time>
</trkpt>
<trkpt lat="-27.9519641" lon="152.7274028">
<ele>58.776</ele>
<time>2016-01-16T00:57:35.488Z</time>
</trkpt>
<trkpt lat="-27.9515689" lon="152.7270649">
<ele>58.779</ele>
<time>2016-01-16T00:57:38.443Z</time>
</trkpt>
<trkpt lat="-27.9513454" lon="152.7267884">
<ele>58.811</ele>
<time>2016-01-16T00:57:40.402Z</time>
</trkpt>
<trkpt lat="-27.9511232" lon="152.7264912">
<ele>58.902</ele>
<time>2016-01-16T00:57:42.430Z</time>
</trkpt>
<trkpt lat="-27.9508327" lon="152.7259834">
<ele>59.090</ele>
<time>2016-01-16T00:57:45.524Z</time>
</trkpt>
<trkpt lat="-27.9506875" lon="152.7256509">
<ele>59.275</ele>
<time>2016-01-16T00:57:47.432Z</time>
</trkpt>
<trkpt lat="-27.9505404" lon="152.7251847">
<ele>59.203</ele>
<time>2016-01-16T00:57:50.193Z</time>
</trkpt>
<trkpt lat="-27.9504781" lon="152.7248907">
<ele>58.433</ele>
<time>2016-01-16T00:57:52.023Z</time>
</trkpt>
<trkpt lat="-27.9504054" lon="152.7245006">
<ele>57.014</ele>
<time>2016-01-16T00:57:54.745Z</time>
</trkpt>
<trkpt lat="-27.9503725" lon="152.7242756">
<ele>55.673</ele>
<time>2016-01-16T00:57:56.414Z</time>
</trkpt>
<trkpt lat="-27.9503742" lon="152.7240492">
<ele>54.794</ele>
<time>2016-01-16T00:57:58.245Z</time>
</trkpt>
<trkpt lat="-27.9503676" lon="152.7237264">
<ele>54.228</ele>
<time>2016-01-16T00:58:01.096Z</time>
</trkpt>
<trkpt lat="-27.9503795" lon="152.7235605">
<ele>53.907</ele>
<time>2016-01-16T00:58:02.631Z</time>
</trkpt>
<trkpt lat="-27.9504162" lon="152.7233255">
<ele>53.797</ele>
<time>2016-01-16T00:58:05.098Z</time>
</trkpt>
<trkpt lat="-27.9504526" lon="152.7231798">
<ele>54.163</ele>
<time>2016-01-16T00:58:06.961Z</time>
</trkpt>
<trkpt lat="-27.9505518" lon="152.7230185">
<ele>55.569</ele>
<time>2016-01-16T00:58:09.525Z</time>
</trkpt>
<trkpt lat="-27.9507176" lon="152.7229620">
<ele>58.070</ele>
<time>2016-01-16T00:58:12.187Z</time>
</trkpt>
<trkpt lat="-27.9511178" lon="152.7229540">
<ele>60.902</ele>
<time>2016-01-16T00:58:16.775Z</time>
</trkpt>
<trkpt lat="-27.9516353" lon="152.7228777">
<ele>63.563</ele>
<time>2016-01-16T00:58:20.512Z</time>
</trkpt>
<trkpt lat="-27.9519740" lon="152.7227621">
<ele>66.126</ele>
<time>2016-01-16T00:58:22.653Z</time>
</trkpt>
<trkpt lat="-27.9522864" lon="152.7225757">
<ele>68.357</ele>
<time>2016-01-16T00:58:24.693Z</time>
</trkpt>
<trkpt lat="-27.9525940" lon="152.7223750">
<ele>69.641</ele>
<time>2016-01-16T00:58:26.724Z</time>
</trkpt>
<trkpt lat="-27.9529082" lon="152.7221712">
<ele>69.873</ele>
<time>2016-01-16T00:58:28.770Z</time>
</trkpt>
<trkpt lat="-27.9533843" lon="152.7218420">
<ele>69.547</ele>
<time>2016-01-16T00:58:31.848Z</time>
</trkpt>
<trkpt lat="-27.9536695" lon="152.7217059">
<ele>69.181</ele>
<time>2016-01-16T00:58:33.580Z</time>
</trkpt>
<trkpt lat="-27.9540789" lon="152.7214472">
<ele>68.964</ele>
<time>2016-01-16T00:58:36.410Z</time>
</trkpt>
<trkpt lat="-27.9543445" lon="152.7211929">
<ele>68.696</ele>
<time>2016-01-16T00:58:38.580Z</time>
</trkpt>
<trkpt lat="-27.9547482" lon="152.7206491">
<ele>68.213</ele>
<time>2016-01-16T00:58:42.354Z</time>
</trkpt>
<trkpt lat="-27.9552401" lon="152.7204564">
<ele>67.759</ele>
<time>2016-01-16T00:58:45.342Z</time>
</trkpt>
<trkpt lat="-27.9557751" lon="152.7203621">
<ele>67.770</ele>
<time>2016-01-16T00:58:48.361Z</time>
</trkpt>
<trkpt lat="-27.9561483" lon="152.7203803">
<ele>68.322</ele>
<time>2016-01-16T00:58:50.380Z</time>
</trkpt>
<trkpt lat="-27.9565542" lon="152.7203874">
<ele>69.020</ele>
<time>2016-01-16T00:58:52.517Z</time>
</trkpt>
<trkpt lat="-27.9573532" lon="152.7203579">
<ele>69.536</ele>
<time>2016-01-16T00:58:56.562Z</time>
</trkpt>
<trkpt lat="-27.9579437" lon="152.7202686">
<ele>70.230</ele>
<time>2016-01-16T00:58:59.533Z</time>
</trkpt>
<trkpt lat="-27.9584939" lon="152.7201465">
<ele>71.290</ele>
<time>2016-01-16T00:59:02.428Z</time>
</trkpt>
<trkpt lat="-27.9590376" lon="152.7200161">
<ele>72.132</ele>
<time>2016-01-16T00:59:05.421Z</time>
</trkpt>
<trkpt lat="-27.9593989" lon="152.7199223">
<ele>72.328</ele>
<time>2016-01-16T00:59:07.426Z</time>
</trkpt>
<trkpt lat="-27.9599572" lon="152.7197839">
<ele>72.241</ele>
<time>2016-01-16T00:59:10.429Z</time>
</trkpt>
<trkpt lat="-27.9605215" lon="152.7196128">
<ele>72.360</ele>
<time>2016-01-16T00:59:13.396Z</time>
</trkpt>
<trkpt lat="-27.9607287" lon="152.7195538">
<ele>73.107</ele>
<time>2016-01-16T00:59:14.477Z</time>
</trkpt>
<trkpt lat="-27.9614807" lon="152.7192147">
<ele>74.600</ele>
<time>2016-01-16T00:59:18.487Z</time>
</trkpt>
<trkpt lat="-27.9620748" lon="152.7190162">
<ele>76.206</ele>
<time>2016-01-16T00:59:21.477Z</time>
</trkpt>
<trkpt lat="-27.9624725" lon="152.7189384">
<ele>76.784</ele>
<time>2016-01-16T00:59:23.447Z</time>
</trkpt>
<trkpt lat="-27.9628704" lon="152.7188737">
<ele>76.002</ele>
<time>2016-01-16T00:59:25.435Z</time>
</trkpt>
<trkpt lat="-27.9634933" lon="152.7188732">
<ele>74.756</ele>
<time>2016-01-16T00:59:28.514Z</time>
</trkpt>
<trkpt lat="-27.9639089" lon="152.7189110">
<ele>74.424</ele>
<time>2016-01-16T00:59:30.521Z</time>
</trkpt>
<trkpt lat="-27.9643340" lon="152.7189597">
<ele>75.554</ele>
<time>2016-01-16T00:59:32.552Z</time>
</trkpt>
<trkpt lat="-27.9647582" lon="152.7190128">
<ele>77.554</ele>
<time>2016-01-16T00:59:34.604Z</time>
</trkpt>
<trkpt lat="-27.9653625" lon="152.7190426">
<ele>79.382</ele>
<time>2016-01-16T00:59:37.565Z</time>
</trkpt>
<trkpt lat="-27.9657658" lon="152.7189903">
<ele>80.093</ele>
<time>2016-01-16T00:59:39.557Z</time>
</trkpt>
<trkpt lat="-27.9663201" lon="152.7187875">
<ele>79.192</ele>
<time>2016-01-16T00:59:42.428Z</time>
</trkpt>
<trkpt lat="-27.9668774" lon="152.7184467">
<ele>77.141</ele>
<time>2016-01-16T00:59:45.542Z</time>
</trkpt>
<trkpt lat="-27.9673624" lon="152.7180196">
<ele>75.025</ele>
<time>2016-01-16T00:59:48.517Z</time>
</trkpt>
<trkpt lat="-27.9676593" lon="152.7176919">
<ele>74.351</ele>
<time>2016-01-16T00:59:50.529Z</time>
</trkpt>
<trkpt lat="-27.9679350" lon="152.7173749">
<ele>76.245</ele>
<time>2016-01-16T00:59:52.515Z</time>
</trkpt>
<trkpt lat="-27.9683173" lon="152.7169417">
<ele>79.685</ele>
<time>2016-01-16T00:59:55.451Z</time>
</trkpt>
<trkpt lat="-27.9685456" lon="152.7166842">
<ele>82.038</ele>
<time>2016-01-16T00:59:57.370Z</time>
</trkpt>
<trkpt lat="-27.9687680" lon="152.7164339">
<ele>81.970</ele>
<time>2016-01-16T00:59:59.306Z</time>
</trkpt>
<trkpt lat="-27.9691210" lon="152.7160338">
<ele>80.412</ele>
<time>2016-01-16T01:00:02.336Z</time>
</trkpt>
<trkpt lat="-27.9693685" lon="152.7157576">
<ele>78.896</ele>
<time>2016-01-16T01:00:04.349Z</time>
</trkpt>
<trkpt lat="-27.9696423" lon="152.7154398">
<ele>78.143</ele>
<time>2016-01-16T01:00:06.465Z</time>
</trkpt>
<trkpt lat="-27.9700684" lon="152.7149730">
<ele>78.418</ele>
<time>2016-01-16T01:00:09.505Z</time>
</trkpt>
<trkpt lat="-27.9703472" lon="152.7146774">
<ele>79.567</ele>
<time>2016-01-16T01:00:11.465Z</time>
</trkpt>
<trkpt lat="-27.9707057" lon="152.7141891">
<ele>80.579</ele>
<time>2016-01-16T01:00:14.429Z</time>
</trkpt>
<trkpt lat="-27.9709825" lon="152.7136466">
<ele>80.303</ele>
<time>2016-01-16T01:00:17.473Z</time>
</trkpt>
<trkpt lat="-27.9712116" lon="152.7130974">
<ele>78.520</ele>
<time>2016-01-16T01:00:20.498Z</time>
</trkpt>
<trkpt lat="-27.9714568" lon="152.7126348">
<ele>76.036</ele>
<time>2016-01-16T01:00:23.298Z</time>
</trkpt>
<trkpt lat="-27.9715958" lon="152.7123198">
<ele>73.875</ele>
<time>2016-01-16T01:00:25.232Z</time>
</trkpt>
<trkpt lat="-27.9717471" lon="152.7119876">
<ele>72.395</ele>
<time>2016-01-16T01:00:27.319Z</time>
</trkpt>
<trkpt lat="-27.9719425" lon="152.7117319">
<ele>71.332</ele>
<time>2016-01-16T01:00:29.228Z</time>
</trkpt>
<trkpt lat="-27.9721773" lon="152.7115123">
<ele>70.421</ele>
<time>2016-01-16T01:00:31.216Z</time>
</trkpt>
<trkpt lat="-27.9725929" lon="152.7113088">
<ele>69.752</ele>
<time>2016-01-16T01:00:34.118Z</time>
</trkpt>
<trkpt lat="-27.9731033" lon="152.7111434">
<ele>69.721</ele>
<time>2016-01-16T01:00:37.238Z</time>
</trkpt>
<trkpt lat="-27.9736832" lon="152.7110416">
<ele>70.458</ele>
<time>2016-01-16T01:00:40.336Z</time>
</trkpt>
<trkpt lat="-27.9742898" lon="152.7109240">
<ele>72.124</ele>
<time>2016-01-16T01:00:43.410Z</time>
</trkpt>
<trkpt lat="-27.9746876" lon="152.7108559">
<ele>74.487</ele>
<time>2016-01-16T01:00:45.445Z</time>
</trkpt>
<trkpt lat="-27.9752372" lon="152.7107895">
<ele>76.462</ele>
<time>2016-01-16T01:00:48.390Z</time>
</trkpt>
<trkpt lat="-27.9755751" lon="152.7107394">
<ele>77.294</ele>
<time>2016-01-16T01:00:50.430Z</time>
</trkpt>
<trkpt lat="-27.9759652" lon="152.7106753">
<ele>77.178</ele>
<time>2016-01-16T01:00:53.125Z</time>
</trkpt>
<trkpt lat="-27.9762101" lon="152.7105893">
<ele>76.368</ele>
<time>2016-01-16T01:00:55.065Z</time>
</trkpt>
<trkpt lat="-27.9765060" lon="152.7104919">
<ele>75.327</ele>
<time>2016-01-16T01:00:57.235Z</time>
</trkpt>
<trkpt lat="-27.9769437" lon="152.7102095">
<ele>74.763</ele>
<time>2016-01-16T01:01:00.388Z</time>
</trkpt>
<trkpt lat="-27.9772311" lon="152.7099831">
<ele>75.643</ele>
<time>2016-01-16T01:01:02.421Z</time>
</trkpt>
<trkpt lat="-27.9776403" lon="152.7096448">
<ele>78.391</ele>
<time>2016-01-16T01:01:05.360Z</time>
</trkpt>
<trkpt lat="-27.9780717" lon="152.7093543">
<ele>81.814</ele>
<time>2016-01-16T01:01:08.286Z</time>
</trkpt>
<trkpt lat="-27.9785565" lon="152.7089608">
<ele>84.307</ele>
<time>2016-01-16T01:01:11.512Z</time>
</trkpt>
<trkpt lat="-27.9789304" lon="152.7087638">
<ele>85.962</ele>
<time>2016-01-16T01:01:13.584Z</time>
</trkpt>
<trkpt lat="-27.9792713" lon="152.7085108">
<ele>87.860</ele>
<time>2016-01-16T01:01:15.614Z</time>
</trkpt>
<trkpt lat="-27.9797598" lon="152.7081388">
<ele>90.551</ele>
<time>2016-01-16T01:01:18.623Z</time>
</trkpt>
<trkpt lat="-27.9800678" lon="152.7079441">
<ele>92.955</ele>
<time>2016-01-16T01:01:20.575Z</time>
</trkpt>
<trkpt lat="-27.9804699" lon="152.7076127">
<ele>94.000</ele>
<time>2016-01-16T01:01:23.530Z</time>
</trkpt>
<trkpt lat="-27.9807407" lon="152.7073734">
<ele>94.237</ele>
<time>2016-01-16T01:01:25.621Z</time>
</trkpt>
<trkpt lat="-27.9811467" lon="152.7070493">
<ele>94.733</ele>
<time>2016-01-16T01:01:28.594Z</time>
</trkpt>
<trkpt lat="-27.9814236" lon="152.7068731">
<ele>96.229</ele>
<time>2016-01-16T01:01:30.459Z</time>
</trkpt>
<trkpt lat="-27.9816998" lon="152.7065921">
<ele>98.950</ele>
<time>2016-01-16T01:01:32.565Z</time>
</trkpt>
<trkpt lat="-27.9820974" lon="152.7060563">
<ele>102.355</ele>
<time>2016-01-16T01:01:35.781Z</time>
</trkpt>
<trkpt lat="-27.9824694" lon="152.7054704">
<ele>106.340</ele>
<time>2016-01-16T01:01:38.807Z</time>
</trkpt>
<trkpt lat="-27.9827076" lon="152.7050382">
<ele>111.388</ele>
<time>2016-01-16T01:01:40.865Z</time>
</trkpt>
<trkpt lat="-27.9830161" lon="152.7044008">
<ele>117.121</ele>
<time>2016-01-16T01:01:43.954Z</time>
</trkpt>
<trkpt lat="-27.9832736" lon="152.7039069">
<ele>121.821</ele>
<time>2016-01-16T01:01:46.874Z</time>
</trkpt>
<trkpt lat="-27.9833854" lon="152.7036328">
<ele>123.789</ele>
<time>2016-01-16T01:01:48.908Z</time>
</trkpt>
<trkpt lat="-27.9834926" lon="152.7034358">
<ele>122.972</ele>
<time>2016-01-16T01:01:50.761Z</time>
</trkpt>
<trkpt lat="-27.9836670" lon="152.7031740">
<ele>120.861</ele>
<time>2016-01-16T01:01:53.518Z</time>
</trkpt>
<trkpt lat="-27.9838935" lon="152.7028484">
<ele>119.680</ele>
<time>2016-01-16T01:01:56.697Z</time>
</trkpt>
<trkpt lat="-27.9841670" lon="152.7025332">
<ele>120.609</ele>
<time>2016-01-16T01:01:59.738Z</time>
</trkpt>
<trkpt lat="-27.9844823" lon="152.7022335">
<ele>123.321</ele>
<time>2016-01-16T01:02:02.690Z</time>
</trkpt>
<trkpt lat="-27.9848626" lon="152.7018874">
<ele>127.030</ele>
<time>2016-01-16T01:02:05.818Z</time>
</trkpt>
<trkpt lat="-27.9851420" lon="152.7016230">
<ele>131.039</ele>
<time>2016-01-16T01:02:07.961Z</time>
</trkpt>
<trkpt lat="-27.9855442" lon="152.7012292">
<ele>134.704</ele>
<time>2016-01-16T01:02:11.061Z</time>
</trkpt>
<trkpt lat="-27.9859175" lon="152.7008847">
<ele>137.592</ele>
<time>2016-01-16T01:02:14.002Z</time>
</trkpt>
<trkpt lat="-27.9862580" lon="152.7006128">
<ele>139.382</ele>
<time>2016-01-16T01:02:16.723Z</time>
</trkpt>
<trkpt lat="-27.9866009" lon="152.7002570">
<ele>139.295</ele>
<time>2016-01-16T01:02:19.900Z</time>
</trkpt>
<trkpt lat="-27.9868266" lon="152.7000741">
<ele>136.807</ele>
<time>2016-01-16T01:02:21.869Z</time>
</trkpt>
<trkpt lat="-27.9871613" lon="152.6998242">
<ele>133.198</ele>
<time>2016-01-16T01:02:24.781Z</time>
</trkpt>
<trkpt lat="-27.9873771" lon="152.6995924">
<ele>130.274</ele>
<time>2016-01-16T01:02:26.926Z</time>
</trkpt>
<trkpt lat="-27.9874876" lon="152.6994875">
<ele>128.114</ele>
<time>2016-01-16T01:02:27.954Z</time>
</trkpt>
<trkpt lat="-27.9879452" lon="152.6990626">
<ele>126.229</ele>
<time>2016-01-16T01:02:32.033Z</time>
</trkpt>
<trkpt lat="-27.9881736" lon="152.6988469">
<ele>124.277</ele>
<time>2016-01-16T01:02:34.035Z</time>
</trkpt>
<trkpt lat="-27.9884909" lon="152.6985155">
<ele>121.966</ele>
<time>2016-01-16T01:02:36.953Z</time>
</trkpt>
<trkpt lat="-27.9888100" lon="152.6981650">
<ele>119.296</ele>
<time>2016-01-16T01:02:39.988Z</time>
</trkpt>
<trkpt lat="-27.9891126" lon="152.6978281">
<ele>115.914</ele>
<time>2016-01-16T01:02:42.920Z</time>
</trkpt>
<trkpt lat="-27.9893071" lon="152.6975970">
<ele>111.629</ele>
<time>2016-01-16T01:02:44.869Z</time>
</trkpt>
<trkpt lat="-27.9895007" lon="152.6973561">
<ele>107.603</ele>
<time>2016-01-16T01:02:46.849Z</time>
</trkpt>
<trkpt lat="-27.9897375" lon="152.6969687">
<ele>104.594</ele>
<time>2016-01-16T01:02:49.698Z</time>
</trkpt>
<trkpt lat="-27.9899177" lon="152.6964824">
<ele>102.281</ele>
<time>2016-01-16T01:02:52.807Z</time>
</trkpt>
<trkpt lat="-27.9899910" lon="152.6961440">
<ele>100.182</ele>
<time>2016-01-16T01:02:54.843Z</time>
</trkpt>
<trkpt lat="-27.9900399" lon="152.6958297">
<ele>98.133</ele>
<time>2016-01-16T01:02:56.736Z</time>
</trkpt>
<trkpt lat="-27.9900877" lon="152.6953330">
<ele>96.218</ele>
<time>2016-01-16T01:02:59.743Z</time>
</trkpt>
<trkpt lat="-27.9901207" lon="152.6950447">
<ele>94.663</ele>
<time>2016-01-16T01:03:01.531Z</time>
</trkpt>
<trkpt lat="-27.9901301" lon="152.6945595">
<ele>93.945</ele>
<time>2016-01-16T01:03:04.567Z</time>
</trkpt>
<trkpt lat="-27.9901490" lon="152.6940789">
<ele>94.732</ele>
<time>2016-01-16T01:03:07.590Z</time>
</trkpt>
<trkpt lat="-27.9901726" lon="152.6937606">
<ele>97.101</ele>
<time>2016-01-16T01:03:09.604Z</time>
</trkpt>
<trkpt lat="-27.9902516" lon="152.6932910">
<ele>100.036</ele>
<time>2016-01-16T01:03:12.631Z</time>
</trkpt>
<trkpt lat="-27.9904518" lon="152.6928572">
<ele>102.179</ele>
<time>2016-01-16T01:03:15.657Z</time>
</trkpt>
<trkpt lat="-27.9905943" lon="152.6925686">
<ele>103.463</ele>
<time>2016-01-16T01:03:17.636Z</time>
</trkpt>
<trkpt lat="-27.9908141" lon="152.6921398">
<ele>104.500</ele>
<time>2016-01-16T01:03:20.555Z</time>
</trkpt>
<trkpt lat="-27.9910599" lon="152.6916965">
<ele>104.766</ele>
<time>2016-01-16T01:03:23.570Z</time>
</trkpt>
<trkpt lat="-27.9912049" lon="152.6914088">
<ele>103.638</ele>
<time>2016-01-16T01:03:25.473Z</time>
</trkpt>
<trkpt lat="-27.9914340" lon="152.6909649">
<ele>101.763</ele>
<time>2016-01-16T01:03:28.458Z</time>
</trkpt>
<trkpt lat="-27.9916459" lon="152.6905316">
<ele>99.658</ele>
<time>2016-01-16T01:03:31.419Z</time>
</trkpt>
<trkpt lat="-27.9917733" lon="152.6902538">
<ele>97.014</ele>
<time>2016-01-16T01:03:33.398Z</time>
</trkpt>
<trkpt lat="-27.9919561" lon="152.6898485">
<ele>93.980</ele>
<time>2016-01-16T01:03:36.412Z</time>
</trkpt>
<trkpt lat="-27.9920394" lon="152.6895814">
<ele>91.405</ele>
<time>2016-01-16T01:03:38.336Z</time>
</trkpt>
<trkpt lat="-27.9921496" lon="152.6891056">
<ele>89.943</ele>
<time>2016-01-16T01:03:41.569Z</time>
</trkpt>
<trkpt lat="-27.9922277" lon="152.6888225">
<ele>89.850</ele>
<time>2016-01-16T01:03:43.469Z</time>
</trkpt>
<trkpt lat="-27.9922822" lon="152.6885433">
<ele>90.811</ele>
<time>2016-01-16T01:03:45.362Z</time>
</trkpt>
<trkpt lat="-27.9923527" lon="152.6881323">
<ele>91.899</ele>
<time>2016-01-16T01:03:48.247Z</time>
</trkpt>
<trkpt lat="-27.9924169" lon="152.6878656">
<ele>92.847</ele>
<time>2016-01-16T01:03:50.187Z</time>
</trkpt>
<trkpt lat="-27.9924986" lon="152.6874511">
<ele>94.159</ele>
<time>2016-01-16T01:03:53.192Z</time>
</trkpt>
<trkpt lat="-27.9925496" lon="152.6871933">
<ele>95.606</ele>
<time>2016-01-16T01:03:55.093Z</time>
</trkpt>
<trkpt lat="-27.9926140" lon="152.6869264">
<ele>96.318</ele>
<time>2016-01-16T01:03:57.093Z</time>
</trkpt>
<trkpt lat="-27.9926805" lon="152.6865027">
<ele>96.072</ele>
<time>2016-01-16T01:04:00.062Z</time>
</trkpt>
<trkpt lat="-27.9927191" lon="152.6862051">
<ele>95.345</ele>
<time>2016-01-16T01:04:02.052Z</time>
</trkpt>
<trkpt lat="-27.9928361" lon="152.6857493">
<ele>94.424</ele>
<time>2016-01-16T01:04:05.083Z</time>
</trkpt>
<trkpt lat="-27.9929909" lon="152.6852866">
<ele>93.227</ele>
<time>2016-01-16T01:04:08.103Z</time>
</trkpt>
<trkpt lat="-27.9930998" lon="152.6849623">
<ele>91.847</ele>
<time>2016-01-16T01:04:10.213Z</time>
</trkpt>
<trkpt lat="-27.9931755" lon="152.6846592">
<ele>90.331</ele>
<time>2016-01-16T01:04:12.189Z</time>
</trkpt>
<trkpt lat="-27.9932467" lon="152.6843614">
<ele>88.733</ele>
<time>2016-01-16T01:04:14.210Z</time>
</trkpt>
<trkpt lat="-27.9933342" lon="152.6841013">
<ele>87.123</ele>
<time>2016-01-16T01:04:16.186Z</time>
</trkpt>
<trkpt lat="-27.9934320" lon="152.6837659">
<ele>85.548</ele>
<time>2016-01-16T01:04:19.007Z</time>
</trkpt>
<trkpt lat="-27.9934989" lon="152.6835087">
<ele>83.969</ele>
<time>2016-01-16T01:04:21.542Z</time>
</trkpt>
<trkpt lat="-27.9935409" lon="152.6833613">
<ele>82.490</ele>
<time>2016-01-16T01:04:23.202Z</time>
</trkpt>
<trkpt lat="-27.9936180" lon="152.6831476">
<ele>81.417</ele>
<time>2016-01-16T01:04:26.027Z</time>
</trkpt>
<trkpt lat="-27.9936606" lon="152.6830358">
<ele>80.935</ele>
<time>2016-01-16T01:04:27.605Z</time>
</trkpt>
<trkpt lat="-27.9937942" lon="152.6828335">
<ele>80.853</ele>
<time>2016-01-16T01:04:30.920Z</time>
</trkpt>
<trkpt lat="-27.9939195" lon="152.6827015">
<ele>81.002</ele>
<time>2016-01-16T01:04:33.268Z</time>
</trkpt>
<trkpt lat="-27.9939665" lon="152.6824662">
<ele>81.254</ele>
<time>2016-01-16T01:04:36.080Z</time>
</trkpt>
<trkpt lat="-27.9937585" lon="152.6823119">
<ele>81.621</ele>
<time>2016-01-16T01:04:39.293Z</time>
</trkpt>
<trkpt lat="-27.9935933" lon="152.6821696">
<ele>82.070</ele>
<time>2016-01-16T01:04:41.654Z</time>
</trkpt>
<trkpt lat="-27.9934480" lon="152.6819563">
<ele>82.409</ele>
<time>2016-01-16T01:04:43.892Z</time>
</trkpt>
<trkpt lat="-27.9932281" lon="152.6815066">
<ele>82.661</ele>
<time>2016-01-16T01:04:47.392Z</time>
</trkpt>
<trkpt lat="-27.9931035" lon="152.6811528">
<ele>83.416</ele>
<time>2016-01-16T01:04:49.478Z</time>
</trkpt>
<trkpt lat="-27.9928979" lon="152.6806013">
<ele>85.037</ele>
<time>2016-01-16T01:04:52.510Z</time>
</trkpt>
<trkpt lat="-27.9927508" lon="152.6802277">
<ele>87.018</ele>
<time>2016-01-16T01:04:54.513Z</time>
</trkpt>
<trkpt lat="-27.9926205" lon="152.6798547">
<ele>88.767</ele>
<time>2016-01-16T01:04:56.507Z</time>
</trkpt>
<trkpt lat="-27.9924809" lon="152.6794943">
<ele>90.081</ele>
<time>2016-01-16T01:04:58.479Z</time>
</trkpt>
<trkpt lat="-27.9923016" lon="152.6789308">
<ele>90.809</ele>
<time>2016-01-16T01:05:01.465Z</time>
</trkpt>
<trkpt lat="-27.9921297" lon="152.6783314">
<ele>90.912</ele>
<time>2016-01-16T01:05:04.553Z</time>
</trkpt>
<trkpt lat="-27.9919481" lon="152.6777604">
<ele>90.597</ele>
<time>2016-01-16T01:05:07.449Z</time>
</trkpt>
<trkpt lat="-27.9916701" lon="152.6771758">
<ele>90.211</ele>
<time>2016-01-16T01:05:10.470Z</time>
</trkpt>
<trkpt lat="-27.9912534" lon="152.6766686">
<ele>90.775</ele>
<time>2016-01-16T01:05:13.447Z</time>
</trkpt>
<trkpt lat="-27.9907528" lon="152.6761307">
<ele>93.029</ele>
<time>2016-01-16T01:05:16.511Z</time>
</trkpt>
<trkpt lat="-27.9902157" lon="152.6755867">
<ele>96.345</ele>
<time>2016-01-16T01:05:19.548Z</time>
</trkpt>
<trkpt lat="-27.9898737" lon="152.6752324">
<ele>99.388</ele>
<time>2016-01-16T01:05:21.543Z</time>
</trkpt>
<trkpt lat="-27.9895433" lon="152.6748898">
<ele>100.825</ele>
<time>2016-01-16T01:05:23.517Z</time>
</trkpt>
<trkpt lat="-27.9891103" lon="152.6743557">
<ele>100.178</ele>
<time>2016-01-16T01:05:26.420Z</time>
</trkpt>
<trkpt lat="-27.9887686" lon="152.6737293">
<ele>98.664</ele>
<time>2016-01-16T01:05:29.450Z</time>
</trkpt>
<trkpt lat="-27.9885962" lon="152.6732619">
<ele>98.048</ele>
<time>2016-01-16T01:05:31.532Z</time>
</trkpt>
<trkpt lat="-27.9884837" lon="152.6727869">
<ele>99.042</ele>
<time>2016-01-16T01:05:33.562Z</time>
</trkpt>
<trkpt lat="-27.9884246" lon="152.6723135">
<ele>100.979</ele>
<time>2016-01-16T01:05:35.548Z</time>
</trkpt>
<trkpt lat="-27.9883423" lon="152.6715877">
<ele>102.947</ele>
<time>2016-01-16T01:05:38.573Z</time>
</trkpt>
<trkpt lat="-27.9882282" lon="152.6711437">
<ele>104.648</ele>
<time>2016-01-16T01:05:40.490Z</time>
</trkpt>
<trkpt lat="-27.9879942" lon="152.6704809">
<ele>106.115</ele>
<time>2016-01-16T01:05:43.447Z</time>
</trkpt>
<trkpt lat="-27.9876516" lon="152.6698363">
<ele>107.480</ele>
<time>2016-01-16T01:05:46.492Z</time>
</trkpt>
<trkpt lat="-27.9873846" lon="152.6694416">
<ele>108.843</ele>
<time>2016-01-16T01:05:48.513Z</time>
</trkpt>
<trkpt lat="-27.9868592" lon="152.6687055">
<ele>110.057</ele>
<time>2016-01-16T01:05:52.428Z</time>
</trkpt>
<trkpt lat="-27.9865991" lon="152.6683262">
<ele>110.367</ele>
<time>2016-01-16T01:05:54.398Z</time>
</trkpt>
<trkpt lat="-27.9863435" lon="152.6679567">
<ele>109.448</ele>
<time>2016-01-16T01:05:56.304Z</time>
</trkpt>
<trkpt lat="-27.9859457" lon="152.6673361">
<ele>108.281</ele>
<time>2016-01-16T01:05:59.331Z</time>
</trkpt>
<trkpt lat="-27.9856043" lon="152.6666145">
<ele>107.990</ele>
<time>2016-01-16T01:06:02.378Z</time>
</trkpt>
<trkpt lat="-27.9854334" lon="152.6660730">
<ele>109.407</ele>
<time>2016-01-16T01:06:04.383Z</time>
</trkpt>
<trkpt lat="-27.9852888" lon="152.6654496">
<ele>112.628</ele>
<time>2016-01-16T01:06:06.495Z</time>
</trkpt>
<trkpt lat="-27.9850652" lon="152.6645317">
<ele>116.817</ele>
<time>2016-01-16T01:06:09.547Z</time>
</trkpt>
<trkpt lat="-27.9849379" lon="152.6639476">
<ele>120.885</ele>
<time>2016-01-16T01:06:11.520Z</time>
</trkpt>
<trkpt lat="-27.9847331" lon="152.6631120">
<ele>123.709</ele>
<time>2016-01-16T01:06:14.442Z</time>
</trkpt>
<trkpt lat="-27.9846013" lon="152.6625739">
<ele>124.371</ele>
<time>2016-01-16T01:06:16.395Z</time>
</trkpt>
<trkpt lat="-27.9842796" lon="152.6618511">
<ele>123.286</ele>
<time>2016-01-16T01:06:19.332Z</time>
</trkpt>
<trkpt lat="-27.9838144" lon="152.6612317">
<ele>121.838</ele>
<time>2016-01-16T01:06:22.347Z</time>
</trkpt>
<trkpt lat="-27.9832512" lon="152.6606736">
<ele>121.371</ele>
<time>2016-01-16T01:06:25.347Z</time>
</trkpt>
<trkpt lat="-27.9828205" lon="152.6603007">
<ele>122.644</ele>
<time>2016-01-16T01:06:27.431Z</time>
</trkpt>
<trkpt lat="-27.9824168" lon="152.6599583">
<ele>125.314</ele>
<time>2016-01-16T01:06:29.406Z</time>
</trkpt>
<trkpt lat="-27.9818337" lon="152.6594740">
<ele>128.070</ele>
<time>2016-01-16T01:06:32.347Z</time>
</trkpt>
<trkpt lat="-27.9812638" lon="152.6590047">
<ele>130.408</ele>
<time>2016-01-16T01:06:35.314Z</time>
</trkpt>
<trkpt lat="-27.9807015" lon="152.6585147">
<ele>133.148</ele>
<time>2016-01-16T01:06:38.341Z</time>
</trkpt>
<trkpt lat="-27.9803404" lon="152.6582008">
<ele>137.450</ele>
<time>2016-01-16T01:06:40.351Z</time>
</trkpt>
<trkpt lat="-27.9798891" lon="152.6577990">
<ele>142.710</ele>
<time>2016-01-16T01:06:43.153Z</time>
</trkpt>
<trkpt lat="-27.9796382" lon="152.6575787">
<ele>146.431</ele>
<time>2016-01-16T01:06:44.962Z</time>
</trkpt>
<trkpt lat="-27.9793527" lon="152.6573399">
<ele>147.479</ele>
<time>2016-01-16T01:06:47.436Z</time>
</trkpt>
<trkpt lat="-27.9791627" lon="152.6571733">
<ele>147.022</ele>
<time>2016-01-16T01:06:49.338Z</time>
</trkpt>
<trkpt lat="-27.9789667" lon="152.6570133">
<ele>146.566</ele>
<time>2016-01-16T01:06:51.341Z</time>
</trkpt>
<trkpt lat="-27.9786430" lon="152.6567340">
<ele>147.152</ele>
<time>2016-01-16T01:06:54.374Z</time>
</trkpt>
<trkpt lat="-27.9781984" lon="152.6563422">
<ele>149.014</ele>
<time>2016-01-16T01:06:57.862Z</time>
</trkpt>
<trkpt lat="-27.9778890" lon="152.6560677">
<ele>152.187</ele>
<time>2016-01-16T01:06:59.960Z</time>
</trkpt>
<trkpt lat="-27.9775777" lon="152.6558073">
<ele>156.243</ele>
<time>2016-01-16T01:07:01.968Z</time>
</trkpt>
<trkpt lat="-27.9772881" lon="152.6555398">
<ele>159.737</ele>
<time>2016-01-16T01:07:03.936Z</time>
</trkpt>
<trkpt lat="-27.9768921" lon="152.6550934">
<ele>161.620</ele>
<time>2016-01-16T01:07:06.910Z</time>
</trkpt>
<trkpt lat="-27.9765475" lon="152.6546010">
<ele>162.567</ele>
<time>2016-01-16T01:07:09.892Z</time>
</trkpt>
<trkpt lat="-27.9762426" lon="152.6540306">
<ele>163.503</ele>
<time>2016-01-16T01:07:12.941Z</time>
</trkpt>
<trkpt lat="-27.9760381" lon="152.6536253">
<ele>164.712</ele>
<time>2016-01-16T01:07:14.959Z</time>
</trkpt>
<trkpt lat="-27.9756794" lon="152.6529640">
<ele>166.093</ele>
<time>2016-01-16T01:07:18.169Z</time>
</trkpt>
<trkpt lat="-27.9754531" lon="152.6525874">
<ele>167.297</ele>
<time>2016-01-16T01:07:20.044Z</time>
</trkpt>
<trkpt lat="-27.9752056" lon="152.6522438">
<ele>167.376</ele>
<time>2016-01-16T01:07:21.952Z</time>
</trkpt>
<trkpt lat="-27.9749519" lon="152.6519479">
<ele>165.735</ele>
<time>2016-01-16T01:07:23.841Z</time>
</trkpt>
<trkpt lat="-27.9746810" lon="152.6516858">
<ele>162.898</ele>
<time>2016-01-16T01:07:25.778Z</time>
</trkpt>
<trkpt lat="-27.9741987" lon="152.6512887">
<ele>159.953</ele>
<time>2016-01-16T01:07:28.945Z</time>
</trkpt>
<trkpt lat="-27.9740327" lon="152.6511609">
<ele>157.719</ele>
<time>2016-01-16T01:07:29.977Z</time>
</trkpt>
<trkpt lat="-27.9733795" lon="152.6506918">
<ele>156.368</ele>
<time>2016-01-16T01:07:33.908Z</time>
</trkpt>
<trkpt lat="-27.9728520" lon="152.6502571">
<ele>155.144</ele>
<time>2016-01-16T01:07:36.929Z</time>
</trkpt>
<trkpt lat="-27.9721956" lon="152.6497458">
<ele>153.632</ele>
<time>2016-01-16T01:07:40.178Z</time>
</trkpt>
<trkpt lat="-27.9718652" lon="152.6494860">
<ele>152.434</ele>
<time>2016-01-16T01:07:41.908Z</time>
</trkpt>
<trkpt lat="-27.9716084" lon="152.6492752">
<ele>150.353</ele>
<time>2016-01-16T01:07:43.576Z</time>
</trkpt>
<trkpt lat="-27.9713469" lon="152.6490531">
<ele>145.082</ele>
<time>2016-01-16T01:07:45.492Z</time>
</trkpt>
<trkpt lat="-27.9709844" lon="152.6487251">
<ele>137.765</ele>
<time>2016-01-16T01:07:48.375Z</time>
</trkpt>
<trkpt lat="-27.9707370" lon="152.6484462">
<ele>132.020</ele>
<time>2016-01-16T01:07:50.489Z</time>
</trkpt>
<trkpt lat="-27.9703554" lon="152.6479586">
<ele>129.076</ele>
<time>2016-01-16T01:07:53.691Z</time>
</trkpt>
<trkpt lat="-27.9700011" lon="152.6474071">
<ele>127.701</ele>
<time>2016-01-16T01:07:56.793Z</time>
</trkpt>
<trkpt lat="-27.9697238" lon="152.6467797">
<ele>126.741</ele>
<time>2016-01-16T01:07:59.850Z</time>
</trkpt>
<trkpt lat="-27.9694456" lon="152.6461275">
<ele>125.751</ele>
<time>2016-01-16T01:08:02.891Z</time>
</trkpt>
<trkpt lat="-27.9692752" lon="152.6456752">
<ele>124.498</ele>
<time>2016-01-16T01:08:04.881Z</time>
</trkpt>
<trkpt lat="-27.9690901" lon="152.6452281">
<ele>123.244</ele>
<time>2016-01-16T01:08:06.854Z</time>
</trkpt>
<trkpt lat="-27.9687941" lon="152.6445476">
<ele>122.442</ele>
<time>2016-01-16T01:08:09.853Z</time>
</trkpt>
<trkpt lat="-27.9686015" lon="152.6440623">
<ele>122.389</ele>
<time>2016-01-16T01:08:11.944Z</time>
</trkpt>
<trkpt lat="-27.9682626" lon="152.6434217">
<ele>123.324</ele>
<time>2016-01-16T01:08:14.911Z</time>
</trkpt>
<trkpt lat="-27.9679893" lon="152.6430093">
<ele>124.892</ele>
<time>2016-01-16T01:08:16.952Z</time>
</trkpt>
<trkpt lat="-27.9676897" lon="152.6426170">
<ele>126.364</ele>
<time>2016-01-16T01:08:18.984Z</time>
</trkpt>
<trkpt lat="-27.9671758" lon="152.6421131">
<ele>127.914</ele>
<time>2016-01-16T01:08:21.959Z</time>
</trkpt>
<trkpt lat="-27.9666228" lon="152.6415615">
<ele>129.794</ele>
<time>2016-01-16T01:08:25.063Z</time>
</trkpt>
<trkpt lat="-27.9661688" lon="152.6409395">
<ele>130.587</ele>
<time>2016-01-16T01:08:28.010Z</time>
</trkpt>
<trkpt lat="-27.9658202" lon="152.6402081">
<ele>129.249</ele>
<time>2016-01-16T01:08:31.024Z</time>
</trkpt>
<trkpt lat="-27.9656513" lon="152.6396856">
<ele>127.088</ele>
<time>2016-01-16T01:08:33.046Z</time>
</trkpt>
<trkpt lat="-27.9655014" lon="152.6388388">
<ele>125.744</ele>
<time>2016-01-16T01:08:36.142Z</time>
</trkpt>
<trkpt lat="-27.9654875" lon="152.6379580">
<ele>125.713</ele>
<time>2016-01-16T01:08:39.228Z</time>
</trkpt>
<trkpt lat="-27.9655442" lon="152.6374099">
<ele>127.021</ele>
<time>2016-01-16T01:08:41.194Z</time>
</trkpt>
<trkpt lat="-27.9657366" lon="152.6366358">
<ele>129.098</ele>
<time>2016-01-16T01:08:44.121Z</time>
</trkpt>
<trkpt lat="-27.9658968" lon="152.6361396">
<ele>130.969</ele>
<time>2016-01-16T01:08:46.070Z</time>
</trkpt>
<trkpt lat="-27.9660586" lon="152.6356264">
<ele>132.627</ele>
<time>2016-01-16T01:08:48.090Z</time>
</trkpt>
<trkpt lat="-27.9662216" lon="152.6348773">
<ele>134.929</ele>
<time>2016-01-16T01:08:50.978Z</time>
</trkpt>
<trkpt lat="-27.9663227" lon="152.6341123">
<ele>137.644</ele>
<time>2016-01-16T01:08:53.937Z</time>
</trkpt>
<trkpt lat="-27.9663356" lon="152.6335796">
<ele>139.534</ele>
<time>2016-01-16T01:08:55.968Z</time>
</trkpt>
<trkpt lat="-27.9662675" lon="152.6327402">
<ele>140.238</ele>
<time>2016-01-16T01:08:59.031Z</time>
</trkpt>
<trkpt lat="-27.9661123" lon="152.6320968">
<ele>140.436</ele>
<time>2016-01-16T01:09:01.194Z</time>
</trkpt>
<trkpt lat="-27.9658417" lon="152.6311341">
<ele>140.741</ele>
<time>2016-01-16T01:09:04.361Z</time>
</trkpt>
<trkpt lat="-27.9656539" lon="152.6304769">
<ele>141.187</ele>
<time>2016-01-16T01:09:06.925Z</time>
</trkpt>
<trkpt lat="-27.9655711" lon="152.6301463">
<ele>139.304</ele>
<time>2016-01-16T01:09:08.610Z</time>
</trkpt>
<trkpt lat="-27.9654880" lon="152.6298392">
<ele>133.236</ele>
<time>2016-01-16T01:09:10.380Z</time>
</trkpt>
<trkpt lat="-27.9653892" lon="152.6295115">
<ele>126.200</ele>
<time>2016-01-16T01:09:12.378Z</time>
</trkpt>
<trkpt lat="-27.9652385" lon="152.6289685">
<ele>122.384</ele>
<time>2016-01-16T01:09:15.506Z</time>
</trkpt>
<trkpt lat="-27.9651203" lon="152.6285696">
<ele>122.299</ele>
<time>2016-01-16T01:09:17.653Z</time>
</trkpt>
<trkpt lat="-27.9649521" lon="152.6279205">
<ele>124.613</ele>
<time>2016-01-16T01:09:20.813Z</time>
</trkpt>
<trkpt lat="-27.9647662" lon="152.6272606">
<ele>127.378</ele>
<time>2016-01-16T01:09:23.844Z</time>
</trkpt>
<trkpt lat="-27.9646250" lon="152.6268076">
<ele>129.252</ele>
<time>2016-01-16T01:09:25.920Z</time>
</trkpt>
<trkpt lat="-27.9644089" lon="152.6259253">
<ele>130.153</ele>
<time>2016-01-16T01:09:29.857Z</time>
</trkpt>
<trkpt lat="-27.9643380" lon="152.6254639">
<ele>130.720</ele>
<time>2016-01-16T01:09:31.870Z</time>
</trkpt>
<trkpt lat="-27.9642137" lon="152.6248250">
<ele>131.367</ele>
<time>2016-01-16T01:09:34.778Z</time>
</trkpt>
<trkpt lat="-27.9641508" lon="152.6241280">
<ele>131.475</ele>
<time>2016-01-16T01:09:37.882Z</time>
</trkpt>
<trkpt lat="-27.9641225" lon="152.6236550">
<ele>130.528</ele>
<time>2016-01-16T01:09:39.896Z</time>
</trkpt>
<trkpt lat="-27.9641227" lon="152.6229496">
<ele>129.330</ele>
<time>2016-01-16T01:09:42.857Z</time>
</trkpt>
<trkpt lat="-27.9641230" lon="152.6224917">
<ele>128.464</ele>
<time>2016-01-16T01:09:44.794Z</time>
</trkpt>
<trkpt lat="-27.9641545" lon="152.6220420">
<ele>127.641</ele>
<time>2016-01-16T01:09:46.747Z</time>
</trkpt>
<trkpt lat="-27.9641800" lon="152.6216034">
<ele>126.330</ele>
<time>2016-01-16T01:09:48.739Z</time>
</trkpt>
<trkpt lat="-27.9642278" lon="152.6210124">
<ele>123.923</ele>
<time>2016-01-16T01:09:51.595Z</time>
</trkpt>
<trkpt lat="-27.9642631" lon="152.6204524">
<ele>120.263</ele>
<time>2016-01-16T01:09:54.417Z</time>
</trkpt>
<trkpt lat="-27.9642954" lon="152.6200572">
<ele>115.909</ele>
<time>2016-01-16T01:09:56.437Z</time>
</trkpt>
<trkpt lat="-27.9643304" lon="152.6196624">
<ele>111.819</ele>
<time>2016-01-16T01:09:58.434Z</time>
</trkpt>
<trkpt lat="-27.9644261" lon="152.6190527">
<ele>108.900</ele>
<time>2016-01-16T01:10:01.436Z</time>
</trkpt>
<trkpt lat="-27.9645063" lon="152.6186092">
<ele>106.776</ele>
<time>2016-01-16T01:10:03.549Z</time>
</trkpt>
<trkpt lat="-27.9646088" lon="152.6181809">
<ele>104.650</ele>
<time>2016-01-16T01:10:05.559Z</time>
</trkpt>
<trkpt lat="-27.9647621" lon="152.6175437">
<ele>102.433</ele>
<time>2016-01-16T01:10:08.534Z</time>
</trkpt>
<trkpt lat="-27.9649153" lon="152.6169194">
<ele>100.229</ele>
<time>2016-01-16T01:10:11.503Z</time>
</trkpt>
<trkpt lat="-27.9649954" lon="152.6165059">
<ele>98.340</ele>
<time>2016-01-16T01:10:13.472Z</time>
</trkpt>
<trkpt lat="-27.9650748" lon="152.6158651">
<ele>97.230</ele>
<time>2016-01-16T01:10:16.451Z</time>
</trkpt>
<trkpt lat="-27.9650934" lon="152.6154114">
<ele>96.363</ele>
<time>2016-01-16T01:10:18.492Z</time>
</trkpt>
<trkpt lat="-27.9650846" lon="152.6149687">
<ele>95.032</ele>
<time>2016-01-16T01:10:20.416Z</time>
</trkpt>
<trkpt lat="-27.9651016" lon="152.6142183">
<ele>93.466</ele>
<time>2016-01-16T01:10:23.560Z</time>
</trkpt>
<trkpt lat="-27.9650943" lon="152.6135074">
<ele>92.339</ele>
<time>2016-01-16T01:10:26.502Z</time>
</trkpt>
<trkpt lat="-27.9651039" lon="152.6127885">
<ele>91.818</ele>
<time>2016-01-16T01:10:29.496Z</time>
</trkpt>
<trkpt lat="-27.9651065" lon="152.6120848">
<ele>91.387</ele>
<time>2016-01-16T01:10:32.431Z</time>
</trkpt>
<trkpt lat="-27.9651243" lon="152.6114021">
<ele>90.339</ele>
<time>2016-01-16T01:10:35.369Z</time>
</trkpt>
<trkpt lat="-27.9651183" lon="152.6109963">
<ele>88.389</ele>
<time>2016-01-16T01:10:37.223Z</time>
</trkpt>
<trkpt lat="-27.9651245" lon="152.6106458">
<ele>86.040</ele>
<time>2016-01-16T01:10:38.983Z</time>
</trkpt>
<trkpt lat="-27.9651276" lon="152.6103641">
<ele>83.504</ele>
<time>2016-01-16T01:10:40.572Z</time>
</trkpt>
<trkpt lat="-27.9651258" lon="152.6101547">
<ele>80.595</ele>
<time>2016-01-16T01:10:41.907Z</time>
</trkpt>
<trkpt lat="-27.9652287" lon="152.6099704">
<ele>77.897</ele>
<time>2016-01-16T01:10:43.659Z</time>
</trkpt>
<trkpt lat="-27.9653858" lon="152.6098750">
<ele>76.164</ele>
<time>2016-01-16T01:10:45.771Z</time>
</trkpt>
<trkpt lat="-27.9656246" lon="152.6097606">
<ele>75.313</ele>
<time>2016-01-16T01:10:49.086Z</time>
</trkpt>
<trkpt lat="-27.9658895" lon="152.6096477">
<ele>75.412</ele>
<time>2016-01-16T01:10:51.644Z</time>
</trkpt>
<trkpt lat="-27.9663335" lon="152.6094623">
<ele>76.808</ele>
<time>2016-01-16T01:10:54.917Z</time>
</trkpt>
<trkpt lat="-27.9666066" lon="152.6093051">
<ele>79.166</ele>
<time>2016-01-16T01:10:56.905Z</time>
</trkpt>
<trkpt lat="-27.9669142" lon="152.6091833">
<ele>81.300</ele>
<time>2016-01-16T01:10:58.977Z</time>
</trkpt>
<trkpt lat="-27.9673971" lon="152.6089395">
<ele>82.432</ele>
<time>2016-01-16T01:11:02.160Z</time>
</trkpt>
<trkpt lat="-27.9679023" lon="152.6086134">
<ele>82.953</ele>
<time>2016-01-16T01:11:05.348Z</time>
</trkpt>
<trkpt lat="-27.9684050" lon="152.6082424">
<ele>83.793</ele>
<time>2016-01-16T01:11:08.439Z</time>
</trkpt>
<trkpt lat="-27.9687187" lon="152.6079862">
<ele>85.279</ele>
<time>2016-01-16T01:11:10.408Z</time>
</trkpt>
<trkpt lat="-27.9691367" lon="152.6074620">
<ele>87.135</ele>
<time>2016-01-16T01:11:13.532Z</time>
</trkpt>
<trkpt lat="-27.9693892" lon="152.6070991">
<ele>89.055</ele>
<time>2016-01-16T01:11:15.521Z</time>
</trkpt>
<trkpt lat="-27.9697271" lon="152.6065027">
<ele>90.592</ele>
<time>2016-01-16T01:11:18.512Z</time>
</trkpt>
<trkpt lat="-27.9700182" lon="152.6058547">
<ele>91.179</ele>
<time>2016-01-16T01:11:21.527Z</time>
</trkpt>
<trkpt lat="-27.9703124" lon="152.6051431">
<ele>90.860</ele>
<time>2016-01-16T01:11:24.646Z</time>
</trkpt>
<trkpt lat="-27.9705086" lon="152.6046711">
<ele>90.641</ele>
<time>2016-01-16T01:11:26.651Z</time>
</trkpt>
<trkpt lat="-27.9707055" lon="152.6042129">
<ele>91.339</ele>
<time>2016-01-16T01:11:28.606Z</time>
</trkpt>
<trkpt lat="-27.9709981" lon="152.6034983">
<ele>92.572</ele>
<time>2016-01-16T01:11:31.607Z</time>
</trkpt>
<trkpt lat="-27.9713184" lon="152.6027712">
<ele>93.703</ele>
<time>2016-01-16T01:11:34.643Z</time>
</trkpt>
<trkpt lat="-27.9715198" lon="152.6023015">
<ele>94.520</ele>
<time>2016-01-16T01:11:36.582Z</time>
</trkpt>
<trkpt lat="-27.9717378" lon="152.6017952">
<ele>94.906</ele>
<time>2016-01-16T01:11:38.656Z</time>
</trkpt>
<trkpt lat="-27.9720681" lon="152.6010458">
<ele>94.922</ele>
<time>2016-01-16T01:11:41.692Z</time>
</trkpt>
<trkpt lat="-27.9724245" lon="152.6002951">
<ele>95.294</ele>
<time>2016-01-16T01:11:44.755Z</time>
</trkpt>
<trkpt lat="-27.9727711" lon="152.5995476">
<ele>96.531</ele>
<time>2016-01-16T01:11:47.739Z</time>
</trkpt>
<trkpt lat="-27.9731425" lon="152.5987662">
<ele>97.976</ele>
<time>2016-01-16T01:11:50.744Z</time>
</trkpt>
<trkpt lat="-27.9734013" lon="152.5982411">
<ele>99.329</ele>
<time>2016-01-16T01:11:52.724Z</time>
</trkpt>
<trkpt lat="-27.9737807" lon="152.5974681">
<ele>100.900</ele>
<time>2016-01-16T01:11:55.687Z</time>
</trkpt>
<trkpt lat="-27.9740102" lon="152.5969486">
<ele>102.195</ele>
<time>2016-01-16T01:11:57.669Z</time>
</trkpt>
<trkpt lat="-27.9743318" lon="152.5961689">
<ele>102.730</ele>
<time>2016-01-16T01:12:00.648Z</time>
</trkpt>
<trkpt lat="-27.9745725" lon="152.5956604">
<ele>102.775</ele>
<time>2016-01-16T01:12:02.669Z</time>
</trkpt>
<trkpt lat="-27.9750343" lon="152.5949419">
<ele>102.665</ele>
<time>2016-01-16T01:12:05.735Z</time>
</trkpt>
<trkpt lat="-27.9755806" lon="152.5943303">
<ele>102.539</ele>
<time>2016-01-16T01:12:08.716Z</time>
</trkpt>
<trkpt lat="-27.9759146" lon="152.5939458">
<ele>102.421</ele>
<time>2016-01-16T01:12:10.624Z</time>
</trkpt>
<trkpt lat="-27.9762704" lon="152.5935746">
<ele>102.339</ele>
<time>2016-01-16T01:12:12.626Z</time>
</trkpt>
<trkpt lat="-27.9769038" lon="152.5931414">
<ele>102.369</ele>
<time>2016-01-16T01:12:15.677Z</time>
</trkpt>
<trkpt lat="-27.9773259" lon="152.5928093">
<ele>103.296</ele>
<time>2016-01-16T01:12:17.753Z</time>
</trkpt>
<trkpt lat="-27.9777085" lon="152.5924166">
<ele>105.505</ele>
<time>2016-01-16T01:12:19.809Z</time>
</trkpt>
<trkpt lat="-27.9780753" lon="152.5920292">
<ele>108.210</ele>
<time>2016-01-16T01:12:21.806Z</time>
</trkpt>
<trkpt lat="-27.9785958" lon="152.5915088">
<ele>110.530</ele>
<time>2016-01-16T01:12:24.697Z</time>
</trkpt>
<trkpt lat="-27.9789755" lon="152.5911906">
<ele>111.562</ele>
<time>2016-01-16T01:12:26.748Z</time>
</trkpt>
<trkpt lat="-27.9798241" lon="152.5906721">
<ele>110.904</ele>
<time>2016-01-16T01:12:30.874Z</time>
</trkpt>
<trkpt lat="-27.9802427" lon="152.5904206">
<ele>110.051</ele>
<time>2016-01-16T01:12:32.839Z</time>
</trkpt>
<trkpt lat="-27.9808410" lon="152.5900794">
<ele>110.252</ele>
<time>2016-01-16T01:12:35.716Z</time>
</trkpt>
<trkpt lat="-27.9814818" lon="152.5898831">
<ele>110.999</ele>
<time>2016-01-16T01:12:38.671Z</time>
</trkpt>
<trkpt lat="-27.9819414" lon="152.5899051">
<ele>111.540</ele>
<time>2016-01-16T01:12:40.748Z</time>
</trkpt>
<trkpt lat="-27.9825706" lon="152.5898577">
<ele>111.798</ele>
<time>2016-01-16T01:12:43.656Z</time>
</trkpt>
<trkpt lat="-27.9831740" lon="152.5896320">
<ele>111.417</ele>
<time>2016-01-16T01:12:46.668Z</time>
</trkpt>
<trkpt lat="-27.9835365" lon="152.5893227">
<ele>110.014</ele>
<time>2016-01-16T01:12:48.789Z</time>
</trkpt>
<trkpt lat="-27.9840002" lon="152.5886802">
<ele>108.244</ele>
<time>2016-01-16T01:12:52.050Z</time>
</trkpt>
<trkpt lat="-27.9842542" lon="152.5882340">
<ele>108.280</ele>
<time>2016-01-16T01:12:54.050Z</time>
</trkpt>
<trkpt lat="-27.9847019" lon="152.5876517">
<ele>111.095</ele>
<time>2016-01-16T01:12:57.030Z</time>
</trkpt>
<trkpt lat="-27.9850508" lon="152.5873540">
<ele>115.014</ele>
<time>2016-01-16T01:12:58.973Z</time>
</trkpt>
<trkpt lat="-27.9855128" lon="152.5868335">
<ele>118.047</ele>
<time>2016-01-16T01:13:01.948Z</time>
</trkpt>
<trkpt lat="-27.9857864" lon="152.5864327">
<ele>119.449</ele>
<time>2016-01-16T01:13:04.013Z</time>
</trkpt>
<trkpt lat="-27.9860803" lon="152.5860622">
<ele>119.221</ele>
<time>2016-01-16T01:13:06.035Z</time>
</trkpt>
<trkpt lat="-27.9866639" lon="152.5856729">
<ele>117.774</ele>
<time>2016-01-16T01:13:09.144Z</time>
</trkpt>
<trkpt lat="-27.9870472" lon="152.5854909">
<ele>115.637</ele>
<time>2016-01-16T01:13:11.086Z</time>
</trkpt>
<trkpt lat="-27.9876621" lon="152.5854057">
<ele>113.270</ele>
<time>2016-01-16T01:13:14.024Z</time>
</trkpt>
<trkpt lat="-27.9880938" lon="152.5854842">
<ele>111.024</ele>
<time>2016-01-16T01:13:16.087Z</time>
</trkpt>
<trkpt lat="-27.9886764" lon="152.5855404">
<ele>109.625</ele>
<time>2016-01-16T01:13:18.955Z</time>
</trkpt>
<trkpt lat="-27.9890601" lon="152.5855049">
<ele>109.526</ele>
<time>2016-01-16T01:13:20.928Z</time>
</trkpt>
<trkpt lat="-27.9894528" lon="152.5853815">
<ele>110.041</ele>
<time>2016-01-16T01:13:22.989Z</time>
</trkpt>
<trkpt lat="-27.9900204" lon="152.5851131">
<ele>110.498</ele>
<time>2016-01-16T01:13:26.032Z</time>
</trkpt>
<trkpt lat="-27.9903681" lon="152.5849100">
<ele>110.717</ele>
<time>2016-01-16T01:13:27.981Z</time>
</trkpt>
<trkpt lat="-27.9907028" lon="152.5846741">
<ele>110.791</ele>
<time>2016-01-16T01:13:29.972Z</time>
</trkpt>
<trkpt lat="-27.9910969" lon="152.5841111">
<ele>110.856</ele>
<time>2016-01-16T01:13:33.055Z</time>
</trkpt>
<trkpt lat="-27.9913747" lon="152.5837289">
<ele>110.929</ele>
<time>2016-01-16T01:13:35.073Z</time>
</trkpt>
<trkpt lat="-27.9915715" lon="152.5833077">
<ele>110.976</ele>
<time>2016-01-16T01:13:37.012Z</time>
</trkpt>
<trkpt lat="-27.9918189" lon="152.5826028">
<ele>110.844</ele>
<time>2016-01-16T01:13:40.074Z</time>
</trkpt>
<trkpt lat="-27.9921996" lon="152.5819554">
<ele>110.295</ele>
<time>2016-01-16T01:13:43.115Z</time>
</trkpt>
<trkpt lat="-27.9924773" lon="152.5815438">
<ele>109.637</ele>
<time>2016-01-16T01:13:45.118Z</time>
</trkpt>
<trkpt lat="-27.9928945" lon="152.5809623">
<ele>109.276</ele>
<time>2016-01-16T01:13:48.070Z</time>
</trkpt>
<trkpt lat="-27.9932084" lon="152.5806210">
<ele>108.930</ele>
<time>2016-01-16T01:13:50.082Z</time>
</trkpt>
<trkpt lat="-27.9937508" lon="152.5802087">
<ele>108.379</ele>
<time>2016-01-16T01:13:53.167Z</time>
</trkpt>
<trkpt lat="-27.9943249" lon="152.5799362">
<ele>107.902</ele>
<time>2016-01-16T01:13:56.147Z</time>
</trkpt>
<trkpt lat="-27.9947145" lon="152.5797727">
<ele>107.645</ele>
<time>2016-01-16T01:13:58.124Z</time>
</trkpt>
<trkpt lat="-27.9953313" lon="152.5795187">
<ele>107.378</ele>
<time>2016-01-16T01:14:01.160Z</time>
</trkpt>
<trkpt lat="-27.9957511" lon="152.5793426">
<ele>106.707</ele>
<time>2016-01-16T01:14:03.197Z</time>
</trkpt>
<trkpt lat="-27.9963396" lon="152.5790413">
<ele>105.437</ele>
<time>2016-01-16T01:14:06.169Z</time>
</trkpt>
<trkpt lat="-27.9967006" lon="152.5787827">
<ele>104.232</ele>
<time>2016-01-16T01:14:08.156Z</time>
</trkpt>
<trkpt lat="-27.9970300" lon="152.5784875">
<ele>104.124</ele>
<time>2016-01-16T01:14:10.118Z</time>
</trkpt>
<trkpt lat="-27.9973604" lon="152.5781910">
<ele>105.519</ele>
<time>2016-01-16T01:14:12.135Z</time>
</trkpt>
<trkpt lat="-27.9978185" lon="152.5777764">
<ele>107.895</ele>
<time>2016-01-16T01:14:15.006Z</time>
</trkpt>
<trkpt lat="-27.9982943" lon="152.5773092">
<ele>110.133</ele>
<time>2016-01-16T01:14:18.056Z</time>
</trkpt>
<trkpt lat="-27.9986041" lon="152.5769570">
<ele>111.281</ele>
<time>2016-01-16T01:14:20.121Z</time>
</trkpt>
<trkpt lat="-27.9990991" lon="152.5765050">
<ele>111.034</ele>
<time>2016-01-16T01:14:23.074Z</time>
</trkpt>
<trkpt lat="-27.9994653" lon="152.5762312">
<ele>109.648</ele>
<time>2016-01-16T01:14:25.096Z</time>
</trkpt>
<trkpt lat="-28.0000436" lon="152.5758484">
<ele>108.060</ele>
<time>2016-01-16T01:14:28.114Z</time>
</trkpt>
<trkpt lat="-28.0004093" lon="152.5756088">
<ele>107.495</ele>
<time>2016-01-16T01:14:30.032Z</time>
</trkpt>
<trkpt lat="-28.0009605" lon="152.5752535">
<ele>108.205</ele>
<time>2016-01-16T01:14:33.043Z</time>
</trkpt>
<trkpt lat="-28.0015133" lon="152.5749076">
<ele>109.256</ele>
<time>2016-01-16T01:14:36.079Z</time>
</trkpt>
<trkpt lat="-28.0018798" lon="152.5746758">
<ele>109.751</ele>
<time>2016-01-16T01:14:38.077Z</time>
</trkpt>
<trkpt lat="-28.0022661" lon="152.5744280">
<ele>109.751</ele>
<time>2016-01-16T01:14:40.198Z</time>
</trkpt>
<trkpt lat="-28.0027764" lon="152.5739951">
<ele>109.729</ele>
<time>2016-01-16T01:14:43.269Z</time>
</trkpt>
<trkpt lat="-28.0031222" lon="152.5737576">
<ele>109.923</ele>
<time>2016-01-16T01:14:45.224Z</time>
</trkpt>
<trkpt lat="-28.0036815" lon="152.5734984">
<ele>110.240</ele>
<time>2016-01-16T01:14:48.150Z</time>
</trkpt>
<trkpt lat="-28.0043152" lon="152.5733368">
<ele>110.552</ele>
<time>2016-01-16T01:14:51.215Z</time>
</trkpt>
<trkpt lat="-28.0047385" lon="152.5732259">
<ele>111.187</ele>
<time>2016-01-16T01:14:53.245Z</time>
</trkpt>
<trkpt lat="-28.0053208" lon="152.5730234">
<ele>112.383</ele>
<time>2016-01-16T01:14:56.174Z</time>
</trkpt>
<trkpt lat="-28.0056974" lon="152.5728057">
<ele>113.474</ele>
<time>2016-01-16T01:14:58.215Z</time>
</trkpt>
<trkpt lat="-28.0058892" lon="152.5726852">
<ele>113.763</ele>
<time>2016-01-16T01:14:59.255Z</time>
</trkpt>
<trkpt lat="-28.0066475" lon="152.5722899">
<ele>113.544</ele>
<time>2016-01-16T01:15:03.220Z</time>
</trkpt>
<trkpt lat="-28.0070778" lon="152.5722020">
<ele>113.724</ele>
<time>2016-01-16T01:15:05.245Z</time>
</trkpt>
<trkpt lat="-28.0077436" lon="152.5721199">
<ele>115.007</ele>
<time>2016-01-16T01:15:08.252Z</time>
</trkpt>
<trkpt lat="-28.0081858" lon="152.5721600">
<ele>117.031</ele>
<time>2016-01-16T01:15:10.241Z</time>
</trkpt>
<trkpt lat="-28.0086116" lon="152.5722432">
<ele>118.847</ele>
<time>2016-01-16T01:15:12.219Z</time>
</trkpt>
<trkpt lat="-28.0090309" lon="152.5723028">
<ele>119.941</ele>
<time>2016-01-16T01:15:14.205Z</time>
</trkpt>
<trkpt lat="-28.0094445" lon="152.5722930">
<ele>120.156</ele>
<time>2016-01-16T01:15:16.184Z</time>
</trkpt>
<trkpt lat="-28.0098589" lon="152.5722220">
<ele>119.436</ele>
<time>2016-01-16T01:15:18.208Z</time>
</trkpt>
<trkpt lat="-28.0102527" lon="152.5721298">
<ele>118.238</ele>
<time>2016-01-16T01:15:20.186Z</time>
</trkpt>
<trkpt lat="-28.0108029" lon="152.5718957">
<ele>117.248</ele>
<time>2016-01-16T01:15:23.142Z</time>
</trkpt>
<trkpt lat="-28.0112522" lon="152.5714640">
<ele>116.705</ele>
<time>2016-01-16T01:15:26.146Z</time>
</trkpt>
<trkpt lat="-28.0116409" lon="152.5709459">
<ele>116.621</ele>
<time>2016-01-16T01:15:29.157Z</time>
</trkpt>
<trkpt lat="-28.0120422" lon="152.5704307">
<ele>116.932</ele>
<time>2016-01-16T01:15:32.174Z</time>
</trkpt>
<trkpt lat="-28.0123312" lon="152.5701069">
<ele>117.393</ele>
<time>2016-01-16T01:15:34.211Z</time>
</trkpt>
<trkpt lat="-28.0128794" lon="152.5697904">
<ele>117.810</ele>
<time>2016-01-16T01:15:37.221Z</time>
</trkpt>
<trkpt lat="-28.0133173" lon="152.5696774">
<ele>118.667</ele>
<time>2016-01-16T01:15:39.267Z</time>
</trkpt>
<trkpt lat="-28.0140229" lon="152.5695487">
<ele>120.596</ele>
<time>2016-01-16T01:15:42.373Z</time>
</trkpt>
<trkpt lat="-28.0146581" lon="152.5693197">
<ele>123.405</ele>
<time>2016-01-16T01:15:45.342Z</time>
</trkpt>
<trkpt lat="-28.0152132" lon="152.5689418">
<ele>126.165</ele>
<time>2016-01-16T01:15:48.351Z</time>
</trkpt>
<trkpt lat="-28.0155844" lon="152.5686825">
<ele>128.020</ele>
<time>2016-01-16T01:15:50.366Z</time>
</trkpt>
<trkpt lat="-28.0159311" lon="152.5684359">
<ele>128.801</ele>
<time>2016-01-16T01:15:52.239Z</time>
</trkpt>
<trkpt lat="-28.0165062" lon="152.5682234">
<ele>129.211</ele>
<time>2016-01-16T01:15:55.063Z</time>
</trkpt>
<trkpt lat="-28.0169283" lon="152.5681486">
<ele>130.640</ele>
<time>2016-01-16T01:15:57.084Z</time>
</trkpt>
<trkpt lat="-28.0173535" lon="152.5680510">
<ele>134.134</ele>
<time>2016-01-16T01:15:59.139Z</time>
</trkpt>
<trkpt lat="-28.0179509" lon="152.5678980">
<ele>139.430</ele>
<time>2016-01-16T01:16:02.089Z</time>
</trkpt>
<trkpt lat="-28.0186078" lon="152.5678152">
<ele>144.865</ele>
<time>2016-01-16T01:16:05.205Z</time>
</trkpt>
<trkpt lat="-28.0190644" lon="152.5677371">
<ele>148.645</ele>
<time>2016-01-16T01:16:07.292Z</time>
</trkpt>
<trkpt lat="-28.0197155" lon="152.5676471">
<ele>150.303</ele>
<time>2016-01-16T01:16:10.328Z</time>
</trkpt>
<trkpt lat="-28.0200918" lon="152.5675734">
<ele>150.175</ele>
<time>2016-01-16T01:16:12.219Z</time>
</trkpt>
<trkpt lat="-28.0204695" lon="152.5675030">
<ele>148.734</ele>
<time>2016-01-16T01:16:14.186Z</time>
</trkpt>
<trkpt lat="-28.0208481" lon="152.5674371">
<ele>147.275</ele>
<time>2016-01-16T01:16:16.161Z</time>
</trkpt>
<trkpt lat="-28.0212342" lon="152.5673564">
<ele>147.139</ele>
<time>2016-01-16T01:16:18.147Z</time>
</trkpt>
<trkpt lat="-28.0218451" lon="152.5672481">
<ele>148.592</ele>
<time>2016-01-16T01:16:21.192Z</time>
</trkpt>
<trkpt lat="-28.0224485" lon="152.5671420">
<ele>151.013</ele>
<time>2016-01-16T01:16:24.171Z</time>
</trkpt>
<trkpt lat="-28.0230651" lon="152.5670364">
<ele>153.971</ele>
<time>2016-01-16T01:16:27.193Z</time>
</trkpt>
<trkpt lat="-28.0236841" lon="152.5668459">
<ele>157.214</ele>
<time>2016-01-16T01:16:30.264Z</time>
</trkpt>
<trkpt lat="-28.0242277" lon="152.5665073">
<ele>161.025</ele>
<time>2016-01-16T01:16:33.252Z</time>
</trkpt>
<trkpt lat="-28.0246911" lon="152.5661287">
<ele>166.688</ele>
<time>2016-01-16T01:16:36.124Z</time>
</trkpt>
<trkpt lat="-28.0249585" lon="152.5658268">
<ele>173.497</ele>
<time>2016-01-16T01:16:38.114Z</time>
</trkpt>
<trkpt lat="-28.0251793" lon="152.5654843">
<ele>178.431</ele>
<time>2016-01-16T01:16:40.107Z</time>
</trkpt>
<trkpt lat="-28.0253891" lon="152.5651481">
<ele>180.084</ele>
<time>2016-01-16T01:16:42.024Z</time>
</trkpt>
<trkpt lat="-28.0257136" lon="152.5646181">
<ele>178.897</ele>
<time>2016-01-16T01:16:45.028Z</time>
</trkpt>
<trkpt lat="-28.0262308" lon="152.5643953">
<ele>175.264</ele>
<time>2016-01-16T01:16:47.999Z</time>
</trkpt>
<trkpt lat="-28.0266366" lon="152.5642748">
<ele>170.480</ele>
<time>2016-01-16T01:16:50.179Z</time>
</trkpt>
<trkpt lat="-28.0272682" lon="152.5641322">
<ele>166.548</ele>
<time>2016-01-16T01:16:53.321Z</time>
</trkpt>
<trkpt lat="-28.0276728" lon="152.5640326">
<ele>164.212</ele>
<time>2016-01-16T01:16:55.272Z</time>
</trkpt>
<trkpt lat="-28.0282868" lon="152.5639269">
<ele>163.070</ele>
<time>2016-01-16T01:16:58.242Z</time>
</trkpt>
<trkpt lat="-28.0288337" lon="152.5637904">
<ele>162.804</ele>
<time>2016-01-16T01:17:01.115Z</time>
</trkpt>
<trkpt lat="-28.0293619" lon="152.5636886">
<ele>163.951</ele>
<time>2016-01-16T01:17:04.048Z</time>
</trkpt>
<trkpt lat="-28.0297325" lon="152.5635859">
<ele>167.273</ele>
<time>2016-01-16T01:17:06.093Z</time>
</trkpt>
<trkpt lat="-28.0303002" lon="152.5634687">
<ele>171.516</ele>
<time>2016-01-16T01:17:09.132Z</time>
</trkpt>
<trkpt lat="-28.0308512" lon="152.5634249">
<ele>174.034</ele>
<time>2016-01-16T01:17:12.134Z</time>
</trkpt>
<trkpt lat="-28.0313562" lon="152.5637149">
<ele>172.658</ele>
<time>2016-01-16T01:17:15.295Z</time>
</trkpt>
<trkpt lat="-28.0316145" lon="152.5639867">
<ele>167.045</ele>
<time>2016-01-16T01:17:17.281Z</time>
</trkpt>
<trkpt lat="-28.0319716" lon="152.5644748">
<ele>160.049</ele>
<time>2016-01-16T01:17:20.368Z</time>
</trkpt>
<trkpt lat="-28.0322233" lon="152.5648138">
<ele>155.296</ele>
<time>2016-01-16T01:17:22.495Z</time>
</trkpt>
<trkpt lat="-28.0325415" lon="152.5652471">
<ele>153.599</ele>
<time>2016-01-16T01:17:25.365Z</time>
</trkpt>
<trkpt lat="-28.0327699" lon="152.5654773">
<ele>153.503</ele>
<time>2016-01-16T01:17:27.297Z</time>
</trkpt>
<trkpt lat="-28.0330878" lon="152.5655875">
<ele>153.312</ele>
<time>2016-01-16T01:17:29.424Z</time>
</trkpt>
<trkpt lat="-28.0334084" lon="152.5655420">
<ele>152.493</ele>
<time>2016-01-16T01:17:31.362Z</time>
</trkpt>
<trkpt lat="-28.0339852" lon="152.5652942">
<ele>151.693</ele>
<time>2016-01-16T01:17:34.586Z</time>
</trkpt>
<trkpt lat="-28.0344018" lon="152.5650651">
<ele>152.164</ele>
<time>2016-01-16T01:17:36.698Z</time>
</trkpt>
<trkpt lat="-28.0350338" lon="152.5647803">
<ele>154.800</ele>
<time>2016-01-16T01:17:39.753Z</time>
</trkpt>
<trkpt lat="-28.0353696" lon="152.5646202">
<ele>158.797</ele>
<time>2016-01-16T01:17:41.553Z</time>
</trkpt>
<trkpt lat="-28.0356902" lon="152.5644299">
<ele>162.592</ele>
<time>2016-01-16T01:17:43.563Z</time>
</trkpt>
<trkpt lat="-28.0359674" lon="152.5642590">
<ele>165.387</ele>
<time>2016-01-16T01:17:45.415Z</time>
</trkpt>
<trkpt lat="-28.0364200" lon="152.5638765">
<ele>166.922</ele>
<time>2016-01-16T01:17:48.569Z</time>
</trkpt>
<trkpt lat="-28.0366752" lon="152.5635630">
<ele>167.329</ele>
<time>2016-01-16T01:17:50.518Z</time>
</trkpt>
<trkpt lat="-28.0369406" lon="152.5632442">
<ele>166.992</ele>
<time>2016-01-16T01:17:52.501Z</time>
</trkpt>
<trkpt lat="-28.0373105" lon="152.5627666">
<ele>165.667</ele>
<time>2016-01-16T01:17:55.409Z</time>
</trkpt>
<trkpt lat="-28.0375604" lon="152.5624567">
<ele>162.776</ele>
<time>2016-01-16T01:17:57.359Z</time>
</trkpt>
<trkpt lat="-28.0379446" lon="152.5619961">
<ele>159.093</ele>
<time>2016-01-16T01:18:00.290Z</time>
</trkpt>
<trkpt lat="-28.0381831" lon="152.5616640">
<ele>156.519</ele>
<time>2016-01-16T01:18:02.281Z</time>
</trkpt>
<trkpt lat="-28.0385258" lon="152.5611894">
<ele>155.705</ele>
<time>2016-01-16T01:18:05.250Z</time>
</trkpt>
<trkpt lat="-28.0387507" lon="152.5609128">
<ele>155.689</ele>
<time>2016-01-16T01:18:07.186Z</time>
</trkpt>
<trkpt lat="-28.0390274" lon="152.5607688">
<ele>155.014</ele>
<time>2016-01-16T01:18:09.083Z</time>
</trkpt>
<trkpt lat="-28.0393332" lon="152.5607122">
<ele>153.282</ele>
<time>2016-01-16T01:18:11.099Z</time>
</trkpt>
<trkpt lat="-28.0397788" lon="152.5608901">
<ele>151.682</ele>
<time>2016-01-16T01:18:14.153Z</time>
</trkpt>
<trkpt lat="-28.0399949" lon="152.5612028">
<ele>151.523</ele>
<time>2016-01-16T01:18:16.268Z</time>
</trkpt>
<trkpt lat="-28.0402248" lon="152.5618046">
<ele>152.895</ele>
<time>2016-01-16T01:18:19.464Z</time>
</trkpt>
<trkpt lat="-28.0403758" lon="152.5621385">
<ele>154.769</ele>
<time>2016-01-16T01:18:21.290Z</time>
</trkpt>
<trkpt lat="-28.0407395" lon="152.5624751">
<ele>155.788</ele>
<time>2016-01-16T01:18:24.120Z</time>
</trkpt>
<trkpt lat="-28.0410521" lon="152.5625243">
<ele>155.065</ele>
<time>2016-01-16T01:18:26.144Z</time>
</trkpt>
<trkpt lat="-28.0413296" lon="152.5624597">
<ele>152.922</ele>
<time>2016-01-16T01:18:27.978Z</time>
</trkpt>
<trkpt lat="-28.0416183" lon="152.5622544">
<ele>150.908</ele>
<time>2016-01-16T01:18:30.132Z</time>
</trkpt>
<trkpt lat="-28.0418309" lon="152.5618979">
<ele>150.401</ele>
<time>2016-01-16T01:18:32.313Z</time>
</trkpt>
<trkpt lat="-28.0421873" lon="152.5613272">
<ele>151.561</ele>
<time>2016-01-16T01:18:35.517Z</time>
</trkpt>
<trkpt lat="-28.0425120" lon="152.5610514">
<ele>153.556</ele>
<time>2016-01-16T01:18:37.531Z</time>
</trkpt>
<trkpt lat="-28.0430422" lon="152.5608026">
<ele>155.243</ele>
<time>2016-01-16T01:18:40.458Z</time>
</trkpt>
<trkpt lat="-28.0434127" lon="152.5607455">
<ele>156.162</ele>
<time>2016-01-16T01:18:42.427Z</time>
</trkpt>
<trkpt lat="-28.0439984" lon="152.5608270">
<ele>156.528</ele>
<time>2016-01-16T01:18:45.464Z</time>
</trkpt>
<trkpt lat="-28.0443870" lon="152.5609175">
<ele>156.928</ele>
<time>2016-01-16T01:18:47.465Z</time>
</trkpt>
<trkpt lat="-28.0447488" lon="152.5610066">
<ele>157.686</ele>
<time>2016-01-16T01:18:49.386Z</time>
</trkpt>
<trkpt lat="-28.0452883" lon="152.5611242">
<ele>158.420</ele>
<time>2016-01-16T01:18:52.366Z</time>
</trkpt>
<trkpt lat="-28.0456299" lon="152.5611863">
<ele>158.248</ele>
<time>2016-01-16T01:18:54.305Z</time>
</trkpt>
<trkpt lat="-28.0461479" lon="152.5611744">
<ele>156.789</ele>
<time>2016-01-16T01:18:57.266Z</time>
</trkpt>
<trkpt lat="-28.0464900" lon="152.5610706">
<ele>154.827</ele>
<time>2016-01-16T01:18:59.307Z</time>
</trkpt>
<trkpt lat="-28.0468887" lon="152.5606302">
<ele>153.539</ele>
<time>2016-01-16T01:19:02.472Z</time>
</trkpt>
<trkpt lat="-28.0470862" lon="152.5602715">
<ele>153.236</ele>
<time>2016-01-16T01:19:04.496Z</time>
</trkpt>
<trkpt lat="-28.0472442" lon="152.5596014">
<ele>153.854</ele>
<time>2016-01-16T01:19:07.620Z</time>
</trkpt>
<trkpt lat="-28.0473939" lon="152.5589506">
<ele>156.118</ele>
<time>2016-01-16T01:19:10.605Z</time>
</trkpt>
<trkpt lat="-28.0475602" lon="152.5585869">
<ele>160.336</ele>
<time>2016-01-16T01:19:12.499Z</time>
</trkpt>
<trkpt lat="-28.0477668" lon="152.5582285">
<ele>164.844</ele>
<time>2016-01-16T01:19:14.507Z</time>
</trkpt>
<trkpt lat="-28.0482177" lon="152.5578214">
<ele>167.965</ele>
<time>2016-01-16T01:19:17.494Z</time>
</trkpt>
<trkpt lat="-28.0485977" lon="152.5575703">
<ele>169.679</ele>
<time>2016-01-16T01:19:19.614Z</time>
</trkpt>
<trkpt lat="-28.0490023" lon="152.5573519">
<ele>170.793</ele>
<time>2016-01-16T01:19:21.709Z</time>
</trkpt>
<trkpt lat="-28.0495986" lon="152.5570383">
<ele>171.881</ele>
<time>2016-01-16T01:19:24.747Z</time>
</trkpt>
<trkpt lat="-28.0501934" lon="152.5567245">
<ele>171.733</ele>
<time>2016-01-16T01:19:27.753Z</time>
</trkpt>
<trkpt lat="-28.0505829" lon="152.5565285">
<ele>168.790</ele>
<time>2016-01-16T01:19:29.734Z</time>
</trkpt>
<trkpt lat="-28.0511466" lon="152.5562389">
<ele>164.441</ele>
<time>2016-01-16T01:19:32.651Z</time>
</trkpt>
<trkpt lat="-28.0517446" lon="152.5559755">
<ele>161.153</ele>
<time>2016-01-16T01:19:35.683Z</time>
</trkpt>
<trkpt lat="-28.0521565" lon="152.5558320">
<ele>159.728</ele>
<time>2016-01-16T01:19:37.672Z</time>
</trkpt>
<trkpt lat="-28.0526140" lon="152.5557412">
<ele>159.809</ele>
<time>2016-01-16T01:19:39.738Z</time>
</trkpt>
<trkpt lat="-28.0530884" lon="152.5556990">
<ele>160.660</ele>
<time>2016-01-16T01:19:41.819Z</time>
</trkpt>
<trkpt lat="-28.0535345" lon="152.5556416">
<ele>161.534</ele>
<time>2016-01-16T01:19:43.821Z</time>
</trkpt>
<trkpt lat="-28.0541692" lon="152.5555623">
<ele>161.790</ele>
<time>2016-01-16T01:19:46.739Z</time>
</trkpt>
<trkpt lat="-28.0548096" lon="152.5555058">
<ele>161.182</ele>
<time>2016-01-16T01:19:49.739Z</time>
</trkpt>
<trkpt lat="-28.0554255" lon="152.5555370">
<ele>160.676</ele>
<time>2016-01-16T01:19:52.635Z</time>
</trkpt>
<trkpt lat="-28.0561102" lon="152.5556188">
<ele>161.324</ele>
<time>2016-01-16T01:19:55.677Z</time>
</trkpt>
<trkpt lat="-28.0568529" lon="152.5557372">
<ele>163.324</ele>
<time>2016-01-16T01:19:58.728Z</time>
</trkpt>
<trkpt lat="-28.0573483" lon="152.5558573">
<ele>166.598</ele>
<time>2016-01-16T01:20:00.800Z</time>
</trkpt>
<trkpt lat="-28.0580130" lon="152.5559848">
<ele>170.318</ele>
<time>2016-01-16T01:20:03.665Z</time>
</trkpt>
<trkpt lat="-28.0586700" lon="152.5561317">
<ele>173.008</ele>
<time>2016-01-16T01:20:06.619Z</time>
</trkpt>
<trkpt lat="-28.0590792" lon="152.5561859">
<ele>174.146</ele>
<time>2016-01-16T01:20:08.464Z</time>
</trkpt>
<trkpt lat="-28.0595259" lon="152.5562604">
<ele>174.057</ele>
<time>2016-01-16T01:20:10.476Z</time>
</trkpt>
<trkpt lat="-28.0599621" lon="152.5563333">
<ele>173.222</ele>
<time>2016-01-16T01:20:12.448Z</time>
</trkpt>
<trkpt lat="-28.0603868" lon="152.5564422">
<ele>172.506</ele>
<time>2016-01-16T01:20:14.408Z</time>
</trkpt>
<trkpt lat="-28.0610133" lon="152.5566781">
<ele>172.437</ele>
<time>2016-01-16T01:20:17.395Z</time>
</trkpt>
<trkpt lat="-28.0614451" lon="152.5569153">
<ele>172.715</ele>
<time>2016-01-16T01:20:19.522Z</time>
</trkpt>
<trkpt lat="-28.0620806" lon="152.5573893">
<ele>173.514</ele>
<time>2016-01-16T01:20:22.826Z</time>
</trkpt>
<trkpt lat="-28.0622622" lon="152.5575242">
<ele>175.116</ele>
<time>2016-01-16T01:20:23.785Z</time>
</trkpt>
<trkpt lat="-28.0629906" lon="152.5580433">
<ele>176.712</ele>
<time>2016-01-16T01:20:27.737Z</time>
</trkpt>
<trkpt lat="-28.0632935" lon="152.5583211">
<ele>177.491</ele>
<time>2016-01-16T01:20:29.581Z</time>
</trkpt>
<trkpt lat="-28.0635683" lon="152.5586651">
<ele>177.631</ele>
<time>2016-01-16T01:20:31.579Z</time>
</trkpt>
<trkpt lat="-28.0637520" lon="152.5590514">
<ele>177.612</ele>
<time>2016-01-16T01:20:33.500Z</time>
</trkpt>
<trkpt lat="-28.0640471" lon="152.5596556">
<ele>177.885</ele>
<time>2016-01-16T01:20:36.501Z</time>
</trkpt>
<trkpt lat="-28.0643336" lon="152.5600177">
<ele>178.492</ele>
<time>2016-01-16T01:20:38.582Z</time>
</trkpt>
<trkpt lat="-28.0648463" lon="152.5603764">
<ele>179.334</ele>
<time>2016-01-16T01:20:41.513Z</time>
</trkpt>
<trkpt lat="-28.0654345" lon="152.5606261">
<ele>181.326</ele>
<time>2016-01-16T01:20:44.586Z</time>
</trkpt>
<trkpt lat="-28.0659562" lon="152.5607905">
<ele>185.803</ele>
<time>2016-01-16T01:20:47.334Z</time>
</trkpt>
<trkpt lat="-28.0664618" lon="152.5610467">
<ele>191.704</ele>
<time>2016-01-16T01:20:50.338Z</time>
</trkpt>
<trkpt lat="-28.0666326" lon="152.5612016">
<ele>197.140</ele>
<time>2016-01-16T01:20:51.547Z</time>
</trkpt>
<trkpt lat="-28.0670124" lon="152.5620426">
<ele>201.652</ele>
<time>2016-01-16T01:20:55.960Z</time>
</trkpt>
<trkpt lat="-28.0671573" lon="152.5624770">
<ele>205.217</ele>
<time>2016-01-16T01:20:58.023Z</time>
</trkpt>
<trkpt lat="-28.0673657" lon="152.5628248">
<ele>207.630</ele>
<time>2016-01-16T01:20:59.867Z</time>
</trkpt>
<trkpt lat="-28.0677824" lon="152.5633752">
<ele>208.933</ele>
<time>2016-01-16T01:21:03.014Z</time>
</trkpt>
<trkpt lat="-28.0681457" lon="152.5636317">
<ele>209.565</ele>
<time>2016-01-16T01:21:05.090Z</time>
</trkpt>
<trkpt lat="-28.0686434" lon="152.5640658">
<ele>210.818</ele>
<time>2016-01-16T01:21:08.139Z</time>
</trkpt>
<trkpt lat="-28.0691413" lon="152.5644457">
<ele>213.478</ele>
<time>2016-01-16T01:21:11.089Z</time>
</trkpt>
<trkpt lat="-28.0696162" lon="152.5648409">
<ele>217.109</ele>
<time>2016-01-16T01:21:14.002Z</time>
</trkpt>
<trkpt lat="-28.0700935" lon="152.5653026">
<ele>220.726</ele>
<time>2016-01-16T01:21:17.013Z</time>
</trkpt>
<trkpt lat="-28.0705950" lon="152.5658054">
<ele>223.544</ele>
<time>2016-01-16T01:21:20.048Z</time>
</trkpt>
<trkpt lat="-28.0709204" lon="152.5661893">
<ele>225.998</ele>
<time>2016-01-16T01:21:22.115Z</time>
</trkpt>
<trkpt lat="-28.0713655" lon="152.5667821">
<ele>228.999</ele>
<time>2016-01-16T01:21:25.146Z</time>
</trkpt>
<trkpt lat="-28.0718039" lon="152.5673388">
<ele>232.298</ele>
<time>2016-01-16T01:21:28.048Z</time>
</trkpt>
<trkpt lat="-28.0722500" lon="152.5679215">
<ele>235.338</ele>
<time>2016-01-16T01:21:31.002Z</time>
</trkpt>
<trkpt lat="-28.0725663" lon="152.5683392">
<ele>238.367</ele>
<time>2016-01-16T01:21:33.108Z</time>
</trkpt>
<trkpt lat="-28.0729721" lon="152.5689375">
<ele>241.121</ele>
<time>2016-01-16T01:21:36.071Z</time>
</trkpt>
<trkpt lat="-28.0731827" lon="152.5693643">
<ele>241.964</ele>
<time>2016-01-16T01:21:38.080Z</time>
</trkpt>
<trkpt lat="-28.0732684" lon="152.5700800">
<ele>239.344</ele>
<time>2016-01-16T01:21:41.140Z</time>
</trkpt>
<trkpt lat="-28.0730215" lon="152.5707113">
<ele>233.650</ele>
<time>2016-01-16T01:21:44.173Z</time>
</trkpt>
<trkpt lat="-28.0727888" lon="152.5710438">
<ele>227.092</ele>
<time>2016-01-16T01:21:46.101Z</time>
</trkpt>
<trkpt lat="-28.0725540" lon="152.5713699">
<ele>221.670</ele>
<time>2016-01-16T01:21:48.069Z</time>
</trkpt>
<trkpt lat="-28.0722294" lon="152.5718379">
<ele>217.325</ele>
<time>2016-01-16T01:21:50.903Z</time>
</trkpt>
<trkpt lat="-28.0720203" lon="152.5724143">
<ele>213.114</ele>
<time>2016-01-16T01:21:53.884Z</time>
</trkpt>
<trkpt lat="-28.0718423" lon="152.5730449">
<ele>208.757</ele>
<time>2016-01-16T01:21:56.985Z</time>
</trkpt>
<trkpt lat="-28.0717525" lon="152.5734658">
<ele>203.876</ele>
<time>2016-01-16T01:21:58.969Z</time>
</trkpt>
<trkpt lat="-28.0717122" lon="152.5738815">
<ele>198.223</ele>
<time>2016-01-16T01:22:00.856Z</time>
</trkpt>
<trkpt lat="-28.0716865" lon="152.5745778">
<ele>192.374</ele>
<time>2016-01-16T01:22:03.931Z</time>
</trkpt>
<trkpt lat="-28.0717881" lon="152.5750476">
<ele>186.446</ele>
<time>2016-01-16T01:22:05.989Z</time>
</trkpt>
<trkpt lat="-28.0719627" lon="152.5757621">
<ele>180.432</ele>
<time>2016-01-16T01:22:09.071Z</time>
</trkpt>
<trkpt lat="-28.0720745" lon="152.5765015">
<ele>174.718</ele>
<time>2016-01-16T01:22:12.132Z</time>
</trkpt>
<trkpt lat="-28.0721582" lon="152.5769574">
<ele>168.599</ele>
<time>2016-01-16T01:22:13.999Z</time>
</trkpt>
<trkpt lat="-28.0722519" lon="152.5777592">
<ele>161.468</ele>
<time>2016-01-16T01:22:17.119Z</time>
</trkpt>
<trkpt lat="-28.0723724" lon="152.5785825">
<ele>154.471</ele>
<time>2016-01-16T01:22:20.176Z</time>
</trkpt>
<trkpt lat="-28.0724837" lon="152.5791099">
<ele>148.958</ele>
<time>2016-01-16T01:22:22.169Z</time>
</trkpt>
<trkpt lat="-28.0725506" lon="152.5796283">
<ele>144.536</ele>
<time>2016-01-16T01:22:24.175Z</time>
</trkpt>
<trkpt lat="-28.0726094" lon="152.5801229">
<ele>140.450</ele>
<time>2016-01-16T01:22:26.146Z</time>
</trkpt>
<trkpt lat="-28.0727082" lon="152.5808159">
<ele>137.477</ele>
<time>2016-01-16T01:22:29.007Z</time>
</trkpt>
<trkpt lat="-28.0727924" lon="152.5815569">
<ele>136.538</ele>
<time>2016-01-16T01:22:31.969Z</time>
</trkpt>
<trkpt lat="-28.0729059" lon="152.5823583">
<ele>136.895</ele>
<time>2016-01-16T01:22:35.021Z</time>
</trkpt>
<trkpt lat="-28.0730284" lon="152.5832023">
<ele>137.048</ele>
<time>2016-01-16T01:22:38.058Z</time>
</trkpt>
<trkpt lat="-28.0731029" lon="152.5837739">
<ele>136.160</ele>
<time>2016-01-16T01:22:40.061Z</time>
</trkpt>
<trkpt lat="-28.0732110" lon="152.5846162">
<ele>134.955</ele>
<time>2016-01-16T01:22:43.055Z</time>
</trkpt>
<trkpt lat="-28.0733377" lon="152.5854275">
<ele>134.297</ele>
<time>2016-01-16T01:22:46.072Z</time>
</trkpt>
<trkpt lat="-28.0734090" lon="152.5859186">
<ele>133.778</ele>
<time>2016-01-16T01:22:47.929Z</time>
</trkpt>
<trkpt lat="-28.0735340" lon="152.5867397">
<ele>132.898</ele>
<time>2016-01-16T01:22:51.021Z</time>
</trkpt>
<trkpt lat="-28.0736144" lon="152.5872528">
<ele>131.991</ele>
<time>2016-01-16T01:22:53.024Z</time>
</trkpt>
<trkpt lat="-28.0736745" lon="152.5877337">
<ele>131.220</ele>
<time>2016-01-16T01:22:55.029Z</time>
</trkpt>
<trkpt lat="-28.0737276" lon="152.5881593">
<ele>129.856</ele>
<time>2016-01-16T01:22:56.975Z</time>
</trkpt>
<trkpt lat="-28.0737018" lon="152.5887397">
<ele>127.442</ele>
<time>2016-01-16T01:22:59.831Z</time>
</trkpt>
<trkpt lat="-28.0736091" lon="152.5890953">
<ele>124.440</ele>
<time>2016-01-16T01:23:01.798Z</time>
</trkpt>
<trkpt lat="-28.0734274" lon="152.5894044">
<ele>121.658</ele>
<time>2016-01-16T01:23:03.756Z</time>
</trkpt>
<trkpt lat="-28.0730133" lon="152.5897908">
<ele>119.495</ele>
<time>2016-01-16T01:23:06.910Z</time>
</trkpt>
<trkpt lat="-28.0725609" lon="152.5899831">
<ele>117.895</ele>
<time>2016-01-16T01:23:09.892Z</time>
</trkpt>
<trkpt lat="-28.0722709" lon="152.5900431">
<ele>116.679</ele>
<time>2016-01-16T01:23:11.857Z</time>
</trkpt>
<trkpt lat="-28.0718358" lon="152.5901316">
<ele>115.725</ele>
<time>2016-01-16T01:23:14.971Z</time>
</trkpt>
<trkpt lat="-28.0714276" lon="152.5902086">
<ele>115.026</ele>
<time>2016-01-16T01:23:17.974Z</time>
</trkpt>
<trkpt lat="-28.0710456" lon="152.5902773">
<ele>115.043</ele>
<time>2016-01-16T01:23:20.846Z</time>
</trkpt>
<trkpt lat="-28.0707759" lon="152.5903330">
<ele>118.521</ele>
<time>2016-01-16T01:23:22.892Z</time>
</trkpt>
<trkpt lat="-28.0703839" lon="152.5903923">
<ele>126.433</ele>
<time>2016-01-16T01:23:25.984Z</time>
</trkpt>
<trkpt lat="-28.0701690" lon="152.5904391">
<ele>134.736</ele>
<time>2016-01-16T01:23:28.050Z</time>
</trkpt>
<trkpt lat="-28.0700134" lon="152.5904617">
<ele>139.765</ele>
<time>2016-01-16T01:23:30.034Z</time>
</trkpt>
<trkpt lat="-28.0699069" lon="152.5904737">
<ele>141.589</ele>
<time>2016-01-16T01:23:32.012Z</time>
</trkpt>
<trkpt lat="-28.0698010" lon="152.5904879">
<ele>141.064</ele>
<time>2016-01-16T01:23:34.656Z</time>
</trkpt>
<trkpt lat="-28.0696863" lon="152.5905059">
<ele>139.209</ele>
<time>2016-01-16T01:23:38.489Z</time>
</trkpt>
<trkpt lat="-28.0695937" lon="152.5905102">
<ele>137.166</ele>
<time>2016-01-16T01:23:43.000Z</time>
</trkpt>
<trkpt lat="-28.0695937" lon="152.5905102">
<ele>135.990</ele>
<time>2016-01-16T01:23:45.000Z</time>
</trkpt>
<trkpt lat="-28.0695937" lon="152.5905102">
<ele>135.836</ele>
<time>2016-01-16T01:23:48.173Z</time>
</trkpt>
<trkpt lat="-28.0694057" lon="152.5905637">
<ele>136.046</ele>
<time>2016-01-16T01:23:56.495Z</time>
</trkpt>
<trkpt lat="-28.0692896" lon="152.5906065">
<ele>135.274</ele>
<time>2016-01-16T01:23:59.511Z</time>
</trkpt>
<trkpt lat="-28.0691922" lon="152.5906733">
<ele>132.741</ele>
<time>2016-01-16T01:24:02.621Z</time>
</trkpt>
<trkpt lat="-28.0691671" lon="152.5907807">
<ele>129.633</ele>
<time>2016-01-16T01:24:05.490Z</time>
</trkpt>
<trkpt lat="-28.0691868" lon="152.5909082">
<ele>127.590</ele>
<time>2016-01-16T01:24:09.129Z</time>
</trkpt>
<trkpt lat="-28.0692620" lon="152.5909740">
<ele>126.244</ele>
<time>2016-01-16T01:24:11.903Z</time>
</trkpt>
<trkpt lat="-28.0693805" lon="152.5908402">
<ele>124.401</ele>
<time>2016-01-16T01:24:15.283Z</time>
</trkpt>
<trkpt lat="-28.0695114" lon="152.5906897">
<ele>122.038</ele>
<time>2016-01-16T01:24:18.285Z</time>
</trkpt>
<trkpt lat="-28.0696356" lon="152.5906229">
<ele>120.066</ele>
<time>2016-01-16T01:24:19.934Z</time>
</trkpt>
<trkpt lat="-28.0697899" lon="152.5905605">
<ele>119.030</ele>
<time>2016-01-16T01:24:21.673Z</time>
</trkpt>
<trkpt lat="-28.0701163" lon="152.5904886">
<ele>118.914</ele>
<time>2016-01-16T01:24:24.504Z</time>
</trkpt>
<trkpt lat="-28.0703607" lon="152.5904427">
<ele>120.278</ele>
<time>2016-01-16T01:24:26.323Z</time>
</trkpt>
<trkpt lat="-28.0707806" lon="152.5903593">
<ele>123.453</ele>
<time>2016-01-16T01:24:29.152Z</time>
</trkpt>
<trkpt lat="-28.0711029" lon="152.5902933">
<ele>127.045</ele>
<time>2016-01-16T01:24:31.037Z</time>
</trkpt>
<trkpt lat="-28.0716646" lon="152.5901876">
<ele>129.711</ele>
<time>2016-01-16T01:24:34.118Z</time>
</trkpt>
<trkpt lat="-28.0720358" lon="152.5901180">
<ele>131.810</ele>
<time>2016-01-16T01:24:36.205Z</time>
</trkpt>
<trkpt lat="-28.0725342" lon="152.5900310">
<ele>133.689</ele>
<time>2016-01-16T01:24:39.286Z</time>
</trkpt>
<trkpt lat="-28.0728201" lon="152.5899554">
<ele>134.401</ele>
<time>2016-01-16T01:24:41.329Z</time>
</trkpt>
<trkpt lat="-28.0731842" lon="152.5897532">
<ele>133.250</ele>
<time>2016-01-16T01:24:44.402Z</time>
</trkpt>
<trkpt lat="-28.0733988" lon="152.5896178">
<ele>131.230</ele>
<time>2016-01-16T01:24:46.615Z</time>
</trkpt>
<trkpt lat="-28.0735615" lon="152.5896438">
<ele>129.477</ele>
<time>2016-01-16T01:24:48.160Z</time>
</trkpt>
<trkpt lat="-28.0739095" lon="152.5896726">
<ele>128.274</ele>
<time>2016-01-16T01:24:50.991Z</time>
</trkpt>
<trkpt lat="-28.0742129" lon="152.5896509">
<ele>127.889</ele>
<time>2016-01-16T01:24:52.755Z</time>
</trkpt>
<trkpt lat="-28.0748230" lon="152.5896010">
<ele>128.655</ele>
<time>2016-01-16T01:24:55.918Z</time>
</trkpt>
<trkpt lat="-28.0752619" lon="152.5895343">
<ele>130.976</ele>
<time>2016-01-16T01:24:58.004Z</time>
</trkpt>
<trkpt lat="-28.0754715" lon="152.5894981">
<ele>134.449</ele>
<time>2016-01-16T01:24:59.020Z</time>
</trkpt>
<trkpt lat="-28.0762907" lon="152.5893179">
<ele>137.413</ele>
<time>2016-01-16T01:25:03.096Z</time>
</trkpt>
<trkpt lat="-28.0768484" lon="152.5892304">
<ele>138.007</ele>
<time>2016-01-16T01:25:05.994Z</time>
</trkpt>
<trkpt lat="-28.0772038" lon="152.5893084">
<ele>136.156</ele>
<time>2016-01-16T01:25:07.927Z</time>
</trkpt>
<trkpt lat="-28.0777456" lon="152.5894636">
<ele>133.649</ele>
<time>2016-01-16T01:25:10.960Z</time>
</trkpt>
<trkpt lat="-28.0780926" lon="152.5894886">
<ele>132.161</ele>
<time>2016-01-16T01:25:12.781Z</time>
</trkpt>
<trkpt lat="-28.0784853" lon="152.5893678">
<ele>131.926</ele>
<time>2016-01-16T01:25:14.717Z</time>
</trkpt>
<trkpt lat="-28.0791312" lon="152.5892289">
<ele>132.925</ele>
<time>2016-01-16T01:25:17.752Z</time>
</trkpt>
<trkpt lat="-28.0795489" lon="152.5891302">
<ele>135.212</ele>
<time>2016-01-16T01:25:19.749Z</time>
</trkpt>
<trkpt lat="-28.0801618" lon="152.5890092">
<ele>138.007</ele>
<time>2016-01-16T01:25:22.689Z</time>
</trkpt>
<trkpt lat="-28.0807695" lon="152.5888773">
<ele>139.928</ele>
<time>2016-01-16T01:25:25.547Z</time>
</trkpt>
<trkpt lat="-28.0812160" lon="152.5887853">
<ele>140.966</ele>
<time>2016-01-16T01:25:27.509Z</time>
</trkpt>
<trkpt lat="-28.0816854" lon="152.5886833">
<ele>142.517</ele>
<time>2016-01-16T01:25:29.568Z</time>
</trkpt>
<trkpt lat="-28.0821160" lon="152.5885654">
<ele>144.881</ele>
<time>2016-01-16T01:25:31.612Z</time>
</trkpt>
<trkpt lat="-28.0827081" lon="152.5884110">
<ele>146.661</ele>
<time>2016-01-16T01:25:34.601Z</time>
</trkpt>
<trkpt lat="-28.0830770" lon="152.5882896">
<ele>146.577</ele>
<time>2016-01-16T01:25:36.596Z</time>
</trkpt>
<trkpt lat="-28.0835678" lon="152.5879842">
<ele>144.981</ele>
<time>2016-01-16T01:25:39.437Z</time>
</trkpt>
<trkpt lat="-28.0838938" lon="152.5876827">
<ele>143.338</ele>
<time>2016-01-16T01:25:41.446Z</time>
</trkpt>
<trkpt lat="-28.0843689" lon="152.5872124">
<ele>143.055</ele>
<time>2016-01-16T01:25:44.377Z</time>
</trkpt>
<trkpt lat="-28.0846932" lon="152.5868817">
<ele>144.485</ele>
<time>2016-01-16T01:25:46.352Z</time>
</trkpt>
<trkpt lat="-28.0850255" lon="152.5865699">
<ele>146.832</ele>
<time>2016-01-16T01:25:48.309Z</time>
</trkpt>
<trkpt lat="-28.0853421" lon="152.5862183">
<ele>148.850</ele>
<time>2016-01-16T01:25:50.412Z</time>
</trkpt>
<trkpt lat="-28.0857978" lon="152.5858229">
<ele>149.802</ele>
<time>2016-01-16T01:25:53.251Z</time>
</trkpt>
<trkpt lat="-28.0862709" lon="152.5854432">
<ele>149.470</ele>
<time>2016-01-16T01:25:56.165Z</time>
</trkpt>
<trkpt lat="-28.0867772" lon="152.5850438">
<ele>148.167</ele>
<time>2016-01-16T01:25:59.209Z</time>
</trkpt>
<trkpt lat="-28.0872768" lon="152.5847012">
<ele>146.282</ele>
<time>2016-01-16T01:26:02.108Z</time>
</trkpt>
<trkpt lat="-28.0877874" lon="152.5843417">
<ele>144.302</ele>
<time>2016-01-16T01:26:05.106Z</time>
</trkpt>
<trkpt lat="-28.0882804" lon="152.5839816">
<ele>143.127</ele>
<time>2016-01-16T01:26:07.988Z</time>
</trkpt>
<trkpt lat="-28.0888116" lon="152.5836105">
<ele>143.531</ele>
<time>2016-01-16T01:26:10.991Z</time>
</trkpt>
<trkpt lat="-28.0893384" lon="152.5832316">
<ele>145.985</ele>
<time>2016-01-16T01:26:13.982Z</time>
</trkpt>
<trkpt lat="-28.0898555" lon="152.5829114">
<ele>149.868</ele>
<time>2016-01-16T01:26:16.851Z</time>
</trkpt>
<trkpt lat="-28.0902507" lon="152.5827382">
<ele>153.544</ele>
<time>2016-01-16T01:26:18.825Z</time>
</trkpt>
<trkpt lat="-28.0907029" lon="152.5825429">
<ele>156.432</ele>
<time>2016-01-16T01:26:20.930Z</time>
</trkpt>
<trkpt lat="-28.0913574" lon="152.5822729">
<ele>158.701</ele>
<time>2016-01-16T01:26:23.895Z</time>
</trkpt>
<trkpt lat="-28.0919840" lon="152.5820220">
<ele>159.971</ele>
<time>2016-01-16T01:26:26.739Z</time>
</trkpt>
<trkpt lat="-28.0924225" lon="152.5818329">
<ele>160.913</ele>
<time>2016-01-16T01:26:28.727Z</time>
</trkpt>
<trkpt lat="-28.0930999" lon="152.5815446">
<ele>162.435</ele>
<time>2016-01-16T01:26:31.738Z</time>
</trkpt>
<trkpt lat="-28.0935688" lon="152.5813494">
<ele>163.623</ele>
<time>2016-01-16T01:26:33.775Z</time>
</trkpt>
<trkpt lat="-28.0942387" lon="152.5810499">
<ele>163.427</ele>
<time>2016-01-16T01:26:36.721Z</time>
</trkpt>
<trkpt lat="-28.0948978" lon="152.5807801">
<ele>161.899</ele>
<time>2016-01-16T01:26:39.663Z</time>
</trkpt>
<trkpt lat="-28.0953268" lon="152.5806206">
<ele>159.612</ele>
<time>2016-01-16T01:26:41.601Z</time>
</trkpt>
<trkpt lat="-28.0959601" lon="152.5803314">
<ele>157.713</ele>
<time>2016-01-16T01:26:44.552Z</time>
</trkpt>
<trkpt lat="-28.0963866" lon="152.5801505">
<ele>156.958</ele>
<time>2016-01-16T01:26:46.535Z</time>
</trkpt>
<trkpt lat="-28.0970057" lon="152.5798881">
<ele>156.930</ele>
<time>2016-01-16T01:26:49.487Z</time>
</trkpt>
<trkpt lat="-28.0974001" lon="152.5797497">
<ele>157.109</ele>
<time>2016-01-16T01:26:51.423Z</time>
</trkpt>
<trkpt lat="-28.0977740" lon="152.5796136">
<ele>157.243</ele>
<time>2016-01-16T01:26:53.343Z</time>
</trkpt>
<trkpt lat="-28.0983324" lon="152.5793975">
<ele>157.298</ele>
<time>2016-01-16T01:26:56.304Z</time>
</trkpt>
<trkpt lat="-28.0988110" lon="152.5791646">
<ele>157.326</ele>
<time>2016-01-16T01:26:59.157Z</time>
</trkpt>
<trkpt lat="-28.0990220" lon="152.5789603">
<ele>157.402</ele>
<time>2016-01-16T01:27:00.965Z</time>
</trkpt>
<trkpt lat="-28.0991992" lon="152.5786385">
<ele>157.526</ele>
<time>2016-01-16T01:27:03.193Z</time>
</trkpt>
<trkpt lat="-28.0994068" lon="152.5781778">
<ele>158.684</ele>
<time>2016-01-16T01:27:06.124Z</time>
</trkpt>
<trkpt lat="-28.0995433" lon="152.5778664">
<ele>161.513</ele>
<time>2016-01-16T01:27:08.157Z</time>
</trkpt>
<trkpt lat="-28.0996861" lon="152.5775986">
<ele>164.469</ele>
<time>2016-01-16T01:27:10.096Z</time>
</trkpt>
<trkpt lat="-28.0998686" lon="152.5774253">
<ele>165.537</ele>
<time>2016-01-16T01:27:11.912Z</time>
</trkpt>
<trkpt lat="-28.1002460" lon="152.5772018">
<ele>163.716</ele>
<time>2016-01-16T01:27:15.048Z</time>
</trkpt>
<trkpt lat="-28.1006133" lon="152.5772528">
<ele>159.610</ele>
<time>2016-01-16T01:27:17.416Z</time>
</trkpt>
<trkpt lat="-28.1009465" lon="152.5772488">
<ele>155.766</ele>
<time>2016-01-16T01:27:19.460Z</time>
</trkpt>
<trkpt lat="-28.1012703" lon="152.5771799">
<ele>153.855</ele>
<time>2016-01-16T01:27:21.526Z</time>
</trkpt>
<trkpt lat="-28.1016881" lon="152.5769311">
<ele>153.435</ele>
<time>2016-01-16T01:27:24.516Z</time>
</trkpt>
<trkpt lat="-28.1020033" lon="152.5764934">
<ele>153.770</ele>
<time>2016-01-16T01:27:27.510Z</time>
</trkpt>
<trkpt lat="-28.1023094" lon="152.5760022">
<ele>154.573</ele>
<time>2016-01-16T01:27:30.456Z</time>
</trkpt>
<trkpt lat="-28.1026200" lon="152.5754856">
<ele>155.958</ele>
<time>2016-01-16T01:27:33.391Z</time>
</trkpt>
<trkpt lat="-28.1028450" lon="152.5751740">
<ele>157.922</ele>
<time>2016-01-16T01:27:35.234Z</time>
</trkpt>
<trkpt lat="-28.1030736" lon="152.5748051">
<ele>159.794</ele>
<time>2016-01-16T01:27:37.302Z</time>
</trkpt>
<trkpt lat="-28.1032830" lon="152.5745220">
<ele>160.779</ele>
<time>2016-01-16T01:27:39.084Z</time>
</trkpt>
<trkpt lat="-28.1035919" lon="152.5741685">
<ele>160.608</ele>
<time>2016-01-16T01:27:41.751Z</time>
</trkpt>
<trkpt lat="-28.1039064" lon="152.5740078">
<ele>159.645</ele>
<time>2016-01-16T01:27:43.882Z</time>
</trkpt>
<trkpt lat="-28.1044316" lon="152.5737783">
<ele>159.190</ele>
<time>2016-01-16T01:27:47.080Z</time>
</trkpt>
<trkpt lat="-28.1049457" lon="152.5737169">
<ele>160.252</ele>
<time>2016-01-16T01:27:49.991Z</time>
</trkpt>
<trkpt lat="-28.1052669" lon="152.5736941">
<ele>162.089</ele>
<time>2016-01-16T01:27:51.903Z</time>
</trkpt>
<trkpt lat="-28.1055483" lon="152.5737222">
<ele>163.200</ele>
<time>2016-01-16T01:27:53.672Z</time>
</trkpt>
<trkpt lat="-28.1060225" lon="152.5738271">
<ele>163.152</ele>
<time>2016-01-16T01:27:56.723Z</time>
</trkpt>
<trkpt lat="-28.1063936" lon="152.5739423">
<ele>163.530</ele>
<time>2016-01-16T01:27:58.992Z</time>
</trkpt>
<trkpt lat="-28.1071306" lon="152.5742508">
<ele>166.142</ele>
<time>2016-01-16T01:28:03.226Z</time>
</trkpt>
<trkpt lat="-28.1075984" lon="152.5744356">
<ele>171.112</ele>
<time>2016-01-16T01:28:05.850Z</time>
</trkpt>
<trkpt lat="-28.1079946" lon="152.5746606">
<ele>177.046</ele>
<time>2016-01-16T01:28:08.560Z</time>
</trkpt>
<trkpt lat="-28.1083338" lon="152.5751517">
<ele>182.481</ele>
<time>2016-01-16T01:28:12.097Z</time>
</trkpt>
<trkpt lat="-28.1084255" lon="152.5755596">
<ele>187.595</ele>
<time>2016-01-16T01:28:14.346Z</time>
</trkpt>
<trkpt lat="-28.1087270" lon="152.5759939">
<ele>193.277</ele>
<time>2016-01-16T01:28:17.258Z</time>
</trkpt>
<trkpt lat="-28.1089346" lon="152.5762695">
<ele>198.528</ele>
<time>2016-01-16T01:28:19.219Z</time>
</trkpt>
<trkpt lat="-28.1091624" lon="152.5764948">
<ele>201.760</ele>
<time>2016-01-16T01:28:21.129Z</time>
</trkpt>
<trkpt lat="-28.1094427" lon="152.5766949">
<ele>202.606</ele>
<time>2016-01-16T01:28:23.159Z</time>
</trkpt>
<trkpt lat="-28.1099936" lon="152.5769719">
<ele>201.796</ele>
<time>2016-01-16T01:28:26.370Z</time>
</trkpt>
<trkpt lat="-28.1105655" lon="152.5772496">
<ele>200.544</ele>
<time>2016-01-16T01:28:29.399Z</time>
</trkpt>
<trkpt lat="-28.1110767" lon="152.5775229">
<ele>200.149</ele>
<time>2016-01-16T01:28:32.266Z</time>
</trkpt>
<trkpt lat="-28.1113642" lon="152.5776761">
<ele>201.501</ele>
<time>2016-01-16T01:28:34.053Z</time>
</trkpt>
<trkpt lat="-28.1116637" lon="152.5780823">
<ele>204.106</ele>
<time>2016-01-16T01:28:36.929Z</time>
</trkpt>
<trkpt lat="-28.1118466" lon="152.5784252">
<ele>206.996</ele>
<time>2016-01-16T01:28:39.042Z</time>
</trkpt>
<trkpt lat="-28.1120688" lon="152.5787675">
<ele>210.294</ele>
<time>2016-01-16T01:28:41.118Z</time>
</trkpt>
<trkpt lat="-28.1123577" lon="152.5792385">
<ele>213.713</ele>
<time>2016-01-16T01:28:43.925Z</time>
</trkpt>
<trkpt lat="-28.1125404" lon="152.5795599">
<ele>215.773</ele>
<time>2016-01-16T01:28:45.881Z</time>
</trkpt>
<trkpt lat="-28.1127379" lon="152.5798072">
<ele>215.611</ele>
<time>2016-01-16T01:28:47.700Z</time>
</trkpt>
<trkpt lat="-28.1131052" lon="152.5800284">
<ele>213.293</ele>
<time>2016-01-16T01:28:50.482Z</time>
</trkpt>
<trkpt lat="-28.1135225" lon="152.5801059">
<ele>209.944</ele>
<time>2016-01-16T01:28:53.127Z</time>
</trkpt>
<trkpt lat="-28.1140961" lon="152.5802512">
<ele>208.076</ele>
<time>2016-01-16T01:28:56.181Z</time>
</trkpt>
<trkpt lat="-28.1145008" lon="152.5804425">
<ele>209.607</ele>
<time>2016-01-16T01:28:58.322Z</time>
</trkpt>
<trkpt lat="-28.1150800" lon="152.5807086">
<ele>214.412</ele>
<time>2016-01-16T01:29:01.387Z</time>
</trkpt>
<trkpt lat="-28.1154368" lon="152.5808945">
<ele>221.665</ele>
<time>2016-01-16T01:29:03.400Z</time>
</trkpt>
<trkpt lat="-28.1157567" lon="152.5810463">
<ele>230.093</ele>
<time>2016-01-16T01:29:05.298Z</time>
</trkpt>
<trkpt lat="-28.1162291" lon="152.5812395">
<ele>237.143</ele>
<time>2016-01-16T01:29:08.189Z</time>
</trkpt>
<trkpt lat="-28.1166064" lon="152.5815151">
<ele>239.645</ele>
<time>2016-01-16T01:29:10.953Z</time>
</trkpt>
<trkpt lat="-28.1168549" lon="152.5820248">
<ele>237.366</ele>
<time>2016-01-16T01:29:13.850Z</time>
</trkpt>
<trkpt lat="-28.1172024" lon="152.5825890">
<ele>233.825</ele>
<time>2016-01-16T01:29:16.888Z</time>
</trkpt>
<trkpt lat="-28.1174287" lon="152.5829731">
<ele>232.045</ele>
<time>2016-01-16T01:29:18.897Z</time>
</trkpt>
<trkpt lat="-28.1176387" lon="152.5832935">
<ele>232.029</ele>
<time>2016-01-16T01:29:20.698Z</time>
</trkpt>
<trkpt lat="-28.1179541" lon="152.5837969">
<ele>232.474</ele>
<time>2016-01-16T01:29:23.530Z</time>
</trkpt>
<trkpt lat="-28.1183055" lon="152.5843383">
<ele>232.351</ele>
<time>2016-01-16T01:29:26.525Z</time>
</trkpt>
<trkpt lat="-28.1185487" lon="152.5847192">
<ele>231.321</ele>
<time>2016-01-16T01:29:28.532Z</time>
</trkpt>
<trkpt lat="-28.1187949" lon="152.5851016">
<ele>229.203</ele>
<time>2016-01-16T01:29:30.515Z</time>
</trkpt>
<trkpt lat="-28.1190302" lon="152.5854841">
<ele>225.813</ele>
<time>2016-01-16T01:29:32.479Z</time>
</trkpt>
<trkpt lat="-28.1193958" lon="152.5859753">
<ele>221.443</ele>
<time>2016-01-16T01:29:35.261Z</time>
</trkpt>
<trkpt lat="-28.1197112" lon="152.5862199">
<ele>216.880</ele>
<time>2016-01-16T01:29:37.207Z</time>
</trkpt>
<trkpt lat="-28.1202158" lon="152.5864893">
<ele>213.113</ele>
<time>2016-01-16T01:29:40.127Z</time>
</trkpt>
<trkpt lat="-28.1205487" lon="152.5866375">
<ele>210.862</ele>
<time>2016-01-16T01:29:42.048Z</time>
</trkpt>
<trkpt lat="-28.1210989" lon="152.5867641">
<ele>209.541</ele>
<time>2016-01-16T01:29:45.051Z</time>
</trkpt>
<trkpt lat="-28.1215223" lon="152.5868756">
<ele>206.584</ele>
<time>2016-01-16T01:29:47.290Z</time>
</trkpt>
<trkpt lat="-28.1220904" lon="152.5865617">
<ele>200.567</ele>
<time>2016-01-16T01:29:50.439Z</time>
</trkpt>
<trkpt lat="-28.1226179" lon="152.5861923">
<ele>192.446</ele>
<time>2016-01-16T01:29:53.468Z</time>
</trkpt>
<trkpt lat="-28.1231508" lon="152.5858331">
<ele>183.709</ele>
<time>2016-01-16T01:29:56.474Z</time>
</trkpt>
<trkpt lat="-28.1235163" lon="152.5856597">
<ele>175.965</ele>
<time>2016-01-16T01:29:58.393Z</time>
</trkpt>
<trkpt lat="-28.1241381" lon="152.5855255">
<ele>170.900</ele>
<time>2016-01-16T01:30:01.361Z</time>
</trkpt>
<trkpt lat="-28.1245804" lon="152.5854653">
<ele>168.956</ele>
<time>2016-01-16T01:30:03.359Z</time>
</trkpt>
<trkpt lat="-28.1250297" lon="152.5853770">
<ele>169.214</ele>
<time>2016-01-16T01:30:05.410Z</time>
</trkpt>
<trkpt lat="-28.1254486" lon="152.5852979">
<ele>170.112</ele>
<time>2016-01-16T01:30:07.351Z</time>
</trkpt>
<trkpt lat="-28.1260715" lon="152.5851831">
<ele>170.662</ele>
<time>2016-01-16T01:30:10.254Z</time>
</trkpt>
<trkpt lat="-28.1267165" lon="152.5850860">
<ele>170.073</ele>
<time>2016-01-16T01:30:13.272Z</time>
</trkpt>
<trkpt lat="-28.1273354" lon="152.5849777">
<ele>167.845</ele>
<time>2016-01-16T01:30:16.193Z</time>
</trkpt>
<trkpt lat="-28.1280108" lon="152.5848537">
<ele>164.901</ele>
<time>2016-01-16T01:30:19.284Z</time>
</trkpt>
<trkpt lat="-28.1286557" lon="152.5847579">
<ele>162.708</ele>
<time>2016-01-16T01:30:22.203Z</time>
</trkpt>
<trkpt lat="-28.1292614" lon="152.5846491">
<ele>161.224</ele>
<time>2016-01-16T01:30:25.112Z</time>
</trkpt>
<trkpt lat="-28.1296488" lon="152.5845841">
<ele>159.389</ele>
<time>2016-01-16T01:30:27.048Z</time>
</trkpt>
<trkpt lat="-28.1300471" lon="152.5845165">
<ele>157.179</ele>
<time>2016-01-16T01:30:29.034Z</time>
</trkpt>
<trkpt lat="-28.1306863" lon="152.5844073">
<ele>155.758</ele>
<time>2016-01-16T01:30:32.076Z</time>
</trkpt>
<trkpt lat="-28.1311310" lon="152.5843261">
<ele>155.765</ele>
<time>2016-01-16T01:30:34.096Z</time>
</trkpt>
<trkpt lat="-28.1315756" lon="152.5842576">
<ele>156.639</ele>
<time>2016-01-16T01:30:36.082Z</time>
</trkpt>
<trkpt lat="-28.1320151" lon="152.5841835">
<ele>157.499</ele>
<time>2016-01-16T01:30:38.048Z</time>
</trkpt>
<trkpt lat="-28.1324634" lon="152.5841107">
<ele>157.974</ele>
<time>2016-01-16T01:30:40.037Z</time>
</trkpt>
<trkpt lat="-28.1329108" lon="152.5840375">
<ele>158.146</ele>
<time>2016-01-16T01:30:42.013Z</time>
</trkpt>
<trkpt lat="-28.1335616" lon="152.5839297">
<ele>158.063</ele>
<time>2016-01-16T01:30:44.936Z</time>
</trkpt>
<trkpt lat="-28.1339928" lon="152.5838626">
<ele>157.671</ele>
<time>2016-01-16T01:30:46.903Z</time>
</trkpt>
<trkpt lat="-28.1344317" lon="152.5837886">
<ele>157.104</ele>
<time>2016-01-16T01:30:48.905Z</time>
</trkpt>
<trkpt lat="-28.1350697" lon="152.5836778">
<ele>156.718</ele>
<time>2016-01-16T01:30:51.835Z</time>
</trkpt>
<trkpt lat="-28.1356323" lon="152.5835934">
<ele>156.661</ele>
<time>2016-01-16T01:30:54.606Z</time>
</trkpt>
<trkpt lat="-28.1359432" lon="152.5835390">
<ele>156.277</ele>
<time>2016-01-16T01:30:56.312Z</time>
</trkpt>
<trkpt lat="-28.1363190" lon="152.5834775">
<ele>154.567</ele>
<time>2016-01-16T01:30:58.738Z</time>
</trkpt>
<trkpt lat="-28.1365270" lon="152.5834417">
<ele>151.410</ele>
<time>2016-01-16T01:31:00.200Z</time>
</trkpt>
<trkpt lat="-28.1368033" lon="152.5833984">
<ele>148.052</ele>
<time>2016-01-16T01:31:02.605Z</time>
</trkpt>
<trkpt lat="-28.1370156" lon="152.5833565">
<ele>145.917</ele>
<time>2016-01-16T01:31:04.693Z</time>
</trkpt>
<trkpt lat="-28.1371455" lon="152.5833366">
<ele>145.233</ele>
<time>2016-01-16T01:31:06.196Z</time>
</trkpt>
<trkpt lat="-28.1372283" lon="152.5832360">
<ele>145.262</ele>
<time>2016-01-16T01:31:07.657Z</time>
</trkpt>
<trkpt lat="-28.1371552" lon="152.5829371">
<ele>145.662</ele>
<time>2016-01-16T01:31:12.506Z</time>
</trkpt>
<trkpt lat="-28.1370950" lon="152.5824942">
<ele>146.693</ele>
<time>2016-01-16T01:31:18.604Z</time>
</trkpt>
<trkpt lat="-28.1370875" lon="152.5821321">
<ele>148.661</ele>
<time>2016-01-16T01:31:21.281Z</time>
</trkpt>
<trkpt lat="-28.1371667" lon="152.5815118">
<ele>151.550</ele>
<time>2016-01-16T01:31:24.732Z</time>
</trkpt>
<trkpt lat="-28.1372428" lon="152.5810506">
<ele>155.077</ele>
<time>2016-01-16T01:31:27.094Z</time>
</trkpt>
<trkpt lat="-28.1373838" lon="152.5802553">
<ele>158.633</ele>
<time>2016-01-16T01:31:30.760Z</time>
</trkpt>
<trkpt lat="-28.1375563" lon="152.5793550">
<ele>162.488</ele>
<time>2016-01-16T01:31:34.368Z</time>
</trkpt>
<trkpt lat="-28.1376918" lon="152.5785018">
<ele>166.821</ele>
<time>2016-01-16T01:31:37.474Z</time>
</trkpt>
<trkpt lat="-28.1377963" lon="152.5779593">
<ele>169.983</ele>
<time>2016-01-16T01:31:39.454Z</time>
</trkpt>
<trkpt lat="-28.1379814" lon="152.5771590">
<ele>170.788</ele>
<time>2016-01-16T01:31:42.455Z</time>
</trkpt>
<trkpt lat="-28.1381253" lon="152.5766396">
<ele>170.382</ele>
<time>2016-01-16T01:31:44.437Z</time>
</trkpt>
<trkpt lat="-28.1383185" lon="152.5758813">
<ele>169.994</ele>
<time>2016-01-16T01:31:47.300Z</time>
</trkpt>
<trkpt lat="-28.1384416" lon="152.5753714">
<ele>169.932</ele>
<time>2016-01-16T01:31:49.206Z</time>
</trkpt>
<trkpt lat="-28.1386714" lon="152.5745997">
<ele>170.140</ele>
<time>2016-01-16T01:31:52.118Z</time>
</trkpt>
<trkpt lat="-28.1388889" lon="152.5737750">
<ele>170.507</ele>
<time>2016-01-16T01:31:55.145Z</time>
</trkpt>
<trkpt lat="-28.1390356" lon="152.5732598">
<ele>171.066</ele>
<time>2016-01-16T01:31:57.072Z</time>
</trkpt>
<trkpt lat="-28.1392559" lon="152.5725655">
<ele>171.846</ele>
<time>2016-01-16T01:31:59.843Z</time>
</trkpt>
<trkpt lat="-28.1394741" lon="152.5721147">
<ele>172.053</ele>
<time>2016-01-16T01:32:01.833Z</time>
</trkpt>
<trkpt lat="-28.1399317" lon="152.5714953">
<ele>171.114</ele>
<time>2016-01-16T01:32:04.904Z</time>
</trkpt>
<trkpt lat="-28.1403088" lon="152.5711579">
<ele>170.524</ele>
<time>2016-01-16T01:32:06.921Z</time>
</trkpt>
<trkpt lat="-28.1409326" lon="152.5707123">
<ele>171.558</ele>
<time>2016-01-16T01:32:09.950Z</time>
</trkpt>
<trkpt lat="-28.1415787" lon="152.5703080">
<ele>173.238</ele>
<time>2016-01-16T01:32:12.952Z</time>
</trkpt>
<trkpt lat="-28.1421640" lon="152.5698606">
<ele>174.330</ele>
<time>2016-01-16T01:32:15.909Z</time>
</trkpt>
<trkpt lat="-28.1425009" lon="152.5695234">
<ele>174.644</ele>
<time>2016-01-16T01:32:17.847Z</time>
</trkpt>
<trkpt lat="-28.1429590" lon="152.5689056">
<ele>174.414</ele>
<time>2016-01-16T01:32:20.835Z</time>
</trkpt>
<trkpt lat="-28.1433905" lon="152.5682453">
<ele>174.371</ele>
<time>2016-01-16T01:32:23.777Z</time>
</trkpt>
<trkpt lat="-28.1436771" lon="152.5678259">
<ele>174.969</ele>
<time>2016-01-16T01:32:25.687Z</time>
</trkpt>
<trkpt lat="-28.1440877" lon="152.5672094">
<ele>175.637</ele>
<time>2016-01-16T01:32:28.579Z</time>
</trkpt>
<trkpt lat="-28.1443541" lon="152.5667961">
<ele>175.771</ele>
<time>2016-01-16T01:32:30.557Z</time>
</trkpt>
<trkpt lat="-28.1446204" lon="152.5664083">
<ele>175.557</ele>
<time>2016-01-16T01:32:32.491Z</time>
</trkpt>
<trkpt lat="-28.1448832" lon="152.5660263">
<ele>175.257</ele>
<time>2016-01-16T01:32:34.425Z</time>
</trkpt>
<trkpt lat="-28.1452041" lon="152.5656608">
<ele>174.933</ele>
<time>2016-01-16T01:32:36.482Z</time>
</trkpt>
<trkpt lat="-28.1457184" lon="152.5651449">
<ele>174.890</ele>
<time>2016-01-16T01:32:39.516Z</time>
</trkpt>
<trkpt lat="-28.1463177" lon="152.5646026">
<ele>176.130</ele>
<time>2016-01-16T01:32:42.711Z</time>
</trkpt>
<trkpt lat="-28.1467044" lon="152.5642413">
<ele>179.603</ele>
<time>2016-01-16T01:32:44.706Z</time>
</trkpt>
<trkpt lat="-28.1472422" lon="152.5637577">
<ele>184.206</ele>
<time>2016-01-16T01:32:47.487Z</time>
</trkpt>
<trkpt lat="-28.1475957" lon="152.5634425">
<ele>187.355</ele>
<time>2016-01-16T01:32:49.374Z</time>
</trkpt>
<trkpt lat="-28.1479399" lon="152.5630841">
<ele>188.133</ele>
<time>2016-01-16T01:32:51.396Z</time>
</trkpt>
<trkpt lat="-28.1482855" lon="152.5627881">
<ele>187.856</ele>
<time>2016-01-16T01:32:53.304Z</time>
</trkpt>
<trkpt lat="-28.1486588" lon="152.5625093">
<ele>187.857</ele>
<time>2016-01-16T01:32:55.285Z</time>
</trkpt>
<trkpt lat="-28.1492929" lon="152.5621066">
<ele>188.734</ele>
<time>2016-01-16T01:32:58.453Z</time>
</trkpt>
<trkpt lat="-28.1497095" lon="152.5618777">
<ele>190.317</ele>
<time>2016-01-16T01:33:00.400Z</time>
</trkpt>
<trkpt lat="-28.1503239" lon="152.5615557">
<ele>191.881</ele>
<time>2016-01-16T01:33:03.283Z</time>
</trkpt>
<trkpt lat="-28.1507244" lon="152.5613756">
<ele>193.582</ele>
<time>2016-01-16T01:33:05.168Z</time>
</trkpt>
<trkpt lat="-28.1511570" lon="152.5612174">
<ele>195.945</ele>
<time>2016-01-16T01:33:07.190Z</time>
</trkpt>
<trkpt lat="-28.1516266" lon="152.5611390">
<ele>198.924</ele>
<time>2016-01-16T01:33:09.276Z</time>
</trkpt>
<trkpt lat="-28.1522672" lon="152.5610281">
<ele>202.686</ele>
<time>2016-01-16T01:33:12.121Z</time>
</trkpt>
<trkpt lat="-28.1528621" lon="152.5608503">
<ele>206.788</ele>
<time>2016-01-16T01:33:14.909Z</time>
</trkpt>
<trkpt lat="-28.1532655" lon="152.5606347">
<ele>209.828</ele>
<time>2016-01-16T01:33:16.954Z</time>
</trkpt>
<trkpt lat="-28.1536596" lon="152.5604113">
<ele>211.227</ele>
<time>2016-01-16T01:33:18.956Z</time>
</trkpt>
<trkpt lat="-28.1540299" lon="152.5601854">
<ele>210.524</ele>
<time>2016-01-16T01:33:20.868Z</time>
</trkpt>
<trkpt lat="-28.1543849" lon="152.5599659">
<ele>207.601</ele>
<time>2016-01-16T01:33:22.735Z</time>
</trkpt>
<trkpt lat="-28.1549552" lon="152.5596265">
<ele>203.032</ele>
<time>2016-01-16T01:33:25.730Z</time>
</trkpt>
<trkpt lat="-28.1553572" lon="152.5594402">
<ele>198.034</ele>
<time>2016-01-16T01:33:27.731Z</time>
</trkpt>
<trkpt lat="-28.1559880" lon="152.5591960">
<ele>194.345</ele>
<time>2016-01-16T01:33:30.753Z</time>
</trkpt>
<trkpt lat="-28.1563902" lon="152.5590432">
<ele>192.630</ele>
<time>2016-01-16T01:33:32.672Z</time>
</trkpt>
<trkpt lat="-28.1567800" lon="152.5588943">
<ele>191.866</ele>
<time>2016-01-16T01:33:34.556Z</time>
</trkpt>
<trkpt lat="-28.1571638" lon="152.5586820">
<ele>191.425</ele>
<time>2016-01-16T01:33:36.557Z</time>
</trkpt>
<trkpt lat="-28.1577119" lon="152.5583787">
<ele>190.810</ele>
<time>2016-01-16T01:33:39.446Z</time>
</trkpt>
<trkpt lat="-28.1582261" lon="152.5578302">
<ele>189.758</ele>
<time>2016-01-16T01:33:42.763Z</time>
</trkpt>
<trkpt lat="-28.1585494" lon="152.5574533">
<ele>189.580</ele>
<time>2016-01-16T01:33:44.869Z</time>
</trkpt>
<trkpt lat="-28.1588712" lon="152.5570816">
<ele>191.237</ele>
<time>2016-01-16T01:33:46.860Z</time>
</trkpt>
<trkpt lat="-28.1593666" lon="152.5565672">
<ele>193.344</ele>
<time>2016-01-16T01:33:49.733Z</time>
</trkpt>
<trkpt lat="-28.1598320" lon="152.5560166">
<ele>194.458</ele>
<time>2016-01-16T01:33:52.642Z</time>
</trkpt>
<trkpt lat="-28.1601409" lon="152.5556423">
<ele>194.770</ele>
<time>2016-01-16T01:33:54.611Z</time>
</trkpt>
<trkpt lat="-28.1605989" lon="152.5550603">
<ele>194.814</ele>
<time>2016-01-16T01:33:57.604Z</time>
</trkpt>
<trkpt lat="-28.1608745" lon="152.5545991">
<ele>194.906</ele>
<time>2016-01-16T01:33:59.713Z</time>
</trkpt>
<trkpt lat="-28.1612602" lon="152.5538933">
<ele>195.245</ele>
<time>2016-01-16T01:34:02.740Z</time>
</trkpt>
<trkpt lat="-28.1615377" lon="152.5533973">
<ele>195.799</ele>
<time>2016-01-16T01:34:04.844Z</time>
</trkpt>
<trkpt lat="-28.1619253" lon="152.5527575">
<ele>196.326</ele>
<time>2016-01-16T01:34:07.627Z</time>
</trkpt>
<trkpt lat="-28.1621700" lon="152.5523167">
<ele>196.684</ele>
<time>2016-01-16T01:34:09.520Z</time>
</trkpt>
<trkpt lat="-28.1625681" lon="152.5516781">
<ele>196.858</ele>
<time>2016-01-16T01:34:12.424Z</time>
</trkpt>
<trkpt lat="-28.1628774" lon="152.5512991">
<ele>197.052</ele>
<time>2016-01-16T01:34:14.348Z</time>
</trkpt>
<trkpt lat="-28.1634244" lon="152.5507811">
<ele>197.759</ele>
<time>2016-01-16T01:34:17.347Z</time>
</trkpt>
<trkpt lat="-28.1638366" lon="152.5504446">
<ele>198.968</ele>
<time>2016-01-16T01:34:19.449Z</time>
</trkpt>
<trkpt lat="-28.1644637" lon="152.5499326">
<ele>200.106</ele>
<time>2016-01-16T01:34:22.508Z</time>
</trkpt>
<trkpt lat="-28.1650600" lon="152.5494283">
<ele>201.250</ele>
<time>2016-01-16T01:34:25.434Z</time>
</trkpt>
<trkpt lat="-28.1656589" lon="152.5489811">
<ele>202.622</ele>
<time>2016-01-16T01:34:28.298Z</time>
</trkpt>
<trkpt lat="-28.1662909" lon="152.5486498">
<ele>203.923</ele>
<time>2016-01-16T01:34:31.158Z</time>
</trkpt>
<trkpt lat="-28.1667256" lon="152.5485240">
<ele>205.722</ele>
<time>2016-01-16T01:34:33.046Z</time>
</trkpt>
<trkpt lat="-28.1674084" lon="152.5484385">
<ele>208.665</ele>
<time>2016-01-16T01:34:36.045Z</time>
</trkpt>
<trkpt lat="-28.1680873" lon="152.5484402">
<ele>212.345</ele>
<time>2016-01-16T01:34:39.004Z</time>
</trkpt>
<trkpt lat="-28.1684982" lon="152.5484375">
<ele>216.060</ele>
<time>2016-01-16T01:34:40.794Z</time>
</trkpt>
<trkpt lat="-28.1688930" lon="152.5484348">
<ele>218.913</ele>
<time>2016-01-16T01:34:42.588Z</time>
</trkpt>
<trkpt lat="-28.1692921" lon="152.5484454">
<ele>220.223</ele>
<time>2016-01-16T01:34:44.482Z</time>
</trkpt>
<trkpt lat="-28.1696955" lon="152.5484436">
<ele>220.508</ele>
<time>2016-01-16T01:34:46.457Z</time>
</trkpt>
<trkpt lat="-28.1703313" lon="152.5484527">
<ele>220.603</ele>
<time>2016-01-16T01:34:49.580Z</time>
</trkpt>
<trkpt lat="-28.1709917" lon="152.5484543">
<ele>221.391</ele>
<time>2016-01-16T01:34:52.696Z</time>
</trkpt>
<trkpt lat="-28.1714327" lon="152.5484493">
<ele>223.870</ele>
<time>2016-01-16T01:34:54.706Z</time>
</trkpt>
<trkpt lat="-28.1720581" lon="152.5483694">
<ele>227.654</ele>
<time>2016-01-16T01:34:57.551Z</time>
</trkpt>
<trkpt lat="-28.1726685" lon="152.5481364">
<ele>230.957</ele>
<time>2016-01-16T01:35:00.511Z</time>
</trkpt>
<trkpt lat="-28.1732263" lon="152.5477741">
<ele>232.862</ele>
<time>2016-01-16T01:35:03.496Z</time>
</trkpt>
<trkpt lat="-28.1735502" lon="152.5474882">
<ele>234.116</ele>
<time>2016-01-16T01:35:05.398Z</time>
</trkpt>
<trkpt lat="-28.1738553" lon="152.5471006">
<ele>235.622</ele>
<time>2016-01-16T01:35:07.517Z</time>
</trkpt>
<trkpt lat="-28.1742390" lon="152.5464723">
<ele>237.729</ele>
<time>2016-01-16T01:35:10.567Z</time>
</trkpt>
<trkpt lat="-28.1744684" lon="152.5460003">
<ele>240.540</ele>
<time>2016-01-16T01:35:12.645Z</time>
</trkpt>
<trkpt lat="-28.1747427" lon="152.5453331">
<ele>243.818</ele>
<time>2016-01-16T01:35:15.412Z</time>
</trkpt>
<trkpt lat="-28.1749296" lon="152.5448862">
<ele>246.683</ele>
<time>2016-01-16T01:35:17.312Z</time>
</trkpt>
<trkpt lat="-28.1752234" lon="152.5442200">
<ele>248.779</ele>
<time>2016-01-16T01:35:20.276Z</time>
</trkpt>
<trkpt lat="-28.1755406" lon="152.5436040">
<ele>250.507</ele>
<time>2016-01-16T01:35:23.182Z</time>
</trkpt>
<trkpt lat="-28.1759291" lon="152.5430776">
<ele>252.146</ele>
<time>2016-01-16T01:35:26.056Z</time>
</trkpt>
<trkpt lat="-28.1764228" lon="152.5426722">
<ele>253.249</ele>
<time>2016-01-16T01:35:29.014Z</time>
</trkpt>
<trkpt lat="-28.1769877" lon="152.5423940">
<ele>253.018</ele>
<time>2016-01-16T01:35:32.032Z</time>
</trkpt>
<trkpt lat="-28.1773892" lon="152.5423030">
<ele>251.403</ele>
<time>2016-01-16T01:35:34.038Z</time>
</trkpt>
<trkpt lat="-28.1779884" lon="152.5422412">
<ele>249.124</ele>
<time>2016-01-16T01:35:36.984Z</time>
</trkpt>
<trkpt lat="-28.1786166" lon="152.5422800">
<ele>246.105</ele>
<time>2016-01-16T01:35:40.085Z</time>
</trkpt>
<trkpt lat="-28.1792230" lon="152.5424354">
<ele>242.511</ele>
<time>2016-01-16T01:35:43.123Z</time>
</trkpt>
<trkpt lat="-28.1796285" lon="152.5425701">
<ele>238.527</ele>
<time>2016-01-16T01:35:45.171Z</time>
</trkpt>
<trkpt lat="-28.1800019" lon="152.5426618">
<ele>233.387</ele>
<time>2016-01-16T01:35:47.024Z</time>
</trkpt>
<trkpt lat="-28.1803542" lon="152.5428678">
<ele>227.178</ele>
<time>2016-01-16T01:35:48.964Z</time>
</trkpt>
<trkpt lat="-28.1808625" lon="152.5432416">
<ele>221.795</ele>
<time>2016-01-16T01:35:52.006Z</time>
</trkpt>
<trkpt lat="-28.1811774" lon="152.5435285">
<ele>218.565</ele>
<time>2016-01-16T01:35:54.010Z</time>
</trkpt>
<trkpt lat="-28.1816194" lon="152.5439121">
<ele>217.295</ele>
<time>2016-01-16T01:35:56.749Z</time>
</trkpt>
<trkpt lat="-28.1818873" lon="152.5441619">
<ele>216.751</ele>
<time>2016-01-16T01:35:58.511Z</time>
</trkpt>
<trkpt lat="-28.1821203" lon="152.5444150">
<ele>215.718</ele>
<time>2016-01-16T01:36:00.170Z</time>
</trkpt>
<trkpt lat="-28.1823574" lon="152.5447937">
<ele>213.638</ele>
<time>2016-01-16T01:36:02.426Z</time>
</trkpt>
<trkpt lat="-28.1823955" lon="152.5451253">
<ele>210.960</ele>
<time>2016-01-16T01:36:04.165Z</time>
</trkpt>
<trkpt lat="-28.1824604" lon="152.5455088">
<ele>208.221</ele>
<time>2016-01-16T01:36:06.432Z</time>
</trkpt>
<trkpt lat="-28.1825122" lon="152.5457108">
<ele>205.462</ele>
<time>2016-01-16T01:36:07.740Z</time>
</trkpt>
<trkpt lat="-28.1825340" lon="152.5459007">
<ele>202.964</ele>
<time>2016-01-16T01:36:08.996Z</time>
</trkpt>
<trkpt lat="-28.1825620" lon="152.5460889">
<ele>201.396</ele>
<time>2016-01-16T01:36:10.361Z</time>
</trkpt>
<trkpt lat="-28.1825816" lon="152.5462094">
<ele>200.885</ele>
<time>2016-01-16T01:36:11.236Z</time>
</trkpt>
<trkpt lat="-28.1826994" lon="152.5463063">
<ele>200.959</ele>
<time>2016-01-16T01:36:12.468Z</time>
</trkpt>
<trkpt lat="-28.1829053" lon="152.5461698">
<ele>201.297</ele>
<time>2016-01-16T01:36:14.806Z</time>
</trkpt>
<trkpt lat="-28.1830926" lon="152.5460688">
<ele>202.089</ele>
<time>2016-01-16T01:36:17.264Z</time>
</trkpt>
<trkpt lat="-28.1834349" lon="152.5458373">
<ele>203.904</ele>
<time>2016-01-16T01:36:24.326Z</time>
</trkpt>
<trkpt lat="-28.1838459" lon="152.5455267">
<ele>206.559</ele>
<time>2016-01-16T01:36:30.186Z</time>
</trkpt>
<trkpt lat="-28.1841115" lon="152.5453250">
<ele>209.262</ele>
<time>2016-01-16T01:36:32.770Z</time>
</trkpt>
<trkpt lat="-28.1843490" lon="152.5450670">
<ele>211.541</ele>
<time>2016-01-16T01:36:35.042Z</time>
</trkpt>
<trkpt lat="-28.1846043" lon="152.5448379">
<ele>213.340</ele>
<time>2016-01-16T01:36:37.052Z</time>
</trkpt>
<trkpt lat="-28.1850017" lon="152.5445170">
<ele>214.637</ele>
<time>2016-01-16T01:36:40.054Z</time>
</trkpt>
<trkpt lat="-28.1854634" lon="152.5443653">
<ele>215.687</ele>
<time>2016-01-16T01:36:43.008Z</time>
</trkpt>
<trkpt lat="-28.1858731" lon="152.5444226">
<ele>216.997</ele>
<time>2016-01-16T01:36:45.534Z</time>
</trkpt>
<trkpt lat="-28.1862656" lon="152.5443961">
<ele>218.753</ele>
<time>2016-01-16T01:36:47.869Z</time>
</trkpt>
<trkpt lat="-28.1868791" lon="152.5444189">
<ele>220.509</ele>
<time>2016-01-16T01:36:51.116Z</time>
</trkpt>
<trkpt lat="-28.1875033" lon="152.5444360">
<ele>221.811</ele>
<time>2016-01-16T01:36:54.189Z</time>
</trkpt>
<trkpt lat="-28.1879227" lon="152.5444575">
<ele>223.031</ele>
<time>2016-01-16T01:36:56.201Z</time>
</trkpt>
<trkpt lat="-28.1885510" lon="152.5444670">
<ele>224.634</ele>
<time>2016-01-16T01:36:59.150Z</time>
</trkpt>
<trkpt lat="-28.1889637" lon="152.5444607">
<ele>226.057</ele>
<time>2016-01-16T01:37:01.099Z</time>
</trkpt>
<trkpt lat="-28.1895789" lon="152.5444682">
<ele>226.722</ele>
<time>2016-01-16T01:37:04.035Z</time>
</trkpt>
<trkpt lat="-28.1899868" lon="152.5444840">
<ele>227.193</ele>
<time>2016-01-16T01:37:05.994Z</time>
</trkpt>
<trkpt lat="-28.1903913" lon="152.5444929">
<ele>227.996</ele>
<time>2016-01-16T01:37:07.945Z</time>
</trkpt>
<trkpt lat="-28.1907738" lon="152.5444952">
<ele>228.870</ele>
<time>2016-01-16T01:37:09.807Z</time>
</trkpt>
<trkpt lat="-28.1911543" lon="152.5444909">
<ele>229.365</ele>
<time>2016-01-16T01:37:11.689Z</time>
</trkpt>
<trkpt lat="-28.1915329" lon="152.5444715">
<ele>229.298</ele>
<time>2016-01-16T01:37:13.610Z</time>
</trkpt>
<trkpt lat="-28.1921316" lon="152.5443079">
<ele>228.738</ele>
<time>2016-01-16T01:37:16.797Z</time>
</trkpt>
<trkpt lat="-28.1925499" lon="152.5441754">
<ele>228.122</ele>
<time>2016-01-16T01:37:18.954Z</time>
</trkpt>
<trkpt lat="-28.1931323" lon="152.5440052">
<ele>228.200</ele>
<time>2016-01-16T01:37:21.808Z</time>
</trkpt>
<trkpt lat="-28.1937102" lon="152.5438822">
<ele>229.165</ele>
<time>2016-01-16T01:37:24.567Z</time>
</trkpt>
<trkpt lat="-28.1942997" lon="152.5438879">
<ele>230.263</ele>
<time>2016-01-16T01:37:27.455Z</time>
</trkpt>
<trkpt lat="-28.1949459" lon="152.5439952">
<ele>231.328</ele>
<time>2016-01-16T01:37:30.716Z</time>
</trkpt>
<trkpt lat="-28.1955835" lon="152.5441771">
<ele>232.840</ele>
<time>2016-01-16T01:37:33.878Z</time>
</trkpt>
<trkpt lat="-28.1962056" lon="152.5443087">
<ele>234.319</ele>
<time>2016-01-16T01:37:36.793Z</time>
</trkpt>
<trkpt lat="-28.1966189" lon="152.5443658">
<ele>234.933</ele>
<time>2016-01-16T01:37:38.725Z</time>
</trkpt>
<trkpt lat="-28.1972226" lon="152.5443318">
<ele>234.716</ele>
<time>2016-01-16T01:37:41.580Z</time>
</trkpt>
<trkpt lat="-28.1978576" lon="152.5443236">
<ele>234.696</ele>
<time>2016-01-16T01:37:44.663Z</time>
</trkpt>
<trkpt lat="-28.1985045" lon="152.5442156">
<ele>235.923</ele>
<time>2016-01-16T01:37:47.786Z</time>
</trkpt>
<trkpt lat="-28.1991575" lon="152.5440469">
<ele>238.475</ele>
<time>2016-01-16T01:37:50.881Z</time>
</trkpt>
<trkpt lat="-28.1998394" lon="152.5439658">
<ele>241.858</ele>
<time>2016-01-16T01:37:53.962Z</time>
</trkpt>
<trkpt lat="-28.2003414" lon="152.5438669">
<ele>245.664</ele>
<time>2016-01-16T01:37:56.211Z</time>
</trkpt>
<trkpt lat="-28.2010089" lon="152.5438470">
<ele>249.107</ele>
<time>2016-01-16T01:37:59.125Z</time>
</trkpt>
<trkpt lat="-28.2016537" lon="152.5437994">
<ele>251.196</ele>
<time>2016-01-16T01:38:01.904Z</time>
</trkpt>
<trkpt lat="-28.2020668" lon="152.5436989">
<ele>251.641</ele>
<time>2016-01-16T01:38:03.770Z</time>
</trkpt>
<trkpt lat="-28.2026854" lon="152.5434327">
<ele>251.123</ele>
<time>2016-01-16T01:38:06.762Z</time>
</trkpt>
<trkpt lat="-28.2032665" lon="152.5431679">
<ele>250.751</ele>
<time>2016-01-16T01:38:09.624Z</time>
</trkpt>
<trkpt lat="-28.2036513" lon="152.5430155">
<ele>251.276</ele>
<time>2016-01-16T01:38:11.499Z</time>
</trkpt>
<trkpt lat="-28.2041983" lon="152.5428233">
<ele>252.329</ele>
<time>2016-01-16T01:38:14.177Z</time>
</trkpt>
<trkpt lat="-28.2045334" lon="152.5426967">
<ele>252.208</ele>
<time>2016-01-16T01:38:15.897Z</time>
</trkpt>
<trkpt lat="-28.2048553" lon="152.5425889">
<ele>249.924</ele>
<time>2016-01-16T01:38:17.565Z</time>
</trkpt>
<trkpt lat="-28.2052696" lon="152.5424380">
<ele>246.696</ele>
<time>2016-01-16T01:38:19.832Z</time>
</trkpt>
<trkpt lat="-28.2055284" lon="152.5423363">
<ele>243.823</ele>
<time>2016-01-16T01:38:21.355Z</time>
</trkpt>
<trkpt lat="-28.2059457" lon="152.5421831">
<ele>241.554</ele>
<time>2016-01-16T01:38:24.008Z</time>
</trkpt>
<trkpt lat="-28.2063809" lon="152.5420749">
<ele>240.710</ele>
<time>2016-01-16T01:38:26.967Z</time>
</trkpt>
<trkpt lat="-28.2066773" lon="152.5419693">
<ele>241.739</ele>
<time>2016-01-16T01:38:29.160Z</time>
</trkpt>
<trkpt lat="-28.2070599" lon="152.5418646">
<ele>243.524</ele>
<time>2016-01-16T01:38:31.874Z</time>
</trkpt>
<trkpt lat="-28.2074020" lon="152.5418100">
<ele>244.380</ele>
<time>2016-01-16T01:38:34.192Z</time>
</trkpt>
<trkpt lat="-28.2076194" lon="152.5416654">
<ele>243.842</ele>
<time>2016-01-16T01:38:35.915Z</time>
</trkpt>
<trkpt lat="-28.2079256" lon="152.5413783">
<ele>243.064</ele>
<time>2016-01-16T01:38:38.817Z</time>
</trkpt>
<trkpt lat="-28.2081447" lon="152.5411507">
<ele>243.304</ele>
<time>2016-01-16T01:38:41.214Z</time>
</trkpt>
<trkpt lat="-28.2084776" lon="152.5407394">
<ele>244.779</ele>
<time>2016-01-16T01:38:45.182Z</time>
</trkpt>
<trkpt lat="-28.2086993" lon="152.5404113">
<ele>247.214</ele>
<time>2016-01-16T01:38:47.831Z</time>
</trkpt>
<trkpt lat="-28.2090492" lon="152.5398386">
<ele>249.989</ele>
<time>2016-01-16T01:38:51.682Z</time>
</trkpt>
<trkpt lat="-28.2092896" lon="152.5394577">
<ele>252.793</ele>
<time>2016-01-16T01:38:53.943Z</time>
</trkpt>
<trkpt lat="-28.2095058" lon="152.5391212">
<ele>255.481</ele>
<time>2016-01-16T01:38:55.841Z</time>
</trkpt>
<trkpt lat="-28.2097200" lon="152.5388018">
<ele>257.301</ele>
<time>2016-01-16T01:38:57.585Z</time>
</trkpt>
<trkpt lat="-28.2100574" lon="152.5383619">
<ele>257.834</ele>
<time>2016-01-16T01:39:00.189Z</time>
</trkpt>
<trkpt lat="-28.2103302" lon="152.5379708">
<ele>257.691</ele>
<time>2016-01-16T01:39:02.556Z</time>
</trkpt>
<trkpt lat="-28.2104898" lon="152.5377459">
<ele>257.495</ele>
<time>2016-01-16T01:39:04.000Z</time>
</trkpt>
<trkpt lat="-28.2107244" lon="152.5375021">
<ele>257.476</ele>
<time>2016-01-16T01:39:05.874Z</time>
</trkpt>
<trkpt lat="-28.2109493" lon="152.5374063">
<ele>257.559</ele>
<time>2016-01-16T01:39:07.354Z</time>
</trkpt>
<trkpt lat="-28.2114188" lon="152.5374806">
<ele>257.941</ele>
<time>2016-01-16T01:39:10.671Z</time>
</trkpt>
<trkpt lat="-28.2117442" lon="152.5375201">
<ele>259.856</ele>
<time>2016-01-16T01:39:13.388Z</time>
</trkpt>
<trkpt lat="-28.2122630" lon="152.5376303">
<ele>264.186</ele>
<time>2016-01-16T01:39:17.680Z</time>
</trkpt>
<trkpt lat="-28.2126705" lon="152.5376200">
<ele>269.538</ele>
<time>2016-01-16T01:39:20.292Z</time>
</trkpt>
<trkpt lat="-28.2129605" lon="152.5376212">
<ele>273.796</ele>
<time>2016-01-16T01:39:22.024Z</time>
</trkpt>
<trkpt lat="-28.2134224" lon="152.5376486">
<ele>276.756</ele>
<time>2016-01-16T01:39:24.854Z</time>
</trkpt>
<trkpt lat="-28.2137135" lon="152.5376697">
<ele>279.327</ele>
<time>2016-01-16T01:39:26.697Z</time>
</trkpt>
<trkpt lat="-28.2140996" lon="152.5375491">
<ele>281.542</ele>
<time>2016-01-16T01:39:29.315Z</time>
</trkpt>
<trkpt lat="-28.2144450" lon="152.5372581">
<ele>282.869</ele>
<time>2016-01-16T01:39:32.168Z</time>
</trkpt>
<trkpt lat="-28.2147804" lon="152.5368170">
<ele>283.641</ele>
<time>2016-01-16T01:39:35.778Z</time>
</trkpt>
<trkpt lat="-28.2149743" lon="152.5365368">
<ele>285.253</ele>
<time>2016-01-16T01:39:37.983Z</time>
</trkpt>
<trkpt lat="-28.2151296" lon="152.5362511">
<ele>288.043</ele>
<time>2016-01-16T01:39:39.963Z</time>
</trkpt>
<trkpt lat="-28.2152384" lon="152.5357567">
<ele>290.219</ele>
<time>2016-01-16T01:39:42.798Z</time>
</trkpt>
<trkpt lat="-28.2152889" lon="152.5352252">
<ele>290.433</ele>
<time>2016-01-16T01:39:45.777Z</time>
</trkpt>
<trkpt lat="-28.2153459" lon="152.5347036">
<ele>289.475</ele>
<time>2016-01-16T01:39:48.807Z</time>
</trkpt>
<trkpt lat="-28.2154263" lon="152.5343856">
<ele>287.990</ele>
<time>2016-01-16T01:39:50.663Z</time>
</trkpt>
<trkpt lat="-28.2155138" lon="152.5339608">
<ele>285.617</ele>
<time>2016-01-16T01:39:53.109Z</time>
</trkpt>
<trkpt lat="-28.2154890" lon="152.5337203">
<ele>281.491</ele>
<time>2016-01-16T01:39:54.469Z</time>
</trkpt>
<trkpt lat="-28.2152140" lon="152.5334832">
<ele>276.024</ele>
<time>2016-01-16T01:39:56.719Z</time>
</trkpt>
<trkpt lat="-28.2150589" lon="152.5333431">
<ele>271.419</ele>
<time>2016-01-16T01:39:58.103Z</time>
</trkpt>
<trkpt lat="-28.2149651" lon="152.5330124">
<ele>269.283</ele>
<time>2016-01-16T01:40:00.313Z</time>
</trkpt>
<trkpt lat="-28.2149933" lon="152.5326763">
<ele>269.185</ele>
<time>2016-01-16T01:40:02.710Z</time>
</trkpt>
<trkpt lat="-28.2150356" lon="152.5323405">
<ele>270.104</ele>
<time>2016-01-16T01:40:05.313Z</time>
</trkpt>
<trkpt lat="-28.2150545" lon="152.5320073">
<ele>271.086</ele>
<time>2016-01-16T01:40:08.022Z</time>
</trkpt>
<trkpt lat="-28.2150729" lon="152.5316976">
<ele>271.344</ele>
<time>2016-01-16T01:40:10.514Z</time>
</trkpt>
<trkpt lat="-28.2150619" lon="152.5312509">
<ele>270.267</ele>
<time>2016-01-16T01:40:13.486Z</time>
</trkpt>
<trkpt lat="-28.2150536" lon="152.5310590">
<ele>268.341</ele>
<time>2016-01-16T01:40:14.662Z</time>
</trkpt>
<trkpt lat="-28.2151179" lon="152.5307979">
<ele>266.883</ele>
<time>2016-01-16T01:40:16.316Z</time>
</trkpt>
<trkpt lat="-28.2152053" lon="152.5306001">
<ele>266.802</ele>
<time>2016-01-16T01:40:17.686Z</time>
</trkpt>
<trkpt lat="-28.2154101" lon="152.5304380">
<ele>268.052</ele>
<time>2016-01-16T01:40:19.485Z</time>
</trkpt>
<trkpt lat="-28.2156663" lon="152.5302398">
<ele>269.862</ele>
<time>2016-01-16T01:40:21.843Z</time>
</trkpt>
<trkpt lat="-28.2160423" lon="152.5299727">
<ele>271.651</ele>
<time>2016-01-16T01:40:26.222Z</time>
</trkpt>
<trkpt lat="-28.2163886" lon="152.5297170">
<ele>273.232</ele>
<time>2016-01-16T01:40:30.340Z</time>
</trkpt>
<trkpt lat="-28.2165776" lon="152.5295723">
<ele>273.992</ele>
<time>2016-01-16T01:40:32.154Z</time>
</trkpt>
<trkpt lat="-28.2167397" lon="152.5293542">
<ele>273.643</ele>
<time>2016-01-16T01:40:33.893Z</time>
</trkpt>
<trkpt lat="-28.2170056" lon="152.5290681">
<ele>272.964</ele>
<time>2016-01-16T01:40:36.434Z</time>
</trkpt>
<trkpt lat="-28.2172656" lon="152.5287862">
<ele>272.900</ele>
<time>2016-01-16T01:40:39.062Z</time>
</trkpt>
<trkpt lat="-28.2174129" lon="152.5285491">
<ele>273.604</ele>
<time>2016-01-16T01:40:41.178Z</time>
</trkpt>
<trkpt lat="-28.2175841" lon="152.5283443">
<ele>274.724</ele>
<time>2016-01-16T01:40:43.257Z</time>
</trkpt>
<trkpt lat="-28.2178211" lon="152.5280338">
<ele>276.207</ele>
<time>2016-01-16T01:40:46.167Z</time>
</trkpt>
<trkpt lat="-28.2180043" lon="152.5276726">
<ele>278.195</ele>
<time>2016-01-16T01:40:49.043Z</time>
</trkpt>
<trkpt lat="-28.2180756" lon="152.5273829">
<ele>280.174</ele>
<time>2016-01-16T01:40:51.137Z</time>
</trkpt>
<trkpt lat="-28.2181444" lon="152.5270876">
<ele>281.392</ele>
<time>2016-01-16T01:40:53.270Z</time>
</trkpt>
<trkpt lat="-28.2182098" lon="152.5265596">
<ele>282.087</ele>
<time>2016-01-16T01:40:57.036Z</time>
</trkpt>
<trkpt lat="-28.2182273" lon="152.5260415">
<ele>282.896</ele>
<time>2016-01-16T01:41:00.709Z</time>
</trkpt>
<trkpt lat="-28.2182144" lon="152.5257162">
<ele>283.564</ele>
<time>2016-01-16T01:41:02.858Z</time>
</trkpt>
<trkpt lat="-28.2182133" lon="152.5253980">
<ele>283.678</ele>
<time>2016-01-16T01:41:04.830Z</time>
</trkpt>
<trkpt lat="-28.2183234" lon="152.5250063">
<ele>283.507</ele>
<time>2016-01-16T01:41:07.178Z</time>
</trkpt>
<trkpt lat="-28.2184308" lon="152.5246242">
<ele>283.846</ele>
<time>2016-01-16T01:41:09.478Z</time>
</trkpt>
<trkpt lat="-28.2185837" lon="152.5240249">
<ele>285.259</ele>
<time>2016-01-16T01:41:13.181Z</time>
</trkpt>
<trkpt lat="-28.2187335" lon="152.5234269">
<ele>287.552</ele>
<time>2016-01-16T01:41:16.541Z</time>
</trkpt>
<trkpt lat="-28.2188804" lon="152.5228592">
<ele>290.173</ele>
<time>2016-01-16T01:41:19.405Z</time>
</trkpt>
<trkpt lat="-28.2190327" lon="152.5222645">
<ele>292.962</ele>
<time>2016-01-16T01:41:22.326Z</time>
</trkpt>
<trkpt lat="-28.2191387" lon="152.5218494">
<ele>295.794</ele>
<time>2016-01-16T01:41:24.418Z</time>
</trkpt>
<trkpt lat="-28.2192418" lon="152.5214403">
<ele>298.292</ele>
<time>2016-01-16T01:41:26.495Z</time>
</trkpt>
<trkpt lat="-28.2193414" lon="152.5210618">
<ele>300.019</ele>
<time>2016-01-16T01:41:28.414Z</time>
</trkpt>
<trkpt lat="-28.2195008" lon="152.5204599">
<ele>300.853</ele>
<time>2016-01-16T01:41:31.353Z</time>
</trkpt>
<trkpt lat="-28.2196023" lon="152.5200865">
<ele>300.963</ele>
<time>2016-01-16T01:41:33.196Z</time>
</trkpt>
<trkpt lat="-28.2196726" lon="152.5197634">
<ele>300.763</ele>
<time>2016-01-16T01:41:34.784Z</time>
</trkpt>
<trkpt lat="-28.2196354" lon="152.5193625">
<ele>300.528</ele>
<time>2016-01-16T01:41:36.711Z</time>
</trkpt>
<trkpt lat="-28.2195524" lon="152.5191256">
<ele>300.091</ele>
<time>2016-01-16T01:41:37.943Z</time>
</trkpt>
<trkpt lat="-28.2194707" lon="152.5189324">
<ele>299.197</ele>
<time>2016-01-16T01:41:38.982Z</time>
</trkpt>
<trkpt lat="-28.2194403" lon="152.5188048">
<ele>297.691</ele>
<time>2016-01-16T01:41:39.689Z</time>
</trkpt>
<trkpt lat="-28.2194300" lon="152.5186838">
<ele>295.643</ele>
<time>2016-01-16T01:41:40.340Z</time>
</trkpt>
<trkpt lat="-28.2193816" lon="152.5185655">
<ele>293.727</ele>
<time>2016-01-16T01:41:41.047Z</time>
</trkpt>
<trkpt lat="-28.2193670" lon="152.5184557">
<ele>292.650</ele>
<time>2016-01-16T01:41:41.750Z</time>
</trkpt>
<trkpt lat="-28.2193700" lon="152.5182342">
<ele>292.504</ele>
<time>2016-01-16T01:41:43.152Z</time>
</trkpt>
<trkpt lat="-28.2195639" lon="152.5178359">
<ele>293.422</ele>
<time>2016-01-16T01:41:46.500Z</time>
</trkpt>
<trkpt lat="-28.2197231" lon="152.5174813">
<ele>295.764</ele>
<time>2016-01-16T01:41:51.313Z</time>
</trkpt>
<trkpt lat="-28.2199033" lon="152.5171369">
<ele>299.406</ele>
<time>2016-01-16T01:42:01.203Z</time>
</trkpt>
<trkpt lat="-28.2201666" lon="152.5166741">
<ele>303.645</ele>
<time>2016-01-16T01:42:07.702Z</time>
</trkpt>
<trkpt lat="-28.2204289" lon="152.5162140">
<ele>307.387</ele>
<time>2016-01-16T01:42:11.212Z</time>
</trkpt>
<trkpt lat="-28.2207321" lon="152.5157952">
<ele>309.581</ele>
<time>2016-01-16T01:42:14.206Z</time>
</trkpt>
<trkpt lat="-28.2210515" lon="152.5154017">
<ele>310.600</ele>
<time>2016-01-16T01:42:17.049Z</time>
</trkpt>
<trkpt lat="-28.2212870" lon="152.5151176">
<ele>311.590</ele>
<time>2016-01-16T01:42:19.177Z</time>
</trkpt>
<trkpt lat="-28.2215388" lon="152.5148864">
<ele>312.724</ele>
<time>2016-01-16T01:42:21.199Z</time>
</trkpt>
<trkpt lat="-28.2219647" lon="152.5146027">
<ele>313.653</ele>
<time>2016-01-16T01:42:24.270Z</time>
</trkpt>
<trkpt lat="-28.2223659" lon="152.5143826">
<ele>314.420</ele>
<time>2016-01-16T01:42:26.974Z</time>
</trkpt>
<trkpt lat="-28.2227999" lon="152.5140826">
<ele>315.158</ele>
<time>2016-01-16T01:42:30.074Z</time>
</trkpt>
<trkpt lat="-28.2232688" lon="152.5137616">
<ele>316.443</ele>
<time>2016-01-16T01:42:33.513Z</time>
</trkpt>
<trkpt lat="-28.2235959" lon="152.5135386">
<ele>318.770</ele>
<time>2016-01-16T01:42:35.868Z</time>
</trkpt>
<trkpt lat="-28.2239150" lon="152.5133575">
<ele>321.445</ele>
<time>2016-01-16T01:42:37.881Z</time>
</trkpt>
<trkpt lat="-28.2242139" lon="152.5131023">
<ele>323.257</ele>
<time>2016-01-16T01:42:39.937Z</time>
</trkpt>
<trkpt lat="-28.2244789" lon="152.5128023">
<ele>324.257</ele>
<time>2016-01-16T01:42:41.958Z</time>
</trkpt>
<trkpt lat="-28.2247332" lon="152.5125394">
<ele>325.467</ele>
<time>2016-01-16T01:42:43.848Z</time>
</trkpt>
<trkpt lat="-28.2249833" lon="152.5122522">
<ele>327.671</ele>
<time>2016-01-16T01:42:45.822Z</time>
</trkpt>
<trkpt lat="-28.2253428" lon="152.5118511">
<ele>330.347</ele>
<time>2016-01-16T01:42:48.596Z</time>
</trkpt>
<trkpt lat="-28.2255833" lon="152.5115843">
<ele>332.384</ele>
<time>2016-01-16T01:42:50.459Z</time>
</trkpt>
<trkpt lat="-28.2258398" lon="152.5113425">
<ele>333.621</ele>
<time>2016-01-16T01:42:52.356Z</time>
</trkpt>
<trkpt lat="-28.2260555" lon="152.5111264">
<ele>334.508</ele>
<time>2016-01-16T01:42:54.009Z</time>
</trkpt>
<trkpt lat="-28.2262489" lon="152.5110060">
<ele>334.837</ele>
<time>2016-01-16T01:42:55.290Z</time>
</trkpt>
<trkpt lat="-28.2264548" lon="152.5108780">
<ele>334.165</ele>
<time>2016-01-16T01:42:56.663Z</time>
</trkpt>
<trkpt lat="-28.2267972" lon="152.5107630">
<ele>332.849</ele>
<time>2016-01-16T01:42:58.807Z</time>
</trkpt>
<trkpt lat="-28.2271605" lon="152.5105767">
<ele>332.159</ele>
<time>2016-01-16T01:43:01.611Z</time>
</trkpt>
<trkpt lat="-28.2274186" lon="152.5104220">
<ele>332.773</ele>
<time>2016-01-16T01:43:04.205Z</time>
</trkpt>
<trkpt lat="-28.2278454" lon="152.5100298">
<ele>334.310</ele>
<time>2016-01-16T01:43:09.585Z</time>
</trkpt>
<trkpt lat="-28.2280925" lon="152.5098370">
<ele>336.198</ele>
<time>2016-01-16T01:43:11.931Z</time>
</trkpt>
<trkpt lat="-28.2285181" lon="152.5096343">
<ele>337.909</ele>
<time>2016-01-16T01:43:15.065Z</time>
</trkpt>
<trkpt lat="-28.2288667" lon="152.5094662">
<ele>338.870</ele>
<time>2016-01-16T01:43:17.433Z</time>
</trkpt>
<trkpt lat="-28.2289814" lon="152.5093527">
<ele>338.818</ele>
<time>2016-01-16T01:43:18.347Z</time>
</trkpt>
<trkpt lat="-28.2290435" lon="152.5090761">
<ele>338.036</ele>
<time>2016-01-16T01:43:19.901Z</time>
</trkpt>
<trkpt lat="-28.2287819" lon="152.5088984">
<ele>337.563</ele>
<time>2016-01-16T01:43:21.824Z</time>
</trkpt>
<trkpt lat="-28.2284672" lon="152.5085700">
<ele>338.139</ele>
<time>2016-01-16T01:43:24.798Z</time>
</trkpt>
<trkpt lat="-28.2282942" lon="152.5083092">
<ele>339.634</ele>
<time>2016-01-16T01:43:27.366Z</time>
</trkpt>
<trkpt lat="-28.2281755" lon="152.5078722">
<ele>341.772</ele>
<time>2016-01-16T01:43:32.120Z</time>
</trkpt>
<trkpt lat="-28.2281421" lon="152.5075283">
<ele>344.586</ele>
<time>2016-01-16T01:43:34.903Z</time>
</trkpt>
<trkpt lat="-28.2282478" lon="152.5070304">
<ele>348.085</ele>
<time>2016-01-16T01:43:38.225Z</time>
</trkpt>
<trkpt lat="-28.2283110" lon="152.5067243">
<ele>352.042</ele>
<time>2016-01-16T01:43:40.230Z</time>
</trkpt>
<trkpt lat="-28.2283054" lon="152.5063204">
<ele>355.914</ele>
<time>2016-01-16T01:43:42.809Z</time>
</trkpt>
<trkpt lat="-28.2283049" lon="152.5060615">
<ele>359.512</ele>
<time>2016-01-16T01:43:44.439Z</time>
</trkpt>
<trkpt lat="-28.2284102" lon="152.5058146">
<ele>363.135</ele>
<time>2016-01-16T01:43:46.147Z</time>
</trkpt>
<trkpt lat="-28.2285607" lon="152.5055960">
<ele>366.980</ele>
<time>2016-01-16T01:43:47.916Z</time>
</trkpt>
<trkpt lat="-28.2288742" lon="152.5053637">
<ele>370.989</ele>
<time>2016-01-16T01:43:50.768Z</time>
</trkpt>
<trkpt lat="-28.2290427" lon="152.5052081">
<ele>375.391</ele>
<time>2016-01-16T01:43:52.542Z</time>
</trkpt>
<trkpt lat="-28.2291093" lon="152.5047982">
<ele>379.998</ele>
<time>2016-01-16T01:43:55.576Z</time>
</trkpt>
<trkpt lat="-28.2291223" lon="152.5045458">
<ele>384.411</ele>
<time>2016-01-16T01:43:57.389Z</time>
</trkpt>
<trkpt lat="-28.2291234" lon="152.5041897">
<ele>388.609</ele>
<time>2016-01-16T01:43:59.967Z</time>
</trkpt>
<trkpt lat="-28.2291739" lon="152.5039074">
<ele>392.735</ele>
<time>2016-01-16T01:44:02.194Z</time>
</trkpt>
<trkpt lat="-28.2292487" lon="152.5036418">
<ele>396.778</ele>
<time>2016-01-16T01:44:04.449Z</time>
</trkpt>
<trkpt lat="-28.2294657" lon="152.5032647">
<ele>400.604</ele>
<time>2016-01-16T01:44:08.118Z</time>
</trkpt>
<trkpt lat="-28.2296694" lon="152.5029609">
<ele>403.796</ele>
<time>2016-01-16T01:44:11.111Z</time>
</trkpt>
<trkpt lat="-28.2297754" lon="152.5026833">
<ele>406.264</ele>
<time>2016-01-16T01:44:13.329Z</time>
</trkpt>
<trkpt lat="-28.2299088" lon="152.5023252">
<ele>408.137</ele>
<time>2016-01-16T01:44:16.034Z</time>
</trkpt>
<trkpt lat="-28.2300910" lon="152.5021463">
<ele>409.472</ele>
<time>2016-01-16T01:44:17.997Z</time>
</trkpt>
<trkpt lat="-28.2303557" lon="152.5019218">
<ele>410.490</ele>
<time>2016-01-16T01:44:20.761Z</time>
</trkpt>
<trkpt lat="-28.2305308" lon="152.5017321">
<ele>411.433</ele>
<time>2016-01-16T01:44:22.842Z</time>
</trkpt>
<trkpt lat="-28.2306694" lon="152.5014722">
<ele>412.381</ele>
<time>2016-01-16T01:44:25.168Z</time>
</trkpt>
<trkpt lat="-28.2308850" lon="152.5011529">
<ele>413.332</ele>
<time>2016-01-16T01:44:28.306Z</time>
</trkpt>
<trkpt lat="-28.2310814" lon="152.5008462">
<ele>414.401</ele>
<time>2016-01-16T01:44:31.613Z</time>
</trkpt>
<trkpt lat="-28.2311322" lon="152.5005507">
<ele>415.802</ele>
<time>2016-01-16T01:44:34.588Z</time>
</trkpt>
<trkpt lat="-28.2311716" lon="152.5002668">
<ele>417.813</ele>
<time>2016-01-16T01:44:37.146Z</time>
</trkpt>
<trkpt lat="-28.2312344" lon="152.4998741">
<ele>420.443</ele>
<time>2016-01-16T01:44:40.331Z</time>
</trkpt>
<trkpt lat="-28.2312718" lon="152.4995792">
<ele>423.223</ele>
<time>2016-01-16T01:44:42.566Z</time>
</trkpt>
<trkpt lat="-28.2312899" lon="152.4993081">
<ele>425.334</ele>
<time>2016-01-16T01:44:44.492Z</time>
</trkpt>
<trkpt lat="-28.2313128" lon="152.4990667">
<ele>426.613</ele>
<time>2016-01-16T01:44:46.198Z</time>
</trkpt>
<trkpt lat="-28.2313776" lon="152.4988358">
<ele>427.651</ele>
<time>2016-01-16T01:44:47.904Z</time>
</trkpt>
<trkpt lat="-28.2315001" lon="152.4987148">
<ele>428.827</ele>
<time>2016-01-16T01:44:49.245Z</time>
</trkpt>
<trkpt lat="-28.2317190" lon="152.4987283">
<ele>429.943</ele>
<time>2016-01-16T01:44:51.051Z</time>
</trkpt>
<trkpt lat="-28.2318554" lon="152.4990054">
<ele>431.322</ele>
<time>2016-01-16T01:44:53.414Z</time>
</trkpt>
<trkpt lat="-28.2318619" lon="152.4992932">
<ele>433.967</ele>
<time>2016-01-16T01:44:55.806Z</time>
</trkpt>
<trkpt lat="-28.2318877" lon="152.4996506">
<ele>438.284</ele>
<time>2016-01-16T01:44:59.392Z</time>
</trkpt>
<trkpt lat="-28.2320439" lon="152.5000669">
<ele>443.396</ele>
<time>2016-01-16T01:45:04.437Z</time>
</trkpt>
<trkpt lat="-28.2321014" lon="152.5003326">
<ele>447.997</ele>
<time>2016-01-16T01:45:06.828Z</time>
</trkpt>
<trkpt lat="-28.2321828" lon="152.5006108">
<ele>451.433</ele>
<time>2016-01-16T01:45:08.917Z</time>
</trkpt>
<trkpt lat="-28.2323186" lon="152.5009802">
<ele>454.119</ele>
<time>2016-01-16T01:45:11.592Z</time>
</trkpt>
<trkpt lat="-28.2324234" lon="152.5011057">
<ele>456.748</ele>
<time>2016-01-16T01:45:12.761Z</time>
</trkpt>
<trkpt lat="-28.2326403" lon="152.5011195">
<ele>459.399</ele>
<time>2016-01-16T01:45:14.452Z</time>
</trkpt>
<trkpt lat="-28.2327830" lon="152.5009599">
<ele>461.962</ele>
<time>2016-01-16T01:45:16.067Z</time>
</trkpt>
<trkpt lat="-28.2329323" lon="152.5007914">
<ele>464.677</ele>
<time>2016-01-16T01:45:17.793Z</time>
</trkpt>
<trkpt lat="-28.2331379" lon="152.5005293">
<ele>467.713</ele>
<time>2016-01-16T01:45:21.181Z</time>
</trkpt>
<trkpt lat="-28.2333043" lon="152.5002373">
<ele>471.398</ele>
<time>2016-01-16T01:45:25.277Z</time>
</trkpt>
<trkpt lat="-28.2335357" lon="152.4998035">
<ele>476.431</ele>
<time>2016-01-16T01:45:30.382Z</time>
</trkpt>
<trkpt lat="-28.2337104" lon="152.4996302">
<ele>482.822</ele>
<time>2016-01-16T01:45:32.740Z</time>
</trkpt>
<trkpt lat="-28.2340478" lon="152.4994112">
<ele>489.190</ele>
<time>2016-01-16T01:45:36.081Z</time>
</trkpt>
<trkpt lat="-28.2342635" lon="152.4993684">
<ele>494.437</ele>
<time>2016-01-16T01:45:37.756Z</time>
</trkpt>
<trkpt lat="-28.2344550" lon="152.4992991">
<ele>498.508</ele>
<time>2016-01-16T01:45:39.326Z</time>
</trkpt>
<trkpt lat="-28.2345666" lon="152.4991826">
<ele>501.501</ele>
<time>2016-01-16T01:45:40.514Z</time>
</trkpt>
<trkpt lat="-28.2343740" lon="152.4989907">
<ele>503.764</ele>
<time>2016-01-16T01:45:42.641Z</time>
</trkpt>
<trkpt lat="-28.2342154" lon="152.4988756">
<ele>505.970</ele>
<time>2016-01-16T01:45:44.595Z</time>
</trkpt>
<trkpt lat="-28.2339920" lon="152.4988602">
<ele>508.485</ele>
<time>2016-01-16T01:45:47.361Z</time>
</trkpt>
<trkpt lat="-28.2336903" lon="152.4988333">
<ele>511.614</ele>
<time>2016-01-16T01:45:51.946Z</time>
</trkpt>
<trkpt lat="-28.2335307" lon="152.4987168">
<ele>515.334</ele>
<time>2016-01-16T01:45:54.194Z</time>
</trkpt>
<trkpt lat="-28.2334031" lon="152.4984851">
<ele>519.189</ele>
<time>2016-01-16T01:45:56.671Z</time>
</trkpt>
<trkpt lat="-28.2336070" lon="152.4981538">
<ele>523.137</ele>
<time>2016-01-16T01:46:00.481Z</time>
</trkpt>
<trkpt lat="-28.2337747" lon="152.4979472">
<ele>527.421</ele>
<time>2016-01-16T01:46:03.449Z</time>
</trkpt>
<trkpt lat="-28.2339452" lon="152.4979558">
<ele>531.846</ele>
<time>2016-01-16T01:46:05.545Z</time>
</trkpt>
<trkpt lat="-28.2342602" lon="152.4979011">
<ele>535.969</ele>
<time>2016-01-16T01:46:09.408Z</time>
</trkpt>
<trkpt lat="-28.2344157" lon="152.4978970">
<ele>540.055</ele>
<time>2016-01-16T01:46:11.319Z</time>
</trkpt>
<trkpt lat="-28.2345771" lon="152.4978743">
<ele>544.276</ele>
<time>2016-01-16T01:46:13.123Z</time>
</trkpt>
<trkpt lat="-28.2347697" lon="152.4977634">
<ele>547.921</ele>
<time>2016-01-16T01:46:15.441Z</time>
</trkpt>
<trkpt lat="-28.2347649" lon="152.4975471">
<ele>550.483</ele>
<time>2016-01-16T01:46:17.630Z</time>
</trkpt>
<trkpt lat="-28.2346651" lon="152.4972349">
<ele>552.503</ele>
<time>2016-01-16T01:46:21.502Z</time>
</trkpt>
<trkpt lat="-28.2345728" lon="152.4968909">
<ele>555.023</ele>
<time>2016-01-16T01:46:25.707Z</time>
</trkpt>
<trkpt lat="-28.2345272" lon="152.4966703">
<ele>558.256</ele>
<time>2016-01-16T01:46:27.763Z</time>
</trkpt>
<trkpt lat="-28.2345545" lon="152.4964812">
<ele>561.167</ele>
<time>2016-01-16T01:46:29.451Z</time>
</trkpt>
<trkpt lat="-28.2346650" lon="152.4964338">
<ele>563.067</ele>
<time>2016-01-16T01:46:30.634Z</time>
</trkpt>
<trkpt lat="-28.2348783" lon="152.4965925">
<ele>564.411</ele>
<time>2016-01-16T01:46:33.471Z</time>
</trkpt>
<trkpt lat="-28.2350923" lon="152.4967491">
<ele>566.372</ele>
<time>2016-01-16T01:46:37.126Z</time>
</trkpt>
<trkpt lat="-28.2352328" lon="152.4967121">
<ele>569.780</ele>
<time>2016-01-16T01:46:39.269Z</time>
</trkpt>
<trkpt lat="-28.2353464" lon="152.4965241">
<ele>574.028</ele>
<time>2016-01-16T01:46:42.099Z</time>
</trkpt>
<trkpt lat="-28.2355546" lon="152.4963247">
<ele>578.340</ele>
<time>2016-01-16T01:46:45.894Z</time>
</trkpt>
<trkpt lat="-28.2358074" lon="152.4960216">
<ele>583.022</ele>
<time>2016-01-16T01:46:50.167Z</time>
</trkpt>
<trkpt lat="-28.2359993" lon="152.4956820">
<ele>588.287</ele>
<time>2016-01-16T01:46:53.559Z</time>
</trkpt>
<trkpt lat="-28.2361010" lon="152.4954519">
<ele>593.746</ele>
<time>2016-01-16T01:46:55.599Z</time>
</trkpt>
<trkpt lat="-28.2361923" lon="152.4952168">
<ele>599.085</ele>
<time>2016-01-16T01:46:57.598Z</time>
</trkpt>
<trkpt lat="-28.2362909" lon="152.4949576">
<ele>604.231</ele>
<time>2016-01-16T01:46:59.780Z</time>
</trkpt>
<trkpt lat="-28.2364037" lon="152.4944576">
<ele>608.818</ele>
<time>2016-01-16T01:47:03.804Z</time>
</trkpt>
<trkpt lat="-28.2364045" lon="152.4941869">
<ele>612.777</ele>
<time>2016-01-16T01:47:05.899Z</time>
</trkpt>
<trkpt lat="-28.2364196" lon="152.4938340">
<ele>616.602</ele>
<time>2016-01-16T01:47:08.638Z</time>
</trkpt>
<trkpt lat="-28.2365459" lon="152.4934192">
<ele>620.570</ele>
<time>2016-01-16T01:47:12.090Z</time>
</trkpt>
<trkpt lat="-28.2366522" lon="152.4932629">
<ele>624.463</ele>
<time>2016-01-16T01:47:13.646Z</time>
</trkpt>
<trkpt lat="-28.2367318" lon="152.4929024">
<ele>627.994</ele>
<time>2016-01-16T01:47:16.639Z</time>
</trkpt>
<trkpt lat="-28.2367046" lon="152.4925162">
<ele>631.217</ele>
<time>2016-01-16T01:47:19.742Z</time>
</trkpt>
<trkpt lat="-28.2365887" lon="152.4920946">
<ele>634.730</ele>
<time>2016-01-16T01:47:23.034Z</time>
</trkpt>
<trkpt lat="-28.2365283" lon="152.4917805">
<ele>638.894</ele>
<time>2016-01-16T01:47:25.302Z</time>
</trkpt>
<trkpt lat="-28.2363932" lon="152.4914043">
<ele>643.272</ele>
<time>2016-01-16T01:47:28.135Z</time>
</trkpt>
<trkpt lat="-28.2361144" lon="152.4910524">
<ele>647.471</ele>
<time>2016-01-16T01:47:31.437Z</time>
</trkpt>
<trkpt lat="-28.2359204" lon="152.4908789">
<ele>651.721</ele>
<time>2016-01-16T01:47:33.410Z</time>
</trkpt>
<trkpt lat="-28.2357215" lon="152.4906179">
<ele>656.119</ele>
<time>2016-01-16T01:47:36.064Z</time>
</trkpt>
<trkpt lat="-28.2356044" lon="152.4902519">
<ele>660.355</ele>
<time>2016-01-16T01:47:39.274Z</time>
</trkpt>
<trkpt lat="-28.2353961" lon="152.4899672">
<ele>664.629</ele>
<time>2016-01-16T01:47:42.355Z</time>
</trkpt>
<trkpt lat="-28.2352915" lon="152.4896623">
<ele>669.072</ele>
<time>2016-01-16T01:47:45.188Z</time>
</trkpt>
<trkpt lat="-28.2351395" lon="152.4894966">
<ele>673.202</ele>
<time>2016-01-16T01:47:47.316Z</time>
</trkpt>
<trkpt lat="-28.2349671" lon="152.4891898">
<ele>676.534</ele>
<time>2016-01-16T01:47:50.503Z</time>
</trkpt>
<trkpt lat="-28.2347414" lon="152.4890625">
<ele>679.464</ele>
<time>2016-01-16T01:47:53.148Z</time>
</trkpt>
<trkpt lat="-28.2345833" lon="152.4890327">
<ele>682.712</ele>
<time>2016-01-16T01:47:54.980Z</time>
</trkpt>
<trkpt lat="-28.2344316" lon="152.4888682">
<ele>686.200</ele>
<time>2016-01-16T01:47:57.719Z</time>
</trkpt>
<trkpt lat="-28.2343860" lon="152.4887285">
<ele>689.415</ele>
<time>2016-01-16T01:47:59.574Z</time>
</trkpt>
<trkpt lat="-28.2343876" lon="152.4886190">
<ele>692.144</ele>
<time>2016-01-16T01:48:01.090Z</time>
</trkpt>
<trkpt lat="-28.2343805" lon="152.4884834">
<ele>694.279</ele>
<time>2016-01-16T01:48:03.751Z</time>
</trkpt>
<trkpt lat="-28.2343387" lon="152.4883675">
<ele>695.977</ele>
<time>2016-01-16T01:48:07.244Z</time>
</trkpt>
<trkpt lat="-28.2342553" lon="152.4882507">
<ele>697.681</ele>
<time>2016-01-16T01:48:10.287Z</time>
</trkpt>
<trkpt lat="-28.2341820" lon="152.4881350">
<ele>699.650</ele>
<time>2016-01-16T01:48:12.481Z</time>
</trkpt>
<trkpt lat="-28.2341080" lon="152.4879319">
<ele>701.775</ele>
<time>2016-01-16T01:48:15.662Z</time>
</trkpt>
<trkpt lat="-28.2340130" lon="152.4877872">
<ele>704.046</ele>
<time>2016-01-16T01:48:18.169Z</time>
</trkpt>
<trkpt lat="-28.2338622" lon="152.4877170">
<ele>706.676</ele>
<time>2016-01-16T01:48:20.445Z</time>
</trkpt>
<trkpt lat="-28.2337426" lon="152.4876323">
<ele>709.404</ele>
<time>2016-01-16T01:48:22.307Z</time>
</trkpt>
<trkpt lat="-28.2336151" lon="152.4875150">
<ele>711.812</ele>
<time>2016-01-16T01:48:24.401Z</time>
</trkpt>
<trkpt lat="-28.2334367" lon="152.4872705">
<ele>714.020</ele>
<time>2016-01-16T01:48:27.673Z</time>
</trkpt>
<trkpt lat="-28.2333193" lon="152.4869511">
<ele>716.518</ele>
<time>2016-01-16T01:48:30.862Z</time>
</trkpt>
<trkpt lat="-28.2332597" lon="152.4867196">
<ele>719.921</ele>
<time>2016-01-16T01:48:32.941Z</time>
</trkpt>
<trkpt lat="-28.2331580" lon="152.4864041">
<ele>724.292</ele>
<time>2016-01-16T01:48:35.844Z</time>
</trkpt>
<trkpt lat="-28.2331017" lon="152.4861898">
<ele>728.868</ele>
<time>2016-01-16T01:48:37.956Z</time>
</trkpt>
<trkpt lat="-28.2330166" lon="152.4859352">
<ele>733.039</ele>
<time>2016-01-16T01:48:41.264Z</time>
</trkpt>
<trkpt lat="-28.2329710" lon="152.4858350">
<ele>736.496</ele>
<time>2016-01-16T01:48:43.367Z</time>
</trkpt>
<trkpt lat="-28.2329073" lon="152.4857527">
<ele>738.831</ele>
<time>2016-01-16T01:48:47.061Z</time>
</trkpt>
<trkpt lat="-28.2328569" lon="152.4856674">
<ele>740.056</ele>
<time>2016-01-16T01:48:51.937Z</time>
</trkpt>
<trkpt lat="-28.2328028" lon="152.4855755">
<ele>740.715</ele>
<time>2016-01-16T01:48:57.000Z</time>
</trkpt>
<trkpt lat="-28.2328028" lon="152.4855755">
<ele>741.171</ele>
<time>2016-01-16T01:49:02.000Z</time>
</trkpt>
<trkpt lat="-28.2328028" lon="152.4855755">
<ele>741.272</ele>
<time>2016-01-16T02:02:26.019Z</time>
</trkpt>
<trkpt lat="-28.2327782" lon="152.4853173">
<ele>740.942</ele>
<time>2016-01-16T02:02:37.616Z</time>
</trkpt>
<trkpt lat="-28.2328204" lon="152.4851863">
<ele>745.820</ele>
<time>2016-01-16T02:02:39.869Z</time>
</trkpt>
<trkpt lat="-28.2328433" lon="152.4850540">
<ele>759.571</ele>
<time>2016-01-16T02:02:42.034Z</time>
</trkpt>
<trkpt lat="-28.2328983" lon="152.4848814">
<ele>774.126</ele>
<time>2016-01-16T02:02:44.815Z</time>
</trkpt>
<trkpt lat="-28.2329414" lon="152.4847620">
<ele>781.287</ele>
<time>2016-01-16T02:02:46.614Z</time>
</trkpt>
<trkpt lat="-28.2329820" lon="152.4845397">
<ele>782.473</ele>
<time>2016-01-16T02:02:49.433Z</time>
</trkpt>
<trkpt lat="-28.2329971" lon="152.4842725">
<ele>781.997</ele>
<time>2016-01-16T02:02:52.449Z</time>
</trkpt>
<trkpt lat="-28.2329740" lon="152.4840805">
<ele>782.765</ele>
<time>2016-01-16T02:02:54.481Z</time>
</trkpt>
<trkpt lat="-28.2329484" lon="152.4837868">
<ele>784.490</ele>
<time>2016-01-16T02:02:57.381Z</time>
</trkpt>
<trkpt lat="-28.2329383" lon="152.4834639">
<ele>785.731</ele>
<time>2016-01-16T02:03:00.564Z</time>
</trkpt>
<trkpt lat="-28.2329434" lon="152.4832926">
<ele>786.164</ele>
<time>2016-01-16T02:03:02.315Z</time>
</trkpt>
<trkpt lat="-28.2329357" lon="152.4831246">
<ele>786.132</ele>
<time>2016-01-16T02:03:03.999Z</time>
</trkpt>
<trkpt lat="-28.2329589" lon="152.4828182">
<ele>785.931</ele>
<time>2016-01-16T02:03:07.028Z</time>
</trkpt>
<trkpt lat="-28.2330011" lon="152.4826000">
<ele>785.690</ele>
<time>2016-01-16T02:03:09.159Z</time>
</trkpt>
<trkpt lat="-28.2330981" lon="152.4824017">
<ele>785.799</ele>
<time>2016-01-16T02:03:11.108Z</time>
</trkpt>
<trkpt lat="-28.2334034" lon="152.4822224">
<ele>786.477</ele>
<time>2016-01-16T02:03:14.044Z</time>
</trkpt>
<trkpt lat="-28.2336565" lon="152.4820933">
<ele>787.036</ele>
<time>2016-01-16T02:03:16.029Z</time>
</trkpt>
<trkpt lat="-28.2340545" lon="152.4819450">
<ele>786.567</ele>
<time>2016-01-16T02:03:18.826Z</time>
</trkpt>
<trkpt lat="-28.2343752" lon="152.4818501">
<ele>785.178</ele>
<time>2016-01-16T02:03:20.880Z</time>
</trkpt>
<trkpt lat="-28.2348510" lon="152.4817142">
<ele>783.470</ele>
<time>2016-01-16T02:03:23.947Z</time>
</trkpt>
<trkpt lat="-28.2352815" lon="152.4815658">
<ele>781.801</ele>
<time>2016-01-16T02:03:26.816Z</time>
</trkpt>
<trkpt lat="-28.2355772" lon="152.4814741">
<ele>780.487</ele>
<time>2016-01-16T02:03:28.761Z</time>
</trkpt>
<trkpt lat="-28.2358896" lon="152.4813862">
<ele>779.654</ele>
<time>2016-01-16T02:03:30.787Z</time>
</trkpt>
<trkpt lat="-28.2363649" lon="152.4813118">
<ele>779.173</ele>
<time>2016-01-16T02:03:33.809Z</time>
</trkpt>
<trkpt lat="-28.2366493" lon="152.4811876">
<ele>778.975</ele>
<time>2016-01-16T02:03:35.784Z</time>
</trkpt>
<trkpt lat="-28.2370924" lon="152.4810960">
<ele>778.381</ele>
<time>2016-01-16T02:03:38.779Z</time>
</trkpt>
<trkpt lat="-28.2373685" lon="152.4809677">
<ele>776.203</ele>
<time>2016-01-16T02:03:40.880Z</time>
</trkpt>
<trkpt lat="-28.2375949" lon="152.4808182">
<ele>772.618</ele>
<time>2016-01-16T02:03:42.902Z</time>
</trkpt>
<trkpt lat="-28.2377436" lon="152.4806331">
<ele>769.318</ele>
<time>2016-01-16T02:03:44.797Z</time>
</trkpt>
<trkpt lat="-28.2379488" lon="152.4803629">
<ele>767.135</ele>
<time>2016-01-16T02:03:47.699Z</time>
</trkpt>
<trkpt lat="-28.2379345" lon="152.4800477">
<ele>765.694</ele>
<time>2016-01-16T02:03:50.330Z</time>
</trkpt>
<trkpt lat="-28.2378341" lon="152.4796760">
<ele>764.912</ele>
<time>2016-01-16T02:03:53.065Z</time>
</trkpt>
<trkpt lat="-28.2377819" lon="152.4793147">
<ele>764.908</ele>
<time>2016-01-16T02:03:55.436Z</time>
</trkpt>
<trkpt lat="-28.2377291" lon="152.4788681">
<ele>765.520</ele>
<time>2016-01-16T02:03:58.590Z</time>
</trkpt>
<trkpt lat="-28.2377601" lon="152.4785010">
<ele>766.396</ele>
<time>2016-01-16T02:04:01.312Z</time>
</trkpt>
<trkpt lat="-28.2378530" lon="152.4782566">
<ele>767.049</ele>
<time>2016-01-16T02:04:03.097Z</time>
</trkpt>
<trkpt lat="-28.2381422" lon="152.4779134">
<ele>767.163</ele>
<time>2016-01-16T02:04:05.978Z</time>
</trkpt>
<trkpt lat="-28.2385099" lon="152.4775372">
<ele>766.340</ele>
<time>2016-01-16T02:04:09.156Z</time>
</trkpt>
<trkpt lat="-28.2387397" lon="152.4772763">
<ele>764.653</ele>
<time>2016-01-16T02:04:11.255Z</time>
</trkpt>
<trkpt lat="-28.2389453" lon="152.4770288">
<ele>763.154</ele>
<time>2016-01-16T02:04:13.307Z</time>
</trkpt>
<trkpt lat="-28.2391173" lon="152.4766170">
<ele>762.581</ele>
<time>2016-01-16T02:04:16.125Z</time>
</trkpt>
<trkpt lat="-28.2391431" lon="152.4763008">
<ele>762.551</ele>
<time>2016-01-16T02:04:18.027Z</time>
</trkpt>
<trkpt lat="-28.2391697" lon="152.4759726">
<ele>762.567</ele>
<time>2016-01-16T02:04:20.014Z</time>
</trkpt>
<trkpt lat="-28.2392598" lon="152.4754919">
<ele>762.608</ele>
<time>2016-01-16T02:04:23.006Z</time>
</trkpt>
<trkpt lat="-28.2393808" lon="152.4751959">
<ele>763.105</ele>
<time>2016-01-16T02:04:24.992Z</time>
</trkpt>
<trkpt lat="-28.2396146" lon="152.4747983">
<ele>764.271</ele>
<time>2016-01-16T02:04:27.870Z</time>
</trkpt>
<trkpt lat="-28.2399386" lon="152.4744606">
<ele>765.441</ele>
<time>2016-01-16T02:04:30.785Z</time>
</trkpt>
<trkpt lat="-28.2402147" lon="152.4743056">
<ele>765.695</ele>
<time>2016-01-16T02:04:32.758Z</time>
</trkpt>
<trkpt lat="-28.2406534" lon="152.4741485">
<ele>765.097</ele>
<time>2016-01-16T02:04:35.640Z</time>
</trkpt>
<trkpt lat="-28.2411358" lon="152.4740145">
<ele>764.599</ele>
<time>2016-01-16T02:04:38.631Z</time>
</trkpt>
<trkpt lat="-28.2414799" lon="152.4739264">
<ele>764.765</ele>
<time>2016-01-16T02:04:40.623Z</time>
</trkpt>
<trkpt lat="-28.2419871" lon="152.4737133">
<ele>765.234</ele>
<time>2016-01-16T02:04:43.609Z</time>
</trkpt>
<trkpt lat="-28.2424773" lon="152.4734609">
<ele>765.403</ele>
<time>2016-01-16T02:04:46.569Z</time>
</trkpt>
<trkpt lat="-28.2427886" lon="152.4732764">
<ele>764.938</ele>
<time>2016-01-16T02:04:48.525Z</time>
</trkpt>
<trkpt lat="-28.2430951" lon="152.4730885">
<ele>763.965</ele>
<time>2016-01-16T02:04:50.561Z</time>
</trkpt>
<trkpt lat="-28.2435513" lon="152.4729208">
<ele>762.813</ele>
<time>2016-01-16T02:04:53.431Z</time>
</trkpt>
<trkpt lat="-28.2438966" lon="152.4728920">
<ele>761.583</ele>
<time>2016-01-16T02:04:55.454Z</time>
</trkpt>
<trkpt lat="-28.2444193" lon="152.4728629">
<ele>759.877</ele>
<time>2016-01-16T02:04:58.485Z</time>
</trkpt>
<trkpt lat="-28.2447389" lon="152.4728117">
<ele>757.367</ele>
<time>2016-01-16T02:05:00.591Z</time>
</trkpt>
<trkpt lat="-28.2450950" lon="152.4726719">
<ele>754.640</ele>
<time>2016-01-16T02:05:03.443Z</time>
</trkpt>
<trkpt lat="-28.2452933" lon="152.4726377">
<ele>752.623</ele>
<time>2016-01-16T02:05:05.390Z</time>
</trkpt>
<trkpt lat="-28.2455070" lon="152.4728604">
<ele>751.409</ele>
<time>2016-01-16T02:05:08.394Z</time>
</trkpt>
<trkpt lat="-28.2456100" lon="152.4730796">
<ele>750.639</ele>
<time>2016-01-16T02:05:10.389Z</time>
</trkpt>
<trkpt lat="-28.2458211" lon="152.4734408">
<ele>750.081</ele>
<time>2016-01-16T02:05:13.612Z</time>
</trkpt>
<trkpt lat="-28.2460098" lon="152.4737597">
<ele>749.632</ele>
<time>2016-01-16T02:05:16.554Z</time>
</trkpt>
<trkpt lat="-28.2461291" lon="152.4739508">
<ele>748.930</ele>
<time>2016-01-16T02:05:18.499Z</time>
</trkpt>
<trkpt lat="-28.2463112" lon="152.4740508">
<ele>747.831</ele>
<time>2016-01-16T02:05:20.378Z</time>
</trkpt>
<trkpt lat="-28.2465330" lon="152.4741193">
<ele>746.979</ele>
<time>2016-01-16T02:05:22.316Z</time>
</trkpt>
<trkpt lat="-28.2469305" lon="152.4740231">
<ele>746.949</ele>
<time>2016-01-16T02:05:25.430Z</time>
</trkpt>
<trkpt lat="-28.2471970" lon="152.4739125">
<ele>747.437</ele>
<time>2016-01-16T02:05:27.267Z</time>
</trkpt>
<trkpt lat="-28.2475668" lon="152.4737686">
<ele>747.859</ele>
<time>2016-01-16T02:05:29.463Z</time>
</trkpt>
<trkpt lat="-28.2479037" lon="152.4736202">
<ele>747.695</ele>
<time>2016-01-16T02:05:31.339Z</time>
</trkpt>
<trkpt lat="-28.2484445" lon="152.4733636">
<ele>746.615</ele>
<time>2016-01-16T02:05:34.309Z</time>
</trkpt>
<trkpt lat="-28.2488018" lon="152.4731666">
<ele>745.036</ele>
<time>2016-01-16T02:05:36.298Z</time>
</trkpt>
<trkpt lat="-28.2493278" lon="152.4729193">
<ele>743.677</ele>
<time>2016-01-16T02:05:39.192Z</time>
</trkpt>
<trkpt lat="-28.2496694" lon="152.4727522">
<ele>742.912</ele>
<time>2016-01-16T02:05:41.128Z</time>
</trkpt>
<trkpt lat="-28.2502234" lon="152.4724828">
<ele>742.823</ele>
<time>2016-01-16T02:05:44.240Z</time>
</trkpt>
<trkpt lat="-28.2505726" lon="152.4723055">
<ele>743.702</ele>
<time>2016-01-16T02:05:46.167Z</time>
</trkpt>
<trkpt lat="-28.2511263" lon="152.4720379">
<ele>745.450</ele>
<time>2016-01-16T02:05:49.158Z</time>
</trkpt>
<trkpt lat="-28.2516789" lon="152.4717560">
<ele>747.003</ele>
<time>2016-01-16T02:05:52.195Z</time>
</trkpt>
<trkpt lat="-28.2521540" lon="152.4714325">
<ele>747.517</ele>
<time>2016-01-16T02:05:55.101Z</time>
</trkpt>
<trkpt lat="-28.2526125" lon="152.4710277">
<ele>747.641</ele>
<time>2016-01-16T02:05:58.170Z</time>
</trkpt>
<trkpt lat="-28.2529027" lon="152.4707428">
<ele>748.075</ele>
<time>2016-01-16T02:06:00.120Z</time>
</trkpt>
<trkpt lat="-28.2533618" lon="152.4702543">
<ele>748.571</ele>
<time>2016-01-16T02:06:03.231Z</time>
</trkpt>
<trkpt lat="-28.2538054" lon="152.4697533">
<ele>748.714</ele>
<time>2016-01-16T02:06:06.244Z</time>
</trkpt>
<trkpt lat="-28.2540670" lon="152.4694271">
<ele>748.623</ele>
<time>2016-01-16T02:06:08.134Z</time>
</trkpt>
<trkpt lat="-28.2545034" lon="152.4689993">
<ele>748.496</ele>
<time>2016-01-16T02:06:10.970Z</time>
</trkpt>
<trkpt lat="-28.2548476" lon="152.4687609">
<ele>747.833</ele>
<time>2016-01-16T02:06:12.947Z</time>
</trkpt>
<trkpt lat="-28.2553714" lon="152.4684049">
<ele>746.273</ele>
<time>2016-01-16T02:06:15.908Z</time>
</trkpt>
<trkpt lat="-28.2558859" lon="152.4679637">
<ele>744.543</ele>
<time>2016-01-16T02:06:18.976Z</time>
</trkpt>
<trkpt lat="-28.2564004" lon="152.4675208">
<ele>743.440</ele>
<time>2016-01-16T02:06:22.007Z</time>
</trkpt>
<trkpt lat="-28.2567072" lon="152.4672413">
<ele>743.108</ele>
<time>2016-01-16T02:06:23.893Z</time>
</trkpt>
<trkpt lat="-28.2570199" lon="152.4669551">
<ele>743.395</ele>
<time>2016-01-16T02:06:25.885Z</time>
</trkpt>
<trkpt lat="-28.2574597" lon="152.4665407">
<ele>743.824</ele>
<time>2016-01-16T02:06:28.802Z</time>
</trkpt>
<trkpt lat="-28.2577370" lon="152.4662229">
<ele>744.026</ele>
<time>2016-01-16T02:06:30.867Z</time>
</trkpt>
<trkpt lat="-28.2580069" lon="152.4659820">
<ele>743.982</ele>
<time>2016-01-16T02:06:32.760Z</time>
</trkpt>
<trkpt lat="-28.2582628" lon="152.4657695">
<ele>743.593</ele>
<time>2016-01-16T02:06:34.663Z</time>
</trkpt>
<trkpt lat="-28.2585001" lon="152.4655620">
<ele>742.832</ele>
<time>2016-01-16T02:06:36.603Z</time>
</trkpt>
<trkpt lat="-28.2587567" lon="152.4651898">
<ele>742.113</ele>
<time>2016-01-16T02:06:39.401Z</time>
</trkpt>
<trkpt lat="-28.2588297" lon="152.4648013">
<ele>741.897</ele>
<time>2016-01-16T02:06:41.688Z</time>
</trkpt>
<trkpt lat="-28.2588928" lon="152.4641746">
<ele>742.032</ele>
<time>2016-01-16T02:06:45.045Z</time>
</trkpt>
<trkpt lat="-28.2590136" lon="152.4636528">
<ele>742.211</ele>
<time>2016-01-16T02:06:47.843Z</time>
</trkpt>
<trkpt lat="-28.2592179" lon="152.4632961">
<ele>742.112</ele>
<time>2016-01-16T02:06:50.028Z</time>
</trkpt>
<trkpt lat="-28.2595557" lon="152.4627373">
<ele>741.478</ele>
<time>2016-01-16T02:06:53.345Z</time>
</trkpt>
<trkpt lat="-28.2597606" lon="152.4624237">
<ele>740.522</ele>
<time>2016-01-16T02:06:55.211Z</time>
</trkpt>
<trkpt lat="-28.2601272" lon="152.4619527">
<ele>739.557</ele>
<time>2016-01-16T02:06:58.279Z</time>
</trkpt>
<trkpt lat="-28.2603465" lon="152.4616740">
<ele>738.621</ele>
<time>2016-01-16T02:07:00.236Z</time>
</trkpt>
<trkpt lat="-28.2605710" lon="152.4614192">
<ele>737.685</ele>
<time>2016-01-16T02:07:02.193Z</time>
</trkpt>
<trkpt lat="-28.2610238" lon="152.4611545">
<ele>736.440</ele>
<time>2016-01-16T02:07:05.256Z</time>
</trkpt>
<trkpt lat="-28.2614178" lon="152.4611353">
<ele>734.894</ele>
<time>2016-01-16T02:07:07.447Z</time>
</trkpt>
<trkpt lat="-28.2617807" lon="152.4610880">
<ele>733.541</ele>
<time>2016-01-16T02:07:09.427Z</time>
</trkpt>
<trkpt lat="-28.2621367" lon="152.4610345">
<ele>732.495</ele>
<time>2016-01-16T02:07:11.379Z</time>
</trkpt>
<trkpt lat="-28.2624781" lon="152.4608913">
<ele>731.685</ele>
<time>2016-01-16T02:07:13.359Z</time>
</trkpt>
<trkpt lat="-28.2627771" lon="152.4606539">
<ele>731.196</ele>
<time>2016-01-16T02:07:15.333Z</time>
</trkpt>
<trkpt lat="-28.2632028" lon="152.4602619">
<ele>730.998</ele>
<time>2016-01-16T02:07:18.305Z</time>
</trkpt>
<trkpt lat="-28.2634729" lon="152.4600056">
<ele>730.956</ele>
<time>2016-01-16T02:07:20.267Z</time>
</trkpt>
<trkpt lat="-28.2638780" lon="152.4596523">
<ele>730.794</ele>
<time>2016-01-16T02:07:23.149Z</time>
</trkpt>
<trkpt lat="-28.2643186" lon="152.4592411">
<ele>730.342</ele>
<time>2016-01-16T02:07:26.338Z</time>
</trkpt>
<trkpt lat="-28.2647457" lon="152.4588674">
<ele>729.946</ele>
<time>2016-01-16T02:07:29.292Z</time>
</trkpt>
<trkpt lat="-28.2651609" lon="152.4584867">
<ele>729.928</ele>
<time>2016-01-16T02:07:32.193Z</time>
</trkpt>
<trkpt lat="-28.2654410" lon="152.4582301">
<ele>730.107</ele>
<time>2016-01-16T02:07:34.161Z</time>
</trkpt>
<trkpt lat="-28.2658625" lon="152.4578424">
<ele>730.283</ele>
<time>2016-01-16T02:07:37.148Z</time>
</trkpt>
<trkpt lat="-28.2661535" lon="152.4575832">
<ele>730.927</ele>
<time>2016-01-16T02:07:39.179Z</time>
</trkpt>
<trkpt lat="-28.2664384" lon="152.4573372">
<ele>732.520</ele>
<time>2016-01-16T02:07:41.212Z</time>
</trkpt>
<trkpt lat="-28.2668072" lon="152.4569959">
<ele>734.406</ele>
<time>2016-01-16T02:07:44.160Z</time>
</trkpt>
<trkpt lat="-28.2671080" lon="152.4567116">
<ele>735.351</ele>
<time>2016-01-16T02:07:47.031Z</time>
</trkpt>
<trkpt lat="-28.2672540" lon="152.4565940">
<ele>735.088</ele>
<time>2016-01-16T02:07:48.601Z</time>
</trkpt>
<trkpt lat="-28.2674972" lon="152.4564027">
<ele>734.350</ele>
<time>2016-01-16T02:07:51.418Z</time>
</trkpt>
<trkpt lat="-28.2677830" lon="152.4561670">
<ele>733.844</ele>
<time>2016-01-16T02:07:54.645Z</time>
</trkpt>
<trkpt lat="-28.2680745" lon="152.4559183">
<ele>733.655</ele>
<time>2016-01-16T02:07:57.724Z</time>
</trkpt>
<trkpt lat="-28.2682706" lon="152.4557549">
<ele>733.624</ele>
<time>2016-01-16T02:07:59.696Z</time>
</trkpt>
<trkpt lat="-28.2684761" lon="152.4555641">
<ele>733.526</ele>
<time>2016-01-16T02:08:01.748Z</time>
</trkpt>
<trkpt lat="-28.2686711" lon="152.4553583">
<ele>733.009</ele>
<time>2016-01-16T02:08:03.705Z</time>
</trkpt>
<trkpt lat="-28.2689254" lon="152.4551404">
<ele>731.599</ele>
<time>2016-01-16T02:08:05.916Z</time>
</trkpt>
<trkpt lat="-28.2692972" lon="152.4547998">
<ele>729.476</ele>
<time>2016-01-16T02:08:09.118Z</time>
</trkpt>
<trkpt lat="-28.2695203" lon="152.4546001">
<ele>727.195</ele>
<time>2016-01-16T02:08:11.010Z</time>
</trkpt>
<trkpt lat="-28.2697395" lon="152.4544126">
<ele>724.905</ele>
<time>2016-01-16T02:08:12.855Z</time>
</trkpt>
<trkpt lat="-28.2699710" lon="152.4542003">
<ele>722.792</ele>
<time>2016-01-16T02:08:14.874Z</time>
</trkpt>
<trkpt lat="-28.2704306" lon="152.4537900">
<ele>721.372</ele>
<time>2016-01-16T02:08:18.956Z</time>
</trkpt>
<trkpt lat="-28.2706380" lon="152.4536158">
<ele>720.872</ele>
<time>2016-01-16T02:08:20.925Z</time>
</trkpt>
<trkpt lat="-28.2708926" lon="152.4533719">
<ele>721.084</ele>
<time>2016-01-16T02:08:23.667Z</time>
</trkpt>
<trkpt lat="-28.2711354" lon="152.4531140">
<ele>721.487</ele>
<time>2016-01-16T02:08:26.515Z</time>
</trkpt>
<trkpt lat="-28.2713075" lon="152.4528951">
<ele>722.098</ele>
<time>2016-01-16T02:08:28.528Z</time>
</trkpt>
<trkpt lat="-28.2714953" lon="152.4526430">
<ele>723.129</ele>
<time>2016-01-16T02:08:30.494Z</time>
</trkpt>
<trkpt lat="-28.2718608" lon="152.4522135">
<ele>724.102</ele>
<time>2016-01-16T02:08:33.608Z</time>
</trkpt>
<trkpt lat="-28.2721324" lon="152.4519003">
<ele>724.373</ele>
<time>2016-01-16T02:08:35.650Z</time>
</trkpt>
<trkpt lat="-28.2724286" lon="152.4515737">
<ele>723.992</ele>
<time>2016-01-16T02:08:37.796Z</time>
</trkpt>
<trkpt lat="-28.2728712" lon="152.4512032">
<ele>723.667</ele>
<time>2016-01-16T02:08:40.822Z</time>
</trkpt>
<trkpt lat="-28.2731226" lon="152.4509766">
<ele>724.309</ele>
<time>2016-01-16T02:08:42.762Z</time>
</trkpt>
<trkpt lat="-28.2733687" lon="152.4505738">
<ele>726.043</ele>
<time>2016-01-16T02:08:45.502Z</time>
</trkpt>
<trkpt lat="-28.2734992" lon="152.4500788">
<ele>728.266</ele>
<time>2016-01-16T02:08:48.453Z</time>
</trkpt>
<trkpt lat="-28.2735712" lon="152.4494980">
<ele>730.227</ele>
<time>2016-01-16T02:08:51.623Z</time>
</trkpt>
<trkpt lat="-28.2736282" lon="152.4489259">
<ele>731.233</ele>
<time>2016-01-16T02:08:54.595Z</time>
</trkpt>
<trkpt lat="-28.2736670" lon="152.4485445">
<ele>730.998</ele>
<time>2016-01-16T02:08:56.543Z</time>
</trkpt>
<trkpt lat="-28.2737717" lon="152.4479868">
<ele>729.880</ele>
<time>2016-01-16T02:08:59.374Z</time>
</trkpt>
<trkpt lat="-28.2738340" lon="152.4475634">
<ele>728.228</ele>
<time>2016-01-16T02:09:01.517Z</time>
</trkpt>
<trkpt lat="-28.2739239" lon="152.4470698">
<ele>725.959</ele>
<time>2016-01-16T02:09:04.288Z</time>
</trkpt>
<trkpt lat="-28.2740269" lon="152.4468410">
<ele>722.835</ele>
<time>2016-01-16T02:09:06.002Z</time>
</trkpt>
<trkpt lat="-28.2741935" lon="152.4467136">
<ele>719.507</ele>
<time>2016-01-16T02:09:07.866Z</time>
</trkpt>
<trkpt lat="-28.2745285" lon="152.4466303">
<ele>717.276</ele>
<time>2016-01-16T02:09:11.014Z</time>
</trkpt>
<trkpt lat="-28.2748330" lon="152.4465775">
<ele>716.628</ele>
<time>2016-01-16T02:09:13.302Z</time>
</trkpt>
<trkpt lat="-28.2753145" lon="152.4464977">
<ele>717.156</ele>
<time>2016-01-16T02:09:16.411Z</time>
</trkpt>
<trkpt lat="-28.2758228" lon="152.4464164">
<ele>718.276</ele>
<time>2016-01-16T02:09:19.495Z</time>
</trkpt>
<trkpt lat="-28.2761361" lon="152.4463537">
<ele>719.396</ele>
<time>2016-01-16T02:09:21.422Z</time>
</trkpt>
<trkpt lat="-28.2765813" lon="152.4461643">
<ele>720.307</ele>
<time>2016-01-16T02:09:24.278Z</time>
</trkpt>
<trkpt lat="-28.2769215" lon="152.4460143">
<ele>721.043</ele>
<time>2016-01-16T02:09:26.366Z</time>
</trkpt>
<trkpt lat="-28.2772612" lon="152.4459114">
<ele>721.946</ele>
<time>2016-01-16T02:09:28.319Z</time>
</trkpt>
<trkpt lat="-28.2777927" lon="152.4458006">
<ele>723.385</ele>
<time>2016-01-16T02:09:31.300Z</time>
</trkpt>
<trkpt lat="-28.2781100" lon="152.4457240">
<ele>724.998</ele>
<time>2016-01-16T02:09:33.164Z</time>
</trkpt>
<trkpt lat="-28.2783917" lon="152.4456473">
<ele>726.252</ele>
<time>2016-01-16T02:09:35.005Z</time>
</trkpt>
<trkpt lat="-28.2786864" lon="152.4454923">
<ele>727.231</ele>
<time>2016-01-16T02:09:37.554Z</time>
</trkpt>
<trkpt lat="-28.2789220" lon="152.4453484">
<ele>728.201</ele>
<time>2016-01-16T02:09:40.119Z</time>
</trkpt>
<trkpt lat="-28.2790924" lon="152.4452368">
<ele>729.105</ele>
<time>2016-01-16T02:09:42.140Z</time>
</trkpt>
<trkpt lat="-28.2792995" lon="152.4451275">
<ele>729.657</ele>
<time>2016-01-16T02:09:44.361Z</time>
</trkpt>
<trkpt lat="-28.2795012" lon="152.4450066">
<ele>729.802</ele>
<time>2016-01-16T02:09:46.371Z</time>
</trkpt>
<trkpt lat="-28.2798474" lon="152.4447840">
<ele>729.533</ele>
<time>2016-01-16T02:09:49.634Z</time>
</trkpt>
<trkpt lat="-28.2800721" lon="152.4446525">
<ele>728.901</ele>
<time>2016-01-16T02:09:51.652Z</time>
</trkpt>
<trkpt lat="-28.2803914" lon="152.4445535">
<ele>728.417</ele>
<time>2016-01-16T02:09:54.438Z</time>
</trkpt>
<trkpt lat="-28.2806317" lon="152.4445465">
<ele>728.520</ele>
<time>2016-01-16T02:09:56.548Z</time>
</trkpt>
<trkpt lat="-28.2809961" lon="152.4445253">
<ele>729.141</ele>
<time>2016-01-16T02:09:59.752Z</time>
</trkpt>
<trkpt lat="-28.2812463" lon="152.4445976">
<ele>730.245</ele>
<time>2016-01-16T02:10:01.941Z</time>
</trkpt>
<trkpt lat="-28.2815342" lon="152.4448014">
<ele>732.040</ele>
<time>2016-01-16T02:10:04.741Z</time>
</trkpt>
<trkpt lat="-28.2818031" lon="152.4450661">
<ele>734.724</ele>
<time>2016-01-16T02:10:07.674Z</time>
</trkpt>
<trkpt lat="-28.2820008" lon="152.4452350">
<ele>738.099</ele>
<time>2016-01-16T02:10:09.710Z</time>
</trkpt>
<trkpt lat="-28.2824118" lon="152.4453435">
<ele>741.241</ele>
<time>2016-01-16T02:10:13.124Z</time>
</trkpt>
<trkpt lat="-28.2826368" lon="152.4453613">
<ele>743.410</ele>
<time>2016-01-16T02:10:14.984Z</time>
</trkpt>
<trkpt lat="-28.2829081" lon="152.4455381">
<ele>745.274</ele>
<time>2016-01-16T02:10:17.741Z</time>
</trkpt>
<trkpt lat="-28.2831503" lon="152.4456677">
<ele>747.987</ele>
<time>2016-01-16T02:10:20.409Z</time>
</trkpt>
<trkpt lat="-28.2833285" lon="152.4456464">
<ele>751.291</ele>
<time>2016-01-16T02:10:22.381Z</time>
</trkpt>
<trkpt lat="-28.2835521" lon="152.4454457">
<ele>753.874</ele>
<time>2016-01-16T02:10:25.573Z</time>
</trkpt>
<trkpt lat="-28.2836723" lon="152.4452637">
<ele>755.666</ele>
<time>2016-01-16T02:10:27.711Z</time>
</trkpt>
<trkpt lat="-28.2836688" lon="152.4450002">
<ele>757.473</ele>
<time>2016-01-16T02:10:30.048Z</time>
</trkpt>
<trkpt lat="-28.2836641" lon="152.4445826">
<ele>759.137</ele>
<time>2016-01-16T02:10:33.414Z</time>
</trkpt>
<trkpt lat="-28.2836598" lon="152.4442197">
<ele>760.252</ele>
<time>2016-01-16T02:10:36.392Z</time>
</trkpt>
<trkpt lat="-28.2836814" lon="152.4439605">
<ele>760.999</ele>
<time>2016-01-16T02:10:38.899Z</time>
</trkpt>
<trkpt lat="-28.2838182" lon="152.4438132">
<ele>761.885</ele>
<time>2016-01-16T02:10:41.226Z</time>
</trkpt>
<trkpt lat="-28.2841024" lon="152.4436550">
<ele>763.240</ele>
<time>2016-01-16T02:10:44.811Z</time>
</trkpt>
<trkpt lat="-28.2842370" lon="152.4435461">
<ele>764.599</ele>
<time>2016-01-16T02:10:46.613Z</time>
</trkpt>
<trkpt lat="-28.2844848" lon="152.4435055">
<ele>765.575</ele>
<time>2016-01-16T02:10:49.375Z</time>
</trkpt>
<trkpt lat="-28.2847062" lon="152.4437439">
<ele>766.673</ele>
<time>2016-01-16T02:10:52.561Z</time>
</trkpt>
<trkpt lat="-28.2848286" lon="152.4439436">
<ele>768.480</ele>
<time>2016-01-16T02:10:54.645Z</time>
</trkpt>
<trkpt lat="-28.2849416" lon="152.4440796">
<ele>770.855</ele>
<time>2016-01-16T02:10:56.253Z</time>
</trkpt>
<trkpt lat="-28.2851939" lon="152.4442933">
<ele>772.919</ele>
<time>2016-01-16T02:10:59.304Z</time>
</trkpt>
<trkpt lat="-28.2854293" lon="152.4444174">
<ele>774.255</ele>
<time>2016-01-16T02:11:01.611Z</time>
</trkpt>
<trkpt lat="-28.2858778" lon="152.4445320">
<ele>775.716</ele>
<time>2016-01-16T02:11:05.556Z</time>
</trkpt>
<trkpt lat="-28.2861509" lon="152.4445530">
<ele>778.097</ele>
<time>2016-01-16T02:11:07.862Z</time>
</trkpt>
<trkpt lat="-28.2864932" lon="152.4446372">
<ele>780.924</ele>
<time>2016-01-16T02:11:10.844Z</time>
</trkpt>
<trkpt lat="-28.2868010" lon="152.4447498">
<ele>783.407</ele>
<time>2016-01-16T02:11:13.802Z</time>
</trkpt>
<trkpt lat="-28.2869486" lon="152.4446040">
<ele>785.660</ele>
<time>2016-01-16T02:11:15.866Z</time>
</trkpt>
<trkpt lat="-28.2871160" lon="152.4445170">
<ele>787.779</ele>
<time>2016-01-16T02:11:17.901Z</time>
</trkpt>
<trkpt lat="-28.2873248" lon="152.4443183">
<ele>789.181</ele>
<time>2016-01-16T02:11:20.710Z</time>
</trkpt>
<trkpt lat="-28.2876201" lon="152.4441263">
<ele>790.012</ele>
<time>2016-01-16T02:11:23.787Z</time>
</trkpt>
<trkpt lat="-28.2878564" lon="152.4439546">
<ele>791.507</ele>
<time>2016-01-16T02:11:26.057Z</time>
</trkpt>
<trkpt lat="-28.2880633" lon="152.4438366">
<ele>794.159</ele>
<time>2016-01-16T02:11:27.976Z</time>
</trkpt>
<trkpt lat="-28.2883565" lon="152.4437049">
<ele>797.270</ele>
<time>2016-01-16T02:11:30.868Z</time>
</trkpt>
<trkpt lat="-28.2885024" lon="152.4436401">
<ele>799.918</ele>
<time>2016-01-16T02:11:32.542Z</time>
</trkpt>
<trkpt lat="-28.2886980" lon="152.4434252">
<ele>801.553</ele>
<time>2016-01-16T02:11:35.578Z</time>
</trkpt>
<trkpt lat="-28.2886734" lon="152.4431422">
<ele>802.468</ele>
<time>2016-01-16T02:11:38.276Z</time>
</trkpt>
<trkpt lat="-28.2888934" lon="152.4428821">
<ele>803.498</ele>
<time>2016-01-16T02:11:41.611Z</time>
</trkpt>
<trkpt lat="-28.2891828" lon="152.4427470">
<ele>804.719</ele>
<time>2016-01-16T02:11:44.962Z</time>
</trkpt>
<trkpt lat="-28.2893400" lon="152.4426936">
<ele>805.569</ele>
<time>2016-01-16T02:11:46.822Z</time>
</trkpt>
<trkpt lat="-28.2895984" lon="152.4428196">
<ele>806.207</ele>
<time>2016-01-16T02:11:50.094Z</time>
</trkpt>
<trkpt lat="-28.2898313" lon="152.4428848">
<ele>809.165</ele>
<time>2016-01-16T02:11:52.897Z</time>
</trkpt>
<trkpt lat="-28.2900905" lon="152.4427428">
<ele>815.816</ele>
<time>2016-01-16T02:11:56.189Z</time>
</trkpt>
<trkpt lat="-28.2902304" lon="152.4426501">
<ele>822.844</ele>
<time>2016-01-16T02:11:58.034Z</time>
</trkpt>
<trkpt lat="-28.2904244" lon="152.4424327">
<ele>826.886</ele>
<time>2016-01-16T02:12:01.068Z</time>
</trkpt>
<trkpt lat="-28.2905951" lon="152.4422030">
<ele>828.369</ele>
<time>2016-01-16T02:12:03.924Z</time>
</trkpt>
<trkpt lat="-28.2906625" lon="152.4419970">
<ele>828.657</ele>
<time>2016-01-16T02:12:05.906Z</time>
</trkpt>
<trkpt lat="-28.2907710" lon="152.4418045">
<ele>828.578</ele>
<time>2016-01-16T02:12:07.955Z</time>
</trkpt>
<trkpt lat="-28.2909990" lon="152.4415644">
<ele>828.610</ele>
<time>2016-01-16T02:12:11.190Z</time>
</trkpt>
<trkpt lat="-28.2912599" lon="152.4414430">
<ele>829.710</ele>
<time>2016-01-16T02:12:14.674Z</time>
</trkpt>
<trkpt lat="-28.2913675" lon="152.4413907">
<ele>832.899</ele>
<time>2016-01-16T02:12:16.610Z</time>
</trkpt>
<trkpt lat="-28.2914773" lon="152.4413359">
<ele>838.173</ele>
<time>2016-01-16T02:12:18.619Z</time>
</trkpt>
<trkpt lat="-28.2916322" lon="152.4412857">
<ele>844.113</ele>
<time>2016-01-16T02:12:20.785Z</time>
</trkpt>
<trkpt lat="-28.2919374" lon="152.4412468">
<ele>849.157</ele>
<time>2016-01-16T02:12:24.219Z</time>
</trkpt>
<trkpt lat="-28.2922777" lon="152.4411626">
<ele>852.651</ele>
<time>2016-01-16T02:12:27.583Z</time>
</trkpt>
<trkpt lat="-28.2926175" lon="152.4411656">
<ele>854.751</ele>
<time>2016-01-16T02:12:31.024Z</time>
</trkpt>
<trkpt lat="-28.2927690" lon="152.4412255">
<ele>855.904</ele>
<time>2016-01-16T02:12:32.837Z</time>
</trkpt>
<trkpt lat="-28.2929154" lon="152.4413509">
<ele>857.209</ele>
<time>2016-01-16T02:12:34.985Z</time>
</trkpt>
<trkpt lat="-28.2929519" lon="152.4416299">
<ele>859.122</ele>
<time>2016-01-16T02:12:38.248Z</time>
</trkpt>
<trkpt lat="-28.2927907" lon="152.4418699">
<ele>860.922</ele>
<time>2016-01-16T02:12:41.970Z</time>
</trkpt>
<trkpt lat="-28.2926181" lon="152.4419015">
<ele>862.572</ele>
<time>2016-01-16T02:12:44.385Z</time>
</trkpt>
<trkpt lat="-28.2923607" lon="152.4418213">
<ele>865.006</ele>
<time>2016-01-16T02:12:54.373Z</time>
</trkpt>
<trkpt lat="-28.2922210" lon="152.4417598">
<ele>868.281</ele>
<time>2016-01-16T02:12:58.992Z</time>
</trkpt>
<trkpt lat="-28.2921332" lon="152.4417327">
<ele>871.374</ele>
<time>2016-01-16T02:13:00.680Z</time>
</trkpt>
<trkpt lat="-28.2920395" lon="152.4417710">
<ele>873.303</ele>
<time>2016-01-16T02:13:02.081Z</time>
</trkpt>
<trkpt lat="-28.2919539" lon="152.4418399">
<ele>874.002</ele>
<time>2016-01-16T02:13:03.458Z</time>
</trkpt>
<trkpt lat="-28.2919964" lon="152.4419536">
<ele>875.138</ele>
<time>2016-01-16T02:13:04.825Z</time>
</trkpt>
<trkpt lat="-28.2922128" lon="152.4420990">
<ele>878.489</ele>
<time>2016-01-16T02:13:08.006Z</time>
</trkpt>
<trkpt lat="-28.2924131" lon="152.4422351">
<ele>883.743</ele>
<time>2016-01-16T02:13:11.134Z</time>
</trkpt>
<trkpt lat="-28.2925474" lon="152.4423310">
<ele>889.498</ele>
<time>2016-01-16T02:13:13.200Z</time>
</trkpt>
<trkpt lat="-28.2927387" lon="152.4424289">
<ele>894.453</ele>
<time>2016-01-16T02:13:15.800Z</time>
</trkpt>
<trkpt lat="-28.2929691" lon="152.4425071">
<ele>897.408</ele>
<time>2016-01-16T02:13:18.691Z</time>
</trkpt>
<trkpt lat="-28.2932426" lon="152.4425723">
<ele>899.023</ele>
<time>2016-01-16T02:13:22.129Z</time>
</trkpt>
<trkpt lat="-28.2934700" lon="152.4426652">
<ele>901.431</ele>
<time>2016-01-16T02:13:24.988Z</time>
</trkpt>
<trkpt lat="-28.2935917" lon="152.4427166">
<ele>906.067</ele>
<time>2016-01-16T02:13:26.542Z</time>
</trkpt>
<trkpt lat="-28.2937945" lon="152.4428786">
<ele>912.549</ele>
<time>2016-01-16T02:13:29.533Z</time>
</trkpt>
<trkpt lat="-28.2939298" lon="152.4430164">
<ele>919.153</ele>
<time>2016-01-16T02:13:31.684Z</time>
</trkpt>
<trkpt lat="-28.2941030" lon="152.4431739">
<ele>924.475</ele>
<time>2016-01-16T02:13:34.127Z</time>
</trkpt>
<trkpt lat="-28.2943014" lon="152.4433732">
<ele>928.525</ele>
<time>2016-01-16T02:13:36.994Z</time>
</trkpt>
<trkpt lat="-28.2944714" lon="152.4435119">
<ele>932.122</ele>
<time>2016-01-16T02:13:39.189Z</time>
</trkpt>
<trkpt lat="-28.2946722" lon="152.4435577">
<ele>935.799</ele>
<time>2016-01-16T02:13:41.215Z</time>
</trkpt>
<trkpt lat="-28.2949685" lon="152.4434936">
<ele>939.115</ele>
<time>2016-01-16T02:13:44.395Z</time>
</trkpt>
<trkpt lat="-28.2951789" lon="152.4434339">
<ele>941.694</ele>
<time>2016-01-16T02:13:47.061Z</time>
</trkpt>
<trkpt lat="-28.2954022" lon="152.4433939">
<ele>943.739</ele>
<time>2016-01-16T02:13:49.786Z</time>
</trkpt>
<trkpt lat="-28.2955369" lon="152.4433523">
<ele>945.329</ele>
<time>2016-01-16T02:13:51.308Z</time>
</trkpt>
<trkpt lat="-28.2957262" lon="152.4432035">
<ele>946.533</ele>
<time>2016-01-16T02:13:53.661Z</time>
</trkpt>
<trkpt lat="-28.2958787" lon="152.4431313">
<ele>948.253</ele>
<time>2016-01-16T02:13:55.307Z</time>
</trkpt>
<trkpt lat="-28.2960979" lon="152.4428554">
<ele>950.911</ele>
<time>2016-01-16T02:13:58.616Z</time>
</trkpt>
<trkpt lat="-28.2962513" lon="152.4425420">
<ele>953.982</ele>
<time>2016-01-16T02:14:02.092Z</time>
</trkpt>
<trkpt lat="-28.2961729" lon="152.4422041">
<ele>957.531</ele>
<time>2016-01-16T02:14:05.553Z</time>
</trkpt>
<trkpt lat="-28.2961957" lon="152.4418923">
<ele>961.860</ele>
<time>2016-01-16T02:14:08.342Z</time>
</trkpt>
<trkpt lat="-28.2963099" lon="152.4417700">
<ele>966.080</ele>
<time>2016-01-16T02:14:09.830Z</time>
</trkpt>
<trkpt lat="-28.2964873" lon="152.4416193">
<ele>969.729</ele>
<time>2016-01-16T02:14:11.868Z</time>
</trkpt>
<trkpt lat="-28.2967366" lon="152.4414130">
<ele>972.967</ele>
<time>2016-01-16T02:14:14.667Z</time>
</trkpt>
<trkpt lat="-28.2969020" lon="152.4410443">
<ele>975.356</ele>
<time>2016-01-16T02:14:18.252Z</time>
</trkpt>
<trkpt lat="-28.2970165" lon="152.4407973">
<ele>976.993</ele>
<time>2016-01-16T02:14:20.860Z</time>
</trkpt>
<trkpt lat="-28.2971301" lon="152.4405296">
<ele>978.833</ele>
<time>2016-01-16T02:14:23.570Z</time>
</trkpt>
<trkpt lat="-28.2972291" lon="152.4403526">
<ele>980.784</ele>
<time>2016-01-16T02:14:25.377Z</time>
</trkpt>
<trkpt lat="-28.2973735" lon="152.4400546">
<ele>982.181</ele>
<time>2016-01-16T02:14:28.223Z</time>
</trkpt>
<trkpt lat="-28.2973735" lon="152.4396867">
<ele>983.199</ele>
<time>2016-01-16T02:14:31.294Z</time>
</trkpt>
<trkpt lat="-28.2972697" lon="152.4393214">
<ele>984.236</ele>
<time>2016-01-16T02:14:34.759Z</time>
</trkpt>
<trkpt lat="-28.2972239" lon="152.4391116">
<ele>985.325</ele>
<time>2016-01-16T02:14:36.787Z</time>
</trkpt>
<trkpt lat="-28.2971969" lon="152.4388710">
<ele>986.472</ele>
<time>2016-01-16T02:14:39.100Z</time>
</trkpt>
<trkpt lat="-28.2972754" lon="152.4386834">
<ele>987.526</ele>
<time>2016-01-16T02:14:41.113Z</time>
</trkpt>
<trkpt lat="-28.2973673" lon="152.4384380">
<ele>988.154</ele>
<time>2016-01-16T02:14:43.720Z</time>
</trkpt>
<trkpt lat="-28.2973988" lon="152.4381390">
<ele>988.695</ele>
<time>2016-01-16T02:14:46.652Z</time>
</trkpt>
<trkpt lat="-28.2975546" lon="152.4378784">
<ele>990.218</ele>
<time>2016-01-16T02:14:49.621Z</time>
</trkpt>
<trkpt lat="-28.2975913" lon="152.4376747">
<ele>992.842</ele>
<time>2016-01-16T02:14:51.556Z</time>
</trkpt>
<trkpt lat="-28.2976355" lon="152.4373565">
<ele>995.623</ele>
<time>2016-01-16T02:14:54.465Z</time>
</trkpt>
<trkpt lat="-28.2977408" lon="152.4370405">
<ele>999.007</ele>
<time>2016-01-16T02:14:57.206Z</time>
</trkpt>
<trkpt lat="-28.2978894" lon="152.4367453">
<ele>1003.837</ele>
<time>2016-01-16T02:14:59.735Z</time>
</trkpt>
<trkpt lat="-28.2979676" lon="152.4365018">
<ele>1008.603</ele>
<time>2016-01-16T02:15:01.616Z</time>
</trkpt>
<trkpt lat="-28.2980599" lon="152.4362654">
<ele>1011.341</ele>
<time>2016-01-16T02:15:03.492Z</time>
</trkpt>
<trkpt lat="-28.2981629" lon="152.4360018">
<ele>1012.071</ele>
<time>2016-01-16T02:15:05.565Z</time>
</trkpt>
<trkpt lat="-28.2982647" lon="152.4357544">
<ele>1011.894</ele>
<time>2016-01-16T02:15:07.443Z</time>
</trkpt>
<trkpt lat="-28.2982468" lon="152.4354815">
<ele>1011.831</ele>
<time>2016-01-16T02:15:09.291Z</time>
</trkpt>
<trkpt lat="-28.2981119" lon="152.4350419">
<ele>1012.280</ele>
<time>2016-01-16T02:15:12.345Z</time>
</trkpt>
<trkpt lat="-28.2980485" lon="152.4345764">
<ele>1012.920</ele>
<time>2016-01-16T02:15:15.256Z</time>
</trkpt>
<trkpt lat="-28.2980510" lon="152.4343012">
<ele>1013.549</ele>
<time>2016-01-16T02:15:16.835Z</time>
</trkpt>
<trkpt lat="-28.2980574" lon="152.4339539">
<ele>1014.297</ele>
<time>2016-01-16T02:15:18.824Z</time>
</trkpt>
<trkpt lat="-28.2981198" lon="152.4335433">
<ele>1015.007</ele>
<time>2016-01-16T02:15:21.216Z</time>
</trkpt>
<trkpt lat="-28.2980596" lon="152.4329628">
<ele>1015.413</ele>
<time>2016-01-16T02:15:24.598Z</time>
</trkpt>
<trkpt lat="-28.2979431" lon="152.4326591">
<ele>1015.665</ele>
<time>2016-01-16T02:15:26.572Z</time>
</trkpt>
<trkpt lat="-28.2978047" lon="152.4321546">
<ele>1016.012</ele>
<time>2016-01-16T02:15:29.852Z</time>
</trkpt>
<trkpt lat="-28.2978090" lon="152.4318301">
<ele>1016.478</ele>
<time>2016-01-16T02:15:31.913Z</time>
</trkpt>
<trkpt lat="-28.2977944" lon="152.4315470">
<ele>1017.004</ele>
<time>2016-01-16T02:15:33.724Z</time>
</trkpt>
<trkpt lat="-28.2976743" lon="152.4310746">
<ele>1017.643</ele>
<time>2016-01-16T02:15:36.929Z</time>
</trkpt>
<trkpt lat="-28.2975624" lon="152.4306063">
<ele>1019.351</ele>
<time>2016-01-16T02:15:40.181Z</time>
</trkpt>
<trkpt lat="-28.2975077" lon="152.4303215">
<ele>1022.500</ele>
<time>2016-01-16T02:15:42.108Z</time>
</trkpt>
<trkpt lat="-28.2975292" lon="152.4300391">
<ele>1025.443</ele>
<time>2016-01-16T02:15:43.971Z</time>
</trkpt>
<trkpt lat="-28.2974955" lon="152.4297494">
<ele>1026.845</ele>
<time>2016-01-16T02:15:45.943Z</time>
</trkpt>
<trkpt lat="-28.2975061" lon="152.4294346">
<ele>1027.518</ele>
<time>2016-01-16T02:15:48.104Z</time>
</trkpt>
<trkpt lat="-28.2974517" lon="152.4289846">
<ele>1028.476</ele>
<time>2016-01-16T02:15:51.228Z</time>
</trkpt>
<trkpt lat="-28.2974399" lon="152.4285852">
<ele>1029.827</ele>
<time>2016-01-16T02:15:53.908Z</time>
</trkpt>
<trkpt lat="-28.2974064" lon="152.4282961">
<ele>1031.316</ele>
<time>2016-01-16T02:15:55.872Z</time>
</trkpt>
<trkpt lat="-28.2973035" lon="152.4280053">
<ele>1032.673</ele>
<time>2016-01-16T02:15:57.913Z</time>
</trkpt>
<trkpt lat="-28.2971919" lon="152.4277364">
<ele>1033.474</ele>
<time>2016-01-16T02:15:59.809Z</time>
</trkpt>
<trkpt lat="-28.2971048" lon="152.4273200">
<ele>1033.854</ele>
<time>2016-01-16T02:16:02.546Z</time>
</trkpt>
<trkpt lat="-28.2971370" lon="152.4268553">
<ele>1034.235</ele>
<time>2016-01-16T02:16:05.758Z</time>
</trkpt>
<trkpt lat="-28.2973078" lon="152.4266057">
<ele>1034.590</ele>
<time>2016-01-16T02:16:08.248Z</time>
</trkpt>
<trkpt lat="-28.2974585" lon="152.4262280">
<ele>1034.650</ele>
<time>2016-01-16T02:16:11.896Z</time>
</trkpt>
<trkpt lat="-28.2975693" lon="152.4260272">
<ele>1034.233</ele>
<time>2016-01-16T02:16:14.076Z</time>
</trkpt>
<trkpt lat="-28.2977035" lon="152.4258484">
<ele>1033.415</ele>
<time>2016-01-16T02:16:16.164Z</time>
</trkpt>
<trkpt lat="-28.2978114" lon="152.4256233">
<ele>1032.621</ele>
<time>2016-01-16T02:16:18.132Z</time>
</trkpt>
<trkpt lat="-28.2977284" lon="152.4253176">
<ele>1032.270</ele>
<time>2016-01-16T02:16:20.462Z</time>
</trkpt>
<trkpt lat="-28.2975404" lon="152.4249150">
<ele>1032.519</ele>
<time>2016-01-16T02:16:23.704Z</time>
</trkpt>
<trkpt lat="-28.2975324" lon="152.4246638">
<ele>1033.525</ele>
<time>2016-01-16T02:16:25.531Z</time>
</trkpt>
<trkpt lat="-28.2975687" lon="152.4242307">
<ele>1035.033</ele>
<time>2016-01-16T02:16:28.795Z</time>
</trkpt>
<trkpt lat="-28.2975209" lon="152.4238418">
<ele>1035.930</ele>
<time>2016-01-16T02:16:31.735Z</time>
</trkpt>
<trkpt lat="-28.2973474" lon="152.4236266">
<ele>1035.261</ele>
<time>2016-01-16T02:16:33.844Z</time>
</trkpt>
<trkpt lat="-28.2971059" lon="152.4233626">
<ele>1033.550</ele>
<time>2016-01-16T02:16:36.598Z</time>
</trkpt>
<trkpt lat="-28.2969592" lon="152.4229931">
<ele>1032.072</ele>
<time>2016-01-16T02:16:39.618Z</time>
</trkpt>
<trkpt lat="-28.2968594" lon="152.4227476">
<ele>1031.357</ele>
<time>2016-01-16T02:16:41.782Z</time>
</trkpt>
<trkpt lat="-28.2966856" lon="152.4223910">
<ele>1031.007</ele>
<time>2016-01-16T02:16:45.174Z</time>
</trkpt>
<trkpt lat="-28.2965656" lon="152.4220209">
<ele>1030.386</ele>
<time>2016-01-16T02:16:48.424Z</time>
</trkpt>
<trkpt lat="-28.2964130" lon="152.4217228">
<ele>1029.361</ele>
<time>2016-01-16T02:16:51.428Z</time>
</trkpt>
<trkpt lat="-28.2962602" lon="152.4215486">
<ele>1028.471</ele>
<time>2016-01-16T02:16:53.593Z</time>
</trkpt>
<trkpt lat="-28.2959461" lon="152.4214089">
<ele>1028.279</ele>
<time>2016-01-16T02:16:56.793Z</time>
</trkpt>
<trkpt lat="-28.2957976" lon="152.4212740">
<ele>1028.718</ele>
<time>2016-01-16T02:16:58.468Z</time>
</trkpt>
<trkpt lat="-28.2957222" lon="152.4209736">
<ele>1029.266</ele>
<time>2016-01-16T02:17:00.790Z</time>
</trkpt>
<trkpt lat="-28.2957835" lon="152.4206134">
<ele>1029.519</ele>
<time>2016-01-16T02:17:03.380Z</time>
</trkpt>
<trkpt lat="-28.2958220" lon="152.4203725">
<ele>1029.479</ele>
<time>2016-01-16T02:17:05.080Z</time>
</trkpt>
<trkpt lat="-28.2957825" lon="152.4199632">
<ele>1029.288</ele>
<time>2016-01-16T02:17:07.914Z</time>
</trkpt>
<trkpt lat="-28.2956598" lon="152.4195496">
<ele>1029.075</ele>
<time>2016-01-16T02:17:10.807Z</time>
</trkpt>
<trkpt lat="-28.2955100" lon="152.4191662">
<ele>1029.024</ele>
<time>2016-01-16T02:17:13.318Z</time>
</trkpt>
<trkpt lat="-28.2953549" lon="152.4189283">
<ele>1029.229</ele>
<time>2016-01-16T02:17:15.059Z</time>
</trkpt>
<trkpt lat="-28.2951583" lon="152.4187005">
<ele>1029.501</ele>
<time>2016-01-16T02:17:16.920Z</time>
</trkpt>
<trkpt lat="-28.2949109" lon="152.4184672">
<ele>1029.648</ele>
<time>2016-01-16T02:17:19.215Z</time>
</trkpt>
<trkpt lat="-28.2944476" lon="152.4180802">
<ele>1029.762</ele>
<time>2016-01-16T02:17:23.596Z</time>
</trkpt>
<trkpt lat="-28.2942260" lon="152.4179284">
<ele>1030.276</ele>
<time>2016-01-16T02:17:25.680Z</time>
</trkpt>
<trkpt lat="-28.2938741" lon="152.4177151">
<ele>1031.693</ele>
<time>2016-01-16T02:17:28.981Z</time>
</trkpt>
<trkpt lat="-28.2936524" lon="152.4176006">
<ele>1033.667</ele>
<time>2016-01-16T02:17:31.080Z</time>
</trkpt>
<trkpt lat="-28.2933429" lon="152.4173970">
<ele>1035.350</ele>
<time>2016-01-16T02:17:34.421Z</time>
</trkpt>
<trkpt lat="-28.2931849" lon="152.4169922">
<ele>1036.491</ele>
<time>2016-01-16T02:17:38.073Z</time>
</trkpt>
<trkpt lat="-28.2931616" lon="152.4167574">
<ele>1037.188</ele>
<time>2016-01-16T02:17:39.809Z</time>
</trkpt>
<trkpt lat="-28.2931701" lon="152.4164414">
<ele>1037.456</ele>
<time>2016-01-16T02:17:41.823Z</time>
</trkpt>
<trkpt lat="-28.2932616" lon="152.4162028">
<ele>1037.655</ele>
<time>2016-01-16T02:17:43.325Z</time>
</trkpt>
<trkpt lat="-28.2933377" lon="152.4159532">
<ele>1038.174</ele>
<time>2016-01-16T02:17:44.778Z</time>
</trkpt>
<trkpt lat="-28.2934587" lon="152.4156314">
<ele>1038.973</ele>
<time>2016-01-16T02:17:46.627Z</time>
</trkpt>
<trkpt lat="-28.2935855" lon="152.4150968">
<ele>1039.740</ele>
<time>2016-01-16T02:17:49.571Z</time>
</trkpt>
<trkpt lat="-28.2936625" lon="152.4145403">
<ele>1040.232</ele>
<time>2016-01-16T02:17:52.751Z</time>
</trkpt>
<trkpt lat="-28.2936894" lon="152.4141522">
<ele>1040.745</ele>
<time>2016-01-16T02:17:55.008Z</time>
</trkpt>
<trkpt lat="-28.2936968" lon="152.4138497">
<ele>1041.857</ele>
<time>2016-01-16T02:17:56.789Z</time>
</trkpt>
<trkpt lat="-28.2937337" lon="152.4134965">
<ele>1043.371</ele>
<time>2016-01-16T02:17:58.886Z</time>
</trkpt>
<trkpt lat="-28.2937972" lon="152.4131642">
<ele>1044.588</ele>
<time>2016-01-16T02:18:00.895Z</time>
</trkpt>
<trkpt lat="-28.2940719" lon="152.4128121">
<ele>1045.235</ele>
<time>2016-01-16T02:18:03.605Z</time>
</trkpt>
<trkpt lat="-28.2943934" lon="152.4124258">
<ele>1044.861</ele>
<time>2016-01-16T02:18:06.655Z</time>
</trkpt>
<trkpt lat="-28.2945899" lon="152.4121679">
<ele>1042.820</ele>
<time>2016-01-16T02:18:08.623Z</time>
</trkpt>
<trkpt lat="-28.2947666" lon="152.4118860">
<ele>1039.834</ele>
<time>2016-01-16T02:18:10.628Z</time>
</trkpt>
<trkpt lat="-28.2949117" lon="152.4115929">
<ele>1037.549</ele>
<time>2016-01-16T02:18:12.585Z</time>
</trkpt>
<trkpt lat="-28.2950218" lon="152.4112632">
<ele>1036.033</ele>
<time>2016-01-16T02:18:14.643Z</time>
</trkpt>
<trkpt lat="-28.2951751" lon="152.4108158">
<ele>1034.413</ele>
<time>2016-01-16T02:18:17.386Z</time>
</trkpt>
<trkpt lat="-28.2952823" lon="152.4105204">
<ele>1032.889</ele>
<time>2016-01-16T02:18:19.175Z</time>
</trkpt>
<trkpt lat="-28.2954044" lon="152.4100178">
<ele>1031.689</ele>
<time>2016-01-16T02:18:22.128Z</time>
</trkpt>
<trkpt lat="-28.2954850" lon="152.4096907">
<ele>1030.285</ele>
<time>2016-01-16T02:18:24.040Z</time>
</trkpt>
<trkpt lat="-28.2955798" lon="152.4091932">
<ele>1028.574</ele>
<time>2016-01-16T02:18:26.903Z</time>
</trkpt>
<trkpt lat="-28.2956706" lon="152.4088511">
<ele>1027.080</ele>
<time>2016-01-16T02:18:28.960Z</time>
</trkpt>
<trkpt lat="-28.2958001" lon="152.4083486">
<ele>1026.236</ele>
<time>2016-01-16T02:18:31.918Z</time>
</trkpt>
<trkpt lat="-28.2959062" lon="152.4078617">
<ele>1026.118</ele>
<time>2016-01-16T02:18:34.611Z</time>
</trkpt>
<trkpt lat="-28.2958320" lon="152.4072852">
<ele>1026.296</ele>
<time>2016-01-16T02:18:37.626Z</time>
</trkpt>
<trkpt lat="-28.2957756" lon="152.4066971">
<ele>1026.139</ele>
<time>2016-01-16T02:18:40.660Z</time>
</trkpt>
<trkpt lat="-28.2957077" lon="152.4063174">
<ele>1025.429</ele>
<time>2016-01-16T02:18:42.637Z</time>
</trkpt>
<trkpt lat="-28.2956365" lon="152.4059382">
<ele>1024.567</ele>
<time>2016-01-16T02:18:44.644Z</time>
</trkpt>
<trkpt lat="-28.2955891" lon="152.4053528">
<ele>1023.905</ele>
<time>2016-01-16T02:18:47.763Z</time>
</trkpt>
<trkpt lat="-28.2955819" lon="152.4049917">
<ele>1023.134</ele>
<time>2016-01-16T02:18:49.663Z</time>
</trkpt>
<trkpt lat="-28.2956360" lon="152.4046179">
<ele>1021.868</ele>
<time>2016-01-16T02:18:51.597Z</time>
</trkpt>
<trkpt lat="-28.2956884" lon="152.4040651">
<ele>1020.503</ele>
<time>2016-01-16T02:18:54.390Z</time>
</trkpt>
<trkpt lat="-28.2957464" lon="152.4036806">
<ele>1019.034</ele>
<time>2016-01-16T02:18:56.416Z</time>
</trkpt>
<trkpt lat="-28.2959662" lon="152.4031424">
<ele>1016.887</ele>
<time>2016-01-16T02:18:59.722Z</time>
</trkpt>
<trkpt lat="-28.2961743" lon="152.4026796">
<ele>1014.286</ele>
<time>2016-01-16T02:19:02.866Z</time>
</trkpt>
<trkpt lat="-28.2963699" lon="152.4022647">
<ele>1011.790</ele>
<time>2016-01-16T02:19:05.629Z</time>
</trkpt>
<trkpt lat="-28.2965895" lon="152.4020565">
<ele>1009.191</ele>
<time>2016-01-16T02:19:07.487Z</time>
</trkpt>
<trkpt lat="-28.2969651" lon="152.4016911">
<ele>1006.319</ele>
<time>2016-01-16T02:19:10.774Z</time>
</trkpt>
<trkpt lat="-28.2971812" lon="152.4014635">
<ele>1003.823</ele>
<time>2016-01-16T02:19:12.791Z</time>
</trkpt>
<trkpt lat="-28.2973734" lon="152.4012232">
<ele>1002.506</ele>
<time>2016-01-16T02:19:14.732Z</time>
</trkpt>
<trkpt lat="-28.2975108" lon="152.4007716">
<ele>1002.285</ele>
<time>2016-01-16T02:19:17.479Z</time>
</trkpt>
<trkpt lat="-28.2975309" lon="152.4004178">
<ele>1002.324</ele>
<time>2016-01-16T02:19:19.433Z</time>
</trkpt>
<trkpt lat="-28.2976385" lon="152.3996993">
<ele>1001.476</ele>
<time>2016-01-16T02:19:23.329Z</time>
</trkpt>
<trkpt lat="-28.2977755" lon="152.3993663">
<ele>999.371</ele>
<time>2016-01-16T02:19:25.237Z</time>
</trkpt>
<trkpt lat="-28.2979683" lon="152.3990675">
<ele>996.762</ele>
<time>2016-01-16T02:19:27.068Z</time>
</trkpt>
<trkpt lat="-28.2982339" lon="152.3987918">
<ele>994.375</ele>
<time>2016-01-16T02:19:29.028Z</time>
</trkpt>
<trkpt lat="-28.2985382" lon="152.3985792">
<ele>992.589</ele>
<time>2016-01-16T02:19:30.958Z</time>
</trkpt>
<trkpt lat="-28.2988177" lon="152.3983421">
<ele>991.625</ele>
<time>2016-01-16T02:19:32.854Z</time>
</trkpt>
<trkpt lat="-28.2992823" lon="152.3979672">
<ele>990.591</ele>
<time>2016-01-16T02:19:36.007Z</time>
</trkpt>
<trkpt lat="-28.2997293" lon="152.3976811">
<ele>988.756</ele>
<time>2016-01-16T02:19:38.985Z</time>
</trkpt>
<trkpt lat="-28.3000472" lon="152.3975351">
<ele>986.811</ele>
<time>2016-01-16T02:19:41.025Z</time>
</trkpt>
<trkpt lat="-28.3003715" lon="152.3974729">
<ele>985.150</ele>
<time>2016-01-16T02:19:42.956Z</time>
</trkpt>
<trkpt lat="-28.3007015" lon="152.3974806">
<ele>983.178</ele>
<time>2016-01-16T02:19:44.918Z</time>
</trkpt>
<trkpt lat="-28.3010525" lon="152.3975454">
<ele>981.081</ele>
<time>2016-01-16T02:19:47.071Z</time>
</trkpt>
<trkpt lat="-28.3016310" lon="152.3977770">
<ele>979.669</ele>
<time>2016-01-16T02:19:50.869Z</time>
</trkpt>
<trkpt lat="-28.3021141" lon="152.3978592">
<ele>978.994</ele>
<time>2016-01-16T02:19:53.826Z</time>
</trkpt>
<trkpt lat="-28.3026093" lon="152.3978605">
<ele>978.478</ele>
<time>2016-01-16T02:19:56.720Z</time>
</trkpt>
<trkpt lat="-28.3029709" lon="152.3978075">
<ele>977.659</ele>
<time>2016-01-16T02:19:58.885Z</time>
</trkpt>
<trkpt lat="-28.3033456" lon="152.3977312">
<ele>976.525</ele>
<time>2016-01-16T02:20:01.259Z</time>
</trkpt>
<trkpt lat="-28.3038067" lon="152.3976583">
<ele>975.624</ele>
<time>2016-01-16T02:20:04.458Z</time>
</trkpt>
<trkpt lat="-28.3040580" lon="152.3975399">
<ele>975.352</ele>
<time>2016-01-16T02:20:06.391Z</time>
</trkpt>
<trkpt lat="-28.3044302" lon="152.3973485">
<ele>975.453</ele>
<time>2016-01-16T02:20:09.275Z</time>
</trkpt>
<trkpt lat="-28.3047067" lon="152.3972823">
<ele>975.173</ele>
<time>2016-01-16T02:20:11.280Z</time>
</trkpt>
<trkpt lat="-28.3051257" lon="152.3972305">
<ele>974.140</ele>
<time>2016-01-16T02:20:14.363Z</time>
</trkpt>
<trkpt lat="-28.3053952" lon="152.3973325">
<ele>973.021</ele>
<time>2016-01-16T02:20:16.481Z</time>
</trkpt>
<trkpt lat="-28.3057807" lon="152.3974340">
<ele>972.408</ele>
<time>2016-01-16T02:20:19.486Z</time>
</trkpt>
<trkpt lat="-28.3061636" lon="152.3974465">
<ele>972.143</ele>
<time>2016-01-16T02:20:22.473Z</time>
</trkpt>
<trkpt lat="-28.3063925" lon="152.3974496">
<ele>972.258</ele>
<time>2016-01-16T02:20:24.251Z</time>
</trkpt>
<trkpt lat="-28.3067474" lon="152.3975595">
<ele>972.804</ele>
<time>2016-01-16T02:20:27.077Z</time>
</trkpt>
<trkpt lat="-28.3069741" lon="152.3976659">
<ele>973.161</ele>
<time>2016-01-16T02:20:28.982Z</time>
</trkpt>
<trkpt lat="-28.3072262" lon="152.3977731">
<ele>972.585</ele>
<time>2016-01-16T02:20:31.073Z</time>
</trkpt>
<trkpt lat="-28.3076350" lon="152.3981306">
<ele>970.271</ele>
<time>2016-01-16T02:20:35.146Z</time>
</trkpt>
<trkpt lat="-28.3079837" lon="152.3982956">
<ele>968.879</ele>
<time>2016-01-16T02:20:37.944Z</time>
</trkpt>
<trkpt lat="-28.3082276" lon="152.3983415">
<ele>966.195</ele>
<time>2016-01-16T02:20:39.573Z</time>
</trkpt>
<trkpt lat="-28.3085587" lon="152.3983121">
<ele>963.160</ele>
<time>2016-01-16T02:20:41.746Z</time>
</trkpt>
<trkpt lat="-28.3090598" lon="152.3982673">
<ele>961.188</ele>
<time>2016-01-16T02:20:45.220Z</time>
</trkpt>
<trkpt lat="-28.3093133" lon="152.3982720">
<ele>960.182</ele>
<time>2016-01-16T02:20:47.212Z</time>
</trkpt>
<trkpt lat="-28.3095328" lon="152.3983246">
<ele>959.215</ele>
<time>2016-01-16T02:20:49.083Z</time>
</trkpt>
<trkpt lat="-28.3097831" lon="152.3982749">
<ele>957.859</ele>
<time>2016-01-16T02:20:51.211Z</time>
</trkpt>
<trkpt lat="-28.3100180" lon="152.3982437">
<ele>956.691</ele>
<time>2016-01-16T02:20:53.108Z</time>
</trkpt>
<trkpt lat="-28.3103938" lon="152.3981802">
<ele>956.172</ele>
<time>2016-01-16T02:20:55.899Z</time>
</trkpt>
<trkpt lat="-28.3107112" lon="152.3978968">
<ele>956.143</ele>
<time>2016-01-16T02:20:58.664Z</time>
</trkpt>
<trkpt lat="-28.3109682" lon="152.3977318">
<ele>956.049</ele>
<time>2016-01-16T02:21:00.684Z</time>
</trkpt>
<trkpt lat="-28.3113897" lon="152.3975422">
<ele>955.552</ele>
<time>2016-01-16T02:21:03.858Z</time>
</trkpt>
<trkpt lat="-28.3117854" lon="152.3974667">
<ele>954.805</ele>
<time>2016-01-16T02:21:06.764Z</time>
</trkpt>
<trkpt lat="-28.3120285" lon="152.3974930">
<ele>953.832</ele>
<time>2016-01-16T02:21:08.437Z</time>
</trkpt>
<trkpt lat="-28.3124379" lon="152.3974917">
<ele>952.399</ele>
<time>2016-01-16T02:21:11.148Z</time>
</trkpt>
<trkpt lat="-28.3128954" lon="152.3974191">
<ele>950.353</ele>
<time>2016-01-16T02:21:14.135Z</time>
</trkpt>
<trkpt lat="-28.3133341" lon="152.3973019">
<ele>947.750</ele>
<time>2016-01-16T02:21:17.264Z</time>
</trkpt>
<trkpt lat="-28.3136278" lon="152.3972200">
<ele>945.092</ele>
<time>2016-01-16T02:21:19.489Z</time>
</trkpt>
<trkpt lat="-28.3138660" lon="152.3971397">
<ele>943.039</ele>
<time>2016-01-16T02:21:21.251Z</time>
</trkpt>
<trkpt lat="-28.3141206" lon="152.3969453">
<ele>941.853</ele>
<time>2016-01-16T02:21:23.354Z</time>
</trkpt>
<trkpt lat="-28.3144331" lon="152.3965510">
<ele>941.288</ele>
<time>2016-01-16T02:21:26.554Z</time>
</trkpt>
<trkpt lat="-28.3146575" lon="152.3963026">
<ele>940.368</ele>
<time>2016-01-16T02:21:28.752Z</time>
</trkpt>
<trkpt lat="-28.3148674" lon="152.3961046">
<ele>938.326</ele>
<time>2016-01-16T02:21:30.628Z</time>
</trkpt>
<trkpt lat="-28.3152716" lon="152.3959757">
<ele>935.391</ele>
<time>2016-01-16T02:21:33.444Z</time>
</trkpt>
<trkpt lat="-28.3155662" lon="152.3959083">
<ele>932.457</ele>
<time>2016-01-16T02:21:35.496Z</time>
</trkpt>
<trkpt lat="-28.3160065" lon="152.3957764">
<ele>930.271</ele>
<time>2016-01-16T02:21:38.697Z</time>
</trkpt>
<trkpt lat="-28.3162672" lon="152.3957096">
<ele>929.028</ele>
<time>2016-01-16T02:21:40.574Z</time>
</trkpt>
<trkpt lat="-28.3166637" lon="152.3956137">
<ele>928.461</ele>
<time>2016-01-16T02:21:43.318Z</time>
</trkpt>
<trkpt lat="-28.3169473" lon="152.3955492">
<ele>928.321</ele>
<time>2016-01-16T02:21:45.203Z</time>
</trkpt>
<trkpt lat="-28.3174050" lon="152.3954480">
<ele>928.349</ele>
<time>2016-01-16T02:21:48.206Z</time>
</trkpt>
<trkpt lat="-28.3177016" lon="152.3954195">
<ele>927.957</ele>
<time>2016-01-16T02:21:50.115Z</time>
</trkpt>
<trkpt lat="-28.3181346" lon="152.3953880">
<ele>926.458</ele>
<time>2016-01-16T02:21:52.838Z</time>
</trkpt>
<trkpt lat="-28.3184621" lon="152.3953249">
<ele>923.664</ele>
<time>2016-01-16T02:21:54.823Z</time>
</trkpt>
<trkpt lat="-28.3189321" lon="152.3952135">
<ele>920.139</ele>
<time>2016-01-16T02:21:57.603Z</time>
</trkpt>
<trkpt lat="-28.3192513" lon="152.3950192">
<ele>916.619</ele>
<time>2016-01-16T02:21:59.712Z</time>
</trkpt>
<trkpt lat="-28.3195745" lon="152.3948415">
<ele>913.666</ele>
<time>2016-01-16T02:22:01.863Z</time>
</trkpt>
<trkpt lat="-28.3198685" lon="152.3946694">
<ele>911.695</ele>
<time>2016-01-16T02:22:03.881Z</time>
</trkpt>
<trkpt lat="-28.3201697" lon="152.3944648">
<ele>910.904</ele>
<time>2016-01-16T02:22:06.024Z</time>
</trkpt>
<trkpt lat="-28.3206368" lon="152.3943101">
<ele>911.239</ele>
<time>2016-01-16T02:22:08.937Z</time>
</trkpt>
<trkpt lat="-28.3209624" lon="152.3942419">
<ele>912.371</ele>
<time>2016-01-16T02:22:10.883Z</time>
</trkpt>
<trkpt lat="-28.3214594" lon="152.3941716">
<ele>913.450</ele>
<time>2016-01-16T02:22:13.808Z</time>
</trkpt>
<trkpt lat="-28.3219699" lon="152.3940788">
<ele>913.971</ele>
<time>2016-01-16T02:22:16.884Z</time>
</trkpt>
<trkpt lat="-28.3224561" lon="152.3939804">
<ele>914.116</ele>
<time>2016-01-16T02:22:19.955Z</time>
</trkpt>
<trkpt lat="-28.3227596" lon="152.3939081">
<ele>913.895</ele>
<time>2016-01-16T02:22:21.867Z</time>
</trkpt>
<trkpt lat="-28.3232098" lon="152.3939349">
<ele>912.995</ele>
<time>2016-01-16T02:22:24.550Z</time>
</trkpt>
<trkpt lat="-28.3237337" lon="152.3940001">
<ele>911.085</ele>
<time>2016-01-16T02:22:27.598Z</time>
</trkpt>
<trkpt lat="-28.3240650" lon="152.3940369">
<ele>908.452</ele>
<time>2016-01-16T02:22:29.582Z</time>
</trkpt>
<trkpt lat="-28.3245321" lon="152.3940377">
<ele>905.256</ele>
<time>2016-01-16T02:22:32.388Z</time>
</trkpt>
<trkpt lat="-28.3248398" lon="152.3939702">
<ele>900.979</ele>
<time>2016-01-16T02:22:34.154Z</time>
</trkpt>
<trkpt lat="-28.3251741" lon="152.3937907">
<ele>896.157</ele>
<time>2016-01-16T02:22:36.092Z</time>
</trkpt>
<trkpt lat="-28.3256639" lon="152.3934128">
<ele>892.330</ele>
<time>2016-01-16T02:22:39.098Z</time>
</trkpt>
<trkpt lat="-28.3261390" lon="152.3930252">
<ele>890.001</ele>
<time>2016-01-16T02:22:42.055Z</time>
</trkpt>
<trkpt lat="-28.3264620" lon="152.3927807">
<ele>888.642</ele>
<time>2016-01-16T02:22:44.002Z</time>
</trkpt>
<trkpt lat="-28.3269431" lon="152.3923950">
<ele>887.138</ele>
<time>2016-01-16T02:22:47.030Z</time>
</trkpt>
<trkpt lat="-28.3274005" lon="152.3920171">
<ele>885.048</ele>
<time>2016-01-16T02:22:50.073Z</time>
</trkpt>
<trkpt lat="-28.3278584" lon="152.3916567">
<ele>883.408</ele>
<time>2016-01-16T02:22:53.066Z</time>
</trkpt>
<trkpt lat="-28.3281972" lon="152.3914181">
<ele>883.085</ele>
<time>2016-01-16T02:22:55.171Z</time>
</trkpt>
<trkpt lat="-28.3285067" lon="152.3911592">
<ele>884.000</ele>
<time>2016-01-16T02:22:57.180Z</time>
</trkpt>
<trkpt lat="-28.3288821" lon="152.3907077">
<ele>885.714</ele>
<time>2016-01-16T02:23:00.001Z</time>
</trkpt>
<trkpt lat="-28.3290677" lon="152.3903508">
<ele>887.420</ele>
<time>2016-01-16T02:23:01.901Z</time>
</trkpt>
<trkpt lat="-28.3293397" lon="152.3900563">
<ele>888.433</ele>
<time>2016-01-16T02:23:03.878Z</time>
</trkpt>
<trkpt lat="-28.3297837" lon="152.3896415">
<ele>888.463</ele>
<time>2016-01-16T02:23:06.852Z</time>
</trkpt>
<trkpt lat="-28.3302218" lon="152.3892261">
<ele>887.553</ele>
<time>2016-01-16T02:23:09.766Z</time>
</trkpt>
<trkpt lat="-28.3306758" lon="152.3888107">
<ele>886.024</ele>
<time>2016-01-16T02:23:12.682Z</time>
</trkpt>
<trkpt lat="-28.3309947" lon="152.3885180">
<ele>884.133</ele>
<time>2016-01-16T02:23:14.711Z</time>
</trkpt>
<trkpt lat="-28.3313031" lon="152.3882783">
<ele>882.246</ele>
<time>2016-01-16T02:23:16.557Z</time>
</trkpt>
<trkpt lat="-28.3318445" lon="152.3879676">
<ele>880.261</ele>
<time>2016-01-16T02:23:19.537Z</time>
</trkpt>
<trkpt lat="-28.3324174" lon="152.3877544">
<ele>877.801</ele>
<time>2016-01-16T02:23:22.544Z</time>
</trkpt>
<trkpt lat="-28.3329574" lon="152.3875060">
<ele>875.283</ele>
<time>2016-01-16T02:23:25.524Z</time>
</trkpt>
<trkpt lat="-28.3332807" lon="152.3872598">
<ele>873.350</ele>
<time>2016-01-16T02:23:27.506Z</time>
</trkpt>
<trkpt lat="-28.3335652" lon="152.3869681">
<ele>871.885</ele>
<time>2016-01-16T02:23:29.404Z</time>
</trkpt>
<trkpt lat="-28.3339929" lon="152.3864801">
<ele>870.685</ele>
<time>2016-01-16T02:23:32.360Z</time>
</trkpt>
<trkpt lat="-28.3344751" lon="152.3860811">
<ele>869.507</ele>
<time>2016-01-16T02:23:35.252Z</time>
</trkpt>
<trkpt lat="-28.3348026" lon="152.3858058">
<ele>867.905</ele>
<time>2016-01-16T02:23:37.107Z</time>
</trkpt>
<trkpt lat="-28.3352223" lon="152.3855475">
<ele>865.722</ele>
<time>2016-01-16T02:23:39.090Z</time>
</trkpt>
<trkpt lat="-28.3356487" lon="152.3852483">
<ele>863.262</ele>
<time>2016-01-16T02:23:41.078Z</time>
</trkpt>
<trkpt lat="-28.3362689" lon="152.3847542">
<ele>860.871</ele>
<time>2016-01-16T02:23:44.117Z</time>
</trkpt>
<trkpt lat="-28.3368384" lon="152.3842704">
<ele>858.955</ele>
<time>2016-01-16T02:23:47.071Z</time>
</trkpt>
<trkpt lat="-28.3371976" lon="152.3839464">
<ele>857.742</ele>
<time>2016-01-16T02:23:49.079Z</time>
</trkpt>
<trkpt lat="-28.3377191" lon="152.3834890">
<ele>857.181</ele>
<time>2016-01-16T02:23:52.049Z</time>
</trkpt>
<trkpt lat="-28.3380923" lon="152.3831846">
<ele>857.096</ele>
<time>2016-01-16T02:23:54.189Z</time>
</trkpt>
<trkpt lat="-28.3384452" lon="152.3829333">
<ele>857.337</ele>
<time>2016-01-16T02:23:56.089Z</time>
</trkpt>
<trkpt lat="-28.3390382" lon="152.3825739">
<ele>857.899</ele>
<time>2016-01-16T02:23:59.071Z</time>
</trkpt>
<trkpt lat="-28.3394472" lon="152.3823417">
<ele>858.758</ele>
<time>2016-01-16T02:24:01.100Z</time>
</trkpt>
<trkpt lat="-28.3398236" lon="152.3821020">
<ele>860.070</ele>
<time>2016-01-16T02:24:03.204Z</time>
</trkpt>
<trkpt lat="-28.3403092" lon="152.3817792">
<ele>862.605</ele>
<time>2016-01-16T02:24:06.208Z</time>
</trkpt>
<trkpt lat="-28.3406743" lon="152.3813606">
<ele>866.143</ele>
<time>2016-01-16T02:24:09.014Z</time>
</trkpt>
<trkpt lat="-28.3409664" lon="152.3807847">
<ele>868.386</ele>
<time>2016-01-16T02:24:11.945Z</time>
</trkpt>
<trkpt lat="-28.3412338" lon="152.3801559">
<ele>867.615</ele>
<time>2016-01-16T02:24:14.843Z</time>
</trkpt>
<trkpt lat="-28.3414340" lon="152.3797264">
<ele>865.099</ele>
<time>2016-01-16T02:24:16.800Z</time>
</trkpt>
<trkpt lat="-28.3417020" lon="152.3790377">
<ele>862.678</ele>
<time>2016-01-16T02:24:19.867Z</time>
</trkpt>
<trkpt lat="-28.3419835" lon="152.3784172">
<ele>860.923</ele>
<time>2016-01-16T02:24:22.783Z</time>
</trkpt>
<trkpt lat="-28.3422702" lon="152.3778167">
<ele>859.974</ele>
<time>2016-01-16T02:24:25.710Z</time>
</trkpt>
<trkpt lat="-28.3424367" lon="152.3771682">
<ele>859.944</ele>
<time>2016-01-16T02:24:28.685Z</time>
</trkpt>
<trkpt lat="-28.3424114" lon="152.3764876">
<ele>860.496</ele>
<time>2016-01-16T02:24:31.723Z</time>
</trkpt>
<trkpt lat="-28.3423216" lon="152.3758355">
<ele>861.125</ele>
<time>2016-01-16T02:24:34.594Z</time>
</trkpt>
<trkpt lat="-28.3422528" lon="152.3753518">
<ele>861.501</ele>
<time>2016-01-16T02:24:36.623Z</time>
</trkpt>
<trkpt lat="-28.3421475" lon="152.3746390">
<ele>861.199</ele>
<time>2016-01-16T02:24:39.665Z</time>
</trkpt>
<trkpt lat="-28.3420845" lon="152.3742171">
<ele>860.018</ele>
<time>2016-01-16T02:24:41.600Z</time>
</trkpt>
<trkpt lat="-28.3420400" lon="152.3738058">
<ele>858.664</ele>
<time>2016-01-16T02:24:43.568Z</time>
</trkpt>
<trkpt lat="-28.3419694" lon="152.3733963">
<ele>857.919</ele>
<time>2016-01-16T02:24:45.596Z</time>
</trkpt>
<trkpt lat="-28.3419033" lon="152.3727934">
<ele>857.758</ele>
<time>2016-01-16T02:24:48.728Z</time>
</trkpt>
<trkpt lat="-28.3418711" lon="152.3724899">
<ele>857.729</ele>
<time>2016-01-16T02:24:50.825Z</time>
</trkpt>
<trkpt lat="-28.3418861" lon="152.3721837">
<ele>857.369</ele>
<time>2016-01-16T02:24:53.626Z</time>
</trkpt>
<trkpt lat="-28.3418965" lon="152.3720011">
<ele>856.553</ele>
<time>2016-01-16T02:24:56.142Z</time>
</trkpt>
<trkpt lat="-28.3418861" lon="152.3718593">
<ele>854.985</ele>
<time>2016-01-16T02:24:59.075Z</time>
</trkpt>
<trkpt lat="-28.3419223" lon="152.3717569">
<ele>852.722</ele>
<time>2016-01-16T02:25:02.274Z</time>
</trkpt>
<trkpt lat="-28.3419166" lon="152.3716418">
<ele>850.867</ele>
<time>2016-01-16T02:25:06.882Z</time>
</trkpt>
<trkpt lat="-28.3419187" lon="152.3715308">
<ele>850.239</ele>
<time>2016-01-16T02:25:13.000Z</time>
</trkpt>
<trkpt lat="-28.3419187" lon="152.3715308">
<ele>850.456</ele>
<time>2016-01-16T02:25:19.000Z</time>
</trkpt>
<trkpt lat="-28.3419187" lon="152.3715308">
<ele>850.642</ele>
<time>2016-01-16T03:31:51.325Z</time>
</trkpt>
<trkpt lat="-28.3418683" lon="152.3713598">
<ele>850.301</ele>
<time>2016-01-16T03:31:58.260Z</time>
</trkpt>
<trkpt lat="-28.3416959" lon="152.3709315">
<ele>851.009</ele>
<time>2016-01-16T03:32:02.930Z</time>
</trkpt>
<trkpt lat="-28.3415655" lon="152.3706038">
<ele>854.494</ele>
<time>2016-01-16T03:32:05.373Z</time>
</trkpt>
<trkpt lat="-28.3413951" lon="152.3702083">
<ele>859.893</ele>
<time>2016-01-16T03:32:07.991Z</time>
</trkpt>
<trkpt lat="-28.3409498" lon="152.3696472">
<ele>865.114</ele>
<time>2016-01-16T03:32:11.537Z</time>
</trkpt>
<trkpt lat="-28.3406617" lon="152.3692660">
<ele>869.587</ele>
<time>2016-01-16T03:32:13.656Z</time>
</trkpt>
<trkpt lat="-28.3402835" lon="152.3687116">
<ele>873.329</ele>
<time>2016-01-16T03:32:16.635Z</time>
</trkpt>
<trkpt lat="-28.3400332" lon="152.3683519">
<ele>875.227</ele>
<time>2016-01-16T03:32:18.657Z</time>
</trkpt>
<trkpt lat="-28.3397012" lon="152.3678005">
<ele>874.467</ele>
<time>2016-01-16T03:32:21.728Z</time>
</trkpt>
<trkpt lat="-28.3394150" lon="152.3672465">
<ele>872.021</ele>
<time>2016-01-16T03:32:24.807Z</time>
</trkpt>
<trkpt lat="-28.3392723" lon="152.3667152">
<ele>868.943</ele>
<time>2016-01-16T03:32:27.325Z</time>
</trkpt>
<trkpt lat="-28.3392173" lon="152.3663108">
<ele>866.023</ele>
<time>2016-01-16T03:32:29.052Z</time>
</trkpt>
<trkpt lat="-28.3392250" lon="152.3658447">
<ele>864.065</ele>
<time>2016-01-16T03:32:30.962Z</time>
</trkpt>
<trkpt lat="-28.3393458" lon="152.3651229">
<ele>863.106</ele>
<time>2016-01-16T03:32:33.846Z</time>
</trkpt>
<trkpt lat="-28.3395022" lon="152.3646252">
<ele>862.115</ele>
<time>2016-01-16T03:32:35.917Z</time>
</trkpt>
<trkpt lat="-28.3396834" lon="152.3639330">
<ele>860.481</ele>
<time>2016-01-16T03:32:38.758Z</time>
</trkpt>
<trkpt lat="-28.3397321" lon="152.3634615">
<ele>857.722</ele>
<time>2016-01-16T03:32:40.588Z</time>
</trkpt>
<trkpt lat="-28.3397429" lon="152.3629648">
<ele>853.633</ele>
<time>2016-01-16T03:32:42.441Z</time>
</trkpt>
<trkpt lat="-28.3396978" lon="152.3621778">
<ele>849.780</ele>
<time>2016-01-16T03:32:45.338Z</time>
</trkpt>
<trkpt lat="-28.3396330" lon="152.3616765">
<ele>847.822</ele>
<time>2016-01-16T03:32:47.200Z</time>
</trkpt>
<trkpt lat="-28.3396097" lon="152.3608900">
<ele>847.200</ele>
<time>2016-01-16T03:32:50.105Z</time>
</trkpt>
<trkpt lat="-28.3396547" lon="152.3601172">
<ele>846.919</ele>
<time>2016-01-16T03:32:53.117Z</time>
</trkpt>
<trkpt lat="-28.3396812" lon="152.3594156">
<ele>845.847</ele>
<time>2016-01-16T03:32:56.005Z</time>
</trkpt>
<trkpt lat="-28.3396004" lon="152.3587444">
<ele>842.734</ele>
<time>2016-01-16T03:32:59.279Z</time>
</trkpt>
<trkpt lat="-28.3395014" lon="152.3582409">
<ele>838.115</ele>
<time>2016-01-16T03:33:02.500Z</time>
</trkpt>
<trkpt lat="-28.3396128" lon="152.3578497">
<ele>832.774</ele>
<time>2016-01-16T03:33:05.227Z</time>
</trkpt>
<trkpt lat="-28.3398129" lon="152.3576752">
<ele>826.064</ele>
<time>2016-01-16T03:33:06.956Z</time>
</trkpt>
<trkpt lat="-28.3400871" lon="152.3575903">
<ele>819.203</ele>
<time>2016-01-16T03:33:08.833Z</time>
</trkpt>
<trkpt lat="-28.3405377" lon="152.3575061">
<ele>814.882</ele>
<time>2016-01-16T03:33:11.758Z</time>
</trkpt>
<trkpt lat="-28.3409472" lon="152.3573245">
<ele>813.112</ele>
<time>2016-01-16T03:33:14.448Z</time>
</trkpt>
<trkpt lat="-28.3413510" lon="152.3569756">
<ele>812.073</ele>
<time>2016-01-16T03:33:17.618Z</time>
</trkpt>
<trkpt lat="-28.3416916" lon="152.3567399">
<ele>810.493</ele>
<time>2016-01-16T03:33:20.576Z</time>
</trkpt>
<trkpt lat="-28.3418237" lon="152.3565738">
<ele>807.424</ele>
<time>2016-01-16T03:33:22.233Z</time>
</trkpt>
<trkpt lat="-28.3418320" lon="152.3562594">
<ele>803.071</ele>
<time>2016-01-16T03:33:24.483Z</time>
</trkpt>
<trkpt lat="-28.3416585" lon="152.3559953">
<ele>799.256</ele>
<time>2016-01-16T03:33:26.577Z</time>
</trkpt>
<trkpt lat="-28.3412264" lon="152.3557026">
<ele>797.218</ele>
<time>2016-01-16T03:33:29.696Z</time>
</trkpt>
<trkpt lat="-28.3407895" lon="152.3553947">
<ele>796.499</ele>
<time>2016-01-16T03:33:32.757Z</time>
</trkpt>
<trkpt lat="-28.3405054" lon="152.3550025">
<ele>796.053</ele>
<time>2016-01-16T03:33:35.516Z</time>
</trkpt>
<trkpt lat="-28.3404507" lon="152.3548430">
<ele>794.491</ele>
<time>2016-01-16T03:33:36.379Z</time>
</trkpt>
<trkpt lat="-28.3404290" lon="152.3540004">
<ele>791.322</ele>
<time>2016-01-16T03:33:40.354Z</time>
</trkpt>
<trkpt lat="-28.3404499" lon="152.3533941">
<ele>787.996</ele>
<time>2016-01-16T03:33:43.282Z</time>
</trkpt>
<trkpt lat="-28.3404834" lon="152.3530263">
<ele>785.258</ele>
<time>2016-01-16T03:33:45.558Z</time>
</trkpt>
<trkpt lat="-28.3405403" lon="152.3527861">
<ele>781.656</ele>
<time>2016-01-16T03:33:47.326Z</time>
</trkpt>
<trkpt lat="-28.3407985" lon="152.3525163">
<ele>776.523</ele>
<time>2016-01-16T03:33:50.009Z</time>
</trkpt>
<trkpt lat="-28.3412748" lon="152.3524743">
<ele>771.176</ele>
<time>2016-01-16T03:33:53.364Z</time>
</trkpt>
<trkpt lat="-28.3417032" lon="152.3523465">
<ele>767.162</ele>
<time>2016-01-16T03:33:56.475Z</time>
</trkpt>
<trkpt lat="-28.3419115" lon="152.3521868">
<ele>764.474</ele>
<time>2016-01-16T03:33:58.182Z</time>
</trkpt>
<trkpt lat="-28.3421245" lon="152.3516600">
<ele>762.221</ele>
<time>2016-01-16T03:34:01.410Z</time>
</trkpt>
<trkpt lat="-28.3423293" lon="152.3513867">
<ele>760.249</ele>
<time>2016-01-16T03:34:03.362Z</time>
</trkpt>
<trkpt lat="-28.3425096" lon="152.3511047">
<ele>758.446</ele>
<time>2016-01-16T03:34:05.302Z</time>
</trkpt>
<trkpt lat="-28.3426654" lon="152.3506210">
<ele>756.256</ele>
<time>2016-01-16T03:34:08.269Z</time>
</trkpt>
<trkpt lat="-28.3427753" lon="152.3503422">
<ele>753.516</ele>
<time>2016-01-16T03:34:10.123Z</time>
</trkpt>
<trkpt lat="-28.3430071" lon="152.3501689">
<ele>750.242</ele>
<time>2016-01-16T03:34:12.099Z</time>
</trkpt>
<trkpt lat="-28.3433882" lon="152.3500621">
<ele>747.022</ele>
<time>2016-01-16T03:34:14.941Z</time>
</trkpt>
<trkpt lat="-28.3436658" lon="152.3500046">
<ele>744.576</ele>
<time>2016-01-16T03:34:17.121Z</time>
</trkpt>
<trkpt lat="-28.3439716" lon="152.3498158">
<ele>742.415</ele>
<time>2016-01-16T03:34:19.850Z</time>
</trkpt>
<trkpt lat="-28.3438751" lon="152.3493502">
<ele>739.616</ele>
<time>2016-01-16T03:34:22.944Z</time>
</trkpt>
<trkpt lat="-28.3437870" lon="152.3488649">
<ele>736.350</ele>
<time>2016-01-16T03:34:25.934Z</time>
</trkpt>
<trkpt lat="-28.3437581" lon="152.3485701">
<ele>733.246</ele>
<time>2016-01-16T03:34:27.910Z</time>
</trkpt>
<trkpt lat="-28.3439150" lon="152.3481977">
<ele>730.453</ele>
<time>2016-01-16T03:34:30.713Z</time>
</trkpt>
<trkpt lat="-28.3442703" lon="152.3480611">
<ele>727.451</ele>
<time>2016-01-16T03:34:33.109Z</time>
</trkpt>
<trkpt lat="-28.3448548" lon="152.3479021">
<ele>724.092</ele>
<time>2016-01-16T03:34:36.496Z</time>
</trkpt>
<trkpt lat="-28.3452001" lon="152.3478385">
<ele>721.260</ele>
<time>2016-01-16T03:34:38.452Z</time>
</trkpt>
<trkpt lat="-28.3456598" lon="152.3476513">
<ele>719.322</ele>
<time>2016-01-16T03:34:41.406Z</time>
</trkpt>
<trkpt lat="-28.3459023" lon="152.3474905">
<ele>716.896</ele>
<time>2016-01-16T03:34:43.289Z</time>
</trkpt>
<trkpt lat="-28.3460613" lon="152.3472291">
<ele>713.129</ele>
<time>2016-01-16T03:34:45.283Z</time>
</trkpt>
<trkpt lat="-28.3462336" lon="152.3467813">
<ele>708.921</ele>
<time>2016-01-16T03:34:48.416Z</time>
</trkpt>
<trkpt lat="-28.3462705" lon="152.3464443">
<ele>705.236</ele>
<time>2016-01-16T03:34:50.719Z</time>
</trkpt>
<trkpt lat="-28.3462721" lon="152.3461217">
<ele>702.171</ele>
<time>2016-01-16T03:34:53.245Z</time>
</trkpt>
<trkpt lat="-28.3463189" lon="152.3457792">
<ele>699.168</ele>
<time>2016-01-16T03:34:56.866Z</time>
</trkpt>
<trkpt lat="-28.3463396" lon="152.3456522">
<ele>695.557</ele>
<time>2016-01-16T03:34:58.767Z</time>
</trkpt>
<trkpt lat="-28.3463885" lon="152.3455127">
<ele>691.637</ele>
<time>2016-01-16T03:35:01.571Z</time>
</trkpt>
<trkpt lat="-28.3464604" lon="152.3453946">
<ele>688.404</ele>
<time>2016-01-16T03:35:04.682Z</time>
</trkpt>
<trkpt lat="-28.3465377" lon="152.3453149">
<ele>686.323</ele>
<time>2016-01-16T03:35:08.232Z</time>
</trkpt>
<trkpt lat="-28.3466330" lon="152.3452639">
<ele>685.155</ele>
<time>2016-01-16T03:35:12.287Z</time>
</trkpt>
<trkpt lat="-28.3467137" lon="152.3453093">
<ele>684.383</ele>
<time>2016-01-16T03:35:15.835Z</time>
</trkpt>
<trkpt lat="-28.3467967" lon="152.3453538">
<ele>683.712</ele>
<time>2016-01-16T03:35:19.087Z</time>
</trkpt>
<trkpt lat="-28.3468971" lon="152.3453554">
<ele>683.101</ele>
<time>2016-01-16T03:35:22.995Z</time>
</trkpt>
<trkpt lat="-28.3468971" lon="152.3453554">
<ele>682.613</ele>
<time>2016-01-16T03:35:25.995Z</time>
</trkpt>
<trkpt lat="-28.3468971" lon="152.3453554">
<ele>682.254</ele>
<time>2016-01-16T03:35:34.919Z</time>
</trkpt>
<trkpt lat="-28.3467605" lon="152.3453103">
<ele>682.060</ele>
<time>2016-01-16T03:35:42.881Z</time>
</trkpt>
<trkpt lat="-28.3466710" lon="152.3452822">
<ele>682.140</ele>
<time>2016-01-16T03:35:46.982Z</time>
</trkpt>
<trkpt lat="-28.3465658" lon="152.3452898">
<ele>682.458</ele>
<time>2016-01-16T03:35:51.750Z</time>
</trkpt>
<trkpt lat="-28.3464692" lon="152.3453284">
<ele>682.883</ele>
<time>2016-01-16T03:35:55.733Z</time>
</trkpt>
<trkpt lat="-28.3463932" lon="152.3453923">
<ele>683.457</ele>
<time>2016-01-16T03:35:58.995Z</time>
</trkpt>
<trkpt lat="-28.3463932" lon="152.3453923">
<ele>684.096</ele>
<time>2016-01-16T03:36:10.995Z</time>
</trkpt>
<trkpt lat="-28.3463932" lon="152.3453923">
<ele>684.355</ele>
<time>2016-01-16T03:36:30.161Z</time>
</trkpt>
<trkpt lat="-28.3462864" lon="152.3456038">
<ele>684.045</ele>
<time>2016-01-16T03:36:52.008Z</time>
</trkpt>
<trkpt lat="-28.3462674" lon="152.3457113">
<ele>683.955</ele>
<time>2016-01-16T03:36:54.884Z</time>
</trkpt>
<trkpt lat="-28.3462708" lon="152.3458138">
<ele>684.874</ele>
<time>2016-01-16T03:36:57.000Z</time>
</trkpt>
<trkpt lat="-28.3462708" lon="152.3458138">
<ele>686.310</ele>
<time>2016-01-16T03:37:08.000Z</time>
</trkpt>
<trkpt lat="-28.3462708" lon="152.3458138">
<ele>687.044</ele>
<time>2016-01-16T03:40:23.257Z</time>
</trkpt>
<trkpt lat="-28.3463153" lon="152.3456877">
<ele>686.702</ele>
<time>2016-01-16T03:40:30.580Z</time>
</trkpt>
<trkpt lat="-28.3463343" lon="152.3455815">
<ele>686.113</ele>
<time>2016-01-16T03:40:33.587Z</time>
</trkpt>
<trkpt lat="-28.3463716" lon="152.3454881">
<ele>686.022</ele>
<time>2016-01-16T03:40:36.509Z</time>
</trkpt>
<trkpt lat="-28.3464363" lon="152.3454041">
<ele>686.177</ele>
<time>2016-01-16T03:40:39.997Z</time>
</trkpt>
<trkpt lat="-28.3464363" lon="152.3454041">
<ele>686.092</ele>
<time>2016-01-16T03:40:52.997Z</time>
</trkpt>
<trkpt lat="-28.3464363" lon="152.3454041">
<ele>685.754</ele>
<time>2016-01-16T03:47:14.546Z</time>
</trkpt>
<trkpt lat="-28.3466219" lon="152.3452738">
<ele>685.441</ele>
<time>2016-01-16T03:47:22.286Z</time>
</trkpt>
<trkpt lat="-28.3467240" lon="152.3452193">
<ele>685.300</ele>
<time>2016-01-16T03:47:24.498Z</time>
</trkpt>
<trkpt lat="-28.3468274" lon="152.3453023">
<ele>685.206</ele>
<time>2016-01-16T03:47:27.154Z</time>
</trkpt>
<trkpt lat="-28.3469511" lon="152.3453308">
<ele>684.905</ele>
<time>2016-01-16T03:47:30.355Z</time>
</trkpt>
<trkpt lat="-28.3470219" lon="152.3454563">
<ele>684.282</ele>
<time>2016-01-16T03:47:34.918Z</time>
</trkpt>
<trkpt lat="-28.3470523" lon="152.3455566">
<ele>683.514</ele>
<time>2016-01-16T03:47:37.453Z</time>
</trkpt>
<trkpt lat="-28.3471536" lon="152.3456316">
<ele>682.910</ele>
<time>2016-01-16T03:47:39.404Z</time>
</trkpt>
<trkpt lat="-28.3472984" lon="152.3456491">
<ele>682.701</ele>
<time>2016-01-16T03:47:41.075Z</time>
</trkpt>
<trkpt lat="-28.3477447" lon="152.3454720">
<ele>682.859</ele>
<time>2016-01-16T03:47:45.054Z</time>
</trkpt>
<trkpt lat="-28.3480246" lon="152.3453709">
<ele>683.103</ele>
<time>2016-01-16T03:47:47.077Z</time>
</trkpt>
<trkpt lat="-28.3482903" lon="152.3452349">
<ele>682.940</ele>
<time>2016-01-16T03:47:49.031Z</time>
</trkpt>
<trkpt lat="-28.3486194" lon="152.3448998">
<ele>681.902</ele>
<time>2016-01-16T03:47:52.145Z</time>
</trkpt>
<trkpt lat="-28.3487796" lon="152.3446528">
<ele>679.709</ele>
<time>2016-01-16T03:47:54.139Z</time>
</trkpt>
<trkpt lat="-28.3489398" lon="152.3442340">
<ele>676.585</ele>
<time>2016-01-16T03:47:57.208Z</time>
</trkpt>
<trkpt lat="-28.3490333" lon="152.3439694">
<ele>673.077</ele>
<time>2016-01-16T03:47:59.100Z</time>
</trkpt>
<trkpt lat="-28.3491607" lon="152.3437211">
<ele>669.583</ele>
<time>2016-01-16T03:48:00.984Z</time>
</trkpt>
<trkpt lat="-28.3494281" lon="152.3433750">
<ele>666.448</ele>
<time>2016-01-16T03:48:03.906Z</time>
</trkpt>
<trkpt lat="-28.3496838" lon="152.3430322">
<ele>663.950</ele>
<time>2016-01-16T03:48:06.724Z</time>
</trkpt>
<trkpt lat="-28.3498915" lon="152.3428161">
<ele>661.780</ele>
<time>2016-01-16T03:48:08.739Z</time>
</trkpt>
<trkpt lat="-28.3501828" lon="152.3425255">
<ele>659.476</ele>
<time>2016-01-16T03:48:11.605Z</time>
</trkpt>
<trkpt lat="-28.3503784" lon="152.3423186">
<ele>656.805</ele>
<time>2016-01-16T03:48:13.729Z</time>
</trkpt>
<trkpt lat="-28.3505534" lon="152.3421543">
<ele>653.697</ele>
<time>2016-01-16T03:48:15.724Z</time>
</trkpt>
<trkpt lat="-28.3507305" lon="152.3420164">
<ele>650.424</ele>
<time>2016-01-16T03:48:17.763Z</time>
</trkpt>
<trkpt lat="-28.3510161" lon="152.3418966">
<ele>647.344</ele>
<time>2016-01-16T03:48:20.947Z</time>
</trkpt>
<trkpt lat="-28.3512030" lon="152.3419301">
<ele>644.337</ele>
<time>2016-01-16T03:48:22.940Z</time>
</trkpt>
<trkpt lat="-28.3514756" lon="152.3420997">
<ele>641.334</ele>
<time>2016-01-16T03:48:25.869Z</time>
</trkpt>
<trkpt lat="-28.3516259" lon="152.3422572">
<ele>638.640</ele>
<time>2016-01-16T03:48:27.676Z</time>
</trkpt>
<trkpt lat="-28.3517886" lon="152.3424422">
<ele>636.522</ele>
<time>2016-01-16T03:48:29.673Z</time>
</trkpt>
<trkpt lat="-28.3519900" lon="152.3427615">
<ele>634.911</ele>
<time>2016-01-16T03:48:32.669Z</time>
</trkpt>
<trkpt lat="-28.3521030" lon="152.3429961">
<ele>633.370</ele>
<time>2016-01-16T03:48:34.731Z</time>
</trkpt>
<trkpt lat="-28.3522528" lon="152.3433448">
<ele>631.603</ele>
<time>2016-01-16T03:48:37.808Z</time>
</trkpt>
<trkpt lat="-28.3523468" lon="152.3435700">
<ele>629.597</ele>
<time>2016-01-16T03:48:39.815Z</time>
</trkpt>
<trkpt lat="-28.3524893" lon="152.3439125">
<ele>627.479</ele>
<time>2016-01-16T03:48:42.877Z</time>
</trkpt>
<trkpt lat="-28.3525519" lon="152.3441437">
<ele>625.264</ele>
<time>2016-01-16T03:48:44.800Z</time>
</trkpt>
<trkpt lat="-28.3526089" lon="152.3443864">
<ele>622.991</ele>
<time>2016-01-16T03:48:46.765Z</time>
</trkpt>
<trkpt lat="-28.3526905" lon="152.3446104">
<ele>621.067</ele>
<time>2016-01-16T03:48:48.645Z</time>
</trkpt>
<trkpt lat="-28.3527454" lon="152.3450184">
<ele>619.641</ele>
<time>2016-01-16T03:48:51.916Z</time>
</trkpt>
<trkpt lat="-28.3528353" lon="152.3453390">
<ele>617.966</ele>
<time>2016-01-16T03:48:54.950Z</time>
</trkpt>
<trkpt lat="-28.3529850" lon="152.3454311">
<ele>615.595</ele>
<time>2016-01-16T03:48:56.852Z</time>
</trkpt>
<trkpt lat="-28.3530578" lon="152.3455000">
<ele>613.082</ele>
<time>2016-01-16T03:48:57.926Z</time>
</trkpt>
<trkpt lat="-28.3534355" lon="152.3454850">
<ele>611.305</ele>
<time>2016-01-16T03:49:01.796Z</time>
</trkpt>
<trkpt lat="-28.3536262" lon="152.3453890">
<ele>610.512</ele>
<time>2016-01-16T03:49:03.646Z</time>
</trkpt>
<trkpt lat="-28.3538215" lon="152.3450445">
<ele>610.375</ele>
<time>2016-01-16T03:49:06.452Z</time>
</trkpt>
<trkpt lat="-28.3539509" lon="152.3447613">
<ele>610.600</ele>
<time>2016-01-16T03:49:08.447Z</time>
</trkpt>
<trkpt lat="-28.3540082" lon="152.3444690">
<ele>611.162</ele>
<time>2016-01-16T03:49:10.238Z</time>
</trkpt>
<trkpt lat="-28.3540217" lon="152.3439651">
<ele>611.901</ele>
<time>2016-01-16T03:49:13.108Z</time>
</trkpt>
<trkpt lat="-28.3540058" lon="152.3435918">
<ele>612.511</ele>
<time>2016-01-16T03:49:15.103Z</time>
</trkpt>
<trkpt lat="-28.3539774" lon="152.3429859">
<ele>612.941</ele>
<time>2016-01-16T03:49:18.103Z</time>
</trkpt>
<trkpt lat="-28.3539635" lon="152.3425804">
<ele>613.312</ele>
<time>2016-01-16T03:49:20.067Z</time>
</trkpt>
<trkpt lat="-28.3539475" lon="152.3421793">
<ele>613.623</ele>
<time>2016-01-16T03:49:22.017Z</time>
</trkpt>
<trkpt lat="-28.3539287" lon="152.3417723">
<ele>613.655</ele>
<time>2016-01-16T03:49:23.979Z</time>
</trkpt>
<trkpt lat="-28.3539080" lon="152.3411589">
<ele>611.263</ele>
<time>2016-01-16T03:49:26.832Z</time>
</trkpt>
<trkpt lat="-28.3538891" lon="152.3406979">
<ele>604.480</ele>
<time>2016-01-16T03:49:28.792Z</time>
</trkpt>
<trkpt lat="-28.3538741" lon="152.3402070">
<ele>596.077</ele>
<time>2016-01-16T03:49:30.865Z</time>
</trkpt>
<trkpt lat="-28.3538696" lon="152.3397456">
<ele>590.378</ele>
<time>2016-01-16T03:49:32.841Z</time>
</trkpt>
<trkpt lat="-28.3539564" lon="152.3390700">
<ele>587.582</ele>
<time>2016-01-16T03:49:35.799Z</time>
</trkpt>
<trkpt lat="-28.3540900" lon="152.3386316">
<ele>585.833</ele>
<time>2016-01-16T03:49:37.714Z</time>
</trkpt>
<trkpt lat="-28.3542938" lon="152.3381648">
<ele>584.486</ele>
<time>2016-01-16T03:49:39.738Z</time>
</trkpt>
<trkpt lat="-28.3545269" lon="152.3376997">
<ele>584.010</ele>
<time>2016-01-16T03:49:41.809Z</time>
</trkpt>
<trkpt lat="-28.3548535" lon="152.3370403">
<ele>584.475</ele>
<time>2016-01-16T03:49:44.891Z</time>
</trkpt>
<trkpt lat="-28.3551727" lon="152.3364734">
<ele>584.728</ele>
<time>2016-01-16T03:49:47.812Z</time>
</trkpt>
<trkpt lat="-28.3555159" lon="152.3359469">
<ele>583.533</ele>
<time>2016-01-16T03:49:50.651Z</time>
</trkpt>
<trkpt lat="-28.3559829" lon="152.3354359">
<ele>581.374</ele>
<time>2016-01-16T03:49:53.773Z</time>
</trkpt>
<trkpt lat="-28.3562767" lon="152.3350990">
<ele>579.704</ele>
<time>2016-01-16T03:49:55.816Z</time>
</trkpt>
<trkpt lat="-28.3566365" lon="152.3345601">
<ele>578.822</ele>
<time>2016-01-16T03:49:58.768Z</time>
</trkpt>
<trkpt lat="-28.3568267" lon="152.3341671">
<ele>578.085</ele>
<time>2016-01-16T03:50:00.757Z</time>
</trkpt>
<trkpt lat="-28.3569903" lon="152.3335139">
<ele>577.197</ele>
<time>2016-01-16T03:50:03.753Z</time>
</trkpt>
<trkpt lat="-28.3570268" lon="152.3328413">
<ele>576.254</ele>
<time>2016-01-16T03:50:06.688Z</time>
</trkpt>
<trkpt lat="-28.3569941" lon="152.3324198">
<ele>575.191</ele>
<time>2016-01-16T03:50:08.539Z</time>
</trkpt>
<trkpt lat="-28.3568371" lon="152.3317706">
<ele>573.962</ele>
<time>2016-01-16T03:50:11.502Z</time>
</trkpt>
<trkpt lat="-28.3567339" lon="152.3313355">
<ele>572.635</ele>
<time>2016-01-16T03:50:13.460Z</time>
</trkpt>
<trkpt lat="-28.3566131" lon="152.3308852">
<ele>571.402</ele>
<time>2016-01-16T03:50:15.466Z</time>
</trkpt>
<trkpt lat="-28.3565507" lon="152.3306441">
<ele>570.459</ele>
<time>2016-01-16T03:50:16.524Z</time>
</trkpt>
<trkpt lat="-28.3563094" lon="152.3297188">
<ele>569.330</ele>
<time>2016-01-16T03:50:20.545Z</time>
</trkpt>
<trkpt lat="-28.3562040" lon="152.3292615">
<ele>566.886</ele>
<time>2016-01-16T03:50:22.499Z</time>
</trkpt>
<trkpt lat="-28.3560769" lon="152.3285539">
<ele>562.889</ele>
<time>2016-01-16T03:50:25.502Z</time>
</trkpt>
<trkpt lat="-28.3560003" lon="152.3281003">
<ele>557.941</ele>
<time>2016-01-16T03:50:27.496Z</time>
</trkpt>
<trkpt lat="-28.3558572" lon="152.3274476">
<ele>553.195</ele>
<time>2016-01-16T03:50:30.480Z</time>
</trkpt>
<trkpt lat="-28.3557170" lon="152.3270333">
<ele>550.042</ele>
<time>2016-01-16T03:50:32.488Z</time>
</trkpt>
<trkpt lat="-28.3554042" lon="152.3264914">
<ele>548.364</ele>
<time>2016-01-16T03:50:35.421Z</time>
</trkpt>
<trkpt lat="-28.3550755" lon="152.3259490">
<ele>547.043</ele>
<time>2016-01-16T03:50:38.399Z</time>
</trkpt>
<trkpt lat="-28.3548567" lon="152.3255801">
<ele>545.889</ele>
<time>2016-01-16T03:50:40.432Z</time>
</trkpt>
<trkpt lat="-28.3546385" lon="152.3250021">
<ele>544.849</ele>
<time>2016-01-16T03:50:43.379Z</time>
</trkpt>
<trkpt lat="-28.3545848" lon="152.3246108">
<ele>543.451</ele>
<time>2016-01-16T03:50:45.394Z</time>
</trkpt>
<trkpt lat="-28.3545765" lon="152.3240702">
<ele>541.773</ele>
<time>2016-01-16T03:50:48.381Z</time>
</trkpt>
<trkpt lat="-28.3545749" lon="152.3237553">
<ele>540.095</ele>
<time>2016-01-16T03:50:50.480Z</time>
</trkpt>
<trkpt lat="-28.3545816" lon="152.3235159">
<ele>538.253</ele>
<time>2016-01-16T03:50:52.634Z</time>
</trkpt>
<trkpt lat="-28.3545805" lon="152.3232783">
<ele>535.999</ele>
<time>2016-01-16T03:50:55.649Z</time>
</trkpt>
<trkpt lat="-28.3545882" lon="152.3231498">
<ele>533.554</ele>
<time>2016-01-16T03:50:58.141Z</time>
</trkpt>
<trkpt lat="-28.3545953" lon="152.3230324">
<ele>531.492</ele>
<time>2016-01-16T03:51:00.848Z</time>
</trkpt>
<trkpt lat="-28.3545742" lon="152.3229266">
<ele>530.220</ele>
<time>2016-01-16T03:51:02.843Z</time>
</trkpt>
<trkpt lat="-28.3544490" lon="152.3228132">
<ele>529.631</ele>
<time>2016-01-16T03:51:05.038Z</time>
</trkpt>
<trkpt lat="-28.3541198" lon="152.3227184">
<ele>529.565</ele>
<time>2016-01-16T03:51:08.191Z</time>
</trkpt>
<trkpt lat="-28.3538224" lon="152.3225906">
<ele>529.949</ele>
<time>2016-01-16T03:51:10.368Z</time>
</trkpt>
<trkpt lat="-28.3533300" lon="152.3223029">
<ele>530.602</ele>
<time>2016-01-16T03:51:13.855Z</time>
</trkpt>
<trkpt lat="-28.3529854" lon="152.3220632">
<ele>531.592</ele>
<time>2016-01-16T03:51:16.065Z</time>
</trkpt>
<trkpt lat="-28.3526550" lon="152.3218182">
<ele>532.894</ele>
<time>2016-01-16T03:51:18.033Z</time>
</trkpt>
<trkpt lat="-28.3521285" lon="152.3214489">
<ele>533.740</ele>
<time>2016-01-16T03:51:21.064Z</time>
</trkpt>
<trkpt lat="-28.3517809" lon="152.3212073">
<ele>533.515</ele>
<time>2016-01-16T03:51:23.057Z</time>
</trkpt>
<trkpt lat="-28.3516022" lon="152.3210778">
<ele>532.630</ele>
<time>2016-01-16T03:51:24.083Z</time>
</trkpt>
<trkpt lat="-28.3508878" lon="152.3205752">
<ele>531.795</ele>
<time>2016-01-16T03:51:28.126Z</time>
</trkpt>
<trkpt lat="-28.3505579" lon="152.3203015">
<ele>531.289</ele>
<time>2016-01-16T03:51:30.080Z</time>
</trkpt>
<trkpt lat="-28.3502496" lon="152.3199821">
<ele>530.905</ele>
<time>2016-01-16T03:51:32.055Z</time>
</trkpt>
<trkpt lat="-28.3498066" lon="152.3194601">
<ele>530.468</ele>
<time>2016-01-16T03:51:35.121Z</time>
</trkpt>
<trkpt lat="-28.3493821" lon="152.3189895">
<ele>530.125</ele>
<time>2016-01-16T03:51:38.032Z</time>
</trkpt>
<trkpt lat="-28.3489014" lon="152.3185546">
<ele>529.717</ele>
<time>2016-01-16T03:51:41.068Z</time>
</trkpt>
<trkpt lat="-28.3485699" lon="152.3182990">
<ele>528.977</ele>
<time>2016-01-16T03:51:43.023Z</time>
</trkpt>
<trkpt lat="-28.3480250" lon="152.3179588">
<ele>528.233</ele>
<time>2016-01-16T03:51:45.984Z</time>
</trkpt>
<trkpt lat="-28.3476495" lon="152.3177225">
<ele>527.766</ele>
<time>2016-01-16T03:51:47.966Z</time>
</trkpt>
<trkpt lat="-28.3470807" lon="152.3173668">
<ele>527.538</ele>
<time>2016-01-16T03:51:50.978Z</time>
</trkpt>
<trkpt lat="-28.3465250" lon="152.3170254">
<ele>527.483</ele>
<time>2016-01-16T03:51:53.932Z</time>
</trkpt>
<trkpt lat="-28.3461646" lon="152.3167927">
<ele>527.274</ele>
<time>2016-01-16T03:51:55.881Z</time>
</trkpt>
<trkpt lat="-28.3457958" lon="152.3165650">
<ele>526.644</ele>
<time>2016-01-16T03:51:57.893Z</time>
</trkpt>
<trkpt lat="-28.3453162" lon="152.3161128">
<ele>525.714</ele>
<time>2016-01-16T03:52:00.928Z</time>
</trkpt>
<trkpt lat="-28.3449325" lon="152.3155864">
<ele>524.788</ele>
<time>2016-01-16T03:52:03.925Z</time>
</trkpt>
<trkpt lat="-28.3447347" lon="152.3152023">
<ele>524.208</ele>
<time>2016-01-16T03:52:05.942Z</time>
</trkpt>
<trkpt lat="-28.3445987" lon="152.3147983">
<ele>524.250</ele>
<time>2016-01-16T03:52:07.908Z</time>
</trkpt>
<trkpt lat="-28.3445085" lon="152.3143557">
<ele>525.382</ele>
<time>2016-01-16T03:52:09.938Z</time>
</trkpt>
<trkpt lat="-28.3444352" lon="152.3139130">
<ele>527.716</ele>
<time>2016-01-16T03:52:11.987Z</time>
</trkpt>
<trkpt lat="-28.3443480" lon="152.3132843">
<ele>530.311</ele>
<time>2016-01-16T03:52:14.936Z</time>
</trkpt>
<trkpt lat="-28.3442614" lon="152.3126588">
<ele>532.066</ele>
<time>2016-01-16T03:52:17.921Z</time>
</trkpt>
<trkpt lat="-28.3442304" lon="152.3122380">
<ele>532.620</ele>
<time>2016-01-16T03:52:19.976Z</time>
</trkpt>
<trkpt lat="-28.3441453" lon="152.3116184">
<ele>532.235</ele>
<time>2016-01-16T03:52:23.052Z</time>
</trkpt>
<trkpt lat="-28.3440947" lon="152.3111806">
<ele>531.207</ele>
<time>2016-01-16T03:52:25.239Z</time>
</trkpt>
<trkpt lat="-28.3440089" lon="152.3106053">
<ele>529.866</ele>
<time>2016-01-16T03:52:28.165Z</time>
</trkpt>
<trkpt lat="-28.3439253" lon="152.3100255">
<ele>528.459</ele>
<time>2016-01-16T03:52:31.172Z</time>
</trkpt>
<trkpt lat="-28.3438816" lon="152.3096477">
<ele>526.784</ele>
<time>2016-01-16T03:52:33.160Z</time>
</trkpt>
<trkpt lat="-28.3438255" lon="152.3090892">
<ele>524.528</ele>
<time>2016-01-16T03:52:36.052Z</time>
</trkpt>
<trkpt lat="-28.3437890" lon="152.3087063">
<ele>521.894</ele>
<time>2016-01-16T03:52:37.992Z</time>
</trkpt>
<trkpt lat="-28.3437525" lon="152.3083057">
<ele>519.456</ele>
<time>2016-01-16T03:52:39.989Z</time>
</trkpt>
<trkpt lat="-28.3436946" lon="152.3074516">
<ele>517.812</ele>
<time>2016-01-16T03:52:44.126Z</time>
</trkpt>
<trkpt lat="-28.3436486" lon="152.3068500">
<ele>517.075</ele>
<time>2016-01-16T03:52:47.048Z</time>
</trkpt>
<trkpt lat="-28.3436058" lon="152.3062425">
<ele>516.898</ele>
<time>2016-01-16T03:52:50.026Z</time>
</trkpt>
<trkpt lat="-28.3435593" lon="152.3056587">
<ele>516.825</ele>
<time>2016-01-16T03:52:52.914Z</time>
</trkpt>
<trkpt lat="-28.3435184" lon="152.3052633">
<ele>516.641</ele>
<time>2016-01-16T03:52:54.858Z</time>
</trkpt>
<trkpt lat="-28.3434725" lon="152.3046631">
<ele>516.108</ele>
<time>2016-01-16T03:52:57.797Z</time>
</trkpt>
<trkpt lat="-28.3434096" lon="152.3040624">
<ele>515.041</ele>
<time>2016-01-16T03:53:00.792Z</time>
</trkpt>
<trkpt lat="-28.3433939" lon="152.3038614">
<ele>513.718</ele>
<time>2016-01-16T03:53:01.836Z</time>
</trkpt>
<trkpt lat="-28.3433413" lon="152.3030950">
<ele>512.548</ele>
<time>2016-01-16T03:53:05.959Z</time>
</trkpt>
<trkpt lat="-28.3433200" lon="152.3025587">
<ele>511.527</ele>
<time>2016-01-16T03:53:08.955Z</time>
</trkpt>
<trkpt lat="-28.3432878" lon="152.3022223">
<ele>510.616</ele>
<time>2016-01-16T03:53:10.908Z</time>
</trkpt>
<trkpt lat="-28.3432554" lon="152.3018826">
<ele>509.959</ele>
<time>2016-01-16T03:53:12.897Z</time>
</trkpt>
<trkpt lat="-28.3432464" lon="152.3015432">
<ele>509.651</ele>
<time>2016-01-16T03:53:14.860Z</time>
</trkpt>
<trkpt lat="-28.3432251" lon="152.3011935">
<ele>509.513</ele>
<time>2016-01-16T03:53:16.900Z</time>
</trkpt>
<trkpt lat="-28.3431420" lon="152.3007079">
<ele>509.365</ele>
<time>2016-01-16T03:53:19.828Z</time>
</trkpt>
<trkpt lat="-28.3430008" lon="152.3004020">
<ele>509.024</ele>
<time>2016-01-16T03:53:21.886Z</time>
</trkpt>
<trkpt lat="-28.3427115" lon="152.2999982">
<ele>508.445</ele>
<time>2016-01-16T03:53:24.927Z</time>
</trkpt>
<trkpt lat="-28.3424975" lon="152.2997501">
<ele>507.724</ele>
<time>2016-01-16T03:53:26.909Z</time>
</trkpt>
<trkpt lat="-28.3422914" lon="152.2994938">
<ele>506.999</ele>
<time>2016-01-16T03:53:28.952Z</time>
</trkpt>
<trkpt lat="-28.3420015" lon="152.2991382">
<ele>506.476</ele>
<time>2016-01-16T03:53:31.926Z</time>
</trkpt>
<trkpt lat="-28.3418221" lon="152.2988915">
<ele>506.403</ele>
<time>2016-01-16T03:53:33.969Z</time>
</trkpt>
<trkpt lat="-28.3415651" lon="152.2983770">
<ele>507.062</ele>
<time>2016-01-16T03:53:37.828Z</time>
</trkpt>
<trkpt lat="-28.3414970" lon="152.2980733">
<ele>508.725</ele>
<time>2016-01-16T03:53:39.822Z</time>
</trkpt>
<trkpt lat="-28.3414258" lon="152.2976171">
<ele>511.006</ele>
<time>2016-01-16T03:53:42.780Z</time>
</trkpt>
<trkpt lat="-28.3413836" lon="152.2973125">
<ele>512.934</ele>
<time>2016-01-16T03:53:44.792Z</time>
</trkpt>
<trkpt lat="-28.3412899" lon="152.2968754">
<ele>513.875</ele>
<time>2016-01-16T03:53:47.744Z</time>
</trkpt>
<trkpt lat="-28.3411850" lon="152.2965830">
<ele>513.735</ele>
<time>2016-01-16T03:53:49.744Z</time>
</trkpt>
<trkpt lat="-28.3409832" lon="152.2961548">
<ele>512.317</ele>
<time>2016-01-16T03:53:52.687Z</time>
</trkpt>
<trkpt lat="-28.3408912" lon="152.2960169">
<ele>509.854</ele>
<time>2016-01-16T03:53:53.675Z</time>
</trkpt>
<trkpt lat="-28.3405659" lon="152.2953324">
<ele>507.532</ele>
<time>2016-01-16T03:53:57.917Z</time>
</trkpt>
<trkpt lat="-28.3403115" lon="152.2948870">
<ele>506.156</ele>
<time>2016-01-16T03:54:00.955Z</time>
</trkpt>
<trkpt lat="-28.3401458" lon="152.2946251">
<ele>505.087</ele>
<time>2016-01-16T03:54:03.075Z</time>
</trkpt>
<trkpt lat="-28.3399169" lon="152.2945146">
<ele>503.580</ele>
<time>2016-01-16T03:54:05.045Z</time>
</trkpt>
<trkpt lat="-28.3396655" lon="152.2944827">
<ele>501.839</ele>
<time>2016-01-16T03:54:06.972Z</time>
</trkpt>
<trkpt lat="-28.3394102" lon="152.2945402">
<ele>500.474</ele>
<time>2016-01-16T03:54:08.855Z</time>
</trkpt>
<trkpt lat="-28.3391337" lon="152.2946614">
<ele>499.849</ele>
<time>2016-01-16T03:54:10.950Z</time>
</trkpt>
<trkpt lat="-28.3388785" lon="152.2948024">
<ele>500.093</ele>
<time>2016-01-16T03:54:13.007Z</time>
</trkpt>
<trkpt lat="-28.3386494" lon="152.2949268">
<ele>500.876</ele>
<time>2016-01-16T03:54:14.874Z</time>
</trkpt>
<trkpt lat="-28.3382913" lon="152.2951544">
<ele>501.741</ele>
<time>2016-01-16T03:54:17.877Z</time>
</trkpt>
<trkpt lat="-28.3380339" lon="152.2952842">
<ele>502.336</ele>
<time>2016-01-16T03:54:19.927Z</time>
</trkpt>
<trkpt lat="-28.3376414" lon="152.2954650">
<ele>502.465</ele>
<time>2016-01-16T03:54:23.024Z</time>
</trkpt>
<trkpt lat="-28.3375047" lon="152.2955006">
<ele>502.272</ele>
<time>2016-01-16T03:54:24.058Z</time>
</trkpt>
<trkpt lat="-28.3369853" lon="152.2956221">
<ele>502.065</ele>
<time>2016-01-16T03:54:28.011Z</time>
</trkpt>
<trkpt lat="-28.3367403" lon="152.2956542">
<ele>501.829</ele>
<time>2016-01-16T03:54:30.086Z</time>
</trkpt>
<trkpt lat="-28.3364412" lon="152.2957027">
<ele>501.378</ele>
<time>2016-01-16T03:54:32.902Z</time>
</trkpt>
<trkpt lat="-28.3362756" lon="152.2957378">
<ele>500.539</ele>
<time>2016-01-16T03:54:34.649Z</time>
</trkpt>
<trkpt lat="-28.3360848" lon="152.2957712">
<ele>499.503</ele>
<time>2016-01-16T03:54:36.593Z</time>
</trkpt>
<trkpt lat="-28.3358834" lon="152.2958109">
<ele>498.777</ele>
<time>2016-01-16T03:54:38.545Z</time>
</trkpt>
<trkpt lat="-28.3356684" lon="152.2958610">
<ele>498.665</ele>
<time>2016-01-16T03:54:40.613Z</time>
</trkpt>
<trkpt lat="-28.3353538" lon="152.2959095">
<ele>499.091</ele>
<time>2016-01-16T03:54:43.632Z</time>
</trkpt>
<trkpt lat="-28.3351394" lon="152.2959490">
<ele>499.827</ele>
<time>2016-01-16T03:54:45.817Z</time>
</trkpt>
<trkpt lat="-28.3349614" lon="152.2959797">
<ele>500.712</ele>
<time>2016-01-16T03:54:47.746Z</time>
</trkpt>
<trkpt lat="-28.3346832" lon="152.2960120">
<ele>501.671</ele>
<time>2016-01-16T03:54:50.669Z</time>
</trkpt>
<trkpt lat="-28.3344750" lon="152.2960562">
<ele>502.492</ele>
<time>2016-01-16T03:54:52.616Z</time>
</trkpt>
<trkpt lat="-28.3341319" lon="152.2961320">
<ele>503.070</ele>
<time>2016-01-16T03:54:55.688Z</time>
</trkpt>
<trkpt lat="-28.3337940" lon="152.2961872">
<ele>503.605</ele>
<time>2016-01-16T03:54:58.768Z</time>
</trkpt>
<trkpt lat="-28.3336096" lon="152.2962257">
<ele>504.144</ele>
<time>2016-01-16T03:55:00.785Z</time>
</trkpt>
<trkpt lat="-28.3334855" lon="152.2963060">
<ele>504.458</ele>
<time>2016-01-16T03:55:02.766Z</time>
</trkpt>
<trkpt lat="-28.3333056" lon="152.2963300">
<ele>504.377</ele>
<time>2016-01-16T03:55:06.830Z</time>
</trkpt>
<trkpt lat="-28.3332115" lon="152.2963201">
<ele>504.001</ele>
<time>2016-01-16T03:55:09.839Z</time>
</trkpt>
<trkpt lat="-28.3330988" lon="152.2962877">
<ele>503.596</ele>
<time>2016-01-16T03:55:13.096Z</time>
</trkpt>
<trkpt lat="-28.3330276" lon="152.2961331">
<ele>503.339</ele>
<time>2016-01-16T03:55:15.317Z</time>
</trkpt>
<trkpt lat="-28.3329693" lon="152.2959207">
<ele>503.293</ele>
<time>2016-01-16T03:55:17.413Z</time>
</trkpt>
<trkpt lat="-28.3329026" lon="152.2956885">
<ele>503.623</ele>
<time>2016-01-16T03:55:19.369Z</time>
</trkpt>
<trkpt lat="-28.3328218" lon="152.2952990">
<ele>504.368</ele>
<time>2016-01-16T03:55:22.489Z</time>
</trkpt>
<trkpt lat="-28.3328106" lon="152.2950603">
<ele>505.167</ele>
<time>2016-01-16T03:55:24.540Z</time>
</trkpt>
<trkpt lat="-28.3328373" lon="152.2947377">
<ele>505.614</ele>
<time>2016-01-16T03:55:27.535Z</time>
</trkpt>
<trkpt lat="-28.3328083" lon="152.2945472">
<ele>505.513</ele>
<time>2016-01-16T03:55:29.327Z</time>
</trkpt>
<trkpt lat="-28.3326722" lon="152.2942218">
<ele>504.971</ele>
<time>2016-01-16T03:55:32.371Z</time>
</trkpt>
<trkpt lat="-28.3325670" lon="152.2938229">
<ele>504.597</ele>
<time>2016-01-16T03:55:35.400Z</time>
</trkpt>
<trkpt lat="-28.3324205" lon="152.2934161">
<ele>504.978</ele>
<time>2016-01-16T03:55:38.283Z</time>
</trkpt>
<trkpt lat="-28.3323343" lon="152.2930934">
<ele>505.882</ele>
<time>2016-01-16T03:55:40.353Z</time>
</trkpt>
<trkpt lat="-28.3322333" lon="152.2928037">
<ele>506.393</ele>
<time>2016-01-16T03:55:42.253Z</time>
</trkpt>
<trkpt lat="-28.3321053" lon="152.2923397">
<ele>505.878</ele>
<time>2016-01-16T03:55:45.249Z</time>
</trkpt>
<trkpt lat="-28.3320192" lon="152.2920312">
<ele>504.624</ele>
<time>2016-01-16T03:55:47.282Z</time>
</trkpt>
<trkpt lat="-28.3319454" lon="152.2917297">
<ele>503.208</ele>
<time>2016-01-16T03:55:49.243Z</time>
</trkpt>
<trkpt lat="-28.3318359" lon="152.2912844">
<ele>502.004</ele>
<time>2016-01-16T03:55:52.109Z</time>
</trkpt>
<trkpt lat="-28.3317137" lon="152.2908059">
<ele>501.282</ele>
<time>2016-01-16T03:55:55.146Z</time>
</trkpt>
<trkpt lat="-28.3316171" lon="152.2904752">
<ele>501.190</ele>
<time>2016-01-16T03:55:57.236Z</time>
</trkpt>
<trkpt lat="-28.3314920" lon="152.2899994">
<ele>501.566</ele>
<time>2016-01-16T03:56:00.237Z</time>
</trkpt>
<trkpt lat="-28.3314058" lon="152.2897089">
<ele>502.013</ele>
<time>2016-01-16T03:56:02.154Z</time>
</trkpt>
<trkpt lat="-28.3310868" lon="152.2894322">
<ele>502.241</ele>
<time>2016-01-16T03:56:05.020Z</time>
</trkpt>
<trkpt lat="-28.3308524" lon="152.2892397">
<ele>502.442</ele>
<time>2016-01-16T03:56:07.049Z</time>
</trkpt>
<trkpt lat="-28.3306442" lon="152.2890085">
<ele>502.948</ele>
<time>2016-01-16T03:56:09.076Z</time>
</trkpt>
<trkpt lat="-28.3305004" lon="152.2887221">
<ele>503.728</ele>
<time>2016-01-16T03:56:11.094Z</time>
</trkpt>
<trkpt lat="-28.3303875" lon="152.2884426">
<ele>504.414</ele>
<time>2016-01-16T03:56:12.943Z</time>
</trkpt>
<trkpt lat="-28.3301664" lon="152.2879923">
<ele>504.765</ele>
<time>2016-01-16T03:56:15.954Z</time>
</trkpt>
<trkpt lat="-28.3299355" lon="152.2875287">
<ele>504.747</ele>
<time>2016-01-16T03:56:18.949Z</time>
</trkpt>
<trkpt lat="-28.3296781" lon="152.2870721">
<ele>504.481</ele>
<time>2016-01-16T03:56:21.921Z</time>
</trkpt>
<trkpt lat="-28.3294913" lon="152.2867683">
<ele>504.343</ele>
<time>2016-01-16T03:56:23.913Z</time>
</trkpt>
<trkpt lat="-28.3292863" lon="152.2864611">
<ele>504.728</ele>
<time>2016-01-16T03:56:25.967Z</time>
</trkpt>
<trkpt lat="-28.3291065" lon="152.2861520">
<ele>505.724</ele>
<time>2016-01-16T03:56:27.936Z</time>
</trkpt>
<trkpt lat="-28.3288330" lon="152.2856701">
<ele>507.157</ele>
<time>2016-01-16T03:56:30.972Z</time>
</trkpt>
<trkpt lat="-28.3286365" lon="152.2853659">
<ele>508.549</ele>
<time>2016-01-16T03:56:32.947Z</time>
</trkpt>
<trkpt lat="-28.3284450" lon="152.2850410">
<ele>509.366</ele>
<time>2016-01-16T03:56:34.946Z</time>
</trkpt>
<trkpt lat="-28.3282433" lon="152.2847046">
<ele>509.560</ele>
<time>2016-01-16T03:56:36.962Z</time>
</trkpt>
<trkpt lat="-28.3279513" lon="152.2841979">
<ele>509.621</ele>
<time>2016-01-16T03:56:39.911Z</time>
</trkpt>
<trkpt lat="-28.3277422" lon="152.2838821">
<ele>509.991</ele>
<time>2016-01-16T03:56:41.827Z</time>
</trkpt>
<trkpt lat="-28.3275283" lon="152.2835597">
<ele>510.587</ele>
<time>2016-01-16T03:56:43.799Z</time>
</trkpt>
<trkpt lat="-28.3272374" lon="152.2830581">
<ele>511.061</ele>
<time>2016-01-16T03:56:46.751Z</time>
</trkpt>
<trkpt lat="-28.3270727" lon="152.2826876">
<ele>511.276</ele>
<time>2016-01-16T03:56:48.750Z</time>
</trkpt>
<trkpt lat="-28.3268685" lon="152.2820765">
<ele>511.351</ele>
<time>2016-01-16T03:56:51.769Z</time>
</trkpt>
<trkpt lat="-28.3267314" lon="152.2816367">
<ele>511.724</ele>
<time>2016-01-16T03:56:53.837Z</time>
</trkpt>
<trkpt lat="-28.3265895" lon="152.2809802">
<ele>512.721</ele>
<time>2016-01-16T03:56:56.786Z</time>
</trkpt>
<trkpt lat="-28.3265139" lon="152.2805262">
<ele>513.943</ele>
<time>2016-01-16T03:56:58.782Z</time>
</trkpt>
<trkpt lat="-28.3263883" lon="152.2798572">
<ele>514.758</ele>
<time>2016-01-16T03:57:01.742Z</time>
</trkpt>
<trkpt lat="-28.3262530" lon="152.2791815">
<ele>515.270</ele>
<time>2016-01-16T03:57:04.716Z</time>
</trkpt>
<trkpt lat="-28.3260760" lon="152.2785016">
<ele>515.900</ele>
<time>2016-01-16T03:57:07.702Z</time>
</trkpt>
<trkpt lat="-28.3259554" lon="152.2780386">
<ele>516.574</ele>
<time>2016-01-16T03:57:09.720Z</time>
</trkpt>
<trkpt lat="-28.3258523" lon="152.2775287">
<ele>516.976</ele>
<time>2016-01-16T03:57:11.917Z</time>
</trkpt>
<trkpt lat="-28.3255657" lon="152.2768950">
<ele>517.177</ele>
<time>2016-01-16T03:57:14.817Z</time>
</trkpt>
<trkpt lat="-28.3254033" lon="152.2764160">
<ele>517.450</ele>
<time>2016-01-16T03:57:16.840Z</time>
</trkpt>
<trkpt lat="-28.3252878" lon="152.2759260">
<ele>517.968</ele>
<time>2016-01-16T03:57:18.825Z</time>
</trkpt>
<trkpt lat="-28.3251161" lon="152.2752107">
<ele>518.562</ele>
<time>2016-01-16T03:57:21.760Z</time>
</trkpt>
<trkpt lat="-28.3248277" lon="152.2746372">
<ele>518.884</ele>
<time>2016-01-16T03:57:24.557Z</time>
</trkpt>
<trkpt lat="-28.3246330" lon="152.2740819">
<ele>518.249</ele>
<time>2016-01-16T03:57:27.424Z</time>
</trkpt>
<trkpt lat="-28.3246971" lon="152.2735312">
<ele>516.207</ele>
<time>2016-01-16T03:57:30.323Z</time>
</trkpt>
<trkpt lat="-28.3248342" lon="152.2731598">
<ele>513.670</ele>
<time>2016-01-16T03:57:32.368Z</time>
</trkpt>
<trkpt lat="-28.3250493" lon="152.2725620">
<ele>512.945</ele>
<time>2016-01-16T03:57:35.512Z</time>
</trkpt>
<trkpt lat="-28.3252759" lon="152.2721647">
<ele>515.405</ele>
<time>2016-01-16T03:57:37.999Z</time>
</trkpt>
<trkpt lat="-28.3253641" lon="152.2719071">
<ele>519.512</ele>
<time>2016-01-16T03:57:39.817Z</time>
</trkpt>
<trkpt lat="-28.3254116" lon="152.2717430">
<ele>522.504</ele>
<time>2016-01-16T03:57:41.189Z</time>
</trkpt>
<trkpt lat="-28.3253833" lon="152.2714431">
<ele>523.487</ele>
<time>2016-01-16T03:57:44.027Z</time>
</trkpt>
<trkpt lat="-28.3253627" lon="152.2712538">
<ele>523.031</ele>
<time>2016-01-16T03:57:46.010Z</time>
</trkpt>
<trkpt lat="-28.3253486" lon="152.2710726">
<ele>521.935</ele>
<time>2016-01-16T03:57:48.280Z</time>
</trkpt>
<trkpt lat="-28.3253002" lon="152.2709684">
<ele>520.677</ele>
<time>2016-01-16T03:57:49.947Z</time>
</trkpt>
<trkpt lat="-28.3251751" lon="152.2708277">
<ele>519.432</ele>
<time>2016-01-16T03:57:53.034Z</time>
</trkpt>
<trkpt lat="-28.3249399" lon="152.2706834">
<ele>518.617</ele>
<time>2016-01-16T03:57:55.837Z</time>
</trkpt>
<trkpt lat="-28.3244928" lon="152.2704102">
<ele>518.876</ele>
<time>2016-01-16T03:57:59.305Z</time>
</trkpt>
<trkpt lat="-28.3239905" lon="152.2700923">
<ele>520.626</ele>
<time>2016-01-16T03:58:02.661Z</time>
</trkpt>
<trkpt lat="-28.3236243" lon="152.2698743">
<ele>523.436</ele>
<time>2016-01-16T03:58:04.848Z</time>
</trkpt>
<trkpt lat="-28.3232289" lon="152.2696471">
<ele>526.078</ele>
<time>2016-01-16T03:58:07.005Z</time>
</trkpt>
<trkpt lat="-28.3228293" lon="152.2694143">
<ele>527.883</ele>
<time>2016-01-16T03:58:09.115Z</time>
</trkpt>
<trkpt lat="-28.3224704" lon="152.2691820">
<ele>529.125</ele>
<time>2016-01-16T03:58:11.055Z</time>
</trkpt>
<trkpt lat="-28.3219448" lon="152.2687873">
<ele>530.159</ele>
<time>2016-01-16T03:58:14.001Z</time>
</trkpt>
<trkpt lat="-28.3216242" lon="152.2684260">
<ele>531.466</ele>
<time>2016-01-16T03:58:16.034Z</time>
</trkpt>
<trkpt lat="-28.3213171" lon="152.2680058">
<ele>533.351</ele>
<time>2016-01-16T03:58:18.091Z</time>
</trkpt>
<trkpt lat="-28.3209940" lon="152.2675814">
<ele>536.094</ele>
<time>2016-01-16T03:58:20.142Z</time>
</trkpt>
<trkpt lat="-28.3206919" lon="152.2671509">
<ele>539.932</ele>
<time>2016-01-16T03:58:22.171Z</time>
</trkpt>
<trkpt lat="-28.3202725" lon="152.2665016">
<ele>544.363</ele>
<time>2016-01-16T03:58:25.188Z</time>
</trkpt>
<trkpt lat="-28.3199947" lon="152.2660702">
<ele>548.443</ele>
<time>2016-01-16T03:58:27.231Z</time>
</trkpt>
<trkpt lat="-28.3197106" lon="152.2656733">
<ele>551.848</ele>
<time>2016-01-16T03:58:29.214Z</time>
</trkpt>
<trkpt lat="-28.3192848" lon="152.2650909">
<ele>554.379</ele>
<time>2016-01-16T03:58:32.174Z</time>
</trkpt>
<trkpt lat="-28.3189936" lon="152.2646942">
<ele>556.102</ele>
<time>2016-01-16T03:58:34.178Z</time>
</trkpt>
<trkpt lat="-28.3187160" lon="152.2642643">
<ele>557.414</ele>
<time>2016-01-16T03:58:36.160Z</time>
</trkpt>
<trkpt lat="-28.3184029" lon="152.2638081">
<ele>558.618</ele>
<time>2016-01-16T03:58:38.196Z</time>
</trkpt>
<trkpt lat="-28.3180795" lon="152.2633381">
<ele>559.726</ele>
<time>2016-01-16T03:58:40.226Z</time>
</trkpt>
<trkpt lat="-28.3175974" lon="152.2626410">
<ele>560.562</ele>
<time>2016-01-16T03:58:43.211Z</time>
</trkpt>
<trkpt lat="-28.3172763" lon="152.2621779">
<ele>560.580</ele>
<time>2016-01-16T03:58:45.188Z</time>
</trkpt>
<trkpt lat="-28.3167919" lon="152.2614918">
<ele>559.401</ele>
<time>2016-01-16T03:58:48.138Z</time>
</trkpt>
<trkpt lat="-28.3164763" lon="152.2610306">
<ele>557.309</ele>
<time>2016-01-16T03:58:50.106Z</time>
</trkpt>
<trkpt lat="-28.3161498" lon="152.2605715">
<ele>555.122</ele>
<time>2016-01-16T03:58:52.119Z</time>
</trkpt>
<trkpt lat="-28.3158383" lon="152.2601167">
<ele>553.556</ele>
<time>2016-01-16T03:58:54.112Z</time>
</trkpt>
<trkpt lat="-28.3155212" lon="152.2596709">
<ele>552.662</ele>
<time>2016-01-16T03:58:56.107Z</time>
</trkpt>
<trkpt lat="-28.3152155" lon="152.2592426">
<ele>551.913</ele>
<time>2016-01-16T03:58:58.015Z</time>
</trkpt>
<trkpt lat="-28.3147270" lon="152.2585526">
<ele>551.126</ele>
<time>2016-01-16T03:59:01.043Z</time>
</trkpt>
<trkpt lat="-28.3142452" lon="152.2578661">
<ele>550.599</ele>
<time>2016-01-16T03:59:04.001Z</time>
</trkpt>
<trkpt lat="-28.3137611" lon="152.2571615">
<ele>550.492</ele>
<time>2016-01-16T03:59:07.005Z</time>
</trkpt>
<trkpt lat="-28.3132848" lon="152.2564785">
<ele>550.604</ele>
<time>2016-01-16T03:59:09.979Z</time>
</trkpt>
<trkpt lat="-28.3129773" lon="152.2560349">
<ele>550.168</ele>
<time>2016-01-16T03:59:11.960Z</time>
</trkpt>
<trkpt lat="-28.3126794" lon="152.2556028">
<ele>548.581</ele>
<time>2016-01-16T03:59:13.911Z</time>
</trkpt>
<trkpt lat="-28.3123609" lon="152.2551608">
<ele>546.563</ele>
<time>2016-01-16T03:59:15.972Z</time>
</trkpt>
<trkpt lat="-28.3119154" lon="152.2545274">
<ele>544.810</ele>
<time>2016-01-16T03:59:18.940Z</time>
</trkpt>
<trkpt lat="-28.3114912" lon="152.2538974">
<ele>543.077</ele>
<time>2016-01-16T03:59:21.891Z</time>
</trkpt>
<trkpt lat="-28.3112121" lon="152.2534833">
<ele>541.576</ele>
<time>2016-01-16T03:59:23.883Z</time>
</trkpt>
<trkpt lat="-28.3109399" lon="152.2530893">
<ele>540.817</ele>
<time>2016-01-16T03:59:25.868Z</time>
</trkpt>
<trkpt lat="-28.3105248" lon="152.2525617">
<ele>540.390</ele>
<time>2016-01-16T03:59:28.786Z</time>
</trkpt>
<trkpt lat="-28.3101929" lon="152.2523055">
<ele>539.608</ele>
<time>2016-01-16T03:59:30.752Z</time>
</trkpt>
<trkpt lat="-28.3098081" lon="152.2521100">
<ele>538.359</ele>
<time>2016-01-16T03:59:32.846Z</time>
</trkpt>
<trkpt lat="-28.3092150" lon="152.2520076">
<ele>537.078</ele>
<time>2016-01-16T03:59:35.792Z</time>
</trkpt>
<trkpt lat="-28.3085798" lon="152.2520956">
<ele>536.491</ele>
<time>2016-01-16T03:59:38.826Z</time>
</trkpt>
<trkpt lat="-28.3079471" lon="152.2521997">
<ele>537.184</ele>
<time>2016-01-16T03:59:41.813Z</time>
</trkpt>
<trkpt lat="-28.3075449" lon="152.2522778">
<ele>538.723</ele>
<time>2016-01-16T03:59:43.764Z</time>
</trkpt>
<trkpt lat="-28.3073447" lon="152.2523164">
<ele>539.840</ele>
<time>2016-01-16T03:59:44.752Z</time>
</trkpt>
<trkpt lat="-28.3064940" lon="152.2524676">
<ele>539.657</ele>
<time>2016-01-16T03:59:48.820Z</time>
</trkpt>
<trkpt lat="-28.3058616" lon="152.2525954">
<ele>538.085</ele>
<time>2016-01-16T03:59:51.758Z</time>
</trkpt>
<trkpt lat="-28.3051973" lon="152.2527113">
<ele>535.482</ele>
<time>2016-01-16T03:59:54.819Z</time>
</trkpt>
<trkpt lat="-28.3045609" lon="152.2527385">
<ele>532.288</ele>
<time>2016-01-16T03:59:57.756Z</time>
</trkpt>
<trkpt lat="-28.3039462" lon="152.2525803">
<ele>529.075</ele>
<time>2016-01-16T04:00:00.697Z</time>
</trkpt>
<trkpt lat="-28.3035563" lon="152.2523720">
<ele>526.670</ele>
<time>2016-01-16T04:00:02.620Z</time>
</trkpt>
<trkpt lat="-28.3031241" lon="152.2521152">
<ele>525.536</ele>
<time>2016-01-16T04:00:04.669Z</time>
</trkpt>
<trkpt lat="-28.3024693" lon="152.2516786">
<ele>525.661</ele>
<time>2016-01-16T04:00:07.700Z</time>
</trkpt>
<trkpt lat="-28.3020555" lon="152.2514075">
<ele>526.701</ele>
<time>2016-01-16T04:00:09.661Z</time>
</trkpt>
<trkpt lat="-28.3016682" lon="152.2511456">
<ele>527.649</ele>
<time>2016-01-16T04:00:11.602Z</time>
</trkpt>
<trkpt lat="-28.3012917" lon="152.2508889">
<ele>527.491</ele>
<time>2016-01-16T04:00:13.569Z</time>
</trkpt>
<trkpt lat="-28.3007075" lon="152.2505477">
<ele>526.354</ele>
<time>2016-01-16T04:00:16.553Z</time>
</trkpt>
<trkpt lat="-28.3002826" lon="152.2503888">
<ele>524.721</ele>
<time>2016-01-16T04:00:18.544Z</time>
</trkpt>
<trkpt lat="-28.2996151" lon="152.2501751">
<ele>522.891</ele>
<time>2016-01-16T04:00:21.555Z</time>
</trkpt>
<trkpt lat="-28.2989686" lon="152.2499652">
<ele>521.200</ele>
<time>2016-01-16T04:00:24.498Z</time>
</trkpt>
<trkpt lat="-28.2987628" lon="152.2499013">
<ele>519.698</ele>
<time>2016-01-16T04:00:25.477Z</time>
</trkpt>
<trkpt lat="-28.2979871" lon="152.2496721">
<ele>518.206</ele>
<time>2016-01-16T04:00:29.419Z</time>
</trkpt>
<trkpt lat="-28.2976540" lon="152.2495587">
<ele>516.466</ele>
<time>2016-01-16T04:00:31.258Z</time>
</trkpt>
<trkpt lat="-28.2971647" lon="152.2494122">
<ele>514.136</ele>
<time>2016-01-16T04:00:34.134Z</time>
</trkpt>
<trkpt lat="-28.2968692" lon="152.2493262">
<ele>511.708</ele>
<time>2016-01-16T04:00:36.032Z</time>
</trkpt>
<trkpt lat="-28.2965840" lon="152.2492421">
<ele>509.759</ele>
<time>2016-01-16T04:00:37.984Z</time>
</trkpt>
<trkpt lat="-28.2962983" lon="152.2491246">
<ele>508.240</ele>
<time>2016-01-16T04:00:40.007Z</time>
</trkpt>
<trkpt lat="-28.2958513" lon="152.2488641">
<ele>507.268</ele>
<time>2016-01-16T04:00:43.119Z</time>
</trkpt>
<trkpt lat="-28.2955519" lon="152.2486115">
<ele>507.262</ele>
<time>2016-01-16T04:00:45.212Z</time>
</trkpt>
<trkpt lat="-28.2952664" lon="152.2483192">
<ele>508.292</ele>
<time>2016-01-16T04:00:47.226Z</time>
</trkpt>
<trkpt lat="-28.2948153" lon="152.2478734">
<ele>509.720</ele>
<time>2016-01-16T04:00:50.254Z</time>
</trkpt>
<trkpt lat="-28.2945187" lon="152.2475721">
<ele>510.733</ele>
<time>2016-01-16T04:00:52.243Z</time>
</trkpt>
<trkpt lat="-28.2942237" lon="152.2472860">
<ele>511.108</ele>
<time>2016-01-16T04:00:54.190Z</time>
</trkpt>
<trkpt lat="-28.2937908" lon="152.2468218">
<ele>511.059</ele>
<time>2016-01-16T04:00:57.211Z</time>
</trkpt>
<trkpt lat="-28.2933640" lon="152.2463660">
<ele>510.891</ele>
<time>2016-01-16T04:01:00.196Z</time>
</trkpt>
<trkpt lat="-28.2930880" lon="152.2460792">
<ele>510.599</ele>
<time>2016-01-16T04:01:02.123Z</time>
</trkpt>
<trkpt lat="-28.2926682" lon="152.2456544">
<ele>510.009</ele>
<time>2016-01-16T04:01:05.049Z</time>
</trkpt>
<trkpt lat="-28.2922467" lon="152.2452198">
<ele>509.230</ele>
<time>2016-01-16T04:01:08.028Z</time>
</trkpt>
<trkpt lat="-28.2918400" lon="152.2447889">
<ele>508.404</ele>
<time>2016-01-16T04:01:10.976Z</time>
</trkpt>
<trkpt lat="-28.2915594" lon="152.2444989">
<ele>507.608</ele>
<time>2016-01-16T04:01:13.019Z</time>
</trkpt>
<trkpt lat="-28.2911483" lon="152.2441217">
<ele>507.113</ele>
<time>2016-01-16T04:01:15.892Z</time>
</trkpt>
<trkpt lat="-28.2908522" lon="152.2438976">
<ele>507.036</ele>
<time>2016-01-16T04:01:17.857Z</time>
</trkpt>
<trkpt lat="-28.2905632" lon="152.2436790">
<ele>507.093</ele>
<time>2016-01-16T04:01:19.823Z</time>
</trkpt>
<trkpt lat="-28.2902680" lon="152.2435079">
<ele>507.041</ele>
<time>2016-01-16T04:01:21.739Z</time>
</trkpt>
<trkpt lat="-28.2897546" lon="152.2433460">
<ele>506.834</ele>
<time>2016-01-16T04:01:24.799Z</time>
</trkpt>
<trkpt lat="-28.2891942" lon="152.2432748">
<ele>506.496</ele>
<time>2016-01-16T04:01:27.903Z</time>
</trkpt>
<trkpt lat="-28.2888088" lon="152.2432271">
<ele>506.151</ele>
<time>2016-01-16T04:01:29.958Z</time>
</trkpt>
<trkpt lat="-28.2884283" lon="152.2431546">
<ele>506.150</ele>
<time>2016-01-16T04:01:31.988Z</time>
</trkpt>
<trkpt lat="-28.2878807" lon="152.2429475">
<ele>506.811</ele>
<time>2016-01-16T04:01:34.994Z</time>
</trkpt>
<trkpt lat="-28.2875201" lon="152.2427482">
<ele>508.307</ele>
<time>2016-01-16T04:01:37.050Z</time>
</trkpt>
<trkpt lat="-28.2870579" lon="152.2423006">
<ele>510.710</ele>
<time>2016-01-16T04:01:40.081Z</time>
</trkpt>
<trkpt lat="-28.2868986" lon="152.2421265">
<ele>514.495</ele>
<time>2016-01-16T04:01:41.165Z</time>
</trkpt>
<trkpt lat="-28.2863500" lon="152.2414278">
<ele>519.425</ele>
<time>2016-01-16T04:01:45.174Z</time>
</trkpt>
<trkpt lat="-28.2860990" lon="152.2410689">
<ele>524.906</ele>
<time>2016-01-16T04:01:47.126Z</time>
</trkpt>
<trkpt lat="-28.2857450" lon="152.2405438">
<ele>530.485</ele>
<time>2016-01-16T04:01:49.994Z</time>
</trkpt>
<trkpt lat="-28.2855047" lon="152.2401610">
<ele>535.238</ele>
<time>2016-01-16T04:01:51.994Z</time>
</trkpt>
<trkpt lat="-28.2852089" lon="152.2397579">
<ele>538.629</ele>
<time>2016-01-16T04:01:54.067Z</time>
</trkpt>
<trkpt lat="-28.2849003" lon="152.2393122">
<ele>541.506</ele>
<time>2016-01-16T04:01:56.150Z</time>
</trkpt>
<trkpt lat="-28.2844474" lon="152.2386504">
<ele>544.031</ele>
<time>2016-01-16T04:01:59.120Z</time>
</trkpt>
<trkpt lat="-28.2841272" lon="152.2382011">
<ele>545.606</ele>
<time>2016-01-16T04:02:01.139Z</time>
</trkpt>
<trkpt lat="-28.2838159" lon="152.2377539">
<ele>546.093</ele>
<time>2016-01-16T04:02:03.115Z</time>
</trkpt>
<trkpt lat="-28.2834809" lon="152.2373212">
<ele>546.119</ele>
<time>2016-01-16T04:02:05.120Z</time>
</trkpt>
<trkpt lat="-28.2829372" lon="152.2366811">
<ele>546.303</ele>
<time>2016-01-16T04:02:08.191Z</time>
</trkpt>
<trkpt lat="-28.2824168" lon="152.2360383">
<ele>546.843</ele>
<time>2016-01-16T04:02:11.170Z</time>
</trkpt>
<trkpt lat="-28.2820674" lon="152.2356118">
<ele>547.568</ele>
<time>2016-01-16T04:02:13.151Z</time>
</trkpt>
<trkpt lat="-28.2815218" lon="152.2349562">
<ele>548.220</ele>
<time>2016-01-16T04:02:16.171Z</time>
</trkpt>
<trkpt lat="-28.2810016" lon="152.2343293">
<ele>548.566</ele>
<time>2016-01-16T04:02:19.095Z</time>
</trkpt>
<trkpt lat="-28.2805084" lon="152.2337144">
<ele>547.602</ele>
<time>2016-01-16T04:02:22.060Z</time>
</trkpt>
<trkpt lat="-28.2802001" lon="152.2333506">
<ele>544.191</ele>
<time>2016-01-16T04:02:23.967Z</time>
</trkpt>
<trkpt lat="-28.2797243" lon="152.2329139">
<ele>539.174</ele>
<time>2016-01-16T04:02:26.801Z</time>
</trkpt>
<trkpt lat="-28.2793708" lon="152.2327138">
<ele>534.164</ele>
<time>2016-01-16T04:02:28.729Z</time>
</trkpt>
<trkpt lat="-28.2788019" lon="152.2325802">
<ele>529.694</ele>
<time>2016-01-16T04:02:31.620Z</time>
</trkpt>
<trkpt lat="-28.2783795" lon="152.2326065">
<ele>526.088</ele>
<time>2016-01-16T04:02:33.689Z</time>
</trkpt>
<trkpt lat="-28.2779308" lon="152.2326675">
<ele>523.759</ele>
<time>2016-01-16T04:02:35.779Z</time>
</trkpt>
<trkpt lat="-28.2771694" lon="152.2327727">
<ele>523.198</ele>
<time>2016-01-16T04:02:39.004Z</time>
</trkpt>
<trkpt lat="-28.2764029" lon="152.2329204">
<ele>524.895</ele>
<time>2016-01-16T04:02:41.986Z</time>
</trkpt>
<trkpt lat="-28.2758637" lon="152.2330212">
<ele>528.014</ele>
<time>2016-01-16T04:02:43.991Z</time>
</trkpt>
<trkpt lat="-28.2755836" lon="152.2330697">
<ele>530.708</ele>
<time>2016-01-16T04:02:45.016Z</time>
</trkpt>
<trkpt lat="-28.2744666" lon="152.2332592">
<ele>531.895</ele>
<time>2016-01-16T04:02:49.027Z</time>
</trkpt>
<trkpt lat="-28.2738668" lon="152.2333474">
<ele>530.991</ele>
<time>2016-01-16T04:02:51.074Z</time>
</trkpt>
<trkpt lat="-28.2732673" lon="152.2334552">
<ele>528.284</ele>
<time>2016-01-16T04:02:53.065Z</time>
</trkpt>
<trkpt lat="-28.2723881" lon="152.2336125">
<ele>526.242</ele>
<time>2016-01-16T04:02:55.999Z</time>
</trkpt>
<trkpt lat="-28.2716726" lon="152.2337728">
<ele>526.762</ele>
<time>2016-01-16T04:02:58.999Z</time>
</trkpt>
<trkpt lat="-28.2712201" lon="152.2338701">
<ele>528.704</ele>
<time>2016-01-16T04:03:00.999Z</time>
</trkpt>
<trkpt lat="-28.2709826" lon="152.2339091">
<ele>530.768</ele>
<time>2016-01-16T04:03:02.030Z</time>
</trkpt>
<trkpt lat="-28.2700302" lon="152.2339283">
<ele>532.782</ele>
<time>2016-01-16T04:03:06.108Z</time>
</trkpt>
<trkpt lat="-28.2695538" lon="152.2339087">
<ele>535.004</ele>
<time>2016-01-16T04:03:08.101Z</time>
</trkpt>
<trkpt lat="-28.2688089" lon="152.2338817">
<ele>537.447</ele>
<time>2016-01-16T04:03:11.130Z</time>
</trkpt>
<trkpt lat="-28.2682842" lon="152.2338656">
<ele>536.770</ele>
<time>2016-01-16T04:03:13.178Z</time>
</trkpt>
<trkpt lat="-28.2674581" lon="152.2338294">
<ele>530.635</ele>
<time>2016-01-16T04:03:16.241Z</time>
</trkpt>
<trkpt lat="-28.2666001" lon="152.2337882">
<ele>522.657</ele>
<time>2016-01-16T04:03:19.283Z</time>
</trkpt>
<trkpt lat="-28.2657173" lon="152.2337481">
<ele>516.598</ele>
<time>2016-01-16T04:03:22.329Z</time>
</trkpt>
<trkpt lat="-28.2651256" lon="152.2337222">
<ele>512.931</ele>
<time>2016-01-16T04:03:24.332Z</time>
</trkpt>
<trkpt lat="-28.2645002" lon="152.2336978">
<ele>511.829</ele>
<time>2016-01-16T04:03:26.364Z</time>
</trkpt>
<trkpt lat="-28.2634930" lon="152.2336661">
<ele>512.655</ele>
<time>2016-01-16T04:03:29.426Z</time>
</trkpt>
<trkpt lat="-28.2624452" lon="152.2336657">
<ele>514.056</ele>
<time>2016-01-16T04:03:32.453Z</time>
</trkpt>
<trkpt lat="-28.2617528" lon="152.2336397">
<ele>515.256</ele>
<time>2016-01-16T04:03:34.460Z</time>
</trkpt>
<trkpt lat="-28.2607910" lon="152.2336084">
<ele>516.190</ele>
<time>2016-01-16T04:03:37.393Z</time>
</trkpt>
<trkpt lat="-28.2602019" lon="152.2335808">
<ele>515.368</ele>
<time>2016-01-16T04:03:39.335Z</time>
</trkpt>
<trkpt lat="-28.2593907" lon="152.2335457">
<ele>511.723</ele>
<time>2016-01-16T04:03:42.194Z</time>
</trkpt>
<trkpt lat="-28.2585810" lon="152.2335179">
<ele>506.865</ele>
<time>2016-01-16T04:03:45.179Z</time>
</trkpt>
<trkpt lat="-28.2580004" lon="152.2335010">
<ele>502.968</ele>
<time>2016-01-16T04:03:47.248Z</time>
</trkpt>
<trkpt lat="-28.2571003" lon="152.2334704">
<ele>500.987</ele>
<time>2016-01-16T04:03:50.334Z</time>
</trkpt>
<trkpt lat="-28.2565167" lon="152.2334536">
<ele>500.866</ele>
<time>2016-01-16T04:03:52.332Z</time>
</trkpt>
<trkpt lat="-28.2559484" lon="152.2334288">
<ele>501.340</ele>
<time>2016-01-16T04:03:54.318Z</time>
</trkpt>
<trkpt lat="-28.2554099" lon="152.2333976">
<ele>501.449</ele>
<time>2016-01-16T04:03:56.263Z</time>
</trkpt>
<trkpt lat="-28.2545632" lon="152.2333672">
<ele>501.211</ele>
<time>2016-01-16T04:03:59.338Z</time>
</trkpt>
<trkpt lat="-28.2537535" lon="152.2333442">
<ele>501.023</ele>
<time>2016-01-16T04:04:02.280Z</time>
</trkpt>
<trkpt lat="-28.2532354" lon="152.2333272">
<ele>501.221</ele>
<time>2016-01-16T04:04:04.241Z</time>
</trkpt>
<trkpt lat="-28.2527317" lon="152.2333076">
<ele>501.811</ele>
<time>2016-01-16T04:04:06.222Z</time>
</trkpt>
<trkpt lat="-28.2519995" lon="152.2332803">
<ele>502.383</ele>
<time>2016-01-16T04:04:09.206Z</time>
</trkpt>
<trkpt lat="-28.2515264" lon="152.2332632">
<ele>503.733</ele>
<time>2016-01-16T04:04:11.204Z</time>
</trkpt>
<trkpt lat="-28.2510834" lon="152.2332617">
<ele>507.044</ele>
<time>2016-01-16T04:04:13.138Z</time>
</trkpt>
<trkpt lat="-28.2504436" lon="152.2333383">
<ele>511.418</ele>
<time>2016-01-16T04:04:16.079Z</time>
</trkpt>
<trkpt lat="-28.2499862" lon="152.2334725">
<ele>515.829</ele>
<time>2016-01-16T04:04:18.228Z</time>
</trkpt>
<trkpt lat="-28.2492442" lon="152.2336805">
<ele>520.839</ele>
<time>2016-01-16T04:04:21.486Z</time>
</trkpt>
<trkpt lat="-28.2485008" lon="152.2338504">
<ele>526.338</ele>
<time>2016-01-16T04:04:24.560Z</time>
</trkpt>
<trkpt lat="-28.2480070" lon="152.2339914">
<ele>530.991</ele>
<time>2016-01-16T04:04:26.577Z</time>
</trkpt>
<trkpt lat="-28.2472537" lon="152.2341814">
<ele>533.721</ele>
<time>2016-01-16T04:04:29.609Z</time>
</trkpt>
<trkpt lat="-28.2465227" lon="152.2343614">
<ele>534.196</ele>
<time>2016-01-16T04:04:32.580Z</time>
</trkpt>
<trkpt lat="-28.2460358" lon="152.2344785">
<ele>533.047</ele>
<time>2016-01-16T04:04:34.605Z</time>
</trkpt>
<trkpt lat="-28.2455670" lon="152.2346001">
<ele>531.682</ele>
<time>2016-01-16T04:04:36.608Z</time>
</trkpt>
<trkpt lat="-28.2451450" lon="152.2347228">
<ele>531.030</ele>
<time>2016-01-16T04:04:38.508Z</time>
</trkpt>
<trkpt lat="-28.2445467" lon="152.2350092">
<ele>530.751</ele>
<time>2016-01-16T04:04:41.453Z</time>
</trkpt>
<trkpt lat="-28.2441809" lon="152.2353243">
<ele>530.349</ele>
<time>2016-01-16T04:04:43.496Z</time>
</trkpt>
<trkpt lat="-28.2436853" lon="152.2359216">
<ele>530.243</ele>
<time>2016-01-16T04:04:46.534Z</time>
</trkpt>
<trkpt lat="-28.2432659" lon="152.2366526">
<ele>531.427</ele>
<time>2016-01-16T04:04:49.576Z</time>
</trkpt>
<trkpt lat="-28.2430094" lon="152.2371445">
<ele>534.510</ele>
<time>2016-01-16T04:04:51.547Z</time>
</trkpt>
<trkpt lat="-28.2427615" lon="152.2376563">
<ele>538.663</ele>
<time>2016-01-16T04:04:53.584Z</time>
</trkpt>
<trkpt lat="-28.2425009" lon="152.2381382">
<ele>542.084</ele>
<time>2016-01-16T04:04:55.584Z</time>
</trkpt>
<trkpt lat="-28.2422620" lon="152.2385977">
<ele>543.877</ele>
<time>2016-01-16T04:04:57.513Z</time>
</trkpt>
<trkpt lat="-28.2418905" lon="152.2392957">
<ele>544.234</ele>
<time>2016-01-16T04:05:00.483Z</time>
</trkpt>
<trkpt lat="-28.2416109" lon="152.2397667">
<ele>543.671</ele>
<time>2016-01-16T04:05:02.523Z</time>
</trkpt>
<trkpt lat="-28.2413172" lon="152.2401962">
<ele>542.979</ele>
<time>2016-01-16T04:05:04.487Z</time>
</trkpt>
<trkpt lat="-28.2410435" lon="152.2406329">
<ele>542.630</ele>
<time>2016-01-16T04:05:06.492Z</time>
</trkpt>
<trkpt lat="-28.2406476" lon="152.2412246">
<ele>542.160</ele>
<time>2016-01-16T04:05:09.404Z</time>
</trkpt>
<trkpt lat="-28.2402700" lon="152.2418075">
<ele>540.918</ele>
<time>2016-01-16T04:05:12.397Z</time>
</trkpt>
<trkpt lat="-28.2400114" lon="152.2421554">
<ele>538.823</ele>
<time>2016-01-16T04:05:14.349Z</time>
</trkpt>
<trkpt lat="-28.2396157" lon="152.2426951">
<ele>536.061</ele>
<time>2016-01-16T04:05:17.368Z</time>
</trkpt>
<trkpt lat="-28.2393009" lon="152.2430330">
<ele>533.145</ele>
<time>2016-01-16T04:05:19.416Z</time>
</trkpt>
<trkpt lat="-28.2389143" lon="152.2433069">
<ele>530.977</ele>
<time>2016-01-16T04:05:21.493Z</time>
</trkpt>
<trkpt lat="-28.2382616" lon="152.2435934">
<ele>529.925</ele>
<time>2016-01-16T04:05:24.589Z</time>
</trkpt>
<trkpt lat="-28.2377941" lon="152.2437047">
<ele>529.693</ele>
<time>2016-01-16T04:05:26.656Z</time>
</trkpt>
<trkpt lat="-28.2373444" lon="152.2437886">
<ele>529.830</ele>
<time>2016-01-16T04:05:28.605Z</time>
</trkpt>
<trkpt lat="-28.2366320" lon="152.2439202">
<ele>529.678</ele>
<time>2016-01-16T04:05:31.629Z</time>
</trkpt>
<trkpt lat="-28.2358851" lon="152.2440571">
<ele>528.916</ele>
<time>2016-01-16T04:05:34.722Z</time>
</trkpt>
<trkpt lat="-28.2351715" lon="152.2441795">
<ele>528.048</ele>
<time>2016-01-16T04:05:37.705Z</time>
</trkpt>
<trkpt lat="-28.2347070" lon="152.2442617">
<ele>527.369</ele>
<time>2016-01-16T04:05:39.693Z</time>
</trkpt>
<trkpt lat="-28.2342354" lon="152.2443438">
<ele>526.523</ele>
<time>2016-01-16T04:05:41.724Z</time>
</trkpt>
<trkpt lat="-28.2335006" lon="152.2444652">
<ele>525.166</ele>
<time>2016-01-16T04:05:44.851Z</time>
</trkpt>
<trkpt lat="-28.2328212" lon="152.2445869">
<ele>523.451</ele>
<time>2016-01-16T04:05:47.831Z</time>
</trkpt>
<trkpt lat="-28.2322063" lon="152.2447121">
<ele>521.371</ele>
<time>2016-01-16T04:05:50.753Z</time>
</trkpt>
<trkpt lat="-28.2316344" lon="152.2448484">
<ele>518.735</ele>
<time>2016-01-16T04:05:53.709Z</time>
</trkpt>
<trkpt lat="-28.2312871" lon="152.2449964">
<ele>515.430</ele>
<time>2016-01-16T04:05:55.700Z</time>
</trkpt>
<trkpt lat="-28.2309865" lon="152.2452059">
<ele>511.942</ele>
<time>2016-01-16T04:05:57.644Z</time>
</trkpt>
<trkpt lat="-28.2307065" lon="152.2454816">
<ele>509.255</ele>
<time>2016-01-16T04:05:59.680Z</time>
</trkpt>
<trkpt lat="-28.2303386" lon="152.2459576">
<ele>507.949</ele>
<time>2016-01-16T04:06:02.676Z</time>
</trkpt>
<trkpt lat="-28.2301018" lon="152.2462797">
<ele>507.587</ele>
<time>2016-01-16T04:06:04.667Z</time>
</trkpt>
<trkpt lat="-28.2298834" lon="152.2465990">
<ele>507.664</ele>
<time>2016-01-16T04:06:06.667Z</time>
</trkpt>
<trkpt lat="-28.2295471" lon="152.2470299">
<ele>507.361</ele>
<time>2016-01-16T04:06:09.649Z</time>
</trkpt>
<trkpt lat="-28.2291796" lon="152.2473909">
<ele>505.896</ele>
<time>2016-01-16T04:06:12.637Z</time>
</trkpt>
<trkpt lat="-28.2289060" lon="152.2475609">
<ele>503.423</ele>
<time>2016-01-16T04:06:14.598Z</time>
</trkpt>
<trkpt lat="-28.2284645" lon="152.2477856">
<ele>501.021</ele>
<time>2016-01-16T04:06:17.638Z</time>
</trkpt>
<trkpt lat="-28.2279998" lon="152.2479262">
<ele>499.554</ele>
<time>2016-01-16T04:06:20.648Z</time>
</trkpt>
<trkpt lat="-28.2276786" lon="152.2479886">
<ele>498.781</ele>
<time>2016-01-16T04:06:22.656Z</time>
</trkpt>
<trkpt lat="-28.2271946" lon="152.2480715">
<ele>497.967</ele>
<time>2016-01-16T04:06:25.597Z</time>
</trkpt>
<trkpt lat="-28.2266520" lon="152.2481524">
<ele>497.211</ele>
<time>2016-01-16T04:06:28.704Z</time>
</trkpt>
<trkpt lat="-28.2262896" lon="152.2481933">
<ele>496.978</ele>
<time>2016-01-16T04:06:30.716Z</time>
</trkpt>
<trkpt lat="-28.2257509" lon="152.2482303">
<ele>497.145</ele>
<time>2016-01-16T04:06:33.748Z</time>
</trkpt>
<trkpt lat="-28.2254043" lon="152.2482518">
<ele>497.198</ele>
<time>2016-01-16T04:06:35.818Z</time>
</trkpt>
<trkpt lat="-28.2249769" lon="152.2482860">
<ele>496.913</ele>
<time>2016-01-16T04:06:38.743Z</time>
</trkpt>
<trkpt lat="-28.2247730" lon="152.2482938">
<ele>495.907</ele>
<time>2016-01-16T04:06:40.596Z</time>
</trkpt>
<trkpt lat="-28.2246214" lon="152.2483049">
<ele>494.073</ele>
<time>2016-01-16T04:06:42.373Z</time>
</trkpt>
<trkpt lat="-28.2245131" lon="152.2482943">
<ele>494.164</ele>
<time>2016-01-16T04:06:43.998Z</time>
</trkpt>
<trkpt lat="-28.2245131" lon="152.2482943">
<ele>498.099</ele>
<time>2016-01-16T04:06:48.998Z</time>
</trkpt>
<trkpt lat="-28.2245131" lon="152.2482943">
<ele>501.821</ele>
<time>2016-01-16T04:06:59.555Z</time>
</trkpt>
<trkpt lat="-28.2243431" lon="152.2480472">
<ele>501.611</ele>
<time>2016-01-16T04:07:05.776Z</time>
</trkpt>
<trkpt lat="-28.2242899" lon="152.2478340">
<ele>499.451</ele>
<time>2016-01-16T04:07:07.809Z</time>
</trkpt>
<trkpt lat="-28.2242338" lon="152.2474707">
<ele>498.088</ele>
<time>2016-01-16T04:07:10.914Z</time>
</trkpt>
<trkpt lat="-28.2241829" lon="152.2469920">
<ele>497.805</ele>
<time>2016-01-16T04:07:14.956Z</time>
</trkpt>
<trkpt lat="-28.2241234" lon="152.2464792">
<ele>497.856</ele>
<time>2016-01-16T04:07:18.700Z</time>
</trkpt>
<trkpt lat="-28.2240579" lon="152.2460091">
<ele>497.636</ele>
<time>2016-01-16T04:07:20.998Z</time>
</trkpt>
<trkpt lat="-28.2239708" lon="152.2452914">
<ele>497.140</ele>
<time>2016-01-16T04:07:24.192Z</time>
</trkpt>
<trkpt lat="-28.2238974" lon="152.2448412">
<ele>496.574</ele>
<time>2016-01-16T04:07:26.129Z</time>
</trkpt>
<trkpt lat="-28.2237448" lon="152.2441874">
<ele>495.968</ele>
<time>2016-01-16T04:07:28.970Z</time>
</trkpt>
<trkpt lat="-28.2235519" lon="152.2435075">
<ele>494.928</ele>
<time>2016-01-16T04:07:31.986Z</time>
</trkpt>
<trkpt lat="-28.2234134" lon="152.2430537">
<ele>493.355</ele>
<time>2016-01-16T04:07:34.035Z</time>
</trkpt>
<trkpt lat="-28.2232586" lon="152.2426253">
<ele>491.932</ele>
<time>2016-01-16T04:07:36.032Z</time>
</trkpt>
<trkpt lat="-28.2230735" lon="152.2419320">
<ele>491.435</ele>
<time>2016-01-16T04:07:39.193Z</time>
</trkpt>
<trkpt lat="-28.2228913" lon="152.2412546">
<ele>491.810</ele>
<time>2016-01-16T04:07:42.226Z</time>
</trkpt>
<trkpt lat="-28.2226936" lon="152.2406193">
<ele>492.482</ele>
<time>2016-01-16T04:07:45.023Z</time>
</trkpt>
<trkpt lat="-28.2225584" lon="152.2401913">
<ele>493.008</ele>
<time>2016-01-16T04:07:46.870Z</time>
</trkpt>
<trkpt lat="-28.2224284" lon="152.2397230">
<ele>493.330</ele>
<time>2016-01-16T04:07:48.784Z</time>
</trkpt>
<trkpt lat="-28.2222129" lon="152.2390728">
<ele>493.427</ele>
<time>2016-01-16T04:07:51.437Z</time>
</trkpt>
<trkpt lat="-28.2220732" lon="152.2385970">
<ele>492.901</ele>
<time>2016-01-16T04:07:53.330Z</time>
</trkpt>
<trkpt lat="-28.2218637" lon="152.2378444">
<ele>491.579</ele>
<time>2016-01-16T04:07:56.327Z</time>
</trkpt>
<trkpt lat="-28.2217429" lon="152.2373161">
<ele>490.191</ele>
<time>2016-01-16T04:07:58.409Z</time>
</trkpt>
<trkpt lat="-28.2215077" lon="152.2366081">
<ele>489.347</ele>
<time>2016-01-16T04:08:01.293Z</time>
</trkpt>
<trkpt lat="-28.2212701" lon="152.2358818">
<ele>488.913</ele>
<time>2016-01-16T04:08:04.245Z</time>
</trkpt>
<trkpt lat="-28.2210424" lon="152.2351589">
<ele>488.965</ele>
<time>2016-01-16T04:08:07.226Z</time>
</trkpt>
<trkpt lat="-28.2208687" lon="152.2346711">
<ele>489.756</ele>
<time>2016-01-16T04:08:09.263Z</time>
</trkpt>
<trkpt lat="-28.2206480" lon="152.2342291">
<ele>491.517</ele>
<time>2016-01-16T04:08:11.172Z</time>
</trkpt>
<trkpt lat="-28.2202154" lon="152.2336536">
<ele>494.188</ele>
<time>2016-01-16T04:08:13.836Z</time>
</trkpt>
<trkpt lat="-28.2198525" lon="152.2333175">
<ele>497.514</ele>
<time>2016-01-16T04:08:15.533Z</time>
</trkpt>
<trkpt lat="-28.2194652" lon="152.2329817">
<ele>501.176</ele>
<time>2016-01-16T04:08:17.276Z</time>
</trkpt>
<trkpt lat="-28.2189493" lon="152.2327332">
<ele>504.478</ele>
<time>2016-01-16T04:08:19.248Z</time>
</trkpt>
<trkpt lat="-28.2181684" lon="152.2322731">
<ele>507.163</ele>
<time>2016-01-16T04:08:22.531Z</time>
</trkpt>
<trkpt lat="-28.2176712" lon="152.2319901">
<ele>510.279</ele>
<time>2016-01-16T04:08:24.718Z</time>
</trkpt>
<trkpt lat="-28.2169788" lon="152.2315843">
<ele>514.335</ele>
<time>2016-01-16T04:08:27.950Z</time>
</trkpt>
<trkpt lat="-28.2163213" lon="152.2311711">
<ele>518.885</ele>
<time>2016-01-16T04:08:31.409Z</time>
</trkpt>
<trkpt lat="-28.2159109" lon="152.2309072">
<ele>523.907</ele>
<time>2016-01-16T04:08:33.731Z</time>
</trkpt>
<trkpt lat="-28.2155028" lon="152.2306978">
<ele>528.856</ele>
<time>2016-01-16T04:08:35.929Z</time>
</trkpt>
<trkpt lat="-28.2149098" lon="152.2305509">
<ele>532.317</ele>
<time>2016-01-16T04:08:38.750Z</time>
</trkpt>
<trkpt lat="-28.2145222" lon="152.2305559">
<ele>533.853</ele>
<time>2016-01-16T04:08:40.510Z</time>
</trkpt>
<trkpt lat="-28.2141158" lon="152.2306338">
<ele>534.217</ele>
<time>2016-01-16T04:08:42.379Z</time>
</trkpt>
<trkpt lat="-28.2136884" lon="152.2307542">
<ele>534.248</ele>
<time>2016-01-16T04:08:44.396Z</time>
</trkpt>
<trkpt lat="-28.2132620" lon="152.2308752">
<ele>534.433</ele>
<time>2016-01-16T04:08:46.428Z</time>
</trkpt>
<trkpt lat="-28.2126244" lon="152.2310545">
<ele>534.777</ele>
<time>2016-01-16T04:08:49.532Z</time>
</trkpt>
<trkpt lat="-28.2119800" lon="152.2310250">
<ele>534.624</ele>
<time>2016-01-16T04:08:52.299Z</time>
</trkpt>
<trkpt lat="-28.2115649" lon="152.2308877">
<ele>533.413</ele>
<time>2016-01-16T04:08:53.932Z</time>
</trkpt>
<trkpt lat="-28.2113698" lon="152.2307971">
<ele>531.657</ele>
<time>2016-01-16T04:08:54.672Z</time>
</trkpt>
<trkpt lat="-28.2105625" lon="152.2301486">
<ele>530.188</ele>
<time>2016-01-16T04:08:57.966Z</time>
</trkpt>
<trkpt lat="-28.2098222" lon="152.2295357">
<ele>529.117</ele>
<time>2016-01-16T04:09:00.911Z</time>
</trkpt>
<trkpt lat="-28.2093011" lon="152.2290693">
<ele>527.982</ele>
<time>2016-01-16T04:09:03.120Z</time>
</trkpt>
<trkpt lat="-28.2085523" lon="152.2284483">
<ele>526.619</ele>
<time>2016-01-16T04:09:06.376Z</time>
</trkpt>
<trkpt lat="-28.2080821" lon="152.2280470">
<ele>525.546</ele>
<time>2016-01-16T04:09:08.556Z</time>
</trkpt>
<trkpt lat="-28.2076171" lon="152.2276613">
<ele>524.938</ele>
<time>2016-01-16T04:09:10.837Z</time>
</trkpt>
<trkpt lat="-28.2069581" lon="152.2271389">
<ele>524.364</ele>
<time>2016-01-16T04:09:14.217Z</time>
</trkpt>
<trkpt lat="-28.2063334" lon="152.2267255">
<ele>523.536</ele>
<time>2016-01-16T04:09:17.314Z</time>
</trkpt>
<trkpt lat="-28.2058945" lon="152.2265305">
<ele>522.529</ele>
<time>2016-01-16T04:09:19.416Z</time>
</trkpt>
<trkpt lat="-28.2054402" lon="152.2263950">
<ele>521.685</ele>
<time>2016-01-16T04:09:21.578Z</time>
</trkpt>
<trkpt lat="-28.2047609" lon="152.2262524">
<ele>521.262</ele>
<time>2016-01-16T04:09:24.898Z</time>
</trkpt>
<trkpt lat="-28.2041331" lon="152.2260545">
<ele>521.168</ele>
<time>2016-01-16T04:09:28.016Z</time>
</trkpt>
<trkpt lat="-28.2036322" lon="152.2256481">
<ele>521.145</ele>
<time>2016-01-16T04:09:30.834Z</time>
</trkpt>
<trkpt lat="-28.2033772" lon="152.2252761">
<ele>520.951</ele>
<time>2016-01-16T04:09:32.666Z</time>
</trkpt>
<trkpt lat="-28.2031295" lon="152.2246399">
<ele>520.284</ele>
<time>2016-01-16T04:09:35.459Z</time>
</trkpt>
<trkpt lat="-28.2030403" lon="152.2241239">
<ele>518.460</ele>
<time>2016-01-16T04:09:37.672Z</time>
</trkpt>
<trkpt lat="-28.2029628" lon="152.2236187">
<ele>515.578</ele>
<time>2016-01-16T04:09:39.895Z</time>
</trkpt>
<trkpt lat="-28.2028918" lon="152.2231523">
<ele>512.880</ele>
<time>2016-01-16T04:09:42.027Z</time>
</trkpt>
<trkpt lat="-28.2028284" lon="152.2226934">
<ele>510.957</ele>
<time>2016-01-16T04:09:44.265Z</time>
</trkpt>
<trkpt lat="-28.2027713" lon="152.2222286">
<ele>509.586</ele>
<time>2016-01-16T04:09:46.641Z</time>
</trkpt>
<trkpt lat="-28.2026595" lon="152.2216232">
<ele>508.559</ele>
<time>2016-01-16T04:09:49.797Z</time>
</trkpt>
<trkpt lat="-28.2025353" lon="152.2212206">
<ele>507.603</ele>
<time>2016-01-16T04:09:51.957Z</time>
</trkpt>
<trkpt lat="-28.2023834" lon="152.2208880">
<ele>506.776</ele>
<time>2016-01-16T04:09:53.862Z</time>
</trkpt>
<trkpt lat="-28.2020632" lon="152.2204554">
<ele>506.339</ele>
<time>2016-01-16T04:09:56.757Z</time>
</trkpt>
<trkpt lat="-28.2018022" lon="152.2201637">
<ele>506.243</ele>
<time>2016-01-16T04:09:58.908Z</time>
</trkpt>
<trkpt lat="-28.2015479" lon="152.2199074">
<ele>505.685</ele>
<time>2016-01-16T04:10:00.959Z</time>
</trkpt>
<trkpt lat="-28.2011631" lon="152.2195117">
<ele>504.124</ele>
<time>2016-01-16T04:10:04.298Z</time>
</trkpt>
<trkpt lat="-28.2008043" lon="152.2191024">
<ele>502.258</ele>
<time>2016-01-16T04:10:07.778Z</time>
</trkpt>
<trkpt lat="-28.2005972" lon="152.2188128">
<ele>500.930</ele>
<time>2016-01-16T04:10:10.183Z</time>
</trkpt>
<trkpt lat="-28.2004138" lon="152.2185647">
<ele>500.086</ele>
<time>2016-01-16T04:10:12.327Z</time>
</trkpt>
<trkpt lat="-28.2001774" lon="152.2181358">
<ele>499.085</ele>
<time>2016-01-16T04:10:15.743Z</time>
</trkpt>
<trkpt lat="-28.2000363" lon="152.2178649">
<ele>497.546</ele>
<time>2016-01-16T04:10:17.827Z</time>
</trkpt>
<trkpt lat="-28.1998097" lon="152.2174856">
<ele>496.065</ele>
<time>2016-01-16T04:10:20.787Z</time>
</trkpt>
<trkpt lat="-28.1996499" lon="152.2172599">
<ele>495.279</ele>
<time>2016-01-16T04:10:22.661Z</time>
</trkpt>
<trkpt lat="-28.1994872" lon="152.2170747">
<ele>495.068</ele>
<time>2016-01-16T04:10:24.357Z</time>
</trkpt>
<trkpt lat="-28.1991832" lon="152.2167535">
<ele>495.057</ele>
<time>2016-01-16T04:10:27.412Z</time>
</trkpt>
<trkpt lat="-28.1988484" lon="152.2164824">
<ele>495.100</ele>
<time>2016-01-16T04:10:30.503Z</time>
</trkpt>
<trkpt lat="-28.1984974" lon="152.2162661">
<ele>495.196</ele>
<time>2016-01-16T04:10:33.737Z</time>
</trkpt>
<trkpt lat="-28.1982508" lon="152.2161566">
<ele>495.192</ele>
<time>2016-01-16T04:10:36.000Z</time>
</trkpt>
<trkpt lat="-28.1978615" lon="152.2159659">
<ele>494.985</ele>
<time>2016-01-16T04:10:39.583Z</time>
</trkpt>
<trkpt lat="-28.1975538" lon="152.2157383">
<ele>495.137</ele>
<time>2016-01-16T04:10:42.825Z</time>
</trkpt>
<trkpt lat="-28.1973791" lon="152.2155584">
<ele>496.238</ele>
<time>2016-01-16T04:10:44.980Z</time>
</trkpt>
<trkpt lat="-28.1972177" lon="152.2153712">
<ele>498.091</ele>
<time>2016-01-16T04:10:47.082Z</time>
</trkpt>
<trkpt lat="-28.1970319" lon="152.2151940">
<ele>499.958</ele>
<time>2016-01-16T04:10:49.017Z</time>
</trkpt>
<trkpt lat="-28.1967603" lon="152.2149169">
<ele>501.023</ele>
<time>2016-01-16T04:10:51.608Z</time>
</trkpt>
<trkpt lat="-28.1965893" lon="152.2146225">
<ele>501.039</ele>
<time>2016-01-16T04:10:53.732Z</time>
</trkpt>
<trkpt lat="-28.1965357" lon="152.2142462">
<ele>500.635</ele>
<time>2016-01-16T04:10:55.999Z</time>
</trkpt>
<trkpt lat="-28.1965598" lon="152.2139273">
<ele>500.679</ele>
<time>2016-01-16T04:10:57.941Z</time>
</trkpt>
<trkpt lat="-28.1965763" lon="152.2136070">
<ele>501.733</ele>
<time>2016-01-16T04:10:59.933Z</time>
</trkpt>
<trkpt lat="-28.1965848" lon="152.2131345">
<ele>503.605</ele>
<time>2016-01-16T04:11:03.013Z</time>
</trkpt>
<trkpt lat="-28.1966096" lon="152.2126659">
<ele>505.574</ele>
<time>2016-01-16T04:11:06.175Z</time>
</trkpt>
<trkpt lat="-28.1965903" lon="152.2121845">
<ele>507.337</ele>
<time>2016-01-16T04:11:09.494Z</time>
</trkpt>
<trkpt lat="-28.1965500" lon="152.2118681">
<ele>509.081</ele>
<time>2016-01-16T04:11:11.701Z</time>
</trkpt>
<trkpt lat="-28.1964731" lon="152.2114384">
<ele>510.660</ele>
<time>2016-01-16T04:11:14.717Z</time>
</trkpt>
<trkpt lat="-28.1964478" lon="152.2111338">
<ele>511.339</ele>
<time>2016-01-16T04:11:16.728Z</time>
</trkpt>
<trkpt lat="-28.1963876" lon="152.2106951">
<ele>510.912</ele>
<time>2016-01-16T04:11:19.581Z</time>
</trkpt>
<trkpt lat="-28.1963478" lon="152.2104140">
<ele>510.271</ele>
<time>2016-01-16T04:11:21.459Z</time>
</trkpt>
<trkpt lat="-28.1962916" lon="152.2099812">
<ele>510.214</ele>
<time>2016-01-16T04:11:24.427Z</time>
</trkpt>
<trkpt lat="-28.1962492" lon="152.2096565">
<ele>510.642</ele>
<time>2016-01-16T04:11:26.594Z</time>
</trkpt>
<trkpt lat="-28.1961842" lon="152.2091826">
<ele>511.416</ele>
<time>2016-01-16T04:11:29.552Z</time>
</trkpt>
<trkpt lat="-28.1961431" lon="152.2089163">
<ele>512.444</ele>
<time>2016-01-16T04:11:31.125Z</time>
</trkpt>
<trkpt lat="-28.1960726" lon="152.2085103">
<ele>513.316</ele>
<time>2016-01-16T04:11:33.277Z</time>
</trkpt>
<trkpt lat="-28.1959976" lon="152.2080823">
<ele>513.700</ele>
<time>2016-01-16T04:11:35.393Z</time>
</trkpt>
<trkpt lat="-28.1959505" lon="152.2075443">
<ele>513.199</ele>
<time>2016-01-16T04:11:37.856Z</time>
</trkpt>
<trkpt lat="-28.1959456" lon="152.2071415">
<ele>511.729</ele>
<time>2016-01-16T04:11:39.613Z</time>
</trkpt>
<trkpt lat="-28.1959983" lon="152.2065054">
<ele>509.826</ele>
<time>2016-01-16T04:11:42.276Z</time>
</trkpt>
<trkpt lat="-28.1961247" lon="152.2058272">
<ele>507.902</ele>
<time>2016-01-16T04:11:45.151Z</time>
</trkpt>
<trkpt lat="-28.1963851" lon="152.2051365">
<ele>506.314</ele>
<time>2016-01-16T04:11:48.338Z</time>
</trkpt>
<trkpt lat="-28.1966499" lon="152.2045517">
<ele>505.484</ele>
<time>2016-01-16T04:11:51.162Z</time>
</trkpt>
<trkpt lat="-28.1968172" lon="152.2041021">
<ele>505.482</ele>
<time>2016-01-16T04:11:53.248Z</time>
</trkpt>
<trkpt lat="-28.1969915" lon="152.2036762">
<ele>506.283</ele>
<time>2016-01-16T04:11:55.206Z</time>
</trkpt>
<trkpt lat="-28.1971622" lon="152.2032829">
<ele>507.678</ele>
<time>2016-01-16T04:11:56.991Z</time>
</trkpt>
<trkpt lat="-28.1973490" lon="152.2028489">
<ele>509.189</ele>
<time>2016-01-16T04:11:58.941Z</time>
</trkpt>
<trkpt lat="-28.1975166" lon="152.2023893">
<ele>510.334</ele>
<time>2016-01-16T04:12:00.931Z</time>
</trkpt>
<trkpt lat="-28.1977080" lon="152.2019459">
<ele>511.114</ele>
<time>2016-01-16T04:12:02.902Z</time>
</trkpt>
<trkpt lat="-28.1978763" lon="152.2014950">
<ele>512.041</ele>
<time>2016-01-16T04:12:04.861Z</time>
</trkpt>
<trkpt lat="-28.1980792" lon="152.2010475">
<ele>513.676</ele>
<time>2016-01-16T04:12:06.887Z</time>
</trkpt>
<trkpt lat="-28.1983695" lon="152.2003531">
<ele>516.083</ele>
<time>2016-01-16T04:12:09.985Z</time>
</trkpt>
<trkpt lat="-28.1986382" lon="152.1996940">
<ele>518.817</ele>
<time>2016-01-16T04:12:12.913Z</time>
</trkpt>
<trkpt lat="-28.1989213" lon="152.1990155">
<ele>521.481</ele>
<time>2016-01-16T04:12:15.954Z</time>
</trkpt>
<trkpt lat="-28.1991813" lon="152.1983449">
<ele>523.822</ele>
<time>2016-01-16T04:12:18.852Z</time>
</trkpt>
<trkpt lat="-28.1993549" lon="152.1978842">
<ele>525.563</ele>
<time>2016-01-16T04:12:20.800Z</time>
</trkpt>
<trkpt lat="-28.1995395" lon="152.1974169">
<ele>526.909</ele>
<time>2016-01-16T04:12:22.768Z</time>
</trkpt>
<trkpt lat="-28.1998263" lon="152.1967235">
<ele>528.086</ele>
<time>2016-01-16T04:12:25.721Z</time>
</trkpt>
<trkpt lat="-28.2001019" lon="152.1960177">
<ele>528.877</ele>
<time>2016-01-16T04:12:28.703Z</time>
</trkpt>
<trkpt lat="-28.2001908" lon="152.1957547">
<ele>529.109</ele>
<time>2016-01-16T04:12:29.791Z</time>
</trkpt>
<trkpt lat="-28.2005477" lon="152.1948082">
<ele>528.980</ele>
<time>2016-01-16T04:12:33.709Z</time>
</trkpt>
<trkpt lat="-28.2006807" lon="152.1943388">
<ele>528.770</ele>
<time>2016-01-16T04:12:35.545Z</time>
</trkpt>
<trkpt lat="-28.2008646" lon="152.1935740">
<ele>528.546</ele>
<time>2016-01-16T04:12:38.452Z</time>
</trkpt>
<trkpt lat="-28.2009723" lon="152.1927883">
<ele>528.015</ele>
<time>2016-01-16T04:12:41.282Z</time>
</trkpt>
<trkpt lat="-28.2009787" lon="152.1922384">
<ele>527.093</ele>
<time>2016-01-16T04:12:43.198Z</time>
</trkpt>
<trkpt lat="-28.2009504" lon="152.1916904">
<ele>526.058</ele>
<time>2016-01-16T04:12:45.069Z</time>
</trkpt>
<trkpt lat="-28.2008457" lon="152.1908205">
<ele>525.191</ele>
<time>2016-01-16T04:12:48.051Z</time>
</trkpt>
<trkpt lat="-28.2008077" lon="152.1905243">
<ele>524.561</ele>
<time>2016-01-16T04:12:49.066Z</time>
</trkpt>
<trkpt lat="-28.2006464" lon="152.1893420">
<ele>523.948</ele>
<time>2016-01-16T04:12:53.078Z</time>
</trkpt>
<trkpt lat="-28.2005705" lon="152.1887714">
<ele>522.548</ele>
<time>2016-01-16T04:12:54.969Z</time>
</trkpt>
<trkpt lat="-28.2004660" lon="152.1878985">
<ele>519.461</ele>
<time>2016-01-16T04:12:57.858Z</time>
</trkpt>
<trkpt lat="-28.2003851" lon="152.1872914">
<ele>514.931</ele>
<time>2016-01-16T04:12:59.887Z</time>
</trkpt>
<trkpt lat="-28.2003010" lon="152.1867107">
<ele>510.605</ele>
<time>2016-01-16T04:13:01.858Z</time>
</trkpt>
<trkpt lat="-28.2001950" lon="152.1858475">
<ele>507.387</ele>
<time>2016-01-16T04:13:04.771Z</time>
</trkpt>
<trkpt lat="-28.2001204" lon="152.1852489">
<ele>504.971</ele>
<time>2016-01-16T04:13:06.799Z</time>
</trkpt>
<trkpt lat="-28.2000119" lon="152.1843355">
<ele>503.250</ele>
<time>2016-01-16T04:13:09.976Z</time>
</trkpt>
<trkpt lat="-28.1999010" lon="152.1834683">
<ele>502.462</ele>
<time>2016-01-16T04:13:13.146Z</time>
</trkpt>
<trkpt lat="-28.1998118" lon="152.1826428">
<ele>502.734</ele>
<time>2016-01-16T04:13:16.171Z</time>
</trkpt>
<trkpt lat="-28.1997245" lon="152.1818474">
<ele>504.449</ele>
<time>2016-01-16T04:13:19.021Z</time>
</trkpt>
<trkpt lat="-28.1996242" lon="152.1809988">
<ele>507.421</ele>
<time>2016-01-16T04:13:22.060Z</time>
</trkpt>
<trkpt lat="-28.1995199" lon="152.1801745">
<ele>510.801</ele>
<time>2016-01-16T04:13:25.033Z</time>
</trkpt>
<trkpt lat="-28.1994408" lon="152.1796216">
<ele>514.100</ele>
<time>2016-01-16T04:13:27.011Z</time>
</trkpt>
<trkpt lat="-28.1993581" lon="152.1790737">
<ele>517.402</ele>
<time>2016-01-16T04:13:28.925Z</time>
</trkpt>
<trkpt lat="-28.1992456" lon="152.1782232">
<ele>520.481</ele>
<time>2016-01-16T04:13:31.866Z</time>
</trkpt>
<trkpt lat="-28.1991175" lon="152.1773414">
<ele>522.809</ele>
<time>2016-01-16T04:13:34.911Z</time>
</trkpt>
<trkpt lat="-28.1990266" lon="152.1764976">
<ele>523.977</ele>
<time>2016-01-16T04:13:37.765Z</time>
</trkpt>
<trkpt lat="-28.1989404" lon="152.1759939">
<ele>524.142</ele>
<time>2016-01-16T04:13:39.464Z</time>
</trkpt>
<trkpt lat="-28.1988588" lon="152.1753856">
<ele>522.988</ele>
<time>2016-01-16T04:13:41.497Z</time>
</trkpt>
<trkpt lat="-28.1987364" lon="152.1744675">
<ele>520.378</ele>
<time>2016-01-16T04:13:44.572Z</time>
</trkpt>
<trkpt lat="-28.1986273" lon="152.1735760">
<ele>517.435</ele>
<time>2016-01-16T04:13:47.659Z</time>
</trkpt>
<trkpt lat="-28.1985527" lon="152.1729733">
<ele>515.204</ele>
<time>2016-01-16T04:13:49.784Z</time>
</trkpt>
<trkpt lat="-28.1985101" lon="152.1726880">
<ele>513.764</ele>
<time>2016-01-16T04:13:50.781Z</time>
</trkpt>
<trkpt lat="-28.1983421" lon="152.1715630">
<ele>512.773</ele>
<time>2016-01-16T04:13:54.683Z</time>
</trkpt>
<trkpt lat="-28.1982241" lon="152.1707045">
<ele>511.310</ele>
<time>2016-01-16T04:13:57.621Z</time>
</trkpt>
<trkpt lat="-28.1981139" lon="152.1698349">
<ele>509.255</ele>
<time>2016-01-16T04:14:00.572Z</time>
</trkpt>
<trkpt lat="-28.1980274" lon="152.1692543">
<ele>507.593</ele>
<time>2016-01-16T04:14:02.559Z</time>
</trkpt>
<trkpt lat="-28.1979125" lon="152.1683690">
<ele>506.854</ele>
<time>2016-01-16T04:14:05.567Z</time>
</trkpt>
<trkpt lat="-28.1978378" lon="152.1678071">
<ele>506.650</ele>
<time>2016-01-16T04:14:07.450Z</time>
</trkpt>
<trkpt lat="-28.1977134" lon="152.1669315">
<ele>506.086</ele>
<time>2016-01-16T04:14:10.395Z</time>
</trkpt>
<trkpt lat="-28.1976390" lon="152.1663432">
<ele>504.441</ele>
<time>2016-01-16T04:14:12.395Z</time>
</trkpt>
<trkpt lat="-28.1975662" lon="152.1657536">
<ele>502.210</ele>
<time>2016-01-16T04:14:14.409Z</time>
</trkpt>
<trkpt lat="-28.1974895" lon="152.1651795">
<ele>500.049</ele>
<time>2016-01-16T04:14:16.369Z</time>
</trkpt>
<trkpt lat="-28.1974207" lon="152.1645995">
<ele>497.782</ele>
<time>2016-01-16T04:14:18.343Z</time>
</trkpt>
<trkpt lat="-28.1973508" lon="152.1640213">
<ele>495.530</ele>
<time>2016-01-16T04:14:20.309Z</time>
</trkpt>
<trkpt lat="-28.1972448" lon="152.1631122">
<ele>493.837</ele>
<time>2016-01-16T04:14:23.394Z</time>
</trkpt>
<trkpt lat="-28.1971688" lon="152.1625071">
<ele>492.436</ele>
<time>2016-01-16T04:14:25.443Z</time>
</trkpt>
<trkpt lat="-28.1971028" lon="152.1619531">
<ele>490.477</ele>
<time>2016-01-16T04:14:27.307Z</time>
</trkpt>
<trkpt lat="-28.1970049" lon="152.1610768">
<ele>487.658</ele>
<time>2016-01-16T04:14:30.242Z</time>
</trkpt>
<trkpt lat="-28.1968999" lon="152.1601819">
<ele>484.304</ele>
<time>2016-01-16T04:14:33.228Z</time>
</trkpt>
<trkpt lat="-28.1967863" lon="152.1593015">
<ele>481.071</ele>
<time>2016-01-16T04:14:36.148Z</time>
</trkpt>
<trkpt lat="-28.1967095" lon="152.1586988">
<ele>478.793</ele>
<time>2016-01-16T04:14:38.192Z</time>
</trkpt>
<trkpt lat="-28.1966335" lon="152.1581014">
<ele>477.776</ele>
<time>2016-01-16T04:14:40.256Z</time>
</trkpt>
<trkpt lat="-28.1965037" lon="152.1572385">
<ele>477.534</ele>
<time>2016-01-16T04:14:43.325Z</time>
</trkpt>
<trkpt lat="-28.1964092" lon="152.1566806">
<ele>477.569</ele>
<time>2016-01-16T04:14:45.357Z</time>
</trkpt>
<trkpt lat="-28.1962903" lon="152.1558608">
<ele>477.868</ele>
<time>2016-01-16T04:14:48.393Z</time>
</trkpt>
<trkpt lat="-28.1962014" lon="152.1553264">
<ele>478.528</ele>
<time>2016-01-16T04:14:50.436Z</time>
</trkpt>
<trkpt lat="-28.1960675" lon="152.1545387">
<ele>479.450</ele>
<time>2016-01-16T04:14:53.548Z</time>
</trkpt>
<trkpt lat="-28.1959524" lon="152.1537707">
<ele>480.565</ele>
<time>2016-01-16T04:14:56.644Z</time>
</trkpt>
<trkpt lat="-28.1958391" lon="152.1530519">
<ele>481.811</ele>
<time>2016-01-16T04:14:59.570Z</time>
</trkpt>
<trkpt lat="-28.1957601" lon="152.1525961">
<ele>482.889</ele>
<time>2016-01-16T04:15:01.427Z</time>
</trkpt>
<trkpt lat="-28.1956778" lon="152.1521025">
<ele>482.688</ele>
<time>2016-01-16T04:15:03.344Z</time>
</trkpt>
<trkpt lat="-28.1955570" lon="152.1513621">
<ele>480.613</ele>
<time>2016-01-16T04:15:06.125Z</time>
</trkpt>
<trkpt lat="-28.1954551" lon="152.1505391">
<ele>477.698</ele>
<time>2016-01-16T04:15:09.188Z</time>
</trkpt>
<trkpt lat="-28.1953510" lon="152.1497082">
<ele>475.153</ele>
<time>2016-01-16T04:15:12.465Z</time>
</trkpt>
<trkpt lat="-28.1952494" lon="152.1489531">
<ele>473.349</ele>
<time>2016-01-16T04:15:15.608Z</time>
</trkpt>
<trkpt lat="-28.1951391" lon="152.1482422">
<ele>472.291</ele>
<time>2016-01-16T04:15:18.603Z</time>
</trkpt>
<trkpt lat="-28.1950703" lon="152.1477967">
<ele>471.729</ele>
<time>2016-01-16T04:15:20.444Z</time>
</trkpt>
<trkpt lat="-28.1950125" lon="152.1473185">
<ele>471.250</ele>
<time>2016-01-16T04:15:22.273Z</time>
</trkpt>
<trkpt lat="-28.1949438" lon="152.1468227">
<ele>470.528</ele>
<time>2016-01-16T04:15:24.112Z</time>
</trkpt>
<trkpt lat="-28.1948467" lon="152.1460003">
<ele>469.795</ele>
<time>2016-01-16T04:15:27.131Z</time>
</trkpt>
<trkpt lat="-28.1947814" lon="152.1454502">
<ele>469.313</ele>
<time>2016-01-16T04:15:29.210Z</time>
</trkpt>
<trkpt lat="-28.1946801" lon="152.1446783">
<ele>468.852</ele>
<time>2016-01-16T04:15:32.366Z</time>
</trkpt>
<trkpt lat="-28.1946123" lon="152.1441859">
<ele>468.074</ele>
<time>2016-01-16T04:15:34.739Z</time>
</trkpt>
<trkpt lat="-28.1945040" lon="152.1434879">
<ele>466.985</ele>
<time>2016-01-16T04:15:39.080Z</time>
</trkpt>
<trkpt lat="-28.1944348" lon="152.1429594">
<ele>465.858</ele>
<time>2016-01-16T04:15:43.631Z</time>
</trkpt>
<trkpt lat="-28.1943962" lon="152.1426861">
<ele>464.842</ele>
<time>2016-01-16T04:15:47.098Z</time>
</trkpt>
<trkpt lat="-28.1943498" lon="152.1423038">
<ele>464.041</ele>
<time>2016-01-16T04:15:52.472Z</time>
</trkpt>
<trkpt lat="-28.1943356" lon="152.1421125">
<ele>463.628</ele>
<time>2016-01-16T04:15:54.216Z</time>
</trkpt>
<trkpt lat="-28.1943030" lon="152.1419109">
<ele>463.629</ele>
<time>2016-01-16T04:15:55.892Z</time>
</trkpt>
<trkpt lat="-28.1942492" lon="152.1417875">
<ele>463.897</ele>
<time>2016-01-16T04:15:56.733Z</time>
</trkpt>
<trkpt lat="-28.1940931" lon="152.1417559">
<ele>463.597</ele>
<time>2016-01-16T04:15:57.797Z</time>
</trkpt>
<trkpt lat="-28.1939417" lon="152.1418249">
<ele>462.228</ele>
<time>2016-01-16T04:15:58.892Z</time>
</trkpt>
<trkpt lat="-28.1936238" lon="152.1420756">
<ele>460.822</ele>
<time>2016-01-16T04:16:01.160Z</time>
</trkpt>
<trkpt lat="-28.1931968" lon="152.1424093">
<ele>460.791</ele>
<time>2016-01-16T04:16:03.905Z</time>
</trkpt>
<trkpt lat="-28.1928679" lon="152.1426593">
<ele>462.788</ele>
<time>2016-01-16T04:16:05.806Z</time>
</trkpt>
<trkpt lat="-28.1925111" lon="152.1429238">
<ele>466.501</ele>
<time>2016-01-16T04:16:07.731Z</time>
</trkpt>
<trkpt lat="-28.1921200" lon="152.1431916">
<ele>470.473</ele>
<time>2016-01-16T04:16:09.715Z</time>
</trkpt>
<trkpt lat="-28.1917368" lon="152.1434508">
<ele>473.224</ele>
<time>2016-01-16T04:16:11.593Z</time>
</trkpt>
<trkpt lat="-28.1913515" lon="152.1437052">
<ele>474.363</ele>
<time>2016-01-16T04:16:13.390Z</time>
</trkpt>
<trkpt lat="-28.1907135" lon="152.1441308">
<ele>474.697</ele>
<time>2016-01-16T04:16:16.340Z</time>
</trkpt>
<trkpt lat="-28.1900620" lon="152.1445633">
<ele>475.260</ele>
<time>2016-01-16T04:16:19.407Z</time>
</trkpt>
<trkpt lat="-28.1896416" lon="152.1448450">
<ele>476.246</ele>
<time>2016-01-16T04:16:21.458Z</time>
</trkpt>
<trkpt lat="-28.1890096" lon="152.1452512">
<ele>477.076</ele>
<time>2016-01-16T04:16:24.646Z</time>
</trkpt>
<trkpt lat="-28.1884177" lon="152.1456472">
<ele>477.123</ele>
<time>2016-01-16T04:16:27.752Z</time>
</trkpt>
<trkpt lat="-28.1878993" lon="152.1460579">
<ele>476.269</ele>
<time>2016-01-16T04:16:30.492Z</time>
</trkpt>
<trkpt lat="-28.1874475" lon="152.1466346">
<ele>475.269</ele>
<time>2016-01-16T04:16:33.301Z</time>
</trkpt>
<trkpt lat="-28.1869980" lon="152.1473114">
<ele>475.175</ele>
<time>2016-01-16T04:16:36.300Z</time>
</trkpt>
<trkpt lat="-28.1865327" lon="152.1479387">
<ele>476.371</ele>
<time>2016-01-16T04:16:39.088Z</time>
</trkpt>
<trkpt lat="-28.1859441" lon="152.1484941">
<ele>478.276</ele>
<time>2016-01-16T04:16:41.913Z</time>
</trkpt>
<trkpt lat="-28.1852843" lon="152.1490633">
<ele>479.922</ele>
<time>2016-01-16T04:16:44.955Z</time>
</trkpt>
<trkpt lat="-28.1850604" lon="152.1492491">
<ele>481.244</ele>
<time>2016-01-16T04:16:45.977Z</time>
</trkpt>
<trkpt lat="-28.1842157" lon="152.1499900">
<ele>482.817</ele>
<time>2016-01-16T04:16:49.886Z</time>
</trkpt>
<trkpt lat="-28.1835553" lon="152.1505716">
<ele>484.424</ele>
<time>2016-01-16T04:16:52.998Z</time>
</trkpt>
<trkpt lat="-28.1831297" lon="152.1509198">
<ele>485.436</ele>
<time>2016-01-16T04:16:54.956Z</time>
</trkpt>
<trkpt lat="-28.1824963" lon="152.1514711">
<ele>486.160</ele>
<time>2016-01-16T04:16:57.987Z</time>
</trkpt>
<trkpt lat="-28.1820831" lon="152.1518529">
<ele>487.002</ele>
<time>2016-01-16T04:17:00.104Z</time>
</trkpt>
<trkpt lat="-28.1816925" lon="152.1522063">
<ele>487.658</ele>
<time>2016-01-16T04:17:02.102Z</time>
</trkpt>
<trkpt lat="-28.1812739" lon="152.1524796">
<ele>487.655</ele>
<time>2016-01-16T04:17:04.031Z</time>
</trkpt>
<trkpt lat="-28.1808276" lon="152.1526863">
<ele>487.113</ele>
<time>2016-01-16T04:17:05.981Z</time>
</trkpt>
<trkpt lat="-28.1803195" lon="152.1528209">
<ele>486.517</ele>
<time>2016-01-16T04:17:07.986Z</time>
</trkpt>
<trkpt lat="-28.1800706" lon="152.1528686">
<ele>486.174</ele>
<time>2016-01-16T04:17:08.949Z</time>
</trkpt>
<trkpt lat="-28.1789702" lon="152.1528330">
<ele>485.998</ele>
<time>2016-01-16T04:17:12.701Z</time>
</trkpt>
<trkpt lat="-28.1783910" lon="152.1527280">
<ele>486.681</ele>
<time>2016-01-16T04:17:14.640Z</time>
</trkpt>
<trkpt lat="-28.1778043" lon="152.1525634">
<ele>489.173</ele>
<time>2016-01-16T04:17:16.661Z</time>
</trkpt>
<trkpt lat="-28.1772276" lon="152.1524130">
<ele>492.825</ele>
<time>2016-01-16T04:17:18.657Z</time>
</trkpt>
<trkpt lat="-28.1763493" lon="152.1522294">
<ele>495.855</ele>
<time>2016-01-16T04:17:21.729Z</time>
</trkpt>
<trkpt lat="-28.1757973" lon="152.1521150">
<ele>497.214</ele>
<time>2016-01-16T04:17:23.673Z</time>
</trkpt>
<trkpt lat="-28.1749378" lon="152.1518823">
<ele>497.110</ele>
<time>2016-01-16T04:17:26.799Z</time>
</trkpt>
<trkpt lat="-28.1743771" lon="152.1517497">
<ele>496.508</ele>
<time>2016-01-16T04:17:28.966Z</time>
</trkpt>
<trkpt lat="-28.1738660" lon="152.1516343">
<ele>496.092</ele>
<time>2016-01-16T04:17:30.973Z</time>
</trkpt>
<trkpt lat="-28.1731181" lon="152.1514684">
<ele>495.421</ele>
<time>2016-01-16T04:17:33.888Z</time>
</trkpt>
<trkpt lat="-28.1726157" lon="152.1513462">
<ele>493.886</ele>
<time>2016-01-16T04:17:35.816Z</time>
</trkpt>
<trkpt lat="-28.1718096" lon="152.1511678">
<ele>492.088</ele>
<time>2016-01-16T04:17:38.868Z</time>
</trkpt>
<trkpt lat="-28.1710046" lon="152.1510300">
<ele>491.383</ele>
<time>2016-01-16T04:17:41.928Z</time>
</trkpt>
<trkpt lat="-28.1704657" lon="152.1509992">
<ele>492.071</ele>
<time>2016-01-16T04:17:43.950Z</time>
</trkpt>
<trkpt lat="-28.1699490" lon="152.1510338">
<ele>493.348</ele>
<time>2016-01-16T04:17:45.849Z</time>
</trkpt>
<trkpt lat="-28.1694208" lon="152.1510844">
<ele>494.892</ele>
<time>2016-01-16T04:17:47.745Z</time>
</trkpt>
<trkpt lat="-28.1688760" lon="152.1511694">
<ele>496.758</ele>
<time>2016-01-16T04:17:49.668Z</time>
</trkpt>
<trkpt lat="-28.1683171" lon="152.1512705">
<ele>498.818</ele>
<time>2016-01-16T04:17:51.586Z</time>
</trkpt>
<trkpt lat="-28.1677496" lon="152.1513757">
<ele>500.921</ele>
<time>2016-01-16T04:17:53.458Z</time>
</trkpt>
<trkpt lat="-28.1671480" lon="152.1514782">
<ele>502.802</ele>
<time>2016-01-16T04:17:55.418Z</time>
</trkpt>
<trkpt lat="-28.1662072" lon="152.1516519">
<ele>504.504</ele>
<time>2016-01-16T04:17:58.515Z</time>
</trkpt>
<trkpt lat="-28.1656055" lon="152.1517491">
<ele>506.277</ele>
<time>2016-01-16T04:18:00.527Z</time>
</trkpt>
<trkpt lat="-28.1647283" lon="152.1519325">
<ele>507.697</ele>
<time>2016-01-16T04:18:03.565Z</time>
</trkpt>
<trkpt lat="-28.1638757" lon="152.1521056">
<ele>508.201</ele>
<time>2016-01-16T04:18:06.703Z</time>
</trkpt>
<trkpt lat="-28.1630835" lon="152.1522425">
<ele>507.684</ele>
<time>2016-01-16T04:18:09.778Z</time>
</trkpt>
<trkpt lat="-28.1625676" lon="152.1523288">
<ele>506.732</ele>
<time>2016-01-16T04:18:11.871Z</time>
</trkpt>
<trkpt lat="-28.1620703" lon="152.1524133">
<ele>506.048</ele>
<time>2016-01-16T04:18:13.973Z</time>
</trkpt>
<trkpt lat="-28.1615850" lon="152.1524970">
<ele>505.726</ele>
<time>2016-01-16T04:18:16.062Z</time>
</trkpt>
<trkpt lat="-28.1608819" lon="152.1526205">
<ele>505.378</ele>
<time>2016-01-16T04:18:19.173Z</time>
</trkpt>
<trkpt lat="-28.1604259" lon="152.1526976">
<ele>505.004</ele>
<time>2016-01-16T04:18:21.165Z</time>
</trkpt>
<trkpt lat="-28.1599829" lon="152.1527810">
<ele>504.979</ele>
<time>2016-01-16T04:18:23.058Z</time>
</trkpt>
<trkpt lat="-28.1595216" lon="152.1528610">
<ele>505.486</ele>
<time>2016-01-16T04:18:25.017Z</time>
</trkpt>
<trkpt lat="-28.1590543" lon="152.1529371">
<ele>506.346</ele>
<time>2016-01-16T04:18:27.004Z</time>
</trkpt>
<trkpt lat="-28.1583441" lon="152.1530463">
<ele>507.443</ele>
<time>2016-01-16T04:18:30.031Z</time>
</trkpt>
<trkpt lat="-28.1578810" lon="152.1531219">
<ele>509.361</ele>
<time>2016-01-16T04:18:31.970Z</time>
</trkpt>
<trkpt lat="-28.1574061" lon="152.1532084">
<ele>512.248</ele>
<time>2016-01-16T04:18:33.916Z</time>
</trkpt>
<trkpt lat="-28.1564134" lon="152.1533889">
<ele>515.155</ele>
<time>2016-01-16T04:18:37.882Z</time>
</trkpt>
<trkpt lat="-28.1556607" lon="152.1535157">
<ele>517.628</ele>
<time>2016-01-16T04:18:40.911Z</time>
</trkpt>
<trkpt lat="-28.1549240" lon="152.1536446">
<ele>519.704</ele>
<time>2016-01-16T04:18:43.932Z</time>
</trkpt>
<trkpt lat="-28.1541808" lon="152.1537792">
<ele>521.458</ele>
<time>2016-01-16T04:18:47.081Z</time>
</trkpt>
<trkpt lat="-28.1534870" lon="152.1538880">
<ele>523.105</ele>
<time>2016-01-16T04:18:50.057Z</time>
</trkpt>
<trkpt lat="-28.1527689" lon="152.1539687">
<ele>524.511</ele>
<time>2016-01-16T04:18:53.167Z</time>
</trkpt>
<trkpt lat="-28.1523008" lon="152.1540617">
<ele>526.233</ele>
<time>2016-01-16T04:18:55.247Z</time>
</trkpt>
<trkpt lat="-28.1518540" lon="152.1541593">
<ele>529.296</ele>
<time>2016-01-16T04:18:57.259Z</time>
</trkpt>
<trkpt lat="-28.1513882" lon="152.1542263">
<ele>533.255</ele>
<time>2016-01-16T04:18:59.379Z</time>
</trkpt>
<trkpt lat="-28.1507149" lon="152.1543444">
<ele>537.020</ele>
<time>2016-01-16T04:19:02.635Z</time>
</trkpt>
<trkpt lat="-28.1502986" lon="152.1544266">
<ele>541.016</ele>
<time>2016-01-16T04:19:04.765Z</time>
</trkpt>
<trkpt lat="-28.1498967" lon="152.1544904">
<ele>545.890</ele>
<time>2016-01-16T04:19:06.807Z</time>
</trkpt>
<trkpt lat="-28.1493424" lon="152.1546022">
<ele>550.991</ele>
<time>2016-01-16T04:19:09.543Z</time>
</trkpt>
<trkpt lat="-28.1487286" lon="152.1546796">
<ele>555.361</ele>
<time>2016-01-16T04:19:12.380Z</time>
</trkpt>
<trkpt lat="-28.1482923" lon="152.1547567">
<ele>558.684</ele>
<time>2016-01-16T04:19:14.323Z</time>
</trkpt>
<trkpt lat="-28.1473910" lon="152.1549049">
<ele>560.813</ele>
<time>2016-01-16T04:19:18.186Z</time>
</trkpt>
<trkpt lat="-28.1469201" lon="152.1549995">
<ele>561.337</ele>
<time>2016-01-16T04:19:20.272Z</time>
</trkpt>
<trkpt lat="-28.1464552" lon="152.1550846">
<ele>560.212</ele>
<time>2016-01-16T04:19:22.389Z</time>
</trkpt>
<trkpt lat="-28.1460023" lon="152.1551604">
<ele>558.580</ele>
<time>2016-01-16T04:19:24.532Z</time>
</trkpt>
<trkpt lat="-28.1453570" lon="152.1552845">
<ele>557.335</ele>
<time>2016-01-16T04:19:27.999Z</time>
</trkpt>
<trkpt lat="-28.1449577" lon="152.1553513">
<ele>556.199</ele>
<time>2016-01-16T04:19:30.622Z</time>
</trkpt>
<trkpt lat="-28.1444544" lon="152.1554512">
<ele>554.645</ele>
<time>2016-01-16T04:19:34.748Z</time>
</trkpt>
<trkpt lat="-28.1441581" lon="152.1555128">
<ele>552.324</ele>
<time>2016-01-16T04:19:37.941Z</time>
</trkpt>
<trkpt lat="-28.1438991" lon="152.1555494">
<ele>549.516</ele>
<time>2016-01-16T04:19:41.220Z</time>
</trkpt>
<trkpt lat="-28.1437846" lon="152.1555567">
<ele>547.148</ele>
<time>2016-01-16T04:19:42.787Z</time>
</trkpt>
<trkpt lat="-28.1434317" lon="152.1554959">
<ele>545.697</ele>
<time>2016-01-16T04:19:47.300Z</time>
</trkpt>
<trkpt lat="-28.1432199" lon="152.1553840">
<ele>544.518</ele>
<time>2016-01-16T04:19:49.230Z</time>
</trkpt>
<trkpt lat="-28.1430969" lon="152.1553124">
<ele>542.802</ele>
<time>2016-01-16T04:19:50.215Z</time>
</trkpt>
<trkpt lat="-28.1429608" lon="152.1551210">
<ele>540.588</ele>
<time>2016-01-16T04:19:51.598Z</time>
</trkpt>
<trkpt lat="-28.1430249" lon="152.1547981">
<ele>538.650</ele>
<time>2016-01-16T04:19:53.234Z</time>
</trkpt>
<trkpt lat="-28.1431891" lon="152.1542608">
<ele>537.654</ele>
<time>2016-01-16T04:19:55.909Z</time>
</trkpt>
<trkpt lat="-28.1433244" lon="152.1534924">
<ele>538.795</ele>
<time>2016-01-16T04:19:59.051Z</time>
</trkpt>
<trkpt lat="-28.1433901" lon="152.1529063">
<ele>542.756</ele>
<time>2016-01-16T04:20:01.216Z</time>
</trkpt>
<trkpt lat="-28.1432646" lon="152.1522362">
<ele>547.669</ele>
<time>2016-01-16T04:20:03.485Z</time>
</trkpt>
<trkpt lat="-28.1431803" lon="152.1513015">
<ele>550.835</ele>
<time>2016-01-16T04:20:06.544Z</time>
</trkpt>
<trkpt lat="-28.1430957" lon="152.1507015">
<ele>550.826</ele>
<time>2016-01-16T04:20:08.550Z</time>
</trkpt>
<trkpt lat="-28.1429713" lon="152.1498025">
<ele>547.879</ele>
<time>2016-01-16T04:20:11.492Z</time>
</trkpt>
<trkpt lat="-28.1429048" lon="152.1492098">
<ele>543.987</ele>
<time>2016-01-16T04:20:13.367Z</time>
</trkpt>
<trkpt lat="-28.1427815" lon="152.1482855">
<ele>541.103</ele>
<time>2016-01-16T04:20:16.358Z</time>
</trkpt>
<trkpt lat="-28.1426956" lon="152.1476534">
<ele>539.765</ele>
<time>2016-01-16T04:20:18.490Z</time>
</trkpt>
<trkpt lat="-28.1426206" lon="152.1470401">
<ele>539.617</ele>
<time>2016-01-16T04:20:20.565Z</time>
</trkpt>
<trkpt lat="-28.1425452" lon="152.1464706">
<ele>539.102</ele>
<time>2016-01-16T04:20:22.483Z</time>
</trkpt>
<trkpt lat="-28.1424585" lon="152.1458924">
<ele>536.772</ele>
<time>2016-01-16T04:20:24.410Z</time>
</trkpt>
<trkpt lat="-28.1423295" lon="152.1450171">
<ele>533.101</ele>
<time>2016-01-16T04:20:27.303Z</time>
</trkpt>
<trkpt lat="-28.1422317" lon="152.1441084">
<ele>529.806</ele>
<time>2016-01-16T04:20:30.383Z</time>
</trkpt>
<trkpt lat="-28.1421504" lon="152.1434903">
<ele>527.919</ele>
<time>2016-01-16T04:20:32.538Z</time>
</trkpt>
<trkpt lat="-28.1421094" lon="152.1431978">
<ele>527.385</ele>
<time>2016-01-16T04:20:33.571Z</time>
</trkpt>
<trkpt lat="-28.1419514" lon="152.1420515">
<ele>527.044</ele>
<time>2016-01-16T04:20:37.583Z</time>
</trkpt>
<trkpt lat="-28.1418769" lon="152.1414997">
<ele>525.681</ele>
<time>2016-01-16T04:20:39.476Z</time>
</trkpt>
<trkpt lat="-28.1417611" lon="152.1406442">
<ele>523.580</ele>
<time>2016-01-16T04:20:42.374Z</time>
</trkpt>
<trkpt lat="-28.1416872" lon="152.1400634">
<ele>521.979</ele>
<time>2016-01-16T04:20:44.327Z</time>
</trkpt>
<trkpt lat="-28.1416538" lon="152.1394729">
<ele>521.323</ele>
<time>2016-01-16T04:20:46.262Z</time>
</trkpt>
<trkpt lat="-28.1416181" lon="152.1385785">
<ele>521.260</ele>
<time>2016-01-16T04:20:49.040Z</time>
</trkpt>
<trkpt lat="-28.1415710" lon="152.1379858">
<ele>521.543</ele>
<time>2016-01-16T04:20:50.842Z</time>
</trkpt>
<trkpt lat="-28.1414374" lon="152.1369911">
<ele>522.212</ele>
<time>2016-01-16T04:20:54.045Z</time>
</trkpt>
<trkpt lat="-28.1413154" lon="152.1360261">
<ele>523.093</ele>
<time>2016-01-16T04:20:57.523Z</time>
</trkpt>
<trkpt lat="-28.1411899" lon="152.1351711">
<ele>523.701</ele>
<time>2016-01-16T04:21:01.130Z</time>
</trkpt>
<trkpt lat="-28.1411152" lon="152.1346571">
<ele>523.284</ele>
<time>2016-01-16T04:21:03.601Z</time>
</trkpt>
<trkpt lat="-28.1410572" lon="152.1341708">
<ele>521.236</ele>
<time>2016-01-16T04:21:06.237Z</time>
</trkpt>
<trkpt lat="-28.1409969" lon="152.1337343">
<ele>517.805</ele>
<time>2016-01-16T04:21:09.137Z</time>
</trkpt>
<trkpt lat="-28.1409226" lon="152.1331264">
<ele>514.165</ele>
<time>2016-01-16T04:21:15.820Z</time>
</trkpt>
<trkpt lat="-28.1408671" lon="152.1327885">
<ele>511.030</ele>
<time>2016-01-16T04:21:23.285Z</time>
</trkpt>
<trkpt lat="-28.1408212" lon="152.1323757">
<ele>507.890</ele>
<time>2016-01-16T04:21:30.151Z</time>
</trkpt>
<trkpt lat="-28.1408014" lon="152.1321800">
<ele>504.384</ele>
<time>2016-01-16T04:21:31.682Z</time>
</trkpt>
<trkpt lat="-28.1407642" lon="152.1319428">
<ele>501.193</ele>
<time>2016-01-16T04:21:33.450Z</time>
</trkpt>
<trkpt lat="-28.1407514" lon="152.1317827">
<ele>499.010</ele>
<time>2016-01-16T04:21:34.463Z</time>
</trkpt>
<trkpt lat="-28.1407323" lon="152.1316711">
<ele>498.008</ele>
<time>2016-01-16T04:21:35.179Z</time>
</trkpt>
<trkpt lat="-28.1406908" lon="152.1315718">
<ele>497.868</ele>
<time>2016-01-16T04:21:35.871Z</time>
</trkpt>
<trkpt lat="-28.1405877" lon="152.1315289">
<ele>498.034</ele>
<time>2016-01-16T04:21:36.583Z</time>
</trkpt>
<trkpt lat="-28.1404691" lon="152.1316021">
<ele>498.053</ele>
<time>2016-01-16T04:21:37.441Z</time>
</trkpt>
<trkpt lat="-28.1402953" lon="152.1316949">
<ele>497.770</ele>
<time>2016-01-16T04:21:38.567Z</time>
</trkpt>
<trkpt lat="-28.1398417" lon="152.1318907">
<ele>497.618</ele>
<time>2016-01-16T04:21:41.048Z</time>
</trkpt>
<trkpt lat="-28.1392133" lon="152.1320527">
<ele>498.579</ele>
<time>2016-01-16T04:21:43.912Z</time>
</trkpt>
<trkpt lat="-28.1387076" lon="152.1321154">
<ele>501.520</ele>
<time>2016-01-16T04:21:45.859Z</time>
</trkpt>
<trkpt lat="-28.1384603" lon="152.1321933">
<ele>505.890</ele>
<time>2016-01-16T04:21:46.785Z</time>
</trkpt>
<trkpt lat="-28.1372177" lon="152.1324118">
<ele>510.087</ele>
<time>2016-01-16T04:21:51.326Z</time>
</trkpt>
<trkpt lat="-28.1366161" lon="152.1325188">
<ele>513.525</ele>
<time>2016-01-16T04:21:53.585Z</time>
</trkpt>
<trkpt lat="-28.1360537" lon="152.1326049">
<ele>516.267</ele>
<time>2016-01-16T04:21:55.735Z</time>
</trkpt>
<trkpt lat="-28.1352289" lon="152.1327627">
<ele>517.681</ele>
<time>2016-01-16T04:21:58.881Z</time>
</trkpt>
<trkpt lat="-28.1344278" lon="152.1328939">
<ele>517.602</ele>
<time>2016-01-16T04:22:01.814Z</time>
</trkpt>
<trkpt lat="-28.1338984" lon="152.1329754">
<ele>516.835</ele>
<time>2016-01-16T04:22:03.732Z</time>
</trkpt>
<trkpt lat="-28.1328245" lon="152.1331894">
<ele>516.229</ele>
<time>2016-01-16T04:22:07.635Z</time>
</trkpt>
<trkpt lat="-28.1322842" lon="152.1332837">
<ele>516.449</ele>
<time>2016-01-16T04:22:09.592Z</time>
</trkpt>
<trkpt lat="-28.1317304" lon="152.1333851">
<ele>517.682</ele>
<time>2016-01-16T04:22:11.643Z</time>
</trkpt>
<trkpt lat="-28.1311902" lon="152.1334728">
<ele>519.215</ele>
<time>2016-01-16T04:22:13.671Z</time>
</trkpt>
<trkpt lat="-28.1306341" lon="152.1335750">
<ele>520.219</ele>
<time>2016-01-16T04:22:15.819Z</time>
</trkpt>
<trkpt lat="-28.1298260" lon="152.1337288">
<ele>520.599</ele>
<time>2016-01-16T04:22:19.056Z</time>
</trkpt>
<trkpt lat="-28.1292785" lon="152.1338158">
<ele>520.822</ele>
<time>2016-01-16T04:22:21.380Z</time>
</trkpt>
<trkpt lat="-28.1284961" lon="152.1339576">
<ele>521.141</ele>
<time>2016-01-16T04:22:25.025Z</time>
</trkpt>
<trkpt lat="-28.1277439" lon="152.1340870">
<ele>521.264</ele>
<time>2016-01-16T04:22:28.616Z</time>
</trkpt>
<trkpt lat="-28.1270587" lon="152.1342030">
<ele>520.941</ele>
<time>2016-01-16T04:22:32.033Z</time>
</trkpt>
<trkpt lat="-28.1264307" lon="152.1343228">
<ele>519.780</ele>
<time>2016-01-16T04:22:35.296Z</time>
</trkpt>
<trkpt lat="-28.1260056" lon="152.1343813">
<ele>517.647</ele>
<time>2016-01-16T04:22:37.537Z</time>
</trkpt>
<trkpt lat="-28.1255986" lon="152.1344593">
<ele>515.552</ele>
<time>2016-01-16T04:22:39.702Z</time>
</trkpt>
<trkpt lat="-28.1252033" lon="152.1345481">
<ele>514.316</ele>
<time>2016-01-16T04:22:41.819Z</time>
</trkpt>
<trkpt lat="-28.1246260" lon="152.1346456">
<ele>513.351</ele>
<time>2016-01-16T04:22:44.826Z</time>
</trkpt>
<trkpt lat="-28.1242494" lon="152.1347214">
<ele>511.883</ele>
<time>2016-01-16T04:22:46.683Z</time>
</trkpt>
<trkpt lat="-28.1236567" lon="152.1348455">
<ele>509.634</ele>
<time>2016-01-16T04:22:49.312Z</time>
</trkpt>
<trkpt lat="-28.1231147" lon="152.1349701">
<ele>506.522</ele>
<time>2016-01-16T04:22:51.602Z</time>
</trkpt>
<trkpt lat="-28.1226009" lon="152.1352620">
<ele>503.182</ele>
<time>2016-01-16T04:22:54.031Z</time>
</trkpt>
<trkpt lat="-28.1221196" lon="152.1357639">
<ele>501.427</ele>
<time>2016-01-16T04:22:56.831Z</time>
</trkpt>
<trkpt lat="-28.1217782" lon="152.1361401">
<ele>502.599</ele>
<time>2016-01-16T04:22:58.793Z</time>
</trkpt>
<trkpt lat="-28.1212382" lon="152.1367057">
<ele>506.089</ele>
<time>2016-01-16T04:23:01.741Z</time>
</trkpt>
<trkpt lat="-28.1207418" lon="152.1372426">
<ele>510.248</ele>
<time>2016-01-16T04:23:04.449Z</time>
</trkpt>
<trkpt lat="-28.1204044" lon="152.1375981">
<ele>513.563</ele>
<time>2016-01-16T04:23:06.308Z</time>
</trkpt>
<trkpt lat="-28.1198650" lon="152.1381976">
<ele>515.370</ele>
<time>2016-01-16T04:23:09.385Z</time>
</trkpt>
<trkpt lat="-28.1194588" lon="152.1385679">
<ele>516.688</ele>
<time>2016-01-16T04:23:11.473Z</time>
</trkpt>
<trkpt lat="-28.1190715" lon="152.1389336">
<ele>518.582</ele>
<time>2016-01-16T04:23:13.431Z</time>
</trkpt>
<trkpt lat="-28.1184789" lon="152.1394231">
<ele>520.450</ele>
<time>2016-01-16T04:23:16.143Z</time>
</trkpt>
<trkpt lat="-28.1178120" lon="152.1397802">
<ele>521.534</ele>
<time>2016-01-16T04:23:18.796Z</time>
</trkpt>
<trkpt lat="-28.1173324" lon="152.1399795">
<ele>522.676</ele>
<time>2016-01-16T04:23:20.684Z</time>
</trkpt>
<trkpt lat="-28.1167931" lon="152.1400688">
<ele>524.981</ele>
<time>2016-01-16T04:23:22.779Z</time>
</trkpt>
<trkpt lat="-28.1162423" lon="152.1401773">
<ele>528.054</ele>
<time>2016-01-16T04:23:24.976Z</time>
</trkpt>
<trkpt lat="-28.1154318" lon="152.1403121">
<ele>531.214</ele>
<time>2016-01-16T04:23:28.252Z</time>
</trkpt>
<trkpt lat="-28.1149140" lon="152.1404060">
<ele>534.595</ele>
<time>2016-01-16T04:23:30.299Z</time>
</trkpt>
<trkpt lat="-28.1141535" lon="152.1405638">
<ele>537.555</ele>
<time>2016-01-16T04:23:33.227Z</time>
</trkpt>
<trkpt lat="-28.1136615" lon="152.1406404">
<ele>538.614</ele>
<time>2016-01-16T04:23:35.005Z</time>
</trkpt>
<trkpt lat="-28.1131601" lon="152.1406594">
<ele>537.555</ele>
<time>2016-01-16T04:23:36.667Z</time>
</trkpt>
<trkpt lat="-28.1126478" lon="152.1405949">
<ele>535.449</ele>
<time>2016-01-16T04:23:38.264Z</time>
</trkpt>
<trkpt lat="-28.1121398" lon="152.1404697">
<ele>533.035</ele>
<time>2016-01-16T04:23:39.827Z</time>
</trkpt>
<trkpt lat="-28.1116435" lon="152.1402443">
<ele>530.111</ele>
<time>2016-01-16T04:23:41.414Z</time>
</trkpt>
<trkpt lat="-28.1111067" lon="152.1399385">
<ele>526.924</ele>
<time>2016-01-16T04:23:43.268Z</time>
</trkpt>
<trkpt lat="-28.1102432" lon="152.1393507">
<ele>524.505</ele>
<time>2016-01-16T04:23:46.600Z</time>
</trkpt>
<trkpt lat="-28.1096527" lon="152.1389634">
<ele>523.329</ele>
<time>2016-01-16T04:23:48.998Z</time>
</trkpt>
<trkpt lat="-28.1088688" lon="152.1384369">
<ele>522.613</ele>
<time>2016-01-16T04:23:52.184Z</time>
</trkpt>
<trkpt lat="-28.1083776" lon="152.1381169">
<ele>520.457</ele>
<time>2016-01-16T04:23:54.122Z</time>
</trkpt>
<trkpt lat="-28.1078799" lon="152.1378020">
<ele>515.788</ele>
<time>2016-01-16T04:23:56.046Z</time>
</trkpt>
<trkpt lat="-28.1073690" lon="152.1375272">
<ele>510.236</ele>
<time>2016-01-16T04:23:57.918Z</time>
</trkpt>
<trkpt lat="-28.1065677" lon="152.1371567">
<ele>506.225</ele>
<time>2016-01-16T04:24:00.865Z</time>
</trkpt>
<trkpt lat="-28.1057380" lon="152.1367969">
<ele>504.668</ele>
<time>2016-01-16T04:24:04.117Z</time>
</trkpt>
<trkpt lat="-28.1051613" lon="152.1365977">
<ele>505.124</ele>
<time>2016-01-16T04:24:06.424Z</time>
</trkpt>
<trkpt lat="-28.1046065" lon="152.1363793">
<ele>506.279</ele>
<time>2016-01-16T04:24:08.707Z</time>
</trkpt>
<trkpt lat="-28.1040901" lon="152.1361861">
<ele>506.901</ele>
<time>2016-01-16T04:24:10.846Z</time>
</trkpt>
<trkpt lat="-28.1035884" lon="152.1360089">
<ele>506.669</ele>
<time>2016-01-16T04:24:13.000Z</time>
</trkpt>
<trkpt lat="-28.1025673" lon="152.1358369">
<ele>506.180</ele>
<time>2016-01-16T04:24:17.590Z</time>
</trkpt>
<trkpt lat="-28.1020481" lon="152.1358599">
<ele>506.886</ele>
<time>2016-01-16T04:24:19.975Z</time>
</trkpt>
<trkpt lat="-28.1015632" lon="152.1359527">
<ele>509.967</ele>
<time>2016-01-16T04:24:22.195Z</time>
</trkpt>
<trkpt lat="-28.1011130" lon="152.1360593">
<ele>514.797</ele>
<time>2016-01-16T04:24:24.212Z</time>
</trkpt>
<trkpt lat="-28.1005178" lon="152.1363174">
<ele>519.385</ele>
<time>2016-01-16T04:24:26.977Z</time>
</trkpt>
<trkpt lat="-28.1001302" lon="152.1365170">
<ele>522.303</ele>
<time>2016-01-16T04:24:28.810Z</time>
</trkpt>
<trkpt lat="-28.0995144" lon="152.1368476">
<ele>523.390</ele>
<time>2016-01-16T04:24:31.686Z</time>
</trkpt>
<trkpt lat="-28.0991007" lon="152.1370667">
<ele>523.129</ele>
<time>2016-01-16T04:24:33.618Z</time>
</trkpt>
<trkpt lat="-28.0986741" lon="152.1372775">
<ele>522.023</ele>
<time>2016-01-16T04:24:35.588Z</time>
</trkpt>
<trkpt lat="-28.0980544" lon="152.1376318">
<ele>520.445</ele>
<time>2016-01-16T04:24:38.514Z</time>
</trkpt>
<trkpt lat="-28.0974017" lon="152.1379833">
<ele>518.211</ele>
<time>2016-01-16T04:24:41.488Z</time>
</trkpt>
<trkpt lat="-28.0967880" lon="152.1383234">
<ele>515.274</ele>
<time>2016-01-16T04:24:44.334Z</time>
</trkpt>
<trkpt lat="-28.0961628" lon="152.1386896">
<ele>512.638</ele>
<time>2016-01-16T04:24:47.363Z</time>
</trkpt>
<trkpt lat="-28.0957265" lon="152.1389325">
<ele>511.312</ele>
<time>2016-01-16T04:24:49.468Z</time>
</trkpt>
<trkpt lat="-28.0950764" lon="152.1393078">
<ele>511.401</ele>
<time>2016-01-16T04:24:52.436Z</time>
</trkpt>
<trkpt lat="-28.0944719" lon="152.1396587">
<ele>512.271</ele>
<time>2016-01-16T04:24:55.095Z</time>
</trkpt>
<trkpt lat="-28.0938863" lon="152.1400763">
<ele>513.073</ele>
<time>2016-01-16T04:24:57.761Z</time>
</trkpt>
<trkpt lat="-28.0935063" lon="152.1404302">
<ele>513.358</ele>
<time>2016-01-16T04:24:59.658Z</time>
</trkpt>
<trkpt lat="-28.0928776" lon="152.1409602">
<ele>513.245</ele>
<time>2016-01-16T04:25:02.703Z</time>
</trkpt>
<trkpt lat="-28.0924697" lon="152.1413198">
<ele>512.675</ele>
<time>2016-01-16T04:25:04.782Z</time>
</trkpt>
<trkpt lat="-28.0920587" lon="152.1416584">
<ele>511.158</ele>
<time>2016-01-16T04:25:06.875Z</time>
</trkpt>
<trkpt lat="-28.0916571" lon="152.1420016">
<ele>508.778</ele>
<time>2016-01-16T04:25:09.039Z</time>
</trkpt>
<trkpt lat="-28.0910367" lon="152.1425291">
<ele>506.491</ele>
<time>2016-01-16T04:25:12.621Z</time>
</trkpt>
<trkpt lat="-28.0904928" lon="152.1430122">
<ele>504.926</ele>
<time>2016-01-16T04:25:16.764Z</time>
</trkpt>
<trkpt lat="-28.0901088" lon="152.1433289">
<ele>503.665</ele>
<time>2016-01-16T04:25:20.580Z</time>
</trkpt>
<trkpt lat="-28.0895740" lon="152.1437847">
<ele>502.140</ele>
<time>2016-01-16T04:25:30.481Z</time>
</trkpt>
<trkpt lat="-28.0892583" lon="152.1440650">
<ele>500.371</ele>
<time>2016-01-16T04:25:44.178Z</time>
</trkpt>
<trkpt lat="-28.0889095" lon="152.1443867">
<ele>498.038</ele>
<time>2016-01-16T04:25:49.334Z</time>
</trkpt>
<trkpt lat="-28.0887139" lon="152.1445732">
<ele>494.356</ele>
<time>2016-01-16T04:25:51.335Z</time>
</trkpt>
<trkpt lat="-28.0885453" lon="152.1447148">
<ele>490.042</ele>
<time>2016-01-16T04:25:52.751Z</time>
</trkpt>
<trkpt lat="-28.0883840" lon="152.1448074">
<ele>486.968</ele>
<time>2016-01-16T04:25:53.892Z</time>
</trkpt>
<trkpt lat="-28.0881708" lon="152.1448565">
<ele>485.798</ele>
<time>2016-01-16T04:25:55.224Z</time>
</trkpt>
<trkpt lat="-28.0880697" lon="152.1448486">
<ele>485.846</ele>
<time>2016-01-16T04:25:55.763Z</time>
</trkpt>
<trkpt lat="-28.0879537" lon="152.1448094">
<ele>486.343</ele>
<time>2016-01-16T04:25:56.407Z</time>
</trkpt>
<trkpt lat="-28.0878721" lon="152.1447624">
<ele>486.774</ele>
<time>2016-01-16T04:25:56.895Z</time>
</trkpt>
<trkpt lat="-28.0877929" lon="152.1447078">
<ele>486.912</ele>
<time>2016-01-16T04:25:57.333Z</time>
</trkpt>
<trkpt lat="-28.0876852" lon="152.1446208">
<ele>486.781</ele>
<time>2016-01-16T04:25:57.936Z</time>
</trkpt>
<trkpt lat="-28.0875577" lon="152.1446752">
<ele>486.542</ele>
<time>2016-01-16T04:25:58.557Z</time>
</trkpt>
<trkpt lat="-28.0874284" lon="152.1448436">
<ele>486.453</ele>
<time>2016-01-16T04:25:59.455Z</time>
</trkpt>
<trkpt lat="-28.0870815" lon="152.1453635">
<ele>486.941</ele>
<time>2016-01-16T04:26:01.856Z</time>
</trkpt>
<trkpt lat="-28.0867801" lon="152.1457859">
<ele>489.621</ele>
<time>2016-01-16T04:26:03.711Z</time>
</trkpt>
<trkpt lat="-28.0863199" lon="152.1464280">
<ele>494.976</ele>
<time>2016-01-16T04:26:06.480Z</time>
</trkpt>
<trkpt lat="-28.0860086" lon="152.1468285">
<ele>500.622</ele>
<time>2016-01-16T04:26:08.239Z</time>
</trkpt>
<trkpt lat="-28.0855491" lon="152.1474582">
<ele>504.335</ele>
<time>2016-01-16T04:26:10.908Z</time>
</trkpt>
<trkpt lat="-28.0852228" lon="152.1478965">
<ele>505.969</ele>
<time>2016-01-16T04:26:12.784Z</time>
</trkpt>
<trkpt lat="-28.0847227" lon="152.1486027">
<ele>506.155</ele>
<time>2016-01-16T04:26:15.706Z</time>
</trkpt>
<trkpt lat="-28.0842158" lon="152.1492978">
<ele>506.005</ele>
<time>2016-01-16T04:26:18.525Z</time>
</trkpt>
<trkpt lat="-28.0838711" lon="152.1497699">
<ele>505.896</ele>
<time>2016-01-16T04:26:20.391Z</time>
</trkpt>
<trkpt lat="-28.0835342" lon="152.1502272">
<ele>504.780</ele>
<time>2016-01-16T04:26:22.206Z</time>
</trkpt>
<trkpt lat="-28.0830005" lon="152.1509232">
<ele>502.173</ele>
<time>2016-01-16T04:26:25.060Z</time>
</trkpt>
<trkpt lat="-28.0824567" lon="152.1516559">
<ele>499.096</ele>
<time>2016-01-16T04:26:28.131Z</time>
</trkpt>
<trkpt lat="-28.0820939" lon="152.1521599">
<ele>496.183</ele>
<time>2016-01-16T04:26:30.293Z</time>
</trkpt>
<trkpt lat="-28.0817248" lon="152.1526761">
<ele>493.643</ele>
<time>2016-01-16T04:26:32.543Z</time>
</trkpt>
<trkpt lat="-28.0809976" lon="152.1536456">
<ele>491.967</ele>
<time>2016-01-16T04:26:36.886Z</time>
</trkpt>
<trkpt lat="-28.0805111" lon="152.1543398">
<ele>491.125</ele>
<time>2016-01-16T04:26:39.884Z</time>
</trkpt>
<trkpt lat="-28.0800539" lon="152.1550689">
<ele>490.585</ele>
<time>2016-01-16T04:26:42.924Z</time>
</trkpt>
<trkpt lat="-28.0796496" lon="152.1558117">
<ele>489.914</ele>
<time>2016-01-16T04:26:45.954Z</time>
</trkpt>
<trkpt lat="-28.0792828" lon="152.1565844">
<ele>489.279</ele>
<time>2016-01-16T04:26:49.045Z</time>
</trkpt>
<trkpt lat="-28.0790786" lon="152.1571206">
<ele>489.457</ele>
<time>2016-01-16T04:26:51.166Z</time>
</trkpt>
<trkpt lat="-28.0787914" lon="152.1579341">
<ele>490.559</ele>
<time>2016-01-16T04:26:54.438Z</time>
</trkpt>
<trkpt lat="-28.0787063" lon="152.1582099">
<ele>491.579</ele>
<time>2016-01-16T04:26:55.527Z</time>
</trkpt>
<trkpt lat="-28.0784469" lon="152.1593014">
<ele>491.777</ele>
<time>2016-01-16T04:26:59.640Z</time>
</trkpt>
<trkpt lat="-28.0783603" lon="152.1598315">
<ele>491.417</ele>
<time>2016-01-16T04:27:01.541Z</time>
</trkpt>
<trkpt lat="-28.0782893" lon="152.1603627">
<ele>490.930</ele>
<time>2016-01-16T04:27:03.426Z</time>
</trkpt>
<trkpt lat="-28.0782100" lon="152.1611422">
<ele>490.430</ele>
<time>2016-01-16T04:27:06.158Z</time>
</trkpt>
<trkpt lat="-28.0781913" lon="152.1619910">
<ele>489.976</ele>
<time>2016-01-16T04:27:09.066Z</time>
</trkpt>
<trkpt lat="-28.0781802" lon="152.1625604">
<ele>489.890</ele>
<time>2016-01-16T04:27:11.023Z</time>
</trkpt>
<trkpt lat="-28.0781882" lon="152.1633909">
<ele>490.481</ele>
<time>2016-01-16T04:27:13.927Z</time>
</trkpt>
<trkpt lat="-28.0781824" lon="152.1639799">
<ele>491.512</ele>
<time>2016-01-16T04:27:15.956Z</time>
</trkpt>
<trkpt lat="-28.0781709" lon="152.1648719">
<ele>492.787</ele>
<time>2016-01-16T04:27:18.987Z</time>
</trkpt>
<trkpt lat="-28.0781609" lon="152.1657331">
<ele>494.253</ele>
<time>2016-01-16T04:27:21.949Z</time>
</trkpt>
<trkpt lat="-28.0781181" lon="152.1665722">
<ele>494.953</ele>
<time>2016-01-16T04:27:24.957Z</time>
</trkpt>
<trkpt lat="-28.0780479" lon="152.1674298">
<ele>494.236</ele>
<time>2016-01-16T04:27:28.162Z</time>
</trkpt>
<trkpt lat="-28.0779673" lon="152.1683188">
<ele>493.468</ele>
<time>2016-01-16T04:27:31.470Z</time>
</trkpt>
<trkpt lat="-28.0778562" lon="152.1691476">
<ele>494.142</ele>
<time>2016-01-16T04:27:34.535Z</time>
</trkpt>
<trkpt lat="-28.0777899" lon="152.1696927">
<ele>495.792</ele>
<time>2016-01-16T04:27:36.588Z</time>
</trkpt>
<trkpt lat="-28.0776648" lon="152.1704700">
<ele>497.095</ele>
<time>2016-01-16T04:27:39.599Z</time>
</trkpt>
<trkpt lat="-28.0775208" lon="152.1712331">
<ele>497.545</ele>
<time>2016-01-16T04:27:42.680Z</time>
</trkpt>
<trkpt lat="-28.0774140" lon="152.1717654">
<ele>497.448</ele>
<time>2016-01-16T04:27:44.846Z</time>
</trkpt>
<trkpt lat="-28.0773220" lon="152.1722926">
<ele>497.859</ele>
<time>2016-01-16T04:27:46.956Z</time>
</trkpt>
<trkpt lat="-28.0771693" lon="152.1730462">
<ele>499.390</ele>
<time>2016-01-16T04:27:49.921Z</time>
</trkpt>
<trkpt lat="-28.0770777" lon="152.1735483">
<ele>501.091</ele>
<time>2016-01-16T04:27:51.866Z</time>
</trkpt>
<trkpt lat="-28.0769907" lon="152.1740231">
<ele>501.775</ele>
<time>2016-01-16T04:27:53.664Z</time>
</trkpt>
<trkpt lat="-28.0769055" lon="152.1744982">
<ele>501.127</ele>
<time>2016-01-16T04:27:55.458Z</time>
</trkpt>
<trkpt lat="-28.0767663" lon="152.1752497">
<ele>499.615</ele>
<time>2016-01-16T04:27:58.315Z</time>
</trkpt>
<trkpt lat="-28.0766537" lon="152.1757621">
<ele>498.285</ele>
<time>2016-01-16T04:28:00.334Z</time>
</trkpt>
<trkpt lat="-28.0764963" lon="152.1765265">
<ele>497.851</ele>
<time>2016-01-16T04:28:03.390Z</time>
</trkpt>
<trkpt lat="-28.0763293" lon="152.1773154">
<ele>498.479</ele>
<time>2016-01-16T04:28:06.584Z</time>
</trkpt>
<trkpt lat="-28.0761713" lon="152.1780936">
<ele>499.778</ele>
<time>2016-01-16T04:28:09.711Z</time>
</trkpt>
<trkpt lat="-28.0760781" lon="152.1786096">
<ele>500.894</ele>
<time>2016-01-16T04:28:11.731Z</time>
</trkpt>
<trkpt lat="-28.0759769" lon="152.1791099">
<ele>500.963</ele>
<time>2016-01-16T04:28:13.691Z</time>
</trkpt>
<trkpt lat="-28.0758339" lon="152.1798326">
<ele>499.903</ele>
<time>2016-01-16T04:28:16.504Z</time>
</trkpt>
<trkpt lat="-28.0756922" lon="152.1805712">
<ele>498.668</ele>
<time>2016-01-16T04:28:19.354Z</time>
</trkpt>
<trkpt lat="-28.0755953" lon="152.1810831">
<ele>498.441</ele>
<time>2016-01-16T04:28:21.318Z</time>
</trkpt>
<trkpt lat="-28.0754480" lon="152.1818256">
<ele>499.342</ele>
<time>2016-01-16T04:28:24.176Z</time>
</trkpt>
<trkpt lat="-28.0753406" lon="152.1823318">
<ele>500.998</ele>
<time>2016-01-16T04:28:26.103Z</time>
</trkpt>
<trkpt lat="-28.0751907" lon="152.1830946">
<ele>502.983</ele>
<time>2016-01-16T04:28:28.920Z</time>
</trkpt>
<trkpt lat="-28.0750859" lon="152.1836057">
<ele>504.981</ele>
<time>2016-01-16T04:28:30.760Z</time>
</trkpt>
<trkpt lat="-28.0749268" lon="152.1843800">
<ele>506.804</ele>
<time>2016-01-16T04:28:33.456Z</time>
</trkpt>
<trkpt lat="-28.0748285" lon="152.1848918">
<ele>508.100</ele>
<time>2016-01-16T04:28:35.184Z</time>
</trkpt>
<trkpt lat="-28.0746853" lon="152.1857067">
<ele>508.569</ele>
<time>2016-01-16T04:28:37.896Z</time>
</trkpt>
<trkpt lat="-28.0745758" lon="152.1862860">
<ele>508.892</ele>
<time>2016-01-16T04:28:39.830Z</time>
</trkpt>
<trkpt lat="-28.0743280" lon="152.1874786">
<ele>510.433</ele>
<time>2016-01-16T04:28:43.895Z</time>
</trkpt>
<trkpt lat="-28.0741507" lon="152.1883709">
<ele>513.353</ele>
<time>2016-01-16T04:28:46.976Z</time>
</trkpt>
<trkpt lat="-28.0739735" lon="152.1892508">
<ele>515.565</ele>
<time>2016-01-16T04:28:50.079Z</time>
</trkpt>
<trkpt lat="-28.0738039" lon="152.1901177">
<ele>515.504</ele>
<time>2016-01-16T04:28:53.191Z</time>
</trkpt>
<trkpt lat="-28.0736679" lon="152.1909937">
<ele>513.465</ele>
<time>2016-01-16T04:28:56.403Z</time>
</trkpt>
<trkpt lat="-28.0735855" lon="152.1915743">
<ele>510.307</ele>
<time>2016-01-16T04:28:58.590Z</time>
</trkpt>
<trkpt lat="-28.0734394" lon="152.1926848">
<ele>507.374</ele>
<time>2016-01-16T04:29:02.664Z</time>
</trkpt>
<trkpt lat="-28.0733770" lon="152.1932216">
<ele>505.607</ele>
<time>2016-01-16T04:29:04.433Z</time>
</trkpt>
<trkpt lat="-28.0733152" lon="152.1940071">
<ele>504.601</ele>
<time>2016-01-16T04:29:06.925Z</time>
</trkpt>
<trkpt lat="-28.0732516" lon="152.1947643">
<ele>503.872</ele>
<time>2016-01-16T04:29:09.363Z</time>
</trkpt>
<trkpt lat="-28.0732121" lon="152.1956643">
<ele>503.446</ele>
<time>2016-01-16T04:29:12.445Z</time>
</trkpt>
<trkpt lat="-28.0731639" lon="152.1966535">
<ele>503.921</ele>
<time>2016-01-16T04:29:16.071Z</time>
</trkpt>
<trkpt lat="-28.0731299" lon="152.1972803">
<ele>505.661</ele>
<time>2016-01-16T04:29:18.346Z</time>
</trkpt>
<trkpt lat="-28.0730808" lon="152.1981426">
<ele>507.769</ele>
<time>2016-01-16T04:29:21.412Z</time>
</trkpt>
<trkpt lat="-28.0730442" lon="152.1986796">
<ele>508.718</ele>
<time>2016-01-16T04:29:23.305Z</time>
</trkpt>
<trkpt lat="-28.0729953" lon="152.1992165">
<ele>508.165</ele>
<time>2016-01-16T04:29:25.215Z</time>
</trkpt>
<trkpt lat="-28.0729380" lon="152.1997665">
<ele>506.727</ele>
<time>2016-01-16T04:29:27.182Z</time>
</trkpt>
<trkpt lat="-28.0728278" lon="152.2006059">
<ele>505.476</ele>
<time>2016-01-16T04:29:30.192Z</time>
</trkpt>
<trkpt lat="-28.0726996" lon="152.2014426">
<ele>505.313</ele>
<time>2016-01-16T04:29:33.192Z</time>
</trkpt>
<trkpt lat="-28.0725424" lon="152.2022646">
<ele>506.174</ele>
<time>2016-01-16T04:29:36.143Z</time>
</trkpt>
<trkpt lat="-28.0724316" lon="152.2028195">
<ele>507.206</ele>
<time>2016-01-16T04:29:38.085Z</time>
</trkpt>
<trkpt lat="-28.0723135" lon="152.2033633">
<ele>507.852</ele>
<time>2016-01-16T04:29:39.977Z</time>
</trkpt>
<trkpt lat="-28.0721389" lon="152.2041733">
<ele>507.636</ele>
<time>2016-01-16T04:29:42.775Z</time>
</trkpt>
<trkpt lat="-28.0719660" lon="152.2049952">
<ele>506.586</ele>
<time>2016-01-16T04:29:45.641Z</time>
</trkpt>
<trkpt lat="-28.0717852" lon="152.2058684">
<ele>505.485</ele>
<time>2016-01-16T04:29:48.702Z</time>
</trkpt>
<trkpt lat="-28.0716013" lon="152.2067433">
<ele>504.950</ele>
<time>2016-01-16T04:29:51.805Z</time>
</trkpt>
<trkpt lat="-28.0714127" lon="152.2075751">
<ele>504.100</ele>
<time>2016-01-16T04:29:54.872Z</time>
</trkpt>
<trkpt lat="-28.0712228" lon="152.2084071">
<ele>501.891</ele>
<time>2016-01-16T04:29:58.071Z</time>
</trkpt>
<trkpt lat="-28.0710444" lon="152.2092698">
<ele>498.900</ele>
<time>2016-01-16T04:30:01.422Z</time>
</trkpt>
<trkpt lat="-28.0708734" lon="152.2100735">
<ele>496.337</ele>
<time>2016-01-16T04:30:04.504Z</time>
</trkpt>
<trkpt lat="-28.0707553" lon="152.2105929">
<ele>494.643</ele>
<time>2016-01-16T04:30:06.439Z</time>
</trkpt>
<trkpt lat="-28.0705872" lon="152.2113587">
<ele>493.844</ele>
<time>2016-01-16T04:30:09.182Z</time>
</trkpt>
<trkpt lat="-28.0704743" lon="152.2118419">
<ele>493.365</ele>
<time>2016-01-16T04:30:10.866Z</time>
</trkpt>
<trkpt lat="-28.0703054" lon="152.2126345">
<ele>492.549</ele>
<time>2016-01-16T04:30:13.616Z</time>
</trkpt>
<trkpt lat="-28.0702453" lon="152.2129067">
<ele>491.575</ele>
<time>2016-01-16T04:30:14.571Z</time>
</trkpt>
<trkpt lat="-28.0700075" lon="152.2140192">
<ele>491.380</ele>
<time>2016-01-16T04:30:18.512Z</time>
</trkpt>
<trkpt lat="-28.0698755" lon="152.2145807">
<ele>492.354</ele>
<time>2016-01-16T04:30:20.528Z</time>
</trkpt>
<trkpt lat="-28.0697546" lon="152.2151635">
<ele>493.684</ele>
<time>2016-01-16T04:30:22.610Z</time>
</trkpt>
<trkpt lat="-28.0696056" lon="152.2157190">
<ele>494.474</ele>
<time>2016-01-16T04:30:24.654Z</time>
</trkpt>
<trkpt lat="-28.0693945" lon="152.2165478">
<ele>494.871</ele>
<time>2016-01-16T04:30:27.694Z</time>
</trkpt>
<trkpt lat="-28.0692423" lon="152.2170962">
<ele>495.282</ele>
<time>2016-01-16T04:30:29.725Z</time>
</trkpt>
<trkpt lat="-28.0689902" lon="152.2179107">
<ele>495.439</ele>
<time>2016-01-16T04:30:32.822Z</time>
</trkpt>
<trkpt lat="-28.0689051" lon="152.2181779">
<ele>495.030</ele>
<time>2016-01-16T04:30:33.871Z</time>
</trkpt>
<trkpt lat="-28.0685327" lon="152.2192495">
<ele>494.456</ele>
<time>2016-01-16T04:30:38.192Z</time>
</trkpt>
<trkpt lat="-28.0682099" lon="152.2199902">
<ele>494.474</ele>
<time>2016-01-16T04:30:41.283Z</time>
</trkpt>
<trkpt lat="-28.0679911" lon="152.2204865">
<ele>495.427</ele>
<time>2016-01-16T04:30:43.333Z</time>
</trkpt>
<trkpt lat="-28.0677822" lon="152.2209626">
<ele>496.769</ele>
<time>2016-01-16T04:30:45.254Z</time>
</trkpt>
<trkpt lat="-28.0674428" lon="152.2216342">
<ele>497.783</ele>
<time>2016-01-16T04:30:48.009Z</time>
</trkpt>
<trkpt lat="-28.0672271" lon="152.2220818">
<ele>498.443</ele>
<time>2016-01-16T04:30:49.808Z</time>
</trkpt>
<trkpt lat="-28.0668818" lon="152.2227865">
<ele>498.885</ele>
<time>2016-01-16T04:30:52.600Z</time>
</trkpt>
<trkpt lat="-28.0666454" lon="152.2232661">
<ele>499.415</ele>
<time>2016-01-16T04:30:54.478Z</time>
</trkpt>
<trkpt lat="-28.0662754" lon="152.2239917">
<ele>500.299</ele>
<time>2016-01-16T04:30:57.352Z</time>
</trkpt>
<trkpt lat="-28.0660190" lon="152.2244861">
<ele>501.163</ele>
<time>2016-01-16T04:30:59.358Z</time>
</trkpt>
<trkpt lat="-28.0656374" lon="152.2252438">
<ele>501.444</ele>
<time>2016-01-16T04:31:02.445Z</time>
</trkpt>
<trkpt lat="-28.0653881" lon="152.2257614">
<ele>500.985</ele>
<time>2016-01-16T04:31:04.531Z</time>
</trkpt>
<trkpt lat="-28.0650524" lon="152.2265627">
<ele>499.519</ele>
<time>2016-01-16T04:31:07.653Z</time>
</trkpt>
<trkpt lat="-28.0647241" lon="152.2272893">
<ele>497.129</ele>
<time>2016-01-16T04:31:10.583Z</time>
</trkpt>
<trkpt lat="-28.0643657" lon="152.2280428">
<ele>494.846</ele>
<time>2016-01-16T04:31:13.721Z</time>
</trkpt>
<trkpt lat="-28.0640195" lon="152.2287777">
<ele>493.884</ele>
<time>2016-01-16T04:31:16.766Z</time>
</trkpt>
<trkpt lat="-28.0636865" lon="152.2295114">
<ele>494.824</ele>
<time>2016-01-16T04:31:19.755Z</time>
</trkpt>
<trkpt lat="-28.0635830" lon="152.2297536">
<ele>497.661</ele>
<time>2016-01-16T04:31:20.724Z</time>
</trkpt>
<trkpt lat="-28.0631298" lon="152.2307013">
<ele>501.408</ele>
<time>2016-01-16T04:31:24.573Z</time>
</trkpt>
<trkpt lat="-28.0629061" lon="152.2311622">
<ele>504.891</ele>
<time>2016-01-16T04:31:26.422Z</time>
</trkpt>
<trkpt lat="-28.0625650" lon="152.2318888">
<ele>507.770</ele>
<time>2016-01-16T04:31:29.286Z</time>
</trkpt>
<trkpt lat="-28.0623508" lon="152.2323801">
<ele>510.807</ele>
<time>2016-01-16T04:31:31.120Z</time>
</trkpt>
<trkpt lat="-28.0620447" lon="152.2331630">
<ele>514.543</ele>
<time>2016-01-16T04:31:33.862Z</time>
</trkpt>
<trkpt lat="-28.0617748" lon="152.2339457">
<ele>518.217</ele>
<time>2016-01-16T04:31:36.556Z</time>
</trkpt>
<trkpt lat="-28.0616219" lon="152.2344770">
<ele>520.796</ele>
<time>2016-01-16T04:31:38.466Z</time>
</trkpt>
<trkpt lat="-28.0614673" lon="152.2350835">
<ele>522.203</ele>
<time>2016-01-16T04:31:40.673Z</time>
</trkpt>
<trkpt lat="-28.0612277" lon="152.2359872">
<ele>522.678</ele>
<time>2016-01-16T04:31:43.965Z</time>
</trkpt>
<trkpt lat="-28.0610850" lon="152.2365552">
<ele>522.585</ele>
<time>2016-01-16T04:31:45.955Z</time>
</trkpt>
<trkpt lat="-28.0609005" lon="152.2373632">
<ele>521.614</ele>
<time>2016-01-16T04:31:48.818Z</time>
</trkpt>
<trkpt lat="-28.0607691" lon="152.2379026">
<ele>519.144</ele>
<time>2016-01-16T04:31:50.789Z</time>
</trkpt>
<trkpt lat="-28.0606088" lon="152.2384935">
<ele>516.010</ele>
<time>2016-01-16T04:31:53.013Z</time>
</trkpt>
<trkpt lat="-28.0604234" lon="152.2393691">
<ele>514.348</ele>
<time>2016-01-16T04:31:56.222Z</time>
</trkpt>
<trkpt lat="-28.0602394" lon="152.2401818">
<ele>514.927</ele>
<time>2016-01-16T04:31:59.222Z</time>
</trkpt>
<trkpt lat="-28.0601841" lon="152.2404545">
<ele>516.604</ele>
<time>2016-01-16T04:32:00.242Z</time>
</trkpt>
<trkpt lat="-28.0599796" lon="152.2415620">
<ele>518.046</ele>
<time>2016-01-16T04:32:04.469Z</time>
</trkpt>
<trkpt lat="-28.0598134" lon="152.2423802">
<ele>519.353</ele>
<time>2016-01-16T04:32:07.627Z</time>
</trkpt>
<trkpt lat="-28.0596522" lon="152.2431708">
<ele>521.429</ele>
<time>2016-01-16T04:32:10.622Z</time>
</trkpt>
<trkpt lat="-28.0595508" lon="152.2436869">
<ele>524.125</ele>
<time>2016-01-16T04:32:12.518Z</time>
</trkpt>
<trkpt lat="-28.0594568" lon="152.2444749">
<ele>526.261</ele>
<time>2016-01-16T04:32:15.332Z</time>
</trkpt>
<trkpt lat="-28.0594206" lon="152.2450040">
<ele>528.124</ele>
<time>2016-01-16T04:32:17.211Z</time>
</trkpt>
<trkpt lat="-28.0593878" lon="152.2458265">
<ele>530.616</ele>
<time>2016-01-16T04:32:20.120Z</time>
</trkpt>
<trkpt lat="-28.0593663" lon="152.2463902">
<ele>533.089</ele>
<time>2016-01-16T04:32:22.075Z</time>
</trkpt>
<trkpt lat="-28.0593397" lon="152.2472128">
<ele>534.733</ele>
<time>2016-01-16T04:32:24.900Z</time>
</trkpt>
<trkpt lat="-28.0592942" lon="152.2477711">
<ele>535.801</ele>
<time>2016-01-16T04:32:26.852Z</time>
</trkpt>
<trkpt lat="-28.0592184" lon="152.2483113">
<ele>536.396</ele>
<time>2016-01-16T04:32:28.782Z</time>
</trkpt>
<trkpt lat="-28.0590590" lon="152.2491721">
<ele>536.545</ele>
<time>2016-01-16T04:32:31.926Z</time>
</trkpt>
<trkpt lat="-28.0589447" lon="152.2497391">
<ele>536.446</ele>
<time>2016-01-16T04:32:33.957Z</time>
</trkpt>
<trkpt lat="-28.0587652" lon="152.2505553">
<ele>536.229</ele>
<time>2016-01-16T04:32:36.800Z</time>
</trkpt>
<trkpt lat="-28.0586457" lon="152.2510775">
<ele>535.855</ele>
<time>2016-01-16T04:32:38.634Z</time>
</trkpt>
<trkpt lat="-28.0584608" lon="152.2518968">
<ele>535.339</ele>
<time>2016-01-16T04:32:41.519Z</time>
</trkpt>
<trkpt lat="-28.0583314" lon="152.2524754">
<ele>535.208</ele>
<time>2016-01-16T04:32:43.553Z</time>
</trkpt>
<trkpt lat="-28.0582063" lon="152.2530458">
<ele>536.256</ele>
<time>2016-01-16T04:32:45.534Z</time>
</trkpt>
<trkpt lat="-28.0580205" lon="152.2538893">
<ele>538.175</ele>
<time>2016-01-16T04:32:48.458Z</time>
</trkpt>
<trkpt lat="-28.0578196" lon="152.2547231">
<ele>539.505</ele>
<time>2016-01-16T04:32:51.444Z</time>
</trkpt>
<trkpt lat="-28.0576387" lon="152.2555849">
<ele>539.192</ele>
<time>2016-01-16T04:32:54.648Z</time>
</trkpt>
<trkpt lat="-28.0575206" lon="152.2561753">
<ele>537.385</ele>
<time>2016-01-16T04:32:56.858Z</time>
</trkpt>
<trkpt lat="-28.0573328" lon="152.2569762">
<ele>535.011</ele>
<time>2016-01-16T04:32:59.863Z</time>
</trkpt>
<trkpt lat="-28.0572322" lon="152.2574942">
<ele>532.840</ele>
<time>2016-01-16T04:33:01.804Z</time>
</trkpt>
<trkpt lat="-28.0570640" lon="152.2582688">
<ele>530.925</ele>
<time>2016-01-16T04:33:04.773Z</time>
</trkpt>
<trkpt lat="-28.0569331" lon="152.2588038">
<ele>529.327</ele>
<time>2016-01-16T04:33:06.880Z</time>
</trkpt>
<trkpt lat="-28.0568216" lon="152.2593492">
<ele>528.607</ele>
<time>2016-01-16T04:33:09.055Z</time>
</trkpt>
<trkpt lat="-28.0566446" lon="152.2601251">
<ele>529.193</ele>
<time>2016-01-16T04:33:12.152Z</time>
</trkpt>
<trkpt lat="-28.0565301" lon="152.2606441">
<ele>530.859</ele>
<time>2016-01-16T04:33:14.147Z</time>
</trkpt>
<trkpt lat="-28.0564119" lon="152.2611420">
<ele>532.774</ele>
<time>2016-01-16T04:33:15.982Z</time>
</trkpt>
<trkpt lat="-28.0562884" lon="152.2616356">
<ele>534.436</ele>
<time>2016-01-16T04:33:17.732Z</time>
</trkpt>
<trkpt lat="-28.0560462" lon="152.2626338">
<ele>536.141</ele>
<time>2016-01-16T04:33:21.107Z</time>
</trkpt>
<trkpt lat="-28.0559279" lon="152.2631827">
<ele>538.569</ele>
<time>2016-01-16T04:33:22.901Z</time>
</trkpt>
<trkpt lat="-28.0558018" lon="152.2637476">
<ele>541.790</ele>
<time>2016-01-16T04:33:24.759Z</time>
</trkpt>
<trkpt lat="-28.0556352" lon="152.2646677">
<ele>544.765</ele>
<time>2016-01-16T04:33:28.012Z</time>
</trkpt>
<trkpt lat="-28.0555087" lon="152.2652996">
<ele>546.551</ele>
<time>2016-01-16T04:33:30.388Z</time>
</trkpt>
<trkpt lat="-28.0553439" lon="152.2662119">
<ele>547.177</ele>
<time>2016-01-16T04:33:33.689Z</time>
</trkpt>
<trkpt lat="-28.0552567" lon="152.2667442">
<ele>546.133</ele>
<time>2016-01-16T04:33:35.528Z</time>
</trkpt>
<trkpt lat="-28.0552129" lon="152.2672858">
<ele>542.431</ele>
<time>2016-01-16T04:33:37.414Z</time>
</trkpt>
<trkpt lat="-28.0551983" lon="152.2684257">
<ele>537.300</ele>
<time>2016-01-16T04:33:41.582Z</time>
</trkpt>
<trkpt lat="-28.0552661" lon="152.2693115">
<ele>533.566</ele>
<time>2016-01-16T04:33:44.935Z</time>
</trkpt>
<trkpt lat="-28.0553126" lon="152.2698649">
<ele>532.157</ele>
<time>2016-01-16T04:33:47.006Z</time>
</trkpt>
<trkpt lat="-28.0553729" lon="152.2706524">
<ele>531.903</ele>
<time>2016-01-16T04:33:49.937Z</time>
</trkpt>
<trkpt lat="-28.0554072" lon="152.2711691">
<ele>531.785</ele>
<time>2016-01-16T04:33:51.846Z</time>
</trkpt>
<trkpt lat="-28.0554367" lon="152.2716953">
<ele>532.178</ele>
<time>2016-01-16T04:33:53.756Z</time>
</trkpt>
<trkpt lat="-28.0554904" lon="152.2724909">
<ele>533.782</ele>
<time>2016-01-16T04:33:56.622Z</time>
</trkpt>
<trkpt lat="-28.0555207" lon="152.2730034">
<ele>536.048</ele>
<time>2016-01-16T04:33:58.451Z</time>
</trkpt>
<trkpt lat="-28.0555712" lon="152.2735440">
<ele>537.830</ele>
<time>2016-01-16T04:34:00.369Z</time>
</trkpt>
<trkpt lat="-28.0557040" lon="152.2743829">
<ele>538.677</ele>
<time>2016-01-16T04:34:03.383Z</time>
</trkpt>
<trkpt lat="-28.0558412" lon="152.2751963">
<ele>538.787</ele>
<time>2016-01-16T04:34:06.326Z</time>
</trkpt>
<trkpt lat="-28.0559848" lon="152.2760423">
<ele>538.193</ele>
<time>2016-01-16T04:34:09.323Z</time>
</trkpt>
<trkpt lat="-28.0561556" lon="152.2768498">
<ele>536.952</ele>
<time>2016-01-16T04:34:12.164Z</time>
</trkpt>
<trkpt lat="-28.0562844" lon="152.2776590">
<ele>535.841</ele>
<time>2016-01-16T04:34:15.043Z</time>
</trkpt>
<trkpt lat="-28.0563891" lon="152.2782342">
<ele>535.868</ele>
<time>2016-01-16T04:34:17.114Z</time>
</trkpt>
<trkpt lat="-28.0565024" lon="152.2788069">
<ele>537.429</ele>
<time>2016-01-16T04:34:19.166Z</time>
</trkpt>
<trkpt lat="-28.0566002" lon="152.2793538">
<ele>539.849</ele>
<time>2016-01-16T04:34:21.099Z</time>
</trkpt>
<trkpt lat="-28.0567149" lon="152.2799002">
<ele>541.924</ele>
<time>2016-01-16T04:34:22.965Z</time>
</trkpt>
<trkpt lat="-28.0568713" lon="152.2807388">
<ele>543.456</ele>
<time>2016-01-16T04:34:25.779Z</time>
</trkpt>
<trkpt lat="-28.0570009" lon="152.2815595">
<ele>545.183</ele>
<time>2016-01-16T04:34:28.646Z</time>
</trkpt>
<trkpt lat="-28.0571146" lon="152.2821619">
<ele>547.273</ele>
<time>2016-01-16T04:34:30.802Z</time>
</trkpt>
<trkpt lat="-28.0572770" lon="152.2830243">
<ele>549.112</ele>
<time>2016-01-16T04:34:33.845Z</time>
</trkpt>
<trkpt lat="-28.0573592" lon="152.2835414">
<ele>550.243</ele>
<time>2016-01-16T04:34:35.657Z</time>
</trkpt>
<trkpt lat="-28.0574625" lon="152.2840928">
<ele>550.207</ele>
<time>2016-01-16T04:34:37.612Z</time>
</trkpt>
<trkpt lat="-28.0575736" lon="152.2846541">
<ele>548.944</ele>
<time>2016-01-16T04:34:39.616Z</time>
</trkpt>
<trkpt lat="-28.0577257" lon="152.2855033">
<ele>547.837</ele>
<time>2016-01-16T04:34:42.657Z</time>
</trkpt>
<trkpt lat="-28.0578266" lon="152.2860657">
<ele>547.963</ele>
<time>2016-01-16T04:34:44.651Z</time>
</trkpt>
<trkpt lat="-28.0579361" lon="152.2866433">
<ele>548.658</ele>
<time>2016-01-16T04:34:46.667Z</time>
</trkpt>
<trkpt lat="-28.0580394" lon="152.2872035">
<ele>548.999</ele>
<time>2016-01-16T04:34:48.604Z</time>
</trkpt>
<trkpt lat="-28.0581697" lon="152.2880439">
<ele>548.889</ele>
<time>2016-01-16T04:34:51.490Z</time>
</trkpt>
<trkpt lat="-28.0582698" lon="152.2889325">
<ele>548.636</ele>
<time>2016-01-16T04:34:54.590Z</time>
</trkpt>
<trkpt lat="-28.0582689" lon="152.2895110">
<ele>548.693</ele>
<time>2016-01-16T04:34:56.689Z</time>
</trkpt>
<trkpt lat="-28.0581926" lon="152.2903890">
<ele>549.734</ele>
<time>2016-01-16T04:34:59.962Z</time>
</trkpt>
<trkpt lat="-28.0580931" lon="152.2911996">
<ele>552.361</ele>
<time>2016-01-16T04:35:02.989Z</time>
</trkpt>
<trkpt lat="-28.0580654" lon="152.2920014">
<ele>555.957</ele>
<time>2016-01-16T04:35:05.875Z</time>
</trkpt>
<trkpt lat="-28.0581371" lon="152.2927898">
<ele>558.870</ele>
<time>2016-01-16T04:35:08.600Z</time>
</trkpt>
<trkpt lat="-28.0582272" lon="152.2933265">
<ele>560.773</ele>
<time>2016-01-16T04:35:10.422Z</time>
</trkpt>
<trkpt lat="-28.0584503" lon="152.2941193">
<ele>562.929</ele>
<time>2016-01-16T04:35:13.207Z</time>
</trkpt>
<trkpt lat="-28.0586445" lon="152.2946547">
<ele>566.045</ele>
<time>2016-01-16T04:35:15.188Z</time>
</trkpt>
<trkpt lat="-28.0590458" lon="152.2954352">
<ele>569.852</ele>
<time>2016-01-16T04:35:18.352Z</time>
</trkpt>
<trkpt lat="-28.0594296" lon="152.2962131">
<ele>573.401</ele>
<time>2016-01-16T04:35:21.553Z</time>
</trkpt>
<trkpt lat="-28.0597266" lon="152.2969804">
<ele>574.774</ele>
<time>2016-01-16T04:35:24.690Z</time>
</trkpt>
<trkpt lat="-28.0599530" lon="152.2977738">
<ele>573.402</ele>
<time>2016-01-16T04:35:27.973Z</time>
</trkpt>
<trkpt lat="-28.0601635" lon="152.2985467">
<ele>572.006</ele>
<time>2016-01-16T04:35:31.197Z</time>
</trkpt>
<trkpt lat="-28.0603474" lon="152.2992726">
<ele>573.154</ele>
<time>2016-01-16T04:35:34.096Z</time>
</trkpt>
<trkpt lat="-28.0605263" lon="152.2999684">
<ele>576.036</ele>
<time>2016-01-16T04:35:36.770Z</time>
</trkpt>
<trkpt lat="-28.0606898" lon="152.3007097">
<ele>578.555</ele>
<time>2016-01-16T04:35:39.617Z</time>
</trkpt>
<trkpt lat="-28.0608307" lon="152.3012180">
<ele>580.003</ele>
<time>2016-01-16T04:35:41.632Z</time>
</trkpt>
<trkpt lat="-28.0609688" lon="152.3017498">
<ele>580.778</ele>
<time>2016-01-16T04:35:43.692Z</time>
</trkpt>
<trkpt lat="-28.0611480" lon="152.3025414">
<ele>581.342</ele>
<time>2016-01-16T04:35:46.532Z</time>
</trkpt>
<trkpt lat="-28.0612439" lon="152.3030459">
<ele>582.073</ele>
<time>2016-01-16T04:35:48.242Z</time>
</trkpt>
<trkpt lat="-28.0613072" lon="152.3035758">
<ele>583.064</ele>
<time>2016-01-16T04:35:49.888Z</time>
</trkpt>
<trkpt lat="-28.0613171" lon="152.3041365">
<ele>584.175</ele>
<time>2016-01-16T04:35:51.601Z</time>
</trkpt>
<trkpt lat="-28.0612346" lon="152.3050399">
<ele>585.293</ele>
<time>2016-01-16T04:35:54.421Z</time>
</trkpt>
<trkpt lat="-28.0610471" lon="152.3060183">
<ele>586.254</ele>
<time>2016-01-16T04:35:57.841Z</time>
</trkpt>
<trkpt lat="-28.0609164" lon="152.3066448">
<ele>587.506</ele>
<time>2016-01-16T04:36:00.084Z</time>
</trkpt>
<trkpt lat="-28.0608149" lon="152.3072002">
<ele>589.429</ele>
<time>2016-01-16T04:36:02.027Z</time>
</trkpt>
<trkpt lat="-28.0607355" lon="152.3077553">
<ele>591.314</ele>
<time>2016-01-16T04:36:03.857Z</time>
</trkpt>
<trkpt lat="-28.0607321" lon="152.3082928">
<ele>592.636</ele>
<time>2016-01-16T04:36:05.581Z</time>
</trkpt>
<trkpt lat="-28.0607582" lon="152.3091865">
<ele>593.510</ele>
<time>2016-01-16T04:36:08.556Z</time>
</trkpt>
<trkpt lat="-28.0607954" lon="152.3098440">
<ele>594.541</ele>
<time>2016-01-16T04:36:10.877Z</time>
</trkpt>
<trkpt lat="-28.0608007" lon="152.3104476">
<ele>596.179</ele>
<time>2016-01-16T04:36:13.069Z</time>
</trkpt>
<trkpt lat="-28.0607250" lon="152.3113059">
<ele>597.132</ele>
<time>2016-01-16T04:36:16.252Z</time>
</trkpt>
<trkpt lat="-28.0605567" lon="152.3121176">
<ele>596.088</ele>
<time>2016-01-16T04:36:19.266Z</time>
</trkpt>
<trkpt lat="-28.0603876" lon="152.3126095">
<ele>593.833</ele>
<time>2016-01-16T04:36:21.160Z</time>
</trkpt>
<trkpt lat="-28.0600575" lon="152.3133279">
<ele>591.789</ele>
<time>2016-01-16T04:36:24.083Z</time>
</trkpt>
<trkpt lat="-28.0598119" lon="152.3138153">
<ele>590.620</ele>
<time>2016-01-16T04:36:26.109Z</time>
</trkpt>
<trkpt lat="-28.0594583" lon="152.3145229">
<ele>590.745</ele>
<time>2016-01-16T04:36:29.074Z</time>
</trkpt>
<trkpt lat="-28.0592209" lon="152.3150025">
<ele>592.007</ele>
<time>2016-01-16T04:36:31.118Z</time>
</trkpt>
<trkpt lat="-28.0590282" lon="152.3154927">
<ele>593.267</ele>
<time>2016-01-16T04:36:33.149Z</time>
</trkpt>
<trkpt lat="-28.0588561" lon="152.3160264">
<ele>593.319</ele>
<time>2016-01-16T04:36:35.263Z</time>
</trkpt>
<trkpt lat="-28.0587059" lon="152.3167612">
<ele>592.040</ele>
<time>2016-01-16T04:36:38.067Z</time>
</trkpt>
<trkpt lat="-28.0586629" lon="152.3172719">
<ele>590.311</ele>
<time>2016-01-16T04:36:39.999Z</time>
</trkpt>
<trkpt lat="-28.0586496" lon="152.3178198">
<ele>589.600</ele>
<time>2016-01-16T04:36:42.146Z</time>
</trkpt>
<trkpt lat="-28.0586760" lon="152.3183681">
<ele>590.917</ele>
<time>2016-01-16T04:36:44.415Z</time>
</trkpt>
<trkpt lat="-28.0587829" lon="152.3191491">
<ele>593.535</ele>
<time>2016-01-16T04:36:47.888Z</time>
</trkpt>
<trkpt lat="-28.0588415" lon="152.3196327">
<ele>595.651</ele>
<time>2016-01-16T04:36:50.055Z</time>
</trkpt>
<trkpt lat="-28.0589136" lon="152.3200979">
<ele>595.954</ele>
<time>2016-01-16T04:36:52.136Z</time>
</trkpt>
<trkpt lat="-28.0589803" lon="152.3205269">
<ele>594.326</ele>
<time>2016-01-16T04:36:53.951Z</time>
</trkpt>
<trkpt lat="-28.0590769" lon="152.3211826">
<ele>591.890</ele>
<time>2016-01-16T04:36:56.559Z</time>
</trkpt>
<trkpt lat="-28.0591796" lon="152.3218515">
<ele>589.939</ele>
<time>2016-01-16T04:36:59.069Z</time>
</trkpt>
<trkpt lat="-28.0592749" lon="152.3225776">
<ele>588.954</ele>
<time>2016-01-16T04:37:01.734Z</time>
</trkpt>
<trkpt lat="-28.0593868" lon="152.3233945">
<ele>589.016</ele>
<time>2016-01-16T04:37:04.776Z</time>
</trkpt>
<trkpt lat="-28.0594407" lon="152.3239227">
<ele>590.521</ele>
<time>2016-01-16T04:37:06.755Z</time>
</trkpt>
<trkpt lat="-28.0595143" lon="152.3244733">
<ele>593.259</ele>
<time>2016-01-16T04:37:08.826Z</time>
</trkpt>
<trkpt lat="-28.0596405" lon="152.3252503">
<ele>595.714</ele>
<time>2016-01-16T04:37:11.626Z</time>
</trkpt>
<trkpt lat="-28.0598043" lon="152.3260222">
<ele>597.495</ele>
<time>2016-01-16T04:37:14.249Z</time>
</trkpt>
<trkpt lat="-28.0599592" lon="152.3265321">
<ele>600.161</ele>
<time>2016-01-16T04:37:15.959Z</time>
</trkpt>
<trkpt lat="-28.0602710" lon="152.3273653">
<ele>603.770</ele>
<time>2016-01-16T04:37:18.686Z</time>
</trkpt>
<trkpt lat="-28.0606136" lon="152.3282244">
<ele>606.603</ele>
<time>2016-01-16T04:37:21.643Z</time>
</trkpt>
<trkpt lat="-28.0609875" lon="152.3291644">
<ele>607.848</ele>
<time>2016-01-16T04:37:25.080Z</time>
</trkpt>
<trkpt lat="-28.0611840" lon="152.3297384">
<ele>607.965</ele>
<time>2016-01-16T04:37:27.153Z</time>
</trkpt>
<trkpt lat="-28.0615686" lon="152.3308563">
<ele>607.575</ele>
<time>2016-01-16T04:37:31.307Z</time>
</trkpt>
<trkpt lat="-28.0618000" lon="152.3316691">
<ele>606.297</ele>
<time>2016-01-16T04:37:34.399Z</time>
</trkpt>
<trkpt lat="-28.0619235" lon="152.3325296">
<ele>603.239</ele>
<time>2016-01-16T04:37:37.514Z</time>
</trkpt>
<trkpt lat="-28.0619454" lon="152.3333117">
<ele>599.367</ele>
<time>2016-01-16T04:37:40.079Z</time>
</trkpt>
<trkpt lat="-28.0618764" lon="152.3341542">
<ele>597.288</ele>
<time>2016-01-16T04:37:42.564Z</time>
</trkpt>
<trkpt lat="-28.0618387" lon="152.3350983">
<ele>598.189</ele>
<time>2016-01-16T04:37:45.175Z</time>
</trkpt>
<trkpt lat="-28.0617726" lon="152.3361304">
<ele>601.981</ele>
<time>2016-01-16T04:37:47.888Z</time>
</trkpt>
<trkpt lat="-28.0617399" lon="152.3368669">
<ele>608.737</ele>
<time>2016-01-16T04:37:49.819Z</time>
</trkpt>
<trkpt lat="-28.0616899" lon="152.3380139">
<ele>618.119</ele>
<time>2016-01-16T04:37:53.050Z</time>
</trkpt>
<trkpt lat="-28.0617161" lon="152.3387504">
<ele>628.369</ele>
<time>2016-01-16T04:37:55.252Z</time>
</trkpt>
<trkpt lat="-28.0618121" lon="152.3397542">
<ele>636.638</ele>
<time>2016-01-16T04:37:58.264Z</time>
</trkpt>
<trkpt lat="-28.0618970" lon="152.3404177">
<ele>639.234</ele>
<time>2016-01-16T04:38:00.331Z</time>
</trkpt>
<trkpt lat="-28.0620304" lon="152.3414141">
<ele>635.803</ele>
<time>2016-01-16T04:38:03.693Z</time>
</trkpt>
<trkpt lat="-28.0621069" lon="152.3420189">
<ele>630.441</ele>
<time>2016-01-16T04:38:05.845Z</time>
</trkpt>
<trkpt lat="-28.0621424" lon="152.3425861">
<ele>625.952</ele>
<time>2016-01-16T04:38:07.879Z</time>
</trkpt>
<trkpt lat="-28.0621569" lon="152.3431816">
<ele>621.817</ele>
<time>2016-01-16T04:38:10.033Z</time>
</trkpt>
<trkpt lat="-28.0620470" lon="152.3439638">
<ele>618.159</ele>
<time>2016-01-16T04:38:12.884Z</time>
</trkpt>
<trkpt lat="-28.0619651" lon="152.3445162">
<ele>616.003</ele>
<time>2016-01-16T04:38:14.890Z</time>
</trkpt>
<trkpt lat="-28.0619447" lon="152.3453394">
<ele>616.139</ele>
<time>2016-01-16T04:38:17.906Z</time>
</trkpt>
<trkpt lat="-28.0619667" lon="152.3461751">
<ele>618.757</ele>
<time>2016-01-16T04:38:21.105Z</time>
</trkpt>
<trkpt lat="-28.0620063" lon="152.3469671">
<ele>622.657</ele>
<time>2016-01-16T04:38:24.120Z</time>
</trkpt>
<trkpt lat="-28.0620148" lon="152.3477159">
<ele>625.842</ele>
<time>2016-01-16T04:38:26.808Z</time>
</trkpt>
<trkpt lat="-28.0620467" lon="152.3485194">
<ele>627.655</ele>
<time>2016-01-16T04:38:29.613Z</time>
</trkpt>
<trkpt lat="-28.0621943" lon="152.3490928">
<ele>628.525</ele>
<time>2016-01-16T04:38:31.710Z</time>
</trkpt>
<trkpt lat="-28.0623717" lon="152.3496157">
<ele>628.801</ele>
<time>2016-01-16T04:38:33.713Z</time>
</trkpt>
<trkpt lat="-28.0625506" lon="152.3501621">
<ele>628.647</ele>
<time>2016-01-16T04:38:35.777Z</time>
</trkpt>
<trkpt lat="-28.0628984" lon="152.3511654">
<ele>628.717</ele>
<time>2016-01-16T04:38:39.544Z</time>
</trkpt>
<trkpt lat="-28.0632138" lon="152.3519680">
<ele>629.577</ele>
<time>2016-01-16T04:38:42.632Z</time>
</trkpt>
<trkpt lat="-28.0633827" lon="152.3525214">
<ele>631.644</ele>
<time>2016-01-16T04:38:44.720Z</time>
</trkpt>
<trkpt lat="-28.0636431" lon="152.3533496">
<ele>634.914</ele>
<time>2016-01-16T04:38:48.061Z</time>
</trkpt>
<trkpt lat="-28.0639087" lon="152.3541139">
<ele>639.008</ele>
<time>2016-01-16T04:38:51.338Z</time>
</trkpt>
<trkpt lat="-28.0640611" lon="152.3545632">
<ele>643.072</ele>
<time>2016-01-16T04:38:53.199Z</time>
</trkpt>
<trkpt lat="-28.0642565" lon="152.3552676">
<ele>645.825</ele>
<time>2016-01-16T04:38:55.910Z</time>
</trkpt>
<trkpt lat="-28.0643021" lon="152.3555167">
<ele>646.589</ele>
<time>2016-01-16T04:38:56.801Z</time>
</trkpt>
<trkpt lat="-28.0643219" lon="152.3566081">
<ele>646.336</ele>
<time>2016-01-16T04:39:00.488Z</time>
</trkpt>
<trkpt lat="-28.0642261" lon="152.3571651">
<ele>646.692</ele>
<time>2016-01-16T04:39:02.340Z</time>
</trkpt>
<trkpt lat="-28.0639492" lon="152.3580088">
<ele>648.359</ele>
<time>2016-01-16T04:39:05.376Z</time>
</trkpt>
<trkpt lat="-28.0637097" lon="152.3585671">
<ele>650.208</ele>
<time>2016-01-16T04:39:07.590Z</time>
</trkpt>
<trkpt lat="-28.0634920" lon="152.3591047">
<ele>650.848</ele>
<time>2016-01-16T04:39:09.797Z</time>
</trkpt>
<trkpt lat="-28.0631647" lon="152.3598237">
<ele>650.168</ele>
<time>2016-01-16T04:39:12.785Z</time>
</trkpt>
<trkpt lat="-28.0628468" lon="152.3605361">
<ele>648.722</ele>
<time>2016-01-16T04:39:15.633Z</time>
</trkpt>
<trkpt lat="-28.0625548" lon="152.3612715">
<ele>647.244</ele>
<time>2016-01-16T04:39:18.475Z</time>
</trkpt>
<trkpt lat="-28.0624037" lon="152.3618141">
<ele>646.445</ele>
<time>2016-01-16T04:39:20.523Z</time>
</trkpt>
<trkpt lat="-28.0623003" lon="152.3623702">
<ele>646.541</ele>
<time>2016-01-16T04:39:22.665Z</time>
</trkpt>
<trkpt lat="-28.0622231" lon="152.3632032">
<ele>646.978</ele>
<time>2016-01-16T04:39:26.077Z</time>
</trkpt>
<trkpt lat="-28.0621831" lon="152.3639592">
<ele>646.892</ele>
<time>2016-01-16T04:39:29.202Z</time>
</trkpt>
<trkpt lat="-28.0621735" lon="152.3644238">
<ele>645.220</ele>
<time>2016-01-16T04:39:31.157Z</time>
</trkpt>
<trkpt lat="-28.0621429" lon="152.3649106">
<ele>642.047</ele>
<time>2016-01-16T04:39:33.265Z</time>
</trkpt>
<trkpt lat="-28.0620773" lon="152.3654115">
<ele>639.153</ele>
<time>2016-01-16T04:39:35.475Z</time>
</trkpt>
<trkpt lat="-28.0619097" lon="152.3660551">
<ele>637.780</ele>
<time>2016-01-16T04:39:38.244Z</time>
</trkpt>
<trkpt lat="-28.0617973" lon="152.3665099">
<ele>637.127</ele>
<time>2016-01-16T04:39:40.093Z</time>
</trkpt>
<trkpt lat="-28.0616160" lon="152.3669139">
<ele>636.204</ele>
<time>2016-01-16T04:39:41.818Z</time>
</trkpt>
<trkpt lat="-28.0614140" lon="152.3675991">
<ele>635.775</ele>
<time>2016-01-16T04:39:44.563Z</time>
</trkpt>
<trkpt lat="-28.0612648" lon="152.3683908">
<ele>637.507</ele>
<time>2016-01-16T04:39:47.814Z</time>
</trkpt>
<trkpt lat="-28.0612021" lon="152.3688993">
<ele>641.122</ele>
<time>2016-01-16T04:39:49.970Z</time>
</trkpt>
<trkpt lat="-28.0610800" lon="152.3696165">
<ele>644.438</ele>
<time>2016-01-16T04:39:53.160Z</time>
</trkpt>
<trkpt lat="-28.0608704" lon="152.3702776">
<ele>645.427</ele>
<time>2016-01-16T04:39:56.330Z</time>
</trkpt>
<trkpt lat="-28.0607014" lon="152.3706777">
<ele>644.074</ele>
<time>2016-01-16T04:39:58.286Z</time>
</trkpt>
<trkpt lat="-28.0603527" lon="152.3711668">
<ele>642.450</ele>
<time>2016-01-16T04:40:01.021Z</time>
</trkpt>
<trkpt lat="-28.0600792" lon="152.3715086">
<ele>642.437</ele>
<time>2016-01-16T04:40:03.039Z</time>
</trkpt>
<trkpt lat="-28.0597955" lon="152.3718490">
<ele>643.968</ele>
<time>2016-01-16T04:40:05.098Z</time>
</trkpt>
<trkpt lat="-28.0594560" lon="152.3724293">
<ele>646.546</ele>
<time>2016-01-16T04:40:08.141Z</time>
</trkpt>
<trkpt lat="-28.0591714" lon="152.3730279">
<ele>649.510</ele>
<time>2016-01-16T04:40:11.245Z</time>
</trkpt>
<trkpt lat="-28.0589087" lon="152.3736823">
<ele>651.394</ele>
<time>2016-01-16T04:40:14.741Z</time>
</trkpt>
<trkpt lat="-28.0587336" lon="152.3740338">
<ele>651.181</ele>
<time>2016-01-16T04:40:16.697Z</time>
</trkpt>
<trkpt lat="-28.0586081" lon="152.3743833">
<ele>649.631</ele>
<time>2016-01-16T04:40:18.540Z</time>
</trkpt>
<trkpt lat="-28.0583905" lon="152.3749400">
<ele>648.249</ele>
<time>2016-01-16T04:40:21.571Z</time>
</trkpt>
<trkpt lat="-28.0582341" lon="152.3753344">
<ele>648.047</ele>
<time>2016-01-16T04:40:23.749Z</time>
</trkpt>
<trkpt lat="-28.0580337" lon="152.3758980">
<ele>648.907</ele>
<time>2016-01-16T04:40:26.730Z</time>
</trkpt>
<trkpt lat="-28.0578816" lon="152.3762389">
<ele>650.012</ele>
<time>2016-01-16T04:40:28.541Z</time>
</trkpt>
<trkpt lat="-28.0575730" lon="152.3767230">
<ele>650.772</ele>
<time>2016-01-16T04:40:31.272Z</time>
</trkpt>
<trkpt lat="-28.0571803" lon="152.3771692">
<ele>651.415</ele>
<time>2016-01-16T04:40:34.205Z</time>
</trkpt>
<trkpt lat="-28.0567619" lon="152.3776691">
<ele>652.762</ele>
<time>2016-01-16T04:40:37.788Z</time>
</trkpt>
<trkpt lat="-28.0563853" lon="152.3781076">
<ele>655.498</ele>
<time>2016-01-16T04:40:41.013Z</time>
</trkpt>
<trkpt lat="-28.0561632" lon="152.3783784">
<ele>658.854</ele>
<time>2016-01-16T04:40:42.893Z</time>
</trkpt>
<trkpt lat="-28.0558221" lon="152.3787568">
<ele>661.126</ele>
<time>2016-01-16T04:40:45.578Z</time>
</trkpt>
<trkpt lat="-28.0554577" lon="152.3791832">
<ele>661.711</ele>
<time>2016-01-16T04:40:48.529Z</time>
</trkpt>
<trkpt lat="-28.0551890" lon="152.3794599">
<ele>661.846</ele>
<time>2016-01-16T04:40:50.564Z</time>
</trkpt>
<trkpt lat="-28.0547212" lon="152.3797191">
<ele>662.665</ele>
<time>2016-01-16T04:40:53.504Z</time>
</trkpt>
<trkpt lat="-28.0542550" lon="152.3800429">
<ele>664.153</ele>
<time>2016-01-16T04:40:56.738Z</time>
</trkpt>
<trkpt lat="-28.0539258" lon="152.3802027">
<ele>666.105</ele>
<time>2016-01-16T04:40:58.858Z</time>
</trkpt>
<trkpt lat="-28.0536351" lon="152.3803687">
<ele>668.519</ele>
<time>2016-01-16T04:41:00.766Z</time>
</trkpt>
<trkpt lat="-28.0531705" lon="152.3805700">
<ele>670.968</ele>
<time>2016-01-16T04:41:03.673Z</time>
</trkpt>
<trkpt lat="-28.0528733" lon="152.3807442">
<ele>673.437</ele>
<time>2016-01-16T04:41:05.623Z</time>
</trkpt>
<trkpt lat="-28.0526403" lon="152.3810282">
<ele>676.146</ele>
<time>2016-01-16T04:41:07.619Z</time>
</trkpt>
<trkpt lat="-28.0524202" lon="152.3813499">
<ele>678.500</ele>
<time>2016-01-16T04:41:09.720Z</time>
</trkpt>
<trkpt lat="-28.0521760" lon="152.3816239">
<ele>679.778</ele>
<time>2016-01-16T04:41:11.763Z</time>
</trkpt>
<trkpt lat="-28.0519175" lon="152.3818865">
<ele>680.149</ele>
<time>2016-01-16T04:41:13.844Z</time>
</trkpt>
<trkpt lat="-28.0515835" lon="152.3823258">
<ele>680.086</ele>
<time>2016-01-16T04:41:16.927Z</time>
</trkpt>
<trkpt lat="-28.0511328" lon="152.3825755">
<ele>680.037</ele>
<time>2016-01-16T04:41:19.910Z</time>
</trkpt>
<trkpt lat="-28.0507239" lon="152.3828697">
<ele>680.410</ele>
<time>2016-01-16T04:41:22.801Z</time>
</trkpt>
<trkpt lat="-28.0504618" lon="152.3831022">
<ele>681.517</ele>
<time>2016-01-16T04:41:24.818Z</time>
</trkpt>
<trkpt lat="-28.0500688" lon="152.3834595">
<ele>683.336</ele>
<time>2016-01-16T04:41:27.879Z</time>
</trkpt>
<trkpt lat="-28.0498709" lon="152.3837710">
<ele>685.460</ele>
<time>2016-01-16T04:41:29.936Z</time>
</trkpt>
<trkpt lat="-28.0496072" lon="152.3839837">
<ele>687.442</ele>
<time>2016-01-16T04:41:31.907Z</time>
</trkpt>
<trkpt lat="-28.0495503" lon="152.3846103">
<ele>689.263</ele>
<time>2016-01-16T04:41:35.329Z</time>
</trkpt>
<trkpt lat="-28.0494620" lon="152.3851041">
<ele>691.121</ele>
<time>2016-01-16T04:41:38.191Z</time>
</trkpt>
<trkpt lat="-28.0495540" lon="152.3856738">
<ele>693.000</ele>
<time>2016-01-16T04:41:41.505Z</time>
</trkpt>
<trkpt lat="-28.0496397" lon="152.3859891">
<ele>694.753</ele>
<time>2016-01-16T04:41:43.343Z</time>
</trkpt>
<trkpt lat="-28.0497063" lon="152.3865046">
<ele>696.167</ele>
<time>2016-01-16T04:41:46.162Z</time>
</trkpt>
<trkpt lat="-28.0497008" lon="152.3868729">
<ele>697.279</ele>
<time>2016-01-16T04:41:48.123Z</time>
</trkpt>
<trkpt lat="-28.0495844" lon="152.3874113">
<ele>698.646</ele>
<time>2016-01-16T04:41:51.065Z</time>
</trkpt>
<trkpt lat="-28.0493813" lon="152.3879381">
<ele>700.612</ele>
<time>2016-01-16T04:41:54.152Z</time>
</trkpt>
<trkpt lat="-28.0492030" lon="152.3882560">
<ele>703.136</ele>
<time>2016-01-16T04:41:56.257Z</time>
</trkpt>
<trkpt lat="-28.0490468" lon="152.3885878">
<ele>706.040</ele>
<time>2016-01-16T04:41:58.554Z</time>
</trkpt>
<trkpt lat="-28.0489222" lon="152.3889458">
<ele>708.780</ele>
<time>2016-01-16T04:42:00.975Z</time>
</trkpt>
<trkpt lat="-28.0488525" lon="152.3894418">
<ele>710.764</ele>
<time>2016-01-16T04:42:04.061Z</time>
</trkpt>
<trkpt lat="-28.0488333" lon="152.3897335">
<ele>711.831</ele>
<time>2016-01-16T04:42:05.810Z</time>
</trkpt>
<trkpt lat="-28.0489016" lon="152.3900452">
<ele>712.220</ele>
<time>2016-01-16T04:42:07.675Z</time>
</trkpt>
<trkpt lat="-28.0489868" lon="152.3904824">
<ele>712.528</ele>
<time>2016-01-16T04:42:10.249Z</time>
</trkpt>
<trkpt lat="-28.0491558" lon="152.3909786">
<ele>713.306</ele>
<time>2016-01-16T04:42:13.322Z</time>
</trkpt>
<trkpt lat="-28.0492855" lon="152.3914626">
<ele>714.568</ele>
<time>2016-01-16T04:42:16.400Z</time>
</trkpt>
<trkpt lat="-28.0494560" lon="152.3917424">
<ele>716.081</ele>
<time>2016-01-16T04:42:18.568Z</time>
</trkpt>
<trkpt lat="-28.0495513" lon="152.3920595">
<ele>717.740</ele>
<time>2016-01-16T04:42:20.813Z</time>
</trkpt>
<trkpt lat="-28.0496213" lon="152.3923954">
<ele>719.384</ele>
<time>2016-01-16T04:42:23.304Z</time>
</trkpt>
<trkpt lat="-28.0496863" lon="152.3928206">
<ele>720.873</ele>
<time>2016-01-16T04:42:26.840Z</time>
</trkpt>
<trkpt lat="-28.0497203" lon="152.3932470">
<ele>722.184</ele>
<time>2016-01-16T04:42:31.000Z</time>
</trkpt>
<trkpt lat="-28.0497422" lon="152.3935006">
<ele>723.254</ele>
<time>2016-01-16T04:42:33.677Z</time>
</trkpt>
<trkpt lat="-28.0497246" lon="152.3937349">
<ele>723.971</ele>
<time>2016-01-16T04:42:36.097Z</time>
</trkpt>
<trkpt lat="-28.0497328" lon="152.3939359">
<ele>724.293</ele>
<time>2016-01-16T04:42:37.991Z</time>
</trkpt>
<trkpt lat="-28.0497072" lon="152.3942125">
<ele>724.434</ele>
<time>2016-01-16T04:42:40.481Z</time>
</trkpt>
<trkpt lat="-28.0498183" lon="152.3944457">
<ele>724.641</ele>
<time>2016-01-16T04:42:42.810Z</time>
</trkpt>
<trkpt lat="-28.0499340" lon="152.3947047">
<ele>724.684</ele>
<time>2016-01-16T04:42:45.210Z</time>
</trkpt>
<trkpt lat="-28.0500746" lon="152.3948896">
<ele>724.043</ele>
<time>2016-01-16T04:42:47.097Z</time>
</trkpt>
<trkpt lat="-28.0503189" lon="152.3951009">
<ele>722.689</ele>
<time>2016-01-16T04:42:49.643Z</time>
</trkpt>
<trkpt lat="-28.0505444" lon="152.3951543">
<ele>720.949</ele>
<time>2016-01-16T04:42:51.482Z</time>
</trkpt>
<trkpt lat="-28.0509622" lon="152.3950750">
<ele>718.945</ele>
<time>2016-01-16T04:42:54.856Z</time>
</trkpt>
<trkpt lat="-28.0513561" lon="152.3951389">
<ele>716.289</ele>
<time>2016-01-16T04:42:57.935Z</time>
</trkpt>
<trkpt lat="-28.0515982" lon="152.3952212">
<ele>712.934</ele>
<time>2016-01-16T04:42:59.869Z</time>
</trkpt>
<trkpt lat="-28.0517161" lon="152.3952782">
<ele>709.571</ele>
<time>2016-01-16T04:43:00.849Z</time>
</trkpt>
<trkpt lat="-28.0521768" lon="152.3955509">
<ele>706.874</ele>
<time>2016-01-16T04:43:04.818Z</time>
</trkpt>
<trkpt lat="-28.0525186" lon="152.3957574">
<ele>704.597</ele>
<time>2016-01-16T04:43:07.750Z</time>
</trkpt>
<trkpt lat="-28.0527280" lon="152.3959394">
<ele>702.243</ele>
<time>2016-01-16T04:43:09.914Z</time>
</trkpt>
<trkpt lat="-28.0529603" lon="152.3963154">
<ele>699.709</ele>
<time>2016-01-16T04:43:13.514Z</time>
</trkpt>
<trkpt lat="-28.0530882" lon="152.3966058">
<ele>697.307</ele>
<time>2016-01-16T04:43:15.969Z</time>
</trkpt>
<trkpt lat="-28.0532094" lon="152.3968735">
<ele>695.232</ele>
<time>2016-01-16T04:43:18.126Z</time>
</trkpt>
<trkpt lat="-28.0533546" lon="152.3971921">
<ele>693.525</ele>
<time>2016-01-16T04:43:20.623Z</time>
</trkpt>
<trkpt lat="-28.0534684" lon="152.3973931">
<ele>691.803</ele>
<time>2016-01-16T04:43:22.278Z</time>
</trkpt>
<trkpt lat="-28.0535688" lon="152.3976731">
<ele>689.841</ele>
<time>2016-01-16T04:43:24.389Z</time>
</trkpt>
<trkpt lat="-28.0537577" lon="152.3980583">
<ele>688.033</ele>
<time>2016-01-16T04:43:27.576Z</time>
</trkpt>
<trkpt lat="-28.0538930" lon="152.3982914">
<ele>686.608</ele>
<time>2016-01-16T04:43:29.707Z</time>
</trkpt>
<trkpt lat="-28.0540758" lon="152.3986705">
<ele>685.144</ele>
<time>2016-01-16T04:43:33.222Z</time>
</trkpt>
<trkpt lat="-28.0542677" lon="152.3990071">
<ele>683.344</ele>
<time>2016-01-16T04:43:36.550Z</time>
</trkpt>
<trkpt lat="-28.0544735" lon="152.3993314">
<ele>681.168</ele>
<time>2016-01-16T04:43:39.600Z</time>
</trkpt>
<trkpt lat="-28.0546556" lon="152.3996569">
<ele>678.569</ele>
<time>2016-01-16T04:43:42.173Z</time>
</trkpt>
<trkpt lat="-28.0547648" lon="152.3998796">
<ele>675.724</ele>
<time>2016-01-16T04:43:43.808Z</time>
</trkpt>
<trkpt lat="-28.0549947" lon="152.4002868">
<ele>672.965</ele>
<time>2016-01-16T04:43:46.831Z</time>
</trkpt>
<trkpt lat="-28.0551204" lon="152.4005296">
<ele>670.510</ele>
<time>2016-01-16T04:43:48.688Z</time>
</trkpt>
<trkpt lat="-28.0552707" lon="152.4009783">
<ele>668.656</ele>
<time>2016-01-16T04:43:52.100Z</time>
</trkpt>
<trkpt lat="-28.0553377" lon="152.4013017">
<ele>667.400</ele>
<time>2016-01-16T04:43:54.587Z</time>
</trkpt>
<trkpt lat="-28.0554029" lon="152.4016073">
<ele>666.396</ele>
<time>2016-01-16T04:43:56.968Z</time>
</trkpt>
<trkpt lat="-28.0554843" lon="152.4018602">
<ele>665.278</ele>
<time>2016-01-16T04:43:59.013Z</time>
</trkpt>
<trkpt lat="-28.0555579" lon="152.4021206">
<ele>663.788</ele>
<time>2016-01-16T04:44:01.017Z</time>
</trkpt>
<trkpt lat="-28.0557949" lon="152.4026068">
<ele>661.929</ele>
<time>2016-01-16T04:44:04.893Z</time>
</trkpt>
<trkpt lat="-28.0559282" lon="152.4028102">
<ele>659.650</ele>
<time>2016-01-16T04:44:06.631Z</time>
</trkpt>
<trkpt lat="-28.0561293" lon="152.4029592">
<ele>656.933</ele>
<time>2016-01-16T04:44:08.503Z</time>
</trkpt>
<trkpt lat="-28.0563488" lon="152.4031329">
<ele>654.419</ele>
<time>2016-01-16T04:44:10.598Z</time>
</trkpt>
<trkpt lat="-28.0566754" lon="152.4033060">
<ele>652.621</ele>
<time>2016-01-16T04:44:13.480Z</time>
</trkpt>
<trkpt lat="-28.0569014" lon="152.4034072">
<ele>651.411</ele>
<time>2016-01-16T04:44:15.498Z</time>
</trkpt>
<trkpt lat="-28.0572932" lon="152.4034404">
<ele>650.302</ele>
<time>2016-01-16T04:44:18.789Z</time>
</trkpt>
<trkpt lat="-28.0576945" lon="152.4034701">
<ele>648.429</ele>
<time>2016-01-16T04:44:21.864Z</time>
</trkpt>
<trkpt lat="-28.0579193" lon="152.4035033">
<ele>645.497</ele>
<time>2016-01-16T04:44:23.381Z</time>
</trkpt>
<trkpt lat="-28.0582736" lon="152.4035238">
<ele>642.351</ele>
<time>2016-01-16T04:44:25.697Z</time>
</trkpt>
<trkpt lat="-28.0586882" lon="152.4035080">
<ele>639.708</ele>
<time>2016-01-16T04:44:28.424Z</time>
</trkpt>
<trkpt lat="-28.0589903" lon="152.4035622">
<ele>637.702</ele>
<time>2016-01-16T04:44:30.365Z</time>
</trkpt>
<trkpt lat="-28.0592790" lon="152.4037432">
<ele>636.347</ele>
<time>2016-01-16T04:44:32.374Z</time>
</trkpt>
<trkpt lat="-28.0594901" lon="152.4040244">
<ele>635.074</ele>
<time>2016-01-16T04:44:34.146Z</time>
</trkpt>
<trkpt lat="-28.0596649" lon="152.4044934">
<ele>633.091</ele>
<time>2016-01-16T04:44:36.472Z</time>
</trkpt>
<trkpt lat="-28.0595397" lon="152.4051242">
<ele>630.546</ele>
<time>2016-01-16T04:44:39.637Z</time>
</trkpt>
<trkpt lat="-28.0592710" lon="152.4055677">
<ele>628.109</ele>
<time>2016-01-16T04:44:42.520Z</time>
</trkpt>
<trkpt lat="-28.0590571" lon="152.4058832">
<ele>626.085</ele>
<time>2016-01-16T04:44:44.646Z</time>
</trkpt>
<trkpt lat="-28.0589786" lon="152.4062860">
<ele>623.781</ele>
<time>2016-01-16T04:44:46.742Z</time>
</trkpt>
<trkpt lat="-28.0591387" lon="152.4069634">
<ele>620.271</ele>
<time>2016-01-16T04:44:50.215Z</time>
</trkpt>
<trkpt lat="-28.0593944" lon="152.4072562">
<ele>616.128</ele>
<time>2016-01-16T04:44:52.244Z</time>
</trkpt>
<trkpt lat="-28.0596100" lon="152.4075895">
<ele>612.736</ele>
<time>2016-01-16T04:44:54.260Z</time>
</trkpt>
<trkpt lat="-28.0597509" lon="152.4079813">
<ele>610.130</ele>
<time>2016-01-16T04:44:56.338Z</time>
</trkpt>
<trkpt lat="-28.0597309" lon="152.4085635">
<ele>607.461</ele>
<time>2016-01-16T04:44:59.291Z</time>
</trkpt>
<trkpt lat="-28.0595885" lon="152.4089260">
<ele>604.640</ele>
<time>2016-01-16T04:45:01.376Z</time>
</trkpt>
<trkpt lat="-28.0594020" lon="152.4092982">
<ele>602.174</ele>
<time>2016-01-16T04:45:03.690Z</time>
</trkpt>
<trkpt lat="-28.0591327" lon="152.4097758">
<ele>599.724</ele>
<time>2016-01-16T04:45:06.697Z</time>
</trkpt>
<trkpt lat="-28.0590087" lon="152.4101202">
<ele>596.471</ele>
<time>2016-01-16T04:45:08.634Z</time>
</trkpt>
<trkpt lat="-28.0590661" lon="152.4108060">
<ele>592.967</ele>
<time>2016-01-16T04:45:12.229Z</time>
</trkpt>
<trkpt lat="-28.0592971" lon="152.4110907">
<ele>589.685</ele>
<time>2016-01-16T04:45:14.342Z</time>
</trkpt>
<trkpt lat="-28.0597537" lon="152.4113562">
<ele>586.433</ele>
<time>2016-01-16T04:45:17.678Z</time>
</trkpt>
<trkpt lat="-28.0602633" lon="152.4113001">
<ele>583.247</ele>
<time>2016-01-16T04:45:20.870Z</time>
</trkpt>
<trkpt lat="-28.0605523" lon="152.4113887">
<ele>580.020</ele>
<time>2016-01-16T04:45:22.583Z</time>
</trkpt>
<trkpt lat="-28.0608590" lon="152.4117643">
<ele>576.500</ele>
<time>2016-01-16T04:45:24.913Z</time>
</trkpt>
<trkpt lat="-28.0609199" lon="152.4121077">
<ele>572.982</ele>
<time>2016-01-16T04:45:26.463Z</time>
</trkpt>
<trkpt lat="-28.0606933" lon="152.4126475">
<ele>569.875</ele>
<time>2016-01-16T04:45:29.138Z</time>
</trkpt>
<trkpt lat="-28.0604290" lon="152.4129757">
<ele>567.830</ele>
<time>2016-01-16T04:45:31.125Z</time>
</trkpt>
<trkpt lat="-28.0600364" lon="152.4134969">
<ele>567.033</ele>
<time>2016-01-16T04:45:34.191Z</time>
</trkpt>
<trkpt lat="-28.0597835" lon="152.4138100">
<ele>566.216</ele>
<time>2016-01-16T04:45:36.158Z</time>
</trkpt>
<trkpt lat="-28.0595805" lon="152.4144751">
<ele>564.180</ele>
<time>2016-01-16T04:45:39.607Z</time>
</trkpt>
<trkpt lat="-28.0594212" lon="152.4148629">
<ele>561.171</ele>
<time>2016-01-16T04:45:41.691Z</time>
</trkpt>
<trkpt lat="-28.0592801" lon="152.4152288">
<ele>557.688</ele>
<time>2016-01-16T04:45:43.552Z</time>
</trkpt>
<trkpt lat="-28.0592298" lon="152.4156325">
<ele>553.679</ele>
<time>2016-01-16T04:45:45.330Z</time>
</trkpt>
<trkpt lat="-28.0592946" lon="152.4161824">
<ele>549.234</ele>
<time>2016-01-16T04:45:47.672Z</time>
</trkpt>
<trkpt lat="-28.0597041" lon="152.4166803">
<ele>545.110</ele>
<time>2016-01-16T04:45:50.623Z</time>
</trkpt>
<trkpt lat="-28.0600092" lon="152.4170164">
<ele>542.350</ele>
<time>2016-01-16T04:45:52.825Z</time>
</trkpt>
<trkpt lat="-28.0603050" lon="152.4173384">
<ele>540.666</ele>
<time>2016-01-16T04:45:54.991Z</time>
</trkpt>
<trkpt lat="-28.0605658" lon="152.4176743">
<ele>538.805</ele>
<time>2016-01-16T04:45:56.963Z</time>
</trkpt>
<trkpt lat="-28.0606870" lon="152.4182311">
<ele>535.745</ele>
<time>2016-01-16T04:45:59.458Z</time>
</trkpt>
<trkpt lat="-28.0606389" lon="152.4186616">
<ele>531.216</ele>
<time>2016-01-16T04:46:01.341Z</time>
</trkpt>
<trkpt lat="-28.0602775" lon="152.4192617">
<ele>526.373</ele>
<time>2016-01-16T04:46:04.470Z</time>
</trkpt>
<trkpt lat="-28.0599192" lon="152.4195169">
<ele>522.717</ele>
<time>2016-01-16T04:46:06.437Z</time>
</trkpt>
<trkpt lat="-28.0594497" lon="152.4199199">
<ele>520.174</ele>
<time>2016-01-16T04:46:09.109Z</time>
</trkpt>
<trkpt lat="-28.0592324" lon="152.4203707">
<ele>517.943</ele>
<time>2016-01-16T04:46:11.142Z</time>
</trkpt>
<trkpt lat="-28.0589974" lon="152.4210903">
<ele>515.777</ele>
<time>2016-01-16T04:46:14.227Z</time>
</trkpt>
<trkpt lat="-28.0588540" lon="152.4215583">
<ele>513.164</ele>
<time>2016-01-16T04:46:16.196Z</time>
</trkpt>
<trkpt lat="-28.0586971" lon="152.4219990">
<ele>509.963</ele>
<time>2016-01-16T04:46:18.060Z</time>
</trkpt>
<trkpt lat="-28.0582860" lon="152.4225745">
<ele>506.776</ele>
<time>2016-01-16T04:46:20.725Z</time>
</trkpt>
<trkpt lat="-28.0578974" lon="152.4232120">
<ele>503.261</ele>
<time>2016-01-16T04:46:23.345Z</time>
</trkpt>
<trkpt lat="-28.0576975" lon="152.4237205">
<ele>498.790</ele>
<time>2016-01-16T04:46:25.204Z</time>
</trkpt>
<trkpt lat="-28.0575481" lon="152.4243049">
<ele>494.488</ele>
<time>2016-01-16T04:46:27.262Z</time>
</trkpt>
<trkpt lat="-28.0573711" lon="152.4251482">
<ele>491.771</ele>
<time>2016-01-16T04:46:30.249Z</time>
</trkpt>
<trkpt lat="-28.0571743" lon="152.4259987">
<ele>489.637</ele>
<time>2016-01-16T04:46:33.376Z</time>
</trkpt>
<trkpt lat="-28.0570511" lon="152.4265043">
<ele>486.070</ele>
<time>2016-01-16T04:46:35.279Z</time>
</trkpt>
<trkpt lat="-28.0568902" lon="152.4270556">
<ele>480.991</ele>
<time>2016-01-16T04:46:37.481Z</time>
</trkpt>
<trkpt lat="-28.0565670" lon="152.4277727">
<ele>475.464</ele>
<time>2016-01-16T04:46:40.681Z</time>
</trkpt>
<trkpt lat="-28.0563444" lon="152.4282175">
<ele>469.839</ele>
<time>2016-01-16T04:46:42.803Z</time>
</trkpt>
<trkpt lat="-28.0559840" lon="152.4288436">
<ele>464.302</ele>
<time>2016-01-16T04:46:46.049Z</time>
</trkpt>
<trkpt lat="-28.0556773" lon="152.4291779">
<ele>458.406</ele>
<time>2016-01-16T04:46:48.163Z</time>
</trkpt>
<trkpt lat="-28.0553056" lon="152.4293788">
<ele>452.095</ele>
<time>2016-01-16T04:46:50.167Z</time>
</trkpt>
<trkpt lat="-28.0548446" lon="152.4297967">
<ele>446.639</ele>
<time>2016-01-16T04:46:52.938Z</time>
</trkpt>
<trkpt lat="-28.0545844" lon="152.4301430">
<ele>442.444</ele>
<time>2016-01-16T04:46:54.814Z</time>
</trkpt>
<trkpt lat="-28.0544190" lon="152.4306230">
<ele>438.710</ele>
<time>2016-01-16T04:46:56.959Z</time>
</trkpt>
<trkpt lat="-28.0541012" lon="152.4312523">
<ele>435.681</ele>
<time>2016-01-16T04:47:00.047Z</time>
</trkpt>
<trkpt lat="-28.0537399" lon="152.4318070">
<ele>433.421</ele>
<time>2016-01-16T04:47:02.879Z</time>
</trkpt>
<trkpt lat="-28.0535259" lon="152.4321831">
<ele>430.585</ele>
<time>2016-01-16T04:47:04.585Z</time>
</trkpt>
<trkpt lat="-28.0533969" lon="152.4326515">
<ele>426.482</ele>
<time>2016-01-16T04:47:06.413Z</time>
</trkpt>
<trkpt lat="-28.0533629" lon="152.4331665">
<ele>422.439</ele>
<time>2016-01-16T04:47:08.333Z</time>
</trkpt>
<trkpt lat="-28.0534109" lon="152.4337408">
<ele>419.915</ele>
<time>2016-01-16T04:47:10.508Z</time>
</trkpt>
<trkpt lat="-28.0534704" lon="152.4345187">
<ele>418.682</ele>
<time>2016-01-16T04:47:13.457Z</time>
</trkpt>
<trkpt lat="-28.0534579" lon="152.4350307">
<ele>417.113</ele>
<time>2016-01-16T04:47:15.368Z</time>
</trkpt>
<trkpt lat="-28.0533465" lon="152.4358103">
<ele>413.648</ele>
<time>2016-01-16T04:47:18.193Z</time>
</trkpt>
<trkpt lat="-28.0532321" lon="152.4363154">
<ele>408.364</ele>
<time>2016-01-16T04:47:19.969Z</time>
</trkpt>
<trkpt lat="-28.0529809" lon="152.4371164">
<ele>402.720</ele>
<time>2016-01-16T04:47:22.862Z</time>
</trkpt>
<trkpt lat="-28.0526631" lon="152.4378393">
<ele>397.804</ele>
<time>2016-01-16T04:47:25.596Z</time>
</trkpt>
<trkpt lat="-28.0523738" lon="152.4383433">
<ele>393.476</ele>
<time>2016-01-16T04:47:27.587Z</time>
</trkpt>
<trkpt lat="-28.0519405" lon="152.4391018">
<ele>389.242</ele>
<time>2016-01-16T04:47:30.547Z</time>
</trkpt>
<trkpt lat="-28.0516648" lon="152.4396262">
<ele>385.157</ele>
<time>2016-01-16T04:47:32.611Z</time>
</trkpt>
<trkpt lat="-28.0512594" lon="152.4404072">
<ele>381.777</ele>
<time>2016-01-16T04:47:35.905Z</time>
</trkpt>
<trkpt lat="-28.0510194" lon="152.4408858">
<ele>379.612</ele>
<time>2016-01-16T04:47:38.025Z</time>
</trkpt>
<trkpt lat="-28.0506676" lon="152.4415712">
<ele>378.203</ele>
<time>2016-01-16T04:47:41.077Z</time>
</trkpt>
<trkpt lat="-28.0504244" lon="152.4419915">
<ele>376.291</ele>
<time>2016-01-16T04:47:42.980Z</time>
</trkpt>
<trkpt lat="-28.0500531" lon="152.4426682">
<ele>373.630</ele>
<time>2016-01-16T04:47:45.897Z</time>
</trkpt>
<trkpt lat="-28.0498150" lon="152.4431228">
<ele>371.304</ele>
<time>2016-01-16T04:47:47.775Z</time>
</trkpt>
<trkpt lat="-28.0495529" lon="152.4435904">
<ele>369.590</ele>
<time>2016-01-16T04:47:49.738Z</time>
</trkpt>
<trkpt lat="-28.0492931" lon="152.4440752">
<ele>367.996</ele>
<time>2016-01-16T04:47:51.823Z</time>
</trkpt>
<trkpt lat="-28.0488868" lon="152.4447734">
<ele>366.763</ele>
<time>2016-01-16T04:47:55.023Z</time>
</trkpt>
<trkpt lat="-28.0485021" lon="152.4454447">
<ele>366.118</ele>
<time>2016-01-16T04:47:58.216Z</time>
</trkpt>
<trkpt lat="-28.0481928" lon="152.4457938">
<ele>365.199</ele>
<time>2016-01-16T04:48:00.147Z</time>
</trkpt>
<trkpt lat="-28.0478187" lon="152.4460416">
<ele>363.219</ele>
<time>2016-01-16T04:48:01.949Z</time>
</trkpt>
<trkpt lat="-28.0471536" lon="152.4462190">
<ele>360.753</ele>
<time>2016-01-16T04:48:04.698Z</time>
</trkpt>
<trkpt lat="-28.0464250" lon="152.4461378">
<ele>358.660</ele>
<time>2016-01-16T04:48:07.564Z</time>
</trkpt>
<trkpt lat="-28.0459516" lon="152.4459353">
<ele>356.732</ele>
<time>2016-01-16T04:48:09.603Z</time>
</trkpt>
<trkpt lat="-28.0452172" lon="152.4456501">
<ele>354.348</ele>
<time>2016-01-16T04:48:12.827Z</time>
</trkpt>
<trkpt lat="-28.0445522" lon="152.4454073">
<ele>351.278</ele>
<time>2016-01-16T04:48:15.797Z</time>
</trkpt>
<trkpt lat="-28.0441054" lon="152.4452640">
<ele>347.437</ele>
<time>2016-01-16T04:48:17.741Z</time>
</trkpt>
<trkpt lat="-28.0433999" lon="152.4452225">
<ele>343.207</ele>
<time>2016-01-16T04:48:20.618Z</time>
</trkpt>
<trkpt lat="-28.0429217" lon="152.4453208">
<ele>339.249</ele>
<time>2016-01-16T04:48:22.580Z</time>
</trkpt>
<trkpt lat="-28.0422292" lon="152.4456246">
<ele>335.895</ele>
<time>2016-01-16T04:48:25.580Z</time>
</trkpt>
<trkpt lat="-28.0418259" lon="152.4459288">
<ele>332.690</ele>
<time>2016-01-16T04:48:27.534Z</time>
</trkpt>
<trkpt lat="-28.0414713" lon="152.4463449">
<ele>329.149</ele>
<time>2016-01-16T04:48:29.598Z</time>
</trkpt>
<trkpt lat="-28.0411830" lon="152.4468159">
<ele>325.697</ele>
<time>2016-01-16T04:48:31.637Z</time>
</trkpt>
<trkpt lat="-28.0408415" lon="152.4475556">
<ele>322.785</ele>
<time>2016-01-16T04:48:34.586Z</time>
</trkpt>
<trkpt lat="-28.0404594" lon="152.4482886">
<ele>319.344</ele>
<time>2016-01-16T04:48:37.619Z</time>
</trkpt>
<trkpt lat="-28.0401845" lon="152.4487455">
<ele>314.712</ele>
<time>2016-01-16T04:48:39.642Z</time>
</trkpt>
<trkpt lat="-28.0396878" lon="152.4493383">
<ele>309.533</ele>
<time>2016-01-16T04:48:42.732Z</time>
</trkpt>
<trkpt lat="-28.0391672" lon="152.4498865">
<ele>304.128</ele>
<time>2016-01-16T04:48:45.879Z</time>
</trkpt>
<trkpt lat="-28.0386752" lon="152.4503507">
<ele>298.748</ele>
<time>2016-01-16T04:48:48.725Z</time>
</trkpt>
<trkpt lat="-28.0381893" lon="152.4508909">
<ele>293.853</ele>
<time>2016-01-16T04:48:51.618Z</time>
</trkpt>
<trkpt lat="-28.0379339" lon="152.4513120">
<ele>289.832</ele>
<time>2016-01-16T04:48:53.434Z</time>
</trkpt>
<trkpt lat="-28.0375780" lon="152.4520416">
<ele>287.161</ele>
<time>2016-01-16T04:48:56.357Z</time>
</trkpt>
<trkpt lat="-28.0374095" lon="152.4528285">
<ele>285.512</ele>
<time>2016-01-16T04:48:59.198Z</time>
</trkpt>
<trkpt lat="-28.0372828" lon="152.4536713">
<ele>283.888</ele>
<time>2016-01-16T04:49:02.201Z</time>
</trkpt>
<trkpt lat="-28.0372059" lon="152.4542449">
<ele>281.734</ele>
<time>2016-01-16T04:49:04.262Z</time>
</trkpt>
<trkpt lat="-28.0370723" lon="152.4550887">
<ele>279.045</ele>
<time>2016-01-16T04:49:07.407Z</time>
</trkpt>
<trkpt lat="-28.0370023" lon="152.4556101">
<ele>275.662</ele>
<time>2016-01-16T04:49:09.392Z</time>
</trkpt>
<trkpt lat="-28.0369184" lon="152.4561286">
<ele>271.581</ele>
<time>2016-01-16T04:49:11.356Z</time>
</trkpt>
<trkpt lat="-28.0368823" lon="152.4566519">
<ele>267.705</ele>
<time>2016-01-16T04:49:13.254Z</time>
</trkpt>
<trkpt lat="-28.0368137" lon="152.4574683">
<ele>264.580</ele>
<time>2016-01-16T04:49:16.152Z</time>
</trkpt>
<trkpt lat="-28.0367577" lon="152.4580324">
<ele>262.112</ele>
<time>2016-01-16T04:49:18.169Z</time>
</trkpt>
<trkpt lat="-28.0366754" lon="152.4586116">
<ele>260.698</ele>
<time>2016-01-16T04:49:20.253Z</time>
</trkpt>
<trkpt lat="-28.0364248" lon="152.4594043">
<ele>260.390</ele>
<time>2016-01-16T04:49:23.243Z</time>
</trkpt>
<trkpt lat="-28.0361145" lon="152.4601727">
<ele>260.589</ele>
<time>2016-01-16T04:49:26.286Z</time>
</trkpt>
<trkpt lat="-28.0358821" lon="152.4606668">
<ele>260.730</ele>
<time>2016-01-16T04:49:28.317Z</time>
</trkpt>
<trkpt lat="-28.0356783" lon="152.4611473">
<ele>260.498</ele>
<time>2016-01-16T04:49:30.246Z</time>
</trkpt>
<trkpt lat="-28.0353443" lon="152.4619033">
<ele>259.494</ele>
<time>2016-01-16T04:49:33.310Z</time>
</trkpt>
<trkpt lat="-28.0350204" lon="152.4626085">
<ele>257.547</ele>
<time>2016-01-16T04:49:36.226Z</time>
</trkpt>
<trkpt lat="-28.0346587" lon="152.4633021">
<ele>255.129</ele>
<time>2016-01-16T04:49:39.230Z</time>
</trkpt>
<trkpt lat="-28.0343207" lon="152.4639898">
<ele>252.907</ele>
<time>2016-01-16T04:49:42.184Z</time>
</trkpt>
<trkpt lat="-28.0340044" lon="152.4646633">
<ele>250.780</ele>
<time>2016-01-16T04:49:45.000Z</time>
</trkpt>
<trkpt lat="-28.0337733" lon="152.4651354">
<ele>248.213</ele>
<time>2016-01-16T04:49:46.957Z</time>
</trkpt>
<trkpt lat="-28.0334242" lon="152.4658408">
<ele>245.429</ele>
<time>2016-01-16T04:49:49.834Z</time>
</trkpt>
<trkpt lat="-28.0330689" lon="152.4665709">
<ele>243.303</ele>
<time>2016-01-16T04:49:52.746Z</time>
</trkpt>
<trkpt lat="-28.0327184" lon="152.4673228">
<ele>241.746</ele>
<time>2016-01-16T04:49:55.641Z</time>
</trkpt>
<trkpt lat="-28.0324839" lon="152.4678343">
<ele>240.114</ele>
<time>2016-01-16T04:49:57.573Z</time>
</trkpt>
<trkpt lat="-28.0321018" lon="152.4686194">
<ele>238.565</ele>
<time>2016-01-16T04:50:00.570Z</time>
</trkpt>
<trkpt lat="-28.0317344" lon="152.4694250">
<ele>237.334</ele>
<time>2016-01-16T04:50:03.733Z</time>
</trkpt>
<trkpt lat="-28.0314990" lon="152.4699256">
<ele>236.220</ele>
<time>2016-01-16T04:50:05.728Z</time>
</trkpt>
<trkpt lat="-28.0311678" lon="152.4706325">
<ele>235.105</ele>
<time>2016-01-16T04:50:08.500Z</time>
</trkpt>
<trkpt lat="-28.0308059" lon="152.4713924">
<ele>233.870</ele>
<time>2016-01-16T04:50:11.383Z</time>
</trkpt>
<trkpt lat="-28.0305637" lon="152.4719298">
<ele>232.418</ele>
<time>2016-01-16T04:50:13.372Z</time>
</trkpt>
<trkpt lat="-28.0302983" lon="152.4724737">
<ele>231.091</ele>
<time>2016-01-16T04:50:15.420Z</time>
</trkpt>
<trkpt lat="-28.0299118" lon="152.4732651">
<ele>230.259</ele>
<time>2016-01-16T04:50:18.408Z</time>
</trkpt>
<trkpt lat="-28.0295558" lon="152.4740783">
<ele>229.632</ele>
<time>2016-01-16T04:50:21.373Z</time>
</trkpt>
<trkpt lat="-28.0293445" lon="152.4746400">
<ele>228.646</ele>
<time>2016-01-16T04:50:23.369Z</time>
</trkpt>
<trkpt lat="-28.0291842" lon="152.4752062">
<ele>227.518</ele>
<time>2016-01-16T04:50:25.326Z</time>
</trkpt>
<trkpt lat="-28.0289301" lon="152.4760498">
<ele>226.598</ele>
<time>2016-01-16T04:50:28.356Z</time>
</trkpt>
<trkpt lat="-28.0287690" lon="152.4766055">
<ele>226.043</ele>
<time>2016-01-16T04:50:30.421Z</time>
</trkpt>
<trkpt lat="-28.0286107" lon="152.4771461">
<ele>226.073</ele>
<time>2016-01-16T04:50:32.479Z</time>
</trkpt>
<trkpt lat="-28.0284804" lon="152.4776688">
<ele>226.515</ele>
<time>2016-01-16T04:50:34.441Z</time>
</trkpt>
<trkpt lat="-28.0283413" lon="152.4782053">
<ele>226.914</ele>
<time>2016-01-16T04:50:36.449Z</time>
</trkpt>
<trkpt lat="-28.0282098" lon="152.4790306">
<ele>227.140</ele>
<time>2016-01-16T04:50:39.361Z</time>
</trkpt>
<trkpt lat="-28.0281794" lon="152.4796159">
<ele>227.610</ele>
<time>2016-01-16T04:50:41.300Z</time>
</trkpt>
<trkpt lat="-28.0282037" lon="152.4802242">
<ele>228.696</ele>
<time>2016-01-16T04:50:43.281Z</time>
</trkpt>
<trkpt lat="-28.0282409" lon="152.4811574">
<ele>229.961</ele>
<time>2016-01-16T04:50:46.352Z</time>
</trkpt>
<trkpt lat="-28.0282583" lon="152.4817634">
<ele>231.492</ele>
<time>2016-01-16T04:50:48.415Z</time>
</trkpt>
<trkpt lat="-28.0282763" lon="152.4823352">
<ele>233.687</ele>
<time>2016-01-16T04:50:50.346Z</time>
</trkpt>
<trkpt lat="-28.0282785" lon="152.4829136">
<ele>235.682</ele>
<time>2016-01-16T04:50:52.288Z</time>
</trkpt>
<trkpt lat="-28.0283021" lon="152.4837948">
<ele>237.132</ele>
<time>2016-01-16T04:50:55.260Z</time>
</trkpt>
<trkpt lat="-28.0283005" lon="152.4846698">
<ele>238.776</ele>
<time>2016-01-16T04:50:58.292Z</time>
</trkpt>
<trkpt lat="-28.0283279" lon="152.4852443">
<ele>240.371</ele>
<time>2016-01-16T04:51:00.304Z</time>
</trkpt>
<trkpt lat="-28.0283591" lon="152.4860857">
<ele>240.632</ele>
<time>2016-01-16T04:51:03.242Z</time>
</trkpt>
<trkpt lat="-28.0284488" lon="152.4869377">
<ele>238.689</ele>
<time>2016-01-16T04:51:06.166Z</time>
</trkpt>
<trkpt lat="-28.0285721" lon="152.4878410">
<ele>235.091</ele>
<time>2016-01-16T04:51:09.241Z</time>
</trkpt>
<trkpt lat="-28.0287133" lon="152.4886752">
<ele>231.628</ele>
<time>2016-01-16T04:51:12.057Z</time>
</trkpt>
<trkpt lat="-28.0287945" lon="152.4892783">
<ele>229.332</ele>
<time>2016-01-16T04:51:14.052Z</time>
</trkpt>
<trkpt lat="-28.0288684" lon="152.4898771">
<ele>227.926</ele>
<time>2016-01-16T04:51:16.026Z</time>
</trkpt>
<trkpt lat="-28.0289951" lon="152.4907559">
<ele>226.765</ele>
<time>2016-01-16T04:51:18.981Z</time>
</trkpt>
<trkpt lat="-28.0290815" lon="152.4913173">
<ele>225.246</ele>
<time>2016-01-16T04:51:20.887Z</time>
</trkpt>
<trkpt lat="-28.0291635" lon="152.4918980">
<ele>222.808</ele>
<time>2016-01-16T04:51:22.853Z</time>
</trkpt>
<trkpt lat="-28.0292873" lon="152.4927743">
<ele>219.679</ele>
<time>2016-01-16T04:51:25.881Z</time>
</trkpt>
<trkpt lat="-28.0293972" lon="152.4936063">
<ele>216.521</ele>
<time>2016-01-16T04:51:28.881Z</time>
</trkpt>
<trkpt lat="-28.0294883" lon="152.4941263">
<ele>213.629</ele>
<time>2016-01-16T04:51:30.830Z</time>
</trkpt>
<trkpt lat="-28.0295724" lon="152.4946370">
<ele>211.024</ele>
<time>2016-01-16T04:51:32.761Z</time>
</trkpt>
<trkpt lat="-28.0296449" lon="152.4951596">
<ele>208.902</ele>
<time>2016-01-16T04:51:34.715Z</time>
</trkpt>
<trkpt lat="-28.0297102" lon="152.4959749">
<ele>207.242</ele>
<time>2016-01-16T04:51:37.739Z</time>
</trkpt>
<trkpt lat="-28.0297182" lon="152.4965205">
<ele>205.948</ele>
<time>2016-01-16T04:51:39.835Z</time>
</trkpt>
<trkpt lat="-28.0296535" lon="152.4970267">
<ele>205.172</ele>
<time>2016-01-16T04:51:41.847Z</time>
</trkpt>
<trkpt lat="-28.0295327" lon="152.4977626">
<ele>204.484</ele>
<time>2016-01-16T04:51:44.772Z</time>
</trkpt>
<trkpt lat="-28.0293857" lon="152.4982480">
<ele>203.221</ele>
<time>2016-01-16T04:51:46.706Z</time>
</trkpt>
<trkpt lat="-28.0292009" lon="152.4987309">
<ele>201.826</ele>
<time>2016-01-16T04:51:48.630Z</time>
</trkpt>
<trkpt lat="-28.0288405" lon="152.4994652">
<ele>201.274</ele>
<time>2016-01-16T04:51:51.597Z</time>
</trkpt>
<trkpt lat="-28.0284784" lon="152.5002092">
<ele>201.783</ele>
<time>2016-01-16T04:51:54.536Z</time>
</trkpt>
<trkpt lat="-28.0282373" lon="152.5007292">
<ele>202.746</ele>
<time>2016-01-16T04:51:56.547Z</time>
</trkpt>
<trkpt lat="-28.0278727" lon="152.5014842">
<ele>203.422</ele>
<time>2016-01-16T04:51:59.494Z</time>
</trkpt>
<trkpt lat="-28.0276412" lon="152.5019913">
<ele>203.432</ele>
<time>2016-01-16T04:52:01.420Z</time>
</trkpt>
<trkpt lat="-28.0272632" lon="152.5027943">
<ele>202.852</ele>
<time>2016-01-16T04:52:04.443Z</time>
</trkpt>
<trkpt lat="-28.0269961" lon="152.5033057">
<ele>202.465</ele>
<time>2016-01-16T04:52:06.423Z</time>
</trkpt>
<trkpt lat="-28.0266056" lon="152.5040691">
<ele>202.923</ele>
<time>2016-01-16T04:52:09.397Z</time>
</trkpt>
<trkpt lat="-28.0262312" lon="152.5048450">
<ele>203.827</ele>
<time>2016-01-16T04:52:12.436Z</time>
</trkpt>
<trkpt lat="-28.0259863" lon="152.5053611">
<ele>204.603</ele>
<time>2016-01-16T04:52:14.473Z</time>
</trkpt>
<trkpt lat="-28.0255968" lon="152.5060798">
<ele>205.299</ele>
<time>2016-01-16T04:52:17.427Z</time>
</trkpt>
<trkpt lat="-28.0253662" lon="152.5065298">
<ele>205.977</ele>
<time>2016-01-16T04:52:19.292Z</time>
</trkpt>
<trkpt lat="-28.0251121" lon="152.5070028">
<ele>206.364</ele>
<time>2016-01-16T04:52:21.332Z</time>
</trkpt>
<trkpt lat="-28.0247997" lon="152.5077128">
<ele>206.285</ele>
<time>2016-01-16T04:52:24.311Z</time>
</trkpt>
<trkpt lat="-28.0244397" lon="152.5083987">
<ele>205.259</ele>
<time>2016-01-16T04:52:27.325Z</time>
</trkpt>
<trkpt lat="-28.0242242" lon="152.5088969">
<ele>203.191</ele>
<time>2016-01-16T04:52:29.420Z</time>
</trkpt>
<trkpt lat="-28.0238715" lon="152.5095473">
<ele>201.249</ele>
<time>2016-01-16T04:52:32.282Z</time>
</trkpt>
<trkpt lat="-28.0236433" lon="152.5100193">
<ele>200.527</ele>
<time>2016-01-16T04:52:34.246Z</time>
</trkpt>
<trkpt lat="-28.0234188" lon="152.5105306">
<ele>200.814</ele>
<time>2016-01-16T04:52:36.274Z</time>
</trkpt>
<trkpt lat="-28.0230475" lon="152.5112605">
<ele>201.458</ele>
<time>2016-01-16T04:52:39.258Z</time>
</trkpt>
<trkpt lat="-28.0226826" lon="152.5119926">
<ele>201.997</ele>
<time>2016-01-16T04:52:42.299Z</time>
</trkpt>
<trkpt lat="-28.0223327" lon="152.5126904">
<ele>201.795</ele>
<time>2016-01-16T04:52:45.289Z</time>
</trkpt>
<trkpt lat="-28.0221011" lon="152.5131564">
<ele>200.434</ele>
<time>2016-01-16T04:52:47.322Z</time>
</trkpt>
<trkpt lat="-28.0218724" lon="152.5136321">
<ele>198.318</ele>
<time>2016-01-16T04:52:49.407Z</time>
</trkpt>
<trkpt lat="-28.0215415" lon="152.5143003">
<ele>196.234</ele>
<time>2016-01-16T04:52:52.430Z</time>
</trkpt>
<trkpt lat="-28.0212172" lon="152.5149412">
<ele>194.867</ele>
<time>2016-01-16T04:52:55.439Z</time>
</trkpt>
<trkpt lat="-28.0210255" lon="152.5153640">
<ele>194.372</ele>
<time>2016-01-16T04:52:57.396Z</time>
</trkpt>
<trkpt lat="-28.0208173" lon="152.5157791">
<ele>194.274</ele>
<time>2016-01-16T04:52:59.337Z</time>
</trkpt>
<trkpt lat="-28.0204790" lon="152.5164227">
<ele>194.277</ele>
<time>2016-01-16T04:53:02.361Z</time>
</trkpt>
<trkpt lat="-28.0202738" lon="152.5168550">
<ele>194.543</ele>
<time>2016-01-16T04:53:04.344Z</time>
</trkpt>
<trkpt lat="-28.0199351" lon="152.5174697">
<ele>195.177</ele>
<time>2016-01-16T04:53:07.240Z</time>
</trkpt>
<trkpt lat="-28.0194912" lon="152.5180477">
<ele>195.841</ele>
<time>2016-01-16T04:53:10.276Z</time>
</trkpt>
<trkpt lat="-28.0189680" lon="152.5185217">
<ele>196.135</ele>
<time>2016-01-16T04:53:13.204Z</time>
</trkpt>
<trkpt lat="-28.0183552" lon="152.5189099">
<ele>196.197</ele>
<time>2016-01-16T04:53:16.117Z</time>
</trkpt>
<trkpt lat="-28.0176693" lon="152.5192638">
<ele>197.032</ele>
<time>2016-01-16T04:53:19.171Z</time>
</trkpt>
<trkpt lat="-28.0169911" lon="152.5196097">
<ele>199.230</ele>
<time>2016-01-16T04:53:22.200Z</time>
</trkpt>
<trkpt lat="-28.0163231" lon="152.5199465">
<ele>201.874</ele>
<time>2016-01-16T04:53:25.090Z</time>
</trkpt>
<trkpt lat="-28.0158154" lon="152.5201925">
<ele>204.078</ele>
<time>2016-01-16T04:53:27.145Z</time>
</trkpt>
<trkpt lat="-28.0153194" lon="152.5204502">
<ele>206.099</ele>
<time>2016-01-16T04:53:29.188Z</time>
</trkpt>
<trkpt lat="-28.0148450" lon="152.5206765">
<ele>208.018</ele>
<time>2016-01-16T04:53:31.137Z</time>
</trkpt>
<trkpt lat="-28.0143695" lon="152.5209282">
<ele>208.949</ele>
<time>2016-01-16T04:53:33.095Z</time>
</trkpt>
<trkpt lat="-28.0138798" lon="152.5212181">
<ele>208.460</ele>
<time>2016-01-16T04:53:35.138Z</time>
</trkpt>
<trkpt lat="-28.0131971" lon="152.5216605">
<ele>207.473</ele>
<time>2016-01-16T04:53:38.043Z</time>
</trkpt>
<trkpt lat="-28.0127406" lon="152.5219809">
<ele>206.158</ele>
<time>2016-01-16T04:53:40.021Z</time>
</trkpt>
<trkpt lat="-28.0120480" lon="152.5224495">
<ele>203.993</ele>
<time>2016-01-16T04:53:43.026Z</time>
</trkpt>
<trkpt lat="-28.0113720" lon="152.5229037">
<ele>200.951</ele>
<time>2016-01-16T04:53:46.007Z</time>
</trkpt>
<trkpt lat="-28.0109279" lon="152.5232045">
<ele>197.223</ele>
<time>2016-01-16T04:53:47.994Z</time>
</trkpt>
<trkpt lat="-28.0102552" lon="152.5236531">
<ele>193.220</ele>
<time>2016-01-16T04:53:50.927Z</time>
</trkpt>
<trkpt lat="-28.0095472" lon="152.5241200">
<ele>189.226</ele>
<time>2016-01-16T04:53:53.883Z</time>
</trkpt>
<trkpt lat="-28.0087956" lon="152.5245747">
<ele>185.422</ele>
<time>2016-01-16T04:53:56.888Z</time>
</trkpt>
<trkpt lat="-28.0080686" lon="152.5250698">
<ele>182.458</ele>
<time>2016-01-16T04:53:59.884Z</time>
</trkpt>
<trkpt lat="-28.0073373" lon="152.5255234">
<ele>180.157</ele>
<time>2016-01-16T04:54:02.840Z</time>
</trkpt>
<trkpt lat="-28.0068502" lon="152.5258508">
<ele>177.765</ele>
<time>2016-01-16T04:54:04.861Z</time>
</trkpt>
<trkpt lat="-28.0061572" lon="152.5263276">
<ele>175.422</ele>
<time>2016-01-16T04:54:07.789Z</time>
</trkpt>
<trkpt lat="-28.0056813" lon="152.5266278">
<ele>173.430</ele>
<time>2016-01-16T04:54:09.795Z</time>
</trkpt>
<trkpt lat="-28.0049850" lon="152.5270881">
<ele>171.306</ele>
<time>2016-01-16T04:54:12.778Z</time>
</trkpt>
<trkpt lat="-28.0045320" lon="152.5273930">
<ele>168.953</ele>
<time>2016-01-16T04:54:14.723Z</time>
</trkpt>
<trkpt lat="-28.0040723" lon="152.5277183">
<ele>167.257</ele>
<time>2016-01-16T04:54:16.735Z</time>
</trkpt>
<trkpt lat="-28.0033813" lon="152.5281703">
<ele>166.268</ele>
<time>2016-01-16T04:54:19.721Z</time>
</trkpt>
<trkpt lat="-28.0029315" lon="152.5284836">
<ele>165.473</ele>
<time>2016-01-16T04:54:21.716Z</time>
</trkpt>
<trkpt lat="-28.0025473" lon="152.5288519">
<ele>165.094</ele>
<time>2016-01-16T04:54:23.648Z</time>
</trkpt>
<trkpt lat="-28.0018987" lon="152.5293346">
<ele>165.204</ele>
<time>2016-01-16T04:54:26.688Z</time>
</trkpt>
<trkpt lat="-28.0014978" lon="152.5296636">
<ele>164.429</ele>
<time>2016-01-16T04:54:28.682Z</time>
</trkpt>
<trkpt lat="-28.0010915" lon="152.5299966">
<ele>161.901</ele>
<time>2016-01-16T04:54:30.736Z</time>
</trkpt>
<trkpt lat="-28.0005401" lon="152.5305132">
<ele>158.991</ele>
<time>2016-01-16T04:54:33.744Z</time>
</trkpt>
<trkpt lat="-28.0000057" lon="152.5309827">
<ele>157.030</ele>
<time>2016-01-16T04:54:36.669Z</time>
</trkpt>
<trkpt lat="-27.9994635" lon="152.5314561">
<ele>155.562</ele>
<time>2016-01-16T04:54:39.604Z</time>
</trkpt>
<trkpt lat="-27.9988611" lon="152.5318942">
<ele>154.329</ele>
<time>2016-01-16T04:54:42.560Z</time>
</trkpt>
<trkpt lat="-27.9982072" lon="152.5323203">
<ele>153.656</ele>
<time>2016-01-16T04:54:45.588Z</time>
</trkpt>
<trkpt lat="-27.9975442" lon="152.5327104">
<ele>153.608</ele>
<time>2016-01-16T04:54:48.586Z</time>
</trkpt>
<trkpt lat="-27.9968865" lon="152.5330746">
<ele>153.911</ele>
<time>2016-01-16T04:54:51.555Z</time>
</trkpt>
<trkpt lat="-27.9964482" lon="152.5333407">
<ele>153.599</ele>
<time>2016-01-16T04:54:53.572Z</time>
</trkpt>
<trkpt lat="-27.9957904" lon="152.5337233">
<ele>152.056</ele>
<time>2016-01-16T04:54:56.598Z</time>
</trkpt>
<trkpt lat="-27.9953742" lon="152.5339504">
<ele>149.443</ele>
<time>2016-01-16T04:54:58.503Z</time>
</trkpt>
<trkpt lat="-27.9947570" lon="152.5343732">
<ele>146.345</ele>
<time>2016-01-16T04:55:01.431Z</time>
</trkpt>
<trkpt lat="-27.9941572" lon="152.5348781">
<ele>143.660</ele>
<time>2016-01-16T04:55:04.380Z</time>
</trkpt>
<trkpt lat="-27.9935870" lon="152.5354636">
<ele>141.877</ele>
<time>2016-01-16T04:55:07.333Z</time>
</trkpt>
<trkpt lat="-27.9932146" lon="152.5359028">
<ele>140.764</ele>
<time>2016-01-16T04:55:09.330Z</time>
</trkpt>
<trkpt lat="-27.9928436" lon="152.5363620">
<ele>140.376</ele>
<time>2016-01-16T04:55:11.368Z</time>
</trkpt>
<trkpt lat="-27.9923080" lon="152.5370152">
<ele>140.587</ele>
<time>2016-01-16T04:55:14.302Z</time>
</trkpt>
<trkpt lat="-27.9919446" lon="152.5374640">
<ele>140.162</ele>
<time>2016-01-16T04:55:16.321Z</time>
</trkpt>
<trkpt lat="-27.9914130" lon="152.5381291">
<ele>137.706</ele>
<time>2016-01-16T04:55:19.363Z</time>
</trkpt>
<trkpt lat="-27.9909335" lon="152.5387648">
<ele>133.903</ele>
<time>2016-01-16T04:55:22.300Z</time>
</trkpt>
<trkpt lat="-27.9906282" lon="152.5392029">
<ele>130.701</ele>
<time>2016-01-16T04:55:24.300Z</time>
</trkpt>
<trkpt lat="-27.9903230" lon="152.5396283">
<ele>128.426</ele>
<time>2016-01-16T04:55:26.285Z</time>
</trkpt>
<trkpt lat="-27.9898452" lon="152.5402482">
<ele>126.265</ele>
<time>2016-01-16T04:55:29.282Z</time>
</trkpt>
<trkpt lat="-27.9895323" lon="152.5406580">
<ele>123.962</ele>
<time>2016-01-16T04:55:31.289Z</time>
</trkpt>
<trkpt lat="-27.9890581" lon="152.5412525">
<ele>121.889</ele>
<time>2016-01-16T04:55:34.374Z</time>
</trkpt>
<trkpt lat="-27.9885957" lon="152.5417535">
<ele>119.776</ele>
<time>2016-01-16T04:55:37.342Z</time>
</trkpt>
<trkpt lat="-27.9881245" lon="152.5421982">
<ele>116.669</ele>
<time>2016-01-16T04:55:40.258Z</time>
</trkpt>
<trkpt lat="-27.9877840" lon="152.5424892">
<ele>112.807</ele>
<time>2016-01-16T04:55:42.254Z</time>
</trkpt>
<trkpt lat="-27.9872955" lon="152.5429552">
<ele>109.608</ele>
<time>2016-01-16T04:55:45.178Z</time>
</trkpt>
<trkpt lat="-27.9867990" lon="152.5434751">
<ele>107.711</ele>
<time>2016-01-16T04:55:48.236Z</time>
</trkpt>
<trkpt lat="-27.9863140" lon="152.5439352">
<ele>106.889</ele>
<time>2016-01-16T04:55:51.232Z</time>
</trkpt>
<trkpt lat="-27.9860134" lon="152.5442119">
<ele>106.171</ele>
<time>2016-01-16T04:55:53.257Z</time>
</trkpt>
<trkpt lat="-27.9856027" lon="152.5445789">
<ele>104.637</ele>
<time>2016-01-16T04:55:56.146Z</time>
</trkpt>
<trkpt lat="-27.9853376" lon="152.5448403">
<ele>102.647</ele>
<time>2016-01-16T04:55:58.193Z</time>
</trkpt>
<trkpt lat="-27.9849675" lon="152.5452149">
<ele>101.020</ele>
<time>2016-01-16T04:56:01.152Z</time>
</trkpt>
<trkpt lat="-27.9847218" lon="152.5454491">
<ele>99.782</ele>
<time>2016-01-16T04:56:03.127Z</time>
</trkpt>
<trkpt lat="-27.9843409" lon="152.5457714">
<ele>98.586</ele>
<time>2016-01-16T04:56:06.120Z</time>
</trkpt>
<trkpt lat="-27.9841118" lon="152.5460031">
<ele>97.445</ele>
<time>2016-01-16T04:56:08.121Z</time>
</trkpt>
<trkpt lat="-27.9837933" lon="152.5463599">
<ele>96.543</ele>
<time>2016-01-16T04:56:11.047Z</time>
</trkpt>
<trkpt lat="-27.9834279" lon="152.5467111">
<ele>95.895</ele>
<time>2016-01-16T04:56:14.121Z</time>
</trkpt>
<trkpt lat="-27.9831917" lon="152.5469343">
<ele>95.921</ele>
<time>2016-01-16T04:56:16.086Z</time>
</trkpt>
<trkpt lat="-27.9829648" lon="152.5471531">
<ele>96.845</ele>
<time>2016-01-16T04:56:18.019Z</time>
</trkpt>
<trkpt lat="-27.9826073" lon="152.5474681">
<ele>97.927</ele>
<time>2016-01-16T04:56:20.985Z</time>
</trkpt>
<trkpt lat="-27.9823845" lon="152.5476852">
<ele>98.520</ele>
<time>2016-01-16T04:56:22.934Z</time>
</trkpt>
<trkpt lat="-27.9820495" lon="152.5480191">
<ele>98.746</ele>
<time>2016-01-16T04:56:25.939Z</time>
</trkpt>
<trkpt lat="-27.9818293" lon="152.5482178">
<ele>98.802</ele>
<time>2016-01-16T04:56:27.922Z</time>
</trkpt>
<trkpt lat="-27.9815025" lon="152.5484874">
<ele>98.593</ele>
<time>2016-01-16T04:56:30.904Z</time>
</trkpt>
<trkpt lat="-27.9813060" lon="152.5486733">
<ele>97.818</ele>
<time>2016-01-16T04:56:32.865Z</time>
</trkpt>
<trkpt lat="-27.9810099" lon="152.5489507">
<ele>96.440</ele>
<time>2016-01-16T04:56:35.789Z</time>
</trkpt>
<trkpt lat="-27.9808057" lon="152.5491503">
<ele>95.005</ele>
<time>2016-01-16T04:56:37.799Z</time>
</trkpt>
<trkpt lat="-27.9805051" lon="152.5494374">
<ele>94.117</ele>
<time>2016-01-16T04:56:40.822Z</time>
</trkpt>
<trkpt lat="-27.9802571" lon="152.5497148">
<ele>93.848</ele>
<time>2016-01-16T04:56:43.805Z</time>
</trkpt>
<trkpt lat="-27.9800233" lon="152.5499417">
<ele>93.871</ele>
<time>2016-01-16T04:56:46.976Z</time>
</trkpt>
<trkpt lat="-27.9799181" lon="152.5500226">
<ele>93.813</ele>
<time>2016-01-16T04:56:48.875Z</time>
</trkpt>
<trkpt lat="-27.9797964" lon="152.5500277">
<ele>93.254</ele>
<time>2016-01-16T04:56:51.398Z</time>
</trkpt>
<trkpt lat="-27.9797004" lon="152.5500229">
<ele>92.212</ele>
<time>2016-01-16T04:56:54.571Z</time>
</trkpt>
<trkpt lat="-27.9796104" lon="152.5500668">
<ele>91.345</ele>
<time>2016-01-16T04:56:58.999Z</time>
</trkpt>
<trkpt lat="-27.9796104" lon="152.5500668">
<ele>91.070</ele>
<time>2016-01-16T04:57:04.999Z</time>
</trkpt>
<trkpt lat="-27.9796104" lon="152.5500668">
<ele>91.135</ele>
<time>2016-01-16T05:09:41.624Z</time>
</trkpt>
<trkpt lat="-27.9794393" lon="152.5502440">
<ele>91.190</ele>
<time>2016-01-16T05:09:54.164Z</time>
</trkpt>
<trkpt lat="-27.9793471" lon="152.5502555">
<ele>91.117</ele>
<time>2016-01-16T05:09:56.999Z</time>
</trkpt>
<trkpt lat="-27.9793471" lon="152.5502555">
<ele>90.995</ele>
<time>2016-01-16T05:10:09.999Z</time>
</trkpt>
<trkpt lat="-27.9793471" lon="152.5502555">
<ele>90.918</ele>
<time>2016-01-16T05:16:01.961Z</time>
</trkpt>
<trkpt lat="-27.9793438" lon="152.5504567">
<ele>90.908</ele>
<time>2016-01-16T05:16:11.425Z</time>
</trkpt>
<trkpt lat="-27.9793609" lon="152.5506539">
<ele>91.982</ele>
<time>2016-01-16T05:16:14.568Z</time>
</trkpt>
<trkpt lat="-27.9792592" lon="152.5508235">
<ele>94.908</ele>
<time>2016-01-16T05:16:17.232Z</time>
</trkpt>
<trkpt lat="-27.9791017" lon="152.5510805">
<ele>98.776</ele>
<time>2016-01-16T05:16:21.298Z</time>
</trkpt>
<trkpt lat="-27.9786177" lon="152.5517650">
<ele>102.225</ele>
<time>2016-01-16T05:16:28.463Z</time>
</trkpt>
<trkpt lat="-27.9782912" lon="152.5522044">
<ele>104.723</ele>
<time>2016-01-16T05:16:31.346Z</time>
</trkpt>
<trkpt lat="-27.9780446" lon="152.5525382">
<ele>106.395</ele>
<time>2016-01-16T05:16:33.334Z</time>
</trkpt>
<trkpt lat="-27.9778180" lon="152.5528541">
<ele>107.592</ele>
<time>2016-01-16T05:16:35.076Z</time>
</trkpt>
<trkpt lat="-27.9775704" lon="152.5531932">
<ele>108.248</ele>
<time>2016-01-16T05:16:36.800Z</time>
</trkpt>
<trkpt lat="-27.9771793" lon="152.5537455">
<ele>108.460</ele>
<time>2016-01-16T05:16:39.404Z</time>
</trkpt>
<trkpt lat="-27.9767678" lon="152.5543393">
<ele>108.794</ele>
<time>2016-01-16T05:16:42.068Z</time>
</trkpt>
<trkpt lat="-27.9764587" lon="152.5547767">
<ele>109.974</ele>
<time>2016-01-16T05:16:44.042Z</time>
</trkpt>
<trkpt lat="-27.9760162" lon="152.5554171">
<ele>112.911</ele>
<time>2016-01-16T05:16:46.904Z</time>
</trkpt>
<trkpt lat="-27.9755469" lon="152.5560788">
<ele>117.264</ele>
<time>2016-01-16T05:16:49.915Z</time>
</trkpt>
<trkpt lat="-27.9750686" lon="152.5567302">
<ele>121.370</ele>
<time>2016-01-16T05:16:52.912Z</time>
</trkpt>
<trkpt lat="-27.9747434" lon="152.5571646">
<ele>124.132</ele>
<time>2016-01-16T05:16:54.899Z</time>
</trkpt>
<trkpt lat="-27.9744386" lon="152.5575832">
<ele>125.292</ele>
<time>2016-01-16T05:16:56.796Z</time>
</trkpt>
<trkpt lat="-27.9741379" lon="152.5580495">
<ele>124.943</ele>
<time>2016-01-16T05:16:58.821Z</time>
</trkpt>
<trkpt lat="-27.9738214" lon="152.5584992">
<ele>124.045</ele>
<time>2016-01-16T05:17:00.826Z</time>
</trkpt>
<trkpt lat="-27.9733495" lon="152.5591732">
<ele>123.587</ele>
<time>2016-01-16T05:17:03.798Z</time>
</trkpt>
<trkpt lat="-27.9730630" lon="152.5596298">
<ele>123.954</ele>
<time>2016-01-16T05:17:05.741Z</time>
</trkpt>
<trkpt lat="-27.9728147" lon="152.5601177">
<ele>124.782</ele>
<time>2016-01-16T05:17:07.702Z</time>
</trkpt>
<trkpt lat="-27.9724386" lon="152.5609260">
<ele>125.165</ele>
<time>2016-01-16T05:17:10.877Z</time>
</trkpt>
<trkpt lat="-27.9722279" lon="152.5614311">
<ele>124.357</ele>
<time>2016-01-16T05:17:12.829Z</time>
</trkpt>
<trkpt lat="-27.9719050" lon="152.5622156">
<ele>122.523</ele>
<time>2016-01-16T05:17:15.866Z</time>
</trkpt>
<trkpt lat="-27.9716909" lon="152.5627275">
<ele>119.854</ele>
<time>2016-01-16T05:17:17.854Z</time>
</trkpt>
<trkpt lat="-27.9714227" lon="152.5635374">
<ele>116.273</ele>
<time>2016-01-16T05:17:20.862Z</time>
</trkpt>
<trkpt lat="-27.9712663" lon="152.5640944">
<ele>112.471</ele>
<time>2016-01-16T05:17:22.888Z</time>
</trkpt>
<trkpt lat="-27.9711342" lon="152.5646412">
<ele>109.636</ele>
<time>2016-01-16T05:17:24.859Z</time>
</trkpt>
<trkpt lat="-27.9709264" lon="152.5654848">
<ele>107.835</ele>
<time>2016-01-16T05:17:27.904Z</time>
</trkpt>
<trkpt lat="-27.9707935" lon="152.5660452">
<ele>106.497</ele>
<time>2016-01-16T05:17:29.914Z</time>
</trkpt>
<trkpt lat="-27.9705788" lon="152.5668767">
<ele>105.238</ele>
<time>2016-01-16T05:17:32.952Z</time>
</trkpt>
<trkpt lat="-27.9703737" lon="152.5677131">
<ele>104.043</ele>
<time>2016-01-16T05:17:36.125Z</time>
</trkpt>
<trkpt lat="-27.9702343" lon="152.5682827">
<ele>103.189</ele>
<time>2016-01-16T05:17:38.302Z</time>
</trkpt>
<trkpt lat="-27.9700361" lon="152.5690982">
<ele>102.931</ele>
<time>2016-01-16T05:17:41.372Z</time>
</trkpt>
<trkpt lat="-27.9698960" lon="152.5696159">
<ele>102.867</ele>
<time>2016-01-16T05:17:43.295Z</time>
</trkpt>
<trkpt lat="-27.9697751" lon="152.5701301">
<ele>102.456</ele>
<time>2016-01-16T05:17:45.143Z</time>
</trkpt>
<trkpt lat="-27.9696465" lon="152.5706737">
<ele>101.695</ele>
<time>2016-01-16T05:17:47.085Z</time>
</trkpt>
<trkpt lat="-27.9693908" lon="152.5717758">
<ele>101.099</ele>
<time>2016-01-16T05:17:51.063Z</time>
</trkpt>
<trkpt lat="-27.9692390" lon="152.5723299">
<ele>101.042</ele>
<time>2016-01-16T05:17:53.119Z</time>
</trkpt>
<trkpt lat="-27.9690107" lon="152.5731637">
<ele>101.609</ele>
<time>2016-01-16T05:17:56.209Z</time>
</trkpt>
<trkpt lat="-27.9688387" lon="152.5736588">
<ele>102.748</ele>
<time>2016-01-16T05:17:58.078Z</time>
</trkpt>
<trkpt lat="-27.9684797" lon="152.5743559">
<ele>104.023</ele>
<time>2016-01-16T05:18:00.892Z</time>
</trkpt>
<trkpt lat="-27.9681595" lon="152.5748015">
<ele>104.282</ele>
<time>2016-01-16T05:18:02.892Z</time>
</trkpt>
<trkpt lat="-27.9675862" lon="152.5753632">
<ele>102.922</ele>
<time>2016-01-16T05:18:05.864Z</time>
</trkpt>
<trkpt lat="-27.9671748" lon="152.5756708">
<ele>101.140</ele>
<time>2016-01-16T05:18:07.781Z</time>
</trkpt>
<trkpt lat="-27.9667084" lon="152.5759361">
<ele>100.168</ele>
<time>2016-01-16T05:18:09.803Z</time>
</trkpt>
<trkpt lat="-27.9660075" lon="152.5763072">
<ele>99.650</ele>
<time>2016-01-16T05:18:12.812Z</time>
</trkpt>
<trkpt lat="-27.9653003" lon="152.5767032">
<ele>98.927</ele>
<time>2016-01-16T05:18:15.904Z</time>
</trkpt>
<trkpt lat="-27.9648563" lon="152.5769572">
<ele>98.089</ele>
<time>2016-01-16T05:18:17.881Z</time>
</trkpt>
<trkpt lat="-27.9641385" lon="152.5773462">
<ele>97.410</ele>
<time>2016-01-16T05:18:21.040Z</time>
</trkpt>
<trkpt lat="-27.9634577" lon="152.5777311">
<ele>97.108</ele>
<time>2016-01-16T05:18:24.041Z</time>
</trkpt>
<trkpt lat="-27.9628497" lon="152.5780982">
<ele>97.078</ele>
<time>2016-01-16T05:18:26.826Z</time>
</trkpt>
<trkpt lat="-27.9623632" lon="152.5783604">
<ele>96.922</ele>
<time>2016-01-16T05:18:29.010Z</time>
</trkpt>
<trkpt lat="-27.9616798" lon="152.5787287">
<ele>96.599</ele>
<time>2016-01-16T05:18:32.009Z</time>
</trkpt>
<trkpt lat="-27.9614533" lon="152.5788448">
<ele>96.699</ele>
<time>2016-01-16T05:18:32.992Z</time>
</trkpt>
<trkpt lat="-27.9604865" lon="152.5791309">
<ele>97.418</ele>
<time>2016-01-16T05:18:36.966Z</time>
</trkpt>
<trkpt lat="-27.9597313" lon="152.5792034">
<ele>98.218</ele>
<time>2016-01-16T05:18:39.957Z</time>
</trkpt>
<trkpt lat="-27.9592267" lon="152.5791964">
<ele>98.595</ele>
<time>2016-01-16T05:18:41.940Z</time>
</trkpt>
<trkpt lat="-27.9587302" lon="152.5791498">
<ele>98.702</ele>
<time>2016-01-16T05:18:43.901Z</time>
</trkpt>
<trkpt lat="-27.9582370" lon="152.5790908">
<ele>98.820</ele>
<time>2016-01-16T05:18:45.858Z</time>
</trkpt>
<trkpt lat="-27.9574771" lon="152.5789840">
<ele>99.069</ele>
<time>2016-01-16T05:18:48.892Z</time>
</trkpt>
<trkpt lat="-27.9569734" lon="152.5789219">
<ele>99.326</ele>
<time>2016-01-16T05:18:50.912Z</time>
</trkpt>
<trkpt lat="-27.9562209" lon="152.5788246">
<ele>99.405</ele>
<time>2016-01-16T05:18:53.925Z</time>
</trkpt>
<trkpt lat="-27.9557227" lon="152.5787565">
<ele>99.292</ele>
<time>2016-01-16T05:18:55.912Z</time>
</trkpt>
<trkpt lat="-27.9552296" lon="152.5786936">
<ele>99.098</ele>
<time>2016-01-16T05:18:57.881Z</time>
</trkpt>
<trkpt lat="-27.9544799" lon="152.5785980">
<ele>98.715</ele>
<time>2016-01-16T05:19:00.899Z</time>
</trkpt>
<trkpt lat="-27.9537219" lon="152.5785000">
<ele>97.980</ele>
<time>2016-01-16T05:19:04.001Z</time>
</trkpt>
<trkpt lat="-27.9529779" lon="152.5784204">
<ele>96.921</ele>
<time>2016-01-16T05:19:07.047Z</time>
</trkpt>
<trkpt lat="-27.9524912" lon="152.5783949">
<ele>95.585</ele>
<time>2016-01-16T05:19:09.023Z</time>
</trkpt>
<trkpt lat="-27.9519992" lon="152.5784338">
<ele>93.947</ele>
<time>2016-01-16T05:19:10.982Z</time>
</trkpt>
<trkpt lat="-27.9512566" lon="152.5786024">
<ele>92.091</ele>
<time>2016-01-16T05:19:13.963Z</time>
</trkpt>
<trkpt lat="-27.9505625" lon="152.5788995">
<ele>90.366</ele>
<time>2016-01-16T05:19:16.863Z</time>
</trkpt>
<trkpt lat="-27.9499221" lon="152.5793740">
<ele>89.294</ele>
<time>2016-01-16T05:19:19.857Z</time>
</trkpt>
<trkpt lat="-27.9492651" lon="152.5798321">
<ele>89.255</ele>
<time>2016-01-16T05:19:22.937Z</time>
</trkpt>
<trkpt lat="-27.9488264" lon="152.5801379">
<ele>90.225</ele>
<time>2016-01-16T05:19:24.987Z</time>
</trkpt>
<trkpt lat="-27.9483194" lon="152.5804507">
<ele>91.386</ele>
<time>2016-01-16T05:19:27.269Z</time>
</trkpt>
<trkpt lat="-27.9481134" lon="152.5806052">
<ele>91.719</ele>
<time>2016-01-16T05:19:28.246Z</time>
</trkpt>
<trkpt lat="-27.9472996" lon="152.5812197">
<ele>91.049</ele>
<time>2016-01-16T05:19:32.119Z</time>
</trkpt>
<trkpt lat="-27.9468893" lon="152.5815381">
<ele>89.843</ele>
<time>2016-01-16T05:19:34.092Z</time>
</trkpt>
<trkpt lat="-27.9462312" lon="152.5820157">
<ele>88.707</ele>
<time>2016-01-16T05:19:37.199Z</time>
</trkpt>
<trkpt lat="-27.9458102" lon="152.5823244">
<ele>88.124</ele>
<time>2016-01-16T05:19:39.198Z</time>
</trkpt>
<trkpt lat="-27.9453818" lon="152.5826299">
<ele>88.077</ele>
<time>2016-01-16T05:19:41.216Z</time>
</trkpt>
<trkpt lat="-27.9448212" lon="152.5830730">
<ele>88.269</ele>
<time>2016-01-16T05:19:43.965Z</time>
</trkpt>
<trkpt lat="-27.9442070" lon="152.5835326">
<ele>88.360</ele>
<time>2016-01-16T05:19:46.926Z</time>
</trkpt>
<trkpt lat="-27.9435622" lon="152.5839840">
<ele>88.302</ele>
<time>2016-01-16T05:19:49.904Z</time>
</trkpt>
<trkpt lat="-27.9433484" lon="152.5841356">
<ele>88.571</ele>
<time>2016-01-16T05:19:50.888Z</time>
</trkpt>
<trkpt lat="-27.9425266" lon="152.5847704">
<ele>89.352</ele>
<time>2016-01-16T05:19:54.789Z</time>
</trkpt>
<trkpt lat="-27.9421225" lon="152.5851158">
<ele>90.034</ele>
<time>2016-01-16T05:19:56.798Z</time>
</trkpt>
<trkpt lat="-27.9415143" lon="152.5856521">
<ele>90.174</ele>
<time>2016-01-16T05:19:59.845Z</time>
</trkpt>
<trkpt lat="-27.9411277" lon="152.5860139">
<ele>89.808</ele>
<time>2016-01-16T05:20:01.806Z</time>
</trkpt>
<trkpt lat="-27.9407562" lon="152.5863857">
<ele>89.102</ele>
<time>2016-01-16T05:20:03.738Z</time>
</trkpt>
<trkpt lat="-27.9401584" lon="152.5869320">
<ele>88.215</ele>
<time>2016-01-16T05:20:06.777Z</time>
</trkpt>
<trkpt lat="-27.9397622" lon="152.5873063">
<ele>87.340</ele>
<time>2016-01-16T05:20:08.822Z</time>
</trkpt>
<trkpt lat="-27.9391629" lon="152.5878670">
<ele>86.686</ele>
<time>2016-01-16T05:20:11.853Z</time>
</trkpt>
<trkpt lat="-27.9387615" lon="152.5882498">
<ele>86.520</ele>
<time>2016-01-16T05:20:13.859Z</time>
</trkpt>
<trkpt lat="-27.9380057" lon="152.5889488">
<ele>86.915</ele>
<time>2016-01-16T05:20:17.596Z</time>
</trkpt>
<trkpt lat="-27.9375615" lon="152.5893113">
<ele>87.544</ele>
<time>2016-01-16T05:20:19.712Z</time>
</trkpt>
<trkpt lat="-27.9371656" lon="152.5896742">
<ele>88.085</ele>
<time>2016-01-16T05:20:21.683Z</time>
</trkpt>
<trkpt lat="-27.9365509" lon="152.5902203">
<ele>88.370</ele>
<time>2016-01-16T05:20:24.727Z</time>
</trkpt>
<trkpt lat="-27.9361598" lon="152.5905832">
<ele>88.242</ele>
<time>2016-01-16T05:20:26.717Z</time>
</trkpt>
<trkpt lat="-27.9355599" lon="152.5911465">
<ele>87.898</ele>
<time>2016-01-16T05:20:29.761Z</time>
</trkpt>
<trkpt lat="-27.9349812" lon="152.5916808">
<ele>87.751</ele>
<time>2016-01-16T05:20:32.635Z</time>
</trkpt>
<trkpt lat="-27.9344019" lon="152.5922429">
<ele>87.980</ele>
<time>2016-01-16T05:20:35.603Z</time>
</trkpt>
<trkpt lat="-27.9338120" lon="152.5927940">
<ele>88.600</ele>
<time>2016-01-16T05:20:38.657Z</time>
</trkpt>
<trkpt lat="-27.9334105" lon="152.5931411">
<ele>89.885</ele>
<time>2016-01-16T05:20:40.686Z</time>
</trkpt>
<trkpt lat="-27.9327574" lon="152.5935907">
<ele>92.140</ele>
<time>2016-01-16T05:20:43.750Z</time>
</trkpt>
<trkpt lat="-27.9323015" lon="152.5938468">
<ele>94.767</ele>
<time>2016-01-16T05:20:45.757Z</time>
</trkpt>
<trkpt lat="-27.9315896" lon="152.5941263">
<ele>97.000</ele>
<time>2016-01-16T05:20:48.725Z</time>
</trkpt>
<trkpt lat="-27.9308700" lon="152.5942850">
<ele>99.109</ele>
<time>2016-01-16T05:20:51.658Z</time>
</trkpt>
<trkpt lat="-27.9300912" lon="152.5944491">
<ele>101.534</ele>
<time>2016-01-16T05:20:54.807Z</time>
</trkpt>
<trkpt lat="-27.9298308" lon="152.5945116">
<ele>103.781</ele>
<time>2016-01-16T05:20:55.863Z</time>
</trkpt>
<trkpt lat="-27.9288605" lon="152.5947202">
<ele>104.979</ele>
<time>2016-01-16T05:20:59.794Z</time>
</trkpt>
<trkpt lat="-27.9283459" lon="152.5948249">
<ele>104.448</ele>
<time>2016-01-16T05:21:01.853Z</time>
</trkpt>
<trkpt lat="-27.9276118" lon="152.5949496">
<ele>102.303</ele>
<time>2016-01-16T05:21:04.743Z</time>
</trkpt>
<trkpt lat="-27.9268747" lon="152.5951037">
<ele>99.005</ele>
<time>2016-01-16T05:21:07.656Z</time>
</trkpt>
<trkpt lat="-27.9261221" lon="152.5952521">
<ele>94.786</ele>
<time>2016-01-16T05:21:10.639Z</time>
</trkpt>
<trkpt lat="-27.9256101" lon="152.5953455">
<ele>90.661</ele>
<time>2016-01-16T05:21:12.665Z</time>
</trkpt>
<trkpt lat="-27.9248385" lon="152.5954586">
<ele>87.911</ele>
<time>2016-01-16T05:21:15.737Z</time>
</trkpt>
<trkpt lat="-27.9243406" lon="152.5955419">
<ele>86.459</ele>
<time>2016-01-16T05:21:17.752Z</time>
</trkpt>
<trkpt lat="-27.9235804" lon="152.5956752">
<ele>85.783</ele>
<time>2016-01-16T05:21:20.859Z</time>
</trkpt>
<trkpt lat="-27.9230965" lon="152.5957530">
<ele>85.529</ele>
<time>2016-01-16T05:21:22.848Z</time>
</trkpt>
<trkpt lat="-27.9226040" lon="152.5958165">
<ele>85.166</ele>
<time>2016-01-16T05:21:24.863Z</time>
</trkpt>
<trkpt lat="-27.9218774" lon="152.5959547">
<ele>84.516</ele>
<time>2016-01-16T05:21:27.825Z</time>
</trkpt>
<trkpt lat="-27.9214009" lon="152.5960685">
<ele>84.510</ele>
<time>2016-01-16T05:21:29.747Z</time>
</trkpt>
<trkpt lat="-27.9206837" lon="152.5962263">
<ele>85.760</ele>
<time>2016-01-16T05:21:32.601Z</time>
</trkpt>
<trkpt lat="-27.9199369" lon="152.5963626">
<ele>87.151</ele>
<time>2016-01-16T05:21:35.549Z</time>
</trkpt>
<trkpt lat="-27.9191786" lon="152.5965077">
<ele>87.604</ele>
<time>2016-01-16T05:21:38.598Z</time>
</trkpt>
<trkpt lat="-27.9184308" lon="152.5966505">
<ele>87.727</ele>
<time>2016-01-16T05:21:41.633Z</time>
</trkpt>
<trkpt lat="-27.9176742" lon="152.5967828">
<ele>89.065</ele>
<time>2016-01-16T05:21:44.670Z</time>
</trkpt>
<trkpt lat="-27.9169839" lon="152.5970622">
<ele>92.006</ele>
<time>2016-01-16T05:21:47.568Z</time>
</trkpt>
<trkpt lat="-27.9163170" lon="152.5974806">
<ele>95.052</ele>
<time>2016-01-16T05:21:50.585Z</time>
</trkpt>
<trkpt lat="-27.9158921" lon="152.5977786">
<ele>96.842</ele>
<time>2016-01-16T05:21:52.572Z</time>
</trkpt>
<trkpt lat="-27.9154352" lon="152.5980578">
<ele>96.982</ele>
<time>2016-01-16T05:21:54.650Z</time>
</trkpt>
<trkpt lat="-27.9147437" lon="152.5984707">
<ele>95.248</ele>
<time>2016-01-16T05:21:57.745Z</time>
</trkpt>
<trkpt lat="-27.9142313" lon="152.5987444">
<ele>92.032</ele>
<time>2016-01-16T05:21:59.842Z</time>
</trkpt>
<trkpt lat="-27.9137939" lon="152.5990152">
<ele>88.715</ele>
<time>2016-01-16T05:22:01.618Z</time>
</trkpt>
<trkpt lat="-27.9129230" lon="152.5995745">
<ele>86.648</ele>
<time>2016-01-16T05:22:04.958Z</time>
</trkpt>
<trkpt lat="-27.9121954" lon="152.6000244">
<ele>86.078</ele>
<time>2016-01-16T05:22:07.615Z</time>
</trkpt>
<trkpt lat="-27.9113943" lon="152.6005129">
<ele>87.463</ele>
<time>2016-01-16T05:22:10.561Z</time>
</trkpt>
<trkpt lat="-27.9108686" lon="152.6008604">
<ele>91.553</ele>
<time>2016-01-16T05:22:12.630Z</time>
</trkpt>
<trkpt lat="-27.9103206" lon="152.6012106">
<ele>97.589</ele>
<time>2016-01-16T05:22:14.877Z</time>
</trkpt>
<trkpt lat="-27.9095639" lon="152.6017156">
<ele>103.610</ele>
<time>2016-01-16T05:22:18.089Z</time>
</trkpt>
<trkpt lat="-27.9090834" lon="152.6020206">
<ele>107.905</ele>
<time>2016-01-16T05:22:20.120Z</time>
</trkpt>
<trkpt lat="-27.9085944" lon="152.6023355">
<ele>109.778</ele>
<time>2016-01-16T05:22:22.210Z</time>
</trkpt>
<trkpt lat="-27.9078742" lon="152.6027971">
<ele>109.965</ele>
<time>2016-01-16T05:22:25.302Z</time>
</trkpt>
<trkpt lat="-27.9073871" lon="152.6030808">
<ele>109.574</ele>
<time>2016-01-16T05:22:27.366Z</time>
</trkpt>
<trkpt lat="-27.9066800" lon="152.6034787">
<ele>108.624</ele>
<time>2016-01-16T05:22:30.360Z</time>
</trkpt>
<trkpt lat="-27.9061987" lon="152.6037626">
<ele>106.310</ele>
<time>2016-01-16T05:22:32.437Z</time>
</trkpt>
<trkpt lat="-27.9055201" lon="152.6041755">
<ele>103.113</ele>
<time>2016-01-16T05:22:35.439Z</time>
</trkpt>
<trkpt lat="-27.9048092" lon="152.6045502">
<ele>100.724</ele>
<time>2016-01-16T05:22:38.456Z</time>
</trkpt>
<trkpt lat="-27.9043614" lon="152.6047766">
<ele>99.808</ele>
<time>2016-01-16T05:22:40.305Z</time>
</trkpt>
<trkpt lat="-27.9036170" lon="152.6051058">
<ele>99.331</ele>
<time>2016-01-16T05:22:43.348Z</time>
</trkpt>
<trkpt lat="-27.9031220" lon="152.6053187">
<ele>98.271</ele>
<time>2016-01-16T05:22:45.395Z</time>
</trkpt>
<trkpt lat="-27.9024035" lon="152.6056062">
<ele>96.596</ele>
<time>2016-01-16T05:22:48.365Z</time>
</trkpt>
<trkpt lat="-27.9019162" lon="152.6057982">
<ele>94.821</ele>
<time>2016-01-16T05:22:50.386Z</time>
</trkpt>
<trkpt lat="-27.9014232" lon="152.6059642">
<ele>93.440</ele>
<time>2016-01-16T05:22:52.393Z</time>
</trkpt>
<trkpt lat="-27.9007154" lon="152.6062169">
<ele>92.627</ele>
<time>2016-01-16T05:22:55.263Z</time>
</trkpt>
<trkpt lat="-27.9002507" lon="152.6063708">
<ele>91.735</ele>
<time>2016-01-16T05:22:57.130Z</time>
</trkpt>
<trkpt lat="-27.8997477" lon="152.6065220">
<ele>90.257</ele>
<time>2016-01-16T05:22:59.129Z</time>
</trkpt>
<trkpt lat="-27.8992239" lon="152.6066641">
<ele>88.684</ele>
<time>2016-01-16T05:23:01.203Z</time>
</trkpt>
<trkpt lat="-27.8984729" lon="152.6068825">
<ele>87.347</ele>
<time>2016-01-16T05:23:04.231Z</time>
</trkpt>
<trkpt lat="-27.8977256" lon="152.6070913">
<ele>86.000</ele>
<time>2016-01-16T05:23:07.269Z</time>
</trkpt>
<trkpt lat="-27.8972328" lon="152.6072301">
<ele>84.910</ele>
<time>2016-01-16T05:23:09.274Z</time>
</trkpt>
<trkpt lat="-27.8964934" lon="152.6074209">
<ele>84.244</ele>
<time>2016-01-16T05:23:12.251Z</time>
</trkpt>
<trkpt lat="-27.8957423" lon="152.6076191">
<ele>83.295</ele>
<time>2016-01-16T05:23:15.270Z</time>
</trkpt>
<trkpt lat="-27.8952501" lon="152.6077762">
<ele>81.394</ele>
<time>2016-01-16T05:23:17.279Z</time>
</trkpt>
<trkpt lat="-27.8947568" lon="152.6079520">
<ele>78.990</ele>
<time>2016-01-16T05:23:19.318Z</time>
</trkpt>
<trkpt lat="-27.8942715" lon="152.6081376">
<ele>77.706</ele>
<time>2016-01-16T05:23:21.324Z</time>
</trkpt>
<trkpt lat="-27.8935931" lon="152.6084874">
<ele>78.236</ele>
<time>2016-01-16T05:23:24.228Z</time>
</trkpt>
<trkpt lat="-27.8929162" lon="152.6088708">
<ele>79.726</ele>
<time>2016-01-16T05:23:27.180Z</time>
</trkpt>
<trkpt lat="-27.8922684" lon="152.6093311">
<ele>81.270</ele>
<time>2016-01-16T05:23:30.199Z</time>
</trkpt>
<trkpt lat="-27.8916678" lon="152.6098281">
<ele>82.328</ele>
<time>2016-01-16T05:23:33.191Z</time>
</trkpt>
<trkpt lat="-27.8912732" lon="152.6101476">
<ele>82.543</ele>
<time>2016-01-16T05:23:35.138Z</time>
</trkpt>
<trkpt lat="-27.8908447" lon="152.6105004">
<ele>82.043</ele>
<time>2016-01-16T05:23:37.241Z</time>
</trkpt>
<trkpt lat="-27.8904263" lon="152.6108211">
<ele>81.266</ele>
<time>2016-01-16T05:23:39.243Z</time>
</trkpt>
<trkpt lat="-27.8896025" lon="152.6114835">
<ele>80.809</ele>
<time>2016-01-16T05:23:43.253Z</time>
</trkpt>
<trkpt lat="-27.8891762" lon="152.6118094">
<ele>81.000</ele>
<time>2016-01-16T05:23:45.274Z</time>
</trkpt>
<trkpt lat="-27.8885270" lon="152.6122308">
<ele>82.102</ele>
<time>2016-01-16T05:23:48.190Z</time>
</trkpt>
<trkpt lat="-27.8878436" lon="152.6126007">
<ele>84.007</ele>
<time>2016-01-16T05:23:51.146Z</time>
</trkpt>
<trkpt lat="-27.8871428" lon="152.6129084">
<ele>86.001</ele>
<time>2016-01-16T05:23:54.125Z</time>
</trkpt>
<trkpt lat="-27.8866192" lon="152.6130822">
<ele>87.472</ele>
<time>2016-01-16T05:23:56.285Z</time>
</trkpt>
<trkpt lat="-27.8859039" lon="152.6132754">
<ele>88.027</ele>
<time>2016-01-16T05:23:59.173Z</time>
</trkpt>
<trkpt lat="-27.8854303" lon="152.6134087">
<ele>87.591</ele>
<time>2016-01-16T05:24:01.070Z</time>
</trkpt>
<trkpt lat="-27.8846911" lon="152.6136149">
<ele>86.814</ele>
<time>2016-01-16T05:24:04.027Z</time>
</trkpt>
<trkpt lat="-27.8841973" lon="152.6137623">
<ele>85.320</ele>
<time>2016-01-16T05:24:06.058Z</time>
</trkpt>
<trkpt lat="-27.8837010" lon="152.6139062">
<ele>82.300</ele>
<time>2016-01-16T05:24:08.119Z</time>
</trkpt>
<trkpt lat="-27.8829433" lon="152.6141092">
<ele>79.235</ele>
<time>2016-01-16T05:24:11.301Z</time>
</trkpt>
<trkpt lat="-27.8822135" lon="152.6142945">
<ele>78.089</ele>
<time>2016-01-16T05:24:14.359Z</time>
</trkpt>
<trkpt lat="-27.8815100" lon="152.6145037">
<ele>78.455</ele>
<time>2016-01-16T05:24:17.238Z</time>
</trkpt>
<trkpt lat="-27.8810341" lon="152.6146775">
<ele>79.067</ele>
<time>2016-01-16T05:24:19.153Z</time>
</trkpt>
<trkpt lat="-27.8800497" lon="152.6149943">
<ele>79.426</ele>
<time>2016-01-16T05:24:23.018Z</time>
</trkpt>
<trkpt lat="-27.8795546" lon="152.6151381">
<ele>78.853</ele>
<time>2016-01-16T05:24:24.932Z</time>
</trkpt>
<trkpt lat="-27.8787890" lon="152.6153732">
<ele>77.083</ele>
<time>2016-01-16T05:24:27.903Z</time>
</trkpt>
<trkpt lat="-27.8782664" lon="152.6155311">
<ele>75.217</ele>
<time>2016-01-16T05:24:29.935Z</time>
</trkpt>
<trkpt lat="-27.8777368" lon="152.6156575">
<ele>74.299</ele>
<time>2016-01-16T05:24:31.987Z</time>
</trkpt>
<trkpt lat="-27.8769632" lon="152.6158984">
<ele>74.173</ele>
<time>2016-01-16T05:24:35.049Z</time>
</trkpt>
<trkpt lat="-27.8764473" lon="152.6160207">
<ele>74.446</ele>
<time>2016-01-16T05:24:37.059Z</time>
</trkpt>
<trkpt lat="-27.8756619" lon="152.6161378">
<ele>74.817</ele>
<time>2016-01-16T05:24:40.068Z</time>
</trkpt>
<trkpt lat="-27.8751459" lon="152.6161634">
<ele>74.784</ele>
<time>2016-01-16T05:24:42.061Z</time>
</trkpt>
<trkpt lat="-27.8743415" lon="152.6161234">
<ele>74.018</ele>
<time>2016-01-16T05:24:45.206Z</time>
</trkpt>
<trkpt lat="-27.8738295" lon="152.6160494">
<ele>72.924</ele>
<time>2016-01-16T05:24:47.224Z</time>
</trkpt>
<trkpt lat="-27.8730705" lon="152.6159498">
<ele>71.989</ele>
<time>2016-01-16T05:24:50.198Z</time>
</trkpt>
<trkpt lat="-27.8725623" lon="152.6158852">
<ele>71.347</ele>
<time>2016-01-16T05:24:52.184Z</time>
</trkpt>
<trkpt lat="-27.8718075" lon="152.6158089">
<ele>71.393</ele>
<time>2016-01-16T05:24:55.142Z</time>
</trkpt>
<trkpt lat="-27.8710249" lon="152.6156997">
<ele>72.594</ele>
<time>2016-01-16T05:24:58.245Z</time>
</trkpt>
<trkpt lat="-27.8705288" lon="152.6156263">
<ele>74.518</ele>
<time>2016-01-16T05:25:00.235Z</time>
</trkpt>
<trkpt lat="-27.8697677" lon="152.6155261">
<ele>76.134</ele>
<time>2016-01-16T05:25:03.292Z</time>
</trkpt>
<trkpt lat="-27.8692628" lon="152.6154536">
<ele>77.007</ele>
<time>2016-01-16T05:25:05.305Z</time>
</trkpt>
<trkpt lat="-27.8685332" lon="152.6153660">
<ele>77.328</ele>
<time>2016-01-16T05:25:08.185Z</time>
</trkpt>
<trkpt lat="-27.8680686" lon="152.6153200">
<ele>77.367</ele>
<time>2016-01-16T05:25:10.004Z</time>
</trkpt>
<trkpt lat="-27.8673025" lon="152.6152665">
<ele>77.283</ele>
<time>2016-01-16T05:25:12.978Z</time>
</trkpt>
<trkpt lat="-27.8665298" lon="152.6151654">
<ele>77.139</ele>
<time>2016-01-16T05:25:15.985Z</time>
</trkpt>
<trkpt lat="-27.8657578" lon="152.6150462">
<ele>77.008</ele>
<time>2016-01-16T05:25:19.044Z</time>
</trkpt>
<trkpt lat="-27.8649776" lon="152.6149472">
<ele>77.306</ele>
<time>2016-01-16T05:25:22.137Z</time>
</trkpt>
<trkpt lat="-27.8642351" lon="152.6148279">
<ele>79.376</ele>
<time>2016-01-16T05:25:25.057Z</time>
</trkpt>
<trkpt lat="-27.8634943" lon="152.6147128">
<ele>83.903</ele>
<time>2016-01-16T05:25:27.989Z</time>
</trkpt>
<trkpt lat="-27.8627104" lon="152.6145377">
<ele>89.051</ele>
<time>2016-01-16T05:25:31.200Z</time>
</trkpt>
<trkpt lat="-27.8622102" lon="152.6144192">
<ele>92.443</ele>
<time>2016-01-16T05:25:33.285Z</time>
</trkpt>
<trkpt lat="-27.8614624" lon="152.6142713">
<ele>93.735</ele>
<time>2016-01-16T05:25:36.355Z</time>
</trkpt>
<trkpt lat="-27.8607346" lon="152.6141578">
<ele>93.772</ele>
<time>2016-01-16T05:25:39.270Z</time>
</trkpt>
<trkpt lat="-27.8602377" lon="152.6141062">
<ele>92.156</ele>
<time>2016-01-16T05:25:41.241Z</time>
</trkpt>
<trkpt lat="-27.8597365" lon="152.6140327">
<ele>88.579</ele>
<time>2016-01-16T05:25:43.262Z</time>
</trkpt>
<trkpt lat="-27.8589803" lon="152.6139291">
<ele>84.987</ele>
<time>2016-01-16T05:25:46.277Z</time>
</trkpt>
<trkpt lat="-27.8584486" lon="152.6138775">
<ele>83.056</ele>
<time>2016-01-16T05:25:48.349Z</time>
</trkpt>
<trkpt lat="-27.8581963" lon="152.6138383">
<ele>82.487</ele>
<time>2016-01-16T05:25:49.343Z</time>
</trkpt>
<trkpt lat="-27.8571801" lon="152.6137350">
<ele>82.568</ele>
<time>2016-01-16T05:25:53.348Z</time>
</trkpt>
<trkpt lat="-27.8566721" lon="152.6137144">
<ele>82.347</ele>
<time>2016-01-16T05:25:55.328Z</time>
</trkpt>
<trkpt lat="-27.8561858" lon="152.6136871">
<ele>81.397</ele>
<time>2016-01-16T05:25:57.217Z</time>
</trkpt>
<trkpt lat="-27.8556535" lon="152.6136745">
<ele>80.075</ele>
<time>2016-01-16T05:25:59.288Z</time>
</trkpt>
<trkpt lat="-27.8551446" lon="152.6136986">
<ele>78.894</ele>
<time>2016-01-16T05:26:01.301Z</time>
</trkpt>
<trkpt lat="-27.8546385" lon="152.6137269">
<ele>78.263</ele>
<time>2016-01-16T05:26:03.310Z</time>
</trkpt>
<trkpt lat="-27.8538605" lon="152.6137711">
<ele>78.172</ele>
<time>2016-01-16T05:26:06.373Z</time>
</trkpt>
<trkpt lat="-27.8536036" lon="152.6137906">
<ele>78.194</ele>
<time>2016-01-16T05:26:07.390Z</time>
</trkpt>
<trkpt lat="-27.8525691" lon="152.6139225">
<ele>78.130</ele>
<time>2016-01-16T05:26:11.567Z</time>
</trkpt>
<trkpt lat="-27.8520558" lon="152.6140166">
<ele>77.888</ele>
<time>2016-01-16T05:26:13.701Z</time>
</trkpt>
<trkpt lat="-27.8513167" lon="152.6141533">
<ele>77.619</ele>
<time>2016-01-16T05:26:16.765Z</time>
</trkpt>
<trkpt lat="-27.8509261" lon="152.6142240">
<ele>77.292</ele>
<time>2016-01-16T05:26:18.372Z</time>
</trkpt>
<trkpt lat="-27.8504436" lon="152.6143220">
<ele>76.933</ele>
<time>2016-01-16T05:26:20.359Z</time>
</trkpt>
<trkpt lat="-27.8496994" lon="152.6144628">
<ele>76.895</ele>
<time>2016-01-16T05:26:23.415Z</time>
</trkpt>
<trkpt lat="-27.8491447" lon="152.6145952">
<ele>77.328</ele>
<time>2016-01-16T05:26:25.694Z</time>
</trkpt>
<trkpt lat="-27.8484556" lon="152.6147391">
<ele>78.028</ele>
<time>2016-01-16T05:26:28.491Z</time>
</trkpt>
<trkpt lat="-27.8477315" lon="152.6148946">
<ele>78.662</ele>
<time>2016-01-16T05:26:31.470Z</time>
</trkpt>
<trkpt lat="-27.8472482" lon="152.6149991">
<ele>78.811</ele>
<time>2016-01-16T05:26:33.491Z</time>
</trkpt>
<trkpt lat="-27.8465139" lon="152.6151549">
<ele>78.291</ele>
<time>2016-01-16T05:26:36.563Z</time>
</trkpt>
<trkpt lat="-27.8460431" lon="152.6152495">
<ele>77.297</ele>
<time>2016-01-16T05:26:38.508Z</time>
</trkpt>
<trkpt lat="-27.8456069" lon="152.6153287">
<ele>76.314</ele>
<time>2016-01-16T05:26:40.268Z</time>
</trkpt>
<trkpt lat="-27.8448983" lon="152.6154854">
<ele>75.396</ele>
<time>2016-01-16T05:26:43.123Z</time>
</trkpt>
<trkpt lat="-27.8441574" lon="152.6156345">
<ele>74.653</ele>
<time>2016-01-16T05:26:46.114Z</time>
</trkpt>
<trkpt lat="-27.8433891" lon="152.6158026">
<ele>74.623</ele>
<time>2016-01-16T05:26:49.113Z</time>
</trkpt>
<trkpt lat="-27.8429094" lon="152.6159216">
<ele>75.136</ele>
<time>2016-01-16T05:26:50.841Z</time>
</trkpt>
<trkpt lat="-27.8424170" lon="152.6160685">
<ele>75.484</ele>
<time>2016-01-16T05:26:52.481Z</time>
</trkpt>
<trkpt lat="-27.8416598" lon="152.6163088">
<ele>75.488</ele>
<time>2016-01-16T05:26:54.895Z</time>
</trkpt>
<trkpt lat="-27.8410907" lon="152.6165090">
<ele>75.584</ele>
<time>2016-01-16T05:26:56.640Z</time>
</trkpt>
<trkpt lat="-27.8404556" lon="152.6166740">
<ele>76.762</ele>
<time>2016-01-16T05:26:58.513Z</time>
</trkpt>
<trkpt lat="-27.8394325" lon="152.6168412">
<ele>79.350</ele>
<time>2016-01-16T05:27:01.490Z</time>
</trkpt>
<trkpt lat="-27.8387436" lon="152.6169117">
<ele>82.141</ele>
<time>2016-01-16T05:27:03.512Z</time>
</trkpt>
<trkpt lat="-27.8377012" lon="152.6169445">
<ele>84.061</ele>
<time>2016-01-16T05:27:06.712Z</time>
</trkpt>
<trkpt lat="-27.8366652" lon="152.6169682">
<ele>84.825</ele>
<time>2016-01-16T05:27:10.075Z</time>
</trkpt>
<trkpt lat="-27.8360443" lon="152.6169972">
<ele>83.332</ele>
<time>2016-01-16T05:27:12.173Z</time>
</trkpt>
<trkpt lat="-27.8351412" lon="152.6170234">
<ele>79.287</ele>
<time>2016-01-16T05:27:15.371Z</time>
</trkpt>
<trkpt lat="-27.8345572" lon="152.6170389">
<ele>73.931</ele>
<time>2016-01-16T05:27:17.545Z</time>
</trkpt>
<trkpt lat="-27.8339981" lon="152.6170521">
<ele>68.752</ele>
<time>2016-01-16T05:27:19.723Z</time>
</trkpt>
<trkpt lat="-27.8331709" lon="152.6170813">
<ele>65.234</ele>
<time>2016-01-16T05:27:23.036Z</time>
</trkpt>
<trkpt lat="-27.8326550" lon="152.6170638">
<ele>63.887</ele>
<time>2016-01-16T05:27:25.257Z</time>
</trkpt>
<trkpt lat="-27.8318870" lon="152.6170175">
<ele>63.732</ele>
<time>2016-01-16T05:27:28.962Z</time>
</trkpt>
<trkpt lat="-27.8311619" lon="152.6169259">
<ele>63.554</ele>
<time>2016-01-16T05:27:32.814Z</time>
</trkpt>
<trkpt lat="-27.8308034" lon="152.6168514">
<ele>62.061</ele>
<time>2016-01-16T05:27:34.807Z</time>
</trkpt>
<trkpt lat="-27.8300710" lon="152.6167425">
<ele>59.137</ele>
<time>2016-01-16T05:27:38.952Z</time>
</trkpt>
<trkpt lat="-27.8294971" lon="152.6166631">
<ele>55.908</ele>
<time>2016-01-16T05:27:42.170Z</time>
</trkpt>
<trkpt lat="-27.8291449" lon="152.6166143">
<ele>53.262</ele>
<time>2016-01-16T05:27:44.146Z</time>
</trkpt>
<trkpt lat="-27.8286079" lon="152.6165429">
<ele>51.619</ele>
<time>2016-01-16T05:27:47.194Z</time>
</trkpt>
<trkpt lat="-27.8282367" lon="152.6164941">
<ele>51.096</ele>
<time>2016-01-16T05:27:49.334Z</time>
</trkpt>
<trkpt lat="-27.8276888" lon="152.6164083">
<ele>51.228</ele>
<time>2016-01-16T05:27:52.482Z</time>
</trkpt>
<trkpt lat="-27.8271611" lon="152.6163538">
<ele>51.352</ele>
<time>2016-01-16T05:27:55.471Z</time>
</trkpt>
<trkpt lat="-27.8268055" lon="152.6162935">
<ele>51.181</ele>
<time>2016-01-16T05:27:57.497Z</time>
</trkpt>
<trkpt lat="-27.8262891" lon="152.6162324">
<ele>50.825</ele>
<time>2016-01-16T05:28:00.425Z</time>
</trkpt>
<trkpt lat="-27.8257126" lon="152.6161441">
<ele>50.403</ele>
<time>2016-01-16T05:28:03.679Z</time>
</trkpt>
<trkpt lat="-27.8251927" lon="152.6161083">
<ele>49.977</ele>
<time>2016-01-16T05:28:06.583Z</time>
</trkpt>
<trkpt lat="-27.8248368" lon="152.6160825">
<ele>49.754</ele>
<time>2016-01-16T05:28:08.583Z</time>
</trkpt>
<trkpt lat="-27.8243309" lon="152.6161165">
<ele>49.951</ele>
<time>2016-01-16T05:28:11.411Z</time>
</trkpt>
<trkpt lat="-27.8239740" lon="152.6161664">
<ele>50.694</ele>
<time>2016-01-16T05:28:13.392Z</time>
</trkpt>
<trkpt lat="-27.8236451" lon="152.6162102">
<ele>52.265</ele>
<time>2016-01-16T05:28:15.214Z</time>
</trkpt>
<trkpt lat="-27.8232980" lon="152.6162710">
<ele>54.677</ele>
<time>2016-01-16T05:28:17.169Z</time>
</trkpt>
<trkpt lat="-27.8227647" lon="152.6163767">
<ele>57.227</ele>
<time>2016-01-16T05:28:20.144Z</time>
</trkpt>
<trkpt lat="-27.8224128" lon="152.6164399">
<ele>59.590</ele>
<time>2016-01-16T05:28:21.991Z</time>
</trkpt>
<trkpt lat="-27.8220621" lon="152.6165014">
<ele>61.805</ele>
<time>2016-01-16T05:28:23.754Z</time>
</trkpt>
<trkpt lat="-27.8215394" lon="152.6166249">
<ele>62.793</ele>
<time>2016-01-16T05:28:26.098Z</time>
</trkpt>
<trkpt lat="-27.8209828" lon="152.6167389">
<ele>61.390</ele>
<time>2016-01-16T05:28:28.359Z</time>
</trkpt>
<trkpt lat="-27.8203771" lon="152.6168299">
<ele>58.518</ele>
<time>2016-01-16T05:28:30.755Z</time>
</trkpt>
<trkpt lat="-27.8199152" lon="152.6169532">
<ele>56.747</ele>
<time>2016-01-16T05:28:32.602Z</time>
</trkpt>
<trkpt lat="-27.8193920" lon="152.6170939">
<ele>57.411</ele>
<time>2016-01-16T05:28:34.687Z</time>
</trkpt>
<trkpt lat="-27.8186790" lon="152.6173709">
<ele>59.232</ele>
<time>2016-01-16T05:28:37.597Z</time>
</trkpt>
<trkpt lat="-27.8179633" lon="152.6177113">
<ele>60.546</ele>
<time>2016-01-16T05:28:40.596Z</time>
</trkpt>
<trkpt lat="-27.8174725" lon="152.6179468">
<ele>61.320</ele>
<time>2016-01-16T05:28:42.661Z</time>
</trkpt>
<trkpt lat="-27.8170079" lon="152.6181871">
<ele>62.288</ele>
<time>2016-01-16T05:28:44.644Z</time>
</trkpt>
<trkpt lat="-27.8162961" lon="152.6185625">
<ele>63.490</ele>
<time>2016-01-16T05:28:47.705Z</time>
</trkpt>
<trkpt lat="-27.8155861" lon="152.6188952">
<ele>64.543</ele>
<time>2016-01-16T05:28:50.718Z</time>
</trkpt>
<trkpt lat="-27.8148487" lon="152.6191935">
<ele>65.374</ele>
<time>2016-01-16T05:28:53.742Z</time>
</trkpt>
<trkpt lat="-27.8146078" lon="152.6192762">
<ele>65.977</ele>
<time>2016-01-16T05:28:54.704Z</time>
</trkpt>
<trkpt lat="-27.8136302" lon="152.6196531">
<ele>66.163</ele>
<time>2016-01-16T05:28:58.621Z</time>
</trkpt>
<trkpt lat="-27.8128998" lon="152.6199789">
<ele>65.567</ele>
<time>2016-01-16T05:29:01.585Z</time>
</trkpt>
<trkpt lat="-27.8121738" lon="152.6203461">
<ele>64.241</ele>
<time>2016-01-16T05:29:04.600Z</time>
</trkpt>
<trkpt lat="-27.8116844" lon="152.6205925">
<ele>63.017</ele>
<time>2016-01-16T05:29:06.646Z</time>
</trkpt>
<trkpt lat="-27.8111978" lon="152.6208252">
<ele>62.826</ele>
<time>2016-01-16T05:29:08.677Z</time>
</trkpt>
<trkpt lat="-27.8104832" lon="152.6211868">
<ele>63.738</ele>
<time>2016-01-16T05:29:11.692Z</time>
</trkpt>
<trkpt lat="-27.8100316" lon="152.6214359">
<ele>65.081</ele>
<time>2016-01-16T05:29:13.632Z</time>
</trkpt>
<trkpt lat="-27.8093185" lon="152.6217845">
<ele>66.377</ele>
<time>2016-01-16T05:29:16.658Z</time>
</trkpt>
<trkpt lat="-27.8088305" lon="152.6220234">
<ele>67.879</ele>
<time>2016-01-16T05:29:18.757Z</time>
</trkpt>
<trkpt lat="-27.8081326" lon="152.6223669">
<ele>69.533</ele>
<time>2016-01-16T05:29:21.764Z</time>
</trkpt>
<trkpt lat="-27.8076759" lon="152.6226047">
<ele>70.370</ele>
<time>2016-01-16T05:29:23.757Z</time>
</trkpt>
<trkpt lat="-27.8072208" lon="152.6228356">
<ele>69.573</ele>
<time>2016-01-16T05:29:25.762Z</time>
</trkpt>
<trkpt lat="-27.8065243" lon="152.6231888">
<ele>67.685</ele>
<time>2016-01-16T05:29:28.831Z</time>
</trkpt>
<trkpt lat="-27.8060779" lon="152.6234185">
<ele>65.628</ele>
<time>2016-01-16T05:29:30.788Z</time>
</trkpt>
<trkpt lat="-27.8056178" lon="152.6236479">
<ele>63.703</ele>
<time>2016-01-16T05:29:32.772Z</time>
</trkpt>
<trkpt lat="-27.8046934" lon="152.6241107">
<ele>62.142</ele>
<time>2016-01-16T05:29:36.761Z</time>
</trkpt>
<trkpt lat="-27.8042335" lon="152.6243494">
<ele>61.293</ele>
<time>2016-01-16T05:29:38.780Z</time>
</trkpt>
<trkpt lat="-27.8035248" lon="152.6246920">
<ele>61.290</ele>
<time>2016-01-16T05:29:41.855Z</time>
</trkpt>
<trkpt lat="-27.8030617" lon="152.6249249">
<ele>62.307</ele>
<time>2016-01-16T05:29:43.857Z</time>
</trkpt>
<trkpt lat="-27.8023747" lon="152.6252669">
<ele>64.173</ele>
<time>2016-01-16T05:29:46.842Z</time>
</trkpt>
<trkpt lat="-27.8019244" lon="152.6254978">
<ele>66.301</ele>
<time>2016-01-16T05:29:48.817Z</time>
</trkpt>
<trkpt lat="-27.8012262" lon="152.6258530">
<ele>68.134</ele>
<time>2016-01-16T05:29:51.836Z</time>
</trkpt>
<trkpt lat="-27.8009920" lon="152.6259713">
<ele>69.591</ele>
<time>2016-01-16T05:29:52.848Z</time>
</trkpt>
<trkpt lat="-27.8000679" lon="152.6264318">
<ele>72.440</ele>
<time>2016-01-16T05:29:56.892Z</time>
</trkpt>
<trkpt lat="-27.7996068" lon="152.6266629">
<ele>77.631</ele>
<time>2016-01-16T05:29:58.923Z</time>
</trkpt>
<trkpt lat="-27.7991575" lon="152.6268973">
<ele>82.542</ele>
<time>2016-01-16T05:30:00.887Z</time>
</trkpt>
<trkpt lat="-27.7987108" lon="152.6271263">
<ele>84.952</ele>
<time>2016-01-16T05:30:02.826Z</time>
</trkpt>
<trkpt lat="-27.7980466" lon="152.6274688">
<ele>85.395</ele>
<time>2016-01-16T05:30:05.699Z</time>
</trkpt>
<trkpt lat="-27.7973473" lon="152.6278345">
<ele>85.017</ele>
<time>2016-01-16T05:30:08.742Z</time>
</trkpt>
<trkpt lat="-27.7966458" lon="152.6281977">
<ele>84.587</ele>
<time>2016-01-16T05:30:11.794Z</time>
</trkpt>
<trkpt lat="-27.7961834" lon="152.6284350">
<ele>84.513</ele>
<time>2016-01-16T05:30:13.785Z</time>
</trkpt>
<trkpt lat="-27.7954878" lon="152.6287808">
<ele>85.189</ele>
<time>2016-01-16T05:30:16.764Z</time>
</trkpt>
<trkpt lat="-27.7950230" lon="152.6290227">
<ele>86.714</ele>
<time>2016-01-16T05:30:18.769Z</time>
</trkpt>
<trkpt lat="-27.7943305" lon="152.6294533">
<ele>88.674</ele>
<time>2016-01-16T05:30:21.842Z</time>
</trkpt>
<trkpt lat="-27.7937321" lon="152.6299490">
<ele>90.702</ele>
<time>2016-01-16T05:30:24.733Z</time>
</trkpt>
<trkpt lat="-27.7933354" lon="152.6303215">
<ele>92.790</ele>
<time>2016-01-16T05:30:26.758Z</time>
</trkpt>
<trkpt lat="-27.7928031" lon="152.6309332">
<ele>95.094</ele>
<time>2016-01-16T05:30:29.769Z</time>
</trkpt>
<trkpt lat="-27.7923812" lon="152.6316160">
<ele>97.226</ele>
<time>2016-01-16T05:30:32.716Z</time>
</trkpt>
<trkpt lat="-27.7919763" lon="152.6323242">
<ele>98.930</ele>
<time>2016-01-16T05:30:35.672Z</time>
</trkpt>
<trkpt lat="-27.7918468" lon="152.6325708">
<ele>101.150</ele>
<time>2016-01-16T05:30:36.672Z</time>
</trkpt>
<trkpt lat="-27.7913508" lon="152.6335736">
<ele>104.120</ele>
<time>2016-01-16T05:30:40.657Z</time>
</trkpt>
<trkpt lat="-27.7910096" lon="152.6343175">
<ele>105.861</ele>
<time>2016-01-16T05:30:43.549Z</time>
</trkpt>
<trkpt lat="-27.7906635" lon="152.6350862">
<ele>105.029</ele>
<time>2016-01-16T05:30:46.559Z</time>
</trkpt>
<trkpt lat="-27.7904267" lon="152.6356147">
<ele>102.955</ele>
<time>2016-01-16T05:30:48.630Z</time>
</trkpt>
<trkpt lat="-27.7900799" lon="152.6363696">
<ele>101.440</ele>
<time>2016-01-16T05:30:51.604Z</time>
</trkpt>
<trkpt lat="-27.7897113" lon="152.6371200">
<ele>100.609</ele>
<time>2016-01-16T05:30:54.626Z</time>
</trkpt>
<trkpt lat="-27.7894803" lon="152.6376473">
<ele>99.686</ele>
<time>2016-01-16T05:30:56.660Z</time>
</trkpt>
<trkpt lat="-27.7893607" lon="152.6379033">
<ele>98.562</ele>
<time>2016-01-16T05:30:57.656Z</time>
</trkpt>
<trkpt lat="-27.7888982" lon="152.6389158">
<ele>97.723</ele>
<time>2016-01-16T05:31:01.588Z</time>
</trkpt>
<trkpt lat="-27.7886566" lon="152.6394270">
<ele>96.969</ele>
<time>2016-01-16T05:31:03.607Z</time>
</trkpt>
<trkpt lat="-27.7884251" lon="152.6399394">
<ele>95.572</ele>
<time>2016-01-16T05:31:05.633Z</time>
</trkpt>
<trkpt lat="-27.7880853" lon="152.6407097">
<ele>93.352</ele>
<time>2016-01-16T05:31:08.681Z</time>
</trkpt>
<trkpt lat="-27.7878536" lon="152.6412063">
<ele>90.627</ele>
<time>2016-01-16T05:31:10.677Z</time>
</trkpt>
<trkpt lat="-27.7875074" lon="152.6419368">
<ele>87.491</ele>
<time>2016-01-16T05:31:13.637Z</time>
</trkpt>
<trkpt lat="-27.7872805" lon="152.6424269">
<ele>84.288</ele>
<time>2016-01-16T05:31:15.615Z</time>
</trkpt>
<trkpt lat="-27.7869279" lon="152.6431591">
<ele>79.450</ele>
<time>2016-01-16T05:31:18.577Z</time>
</trkpt>
<trkpt lat="-27.7866956" lon="152.6436639">
<ele>71.891</ele>
<time>2016-01-16T05:31:20.575Z</time>
</trkpt>
<trkpt lat="-27.7863311" lon="152.6443996">
<ele>64.964</ele>
<time>2016-01-16T05:31:23.518Z</time>
</trkpt>
<trkpt lat="-27.7860652" lon="152.6448734">
<ele>61.722</ele>
<time>2016-01-16T05:31:25.479Z</time>
</trkpt>
<trkpt lat="-27.7855869" lon="152.6455249">
<ele>60.631</ele>
<time>2016-01-16T05:31:28.449Z</time>
</trkpt>
<trkpt lat="-27.7852152" lon="152.6459300">
<ele>59.795</ele>
<time>2016-01-16T05:31:30.462Z</time>
</trkpt>
<trkpt lat="-27.7848436" lon="152.6462973">
<ele>58.803</ele>
<time>2016-01-16T05:31:32.364Z</time>
</trkpt>
<trkpt lat="-27.7842166" lon="152.6467953">
<ele>57.940</ele>
<time>2016-01-16T05:31:35.244Z</time>
</trkpt>
<trkpt lat="-27.7835149" lon="152.6472340">
<ele>57.386</ele>
<time>2016-01-16T05:31:38.319Z</time>
</trkpt>
<trkpt lat="-27.7830292" lon="152.6474780">
<ele>57.069</ele>
<time>2016-01-16T05:31:40.411Z</time>
</trkpt>
<trkpt lat="-27.7825362" lon="152.6476785">
<ele>56.700</ele>
<time>2016-01-16T05:31:42.483Z</time>
</trkpt>
<trkpt lat="-27.7818202" lon="152.6478291">
<ele>56.149</ele>
<time>2016-01-16T05:31:45.326Z</time>
</trkpt>
<trkpt lat="-27.7810758" lon="152.6479742">
<ele>54.716</ele>
<time>2016-01-16T05:31:48.231Z</time>
</trkpt>
<trkpt lat="-27.7803201" lon="152.6481124">
<ele>51.838</ele>
<time>2016-01-16T05:31:51.170Z</time>
</trkpt>
<trkpt lat="-27.7798020" lon="152.6481980">
<ele>48.556</ele>
<time>2016-01-16T05:31:53.181Z</time>
</trkpt>
<trkpt lat="-27.7790258" lon="152.6483288">
<ele>46.308</ele>
<time>2016-01-16T05:31:56.171Z</time>
</trkpt>
<trkpt lat="-27.7782744" lon="152.6484655">
<ele>45.347</ele>
<time>2016-01-16T05:31:59.081Z</time>
</trkpt>
<trkpt lat="-27.7774960" lon="152.6486119">
<ele>45.355</ele>
<time>2016-01-16T05:32:02.151Z</time>
</trkpt>
<trkpt lat="-27.7767453" lon="152.6487362">
<ele>45.944</ele>
<time>2016-01-16T05:32:05.108Z</time>
</trkpt>
<trkpt lat="-27.7762398" lon="152.6488269">
<ele>46.895</ele>
<time>2016-01-16T05:32:07.097Z</time>
</trkpt>
<trkpt lat="-27.7754448" lon="152.6489738">
<ele>48.056</ele>
<time>2016-01-16T05:32:10.241Z</time>
</trkpt>
<trkpt lat="-27.7749346" lon="152.6490682">
<ele>49.073</ele>
<time>2016-01-16T05:32:12.274Z</time>
</trkpt>
<trkpt lat="-27.7744163" lon="152.6491649">
<ele>49.249</ele>
<time>2016-01-16T05:32:14.325Z</time>
</trkpt>
<trkpt lat="-27.7736661" lon="152.6493058">
<ele>48.434</ele>
<time>2016-01-16T05:32:17.259Z</time>
</trkpt>
<trkpt lat="-27.7731700" lon="152.6494064">
<ele>47.289</ele>
<time>2016-01-16T05:32:19.193Z</time>
</trkpt>
<trkpt lat="-27.7723929" lon="152.6495423">
<ele>46.397</ele>
<time>2016-01-16T05:32:22.253Z</time>
</trkpt>
<trkpt lat="-27.7716403" lon="152.6496990">
<ele>45.877</ele>
<time>2016-01-16T05:32:25.247Z</time>
</trkpt>
<trkpt lat="-27.7709138" lon="152.6498355">
<ele>45.920</ele>
<time>2016-01-16T05:32:28.141Z</time>
</trkpt>
<trkpt lat="-27.7704072" lon="152.6499183">
<ele>47.164</ele>
<time>2016-01-16T05:32:30.173Z</time>
</trkpt>
<trkpt lat="-27.7696472" lon="152.6500627">
<ele>49.562</ele>
<time>2016-01-16T05:32:33.230Z</time>
</trkpt>
<trkpt lat="-27.7691453" lon="152.6501499">
<ele>51.796</ele>
<time>2016-01-16T05:32:35.212Z</time>
</trkpt>
<trkpt lat="-27.7681681" lon="152.6503386">
<ele>52.982</ele>
<time>2016-01-16T05:32:39.103Z</time>
</trkpt>
<trkpt lat="-27.7676708" lon="152.6504391">
<ele>53.983</ele>
<time>2016-01-16T05:32:41.084Z</time>
</trkpt>
<trkpt lat="-27.7669291" lon="152.6505959">
<ele>55.751</ele>
<time>2016-01-16T05:32:44.025Z</time>
</trkpt>
<trkpt lat="-27.7664045" lon="152.6506774">
<ele>57.792</ele>
<time>2016-01-16T05:32:46.080Z</time>
</trkpt>
<trkpt lat="-27.7656458" lon="152.6508280">
<ele>59.809</ele>
<time>2016-01-16T05:32:49.077Z</time>
</trkpt>
<trkpt lat="-27.7648780" lon="152.6509686">
<ele>62.140</ele>
<time>2016-01-16T05:32:52.078Z</time>
</trkpt>
<trkpt lat="-27.7641263" lon="152.6510989">
<ele>63.560</ele>
<time>2016-01-16T05:32:54.961Z</time>
</trkpt>
<trkpt lat="-27.7633532" lon="152.6512438">
<ele>62.436</ele>
<time>2016-01-16T05:32:57.952Z</time>
</trkpt>
<trkpt lat="-27.7625831" lon="152.6513548">
<ele>59.424</ele>
<time>2016-01-16T05:33:00.957Z</time>
</trkpt>
<trkpt lat="-27.7618103" lon="152.6514901">
<ele>56.639</ele>
<time>2016-01-16T05:33:03.975Z</time>
</trkpt>
<trkpt lat="-27.7613034" lon="152.6515868">
<ele>54.821</ele>
<time>2016-01-16T05:33:05.957Z</time>
</trkpt>
<trkpt lat="-27.7605334" lon="152.6517226">
<ele>53.393</ele>
<time>2016-01-16T05:33:08.970Z</time>
</trkpt>
<trkpt lat="-27.7600158" lon="152.6518183">
<ele>52.081</ele>
<time>2016-01-16T05:33:10.998Z</time>
</trkpt>
<trkpt lat="-27.7592361" lon="152.6519581">
<ele>50.947</ele>
<time>2016-01-16T05:33:14.050Z</time>
</trkpt>
<trkpt lat="-27.7587348" lon="152.6520489">
<ele>50.748</ele>
<time>2016-01-16T05:33:16.011Z</time>
</trkpt>
<trkpt lat="-27.7582210" lon="152.6521449">
<ele>52.179</ele>
<time>2016-01-16T05:33:18.024Z</time>
</trkpt>
<trkpt lat="-27.7574390" lon="152.6522865">
<ele>54.449</ele>
<time>2016-01-16T05:33:21.084Z</time>
</trkpt>
<trkpt lat="-27.7566719" lon="152.6524223">
<ele>56.655</ele>
<time>2016-01-16T05:33:24.099Z</time>
</trkpt>
<trkpt lat="-27.7559085" lon="152.6525589">
<ele>58.754</ele>
<time>2016-01-16T05:33:27.103Z</time>
</trkpt>
<trkpt lat="-27.7554138" lon="152.6526676">
<ele>60.846</ele>
<time>2016-01-16T05:33:29.062Z</time>
</trkpt>
<trkpt lat="-27.7546564" lon="152.6528233">
<ele>62.741</ele>
<time>2016-01-16T05:33:32.099Z</time>
</trkpt>
<trkpt lat="-27.7538984" lon="152.6529715">
<ele>64.705</ele>
<time>2016-01-16T05:33:35.152Z</time>
</trkpt>
<trkpt lat="-27.7531683" lon="152.6530948">
<ele>67.007</ele>
<time>2016-01-16T05:33:38.038Z</time>
</trkpt>
<trkpt lat="-27.7524161" lon="152.6532175">
<ele>68.883</ele>
<time>2016-01-16T05:33:41.011Z</time>
</trkpt>
<trkpt lat="-27.7519020" lon="152.6533116">
<ele>69.551</ele>
<time>2016-01-16T05:33:43.079Z</time>
</trkpt>
<trkpt lat="-27.7511363" lon="152.6534554">
<ele>69.443</ele>
<time>2016-01-16T05:33:46.153Z</time>
</trkpt>
<trkpt lat="-27.7506489" lon="152.6535445">
<ele>69.159</ele>
<time>2016-01-16T05:33:48.108Z</time>
</trkpt>
<trkpt lat="-27.7501645" lon="152.6536370">
<ele>68.796</ele>
<time>2016-01-16T05:33:50.105Z</time>
</trkpt>
<trkpt lat="-27.7493942" lon="152.6537962">
<ele>68.083</ele>
<time>2016-01-16T05:33:53.344Z</time>
</trkpt>
<trkpt lat="-27.7489299" lon="152.6538687">
<ele>66.958</ele>
<time>2016-01-16T05:33:55.246Z</time>
</trkpt>
<trkpt lat="-27.7482348" lon="152.6540047">
<ele>65.641</ele>
<time>2016-01-16T05:33:58.078Z</time>
</trkpt>
<trkpt lat="-27.7477531" lon="152.6541078">
<ele>63.573</ele>
<time>2016-01-16T05:34:00.028Z</time>
</trkpt>
<trkpt lat="-27.7470095" lon="152.6542354">
<ele>60.270</ele>
<time>2016-01-16T05:34:02.989Z</time>
</trkpt>
<trkpt lat="-27.7465244" lon="152.6543115">
<ele>56.583</ele>
<time>2016-01-16T05:34:04.908Z</time>
</trkpt>
<trkpt lat="-27.7460188" lon="152.6544189">
<ele>53.350</ele>
<time>2016-01-16T05:34:06.929Z</time>
</trkpt>
<trkpt lat="-27.7452502" lon="152.6545284">
<ele>50.498</ele>
<time>2016-01-16T05:34:10.006Z</time>
</trkpt>
<trkpt lat="-27.7445002" lon="152.6546763">
<ele>47.795</ele>
<time>2016-01-16T05:34:13.032Z</time>
</trkpt>
<trkpt lat="-27.7440120" lon="152.6547666">
<ele>45.072</ele>
<time>2016-01-16T05:34:15.023Z</time>
</trkpt>
<trkpt lat="-27.7435167" lon="152.6548835">
<ele>42.494</ele>
<time>2016-01-16T05:34:17.073Z</time>
</trkpt>
<trkpt lat="-27.7427930" lon="152.6550993">
<ele>40.409</ele>
<time>2016-01-16T05:34:20.078Z</time>
</trkpt>
<trkpt lat="-27.7423239" lon="152.6552298">
<ele>38.645</ele>
<time>2016-01-16T05:34:21.991Z</time>
</trkpt>
<trkpt lat="-27.7415892" lon="152.6553935">
<ele>36.738</ele>
<time>2016-01-16T05:34:24.959Z</time>
</trkpt>
<trkpt lat="-27.7408307" lon="152.6555336">
<ele>34.750</ele>
<time>2016-01-16T05:34:28.009Z</time>
</trkpt>
<trkpt lat="-27.7403402" lon="152.6556215">
<ele>33.101</ele>
<time>2016-01-16T05:34:29.969Z</time>
</trkpt>
<trkpt lat="-27.7398475" lon="152.6557061">
<ele>32.079</ele>
<time>2016-01-16T05:34:31.932Z</time>
</trkpt>
<trkpt lat="-27.7390877" lon="152.6558413">
<ele>31.729</ele>
<time>2016-01-16T05:34:34.961Z</time>
</trkpt>
<trkpt lat="-27.7385896" lon="152.6559427">
<ele>31.760</ele>
<time>2016-01-16T05:34:36.948Z</time>
</trkpt>
<trkpt lat="-27.7378474" lon="152.6560945">
<ele>32.137</ele>
<time>2016-01-16T05:34:39.898Z</time>
</trkpt>
<trkpt lat="-27.7373496" lon="152.6562172">
<ele>32.872</ele>
<time>2016-01-16T05:34:41.885Z</time>
</trkpt>
<trkpt lat="-27.7365974" lon="152.6563993">
<ele>33.244</ele>
<time>2016-01-16T05:34:44.858Z</time>
</trkpt>
<trkpt lat="-27.7358476" lon="152.6565734">
<ele>32.683</ele>
<time>2016-01-16T05:34:47.823Z</time>
</trkpt>
<trkpt lat="-27.7350839" lon="152.6567585">
<ele>31.644</ele>
<time>2016-01-16T05:34:50.855Z</time>
</trkpt>
<trkpt lat="-27.7345852" lon="152.6568855">
<ele>30.660</ele>
<time>2016-01-16T05:34:52.837Z</time>
</trkpt>
<trkpt lat="-27.7338306" lon="152.6570673">
<ele>29.790</ele>
<time>2016-01-16T05:34:55.848Z</time>
</trkpt>
<trkpt lat="-27.7330747" lon="152.6572510">
<ele>29.111</ele>
<time>2016-01-16T05:34:58.891Z</time>
</trkpt>
<trkpt lat="-27.7325761" lon="152.6573681">
<ele>28.787</ele>
<time>2016-01-16T05:35:00.901Z</time>
</trkpt>
<trkpt lat="-27.7318326" lon="152.6575481">
<ele>28.902</ele>
<time>2016-01-16T05:35:03.891Z</time>
</trkpt>
<trkpt lat="-27.7313444" lon="152.6576785">
<ele>29.989</ele>
<time>2016-01-16T05:35:05.865Z</time>
</trkpt>
<trkpt lat="-27.7306118" lon="152.6579491">
<ele>32.759</ele>
<time>2016-01-16T05:35:08.901Z</time>
</trkpt>
<trkpt lat="-27.7301405" lon="152.6581943">
<ele>37.188</ele>
<time>2016-01-16T05:35:10.937Z</time>
</trkpt>
<trkpt lat="-27.7294927" lon="152.6586312">
<ele>42.301</ele>
<time>2016-01-16T05:35:13.872Z</time>
</trkpt>
<trkpt lat="-27.7288722" lon="152.6591371">
<ele>46.567</ele>
<time>2016-01-16T05:35:16.882Z</time>
</trkpt>
<trkpt lat="-27.7282791" lon="152.6596988">
<ele>48.869</ele>
<time>2016-01-16T05:35:19.955Z</time>
</trkpt>
<trkpt lat="-27.7277522" lon="152.6602870">
<ele>49.435</ele>
<time>2016-01-16T05:35:22.862Z</time>
</trkpt>
<trkpt lat="-27.7274030" lon="152.6607107">
<ele>48.448</ele>
<time>2016-01-16T05:35:24.885Z</time>
</trkpt>
<trkpt lat="-27.7270565" lon="152.6611308">
<ele>46.183</ele>
<time>2016-01-16T05:35:26.902Z</time>
</trkpt>
<trkpt lat="-27.7267164" lon="152.6615430">
<ele>44.026</ele>
<time>2016-01-16T05:35:28.893Z</time>
</trkpt>
<trkpt lat="-27.7261912" lon="152.6621596">
<ele>43.044</ele>
<time>2016-01-16T05:35:31.911Z</time>
</trkpt>
<trkpt lat="-27.7256379" lon="152.6627277">
<ele>42.670</ele>
<time>2016-01-16T05:35:34.887Z</time>
</trkpt>
<trkpt lat="-27.7252431" lon="152.6630805">
<ele>41.964</ele>
<time>2016-01-16T05:35:36.901Z</time>
</trkpt>
<trkpt lat="-27.7248300" lon="152.6634124">
<ele>40.803</ele>
<time>2016-01-16T05:35:38.939Z</time>
</trkpt>
<trkpt lat="-27.7241901" lon="152.6638497">
<ele>39.665</ele>
<time>2016-01-16T05:35:41.947Z</time>
</trkpt>
<trkpt lat="-27.7237509" lon="152.6641014">
<ele>38.772</ele>
<time>2016-01-16T05:35:43.912Z</time>
</trkpt>
<trkpt lat="-27.7232978" lon="152.6643299">
<ele>38.066</ele>
<time>2016-01-16T05:35:45.870Z</time>
</trkpt>
<trkpt lat="-27.7228336" lon="152.6645400">
<ele>37.310</ele>
<time>2016-01-16T05:35:47.834Z</time>
</trkpt>
<trkpt lat="-27.7221171" lon="152.6647757">
<ele>36.432</ele>
<time>2016-01-16T05:35:50.788Z</time>
</trkpt>
<trkpt lat="-27.7216210" lon="152.6649010">
<ele>35.791</ele>
<time>2016-01-16T05:35:52.851Z</time>
</trkpt>
<trkpt lat="-27.7208583" lon="152.6650314">
<ele>35.581</ele>
<time>2016-01-16T05:35:56.026Z</time>
</trkpt>
<trkpt lat="-27.7203689" lon="152.6650670">
<ele>35.616</ele>
<time>2016-01-16T05:35:58.012Z</time>
</trkpt>
<trkpt lat="-27.7196535" lon="152.6650837">
<ele>35.654</ele>
<time>2016-01-16T05:36:00.879Z</time>
</trkpt>
<trkpt lat="-27.7191262" lon="152.6650443">
<ele>35.583</ele>
<time>2016-01-16T05:36:03.005Z</time>
</trkpt>
<trkpt lat="-27.7186282" lon="152.6649988">
<ele>35.391</ele>
<time>2016-01-16T05:36:05.028Z</time>
</trkpt>
<trkpt lat="-27.7178787" lon="152.6649066">
<ele>34.887</ele>
<time>2016-01-16T05:36:08.067Z</time>
</trkpt>
<trkpt lat="-27.7173891" lon="152.6648383">
<ele>33.722</ele>
<time>2016-01-16T05:36:10.051Z</time>
</trkpt>
<trkpt lat="-27.7168885" lon="152.6647785">
<ele>31.898</ele>
<time>2016-01-16T05:36:12.073Z</time>
</trkpt>
<trkpt lat="-27.7161553" lon="152.6646970">
<ele>30.071</ele>
<time>2016-01-16T05:36:15.015Z</time>
</trkpt>
<trkpt lat="-27.7156686" lon="152.6646598">
<ele>29.212</ele>
<time>2016-01-16T05:36:16.969Z</time>
</trkpt>
<trkpt lat="-27.7149203" lon="152.6645821">
<ele>29.729</ele>
<time>2016-01-16T05:36:20.033Z</time>
</trkpt>
<trkpt lat="-27.7144192" lon="152.6645270">
<ele>31.032</ele>
<time>2016-01-16T05:36:22.071Z</time>
</trkpt>
<trkpt lat="-27.7141751" lon="152.6645064">
<ele>32.269</ele>
<time>2016-01-16T05:36:23.052Z</time>
</trkpt>
<trkpt lat="-27.7131790" lon="152.6645194">
<ele>33.053</ele>
<time>2016-01-16T05:36:27.094Z</time>
</trkpt>
<trkpt lat="-27.7126853" lon="152.6645925">
<ele>33.211</ele>
<time>2016-01-16T05:36:29.163Z</time>
</trkpt>
<trkpt lat="-27.7119856" lon="152.6648198">
<ele>32.785</ele>
<time>2016-01-16T05:36:32.224Z</time>
</trkpt>
<trkpt lat="-27.7115617" lon="152.6650537">
<ele>32.238</ele>
<time>2016-01-16T05:36:34.190Z</time>
</trkpt>
<trkpt lat="-27.7111307" lon="152.6653338">
<ele>32.533</ele>
<time>2016-01-16T05:36:36.231Z</time>
</trkpt>
<trkpt lat="-27.7107375" lon="152.6656156">
<ele>33.980</ele>
<time>2016-01-16T05:36:38.123Z</time>
</trkpt>
<trkpt lat="-27.7101374" lon="152.6660827">
<ele>35.412</ele>
<time>2016-01-16T05:36:41.066Z</time>
</trkpt>
<trkpt lat="-27.7095101" lon="152.6665625">
<ele>35.710</ele>
<time>2016-01-16T05:36:44.112Z</time>
</trkpt>
<trkpt lat="-27.7091121" lon="152.6668826">
<ele>35.028</ele>
<time>2016-01-16T05:36:46.074Z</time>
</trkpt>
<trkpt lat="-27.7086987" lon="152.6672059">
<ele>33.601</ele>
<time>2016-01-16T05:36:48.102Z</time>
</trkpt>
<trkpt lat="-27.7080682" lon="152.6676923">
<ele>31.766</ele>
<time>2016-01-16T05:36:51.196Z</time>
</trkpt>
<trkpt lat="-27.7076560" lon="152.6680209">
<ele>30.614</ele>
<time>2016-01-16T05:36:53.253Z</time>
</trkpt>
<trkpt lat="-27.7070796" lon="152.6684586">
<ele>31.269</ele>
<time>2016-01-16T05:36:56.091Z</time>
</trkpt>
<trkpt lat="-27.7066766" lon="152.6687766">
<ele>33.320</ele>
<time>2016-01-16T05:36:58.097Z</time>
</trkpt>
<trkpt lat="-27.7060770" lon="152.6692516">
<ele>34.862</ele>
<time>2016-01-16T05:37:01.083Z</time>
</trkpt>
<trkpt lat="-27.7056761" lon="152.6695685">
<ele>34.602</ele>
<time>2016-01-16T05:37:03.077Z</time>
</trkpt>
<trkpt lat="-27.7050674" lon="152.6700431">
<ele>33.249</ele>
<time>2016-01-16T05:37:06.072Z</time>
</trkpt>
<trkpt lat="-27.7046575" lon="152.6703426">
<ele>32.089</ele>
<time>2016-01-16T05:37:08.049Z</time>
</trkpt>
<trkpt lat="-27.7042517" lon="152.6706388">
<ele>31.580</ele>
<time>2016-01-16T05:37:10.004Z</time>
</trkpt>
<trkpt lat="-27.7035956" lon="152.6710292">
<ele>31.517</ele>
<time>2016-01-16T05:37:12.986Z</time>
</trkpt>
<trkpt lat="-27.7031569" lon="152.6712251">
<ele>31.821</ele>
<time>2016-01-16T05:37:14.864Z</time>
</trkpt>
<trkpt lat="-27.7024577" lon="152.6714556">
<ele>32.546</ele>
<time>2016-01-16T05:37:17.731Z</time>
</trkpt>
<trkpt lat="-27.7017011" lon="152.6715903">
<ele>33.811</ele>
<time>2016-01-16T05:37:20.777Z</time>
</trkpt>
<trkpt lat="-27.7011904" lon="152.6716171">
<ele>35.827</ele>
<time>2016-01-16T05:37:22.838Z</time>
</trkpt>
<trkpt lat="-27.7004393" lon="152.6716395">
<ele>38.140</ele>
<time>2016-01-16T05:37:25.856Z</time>
</trkpt>
<trkpt lat="-27.6996875" lon="152.6716965">
<ele>39.343</ele>
<time>2016-01-16T05:37:28.871Z</time>
</trkpt>
<trkpt lat="-27.6991847" lon="152.6717178">
<ele>38.881</ele>
<time>2016-01-16T05:37:30.892Z</time>
</trkpt>
<trkpt lat="-27.6984388" lon="152.6717761">
<ele>37.656</ele>
<time>2016-01-16T05:37:33.950Z</time>
</trkpt>
<trkpt lat="-27.6977013" lon="152.6718428">
<ele>36.351</ele>
<time>2016-01-16T05:37:37.107Z</time>
</trkpt>
<trkpt lat="-27.6969570" lon="152.6718693">
<ele>34.967</ele>
<time>2016-01-16T05:37:40.464Z</time>
</trkpt>
<trkpt lat="-27.6964791" lon="152.6719070">
<ele>33.695</ele>
<time>2016-01-16T05:37:42.639Z</time>
</trkpt>
<trkpt lat="-27.6960076" lon="152.6719308">
<ele>32.761</ele>
<time>2016-01-16T05:37:44.692Z</time>
</trkpt>
<trkpt lat="-27.6955785" lon="152.6719587">
<ele>31.928</ele>
<time>2016-01-16T05:37:46.528Z</time>
</trkpt>
<trkpt lat="-27.6949210" lon="152.6719921">
<ele>30.475</ele>
<time>2016-01-16T05:37:49.335Z</time>
</trkpt>
<trkpt lat="-27.6944520" lon="152.6720338">
<ele>28.360</ele>
<time>2016-01-16T05:37:51.334Z</time>
</trkpt>
<trkpt lat="-27.6939918" lon="152.6720738">
<ele>26.653</ele>
<time>2016-01-16T05:37:53.281Z</time>
</trkpt>
<trkpt lat="-27.6935348" lon="152.6720944">
<ele>26.192</ele>
<time>2016-01-16T05:37:55.154Z</time>
</trkpt>
<trkpt lat="-27.6928289" lon="152.6721414">
<ele>26.711</ele>
<time>2016-01-16T05:37:57.974Z</time>
</trkpt>
<trkpt lat="-27.6923588" lon="152.6721783">
<ele>27.566</ele>
<time>2016-01-16T05:37:59.829Z</time>
</trkpt>
<trkpt lat="-27.6916040" lon="152.6722199">
<ele>28.310</ele>
<time>2016-01-16T05:38:02.829Z</time>
</trkpt>
<trkpt lat="-27.6910730" lon="152.6722574">
<ele>29.259</ele>
<time>2016-01-16T05:38:04.932Z</time>
</trkpt>
<trkpt lat="-27.6903297" lon="152.6724196">
<ele>30.822</ele>
<time>2016-01-16T05:38:07.918Z</time>
</trkpt>
<trkpt lat="-27.6898570" lon="152.6726113">
<ele>32.473</ele>
<time>2016-01-16T05:38:09.916Z</time>
</trkpt>
<trkpt lat="-27.6894050" lon="152.6728517">
<ele>33.400</ele>
<time>2016-01-16T05:38:11.904Z</time>
</trkpt>
<trkpt lat="-27.6889906" lon="152.6731674">
<ele>33.782</ele>
<time>2016-01-16T05:38:13.892Z</time>
</trkpt>
<trkpt lat="-27.6884072" lon="152.6736889">
<ele>34.393</ele>
<time>2016-01-16T05:38:16.821Z</time>
</trkpt>
<trkpt lat="-27.6880215" lon="152.6740498">
<ele>35.812</ele>
<time>2016-01-16T05:38:18.781Z</time>
</trkpt>
<trkpt lat="-27.6876282" lon="152.6744104">
<ele>37.686</ele>
<time>2016-01-16T05:38:20.757Z</time>
</trkpt>
<trkpt lat="-27.6870041" lon="152.6749511">
<ele>39.248</ele>
<time>2016-01-16T05:38:23.809Z</time>
</trkpt>
<trkpt lat="-27.6865851" lon="152.6753140">
<ele>40.233</ele>
<time>2016-01-16T05:38:25.838Z</time>
</trkpt>
<trkpt lat="-27.6859781" lon="152.6758827">
<ele>40.787</ele>
<time>2016-01-16T05:38:28.876Z</time>
</trkpt>
<trkpt lat="-27.6856503" lon="152.6763177">
<ele>41.376</ele>
<time>2016-01-16T05:38:30.845Z</time>
</trkpt>
<trkpt lat="-27.6851339" lon="152.6769895">
<ele>42.328</ele>
<time>2016-01-16T05:38:33.961Z</time>
</trkpt>
<trkpt lat="-27.6846344" lon="152.6776224">
<ele>43.188</ele>
<time>2016-01-16T05:38:36.929Z</time>
</trkpt>
<trkpt lat="-27.6843083" lon="152.6780561">
<ele>43.168</ele>
<time>2016-01-16T05:38:38.879Z</time>
</trkpt>
<trkpt lat="-27.6839873" lon="152.6784833">
<ele>42.157</ele>
<time>2016-01-16T05:38:40.804Z</time>
</trkpt>
<trkpt lat="-27.6836448" lon="152.6789106">
<ele>40.870</ele>
<time>2016-01-16T05:38:42.797Z</time>
</trkpt>
<trkpt lat="-27.6833045" lon="152.6793527">
<ele>40.019</ele>
<time>2016-01-16T05:38:44.845Z</time>
</trkpt>
<trkpt lat="-27.6828090" lon="152.6800157">
<ele>39.645</ele>
<time>2016-01-16T05:38:47.912Z</time>
</trkpt>
<trkpt lat="-27.6823947" lon="152.6807070">
<ele>39.264</ele>
<time>2016-01-16T05:38:50.838Z</time>
</trkpt>
<trkpt lat="-27.6820131" lon="152.6814487">
<ele>38.136</ele>
<time>2016-01-16T05:38:53.832Z</time>
</trkpt>
<trkpt lat="-27.6816782" lon="152.6822381">
<ele>36.133</ele>
<time>2016-01-16T05:38:56.920Z</time>
</trkpt>
<trkpt lat="-27.6814931" lon="152.6827470">
<ele>34.100</ele>
<time>2016-01-16T05:38:58.871Z</time>
</trkpt>
<trkpt lat="-27.6811842" lon="152.6834928">
<ele>32.900</ele>
<time>2016-01-16T05:39:01.786Z</time>
</trkpt>
<trkpt lat="-27.6808367" lon="152.6842208">
<ele>32.493</ele>
<time>2016-01-16T05:39:04.691Z</time>
</trkpt>
<trkpt lat="-27.6804451" lon="152.6849462">
<ele>32.085</ele>
<time>2016-01-16T05:39:07.669Z</time>
</trkpt>
<trkpt lat="-27.6801389" lon="152.6853973">
<ele>31.253</ele>
<time>2016-01-16T05:39:09.661Z</time>
</trkpt>
<trkpt lat="-27.6798269" lon="152.6858408">
<ele>30.268</ele>
<time>2016-01-16T05:39:11.642Z</time>
</trkpt>
<trkpt lat="-27.6794819" lon="152.6862402">
<ele>29.429</ele>
<time>2016-01-16T05:39:13.590Z</time>
</trkpt>
<trkpt lat="-27.6789072" lon="152.6868199">
<ele>28.843</ele>
<time>2016-01-16T05:39:16.642Z</time>
</trkpt>
<trkpt lat="-27.6784948" lon="152.6871793">
<ele>28.468</ele>
<time>2016-01-16T05:39:18.716Z</time>
</trkpt>
<trkpt lat="-27.6778520" lon="152.6876524">
<ele>28.125</ele>
<time>2016-01-16T05:39:21.754Z</time>
</trkpt>
<trkpt lat="-27.6771855" lon="152.6880381">
<ele>27.851</ele>
<time>2016-01-16T05:39:24.710Z</time>
</trkpt>
<trkpt lat="-27.6764932" lon="152.6883549">
<ele>27.742</ele>
<time>2016-01-16T05:39:27.795Z</time>
</trkpt>
<trkpt lat="-27.6760130" lon="152.6885298">
<ele>27.739</ele>
<time>2016-01-16T05:39:30.022Z</time>
</trkpt>
<trkpt lat="-27.6753071" lon="152.6887413">
<ele>27.752</ele>
<time>2016-01-16T05:39:33.560Z</time>
</trkpt>
<trkpt lat="-27.6748799" lon="152.6888754">
<ele>27.150</ele>
<time>2016-01-16T05:39:35.776Z</time>
</trkpt>
<trkpt lat="-27.6740935" lon="152.6890855">
<ele>24.905</ele>
<time>2016-01-16T05:39:39.856Z</time>
</trkpt>
<trkpt lat="-27.6735192" lon="152.6892797">
<ele>21.532</ele>
<time>2016-01-16T05:39:42.910Z</time>
</trkpt>
<trkpt lat="-27.6731381" lon="152.6893860">
<ele>18.796</ele>
<time>2016-01-16T05:39:44.922Z</time>
</trkpt>
<trkpt lat="-27.6727575" lon="152.6894987">
<ele>17.647</ele>
<time>2016-01-16T05:39:46.937Z</time>
</trkpt>
<trkpt lat="-27.6721994" lon="152.6896575">
<ele>17.834</ele>
<time>2016-01-16T05:39:49.877Z</time>
</trkpt>
<trkpt lat="-27.6718200" lon="152.6897643">
<ele>18.889</ele>
<time>2016-01-16T05:39:51.877Z</time>
</trkpt>
<trkpt lat="-27.6712564" lon="152.6899477">
<ele>20.420</ele>
<time>2016-01-16T05:39:54.905Z</time>
</trkpt>
<trkpt lat="-27.6706902" lon="152.6901125">
<ele>21.937</ele>
<time>2016-01-16T05:39:57.878Z</time>
</trkpt>
<trkpt lat="-27.6703221" lon="152.6902383">
<ele>23.394</ele>
<time>2016-01-16T05:39:59.810Z</time>
</trkpt>
<trkpt lat="-27.6699543" lon="152.6903743">
<ele>25.106</ele>
<time>2016-01-16T05:40:01.755Z</time>
</trkpt>
<trkpt lat="-27.6695915" lon="152.6905314">
<ele>26.597</ele>
<time>2016-01-16T05:40:03.734Z</time>
</trkpt>
<trkpt lat="-27.6692226" lon="152.6907032">
<ele>27.227</ele>
<time>2016-01-16T05:40:05.792Z</time>
</trkpt>
<trkpt lat="-27.6686736" lon="152.6909428">
<ele>26.989</ele>
<time>2016-01-16T05:40:08.898Z</time>
</trkpt>
<trkpt lat="-27.6681409" lon="152.6912023">
<ele>26.109</ele>
<time>2016-01-16T05:40:12.020Z</time>
</trkpt>
<trkpt lat="-27.6676039" lon="152.6914337">
<ele>24.841</ele>
<time>2016-01-16T05:40:15.127Z</time>
</trkpt>
<trkpt lat="-27.6671015" lon="152.6916747">
<ele>23.407</ele>
<time>2016-01-16T05:40:18.048Z</time>
</trkpt>
<trkpt lat="-27.6667386" lon="152.6918295">
<ele>22.163</ele>
<time>2016-01-16T05:40:20.096Z</time>
</trkpt>
<trkpt lat="-27.6660407" lon="152.6921100">
<ele>21.898</ele>
<time>2016-01-16T05:40:23.992Z</time>
</trkpt>
<trkpt lat="-27.6656822" lon="152.6922366">
<ele>23.390</ele>
<time>2016-01-16T05:40:25.965Z</time>
</trkpt>
<trkpt lat="-27.6651496" lon="152.6924456">
<ele>26.037</ele>
<time>2016-01-16T05:40:28.902Z</time>
</trkpt>
<trkpt lat="-27.6646069" lon="152.6926438">
<ele>28.225</ele>
<time>2016-01-16T05:40:31.803Z</time>
</trkpt>
<trkpt lat="-27.6642385" lon="152.6927670">
<ele>29.496</ele>
<time>2016-01-16T05:40:33.739Z</time>
</trkpt>
<trkpt lat="-27.6638749" lon="152.6929049">
<ele>30.507</ele>
<time>2016-01-16T05:40:35.675Z</time>
</trkpt>
<trkpt lat="-27.6634954" lon="152.6930322">
<ele>31.765</ele>
<time>2016-01-16T05:40:37.647Z</time>
</trkpt>
<trkpt lat="-27.6631080" lon="152.6931718">
<ele>33.586</ele>
<time>2016-01-16T05:40:39.658Z</time>
</trkpt>
<trkpt lat="-27.6627152" lon="152.6933049">
<ele>35.963</ele>
<time>2016-01-16T05:40:41.674Z</time>
</trkpt>
<trkpt lat="-27.6619169" lon="152.6935680">
<ele>38.182</ele>
<time>2016-01-16T05:40:45.838Z</time>
</trkpt>
<trkpt lat="-27.6613267" lon="152.6936840">
<ele>39.411</ele>
<time>2016-01-16T05:40:48.849Z</time>
</trkpt>
<trkpt lat="-27.6607333" lon="152.6937889">
<ele>39.245</ele>
<time>2016-01-16T05:40:51.929Z</time>
</trkpt>
<trkpt lat="-27.6601425" lon="152.6938838">
<ele>37.940</ele>
<time>2016-01-16T05:40:55.023Z</time>
</trkpt>
<trkpt lat="-27.6597543" lon="152.6939542">
<ele>36.232</ele>
<time>2016-01-16T05:40:57.054Z</time>
</trkpt>
<trkpt lat="-27.6591635" lon="152.6940917">
<ele>34.539</ele>
<time>2016-01-16T05:41:00.156Z</time>
</trkpt>
<trkpt lat="-27.6586356" lon="152.6943853">
<ele>32.239</ele>
<time>2016-01-16T05:41:03.186Z</time>
</trkpt>
<trkpt lat="-27.6584730" lon="152.6945164">
<ele>28.739</ele>
<time>2016-01-16T05:41:04.216Z</time>
</trkpt>
<trkpt lat="-27.6579383" lon="152.6951647">
<ele>24.948</ele>
<time>2016-01-16T05:41:08.255Z</time>
</trkpt>
<trkpt lat="-27.6576928" lon="152.6957358">
<ele>22.249</ele>
<time>2016-01-16T05:41:11.123Z</time>
</trkpt>
<trkpt lat="-27.6575914" lon="152.6961687">
<ele>20.896</ele>
<time>2016-01-16T05:41:13.132Z</time>
</trkpt>
<trkpt lat="-27.6575535" lon="152.6968433">
<ele>20.495</ele>
<time>2016-01-16T05:41:16.152Z</time>
</trkpt>
<trkpt lat="-27.6575817" lon="152.6972799">
<ele>20.694</ele>
<time>2016-01-16T05:41:18.128Z</time>
</trkpt>
<trkpt lat="-27.6576234" lon="152.6979496">
<ele>21.202</ele>
<time>2016-01-16T05:41:21.171Z</time>
</trkpt>
<trkpt lat="-27.6576550" lon="152.6986227">
<ele>21.820</ele>
<time>2016-01-16T05:41:24.136Z</time>
</trkpt>
<trkpt lat="-27.6576787" lon="152.6990656">
<ele>22.303</ele>
<time>2016-01-16T05:41:25.971Z</time>
</trkpt>
<trkpt lat="-27.6577344" lon="152.6999736">
<ele>22.514</ele>
<time>2016-01-16T05:41:29.408Z</time>
</trkpt>
<trkpt lat="-27.6577871" lon="152.7004325">
<ele>22.539</ele>
<time>2016-01-16T05:41:31.067Z</time>
</trkpt>
<trkpt lat="-27.6578748" lon="152.7009350">
<ele>22.608</ele>
<time>2016-01-16T05:41:32.888Z</time>
</trkpt>
<trkpt lat="-27.6580149" lon="152.7017637">
<ele>23.009</ele>
<time>2016-01-16T05:41:35.904Z</time>
</trkpt>
<trkpt lat="-27.6581122" lon="152.7023102">
<ele>24.277</ele>
<time>2016-01-16T05:41:37.915Z</time>
</trkpt>
<trkpt lat="-27.6582077" lon="152.7028574">
<ele>26.363</ele>
<time>2016-01-16T05:41:39.912Z</time>
</trkpt>
<trkpt lat="-27.6582940" lon="152.7034112">
<ele>28.141</ele>
<time>2016-01-16T05:41:41.902Z</time>
</trkpt>
<trkpt lat="-27.6583424" lon="152.7036862">
<ele>28.851</ele>
<time>2016-01-16T05:41:42.882Z</time>
</trkpt>
<trkpt lat="-27.6585139" lon="152.7048044">
<ele>29.024</ele>
<time>2016-01-16T05:41:46.876Z</time>
</trkpt>
<trkpt lat="-27.6586530" lon="152.7056507">
<ele>29.645</ele>
<time>2016-01-16T05:41:49.936Z</time>
</trkpt>
<trkpt lat="-27.6587535" lon="152.7061984">
<ele>30.956</ele>
<time>2016-01-16T05:41:51.908Z</time>
</trkpt>
<trkpt lat="-27.6588805" lon="152.7070256">
<ele>31.582</ele>
<time>2016-01-16T05:41:54.845Z</time>
</trkpt>
<trkpt lat="-27.6589731" lon="152.7075735">
<ele>30.376</ele>
<time>2016-01-16T05:41:56.793Z</time>
</trkpt>
<trkpt lat="-27.6590921" lon="152.7084218">
<ele>28.318</ele>
<time>2016-01-16T05:41:59.793Z</time>
</trkpt>
<trkpt lat="-27.6591712" lon="152.7089833">
<ele>26.911</ele>
<time>2016-01-16T05:42:01.775Z</time>
</trkpt>
<trkpt lat="-27.6592961" lon="152.7098257">
<ele>26.350</ele>
<time>2016-01-16T05:42:04.728Z</time>
</trkpt>
<trkpt lat="-27.6594301" lon="152.7106800">
<ele>26.130</ele>
<time>2016-01-16T05:42:07.711Z</time>
</trkpt>
<trkpt lat="-27.6595151" lon="152.7112400">
<ele>25.965</ele>
<time>2016-01-16T05:42:09.660Z</time>
</trkpt>
<trkpt lat="-27.6596263" lon="152.7121003">
<ele>25.724</ele>
<time>2016-01-16T05:42:12.647Z</time>
</trkpt>
<trkpt lat="-27.6597177" lon="152.7126676">
<ele>25.354</ele>
<time>2016-01-16T05:42:14.645Z</time>
</trkpt>
<trkpt lat="-27.6598478" lon="152.7135214">
<ele>24.984</ele>
<time>2016-01-16T05:42:17.679Z</time>
</trkpt>
<trkpt lat="-27.6599213" lon="152.7140864">
<ele>24.664</ele>
<time>2016-01-16T05:42:19.674Z</time>
</trkpt>
<trkpt lat="-27.6600024" lon="152.7146368">
<ele>24.338</ele>
<time>2016-01-16T05:42:21.622Z</time>
</trkpt>
<trkpt lat="-27.6600780" lon="152.7151972">
<ele>24.011</ele>
<time>2016-01-16T05:42:23.604Z</time>
</trkpt>
<trkpt lat="-27.6602036" lon="152.7160439">
<ele>23.789</ele>
<time>2016-01-16T05:42:26.619Z</time>
</trkpt>
<trkpt lat="-27.6603407" lon="152.7168792">
<ele>23.704</ele>
<time>2016-01-16T05:42:29.580Z</time>
</trkpt>
<trkpt lat="-27.6604298" lon="152.7174334">
<ele>23.801</ele>
<time>2016-01-16T05:42:31.540Z</time>
</trkpt>
<trkpt lat="-27.6605042" lon="152.7180019">
<ele>24.130</ele>
<time>2016-01-16T05:42:33.540Z</time>
</trkpt>
<trkpt lat="-27.6605908" lon="152.7185619">
<ele>24.523</ele>
<time>2016-01-16T05:42:35.521Z</time>
</trkpt>
<trkpt lat="-27.6607290" lon="152.7194254">
<ele>24.511</ele>
<time>2016-01-16T05:42:38.534Z</time>
</trkpt>
<trkpt lat="-27.6608449" lon="152.7202645">
<ele>23.962</ele>
<time>2016-01-16T05:42:41.403Z</time>
</trkpt>
<trkpt lat="-27.6609189" lon="152.7208443">
<ele>23.134</ele>
<time>2016-01-16T05:42:43.394Z</time>
</trkpt>
<trkpt lat="-27.6609973" lon="152.7214265">
<ele>22.361</ele>
<time>2016-01-16T05:42:45.405Z</time>
</trkpt>
<trkpt lat="-27.6610804" lon="152.7220067">
<ele>22.080</ele>
<time>2016-01-16T05:42:47.429Z</time>
</trkpt>
<trkpt lat="-27.6612058" lon="152.7228788">
<ele>22.567</ele>
<time>2016-01-16T05:42:50.487Z</time>
</trkpt>
<trkpt lat="-27.6613368" lon="152.7237158">
<ele>23.520</ele>
<time>2016-01-16T05:42:53.459Z</time>
</trkpt>
<trkpt lat="-27.6614188" lon="152.7242810">
<ele>24.926</ele>
<time>2016-01-16T05:42:55.449Z</time>
</trkpt>
<trkpt lat="-27.6614596" lon="152.7245713">
<ele>26.955</ele>
<time>2016-01-16T05:42:56.458Z</time>
</trkpt>
<trkpt lat="-27.6616342" lon="152.7257066">
<ele>29.177</ele>
<time>2016-01-16T05:43:00.416Z</time>
</trkpt>
<trkpt lat="-27.6617134" lon="152.7262769">
<ele>31.109</ele>
<time>2016-01-16T05:43:02.400Z</time>
</trkpt>
<trkpt lat="-27.6618437" lon="152.7271298">
<ele>32.905</ele>
<time>2016-01-16T05:43:05.380Z</time>
</trkpt>
<trkpt lat="-27.6619729" lon="152.7279807">
<ele>35.073</ele>
<time>2016-01-16T05:43:08.342Z</time>
</trkpt>
<trkpt lat="-27.6620998" lon="152.7288182">
<ele>38.082</ele>
<time>2016-01-16T05:43:11.253Z</time>
</trkpt>
<trkpt lat="-27.6622285" lon="152.7296753">
<ele>41.420</ele>
<time>2016-01-16T05:43:14.294Z</time>
</trkpt>
<trkpt lat="-27.6623294" lon="152.7302553">
<ele>43.887</ele>
<time>2016-01-16T05:43:16.392Z</time>
</trkpt>
<trkpt lat="-27.6624186" lon="152.7308075">
<ele>44.919</ele>
<time>2016-01-16T05:43:18.389Z</time>
</trkpt>
<trkpt lat="-27.6625102" lon="152.7313534">
<ele>44.759</ele>
<time>2016-01-16T05:43:20.361Z</time>
</trkpt>
<trkpt lat="-27.6626621" lon="152.7321756">
<ele>43.523</ele>
<time>2016-01-16T05:43:23.335Z</time>
</trkpt>
<trkpt lat="-27.6628111" lon="152.7329930">
<ele>41.549</ele>
<time>2016-01-16T05:43:26.313Z</time>
</trkpt>
<trkpt lat="-27.6629175" lon="152.7335561">
<ele>39.760</ele>
<time>2016-01-16T05:43:28.390Z</time>
</trkpt>
<trkpt lat="-27.6630687" lon="152.7343626">
<ele>38.947</ele>
<time>2016-01-16T05:43:31.324Z</time>
</trkpt>
<trkpt lat="-27.6631651" lon="152.7349137">
<ele>39.092</ele>
<time>2016-01-16T05:43:33.288Z</time>
</trkpt>
<trkpt lat="-27.6633243" lon="152.7357628">
<ele>39.708</ele>
<time>2016-01-16T05:43:36.335Z</time>
</trkpt>
<trkpt lat="-27.6634222" lon="152.7363188">
<ele>40.637</ele>
<time>2016-01-16T05:43:38.334Z</time>
</trkpt>
<trkpt lat="-27.6635488" lon="152.7371436">
<ele>42.052</ele>
<time>2016-01-16T05:43:41.306Z</time>
</trkpt>
<trkpt lat="-27.6636417" lon="152.7376968">
<ele>43.551</ele>
<time>2016-01-16T05:43:43.319Z</time>
</trkpt>
<trkpt lat="-27.6637770" lon="152.7385121">
<ele>44.483</ele>
<time>2016-01-16T05:43:46.261Z</time>
</trkpt>
<trkpt lat="-27.6638611" lon="152.7390532">
<ele>44.819</ele>
<time>2016-01-16T05:43:48.209Z</time>
</trkpt>
<trkpt lat="-27.6639982" lon="152.7398872">
<ele>44.841</ele>
<time>2016-01-16T05:43:51.218Z</time>
</trkpt>
<trkpt lat="-27.6640412" lon="152.7401728">
<ele>45.168</ele>
<time>2016-01-16T05:43:52.245Z</time>
</trkpt>
<trkpt lat="-27.6642248" lon="152.7412831">
<ele>46.205</ele>
<time>2016-01-16T05:43:56.263Z</time>
</trkpt>
<trkpt lat="-27.6643612" lon="152.7420976">
<ele>47.960</ele>
<time>2016-01-16T05:43:59.207Z</time>
</trkpt>
<trkpt lat="-27.6644947" lon="152.7429213">
<ele>50.319</ele>
<time>2016-01-16T05:44:02.176Z</time>
</trkpt>
<trkpt lat="-27.6646536" lon="152.7437662">
<ele>52.997</ele>
<time>2016-01-16T05:44:05.222Z</time>
</trkpt>
<trkpt lat="-27.6647600" lon="152.7445861">
<ele>55.608</ele>
<time>2016-01-16T05:44:08.086Z</time>
</trkpt>
<trkpt lat="-27.6648369" lon="152.7451550">
<ele>57.732</ele>
<time>2016-01-16T05:44:10.061Z</time>
</trkpt>
<trkpt lat="-27.6649044" lon="152.7457322">
<ele>59.349</ele>
<time>2016-01-16T05:44:12.062Z</time>
</trkpt>
<trkpt lat="-27.6649628" lon="152.7463075">
<ele>60.905</ele>
<time>2016-01-16T05:44:14.080Z</time>
</trkpt>
<trkpt lat="-27.6650217" lon="152.7471815">
<ele>62.325</ele>
<time>2016-01-16T05:44:17.142Z</time>
</trkpt>
<trkpt lat="-27.6650597" lon="152.7480388">
<ele>63.270</ele>
<time>2016-01-16T05:44:20.143Z</time>
</trkpt>
<trkpt lat="-27.6650731" lon="152.7488939">
<ele>63.518</ele>
<time>2016-01-16T05:44:23.135Z</time>
</trkpt>
<trkpt lat="-27.6650405" lon="152.7497419">
<ele>63.026</ele>
<time>2016-01-16T05:44:26.098Z</time>
</trkpt>
<trkpt lat="-27.6649939" lon="152.7503066">
<ele>62.274</ele>
<time>2016-01-16T05:44:28.070Z</time>
</trkpt>
<trkpt lat="-27.6648822" lon="152.7511494">
<ele>61.470</ele>
<time>2016-01-16T05:44:31.042Z</time>
</trkpt>
<trkpt lat="-27.6648106" lon="152.7517103">
<ele>60.173</ele>
<time>2016-01-16T05:44:33.030Z</time>
</trkpt>
<trkpt lat="-27.6646692" lon="152.7525081">
<ele>58.100</ele>
<time>2016-01-16T05:44:35.905Z</time>
</trkpt>
<trkpt lat="-27.6645337" lon="152.7530521">
<ele>55.728</ele>
<time>2016-01-16T05:44:37.946Z</time>
</trkpt>
<trkpt lat="-27.6643068" lon="152.7538594">
<ele>53.317</ele>
<time>2016-01-16T05:44:41.018Z</time>
</trkpt>
<trkpt lat="-27.6640929" lon="152.7546141">
<ele>50.177</ele>
<time>2016-01-16T05:44:43.873Z</time>
</trkpt>
<trkpt lat="-27.6639372" lon="152.7551496">
<ele>46.124</ele>
<time>2016-01-16T05:44:45.895Z</time>
</trkpt>
<trkpt lat="-27.6638834" lon="152.7554175">
<ele>42.365</ele>
<time>2016-01-16T05:44:46.872Z</time>
</trkpt>
<trkpt lat="-27.6635935" lon="152.7564795">
<ele>40.029</ele>
<time>2016-01-16T05:44:50.818Z</time>
</trkpt>
<trkpt lat="-27.6633790" lon="152.7572833">
<ele>38.177</ele>
<time>2016-01-16T05:44:53.766Z</time>
</trkpt>
<trkpt lat="-27.6632276" lon="152.7578323">
<ele>35.466</ele>
<time>2016-01-16T05:44:55.774Z</time>
</trkpt>
<trkpt lat="-27.6630737" lon="152.7583821">
<ele>32.650</ele>
<time>2016-01-16T05:44:57.791Z</time>
</trkpt>
<trkpt lat="-27.6629419" lon="152.7589328">
<ele>31.026</ele>
<time>2016-01-16T05:44:59.791Z</time>
</trkpt>
<trkpt lat="-27.6627880" lon="152.7594671">
<ele>30.437</ele>
<time>2016-01-16T05:45:01.752Z</time>
</trkpt>
<trkpt lat="-27.6625546" lon="152.7602524">
<ele>30.310</ele>
<time>2016-01-16T05:45:04.633Z</time>
</trkpt>
<trkpt lat="-27.6623994" lon="152.7608062">
<ele>30.347</ele>
<time>2016-01-16T05:45:06.650Z</time>
</trkpt>
<trkpt lat="-27.6621967" lon="152.7616213">
<ele>30.748</ele>
<time>2016-01-16T05:45:09.577Z</time>
</trkpt>
<trkpt lat="-27.6620579" lon="152.7621690">
<ele>31.695</ele>
<time>2016-01-16T05:45:11.544Z</time>
</trkpt>
<trkpt lat="-27.6618428" lon="152.7630126">
<ele>33.007</ele>
<time>2016-01-16T05:45:14.575Z</time>
</trkpt>
<trkpt lat="-27.6616791" lon="152.7635625">
<ele>34.779</ele>
<time>2016-01-16T05:45:16.581Z</time>
</trkpt>
<trkpt lat="-27.6615271" lon="152.7641193">
<ele>37.079</ele>
<time>2016-01-16T05:45:18.598Z</time>
</trkpt>
<trkpt lat="-27.6612775" lon="152.7649138">
<ele>39.556</ele>
<time>2016-01-16T05:45:21.520Z</time>
</trkpt>
<trkpt lat="-27.6610788" lon="152.7654396">
<ele>42.464</ele>
<time>2016-01-16T05:45:23.503Z</time>
</trkpt>
<trkpt lat="-27.6608833" lon="152.7659733">
<ele>45.956</ele>
<time>2016-01-16T05:45:25.491Z</time>
</trkpt>
<trkpt lat="-27.6605543" lon="152.7667223">
<ele>49.236</ele>
<time>2016-01-16T05:45:28.333Z</time>
</trkpt>
<trkpt lat="-27.6603346" lon="152.7672452">
<ele>52.090</ele>
<time>2016-01-16T05:45:30.307Z</time>
</trkpt>
<trkpt lat="-27.6601092" lon="152.7677868">
<ele>55.090</ele>
<time>2016-01-16T05:45:32.357Z</time>
</trkpt>
<trkpt lat="-27.6597690" lon="152.7685930">
<ele>58.073</ele>
<time>2016-01-16T05:45:35.407Z</time>
</trkpt>
<trkpt lat="-27.6595302" lon="152.7691239">
<ele>60.484</ele>
<time>2016-01-16T05:45:37.444Z</time>
</trkpt>
<trkpt lat="-27.6591407" lon="152.7698806">
<ele>62.171</ele>
<time>2016-01-16T05:45:40.465Z</time>
</trkpt>
<trkpt lat="-27.6588427" lon="152.7703381">
<ele>63.359</ele>
<time>2016-01-16T05:45:42.454Z</time>
</trkpt>
<trkpt lat="-27.6585800" lon="152.7708168">
<ele>64.299</ele>
<time>2016-01-16T05:45:44.422Z</time>
</trkpt>
<trkpt lat="-27.6584408" lon="152.7710610">
<ele>64.805</ele>
<time>2016-01-16T05:45:45.432Z</time>
</trkpt>
<trkpt lat="-27.6578529" lon="152.7720293">
<ele>64.594</ele>
<time>2016-01-16T05:45:49.507Z</time>
</trkpt>
<trkpt lat="-27.6575906" lon="152.7725265">
<ele>63.825</ele>
<time>2016-01-16T05:45:51.534Z</time>
</trkpt>
<trkpt lat="-27.6573112" lon="152.7729907">
<ele>62.616</ele>
<time>2016-01-16T05:45:53.500Z</time>
</trkpt>
<trkpt lat="-27.6568722" lon="152.7736561">
<ele>61.263</ele>
<time>2016-01-16T05:45:56.364Z</time>
</trkpt>
<trkpt lat="-27.6565851" lon="152.7741223">
<ele>59.815</ele>
<time>2016-01-16T05:45:58.299Z</time>
</trkpt>
<trkpt lat="-27.6562871" lon="152.7746166">
<ele>58.058</ele>
<time>2016-01-16T05:46:00.342Z</time>
</trkpt>
<trkpt lat="-27.6559894" lon="152.7750891">
<ele>56.266</ele>
<time>2016-01-16T05:46:02.327Z</time>
</trkpt>
<trkpt lat="-27.6555491" lon="152.7757946">
<ele>54.882</ele>
<time>2016-01-16T05:46:05.278Z</time>
</trkpt>
<trkpt lat="-27.6552613" lon="152.7762833">
<ele>54.026</ele>
<time>2016-01-16T05:46:07.283Z</time>
</trkpt>
<trkpt lat="-27.6549601" lon="152.7767583">
<ele>53.580</ele>
<time>2016-01-16T05:46:09.285Z</time>
</trkpt>
<trkpt lat="-27.6545309" lon="152.7774732">
<ele>53.035</ele>
<time>2016-01-16T05:46:12.250Z</time>
</trkpt>
<trkpt lat="-27.6540980" lon="152.7781957">
<ele>52.178</ele>
<time>2016-01-16T05:46:15.237Z</time>
</trkpt>
<trkpt lat="-27.6536503" lon="152.7789298">
<ele>51.331</ele>
<time>2016-01-16T05:46:18.277Z</time>
</trkpt>
<trkpt lat="-27.6532044" lon="152.7796503">
<ele>50.770</ele>
<time>2016-01-16T05:46:21.259Z</time>
</trkpt>
<trkpt lat="-27.6529065" lon="152.7801402">
<ele>50.415</ele>
<time>2016-01-16T05:46:23.272Z</time>
</trkpt>
<trkpt lat="-27.6526031" lon="152.7806278">
<ele>50.215</ele>
<time>2016-01-16T05:46:25.299Z</time>
</trkpt>
<trkpt lat="-27.6522971" lon="152.7810985">
<ele>50.236</ele>
<time>2016-01-16T05:46:27.300Z</time>
</trkpt>
<trkpt lat="-27.6518499" lon="152.7818241">
<ele>50.398</ele>
<time>2016-01-16T05:46:30.329Z</time>
</trkpt>
<trkpt lat="-27.6515433" lon="152.7822804">
<ele>50.491</ele>
<time>2016-01-16T05:46:32.261Z</time>
</trkpt>
<trkpt lat="-27.6510694" lon="152.7829933">
<ele>50.271</ele>
<time>2016-01-16T05:46:35.253Z</time>
</trkpt>
<trkpt lat="-27.6505709" lon="152.7836839">
<ele>49.629</ele>
<time>2016-01-16T05:46:38.286Z</time>
</trkpt>
<trkpt lat="-27.6502420" lon="152.7841381">
<ele>48.839</ele>
<time>2016-01-16T05:46:40.305Z</time>
</trkpt>
<trkpt lat="-27.6497538" lon="152.7848103">
<ele>47.955</ele>
<time>2016-01-16T05:46:43.321Z</time>
</trkpt>
<trkpt lat="-27.6492383" lon="152.7854615">
<ele>46.312</ele>
<time>2016-01-16T05:46:46.374Z</time>
</trkpt>
<trkpt lat="-27.6487112" lon="152.7860840">
<ele>43.898</ele>
<time>2016-01-16T05:46:49.404Z</time>
</trkpt>
<trkpt lat="-27.6481796" lon="152.7866913">
<ele>41.329</ele>
<time>2016-01-16T05:46:52.420Z</time>
</trkpt>
<trkpt lat="-27.6478429" lon="152.7870733">
<ele>38.642</ele>
<time>2016-01-16T05:46:54.307Z</time>
</trkpt>
<trkpt lat="-27.6474874" lon="152.7874720">
<ele>36.074</ele>
<time>2016-01-16T05:46:56.278Z</time>
</trkpt>
<trkpt lat="-27.6471361" lon="152.7878780">
<ele>34.077</ele>
<time>2016-01-16T05:46:58.232Z</time>
</trkpt>
<trkpt lat="-27.6465974" lon="152.7884918">
<ele>32.314</ele>
<time>2016-01-16T05:47:01.177Z</time>
</trkpt>
<trkpt lat="-27.6460561" lon="152.7891363">
<ele>30.407</ele>
<time>2016-01-16T05:47:04.202Z</time>
</trkpt>
<trkpt lat="-27.6455166" lon="152.7897521">
<ele>28.421</ele>
<time>2016-01-16T05:47:07.187Z</time>
</trkpt>
<trkpt lat="-27.6449887" lon="152.7903522">
<ele>26.301</ele>
<time>2016-01-16T05:47:10.149Z</time>
</trkpt>
<trkpt lat="-27.6446377" lon="152.7907339">
<ele>24.134</ele>
<time>2016-01-16T05:47:12.077Z</time>
</trkpt>
<trkpt lat="-27.6442732" lon="152.7911383">
<ele>22.343</ele>
<time>2016-01-16T05:47:14.086Z</time>
</trkpt>
<trkpt lat="-27.6437544" lon="152.7917096">
<ele>21.129</ele>
<time>2016-01-16T05:47:16.929Z</time>
</trkpt>
<trkpt lat="-27.6433746" lon="152.7921074">
<ele>20.343</ele>
<time>2016-01-16T05:47:18.979Z</time>
</trkpt>
<trkpt lat="-27.6428195" lon="152.7927237">
<ele>19.966</ele>
<time>2016-01-16T05:47:22.105Z</time>
</trkpt>
<trkpt lat="-27.6422910" lon="152.7933134">
<ele>19.972</ele>
<time>2016-01-16T05:47:25.103Z</time>
</trkpt>
<trkpt lat="-27.6419290" lon="152.7937153">
<ele>20.148</ele>
<time>2016-01-16T05:47:27.131Z</time>
</trkpt>
<trkpt lat="-27.6412114" lon="152.7945282">
<ele>20.233</ele>
<time>2016-01-16T05:47:31.122Z</time>
</trkpt>
<trkpt lat="-27.6408599" lon="152.7949331">
<ele>20.188</ele>
<time>2016-01-16T05:47:33.096Z</time>
</trkpt>
<trkpt lat="-27.6405083" lon="152.7953392">
<ele>20.207</ele>
<time>2016-01-16T05:47:35.073Z</time>
</trkpt>
<trkpt lat="-27.6399790" lon="152.7959679">
<ele>20.517</ele>
<time>2016-01-16T05:47:38.098Z</time>
</trkpt>
<trkpt lat="-27.6394859" lon="152.7966165">
<ele>21.173</ele>
<time>2016-01-16T05:47:41.087Z</time>
</trkpt>
<trkpt lat="-27.6390320" lon="152.7972990">
<ele>22.348</ele>
<time>2016-01-16T05:47:44.068Z</time>
</trkpt>
<trkpt lat="-27.6387554" lon="152.7977918">
<ele>24.314</ele>
<time>2016-01-16T05:47:46.110Z</time>
</trkpt>
<trkpt lat="-27.6383900" lon="152.7985390">
<ele>26.722</ele>
<time>2016-01-16T05:47:49.099Z</time>
</trkpt>
<trkpt lat="-27.6380912" lon="152.7993094">
<ele>28.985</ele>
<time>2016-01-16T05:47:52.031Z</time>
</trkpt>
<trkpt lat="-27.6379080" lon="152.7998658">
<ele>30.959</ele>
<time>2016-01-16T05:47:54.111Z</time>
</trkpt>
<trkpt lat="-27.6376904" lon="152.8006476">
<ele>32.514</ele>
<time>2016-01-16T05:47:57.011Z</time>
</trkpt>
<trkpt lat="-27.6374509" lon="152.8014332">
<ele>33.425</ele>
<time>2016-01-16T05:47:59.946Z</time>
</trkpt>
<trkpt lat="-27.6372781" lon="152.8019437">
<ele>32.712</ele>
<time>2016-01-16T05:48:01.854Z</time>
</trkpt>
<trkpt lat="-27.6370445" lon="152.8027689">
<ele>30.024</ele>
<time>2016-01-16T05:48:04.867Z</time>
</trkpt>
<trkpt lat="-27.6368118" lon="152.8035956">
<ele>27.216</ele>
<time>2016-01-16T05:48:07.902Z</time>
</trkpt>
<trkpt lat="-27.6367313" lon="152.8038769">
<ele>25.925</ele>
<time>2016-01-16T05:48:08.932Z</time>
</trkpt>
<trkpt lat="-27.6364154" lon="152.8049920">
<ele>25.786</ele>
<time>2016-01-16T05:48:12.953Z</time>
</trkpt>
<trkpt lat="-27.6361677" lon="152.8058098">
<ele>26.239</ele>
<time>2016-01-16T05:48:15.961Z</time>
</trkpt>
<trkpt lat="-27.6359952" lon="152.8063569">
<ele>27.065</ele>
<time>2016-01-16T05:48:17.984Z</time>
</trkpt>
<trkpt lat="-27.6358143" lon="152.8068885">
<ele>27.929</ele>
<time>2016-01-16T05:48:19.971Z</time>
</trkpt>
<trkpt lat="-27.6355218" lon="152.8076653">
<ele>28.746</ele>
<time>2016-01-16T05:48:22.933Z</time>
</trkpt>
<trkpt lat="-27.6353070" lon="152.8081706">
<ele>29.866</ele>
<time>2016-01-16T05:48:24.950Z</time>
</trkpt>
<trkpt lat="-27.6350767" lon="152.8086899">
<ele>31.213</ele>
<time>2016-01-16T05:48:27.042Z</time>
</trkpt>
<trkpt lat="-27.6348437" lon="152.8091817">
<ele>32.237</ele>
<time>2016-01-16T05:48:29.049Z</time>
</trkpt>
<trkpt lat="-27.6343665" lon="152.8101639">
<ele>32.923</ele>
<time>2016-01-16T05:48:32.957Z</time>
</trkpt>
<trkpt lat="-27.6339510" lon="152.8108921">
<ele>34.196</ele>
<time>2016-01-16T05:48:35.958Z</time>
</trkpt>
<trkpt lat="-27.6336546" lon="152.8113603">
<ele>36.771</ele>
<time>2016-01-16T05:48:37.946Z</time>
</trkpt>
<trkpt lat="-27.6331691" lon="152.8120249">
<ele>39.930</ele>
<time>2016-01-16T05:48:40.908Z</time>
</trkpt>
<trkpt lat="-27.6328379" lon="152.8124481">
<ele>42.407</ele>
<time>2016-01-16T05:48:42.848Z</time>
</trkpt>
<trkpt lat="-27.6323057" lon="152.8130687">
<ele>43.813</ele>
<time>2016-01-16T05:48:45.835Z</time>
</trkpt>
<trkpt lat="-27.6319600" lon="152.8135018">
<ele>44.675</ele>
<time>2016-01-16T05:48:47.875Z</time>
</trkpt>
<trkpt lat="-27.6314281" lon="152.8141162">
<ele>45.678</ele>
<time>2016-01-16T05:48:50.916Z</time>
</trkpt>
<trkpt lat="-27.6312425" lon="152.8143161">
<ele>46.944</ele>
<time>2016-01-16T05:48:51.940Z</time>
</trkpt>
<trkpt lat="-27.6304848" lon="152.8150945">
<ele>48.025</ele>
<time>2016-01-16T05:48:55.951Z</time>
</trkpt>
<trkpt lat="-27.6299064" lon="152.8156715">
<ele>48.575</ele>
<time>2016-01-16T05:48:58.954Z</time>
</trkpt>
<trkpt lat="-27.6295188" lon="152.8160296">
<ele>48.630</ele>
<time>2016-01-16T05:49:00.893Z</time>
</trkpt>
<trkpt lat="-27.6291189" lon="152.8163833">
<ele>48.158</ele>
<time>2016-01-16T05:49:02.862Z</time>
</trkpt>
<trkpt lat="-27.6284859" lon="152.8168932">
<ele>47.246</ele>
<time>2016-01-16T05:49:05.896Z</time>
</trkpt>
<trkpt lat="-27.6280663" lon="152.8172231">
<ele>46.011</ele>
<time>2016-01-16T05:49:07.895Z</time>
</trkpt>
<trkpt lat="-27.6276510" lon="152.8175502">
<ele>44.054</ele>
<time>2016-01-16T05:49:09.875Z</time>
</trkpt>
<trkpt lat="-27.6270139" lon="152.8180094">
<ele>41.461</ele>
<time>2016-01-16T05:49:12.825Z</time>
</trkpt>
<trkpt lat="-27.6263497" lon="152.8184410">
<ele>39.281</ele>
<time>2016-01-16T05:49:15.794Z</time>
</trkpt>
<trkpt lat="-27.6256632" lon="152.8188549">
<ele>38.209</ele>
<time>2016-01-16T05:49:18.798Z</time>
</trkpt>
<trkpt lat="-27.6249781" lon="152.8192502">
<ele>38.284</ele>
<time>2016-01-16T05:49:21.798Z</time>
</trkpt>
<trkpt lat="-27.6245214" lon="152.8195022">
<ele>39.379</ele>
<time>2016-01-16T05:49:23.792Z</time>
</trkpt>
<trkpt lat="-27.6240592" lon="152.8197499">
<ele>40.925</ele>
<time>2016-01-16T05:49:25.798Z</time>
</trkpt>
<trkpt lat="-27.6236000" lon="152.8199838">
<ele>42.385</ele>
<time>2016-01-16T05:49:27.782Z</time>
</trkpt>
<trkpt lat="-27.6231287" lon="152.8202248">
<ele>43.764</ele>
<time>2016-01-16T05:49:29.826Z</time>
</trkpt>
<trkpt lat="-27.6224325" lon="152.8205723">
<ele>44.996</ele>
<time>2016-01-16T05:49:32.875Z</time>
</trkpt>
<trkpt lat="-27.6219794" lon="152.8207889">
<ele>46.132</ele>
<time>2016-01-16T05:49:34.836Z</time>
</trkpt>
<trkpt lat="-27.6215242" lon="152.8210057">
<ele>47.412</ele>
<time>2016-01-16T05:49:36.759Z</time>
</trkpt>
<trkpt lat="-27.6210594" lon="152.8212493">
<ele>48.391</ele>
<time>2016-01-16T05:49:38.748Z</time>
</trkpt>
<trkpt lat="-27.6203674" lon="152.8216168">
<ele>48.639</ele>
<time>2016-01-16T05:49:41.712Z</time>
</trkpt>
<trkpt lat="-27.6199022" lon="152.8218550">
<ele>48.536</ele>
<time>2016-01-16T05:49:43.698Z</time>
</trkpt>
<trkpt lat="-27.6194344" lon="152.8221062">
<ele>48.521</ele>
<time>2016-01-16T05:49:45.722Z</time>
</trkpt>
<trkpt lat="-27.6187400" lon="152.8224668">
<ele>48.715</ele>
<time>2016-01-16T05:49:48.754Z</time>
</trkpt>
<trkpt lat="-27.6182863" lon="152.8226981">
<ele>49.114</ele>
<time>2016-01-16T05:49:50.754Z</time>
</trkpt>
<trkpt lat="-27.6178410" lon="152.8229544">
<ele>49.604</ele>
<time>2016-01-16T05:49:52.747Z</time>
</trkpt>
<trkpt lat="-27.6173947" lon="152.8232266">
<ele>50.201</ele>
<time>2016-01-16T05:49:54.751Z</time>
</trkpt>
<trkpt lat="-27.6167275" lon="152.8236557">
<ele>50.955</ele>
<time>2016-01-16T05:49:57.721Z</time>
</trkpt>
<trkpt lat="-27.6162855" lon="152.8239693">
<ele>52.153</ele>
<time>2016-01-16T05:49:59.730Z</time>
</trkpt>
<trkpt lat="-27.6156319" lon="152.8244344">
<ele>54.264</ele>
<time>2016-01-16T05:50:02.713Z</time>
</trkpt>
<trkpt lat="-27.6149903" lon="152.8249260">
<ele>57.244</ele>
<time>2016-01-16T05:50:05.738Z</time>
</trkpt>
<trkpt lat="-27.6143536" lon="152.8254274">
<ele>60.605</ele>
<time>2016-01-16T05:50:08.759Z</time>
</trkpt>
<trkpt lat="-27.6139407" lon="152.8257660">
<ele>63.667</ele>
<time>2016-01-16T05:50:10.719Z</time>
</trkpt>
<trkpt lat="-27.6135172" lon="152.8261210">
<ele>65.647</ele>
<time>2016-01-16T05:50:12.742Z</time>
</trkpt>
<trkpt lat="-27.6128693" lon="152.8266221">
<ele>66.478</ele>
<time>2016-01-16T05:50:15.778Z</time>
</trkpt>
<trkpt lat="-27.6124240" lon="152.8269441">
<ele>66.604</ele>
<time>2016-01-16T05:50:17.820Z</time>
</trkpt>
<trkpt lat="-27.6122092" lon="152.8270641">
<ele>66.300</ele>
<time>2016-01-16T05:50:18.743Z</time>
</trkpt>
<trkpt lat="-27.6113016" lon="152.8276723">
<ele>65.737</ele>
<time>2016-01-16T05:50:22.733Z</time>
</trkpt>
<trkpt lat="-27.6108457" lon="152.8279582">
<ele>64.548</ele>
<time>2016-01-16T05:50:24.707Z</time>
</trkpt>
<trkpt lat="-27.6103761" lon="152.8282185">
<ele>62.330</ele>
<time>2016-01-16T05:50:26.689Z</time>
</trkpt>
<trkpt lat="-27.6096607" lon="152.8286116">
<ele>59.768</ele>
<time>2016-01-16T05:50:29.709Z</time>
</trkpt>
<trkpt lat="-27.6091918" lon="152.8288655">
<ele>57.255</ele>
<time>2016-01-16T05:50:31.686Z</time>
</trkpt>
<trkpt lat="-27.6084602" lon="152.8292093">
<ele>54.260</ele>
<time>2016-01-16T05:50:34.714Z</time>
</trkpt>
<trkpt lat="-27.6079765" lon="152.8294372">
<ele>51.050</ele>
<time>2016-01-16T05:50:36.735Z</time>
</trkpt>
<trkpt lat="-27.6075049" lon="152.8296407">
<ele>48.509</ele>
<time>2016-01-16T05:50:38.687Z</time>
</trkpt>
<trkpt lat="-27.6070125" lon="152.8298165">
<ele>46.526</ele>
<time>2016-01-16T05:50:40.689Z</time>
</trkpt>
<trkpt lat="-27.6062820" lon="152.8300828">
<ele>44.289</ele>
<time>2016-01-16T05:50:43.694Z</time>
</trkpt>
<trkpt lat="-27.6057978" lon="152.8302593">
<ele>41.633</ele>
<time>2016-01-16T05:50:45.699Z</time>
</trkpt>
<trkpt lat="-27.6053246" lon="152.8304402">
<ele>39.177</ele>
<time>2016-01-16T05:50:47.673Z</time>
</trkpt>
<trkpt lat="-27.6046135" lon="152.8307484">
<ele>37.040</ele>
<time>2016-01-16T05:50:50.693Z</time>
</trkpt>
<trkpt lat="-27.6041380" lon="152.8309457">
<ele>34.828</ele>
<time>2016-01-16T05:50:52.693Z</time>
</trkpt>
<trkpt lat="-27.6034300" lon="152.8312497">
<ele>32.454</ele>
<time>2016-01-16T05:50:55.640Z</time>
</trkpt>
<trkpt lat="-27.6029593" lon="152.8314819">
<ele>30.427</ele>
<time>2016-01-16T05:50:57.628Z</time>
</trkpt>
<trkpt lat="-27.6022509" lon="152.8318178">
<ele>29.411</ele>
<time>2016-01-16T05:51:00.591Z</time>
</trkpt>
<trkpt lat="-27.6017889" lon="152.8320597">
<ele>29.490</ele>
<time>2016-01-16T05:51:02.556Z</time>
</trkpt>
<trkpt lat="-27.6010968" lon="152.8324744">
<ele>30.356</ele>
<time>2016-01-16T05:51:05.608Z</time>
</trkpt>
<trkpt lat="-27.6004269" lon="152.8328833">
<ele>31.945</ele>
<time>2016-01-16T05:51:08.610Z</time>
</trkpt>
<trkpt lat="-27.5999917" lon="152.8331569">
<ele>33.902</ele>
<time>2016-01-16T05:51:10.548Z</time>
</trkpt>
<trkpt lat="-27.5995430" lon="152.8334529">
<ele>35.477</ele>
<time>2016-01-16T05:51:12.556Z</time>
</trkpt>
<trkpt lat="-27.5988798" lon="152.8339100">
<ele>36.323</ele>
<time>2016-01-16T05:51:15.506Z</time>
</trkpt>
<trkpt lat="-27.5984438" lon="152.8341997">
<ele>36.580</ele>
<time>2016-01-16T05:51:17.428Z</time>
</trkpt>
<trkpt lat="-27.5980015" lon="152.8345310">
<ele>36.402</ele>
<time>2016-01-16T05:51:19.457Z</time>
</trkpt>
<trkpt lat="-27.5973737" lon="152.8350747">
<ele>35.951</ele>
<time>2016-01-16T05:51:22.531Z</time>
</trkpt>
<trkpt lat="-27.5968533" lon="152.8356953">
<ele>34.882</ele>
<time>2016-01-16T05:51:25.494Z</time>
</trkpt>
<trkpt lat="-27.5965502" lon="152.8361551">
<ele>32.848</ele>
<time>2016-01-16T05:51:27.482Z</time>
</trkpt>
<trkpt lat="-27.5962094" lon="152.8368763">
<ele>30.499</ele>
<time>2016-01-16T05:51:30.309Z</time>
</trkpt>
<trkpt lat="-27.5960043" lon="152.8373971">
<ele>28.384</ele>
<time>2016-01-16T05:51:32.282Z</time>
</trkpt>
<trkpt lat="-27.5958510" lon="152.8379634">
<ele>26.099</ele>
<time>2016-01-16T05:51:34.339Z</time>
</trkpt>
<trkpt lat="-27.5957314" lon="152.8385350">
<ele>23.762</ele>
<time>2016-01-16T05:51:36.382Z</time>
</trkpt>
<trkpt lat="-27.5956334" lon="152.8393821">
<ele>22.132</ele>
<time>2016-01-16T05:51:39.349Z</time>
</trkpt>
<trkpt lat="-27.5956475" lon="152.8399601">
<ele>21.525</ele>
<time>2016-01-16T05:51:41.335Z</time>
</trkpt>
<trkpt lat="-27.5956984" lon="152.8405406">
<ele>21.655</ele>
<time>2016-01-16T05:51:43.331Z</time>
</trkpt>
<trkpt lat="-27.5958724" lon="152.8414060">
<ele>22.132</ele>
<time>2016-01-16T05:51:46.384Z</time>
</trkpt>
<trkpt lat="-27.5959767" lon="152.8419714">
<ele>22.616</ele>
<time>2016-01-16T05:51:48.365Z</time>
</trkpt>
<trkpt lat="-27.5960883" lon="152.8425504">
<ele>22.896</ele>
<time>2016-01-16T05:51:50.394Z</time>
</trkpt>
<trkpt lat="-27.5962093" lon="152.8431181">
<ele>23.309</ele>
<time>2016-01-16T05:51:52.397Z</time>
</trkpt>
<trkpt lat="-27.5963825" lon="152.8439581">
<ele>24.708</ele>
<time>2016-01-16T05:51:55.371Z</time>
</trkpt>
<trkpt lat="-27.5964893" lon="152.8445250">
<ele>27.012</ele>
<time>2016-01-16T05:51:57.362Z</time>
</trkpt>
<trkpt lat="-27.5965911" lon="152.8451013">
<ele>29.456</ele>
<time>2016-01-16T05:51:59.374Z</time>
</trkpt>
<trkpt lat="-27.5967344" lon="152.8459522">
<ele>31.356</ele>
<time>2016-01-16T05:52:02.324Z</time>
</trkpt>
<trkpt lat="-27.5968237" lon="152.8465272">
<ele>32.117</ele>
<time>2016-01-16T05:52:04.315Z</time>
</trkpt>
<trkpt lat="-27.5969476" lon="152.8473829">
<ele>31.890</ele>
<time>2016-01-16T05:52:07.284Z</time>
</trkpt>
<trkpt lat="-27.5970271" lon="152.8479681">
<ele>31.484</ele>
<time>2016-01-16T05:52:09.305Z</time>
</trkpt>
<trkpt lat="-27.5971061" lon="152.8488357">
<ele>31.355</ele>
<time>2016-01-16T05:52:12.290Z</time>
</trkpt>
<trkpt lat="-27.5971509" lon="152.8494147">
<ele>31.623</ele>
<time>2016-01-16T05:52:14.303Z</time>
</trkpt>
<trkpt lat="-27.5971843" lon="152.8499888">
<ele>32.190</ele>
<time>2016-01-16T05:52:16.317Z</time>
</trkpt>
<trkpt lat="-27.5972142" lon="152.8511165">
<ele>33.039</ele>
<time>2016-01-16T05:52:20.226Z</time>
</trkpt>
<trkpt lat="-27.5972144" lon="152.8519748">
<ele>33.992</ele>
<time>2016-01-16T05:52:23.190Z</time>
</trkpt>
<trkpt lat="-27.5972876" lon="152.8525514">
<ele>34.705</ele>
<time>2016-01-16T05:52:25.201Z</time>
</trkpt>
<trkpt lat="-27.5974459" lon="152.8533966">
<ele>35.120</ele>
<time>2016-01-16T05:52:28.179Z</time>
</trkpt>
<trkpt lat="-27.5976976" lon="152.8542178">
<ele>35.231</ele>
<time>2016-01-16T05:52:31.233Z</time>
</trkpt>
<trkpt lat="-27.5980132" lon="152.8549812">
<ele>34.699</ele>
<time>2016-01-16T05:52:34.253Z</time>
</trkpt>
<trkpt lat="-27.5984149" lon="152.8556937">
<ele>32.440</ele>
<time>2016-01-16T05:52:37.216Z</time>
</trkpt>
<trkpt lat="-27.5987132" lon="152.8561431">
<ele>28.157</ele>
<time>2016-01-16T05:52:39.159Z</time>
</trkpt>
<trkpt lat="-27.5992514" lon="152.8567715">
<ele>23.788</ele>
<time>2016-01-16T05:52:42.185Z</time>
</trkpt>
<trkpt lat="-27.5996260" lon="152.8571542">
<ele>21.189</ele>
<time>2016-01-16T05:52:44.147Z</time>
</trkpt>
<trkpt lat="-27.5999966" lon="152.8575464">
<ele>19.808</ele>
<time>2016-01-16T05:52:46.105Z</time>
</trkpt>
<trkpt lat="-27.6005844" lon="152.8581352">
<ele>18.407</ele>
<time>2016-01-16T05:52:49.134Z</time>
</trkpt>
<trkpt lat="-27.6009637" lon="152.8585385">
<ele>16.795</ele>
<time>2016-01-16T05:52:51.168Z</time>
</trkpt>
<trkpt lat="-27.6013347" lon="152.8589260">
<ele>15.486</ele>
<time>2016-01-16T05:52:53.159Z</time>
</trkpt>
<trkpt lat="-27.6018751" lon="152.8595099">
<ele>14.876</ele>
<time>2016-01-16T05:52:56.170Z</time>
</trkpt>
<trkpt lat="-27.6020577" lon="152.8597128">
<ele>14.964</ele>
<time>2016-01-16T05:52:57.196Z</time>
</trkpt>
<trkpt lat="-27.6027624" lon="152.8605289">
<ele>15.325</ele>
<time>2016-01-16T05:53:01.154Z</time>
</trkpt>
<trkpt lat="-27.6030728" lon="152.8609719">
<ele>15.611</ele>
<time>2016-01-16T05:53:03.080Z</time>
</trkpt>
<trkpt lat="-27.6035081" lon="152.8617114">
<ele>15.784</ele>
<time>2016-01-16T05:53:06.057Z</time>
</trkpt>
<trkpt lat="-27.6038599" lon="152.8625121">
<ele>16.753</ele>
<time>2016-01-16T05:53:09.058Z</time>
</trkpt>
<trkpt lat="-27.6040431" lon="152.8630784">
<ele>19.332</ele>
<time>2016-01-16T05:53:11.082Z</time>
</trkpt>
<trkpt lat="-27.6041810" lon="152.8636554">
<ele>22.647</ele>
<time>2016-01-16T05:53:13.086Z</time>
</trkpt>
<trkpt lat="-27.6043024" lon="152.8645553">
<ele>25.514</ele>
<time>2016-01-16T05:53:16.204Z</time>
</trkpt>
<trkpt lat="-27.6043220" lon="152.8654110">
<ele>28.247</ele>
<time>2016-01-16T05:53:19.233Z</time>
</trkpt>
<trkpt lat="-27.6042957" lon="152.8659605">
<ele>30.997</ele>
<time>2016-01-16T05:53:21.176Z</time>
</trkpt>
<trkpt lat="-27.6041557" lon="152.8667506">
<ele>32.297</ele>
<time>2016-01-16T05:53:23.963Z</time>
</trkpt>
<trkpt lat="-27.6040251" lon="152.8673206">
<ele>31.316</ele>
<time>2016-01-16T05:53:25.986Z</time>
</trkpt>
<trkpt lat="-27.6037972" lon="152.8681690">
<ele>29.542</ele>
<time>2016-01-16T05:53:29.019Z</time>
</trkpt>
<trkpt lat="-27.6035379" lon="152.8689871">
<ele>27.904</ele>
<time>2016-01-16T05:53:31.986Z</time>
</trkpt>
<trkpt lat="-27.6033467" lon="152.8695249">
<ele>25.949</ele>
<time>2016-01-16T05:53:33.960Z</time>
</trkpt>
<trkpt lat="-27.6030590" lon="152.8703568">
<ele>23.964</ele>
<time>2016-01-16T05:53:36.976Z</time>
</trkpt>
<trkpt lat="-27.6027446" lon="152.8711610">
<ele>22.363</ele>
<time>2016-01-16T05:53:39.955Z</time>
</trkpt>
<trkpt lat="-27.6024280" lon="152.8719538">
<ele>20.634</ele>
<time>2016-01-16T05:53:42.932Z</time>
</trkpt>
<trkpt lat="-27.6021217" lon="152.8727468">
<ele>18.636</ele>
<time>2016-01-16T05:53:45.887Z</time>
</trkpt>
<trkpt lat="-27.6019253" lon="152.8732921">
<ele>17.159</ele>
<time>2016-01-16T05:53:47.894Z</time>
</trkpt>
<trkpt lat="-27.6017400" lon="152.8738484">
<ele>16.674</ele>
<time>2016-01-16T05:53:49.931Z</time>
</trkpt>
<trkpt lat="-27.6015771" lon="152.8743942">
<ele>16.768</ele>
<time>2016-01-16T05:53:51.917Z</time>
</trkpt>
<trkpt lat="-27.6013771" lon="152.8752226">
<ele>16.712</ele>
<time>2016-01-16T05:53:54.865Z</time>
</trkpt>
<trkpt lat="-27.6012550" lon="152.8757949">
<ele>16.224</ele>
<time>2016-01-16T05:53:56.863Z</time>
</trkpt>
<trkpt lat="-27.6011018" lon="152.8766705">
<ele>15.646</ele>
<time>2016-01-16T05:53:59.861Z</time>
</trkpt>
<trkpt lat="-27.6010174" lon="152.8775534">
<ele>15.306</ele>
<time>2016-01-16T05:54:02.855Z</time>
</trkpt>
<trkpt lat="-27.6009759" lon="152.8781484">
<ele>14.986</ele>
<time>2016-01-16T05:54:04.876Z</time>
</trkpt>
<trkpt lat="-27.6009407" lon="152.8790242">
<ele>14.504</ele>
<time>2016-01-16T05:54:07.843Z</time>
</trkpt>
<trkpt lat="-27.6009331" lon="152.8799008">
<ele>14.045</ele>
<time>2016-01-16T05:54:10.808Z</time>
</trkpt>
<trkpt lat="-27.6009458" lon="152.8804918">
<ele>13.806</ele>
<time>2016-01-16T05:54:12.817Z</time>
</trkpt>
<trkpt lat="-27.6009684" lon="152.8810829">
<ele>13.739</ele>
<time>2016-01-16T05:54:14.800Z</time>
</trkpt>
<trkpt lat="-27.6010640" lon="152.8823026">
<ele>13.747</ele>
<time>2016-01-16T05:54:18.917Z</time>
</trkpt>
<trkpt lat="-27.6011450" lon="152.8828780">
<ele>14.218</ele>
<time>2016-01-16T05:54:20.927Z</time>
</trkpt>
<trkpt lat="-27.6012865" lon="152.8837093">
<ele>15.460</ele>
<time>2016-01-16T05:54:23.860Z</time>
</trkpt>
<trkpt lat="-27.6014576" lon="152.8845496">
<ele>17.128</ele>
<time>2016-01-16T05:54:26.792Z</time>
</trkpt>
<trkpt lat="-27.6015934" lon="152.8851246">
<ele>18.912</ele>
<time>2016-01-16T05:54:28.801Z</time>
</trkpt>
<trkpt lat="-27.6017387" lon="152.8856948">
<ele>20.689</ele>
<time>2016-01-16T05:54:30.809Z</time>
</trkpt>
<trkpt lat="-27.6018998" lon="152.8862478">
<ele>22.198</ele>
<time>2016-01-16T05:54:32.786Z</time>
</trkpt>
<trkpt lat="-27.6021659" lon="152.8870624">
<ele>23.545</ele>
<time>2016-01-16T05:54:35.756Z</time>
</trkpt>
<trkpt lat="-27.6023719" lon="152.8875891">
<ele>24.569</ele>
<time>2016-01-16T05:54:37.727Z</time>
</trkpt>
<trkpt lat="-27.6025793" lon="152.8881322">
<ele>25.014</ele>
<time>2016-01-16T05:54:39.758Z</time>
</trkpt>
<trkpt lat="-27.6028784" lon="152.8889305">
<ele>25.017</ele>
<time>2016-01-16T05:54:42.761Z</time>
</trkpt>
<trkpt lat="-27.6030943" lon="152.8894580">
<ele>24.274</ele>
<time>2016-01-16T05:54:44.786Z</time>
</trkpt>
<trkpt lat="-27.6034220" lon="152.8902407">
<ele>22.191</ele>
<time>2016-01-16T05:54:47.836Z</time>
</trkpt>
<trkpt lat="-27.6036442" lon="152.8907448">
<ele>19.473</ele>
<time>2016-01-16T05:54:49.823Z</time>
</trkpt>
<trkpt lat="-27.6039581" lon="152.8915086">
<ele>17.444</ele>
<time>2016-01-16T05:54:52.777Z</time>
</trkpt>
<trkpt lat="-27.6041659" lon="152.8920215">
<ele>16.537</ele>
<time>2016-01-16T05:54:54.732Z</time>
</trkpt>
<trkpt lat="-27.6043844" lon="152.8925402">
<ele>16.365</ele>
<time>2016-01-16T05:54:56.716Z</time>
</trkpt>
<trkpt lat="-27.6047328" lon="152.8933108">
<ele>16.506</ele>
<time>2016-01-16T05:54:59.727Z</time>
</trkpt>
<trkpt lat="-27.6049806" lon="152.8938107">
<ele>16.478</ele>
<time>2016-01-16T05:55:01.729Z</time>
</trkpt>
<trkpt lat="-27.6054021" lon="152.8944838">
<ele>16.048</ele>
<time>2016-01-16T05:55:04.615Z</time>
</trkpt>
<trkpt lat="-27.6059146" lon="152.8951222">
<ele>15.235</ele>
<time>2016-01-16T05:55:07.643Z</time>
</trkpt>
<trkpt lat="-27.6062625" lon="152.8955083">
<ele>14.238</ele>
<time>2016-01-16T05:55:09.573Z</time>
</trkpt>
<trkpt lat="-27.6066312" lon="152.8959160">
<ele>13.191</ele>
<time>2016-01-16T05:55:11.607Z</time>
</trkpt>
<trkpt lat="-27.6071526" lon="152.8965535">
<ele>12.134</ele>
<time>2016-01-16T05:55:14.647Z</time>
</trkpt>
<trkpt lat="-27.6074795" lon="152.8970012">
<ele>10.980</ele>
<time>2016-01-16T05:55:16.671Z</time>
</trkpt>
<trkpt lat="-27.6077910" lon="152.8974704">
<ele>9.626</ele>
<time>2016-01-16T05:55:18.679Z</time>
</trkpt>
<trkpt lat="-27.6082009" lon="152.8982259">
<ele>8.278</ele>
<time>2016-01-16T05:55:21.695Z</time>
</trkpt>
<trkpt lat="-27.6085402" lon="152.8990240">
<ele>7.953</ele>
<time>2016-01-16T05:55:24.755Z</time>
</trkpt>
<trkpt lat="-27.6088046" lon="152.8998077">
<ele>9.055</ele>
<time>2016-01-16T05:55:27.690Z</time>
</trkpt>
<trkpt lat="-27.6089367" lon="152.9003508">
<ele>10.530</ele>
<time>2016-01-16T05:55:29.653Z</time>
</trkpt>
<trkpt lat="-27.6090941" lon="152.9011853">
<ele>11.917</ele>
<time>2016-01-16T05:55:32.616Z</time>
</trkpt>
<trkpt lat="-27.6091905" lon="152.9020542">
<ele>12.946</ele>
<time>2016-01-16T05:55:35.648Z</time>
</trkpt>
<trkpt lat="-27.6092240" lon="152.9026331">
<ele>12.892</ele>
<time>2016-01-16T05:55:37.667Z</time>
</trkpt>
<trkpt lat="-27.6092184" lon="152.9032094">
<ele>12.262</ele>
<time>2016-01-16T05:55:39.693Z</time>
</trkpt>
<trkpt lat="-27.6091996" lon="152.9037732">
<ele>11.987</ele>
<time>2016-01-16T05:55:41.690Z</time>
</trkpt>
<trkpt lat="-27.6091480" lon="152.9045974">
<ele>11.570</ele>
<time>2016-01-16T05:55:44.647Z</time>
</trkpt>
<trkpt lat="-27.6091075" lon="152.9054539">
<ele>10.612</ele>
<time>2016-01-16T05:55:47.791Z</time>
</trkpt>
<trkpt lat="-27.6090768" lon="152.9059826">
<ele>9.644</ele>
<time>2016-01-16T05:55:49.804Z</time>
</trkpt>
<trkpt lat="-27.6090309" lon="152.9067269">
<ele>9.232</ele>
<time>2016-01-16T05:55:52.873Z</time>
</trkpt>
<trkpt lat="-27.6089579" lon="152.9074077">
<ele>8.898</ele>
<time>2016-01-16T05:55:55.767Z</time>
</trkpt>
<trkpt lat="-27.6088526" lon="152.9081151">
<ele>7.901</ele>
<time>2016-01-16T05:55:58.585Z</time>
</trkpt>
<trkpt lat="-27.6087419" lon="152.9086399">
<ele>6.430</ele>
<time>2016-01-16T05:56:00.544Z</time>
</trkpt>
<trkpt lat="-27.6086188" lon="152.9091847">
<ele>5.843</ele>
<time>2016-01-16T05:56:02.537Z</time>
</trkpt>
<trkpt lat="-27.6084713" lon="152.9097166">
<ele>6.935</ele>
<time>2016-01-16T05:56:04.520Z</time>
</trkpt>
<trkpt lat="-27.6082954" lon="152.9102382">
<ele>8.837</ele>
<time>2016-01-16T05:56:06.493Z</time>
</trkpt>
<trkpt lat="-27.6079717" lon="152.9110199">
<ele>10.255</ele>
<time>2016-01-16T05:56:09.533Z</time>
</trkpt>
<trkpt lat="-27.6077497" lon="152.9115228">
<ele>10.828</ele>
<time>2016-01-16T05:56:11.548Z</time>
</trkpt>
<trkpt lat="-27.6073843" lon="152.9122169">
<ele>10.706</ele>
<time>2016-01-16T05:56:14.491Z</time>
</trkpt>
<trkpt lat="-27.6069836" lon="152.9129040">
<ele>10.194</ele>
<time>2016-01-16T05:56:17.586Z</time>
</trkpt>
<trkpt lat="-27.6067363" lon="152.9133317">
<ele>9.595</ele>
<time>2016-01-16T05:56:19.646Z</time>
</trkpt>
<trkpt lat="-27.6066232" lon="152.9135321">
<ele>9.086</ele>
<time>2016-01-16T05:56:20.639Z</time>
</trkpt>
<trkpt lat="-27.6061525" lon="152.9143158">
<ele>8.702</ele>
<time>2016-01-16T05:56:24.608Z</time>
</trkpt>
<trkpt lat="-27.6059255" lon="152.9147003">
<ele>8.379</ele>
<time>2016-01-16T05:56:26.563Z</time>
</trkpt>
<trkpt lat="-27.6055728" lon="152.9152945">
<ele>8.125</ele>
<time>2016-01-16T05:56:29.568Z</time>
</trkpt>
<trkpt lat="-27.6052612" lon="152.9158843">
<ele>8.108</ele>
<time>2016-01-16T05:56:32.401Z</time>
</trkpt>
<trkpt lat="-27.6049395" lon="152.9165716">
<ele>8.313</ele>
<time>2016-01-16T05:56:35.653Z</time>
</trkpt>
<trkpt lat="-27.6047593" lon="152.9169570">
<ele>8.867</ele>
<time>2016-01-16T05:56:37.503Z</time>
</trkpt>
<trkpt lat="-27.6045399" lon="152.9173523">
<ele>9.872</ele>
<time>2016-01-16T05:56:39.431Z</time>
</trkpt>
<trkpt lat="-27.6041240" lon="152.9179295">
<ele>10.939</ele>
<time>2016-01-16T05:56:42.267Z</time>
</trkpt>
<trkpt lat="-27.6035831" lon="152.9185261">
<ele>12.989</ele>
<time>2016-01-16T05:56:45.234Z</time>
</trkpt>
<trkpt lat="-27.6031600" lon="152.9189020">
<ele>17.287</ele>
<time>2016-01-16T05:56:47.233Z</time>
</trkpt>
<trkpt lat="-27.6027135" lon="152.9192320">
<ele>22.195</ele>
<time>2016-01-16T05:56:49.225Z</time>
</trkpt>
<trkpt lat="-27.6022540" lon="152.9195244">
<ele>24.967</ele>
<time>2016-01-16T05:56:51.237Z</time>
</trkpt>
<trkpt lat="-27.6015380" lon="152.9198635">
<ele>24.504</ele>
<time>2016-01-16T05:56:54.233Z</time>
</trkpt>
<trkpt lat="-27.6008082" lon="152.9201409">
<ele>21.342</ele>
<time>2016-01-16T05:56:57.183Z</time>
</trkpt>
<trkpt lat="-27.6003064" lon="152.9203317">
<ele>17.432</ele>
<time>2016-01-16T05:56:59.200Z</time>
</trkpt>
<trkpt lat="-27.6000491" lon="152.9204314">
<ele>14.657</ele>
<time>2016-01-16T05:57:00.240Z</time>
</trkpt>
<trkpt lat="-27.5990529" lon="152.9207827">
<ele>13.654</ele>
<time>2016-01-16T05:57:04.225Z</time>
</trkpt>
<trkpt lat="-27.5985519" lon="152.9209504">
<ele>14.099</ele>
<time>2016-01-16T05:57:06.226Z</time>
</trkpt>
<trkpt lat="-27.5977878" lon="152.9212021">
<ele>15.186</ele>
<time>2016-01-16T05:57:09.287Z</time>
</trkpt>
<trkpt lat="-27.5970532" lon="152.9215024">
<ele>16.212</ele>
<time>2016-01-16T05:57:12.321Z</time>
</trkpt>
<trkpt lat="-27.5965796" lon="152.9216985">
<ele>16.810</ele>
<time>2016-01-16T05:57:14.284Z</time>
</trkpt>
<trkpt lat="-27.5960976" lon="152.9219161">
<ele>16.843</ele>
<time>2016-01-16T05:57:16.281Z</time>
</trkpt>
<trkpt lat="-27.5953762" lon="152.9222569">
<ele>16.471</ele>
<time>2016-01-16T05:57:19.267Z</time>
</trkpt>
<trkpt lat="-27.5949046" lon="152.9224976">
<ele>16.141</ele>
<time>2016-01-16T05:57:21.232Z</time>
</trkpt>
<trkpt lat="-27.5942003" lon="152.9228859">
<ele>16.282</ele>
<time>2016-01-16T05:57:24.206Z</time>
</trkpt>
<trkpt lat="-27.5935034" lon="152.9233136">
<ele>16.849</ele>
<time>2016-01-16T05:57:27.245Z</time>
</trkpt>
<trkpt lat="-27.5928662" lon="152.9237799">
<ele>17.426</ele>
<time>2016-01-16T05:57:30.183Z</time>
</trkpt>
<trkpt lat="-27.5924248" lon="152.9240886">
<ele>17.491</ele>
<time>2016-01-16T05:57:32.185Z</time>
</trkpt>
<trkpt lat="-27.5917625" lon="152.9245568">
<ele>16.711</ele>
<time>2016-01-16T05:57:35.182Z</time>
</trkpt>
<trkpt lat="-27.5911014" lon="152.9250329">
<ele>15.392</ele>
<time>2016-01-16T05:57:38.169Z</time>
</trkpt>
<trkpt lat="-27.5904220" lon="152.9255028">
<ele>14.298</ele>
<time>2016-01-16T05:57:41.210Z</time>
</trkpt>
<trkpt lat="-27.5899692" lon="152.9258079">
<ele>13.479</ele>
<time>2016-01-16T05:57:43.263Z</time>
</trkpt>
<trkpt lat="-27.5895377" lon="152.9261042">
<ele>12.528</ele>
<time>2016-01-16T05:57:45.253Z</time>
</trkpt>
<trkpt lat="-27.5888937" lon="152.9265455">
<ele>11.301</ele>
<time>2016-01-16T05:57:48.192Z</time>
</trkpt>
<trkpt lat="-27.5882369" lon="152.9269844">
<ele>9.980</ele>
<time>2016-01-16T05:57:51.130Z</time>
</trkpt>
<trkpt lat="-27.5877939" lon="152.9272991">
<ele>8.999</ele>
<time>2016-01-16T05:57:53.128Z</time>
</trkpt>
<trkpt lat="-27.5873450" lon="152.9276126">
<ele>8.839</ele>
<time>2016-01-16T05:57:55.117Z</time>
</trkpt>
<trkpt lat="-27.5868966" lon="152.9279432">
<ele>9.659</ele>
<time>2016-01-16T05:57:57.084Z</time>
</trkpt>
<trkpt lat="-27.5862082" lon="152.9284922">
<ele>11.176</ele>
<time>2016-01-16T05:58:00.148Z</time>
</trkpt>
<trkpt lat="-27.5857674" lon="152.9288797">
<ele>12.852</ele>
<time>2016-01-16T05:58:02.189Z</time>
</trkpt>
<trkpt lat="-27.5853618" lon="152.9292881">
<ele>14.571</ele>
<time>2016-01-16T05:58:04.195Z</time>
</trkpt>
<trkpt lat="-27.5847834" lon="152.9299208">
<ele>15.894</ele>
<time>2016-01-16T05:58:07.191Z</time>
</trkpt>
<trkpt lat="-27.5844315" lon="152.9303650">
<ele>16.569</ele>
<time>2016-01-16T05:58:09.178Z</time>
</trkpt>
<trkpt lat="-27.5840901" lon="152.9308169">
<ele>17.182</ele>
<time>2016-01-16T05:58:11.161Z</time>
</trkpt>
<trkpt lat="-27.5835955" lon="152.9315426">
<ele>17.864</ele>
<time>2016-01-16T05:58:14.209Z</time>
</trkpt>
<trkpt lat="-27.5831254" lon="152.9322563">
<ele>18.271</ele>
<time>2016-01-16T05:58:17.158Z</time>
</trkpt>
<trkpt lat="-27.5828086" lon="152.9327407">
<ele>18.463</ele>
<time>2016-01-16T05:58:19.148Z</time>
</trkpt>
<trkpt lat="-27.5823342" lon="152.9334627">
<ele>18.520</ele>
<time>2016-01-16T05:58:22.099Z</time>
</trkpt>
<trkpt lat="-27.5819924" lon="152.9339449">
<ele>19.048</ele>
<time>2016-01-16T05:58:24.125Z</time>
</trkpt>
<trkpt lat="-27.5816732" lon="152.9344294">
<ele>20.400</ele>
<time>2016-01-16T05:58:26.164Z</time>
</trkpt>
<trkpt lat="-27.5815275" lon="152.9346715">
<ele>21.514</ele>
<time>2016-01-16T05:58:27.166Z</time>
</trkpt>
<trkpt lat="-27.5809526" lon="152.9356730">
<ele>21.498</ele>
<time>2016-01-16T05:58:31.259Z</time>
</trkpt>
<trkpt lat="-27.5806852" lon="152.9361759">
<ele>20.916</ele>
<time>2016-01-16T05:58:33.331Z</time>
</trkpt>
<trkpt lat="-27.5804203" lon="152.9366298">
<ele>20.277</ele>
<time>2016-01-16T05:58:35.286Z</time>
</trkpt>
<trkpt lat="-27.5800390" lon="152.9373534">
<ele>19.168</ele>
<time>2016-01-16T05:58:38.291Z</time>
</trkpt>
<trkpt lat="-27.5796418" lon="152.9380739">
<ele>17.507</ele>
<time>2016-01-16T05:58:41.253Z</time>
</trkpt>
<trkpt lat="-27.5793766" lon="152.9385345">
<ele>16.092</ele>
<time>2016-01-16T05:58:43.130Z</time>
</trkpt>
<trkpt lat="-27.5789872" lon="152.9393085">
<ele>15.467</ele>
<time>2016-01-16T05:58:46.164Z</time>
</trkpt>
<trkpt lat="-27.5787541" lon="152.9398368">
<ele>14.944</ele>
<time>2016-01-16T05:58:48.198Z</time>
</trkpt>
<trkpt lat="-27.5784091" lon="152.9406108">
<ele>13.772</ele>
<time>2016-01-16T05:58:51.203Z</time>
</trkpt>
<trkpt lat="-27.5780636" lon="152.9413764">
<ele>12.021</ele>
<time>2016-01-16T05:58:54.189Z</time>
</trkpt>
<trkpt lat="-27.5778382" lon="152.9418824">
<ele>10.175</ele>
<time>2016-01-16T05:58:56.162Z</time>
</trkpt>
<trkpt lat="-27.5776246" lon="152.9423881">
<ele>8.642</ele>
<time>2016-01-16T05:58:58.126Z</time>
</trkpt>
<trkpt lat="-27.5773454" lon="152.9431891">
<ele>7.699</ele>
<time>2016-01-16T05:59:01.163Z</time>
</trkpt>
<trkpt lat="-27.5770308" lon="152.9439261">
<ele>7.286</ele>
<time>2016-01-16T05:59:04.081Z</time>
</trkpt>
<trkpt lat="-27.5767778" lon="152.9446825">
<ele>7.207</ele>
<time>2016-01-16T05:59:06.978Z</time>
</trkpt>
<trkpt lat="-27.5765869" lon="152.9451971">
<ele>7.193</ele>
<time>2016-01-16T05:59:08.996Z</time>
</trkpt>
<trkpt lat="-27.5764122" lon="152.9457351">
<ele>7.104</ele>
<time>2016-01-16T05:59:11.083Z</time>
</trkpt>
<trkpt lat="-27.5760747" lon="152.9467631">
<ele>7.291</ele>
<time>2016-01-16T05:59:15.177Z</time>
</trkpt>
<trkpt lat="-27.5759233" lon="152.9472347">
<ele>8.191</ele>
<time>2016-01-16T05:59:17.112Z</time>
</trkpt>
<trkpt lat="-27.5757054" lon="152.9479863">
<ele>9.705</ele>
<time>2016-01-16T05:59:20.136Z</time>
</trkpt>
<trkpt lat="-27.5755768" lon="152.9484681">
<ele>11.748</ele>
<time>2016-01-16T05:59:22.040Z</time>
</trkpt>
<trkpt lat="-27.5754509" lon="152.9489587">
<ele>14.422</ele>
<time>2016-01-16T05:59:23.979Z</time>
</trkpt>
<trkpt lat="-27.5753004" lon="152.9494525">
<ele>17.549</ele>
<time>2016-01-16T05:59:25.967Z</time>
</trkpt>
<trkpt lat="-27.5750693" lon="152.9502020">
<ele>20.992</ele>
<time>2016-01-16T05:59:28.971Z</time>
</trkpt>
<trkpt lat="-27.5748524" lon="152.9509631">
<ele>24.610</ele>
<time>2016-01-16T05:59:31.987Z</time>
</trkpt>
<trkpt lat="-27.5746782" lon="152.9517534">
<ele>27.787</ele>
<time>2016-01-16T05:59:35.036Z</time>
</trkpt>
<trkpt lat="-27.5745637" lon="152.9522635">
<ele>29.867</ele>
<time>2016-01-16T05:59:36.998Z</time>
</trkpt>
<trkpt lat="-27.5743293" lon="152.9529805">
<ele>30.723</ele>
<time>2016-01-16T05:59:39.905Z</time>
</trkpt>
<trkpt lat="-27.5741652" lon="152.9534119">
<ele>30.545</ele>
<time>2016-01-16T05:59:41.766Z</time>
</trkpt>
<trkpt lat="-27.5740063" lon="152.9538663">
<ele>29.667</ele>
<time>2016-01-16T05:59:43.747Z</time>
</trkpt>
<trkpt lat="-27.5738374" lon="152.9543105">
<ele>28.228</ele>
<time>2016-01-16T05:59:45.690Z</time>
</trkpt>
<trkpt lat="-27.5736068" lon="152.9550128">
<ele>26.357</ele>
<time>2016-01-16T05:59:48.663Z</time>
</trkpt>
<trkpt lat="-27.5733473" lon="152.9557297">
<ele>24.553</ele>
<time>2016-01-16T05:59:51.700Z</time>
</trkpt>
<trkpt lat="-27.5731754" lon="152.9561989">
<ele>23.316</ele>
<time>2016-01-16T05:59:53.683Z</time>
</trkpt>
<trkpt lat="-27.5728929" lon="152.9568869">
<ele>22.735</ele>
<time>2016-01-16T05:59:56.633Z</time>
</trkpt>
<trkpt lat="-27.5727010" lon="152.9573579">
<ele>22.718</ele>
<time>2016-01-16T05:59:58.614Z</time>
</trkpt>
<trkpt lat="-27.5724129" lon="152.9580685">
<ele>22.997</ele>
<time>2016-01-16T06:00:01.581Z</time>
</trkpt>
<trkpt lat="-27.5721465" lon="152.9587557">
<ele>23.474</ele>
<time>2016-01-16T06:00:04.436Z</time>
</trkpt>
<trkpt lat="-27.5718465" lon="152.9594971">
<ele>24.112</ele>
<time>2016-01-16T06:00:07.571Z</time>
</trkpt>
<trkpt lat="-27.5715603" lon="152.9602070">
<ele>24.506</ele>
<time>2016-01-16T06:00:10.564Z</time>
</trkpt>
<trkpt lat="-27.5713790" lon="152.9607239">
<ele>24.355</ele>
<time>2016-01-16T06:00:12.671Z</time>
</trkpt>
<trkpt lat="-27.5711602" lon="152.9614458">
<ele>24.245</ele>
<time>2016-01-16T06:00:15.572Z</time>
</trkpt>
<trkpt lat="-27.5709401" lon="152.9621840">
<ele>24.703</ele>
<time>2016-01-16T06:00:18.534Z</time>
</trkpt>
<trkpt lat="-27.5707434" lon="152.9629335">
<ele>25.374</ele>
<time>2016-01-16T06:00:21.497Z</time>
</trkpt>
<trkpt lat="-27.5705361" lon="152.9636946">
<ele>25.545</ele>
<time>2016-01-16T06:00:24.509Z</time>
</trkpt>
<trkpt lat="-27.5702978" lon="152.9644487">
<ele>24.881</ele>
<time>2016-01-16T06:00:27.493Z</time>
</trkpt>
<trkpt lat="-27.5701068" lon="152.9652526">
<ele>23.382</ele>
<time>2016-01-16T06:00:30.544Z</time>
</trkpt>
<trkpt lat="-27.5699404" lon="152.9660207">
<ele>20.547</ele>
<time>2016-01-16T06:00:33.467Z</time>
</trkpt>
<trkpt lat="-27.5698101" lon="152.9665248">
<ele>16.530</ele>
<time>2016-01-16T06:00:35.475Z</time>
</trkpt>
<trkpt lat="-27.5696594" lon="152.9670123">
<ele>12.750</ele>
<time>2016-01-16T06:00:37.502Z</time>
</trkpt>
<trkpt lat="-27.5694327" lon="152.9676793">
<ele>10.181</ele>
<time>2016-01-16T06:00:40.364Z</time>
</trkpt>
<trkpt lat="-27.5692650" lon="152.9681288">
<ele>9.264</ele>
<time>2016-01-16T06:00:42.345Z</time>
</trkpt>
<trkpt lat="-27.5690446" lon="152.9688373">
<ele>10.376</ele>
<time>2016-01-16T06:00:45.405Z</time>
</trkpt>
<trkpt lat="-27.5688163" lon="152.9695165">
<ele>12.648</ele>
<time>2016-01-16T06:00:48.368Z</time>
</trkpt>
<trkpt lat="-27.5686558" lon="152.9699778">
<ele>14.604</ele>
<time>2016-01-16T06:00:50.408Z</time>
</trkpt>
<trkpt lat="-27.5684434" lon="152.9706612">
<ele>15.509</ele>
<time>2016-01-16T06:00:53.405Z</time>
</trkpt>
<trkpt lat="-27.5682970" lon="152.9711138">
<ele>15.275</ele>
<time>2016-01-16T06:00:55.378Z</time>
</trkpt>
<trkpt lat="-27.5681047" lon="152.9718378">
<ele>14.123</ele>
<time>2016-01-16T06:00:58.430Z</time>
</trkpt>
<trkpt lat="-27.5679513" lon="152.9722916">
<ele>12.364</ele>
<time>2016-01-16T06:01:00.379Z</time>
</trkpt>
<trkpt lat="-27.5678126" lon="152.9727442">
<ele>10.344</ele>
<time>2016-01-16T06:01:02.311Z</time>
</trkpt>
<trkpt lat="-27.5676583" lon="152.9732244">
<ele>8.708</ele>
<time>2016-01-16T06:01:04.343Z</time>
</trkpt>
<trkpt lat="-27.5674534" lon="152.9739593">
<ele>8.239</ele>
<time>2016-01-16T06:01:07.351Z</time>
</trkpt>
<trkpt lat="-27.5673307" lon="152.9744384">
<ele>9.437</ele>
<time>2016-01-16T06:01:09.273Z</time>
</trkpt>
<trkpt lat="-27.5672269" lon="152.9749473">
<ele>11.936</ele>
<time>2016-01-16T06:01:11.297Z</time>
</trkpt>
<trkpt lat="-27.5670666" lon="152.9756876">
<ele>14.155</ele>
<time>2016-01-16T06:01:14.251Z</time>
</trkpt>
<trkpt lat="-27.5669652" lon="152.9761992">
<ele>14.837</ele>
<time>2016-01-16T06:01:16.259Z</time>
</trkpt>
<trkpt lat="-27.5668752" lon="152.9767035">
<ele>14.064</ele>
<time>2016-01-16T06:01:18.223Z</time>
</trkpt>
<trkpt lat="-27.5667641" lon="152.9772120">
<ele>12.600</ele>
<time>2016-01-16T06:01:20.223Z</time>
</trkpt>
<trkpt lat="-27.5665675" lon="152.9782804">
<ele>11.259</ele>
<time>2016-01-16T06:01:24.274Z</time>
</trkpt>
<trkpt lat="-27.5664645" lon="152.9788182">
<ele>10.174</ele>
<time>2016-01-16T06:01:26.283Z</time>
</trkpt>
<trkpt lat="-27.5663615" lon="152.9793491">
<ele>8.492</ele>
<time>2016-01-16T06:01:28.277Z</time>
</trkpt>
<trkpt lat="-27.5662627" lon="152.9798608">
<ele>5.909</ele>
<time>2016-01-16T06:01:30.223Z</time>
</trkpt>
<trkpt lat="-27.5661094" lon="152.9806345">
<ele>3.185</ele>
<time>2016-01-16T06:01:33.202Z</time>
</trkpt>
<trkpt lat="-27.5660068" lon="152.9811397">
<ele>0.883</ele>
<time>2016-01-16T06:01:35.167Z</time>
</trkpt>
<trkpt lat="-27.5659064" lon="152.9816607">
<ele>0.000</ele>
<time>2016-01-16T06:01:37.186Z</time>
</trkpt>
<trkpt lat="-27.5658068" lon="152.9821761">
<ele>0.000</ele>
<time>2016-01-16T06:01:39.187Z</time>
</trkpt>
<trkpt lat="-27.5657116" lon="152.9826907">
<ele>0.000</ele>
<time>2016-01-16T06:01:41.179Z</time>
</trkpt>
<trkpt lat="-27.5655514" lon="152.9834748">
<ele>0.000</ele>
<time>2016-01-16T06:01:44.193Z</time>
</trkpt>
<trkpt lat="-27.5654404" lon="152.9840016">
<ele>0.000</ele>
<time>2016-01-16T06:01:46.192Z</time>
</trkpt>
<trkpt lat="-27.5652700" lon="152.9847870">
<ele>0.000</ele>
<time>2016-01-16T06:01:49.188Z</time>
</trkpt>
<trkpt lat="-27.5651136" lon="152.9855601">
<ele>0.000</ele>
<time>2016-01-16T06:01:52.145Z</time>
</trkpt>
<trkpt lat="-27.5649563" lon="152.9863544">
<ele>0.000</ele>
<time>2016-01-16T06:01:55.158Z</time>
</trkpt>
<trkpt lat="-27.5648429" lon="152.9868750">
<ele>1.172</ele>
<time>2016-01-16T06:01:57.106Z</time>
</trkpt>
<trkpt lat="-27.5647339" lon="152.9874113">
<ele>2.162</ele>
<time>2016-01-16T06:01:59.041Z</time>
</trkpt>
<trkpt lat="-27.5646012" lon="152.9879899">
<ele>2.629</ele>
<time>2016-01-16T06:02:01.100Z</time>
</trkpt>
<trkpt lat="-27.5642532" lon="152.9891051">
<ele>2.850</ele>
<time>2016-01-16T06:02:05.154Z</time>
</trkpt>
<trkpt lat="-27.5639990" lon="152.9898695">
<ele>2.877</ele>
<time>2016-01-16T06:02:08.083Z</time>
</trkpt>
<trkpt lat="-27.5638002" lon="152.9903386">
<ele>1.956</ele>
<time>2016-01-16T06:02:10.032Z</time>
</trkpt>
<trkpt lat="-27.5636065" lon="152.9908174">
<ele>0.000</ele>
<time>2016-01-16T06:02:12.049Z</time>
</trkpt>
<trkpt lat="-27.5633093" lon="152.9915084">
<ele>0.000</ele>
<time>2016-01-16T06:02:15.030Z</time>
</trkpt>
<trkpt lat="-27.5629709" lon="152.9921727">
<ele>0.000</ele>
<time>2016-01-16T06:02:18.065Z</time>
</trkpt>
<trkpt lat="-27.5626531" lon="152.9928201">
<ele>1.089</ele>
<time>2016-01-16T06:02:21.101Z</time>
</trkpt>
<trkpt lat="-27.5624705" lon="152.9932223">
<ele>3.024</ele>
<time>2016-01-16T06:02:23.037Z</time>
</trkpt>
<trkpt lat="-27.5622473" lon="152.9935623">
<ele>3.888</ele>
<time>2016-01-16T06:02:24.877Z</time>
</trkpt>
<trkpt lat="-27.5620472" lon="152.9939762">
<ele>3.569</ele>
<time>2016-01-16T06:02:26.898Z</time>
</trkpt>
<trkpt lat="-27.5617400" lon="152.9946338">
<ele>2.762</ele>
<time>2016-01-16T06:02:29.997Z</time>
</trkpt>
<trkpt lat="-27.5614233" lon="152.9952864">
<ele>2.220</ele>
<time>2016-01-16T06:02:33.025Z</time>
</trkpt>
<trkpt lat="-27.5610936" lon="152.9959057">
<ele>2.129</ele>
<time>2016-01-16T06:02:35.952Z</time>
</trkpt>
<trkpt lat="-27.5608937" lon="152.9963520">
<ele>1.866</ele>
<time>2016-01-16T06:02:37.983Z</time>
</trkpt>
<trkpt lat="-27.5606851" lon="152.9967482">
<ele>0.691</ele>
<time>2016-01-16T06:02:39.870Z</time>
</trkpt>
<trkpt lat="-27.5603799" lon="152.9973922">
<ele>0.000</ele>
<time>2016-01-16T06:02:42.881Z</time>
</trkpt>
<trkpt lat="-27.5601746" lon="152.9980780">
<ele>0.000</ele>
<time>2016-01-16T06:02:45.899Z</time>
</trkpt>
<trkpt lat="-27.5600972" lon="152.9983049">
<ele>0.000</ele>
<time>2016-01-16T06:02:46.928Z</time>
</trkpt>
<trkpt lat="-27.5598245" lon="152.9992284">
<ele>0.000</ele>
<time>2016-01-16T06:02:50.980Z</time>
</trkpt>
<trkpt lat="-27.5597096" lon="152.9996836">
<ele>0.000</ele>
<time>2016-01-16T06:02:52.924Z</time>
</trkpt>
<trkpt lat="-27.5595910" lon="153.0001360">
<ele>0.000</ele>
<time>2016-01-16T06:02:54.882Z</time>
</trkpt>
<trkpt lat="-27.5594071" lon="153.0008299">
<ele>0.335</ele>
<time>2016-01-16T06:02:57.903Z</time>
</trkpt>
<trkpt lat="-27.5592851" lon="153.0012891">
<ele>0.956</ele>
<time>2016-01-16T06:02:59.894Z</time>
</trkpt>
<trkpt lat="-27.5591479" lon="153.0017395">
<ele>0.911</ele>
<time>2016-01-16T06:03:01.873Z</time>
</trkpt>
<trkpt lat="-27.5590138" lon="153.0022014">
<ele>0.787</ele>
<time>2016-01-16T06:03:03.906Z</time>
</trkpt>
<trkpt lat="-27.5588112" lon="153.0028847">
<ele>1.108</ele>
<time>2016-01-16T06:03:06.949Z</time>
</trkpt>
<trkpt lat="-27.5586586" lon="153.0033175">
<ele>1.464</ele>
<time>2016-01-16T06:03:08.948Z</time>
</trkpt>
<trkpt lat="-27.5583096" lon="153.0041990">
<ele>1.369</ele>
<time>2016-01-16T06:03:13.065Z</time>
</trkpt>
<trkpt lat="-27.5581381" lon="153.0046168">
<ele>0.765</ele>
<time>2016-01-16T06:03:15.008Z</time>
</trkpt>
<trkpt lat="-27.5579675" lon="153.0050514">
<ele>0.000</ele>
<time>2016-01-16T06:03:17.022Z</time>
</trkpt>
<trkpt lat="-27.5576930" lon="153.0056883">
<ele>0.000</ele>
<time>2016-01-16T06:03:20.014Z</time>
</trkpt>
<trkpt lat="-27.5573892" lon="153.0063201">
<ele>0.000</ele>
<time>2016-01-16T06:03:23.031Z</time>
</trkpt>
<trkpt lat="-27.5570768" lon="153.0069235">
<ele>0.000</ele>
<time>2016-01-16T06:03:25.967Z</time>
</trkpt>
<trkpt lat="-27.5568490" lon="153.0073206">
<ele>0.000</ele>
<time>2016-01-16T06:03:27.966Z</time>
</trkpt>
<trkpt lat="-27.5565872" lon="153.0076868">
<ele>0.000</ele>
<time>2016-01-16T06:03:29.967Z</time>
</trkpt>
<trkpt lat="-27.5561429" lon="153.0081784">
<ele>0.000</ele>
<time>2016-01-16T06:03:32.988Z</time>
</trkpt>
<trkpt lat="-27.5558088" lon="153.0084410">
<ele>0.000</ele>
<time>2016-01-16T06:03:34.993Z</time>
</trkpt>
<trkpt lat="-27.5550528" lon="153.0088225">
<ele>0.925</ele>
<time>2016-01-16T06:03:39.034Z</time>
</trkpt>
<trkpt lat="-27.5544510" lon="153.0090153">
<ele>2.685</ele>
<time>2016-01-16T06:03:42.027Z</time>
</trkpt>
<trkpt lat="-27.5540451" lon="153.0090993">
<ele>3.106</ele>
<time>2016-01-16T06:03:43.998Z</time>
</trkpt>
<trkpt lat="-27.5534286" lon="153.0092059">
<ele>1.890</ele>
<time>2016-01-16T06:03:46.955Z</time>
</trkpt>
<trkpt lat="-27.5530088" lon="153.0092546">
<ele>0.000</ele>
<time>2016-01-16T06:03:48.919Z</time>
</trkpt>
<trkpt lat="-27.5525572" lon="153.0092805">
<ele>0.000</ele>
<time>2016-01-16T06:03:50.998Z</time>
</trkpt>
<trkpt lat="-27.5521227" lon="153.0092925">
<ele>0.000</ele>
<time>2016-01-16T06:03:52.992Z</time>
</trkpt>
<trkpt lat="-27.5514738" lon="153.0093078">
<ele>0.000</ele>
<time>2016-01-16T06:03:55.987Z</time>
</trkpt>
<trkpt lat="-27.5508205" lon="153.0093402">
<ele>0.000</ele>
<time>2016-01-16T06:03:59.047Z</time>
</trkpt>
<trkpt lat="-27.5504087" lon="153.0093772">
<ele>0.000</ele>
<time>2016-01-16T06:04:00.996Z</time>
</trkpt>
<trkpt lat="-27.5499988" lon="153.0094054">
<ele>0.000</ele>
<time>2016-01-16T06:04:02.949Z</time>
</trkpt>
<trkpt lat="-27.5495904" lon="153.0094455">
<ele>0.000</ele>
<time>2016-01-16T06:04:04.925Z</time>
</trkpt>
<trkpt lat="-27.5489788" lon="153.0095470">
<ele>0.000</ele>
<time>2016-01-16T06:04:07.939Z</time>
</trkpt>
<trkpt lat="-27.5483796" lon="153.0096649">
<ele>0.000</ele>
<time>2016-01-16T06:04:10.927Z</time>
</trkpt>
<trkpt lat="-27.5477804" lon="153.0097937">
<ele>0.000</ele>
<time>2016-01-16T06:04:13.928Z</time>
</trkpt>
<trkpt lat="-27.5473716" lon="153.0098762">
<ele>0.000</ele>
<time>2016-01-16T06:04:15.973Z</time>
</trkpt>
<trkpt lat="-27.5469699" lon="153.0099591">
<ele>0.000</ele>
<time>2016-01-16T06:04:17.988Z</time>
</trkpt>
<trkpt lat="-27.5463799" lon="153.0100755">
<ele>0.000</ele>
<time>2016-01-16T06:04:20.951Z</time>
</trkpt>
<trkpt lat="-27.5457950" lon="153.0102218">
<ele>0.000</ele>
<time>2016-01-16T06:04:23.902Z</time>
</trkpt>
<trkpt lat="-27.5452017" lon="153.0104486">
<ele>0.000</ele>
<time>2016-01-16T06:04:26.952Z</time>
</trkpt>
<trkpt lat="-27.5448357" lon="153.0106264">
<ele>0.000</ele>
<time>2016-01-16T06:04:28.879Z</time>
</trkpt>
<trkpt lat="-27.5442748" lon="153.0109801">
<ele>0.222</ele>
<time>2016-01-16T06:04:31.970Z</time>
</trkpt>
<trkpt lat="-27.5439315" lon="153.0112493">
<ele>1.305</ele>
<time>2016-01-16T06:04:33.973Z</time>
</trkpt>
<trkpt lat="-27.5436130" lon="153.0115378">
<ele>2.402</ele>
<time>2016-01-16T06:04:35.943Z</time>
</trkpt>
<trkpt lat="-27.5432903" lon="153.0118290">
<ele>3.693</ele>
<time>2016-01-16T06:04:37.940Z</time>
</trkpt>
<trkpt lat="-27.5429594" lon="153.0121110">
<ele>5.180</ele>
<time>2016-01-16T06:04:39.943Z</time>
</trkpt>
<trkpt lat="-27.5425945" lon="153.0123792">
<ele>6.401</ele>
<time>2016-01-16T06:04:42.053Z</time>
</trkpt>
<trkpt lat="-27.5418453" lon="153.0127974">
<ele>6.979</ele>
<time>2016-01-16T06:04:46.181Z</time>
</trkpt>
<trkpt lat="-27.5413202" lon="153.0130082">
<ele>6.756</ele>
<time>2016-01-16T06:04:49.189Z</time>
</trkpt>
<trkpt lat="-27.5408537" lon="153.0131518">
<ele>5.462</ele>
<time>2016-01-16T06:04:52.064Z</time>
</trkpt>
<trkpt lat="-27.5405448" lon="153.0132387">
<ele>2.925</ele>
<time>2016-01-16T06:04:54.035Z</time>
</trkpt>
<trkpt lat="-27.5400777" lon="153.0133421">
<ele>0.000</ele>
<time>2016-01-16T06:04:56.982Z</time>
</trkpt>
<trkpt lat="-27.5395974" lon="153.0134635">
<ele>0.000</ele>
<time>2016-01-16T06:05:00.012Z</time>
</trkpt>
<trkpt lat="-27.5392764" lon="153.0135366">
<ele>0.000</ele>
<time>2016-01-16T06:05:02.021Z</time>
</trkpt>
<trkpt lat="-27.5388023" lon="153.0136283">
<ele>0.000</ele>
<time>2016-01-16T06:05:04.984Z</time>
</trkpt>
<trkpt lat="-27.5384782" lon="153.0136969">
<ele>0.000</ele>
<time>2016-01-16T06:05:07.031Z</time>
</trkpt>
<trkpt lat="-27.5381697" lon="153.0137555">
<ele>0.000</ele>
<time>2016-01-16T06:05:09.006Z</time>
</trkpt>
<trkpt lat="-27.5380070" lon="153.0137807">
<ele>0.000</ele>
<time>2016-01-16T06:05:10.057Z</time>
</trkpt>
<trkpt lat="-27.5373766" lon="153.0138936">
<ele>0.259</ele>
<time>2016-01-16T06:05:14.128Z</time>
</trkpt>
<trkpt lat="-27.5370861" lon="153.0139468">
<ele>0.241</ele>
<time>2016-01-16T06:05:15.997Z</time>
</trkpt>
<trkpt lat="-27.5367976" lon="153.0140060">
<ele>0.189</ele>
<time>2016-01-16T06:05:17.894Z</time>
</trkpt>
<trkpt lat="-27.5363558" lon="153.0141086">
<ele>0.133</ele>
<time>2016-01-16T06:05:20.844Z</time>
</trkpt>
<trkpt lat="-27.5359024" lon="153.0142227">
<ele>0.007</ele>
<time>2016-01-16T06:05:23.905Z</time>
</trkpt>
<trkpt lat="-27.5356226" lon="153.0143546">
<ele>0.000</ele>
<time>2016-01-16T06:05:25.939Z</time>
</trkpt>
<trkpt lat="-27.5353625" lon="153.0145275">
<ele>0.000</ele>
<time>2016-01-16T06:05:27.965Z</time>
</trkpt>
<trkpt lat="-27.5349566" lon="153.0147986">
<ele>0.000</ele>
<time>2016-01-16T06:05:31.074Z</time>
</trkpt>
<trkpt lat="-27.5347195" lon="153.0149617">
<ele>0.000</ele>
<time>2016-01-16T06:05:32.863Z</time>
</trkpt>
<trkpt lat="-27.5342885" lon="153.0152440">
<ele>0.000</ele>
<time>2016-01-16T06:05:36.055Z</time>
</trkpt>
<trkpt lat="-27.5338820" lon="153.0155266">
<ele>0.007</ele>
<time>2016-01-16T06:05:39.107Z</time>
</trkpt>
<trkpt lat="-27.5336189" lon="153.0157116">
<ele>1.047</ele>
<time>2016-01-16T06:05:41.089Z</time>
</trkpt>
<trkpt lat="-27.5333669" lon="153.0159038">
<ele>1.813</ele>
<time>2016-01-16T06:05:43.019Z</time>
</trkpt>
<trkpt lat="-27.5329505" lon="153.0162024">
<ele>2.177</ele>
<time>2016-01-16T06:05:46.127Z</time>
</trkpt>
<trkpt lat="-27.5325606" lon="153.0164834">
<ele>2.232</ele>
<time>2016-01-16T06:05:49.048Z</time>
</trkpt>
<trkpt lat="-27.5322903" lon="153.0166799">
<ele>2.207</ele>
<time>2016-01-16T06:05:51.069Z</time>
</trkpt>
<trkpt lat="-27.5318728" lon="153.0169859">
<ele>2.309</ele>
<time>2016-01-16T06:05:54.161Z</time>
</trkpt>
<trkpt lat="-27.5316057" lon="153.0171956">
<ele>2.959</ele>
<time>2016-01-16T06:05:56.168Z</time>
</trkpt>
<trkpt lat="-27.5313412" lon="153.0174081">
<ele>4.410</ele>
<time>2016-01-16T06:05:58.195Z</time>
</trkpt>
<trkpt lat="-27.5309661" lon="153.0177071">
<ele>6.094</ele>
<time>2016-01-16T06:06:01.151Z</time>
</trkpt>
<trkpt lat="-27.5306074" lon="153.0179870">
<ele>7.373</ele>
<time>2016-01-16T06:06:04.188Z</time>
</trkpt>
<trkpt lat="-27.5303113" lon="153.0182268">
<ele>8.529</ele>
<time>2016-01-16T06:06:07.143Z</time>
</trkpt>
<trkpt lat="-27.5300892" lon="153.0184167">
<ele>9.807</ele>
<time>2016-01-16T06:06:10.044Z</time>
</trkpt>
<trkpt lat="-27.5299552" lon="153.0185324">
<ele>10.431</ele>
<time>2016-01-16T06:06:12.395Z</time>
</trkpt>
<trkpt lat="-27.5297888" lon="153.0186716">
<ele>9.642</ele>
<time>2016-01-16T06:06:16.253Z</time>
</trkpt>
<trkpt lat="-27.5295442" lon="153.0188679">
<ele>8.046</ele>
<time>2016-01-16T06:06:20.464Z</time>
</trkpt>
<trkpt lat="-27.5293358" lon="153.0190449">
<ele>7.262</ele>
<time>2016-01-16T06:06:22.772Z</time>
</trkpt>
<trkpt lat="-27.5290972" lon="153.0192647">
<ele>8.188</ele>
<time>2016-01-16T06:06:25.009Z</time>
</trkpt>
<trkpt lat="-27.5288489" lon="153.0194901">
<ele>10.108</ele>
<time>2016-01-16T06:06:27.105Z</time>
</trkpt>
<trkpt lat="-27.5284896" lon="153.0198106">
<ele>11.757</ele>
<time>2016-01-16T06:06:30.043Z</time>
</trkpt>
<trkpt lat="-27.5282417" lon="153.0200239">
<ele>12.284</ele>
<time>2016-01-16T06:06:32.050Z</time>
</trkpt>
<trkpt lat="-27.5280000" lon="153.0202309">
<ele>11.540</ele>
<time>2016-01-16T06:06:34.023Z</time>
</trkpt>
<trkpt lat="-27.5276414" lon="153.0205502">
<ele>10.314</ele>
<time>2016-01-16T06:06:37.023Z</time>
</trkpt>
<trkpt lat="-27.5274180" lon="153.0207281">
<ele>9.565</ele>
<time>2016-01-16T06:06:38.832Z</time>
</trkpt>
<trkpt lat="-27.5271645" lon="153.0209317">
<ele>9.585</ele>
<time>2016-01-16T06:06:40.889Z</time>
</trkpt>
<trkpt lat="-27.5268030" lon="153.0212366">
<ele>10.113</ele>
<time>2016-01-16T06:06:43.866Z</time>
</trkpt>
<trkpt lat="-27.5265501" lon="153.0214495">
<ele>10.887</ele>
<time>2016-01-16T06:06:45.909Z</time>
</trkpt>
<trkpt lat="-27.5261793" lon="153.0217875">
<ele>11.863</ele>
<time>2016-01-16T06:06:48.939Z</time>
</trkpt>
<trkpt lat="-27.5258117" lon="153.0221196">
<ele>12.831</ele>
<time>2016-01-16T06:06:51.938Z</time>
</trkpt>
<trkpt lat="-27.5254489" lon="153.0224474">
<ele>13.299</ele>
<time>2016-01-16T06:06:54.940Z</time>
</trkpt>
<trkpt lat="-27.5250971" lon="153.0227662">
<ele>12.844</ele>
<time>2016-01-16T06:06:57.889Z</time>
</trkpt>
<trkpt lat="-27.5248569" lon="153.0229733">
<ele>11.607</ele>
<time>2016-01-16T06:06:59.892Z</time>
</trkpt>
<trkpt lat="-27.5245059" lon="153.0232907">
<ele>10.339</ele>
<time>2016-01-16T06:07:02.894Z</time>
</trkpt>
<trkpt lat="-27.5242841" lon="153.0234903">
<ele>9.712</ele>
<time>2016-01-16T06:07:04.786Z</time>
</trkpt>
<trkpt lat="-27.5239353" lon="153.0238028">
<ele>9.827</ele>
<time>2016-01-16T06:07:07.765Z</time>
</trkpt>
<trkpt lat="-27.5236997" lon="153.0240160">
<ele>10.336</ele>
<time>2016-01-16T06:07:09.783Z</time>
</trkpt>
<trkpt lat="-27.5234663" lon="153.0242354">
<ele>10.964</ele>
<time>2016-01-16T06:07:11.740Z</time>
</trkpt>
<trkpt lat="-27.5230828" lon="153.0245773">
<ele>11.699</ele>
<time>2016-01-16T06:07:14.733Z</time>
</trkpt>
<trkpt lat="-27.5228173" lon="153.0248116">
<ele>12.917</ele>
<time>2016-01-16T06:07:16.731Z</time>
</trkpt>
<trkpt lat="-27.5225548" lon="153.0250471">
<ele>14.939</ele>
<time>2016-01-16T06:07:18.737Z</time>
</trkpt>
<trkpt lat="-27.5221693" lon="153.0253912">
<ele>17.595</ele>
<time>2016-01-16T06:07:21.729Z</time>
</trkpt>
<trkpt lat="-27.5219205" lon="153.0256246">
<ele>20.664</ele>
<time>2016-01-16T06:07:23.742Z</time>
</trkpt>
<trkpt lat="-27.5215382" lon="153.0259634">
<ele>23.644</ele>
<time>2016-01-16T06:07:26.782Z</time>
</trkpt>
<trkpt lat="-27.5212914" lon="153.0261875">
<ele>25.862</ele>
<time>2016-01-16T06:07:28.750Z</time>
</trkpt>
<trkpt lat="-27.5210398" lon="153.0264095">
<ele>27.613</ele>
<time>2016-01-16T06:07:30.726Z</time>
</trkpt>
<trkpt lat="-27.5206685" lon="153.0267537">
<ele>29.201</ele>
<time>2016-01-16T06:07:33.691Z</time>
</trkpt>
<trkpt lat="-27.5204050" lon="153.0269832">
<ele>30.200</ele>
<time>2016-01-16T06:07:35.751Z</time>
</trkpt>
<trkpt lat="-27.5198962" lon="153.0274484">
<ele>30.518</ele>
<time>2016-01-16T06:07:39.785Z</time>
</trkpt>
<trkpt lat="-27.5195372" lon="153.0277989">
<ele>30.641</ele>
<time>2016-01-16T06:07:42.719Z</time>
</trkpt>
<trkpt lat="-27.5191950" lon="153.0281372">
<ele>31.197</ele>
<time>2016-01-16T06:07:45.706Z</time>
</trkpt>
<trkpt lat="-27.5189108" lon="153.0284465">
<ele>32.250</ele>
<time>2016-01-16T06:07:48.646Z</time>
</trkpt>
<trkpt lat="-27.5186697" lon="153.0286885">
<ele>32.580</ele>
<time>2016-01-16T06:07:51.624Z</time>
</trkpt>
<trkpt lat="-27.5185385" lon="153.0288398">
<ele>31.388</ele>
<time>2016-01-16T06:07:54.000Z</time>
</trkpt>
<trkpt lat="-27.5185385" lon="153.0288398">
<ele>29.725</ele>
<time>2016-01-16T06:07:59.000Z</time>
</trkpt>
<trkpt lat="-27.5185385" lon="153.0288398">
<ele>28.890</ele>
<time>2016-01-16T06:08:17.636Z</time>
</trkpt>
<trkpt lat="-27.5184150" lon="153.0290348">
<ele>29.188</ele>
<time>2016-01-16T06:08:23.795Z</time>
</trkpt>
<trkpt lat="-27.5183241" lon="153.0291512">
<ele>30.258</ele>
<time>2016-01-16T06:08:25.664Z</time>
</trkpt>
<trkpt lat="-27.5182006" lon="153.0292878">
<ele>31.403</ele>
<time>2016-01-16T06:08:27.549Z</time>
</trkpt>
<trkpt lat="-27.5179553" lon="153.0294603">
<ele>32.522</ele>
<time>2016-01-16T06:08:30.273Z</time>
</trkpt>
<trkpt lat="-27.5177216" lon="153.0295736">
<ele>33.805</ele>
<time>2016-01-16T06:08:32.248Z</time>
</trkpt>
<trkpt lat="-27.5173502" lon="153.0297231">
<ele>35.224</ele>
<time>2016-01-16T06:08:35.140Z</time>
</trkpt>
<trkpt lat="-27.5169392" lon="153.0298567">
<ele>36.837</ele>
<time>2016-01-16T06:08:38.249Z</time>
</trkpt>
<trkpt lat="-27.5166838" lon="153.0299166">
<ele>38.625</ele>
<time>2016-01-16T06:08:40.145Z</time>
</trkpt>
<trkpt lat="-27.5162657" lon="153.0300293">
<ele>40.304</ele>
<time>2016-01-16T06:08:43.198Z</time>
</trkpt>
<trkpt lat="-27.5159812" lon="153.0301170">
<ele>41.574</ele>
<time>2016-01-16T06:08:45.215Z</time>
</trkpt>
<trkpt lat="-27.5155671" lon="153.0302682">
<ele>42.072</ele>
<time>2016-01-16T06:08:48.162Z</time>
</trkpt>
<trkpt lat="-27.5152909" lon="153.0303687">
<ele>41.834</ele>
<time>2016-01-16T06:08:50.131Z</time>
</trkpt>
<trkpt lat="-27.5148636" lon="153.0305177">
<ele>41.292</ele>
<time>2016-01-16T06:08:53.201Z</time>
</trkpt>
<trkpt lat="-27.5144635" lon="153.0306566">
<ele>40.624</ele>
<time>2016-01-16T06:08:56.146Z</time>
</trkpt>
<trkpt lat="-27.5140620" lon="153.0307949">
<ele>39.869</ele>
<time>2016-01-16T06:08:59.124Z</time>
</trkpt>
<trkpt lat="-27.5139305" lon="153.0308417">
<ele>39.352</ele>
<time>2016-01-16T06:09:00.097Z</time>
</trkpt>
<trkpt lat="-27.5133658" lon="153.0310596">
<ele>39.405</ele>
<time>2016-01-16T06:09:04.074Z</time>
</trkpt>
<trkpt lat="-27.5129262" lon="153.0312206">
<ele>39.930</ele>
<time>2016-01-16T06:09:07.049Z</time>
</trkpt>
<trkpt lat="-27.5124875" lon="153.0313942">
<ele>40.196</ele>
<time>2016-01-16T06:09:10.100Z</time>
</trkpt>
<trkpt lat="-27.5122122" lon="153.0315113">
<ele>39.584</ele>
<time>2016-01-16T06:09:12.051Z</time>
</trkpt>
<trkpt lat="-27.5117822" lon="153.0316959">
<ele>38.414</ele>
<time>2016-01-16T06:09:15.059Z</time>
</trkpt>
<trkpt lat="-27.5114938" lon="153.0318211">
<ele>37.037</ele>
<time>2016-01-16T06:09:17.018Z</time>
</trkpt>
<trkpt lat="-27.5110406" lon="153.0320139">
<ele>35.556</ele>
<time>2016-01-16T06:09:20.050Z</time>
</trkpt>
<trkpt lat="-27.5107461" lon="153.0321549">
<ele>34.455</ele>
<time>2016-01-16T06:09:22.084Z</time>
</trkpt>
<trkpt lat="-27.5104686" lon="153.0323245">
<ele>34.052</ele>
<time>2016-01-16T06:09:24.124Z</time>
</trkpt>
<trkpt lat="-27.5101919" lon="153.0325033">
<ele>33.919</ele>
<time>2016-01-16T06:09:26.118Z</time>
</trkpt>
<trkpt lat="-27.5097631" lon="153.0328102">
<ele>33.811</ele>
<time>2016-01-16T06:09:29.137Z</time>
</trkpt>
<trkpt lat="-27.5093178" lon="153.0331010">
<ele>34.081</ele>
<time>2016-01-16T06:09:32.137Z</time>
</trkpt>
<trkpt lat="-27.5089335" lon="153.0332948">
<ele>35.130</ele>
<time>2016-01-16T06:09:34.713Z</time>
</trkpt>
<trkpt lat="-27.5085233" lon="153.0335325">
<ele>36.694</ele>
<time>2016-01-16T06:09:37.674Z</time>
</trkpt>
<trkpt lat="-27.5082482" lon="153.0336974">
<ele>37.966</ele>
<time>2016-01-16T06:09:39.674Z</time>
</trkpt>
<trkpt lat="-27.5078398" lon="153.0339335">
<ele>38.513</ele>
<time>2016-01-16T06:09:42.647Z</time>
</trkpt>
<trkpt lat="-27.5076948" lon="153.0340227">
<ele>38.565</ele>
<time>2016-01-16T06:09:43.735Z</time>
</trkpt>
<trkpt lat="-27.5071314" lon="153.0342744">
<ele>38.297</ele>
<time>2016-01-16T06:09:47.712Z</time>
</trkpt>
<trkpt lat="-27.5068468" lon="153.0343919">
<ele>37.049</ele>
<time>2016-01-16T06:09:49.709Z</time>
</trkpt>
<trkpt lat="-27.5064330" lon="153.0345395">
<ele>34.468</ele>
<time>2016-01-16T06:09:52.595Z</time>
</trkpt>
<trkpt lat="-27.5059930" lon="153.0345800">
<ele>31.360</ele>
<time>2016-01-16T06:09:55.476Z</time>
</trkpt>
<trkpt lat="-27.5055192" lon="153.0344827">
<ele>28.323</ele>
<time>2016-01-16T06:09:58.503Z</time>
</trkpt>
<trkpt lat="-27.5050779" lon="153.0343703">
<ele>25.508</ele>
<time>2016-01-16T06:10:01.450Z</time>
</trkpt>
<trkpt lat="-27.5047822" lon="153.0343101">
<ele>23.241</ele>
<time>2016-01-16T06:10:03.566Z</time>
</trkpt>
<trkpt lat="-27.5044608" lon="153.0342788">
<ele>21.027</ele>
<time>2016-01-16T06:10:05.914Z</time>
</trkpt>
<trkpt lat="-27.5041984" lon="153.0342684">
<ele>18.491</ele>
<time>2016-01-16T06:10:08.107Z</time>
</trkpt>
<trkpt lat="-27.5039388" lon="153.0342565">
<ele>15.990</ele>
<time>2016-01-16T06:10:10.778Z</time>
</trkpt>
<trkpt lat="-27.5038469" lon="153.0342511">
<ele>13.621</ele>
<time>2016-01-16T06:10:12.006Z</time>
</trkpt>
<trkpt lat="-27.5037441" lon="153.0342390">
<ele>11.541</ele>
<time>2016-01-16T06:10:14.000Z</time>
</trkpt>
<trkpt lat="-27.5037441" lon="153.0342390">
<ele>10.276</ele>
<time>2016-01-16T06:10:22.000Z</time>
</trkpt>
<trkpt lat="-27.5037441" lon="153.0342390">
<ele>9.880</ele>
<time>2016-01-16T06:10:41.057Z</time>
</trkpt>
<trkpt lat="-27.5035116" lon="153.0342279">
<ele>10.137</ele>
<time>2016-01-16T06:10:46.623Z</time>
</trkpt>
<trkpt lat="-27.5033514" lon="153.0342247">
<ele>10.835</ele>
<time>2016-01-16T06:10:48.556Z</time>
</trkpt>
<trkpt lat="-27.5031653" lon="153.0342493">
<ele>11.737</ele>
<time>2016-01-16T06:10:50.668Z</time>
</trkpt>
<trkpt lat="-27.5029041" lon="153.0342885">
<ele>12.701</ele>
<time>2016-01-16T06:10:53.588Z</time>
</trkpt>
<trkpt lat="-27.5026982" lon="153.0343312">
<ele>13.557</ele>
<time>2016-01-16T06:10:55.692Z</time>
</trkpt>
<trkpt lat="-27.5024976" lon="153.0343833">
<ele>13.981</ele>
<time>2016-01-16T06:10:57.505Z</time>
</trkpt>
<trkpt lat="-27.5022584" lon="153.0344752">
<ele>13.936</ele>
<time>2016-01-16T06:10:59.531Z</time>
</trkpt>
<trkpt lat="-27.5020245" lon="153.0345869">
<ele>13.915</ele>
<time>2016-01-16T06:11:01.492Z</time>
</trkpt>
<trkpt lat="-27.5017896" lon="153.0347080">
<ele>14.395</ele>
<time>2016-01-16T06:11:03.551Z</time>
</trkpt>
<trkpt lat="-27.5014822" lon="153.0348579">
<ele>15.206</ele>
<time>2016-01-16T06:11:06.426Z</time>
</trkpt>
<trkpt lat="-27.5012842" lon="153.0349344">
<ele>15.854</ele>
<time>2016-01-16T06:11:08.189Z</time>
</trkpt>
<trkpt lat="-27.5010124" lon="153.0350247">
<ele>16.144</ele>
<time>2016-01-16T06:11:10.436Z</time>
</trkpt>
<trkpt lat="-27.5004451" lon="153.0352015">
<ele>16.199</ele>
<time>2016-01-16T06:11:14.453Z</time>
</trkpt>
<trkpt lat="-27.5000098" lon="153.0353025">
<ele>16.198</ele>
<time>2016-01-16T06:11:17.395Z</time>
</trkpt>
<trkpt lat="-27.4995846" lon="153.0354064">
<ele>16.135</ele>
<time>2016-01-16T06:11:20.350Z</time>
</trkpt>
<trkpt lat="-27.4994718" lon="153.0354356">
<ele>15.933</ele>
<time>2016-01-16T06:11:21.154Z</time>
</trkpt>
<trkpt lat="-27.4988614" lon="153.0354984">
<ele>15.573</ele>
<time>2016-01-16T06:11:25.352Z</time>
</trkpt>
<trkpt lat="-27.4986201" lon="153.0354426">
<ele>15.139</ele>
<time>2016-01-16T06:11:27.082Z</time>
</trkpt>
<trkpt lat="-27.4982144" lon="153.0353440">
<ele>14.813</ele>
<time>2016-01-16T06:11:30.047Z</time>
</trkpt>
<trkpt lat="-27.4979434" lon="153.0352729">
<ele>14.667</ele>
<time>2016-01-16T06:11:31.965Z</time>
</trkpt>
<trkpt lat="-27.4975080" lon="153.0351613">
<ele>14.494</ele>
<time>2016-01-16T06:11:34.919Z</time>
</trkpt>
<trkpt lat="-27.4970439" lon="153.0350448">
<ele>14.069</ele>
<time>2016-01-16T06:11:37.979Z</time>
</trkpt>
<trkpt lat="-27.4967544" lon="153.0349659">
<ele>13.359</ele>
<time>2016-01-16T06:11:39.882Z</time>
</trkpt>
<trkpt lat="-27.4963069" lon="153.0348479">
<ele>12.561</ele>
<time>2016-01-16T06:11:42.790Z</time>
</trkpt>
<trkpt lat="-27.4959874" lon="153.0347717">
<ele>11.940</ele>
<time>2016-01-16T06:11:44.863Z</time>
</trkpt>
<trkpt lat="-27.4955422" lon="153.0346692">
<ele>11.449</ele>
<time>2016-01-16T06:11:47.822Z</time>
</trkpt>
<trkpt lat="-27.4950700" lon="153.0345617">
<ele>10.840</ele>
<time>2016-01-16T06:11:51.010Z</time>
</trkpt>
<trkpt lat="-27.4947709" lon="153.0345467">
<ele>10.077</ele>
<time>2016-01-16T06:11:52.976Z</time>
</trkpt>
<trkpt lat="-27.4943188" lon="153.0344985">
<ele>9.366</ele>
<time>2016-01-16T06:11:55.905Z</time>
</trkpt>
<trkpt lat="-27.4940017" lon="153.0344747">
<ele>9.052</ele>
<time>2016-01-16T06:11:57.896Z</time>
</trkpt>
<trkpt lat="-27.4938471" lon="153.0344759">
<ele>9.316</ele>
<time>2016-01-16T06:11:58.858Z</time>
</trkpt>
<trkpt lat="-27.4931834" lon="153.0344402">
<ele>9.848</ele>
<time>2016-01-16T06:12:02.817Z</time>
</trkpt>
<trkpt lat="-27.4926925" lon="153.0342191">
<ele>10.211</ele>
<time>2016-01-16T06:12:05.845Z</time>
</trkpt>
<trkpt lat="-27.4923634" lon="153.0340012">
<ele>10.285</ele>
<time>2016-01-16T06:12:07.984Z</time>
</trkpt>
<trkpt lat="-27.4919013" lon="153.0336868">
<ele>10.204</ele>
<time>2016-01-16T06:12:11.042Z</time>
</trkpt>
<trkpt lat="-27.4914615" lon="153.0334600">
<ele>10.109</ele>
<time>2016-01-16T06:12:13.990Z</time>
</trkpt>
<trkpt lat="-27.4910552" lon="153.0333142">
<ele>10.033</ele>
<time>2016-01-16T06:12:16.805Z</time>
</trkpt>
<trkpt lat="-27.4906422" lon="153.0332229">
<ele>9.965</ele>
<time>2016-01-16T06:12:19.646Z</time>
</trkpt>
<trkpt lat="-27.4904551" lon="153.0331979">
<ele>10.006</ele>
<time>2016-01-16T06:12:20.908Z</time>
</trkpt>
<trkpt lat="-27.4897012" lon="153.0332172">
<ele>10.225</ele>
<time>2016-01-16T06:12:25.271Z</time>
</trkpt>
<trkpt lat="-27.4892025" lon="153.0333347">
<ele>10.206</ele>
<time>2016-01-16T06:12:27.876Z</time>
</trkpt>
<trkpt lat="-27.4892025" lon="153.0333347">
<ele>10.206</ele>
<time>2016-01-16T06:12:27.876Z</time>
</trkpt>
<trkpt lat="-27.4454897" lon="153.0325211">
<ele>11.081</ele>
<time>2016-01-16T06:16:02.759Z</time>
</trkpt>
<trkpt lat="-27.4449018" lon="153.0322566">
<ele>11.076</ele>
<time>2016-01-16T06:16:05.871Z</time>
</trkpt>
<trkpt lat="-27.4443543" lon="153.0320204">
<ele>11.074</ele>
<time>2016-01-16T06:16:08.736Z</time>
</trkpt>
<trkpt lat="-27.4439705" lon="153.0318717">
<ele>11.085</ele>
<time>2016-01-16T06:16:10.689Z</time>
</trkpt>
<trkpt lat="-27.4435713" lon="153.0317575">
<ele>11.378</ele>
<time>2016-01-16T06:16:12.700Z</time>
</trkpt>
<trkpt lat="-27.4433790" lon="153.0317142">
<ele>12.032</ele>
<time>2016-01-16T06:16:13.660Z</time>
</trkpt>
<trkpt lat="-27.4425790" lon="153.0316457">
<ele>12.612</ele>
<time>2016-01-16T06:16:17.583Z</time>
</trkpt>
<trkpt lat="-27.4420104" lon="153.0316668">
<ele>12.819</ele>
<time>2016-01-16T06:16:20.411Z</time>
</trkpt>
<trkpt lat="-27.4416452" lon="153.0316581">
<ele>12.225</ele>
<time>2016-01-16T06:16:22.266Z</time>
</trkpt>
<trkpt lat="-27.4416452" lon="153.0316581">
<ele>12.225</ele>
<time>2016-01-16T06:16:22.266Z</time>
</trkpt>
<trkpt lat="-27.4150500" lon="153.0359338">
<ele>14.723</ele>
<time>2016-01-16T06:18:57.330Z</time>
</trkpt>
<trkpt lat="-27.4147860" lon="153.0357516">
<ele>14.717</ele>
<time>2016-01-16T06:18:59.274Z</time>
</trkpt>
<trkpt lat="-27.4145214" lon="153.0355623">
<ele>14.648</ele>
<time>2016-01-16T06:19:01.201Z</time>
</trkpt>
<trkpt lat="-27.4142534" lon="153.0353365">
<ele>14.179</ele>
<time>2016-01-16T06:19:03.218Z</time>
</trkpt>
<trkpt lat="-27.4139950" lon="153.0350900">
<ele>13.226</ele>
<time>2016-01-16T06:19:05.257Z</time>
</trkpt>
<trkpt lat="-27.4137637" lon="153.0348444">
<ele>12.585</ele>
<time>2016-01-16T06:19:07.188Z</time>
</trkpt>
<trkpt lat="-27.4134088" lon="153.0344662">
<ele>12.825</ele>
<time>2016-01-16T06:19:10.193Z</time>
</trkpt>
<trkpt lat="-27.4131200" lon="153.0341360">
<ele>13.886</ele>
<time>2016-01-16T06:19:12.769Z</time>
</trkpt>
<trkpt lat="-27.4128739" lon="153.0338303">
<ele>15.638</ele>
<time>2016-01-16T06:19:15.095Z</time>
</trkpt>
<trkpt lat="-27.4126920" lon="153.0335628">
<ele>17.819</ele>
<time>2016-01-16T06:19:16.995Z</time>
</trkpt>
<trkpt lat="-27.4125066" lon="153.0330787">
<ele>19.842</ele>
<time>2016-01-16T06:19:19.929Z</time>
</trkpt>
<trkpt lat="-27.4124308" lon="153.0327000">
<ele>21.138</ele>
<time>2016-01-16T06:19:22.060Z</time>
</trkpt>
<trkpt lat="-27.4123799" lon="153.0321817">
<ele>21.464</ele>
<time>2016-01-16T06:19:24.940Z</time>
</trkpt>
<trkpt lat="-27.4123488" lon="153.0318352">
<ele>20.790</ele>
<time>2016-01-16T06:19:26.846Z</time>
</trkpt>
<trkpt lat="-27.4122823" lon="153.0312436">
<ele>19.256</ele>
<time>2016-01-16T06:19:30.123Z</time>
</trkpt>
<trkpt lat="-27.4122771" lon="153.0307266">
<ele>17.498</ele>
<time>2016-01-16T06:19:33.032Z</time>
</trkpt>
<trkpt lat="-27.4122216" lon="153.0302622">
<ele>16.176</ele>
<time>2016-01-16T06:19:35.699Z</time>
</trkpt>
<trkpt lat="-27.4122177" lon="153.0300090">
<ele>15.856</ele>
<time>2016-01-16T06:19:37.115Z</time>
</trkpt>
<trkpt lat="-27.4121780" lon="153.0294396">
<ele>16.813</ele>
<time>2016-01-16T06:19:40.258Z</time>
</trkpt>
<trkpt lat="-27.4121051" lon="153.0290742">
<ele>18.887</ele>
<time>2016-01-16T06:19:42.277Z</time>
</trkpt>
<trkpt lat="-27.4120564" lon="153.0286862">
<ele>21.680</ele>
<time>2016-01-16T06:19:44.399Z</time>
</trkpt>
<trkpt lat="-27.4120150" lon="153.0283464">
<ele>24.572</ele>
<time>2016-01-16T06:19:46.276Z</time>
</trkpt>
<trkpt lat="-27.4119535" lon="153.0278114">
<ele>26.942</ele>
<time>2016-01-16T06:19:49.260Z</time>
</trkpt>
<trkpt lat="-27.4118769" lon="153.0272541">
<ele>28.501</ele>
<time>2016-01-16T06:19:52.474Z</time>
</trkpt>
<trkpt lat="-27.4118370" lon="153.0269505">
<ele>29.457</ele>
<time>2016-01-16T06:19:54.360Z</time>
</trkpt>
<trkpt lat="-27.4117964" lon="153.0266552">
<ele>30.313</ele>
<time>2016-01-16T06:19:56.287Z</time>
</trkpt>
<trkpt lat="-27.4117434" lon="153.0262085">
<ele>31.209</ele>
<time>2016-01-16T06:19:59.133Z</time>
</trkpt>
<trkpt lat="-27.4116553" lon="153.0256817">
<ele>32.060</ele>
<time>2016-01-16T06:20:02.214Z</time>
</trkpt>
<trkpt lat="-27.4115824" lon="153.0251256">
<ele>32.744</ele>
<time>2016-01-16T06:20:05.287Z</time>
</trkpt>
<trkpt lat="-27.4115410" lon="153.0248027">
<ele>33.062</ele>
<time>2016-01-16T06:20:07.169Z</time>
</trkpt>
<trkpt lat="-27.4114752" lon="153.0243380">
<ele>32.727</ele>
<time>2016-01-16T06:20:10.018Z</time>
</trkpt>
<trkpt lat="-27.4114404" lon="153.0240833">
<ele>31.532</ele>
<time>2016-01-16T06:20:11.701Z</time>
</trkpt>
<trkpt lat="-27.4113922" lon="153.0236534">
<ele>29.627</ele>
<time>2016-01-16T06:20:14.771Z</time>
</trkpt>
<trkpt lat="-27.4113543" lon="153.0234363">
<ele>27.325</ele>
<time>2016-01-16T06:20:16.656Z</time>
</trkpt>
<trkpt lat="-27.4113214" lon="153.0232220">
<ele>24.822</ele>
<time>2016-01-16T06:20:19.322Z</time>
</trkpt>
<trkpt lat="-27.4113081" lon="153.0231177">
<ele>22.294</ele>
<time>2016-01-16T06:20:21.000Z</time>
</trkpt>
<trkpt lat="-27.4113081" lon="153.0231177">
<ele>20.175</ele>
<time>2016-01-16T06:20:25.000Z</time>
</trkpt>
<trkpt lat="-27.4113081" lon="153.0231177">
<ele>19.134</ele>
<time>2016-01-16T06:20:30.272Z</time>
</trkpt>
<trkpt lat="-27.4112980" lon="153.0229014">
<ele>19.231</ele>
<time>2016-01-16T06:20:35.427Z</time>
</trkpt>
<trkpt lat="-27.4112692" lon="153.0226736">
<ele>19.630</ele>
<time>2016-01-16T06:20:37.658Z</time>
</trkpt>
<trkpt lat="-27.4112113" lon="153.0222727">
<ele>19.681</ele>
<time>2016-01-16T06:20:40.990Z</time>
</trkpt>
<trkpt lat="-27.4111559" lon="153.0218711">
<ele>19.487</ele>
<time>2016-01-16T06:20:44.196Z</time>
</trkpt>
<trkpt lat="-27.4111273" lon="153.0215203">
<ele>19.227</ele>
<time>2016-01-16T06:20:46.936Z</time>
</trkpt>
<trkpt lat="-27.4110992" lon="153.0212327">
<ele>18.902</ele>
<time>2016-01-16T06:20:49.005Z</time>
</trkpt>
<trkpt lat="-27.4110393" lon="153.0207701">
<ele>18.590</ele>
<time>2016-01-16T06:20:52.230Z</time>
</trkpt>
<trkpt lat="-27.4109697" lon="153.0202762">
<ele>18.299</ele>
<time>2016-01-16T06:20:55.636Z</time>
</trkpt>
<trkpt lat="-27.4109263" lon="153.0199913">
<ele>17.930</ele>
<time>2016-01-16T06:20:57.605Z</time>
</trkpt>
<trkpt lat="-27.4108708" lon="153.0195710">
<ele>17.609</ele>
<time>2016-01-16T06:21:00.288Z</time>
</trkpt>
<trkpt lat="-27.4108195" lon="153.0192214">
<ele>17.599</ele>
<time>2016-01-16T06:21:02.340Z</time>
</trkpt>
<trkpt lat="-27.4107395" lon="153.0187066">
<ele>17.961</ele>
<time>2016-01-16T06:21:05.425Z</time>
</trkpt>
<trkpt lat="-27.4106384" lon="153.0179495">
<ele>18.878</ele>
<time>2016-01-16T06:21:09.910Z</time>
</trkpt>
<trkpt lat="-27.4105212" lon="153.0171470">
<ele>19.165</ele>
<time>2016-01-16T06:21:14.704Z</time>
</trkpt>
<trkpt lat="-27.4104990" lon="153.0169276">
<ele>19.358</ele>
<time>2016-01-16T06:21:16.074Z</time>
</trkpt>
<trkpt lat="-27.4104620" lon="153.0165659">
<ele>19.528</ele>
<time>2016-01-16T06:21:18.690Z</time>
</trkpt>
<trkpt lat="-27.4103819" lon="153.0161409">
<ele>19.776</ele>
<time>2016-01-16T06:21:21.788Z</time>
</trkpt>
<trkpt lat="-27.4103505" lon="153.0157121">
<ele>20.075</ele>
<time>2016-01-16T06:21:24.827Z</time>
</trkpt>
<trkpt lat="-27.4102678" lon="153.0152729">
<ele>20.108</ele>
<time>2016-01-16T06:21:27.997Z</time>
</trkpt>
<trkpt lat="-27.4102332" lon="153.0150308">
<ele>19.597</ele>
<time>2016-01-16T06:21:29.850Z</time>
</trkpt>
<trkpt lat="-27.4101991" lon="153.0147979">
<ele>18.814</ele>
<time>2016-01-16T06:21:31.881Z</time>
</trkpt>
<trkpt lat="-27.4101598" lon="153.0145022">
<ele>18.173</ele>
<time>2016-01-16T06:21:34.920Z</time>
</trkpt>
<trkpt lat="-27.4101466" lon="153.0143686">
<ele>17.715</ele>
<time>2016-01-16T06:21:36.655Z</time>
</trkpt>
<trkpt lat="-27.4101318" lon="153.0142461">
<ele>17.329</ele>
<time>2016-01-16T06:21:38.930Z</time>
</trkpt>
<trkpt lat="-27.4101169" lon="153.0141385">
<ele>17.006</ele>
<time>2016-01-16T06:21:42.000Z</time>
</trkpt>
<trkpt lat="-27.4101169" lon="153.0141385">
<ele>16.808</ele>
<time>2016-01-16T06:21:43.000Z</time>
</trkpt>
<trkpt lat="-27.4101169" lon="153.0141385">
<ele>16.752</ele>
<time>2016-01-16T06:22:40.568Z</time>
</trkpt>
<trkpt lat="-27.4101151" lon="153.0139308">
<ele>16.789</ele>
<time>2016-01-16T06:22:46.897Z</time>
</trkpt>
<trkpt lat="-27.4100969" lon="153.0137729">
<ele>17.137</ele>
<time>2016-01-16T06:22:48.871Z</time>
</trkpt>
<trkpt lat="-27.4100287" lon="153.0134012">
<ele>17.914</ele>
<time>2016-01-16T06:22:52.623Z</time>
</trkpt>
<trkpt lat="-27.4100017" lon="153.0130146">
<ele>18.673</ele>
<time>2016-01-16T06:22:56.321Z</time>
</trkpt>
<trkpt lat="-27.4099872" lon="153.0127777">
<ele>18.937</ele>
<time>2016-01-16T06:22:58.895Z</time>
</trkpt>
<trkpt lat="-27.4099286" lon="153.0125099">
<ele>18.656</ele>
<time>2016-01-16T06:23:02.446Z</time>
</trkpt>
<trkpt lat="-27.4099059" lon="153.0123621">
<ele>18.057</ele>
<time>2016-01-16T06:23:04.692Z</time>
</trkpt>
<trkpt lat="-27.4098740" lon="153.0121715">
<ele>17.434</ele>
<time>2016-01-16T06:23:07.357Z</time>
</trkpt>
<trkpt lat="-27.4098543" lon="153.0120507">
<ele>16.921</ele>
<time>2016-01-16T06:23:08.813Z</time>
</trkpt>
<trkpt lat="-27.4098183" lon="153.0118021">
<ele>16.572</ele>
<time>2016-01-16T06:23:11.324Z</time>
</trkpt>
<trkpt lat="-27.4097943" lon="153.0116133">
<ele>16.530</ele>
<time>2016-01-16T06:23:13.088Z</time>
</trkpt>
<trkpt lat="-27.4097554" lon="153.0113183">
<ele>16.806</ele>
<time>2016-01-16T06:23:15.517Z</time>
</trkpt>
<trkpt lat="-27.4097113" lon="153.0110189">
<ele>17.237</ele>
<time>2016-01-16T06:23:17.863Z</time>
</trkpt>
<trkpt lat="-27.4096479" lon="153.0104998">
<ele>17.674</ele>
<time>2016-01-16T06:23:21.833Z</time>
</trkpt>
<trkpt lat="-27.4096146" lon="153.0102576">
<ele>18.019</ele>
<time>2016-01-16T06:23:23.809Z</time>
</trkpt>
<trkpt lat="-27.4095813" lon="153.0100188">
<ele>18.187</ele>
<time>2016-01-16T06:23:25.824Z</time>
</trkpt>
<trkpt lat="-27.4095507" lon="153.0097927">
<ele>18.204</ele>
<time>2016-01-16T06:23:27.732Z</time>
</trkpt>
<trkpt lat="-27.4095015" lon="153.0094345">
<ele>18.148</ele>
<time>2016-01-16T06:23:30.879Z</time>
</trkpt>
<trkpt lat="-27.4094614" lon="153.0091931">
<ele>18.090</ele>
<time>2016-01-16T06:23:33.206Z</time>
</trkpt>
<trkpt lat="-27.4094336" lon="153.0089871">
<ele>18.046</ele>
<time>2016-01-16T06:23:35.492Z</time>
</trkpt>
<trkpt lat="-27.4094091" lon="153.0088072">
<ele>17.999</ele>
<time>2016-01-16T06:23:37.760Z</time>
</trkpt>
<trkpt lat="-27.4093805" lon="153.0085777">
<ele>17.880</ele>
<time>2016-01-16T06:23:41.757Z</time>
</trkpt>
<trkpt lat="-27.4093639" lon="153.0084437">
<ele>17.615</ele>
<time>2016-01-16T06:23:44.604Z</time>
</trkpt>
<trkpt lat="-27.4093435" lon="153.0083002">
<ele>17.256</ele>
<time>2016-01-16T06:23:47.434Z</time>
</trkpt>
<trkpt lat="-27.4093308" lon="153.0081202">
<ele>16.975</ele>
<time>2016-01-16T06:23:49.845Z</time>
</trkpt>
<trkpt lat="-27.4092776" lon="153.0077924">
<ele>16.870</ele>
<time>2016-01-16T06:23:52.719Z</time>
</trkpt>
<trkpt lat="-27.4092127" lon="153.0075318">
<ele>17.101</ele>
<time>2016-01-16T06:23:54.686Z</time>
</trkpt>
<trkpt lat="-27.4091551" lon="153.0072371">
<ele>17.776</ele>
<time>2016-01-16T06:23:56.689Z</time>
</trkpt>
<trkpt lat="-27.4090901" lon="153.0067142">
<ele>18.662</ele>
<time>2016-01-16T06:24:00.061Z</time>
</trkpt>
<trkpt lat="-27.4090541" lon="153.0064319">
<ele>19.603</ele>
<time>2016-01-16T06:24:01.819Z</time>
</trkpt>
<trkpt lat="-27.4090034" lon="153.0061121">
<ele>20.714</ele>
<time>2016-01-16T06:24:03.802Z</time>
</trkpt>
<trkpt lat="-27.4089254" lon="153.0056105">
<ele>21.961</ele>
<time>2016-01-16T06:24:06.966Z</time>
</trkpt>
<trkpt lat="-27.4088623" lon="153.0051484">
<ele>23.359</ele>
<time>2016-01-16T06:24:09.931Z</time>
</trkpt>
<trkpt lat="-27.4088151" lon="153.0048251">
<ele>25.016</ele>
<time>2016-01-16T06:24:12.016Z</time>
</trkpt>
<trkpt lat="-27.4087497" lon="153.0043314">
<ele>26.705</ele>
<time>2016-01-16T06:24:15.259Z</time>
</trkpt>
<trkpt lat="-27.4087111" lon="153.0040604">
<ele>28.078</ele>
<time>2016-01-16T06:24:17.058Z</time>
</trkpt>
<trkpt lat="-27.4086646" lon="153.0037362">
<ele>29.016</ele>
<time>2016-01-16T06:24:19.177Z</time>
</trkpt>
<trkpt lat="-27.4085382" lon="153.0030753">
<ele>29.547</ele>
<time>2016-01-16T06:24:23.484Z</time>
</trkpt>
<trkpt lat="-27.4084961" lon="153.0027932">
<ele>30.032</ele>
<time>2016-01-16T06:24:25.359Z</time>
</trkpt>
<trkpt lat="-27.4084291" lon="153.0023695">
<ele>30.823</ele>
<time>2016-01-16T06:24:28.073Z</time>
</trkpt>
<trkpt lat="-27.4083790" lon="153.0020480">
<ele>31.852</ele>
<time>2016-01-16T06:24:29.983Z</time>
</trkpt>
<trkpt lat="-27.4083014" lon="153.0015531">
<ele>33.176</ele>
<time>2016-01-16T06:24:32.864Z</time>
</trkpt>
<trkpt lat="-27.4082183" lon="153.0010326">
<ele>35.291</ele>
<time>2016-01-16T06:24:35.892Z</time>
</trkpt>
<trkpt lat="-27.4081482" lon="153.0005333">
<ele>38.069</ele>
<time>2016-01-16T06:24:38.962Z</time>
</trkpt>
<trkpt lat="-27.4080409" lon="153.0001395">
<ele>40.607</ele>
<time>2016-01-16T06:24:41.773Z</time>
</trkpt>
<trkpt lat="-27.4078896" lon="152.9998514">
<ele>42.350</ele>
<time>2016-01-16T06:24:44.258Z</time>
</trkpt>
<trkpt lat="-27.4077520" lon="152.9995791">
<ele>43.365</ele>
<time>2016-01-16T06:24:46.562Z</time>
</trkpt>
<trkpt lat="-27.4076266" lon="152.9993373">
<ele>43.765</ele>
<time>2016-01-16T06:24:48.528Z</time>
</trkpt>
<trkpt lat="-27.4074398" lon="152.9989585">
<ele>43.775</ele>
<time>2016-01-16T06:24:51.584Z</time>
</trkpt>
<trkpt lat="-27.4072692" lon="152.9986109">
<ele>43.449</ele>
<time>2016-01-16T06:24:54.441Z</time>
</trkpt>
<trkpt lat="-27.4072019" lon="152.9983103">
<ele>42.540</ele>
<time>2016-01-16T06:24:56.595Z</time>
</trkpt>
<trkpt lat="-27.4072465" lon="152.9978589">
<ele>41.197</ele>
<time>2016-01-16T06:24:59.530Z</time>
</trkpt>
<trkpt lat="-27.4072997" lon="152.9975118">
<ele>39.797</ele>
<time>2016-01-16T06:25:01.582Z</time>
</trkpt>
<trkpt lat="-27.4073282" lon="152.9973328">
<ele>38.255</ele>
<time>2016-01-16T06:25:02.614Z</time>
</trkpt>
<trkpt lat="-27.4074366" lon="152.9966478">
<ele>36.489</ele>
<time>2016-01-16T06:25:06.407Z</time>
</trkpt>
<trkpt lat="-27.4074822" lon="152.9962760">
<ele>34.569</ele>
<time>2016-01-16T06:25:08.430Z</time>
</trkpt>
<trkpt lat="-27.4074545" lon="152.9957773">
<ele>32.290</ele>
<time>2016-01-16T06:25:11.324Z</time>
</trkpt>
<trkpt lat="-27.4073505" lon="152.9954052">
<ele>29.522</ele>
<time>2016-01-16T06:25:13.902Z</time>
</trkpt>
<trkpt lat="-27.4072862" lon="152.9950001">
<ele>26.614</ele>
<time>2016-01-16T06:25:16.919Z</time>
</trkpt>
<trkpt lat="-27.4072365" lon="152.9946176">
<ele>24.213</ele>
<time>2016-01-16T06:25:19.785Z</time>
</trkpt>
<trkpt lat="-27.4072056" lon="152.9943477">
<ele>22.620</ele>
<time>2016-01-16T06:25:21.732Z</time>
</trkpt>
<trkpt lat="-27.4071598" lon="152.9939011">
<ele>21.662</ele>
<time>2016-01-16T06:25:24.798Z</time>
</trkpt>
<trkpt lat="-27.4071413" lon="152.9937630">
<ele>21.166</ele>
<time>2016-01-16T06:25:25.734Z</time>
</trkpt>
<trkpt lat="-27.4070822" lon="152.9933450">
<ele>21.033</ele>
<time>2016-01-16T06:25:28.685Z</time>
</trkpt>
<trkpt lat="-27.4070151" lon="152.9929759">
<ele>21.120</ele>
<time>2016-01-16T06:25:31.467Z</time>
</trkpt>
<trkpt lat="-27.4069715" lon="152.9927449">
<ele>21.294</ele>
<time>2016-01-16T06:25:33.385Z</time>
</trkpt>
<trkpt lat="-27.4069539" lon="152.9925125">
<ele>21.347</ele>
<time>2016-01-16T06:25:35.655Z</time>
</trkpt>
<trkpt lat="-27.4069375" lon="152.9922214">
<ele>21.129</ele>
<time>2016-01-16T06:25:41.307Z</time>
</trkpt>
<trkpt lat="-27.4069634" lon="152.9921146">
<ele>20.742</ele>
<time>2016-01-16T06:25:44.027Z</time>
</trkpt>
<trkpt lat="-27.4070154" lon="152.9919784">
<ele>20.453</ele>
<time>2016-01-16T06:25:47.787Z</time>
</trkpt>
<trkpt lat="-27.4070709" lon="152.9917401">
<ele>20.537</ele>
<time>2016-01-16T06:25:51.341Z</time>
</trkpt>
<trkpt lat="-27.4071052" lon="152.9916035">
<ele>21.008</ele>
<time>2016-01-16T06:25:53.170Z</time>
</trkpt>
<trkpt lat="-27.4071700" lon="152.9913529">
<ele>21.509</ele>
<time>2016-01-16T06:25:57.000Z</time>
</trkpt>
<trkpt lat="-27.4071700" lon="152.9913529">
<ele>21.742</ele>
<time>2016-01-16T06:26:04.000Z</time>
</trkpt>
<trkpt lat="-27.4071700" lon="152.9913529">
<ele>21.757</ele>
<time>2016-01-16T06:27:44.518Z</time>
</trkpt>
<trkpt lat="-27.4072286" lon="152.9911341">
<ele>21.706</ele>
<time>2016-01-16T06:27:54.330Z</time>
</trkpt>
<trkpt lat="-27.4071961" lon="152.9909456">
<ele>22.620</ele>
<time>2016-01-16T06:27:57.081Z</time>
</trkpt>
<trkpt lat="-27.4070722" lon="152.9908542">
<ele>25.237</ele>
<time>2016-01-16T06:27:58.724Z</time>
</trkpt>
<trkpt lat="-27.4068348" lon="152.9908231">
<ele>28.282</ele>
<time>2016-01-16T06:28:00.846Z</time>
</trkpt>
<trkpt lat="-27.4063748" lon="152.9907610">
<ele>30.513</ele>
<time>2016-01-16T06:28:04.555Z</time>
</trkpt>
<trkpt lat="-27.4061181" lon="152.9907199">
<ele>32.329</ele>
<time>2016-01-16T06:28:06.647Z</time>
</trkpt>
<trkpt lat="-27.4059564" lon="152.9906532">
<ele>33.887</ele>
<time>2016-01-16T06:28:08.031Z</time>
</trkpt>
<trkpt lat="-27.4056752" lon="152.9903136">
<ele>34.792</ele>
<time>2016-01-16T06:28:10.913Z</time>
</trkpt>
<trkpt lat="-27.4053441" lon="152.9899016">
<ele>35.570</ele>
<time>2016-01-16T06:28:13.719Z</time>
</trkpt>
<trkpt lat="-27.4051194" lon="152.9895869">
<ele>37.081</ele>
<time>2016-01-16T06:28:15.658Z</time>
</trkpt>
<trkpt lat="-27.4048225" lon="152.9890302">
<ele>38.876</ele>
<time>2016-01-16T06:28:18.672Z</time>
</trkpt>
<trkpt lat="-27.4045815" lon="152.9886887">
<ele>39.906</ele>
<time>2016-01-16T06:28:20.732Z</time>
</trkpt>
<trkpt lat="-27.4043127" lon="152.9884796">
<ele>39.819</ele>
<time>2016-01-16T06:28:22.509Z</time>
</trkpt>
<trkpt lat="-27.4040181" lon="152.9882347">
<ele>38.990</ele>
<time>2016-01-16T06:28:24.511Z</time>
</trkpt>
<trkpt lat="-27.4037224" lon="152.9879637">
<ele>38.176</ele>
<time>2016-01-16T06:28:26.634Z</time>
</trkpt>
<trkpt lat="-27.4034600" lon="152.9877097">
<ele>37.823</ele>
<time>2016-01-16T06:28:28.595Z</time>
</trkpt>
<trkpt lat="-27.4029465" lon="152.9871726">
<ele>38.061</ele>
<time>2016-01-16T06:28:32.787Z</time>
</trkpt>
<trkpt lat="-27.4025428" lon="152.9869564">
<ele>38.836</ele>
<time>2016-01-16T06:28:35.622Z</time>
</trkpt>
<trkpt lat="-27.4020827" lon="152.9868930">
<ele>39.895</ele>
<time>2016-01-16T06:28:38.521Z</time>
</trkpt>
<trkpt lat="-27.4016009" lon="152.9869027">
<ele>41.027</ele>
<time>2016-01-16T06:28:41.640Z</time>
</trkpt>
<trkpt lat="-27.4013028" lon="152.9866901">
<ele>42.187</ele>
<time>2016-01-16T06:28:43.969Z</time>
</trkpt>
<trkpt lat="-27.4009334" lon="152.9865378">
<ele>43.375</ele>
<time>2016-01-16T06:28:46.534Z</time>
</trkpt>
<trkpt lat="-27.4006808" lon="152.9863986">
<ele>44.552</ele>
<time>2016-01-16T06:28:48.340Z</time>
</trkpt>
<trkpt lat="-27.4001138" lon="152.9863985">
<ele>46.362</ele>
<time>2016-01-16T06:28:51.865Z</time>
</trkpt>
<trkpt lat="-27.3993932" lon="152.9862747">
<ele>47.652</ele>
<time>2016-01-16T06:28:56.415Z</time>
</trkpt>
<trkpt lat="-27.3985600" lon="152.9862998">
<ele>49.559</ele>
<time>2016-01-16T06:29:01.750Z</time>
</trkpt>
<trkpt lat="-27.3982501" lon="152.9865225">
<ele>53.078</ele>
<time>2016-01-16T06:29:04.112Z</time>
</trkpt>
<trkpt lat="-27.3978507" lon="152.9868527">
<ele>59.181</ele>
<time>2016-01-16T06:29:07.580Z</time>
</trkpt>
<trkpt lat="-27.3976138" lon="152.9869916">
<ele>66.345</ele>
<time>2016-01-16T06:29:09.396Z</time>
</trkpt>
<trkpt lat="-27.3973778" lon="152.9869933">
<ele>71.733</ele>
<time>2016-01-16T06:29:10.871Z</time>
</trkpt>
<trkpt lat="-27.3970691" lon="152.9868635">
<ele>73.865</ele>
<time>2016-01-16T06:29:12.835Z</time>
</trkpt>
<trkpt lat="-27.3967699" lon="152.9867205">
<ele>73.093</ele>
<time>2016-01-16T06:29:14.714Z</time>
</trkpt>
<trkpt lat="-27.3964450" lon="152.9865719">
<ele>70.720</ele>
<time>2016-01-16T06:29:16.724Z</time>
</trkpt>
<trkpt lat="-27.3960172" lon="152.9863762">
<ele>67.736</ele>
<time>2016-01-16T06:29:19.341Z</time>
</trkpt>
<trkpt lat="-27.3957844" lon="152.9862729">
<ele>64.877</ele>
<time>2016-01-16T06:29:20.756Z</time>
</trkpt>
<trkpt lat="-27.3951565" lon="152.9860000">
<ele>63.014</ele>
<time>2016-01-16T06:29:24.760Z</time>
</trkpt>
<trkpt lat="-27.3947114" lon="152.9858013">
<ele>62.526</ele>
<time>2016-01-16T06:29:27.766Z</time>
</trkpt>
<trkpt lat="-27.3944154" lon="152.9856867">
<ele>63.453</ele>
<time>2016-01-16T06:29:29.707Z</time>
</trkpt>
<trkpt lat="-27.3939635" lon="152.9855045">
<ele>65.626</ele>
<time>2016-01-16T06:29:32.573Z</time>
</trkpt>
<trkpt lat="-27.3934951" lon="152.9852870">
<ele>67.980</ele>
<time>2016-01-16T06:29:35.385Z</time>
</trkpt>
<trkpt lat="-27.3929893" lon="152.9850575">
<ele>69.374</ele>
<time>2016-01-16T06:29:38.189Z</time>
</trkpt>
<trkpt lat="-27.3924062" lon="152.9848673">
<ele>69.427</ele>
<time>2016-01-16T06:29:41.303Z</time>
</trkpt>
<trkpt lat="-27.3921957" lon="152.9848553">
<ele>68.495</ele>
<time>2016-01-16T06:29:42.414Z</time>
</trkpt>
<trkpt lat="-27.3914488" lon="152.9849697">
<ele>67.892</ele>
<time>2016-01-16T06:29:46.540Z</time>
</trkpt>
<trkpt lat="-27.3909989" lon="152.9850463">
<ele>69.227</ele>
<time>2016-01-16T06:29:49.286Z</time>
</trkpt>
<trkpt lat="-27.3904247" lon="152.9850946">
<ele>72.557</ele>
<time>2016-01-16T06:29:52.960Z</time>
</trkpt>
<trkpt lat="-27.3899559" lon="152.9850491">
<ele>76.196</ele>
<time>2016-01-16T06:29:56.097Z</time>
</trkpt>
<trkpt lat="-27.3894961" lon="152.9850097">
<ele>78.559</ele>
<time>2016-01-16T06:29:59.090Z</time>
</trkpt>
<trkpt lat="-27.3891777" lon="152.9849666">
<ele>78.960</ele>
<time>2016-01-16T06:30:00.997Z</time>
</trkpt>
<trkpt lat="-27.3886527" lon="152.9849047">
<ele>77.674</ele>
<time>2016-01-16T06:30:03.965Z</time>
</trkpt>
<trkpt lat="-27.3882744" lon="152.9848606">
<ele>76.075</ele>
<time>2016-01-16T06:30:05.923Z</time>
</trkpt>
<trkpt lat="-27.3876737" lon="152.9848050">
<ele>75.108</ele>
<time>2016-01-16T06:30:08.911Z</time>
</trkpt>
<trkpt lat="-27.3872631" lon="152.9847765">
<ele>74.361</ele>
<time>2016-01-16T06:30:10.811Z</time>
</trkpt>
<trkpt lat="-27.3868085" lon="152.9847572">
<ele>73.255</ele>
<time>2016-01-16T06:30:12.827Z</time>
</trkpt>
<trkpt lat="-27.3863364" lon="152.9847581">
<ele>71.961</ele>
<time>2016-01-16T06:30:14.941Z</time>
</trkpt>
<trkpt lat="-27.3859797" lon="152.9846499">
<ele>70.859</ele>
<time>2016-01-16T06:30:16.714Z</time>
</trkpt>
<trkpt lat="-27.3857146" lon="152.9845135">
<ele>70.131</ele>
<time>2016-01-16T06:30:18.207Z</time>
</trkpt>
<trkpt lat="-27.3852429" lon="152.9841479">
<ele>69.885</ele>
<time>2016-01-16T06:30:21.240Z</time>
</trkpt>
<trkpt lat="-27.3849613" lon="152.9839367">
<ele>70.275</ele>
<time>2016-01-16T06:30:23.082Z</time>
</trkpt>
<trkpt lat="-27.3844444" lon="152.9836416">
<ele>71.133</ele>
<time>2016-01-16T06:30:26.221Z</time>
</trkpt>
<trkpt lat="-27.3840985" lon="152.9835138">
<ele>71.690</ele>
<time>2016-01-16T06:30:28.150Z</time>
</trkpt>
<trkpt lat="-27.3835268" lon="152.9833391">
<ele>71.319</ele>
<time>2016-01-16T06:30:31.255Z</time>
</trkpt>
<trkpt lat="-27.3833439" lon="152.9832752">
<ele>69.779</ele>
<time>2016-01-16T06:30:32.257Z</time>
</trkpt>
<trkpt lat="-27.3826112" lon="152.9830363">
<ele>67.038</ele>
<time>2016-01-16T06:30:36.294Z</time>
</trkpt>
<trkpt lat="-27.3821124" lon="152.9827846">
<ele>63.298</ele>
<time>2016-01-16T06:30:39.252Z</time>
</trkpt>
<trkpt lat="-27.3818070" lon="152.9825253">
<ele>59.003</ele>
<time>2016-01-16T06:30:41.344Z</time>
</trkpt>
<trkpt lat="-27.3813956" lon="152.9821389">
<ele>55.254</ele>
<time>2016-01-16T06:30:44.287Z</time>
</trkpt>
<trkpt lat="-27.3811292" lon="152.9818572">
<ele>53.097</ele>
<time>2016-01-16T06:30:46.315Z</time>
</trkpt>
<trkpt lat="-27.3808522" lon="152.9815902">
<ele>52.279</ele>
<time>2016-01-16T06:30:48.343Z</time>
</trkpt>
<trkpt lat="-27.3805603" lon="152.9813510">
<ele>52.158</ele>
<time>2016-01-16T06:30:50.360Z</time>
</trkpt>
<trkpt lat="-27.3801019" lon="152.9810528">
<ele>52.330</ele>
<time>2016-01-16T06:30:53.308Z</time>
</trkpt>
<trkpt lat="-27.3795892" lon="152.9808023">
<ele>52.510</ele>
<time>2016-01-16T06:30:56.369Z</time>
</trkpt>
<trkpt lat="-27.3792330" lon="152.9806798">
<ele>52.902</ele>
<time>2016-01-16T06:30:58.383Z</time>
</trkpt>
<trkpt lat="-27.3786829" lon="152.9805599">
<ele>54.186</ele>
<time>2016-01-16T06:31:01.382Z</time>
</trkpt>
<trkpt lat="-27.3782906" lon="152.9805262">
<ele>56.674</ele>
<time>2016-01-16T06:31:03.349Z</time>
</trkpt>
<trkpt lat="-27.3776619" lon="152.9804411">
<ele>59.930</ele>
<time>2016-01-16T06:31:06.327Z</time>
</trkpt>
<trkpt lat="-27.3771921" lon="152.9803806">
<ele>63.307</ele>
<time>2016-01-16T06:31:08.431Z</time>
</trkpt>
<trkpt lat="-27.3767436" lon="152.9803289">
<ele>66.412</ele>
<time>2016-01-16T06:31:10.468Z</time>
</trkpt>
<trkpt lat="-27.3759527" lon="152.9802209">
<ele>70.201</ele>
<time>2016-01-16T06:31:14.135Z</time>
</trkpt>
<trkpt lat="-27.3750407" lon="152.9802248">
<ele>70.226</ele>
<time>2016-01-16T06:31:18.434Z</time>
</trkpt>
<trkpt lat="-27.3746180" lon="152.9802316">
<ele>69.127</ele>
<time>2016-01-16T06:31:20.498Z</time>
</trkpt>
<trkpt lat="-27.3742308" lon="152.9802408">
<ele>67.729</ele>
<time>2016-01-16T06:31:22.494Z</time>
</trkpt>
<trkpt lat="-27.3736732" lon="152.9802640">
<ele>66.528</ele>
<time>2016-01-16T06:31:25.492Z</time>
</trkpt>
<trkpt lat="-27.3731374" lon="152.9802826">
<ele>65.331</ele>
<time>2016-01-16T06:31:28.438Z</time>
</trkpt>
<trkpt lat="-27.3727850" lon="152.9803045">
<ele>64.249</ele>
<time>2016-01-16T06:31:30.410Z</time>
</trkpt>
<trkpt lat="-27.3724423" lon="152.9803073">
<ele>63.547</ele>
<time>2016-01-16T06:31:32.355Z</time>
</trkpt>
<trkpt lat="-27.3720496" lon="152.9803101">
<ele>63.014</ele>
<time>2016-01-16T06:31:34.591Z</time>
</trkpt>
<trkpt lat="-27.3715155" lon="152.9802230">
<ele>62.324</ele>
<time>2016-01-16T06:31:37.649Z</time>
</trkpt>
<trkpt lat="-27.3711808" lon="152.9801420">
<ele>61.530</ele>
<time>2016-01-16T06:31:39.596Z</time>
</trkpt>
<trkpt lat="-27.3708462" lon="152.9800182">
<ele>60.550</ele>
<time>2016-01-16T06:31:41.633Z</time>
</trkpt>
<trkpt lat="-27.3706909" lon="152.9799461">
<ele>59.019</ele>
<time>2016-01-16T06:31:42.624Z</time>
</trkpt>
<trkpt lat="-27.3700804" lon="152.9796571">
<ele>56.999</ele>
<time>2016-01-16T06:31:46.579Z</time>
</trkpt>
<trkpt lat="-27.3697836" lon="152.9795064">
<ele>54.433</ele>
<time>2016-01-16T06:31:48.518Z</time>
</trkpt>
<trkpt lat="-27.3692960" lon="152.9792872">
<ele>50.933</ele>
<time>2016-01-16T06:31:51.628Z</time>
</trkpt>
<trkpt lat="-27.3689854" lon="152.9791282">
<ele>47.221</ele>
<time>2016-01-16T06:31:53.615Z</time>
</trkpt>
<trkpt lat="-27.3687828" lon="152.9790322">
<ele>44.825</ele>
<time>2016-01-16T06:31:54.886Z</time>
</trkpt>
<trkpt lat="-27.3681931" lon="152.9786826">
<ele>44.092</ele>
<time>2016-01-16T06:31:58.668Z</time>
</trkpt>
<trkpt lat="-27.3677507" lon="152.9783460">
<ele>44.505</ele>
<time>2016-01-16T06:32:01.662Z</time>
</trkpt>
<trkpt lat="-27.3674862" lon="152.9780778">
<ele>45.871</ele>
<time>2016-01-16T06:32:03.674Z</time>
</trkpt>
<trkpt lat="-27.3671255" lon="152.9776569">
<ele>47.828</ele>
<time>2016-01-16T06:32:06.651Z</time>
</trkpt>
<trkpt lat="-27.3669288" lon="152.9773506">
<ele>49.453</ele>
<time>2016-01-16T06:32:08.633Z</time>
</trkpt>
<trkpt lat="-27.3666349" lon="152.9769093">
<ele>49.932</ele>
<time>2016-01-16T06:32:11.580Z</time>
</trkpt>
<trkpt lat="-27.3664482" lon="152.9765935">
<ele>49.148</ele>
<time>2016-01-16T06:32:13.583Z</time>
</trkpt>
<trkpt lat="-27.3661175" lon="152.9761060">
<ele>47.707</ele>
<time>2016-01-16T06:32:16.725Z</time>
</trkpt>
<trkpt lat="-27.3659212" lon="152.9757937">
<ele>46.456</ele>
<time>2016-01-16T06:32:18.658Z</time>
</trkpt>
<trkpt lat="-27.3657140" lon="152.9754793">
<ele>46.105</ele>
<time>2016-01-16T06:32:20.644Z</time>
</trkpt>
<trkpt lat="-27.3653802" lon="152.9750150">
<ele>46.953</ele>
<time>2016-01-16T06:32:23.664Z</time>
</trkpt>
<trkpt lat="-27.3651302" lon="152.9747204">
<ele>48.750</ele>
<time>2016-01-16T06:32:25.706Z</time>
</trkpt>
<trkpt lat="-27.3648621" lon="152.9744622">
<ele>51.207</ele>
<time>2016-01-16T06:32:27.714Z</time>
</trkpt>
<trkpt lat="-27.3645795" lon="152.9742480">
<ele>53.977</ele>
<time>2016-01-16T06:32:29.661Z</time>
</trkpt>
<trkpt lat="-27.3642671" lon="152.9740304">
<ele>56.496</ele>
<time>2016-01-16T06:32:31.743Z</time>
</trkpt>
<trkpt lat="-27.3637875" lon="152.9737808">
<ele>58.377</ele>
<time>2016-01-16T06:32:34.750Z</time>
</trkpt>
<trkpt lat="-27.3633362" lon="152.9735233">
<ele>59.467</ele>
<time>2016-01-16T06:32:37.697Z</time>
</trkpt>
<trkpt lat="-27.3630808" lon="152.9733108">
<ele>59.505</ele>
<time>2016-01-16T06:32:39.570Z</time>
</trkpt>
<trkpt lat="-27.3627012" lon="152.9729342">
<ele>58.544</ele>
<time>2016-01-16T06:32:42.525Z</time>
</trkpt>
<trkpt lat="-27.3622881" lon="152.9725203">
<ele>57.294</ele>
<time>2016-01-16T06:32:45.698Z</time>
</trkpt>
<trkpt lat="-27.3618364" lon="152.9721981">
<ele>56.450</ele>
<time>2016-01-16T06:32:48.763Z</time>
</trkpt>
<trkpt lat="-27.3613914" lon="152.9719110">
<ele>55.820</ele>
<time>2016-01-16T06:32:52.024Z</time>
</trkpt>
<trkpt lat="-27.3612431" lon="152.9718069">
<ele>54.862</ele>
<time>2016-01-16T06:32:53.706Z</time>
</trkpt>
<trkpt lat="-27.3611640" lon="152.9717566">
<ele>52.758</ele>
<time>2016-01-16T06:32:55.000Z</time>
</trkpt>
<trkpt lat="-27.3611640" lon="152.9717566">
<ele>49.544</ele>
<time>2016-01-16T06:32:59.000Z</time>
</trkpt>
<trkpt lat="-27.3611640" lon="152.9717566">
<ele>47.269</ele>
<time>2016-01-16T06:33:38.517Z</time>
</trkpt>
<trkpt lat="-27.3609609" lon="152.9716432">
<ele>47.337</ele>
<time>2016-01-16T06:33:43.298Z</time>
</trkpt>
<trkpt lat="-27.3607234" lon="152.9714923">
<ele>48.053</ele>
<time>2016-01-16T06:33:45.694Z</time>
</trkpt>
<trkpt lat="-27.3601493" lon="152.9711439">
<ele>47.741</ele>
<time>2016-01-16T06:33:50.107Z</time>
</trkpt>
<trkpt lat="-27.3598059" lon="152.9709310">
<ele>46.852</ele>
<time>2016-01-16T06:33:52.472Z</time>
</trkpt>
<trkpt lat="-27.3593192" lon="152.9706224">
<ele>46.138</ele>
<time>2016-01-16T06:33:55.560Z</time>
</trkpt>
<trkpt lat="-27.3590277" lon="152.9704437">
<ele>44.896</ele>
<time>2016-01-16T06:33:57.467Z</time>
</trkpt>
<trkpt lat="-27.3587292" lon="152.9702440">
<ele>42.143</ele>
<time>2016-01-16T06:33:59.595Z</time>
</trkpt>
<trkpt lat="-27.3584497" lon="152.9700560">
<ele>38.544</ele>
<time>2016-01-16T06:34:01.720Z</time>
</trkpt>
<trkpt lat="-27.3580586" lon="152.9697836">
<ele>35.517</ele>
<time>2016-01-16T06:34:05.673Z</time>
</trkpt>
<trkpt lat="-27.3578293" lon="152.9696696">
<ele>33.422</ele>
<time>2016-01-16T06:34:08.443Z</time>
</trkpt>
<trkpt lat="-27.3576795" lon="152.9694698">
<ele>31.823</ele>
<time>2016-01-16T06:34:10.535Z</time>
</trkpt>
<trkpt lat="-27.3576977" lon="152.9692767">
<ele>30.489</ele>
<time>2016-01-16T06:34:11.787Z</time>
</trkpt>
<trkpt lat="-27.3578543" lon="152.9688912">
<ele>29.625</ele>
<time>2016-01-16T06:34:14.125Z</time>
</trkpt>
<trkpt lat="-27.3579893" lon="152.9685866">
<ele>29.932</ele>
<time>2016-01-16T06:34:15.912Z</time>
</trkpt>
<trkpt lat="-27.3582152" lon="152.9681083">
<ele>31.639</ele>
<time>2016-01-16T06:34:18.866Z</time>
</trkpt>
<trkpt lat="-27.3584421" lon="152.9676590">
<ele>34.097</ele>
<time>2016-01-16T06:34:21.865Z</time>
</trkpt>
<trkpt lat="-27.3586356" lon="152.9672449">
<ele>36.506</ele>
<time>2016-01-16T06:34:24.498Z</time>
</trkpt>
<trkpt lat="-27.3587838" lon="152.9667750">
<ele>38.563</ele>
<time>2016-01-16T06:34:27.247Z</time>
</trkpt>
<trkpt lat="-27.3588034" lon="152.9666049">
<ele>40.112</ele>
<time>2016-01-16T06:34:28.186Z</time>
</trkpt>
<trkpt lat="-27.3587355" lon="152.9658528">
<ele>41.144</ele>
<time>2016-01-16T06:34:32.210Z</time>
</trkpt>
<trkpt lat="-27.3586177" lon="152.9655135">
<ele>41.996</ele>
<time>2016-01-16T06:34:34.128Z</time>
</trkpt>
<trkpt lat="-27.3583557" lon="152.9650518">
<ele>43.233</ele>
<time>2016-01-16T06:34:36.970Z</time>
</trkpt>
<trkpt lat="-27.3581272" lon="152.9647571">
<ele>44.739</ele>
<time>2016-01-16T06:34:39.023Z</time>
</trkpt>
<trkpt lat="-27.3579480" lon="152.9645412">
<ele>45.816</ele>
<time>2016-01-16T06:34:40.584Z</time>
</trkpt>
<trkpt lat="-27.3576568" lon="152.9642425">
<ele>46.100</ele>
<time>2016-01-16T06:34:42.917Z</time>
</trkpt>
<trkpt lat="-27.3573022" lon="152.9638587">
<ele>45.598</ele>
<time>2016-01-16T06:34:45.844Z</time>
</trkpt>
<trkpt lat="-27.3569588" lon="152.9634755">
<ele>43.955</ele>
<time>2016-01-16T06:34:48.763Z</time>
</trkpt>
<trkpt lat="-27.3567408" lon="152.9632151">
<ele>40.963</ele>
<time>2016-01-16T06:34:50.705Z</time>
</trkpt>
<trkpt lat="-27.3564766" lon="152.9627786">
<ele>37.599</ele>
<time>2016-01-16T06:34:53.676Z</time>
</trkpt>
<trkpt lat="-27.3563373" lon="152.9624814">
<ele>34.963</ele>
<time>2016-01-16T06:34:55.634Z</time>
</trkpt>
<trkpt lat="-27.3561951" lon="152.9621902">
<ele>33.147</ele>
<time>2016-01-16T06:34:57.633Z</time>
</trkpt>
<trkpt lat="-27.3559988" lon="152.9617857">
<ele>31.786</ele>
<time>2016-01-16T06:35:00.683Z</time>
</trkpt>
<trkpt lat="-27.3558871" lon="152.9615371">
<ele>30.636</ele>
<time>2016-01-16T06:35:02.743Z</time>
</trkpt>
<trkpt lat="-27.3558294" lon="152.9613003">
<ele>29.568</ele>
<time>2016-01-16T06:35:04.654Z</time>
</trkpt>
<trkpt lat="-27.3557023" lon="152.9609981">
<ele>28.514</ele>
<time>2016-01-16T06:35:07.181Z</time>
</trkpt>
<trkpt lat="-27.3555739" lon="152.9607823">
<ele>27.564</ele>
<time>2016-01-16T06:35:08.980Z</time>
</trkpt>
<trkpt lat="-27.3554670" lon="152.9605350">
<ele>27.273</ele>
<time>2016-01-16T06:35:10.774Z</time>
</trkpt>
<trkpt lat="-27.3553544" lon="152.9602517">
<ele>28.006</ele>
<time>2016-01-16T06:35:12.823Z</time>
</trkpt>
<trkpt lat="-27.3551936" lon="152.9598626">
<ele>29.257</ele>
<time>2016-01-16T06:35:15.719Z</time>
</trkpt>
<trkpt lat="-27.3550801" lon="152.9596113">
<ele>29.997</ele>
<time>2016-01-16T06:35:17.628Z</time>
</trkpt>
<trkpt lat="-27.3549832" lon="152.9591916">
<ele>29.851</ele>
<time>2016-01-16T06:35:20.512Z</time>
</trkpt>
<trkpt lat="-27.3549599" lon="152.9588909">
<ele>29.325</ele>
<time>2016-01-16T06:35:22.479Z</time>
</trkpt>
<trkpt lat="-27.3549432" lon="152.9584849">
<ele>28.946</ele>
<time>2016-01-16T06:35:25.165Z</time>
</trkpt>
<trkpt lat="-27.3549337" lon="152.9582292">
<ele>28.789</ele>
<time>2016-01-16T06:35:26.944Z</time>
</trkpt>
<trkpt lat="-27.3549236" lon="152.9579578">
<ele>28.618</ele>
<time>2016-01-16T06:35:29.023Z</time>
</trkpt>
<trkpt lat="-27.3549116" lon="152.9576365">
<ele>27.998</ele>
<time>2016-01-16T06:35:31.870Z</time>
</trkpt>
<trkpt lat="-27.3549834" lon="152.9573732">
<ele>26.541</ele>
<time>2016-01-16T06:35:35.127Z</time>
</trkpt>
<trkpt lat="-27.3551214" lon="152.9573298">
<ele>24.601</ele>
<time>2016-01-16T06:35:36.963Z</time>
</trkpt>
<trkpt lat="-27.3554091" lon="152.9572981">
<ele>23.260</ele>
<time>2016-01-16T06:35:40.062Z</time>
</trkpt>
<trkpt lat="-27.3556211" lon="152.9572403">
<ele>23.251</ele>
<time>2016-01-16T06:35:42.069Z</time>
</trkpt>
<trkpt lat="-27.3559089" lon="152.9571357">
<ele>24.170</ele>
<time>2016-01-16T06:35:44.947Z</time>
</trkpt>
<trkpt lat="-27.3560422" lon="152.9570148">
<ele>24.928</ele>
<time>2016-01-16T06:35:46.626Z</time>
</trkpt>
<trkpt lat="-27.3563400" lon="152.9568266">
<ele>24.926</ele>
<time>2016-01-16T06:35:49.760Z</time>
</trkpt>
<trkpt lat="-27.3565274" lon="152.9566806">
<ele>24.790</ele>
<time>2016-01-16T06:35:51.963Z</time>
</trkpt>
<trkpt lat="-27.3566728" lon="152.9565673">
<ele>25.146</ele>
<time>2016-01-16T06:35:53.999Z</time>
</trkpt>
<trkpt lat="-27.3566728" lon="152.9565673">
<ele>25.578</ele>
<time>2016-01-16T06:35:57.999Z</time>
</trkpt>
<trkpt lat="-27.3566728" lon="152.9565673">
<ele>25.577</ele>
<time>2016-01-16T06:36:15.942Z</time>
</trkpt>
<trkpt lat="-27.3567913" lon="152.9564806">
<ele>25.331</ele>
<time>2016-01-16T06:36:21.528Z</time>
</trkpt>
<trkpt lat="-27.3568682" lon="152.9566028">
<ele>24.686</ele>
<time>2016-01-16T06:36:23.999Z</time>
</trkpt>
<trkpt lat="-27.3568682" lon="152.9566028">
<ele>23.418</ele>
<time>2016-01-16T06:36:29.999Z</time>
</trkpt>
<trkpt lat="-27.3568682" lon="152.9566028">
<ele>22.409</ele>
<time>2016-01-16T06:41:00.000Z</time>
</trkpt>
<trkpt lat="-27.3568849" lon="152.9566116">
<ele>22.545</ele>
<time>2016-01-16T06:41:55.641Z</time>
</trkpt>
<trkpt lat="-27.3568849" lon="152.9566116">
<ele>22.545</ele>
<time>2016-01-16T06:41:55.641Z</time>
</trkpt>
<trkpt lat="-27.3566361" lon="152.9565375">
<ele>21.843</ele>
<time>2016-01-16T06:54:52.999Z</time>
</trkpt>
<trkpt lat="-27.3566361" lon="152.9565375">
<ele>21.833</ele>
<time>2016-01-16T06:58:09.999Z</time>
</trkpt>
<trkpt lat="-27.3566361" lon="152.9565375">
<ele>21.828</ele>
<time>2016-01-16T07:07:56.000Z</time>
</trkpt>
<trkpt lat="-27.3566173" lon="152.9564317">
<ele>20.935</ele>
<time>2016-01-16T07:08:05.000Z</time>
</trkpt>
<trkpt lat="-27.3566173" lon="152.9564317">
<ele>20.925</ele>
<time>2016-01-16T07:08:32.000Z</time>
</trkpt>
<trkpt lat="-27.3566173" lon="152.9564317">
<ele>20.920</ele>
<time>2016-01-16T07:08:56.005Z</time>
</trkpt>
<trkpt lat="-27.3566056" lon="152.9564622">
<ele>21.089</ele>
<time>2016-01-16T07:11:08.000Z</time>
</trkpt>
<trkpt lat="-27.3566056" lon="152.9564622">
<ele>21.079</ele>
<time>2016-01-16T07:12:27.003Z</time>
</trkpt>
<trkpt lat="-27.3566078" lon="152.9564446">
<ele>20.810</ele>
<time>2016-01-16T07:13:34.998Z</time>
</trkpt>
<trkpt lat="-27.3566078" lon="152.9564446">
<ele>20.800</ele>
<time>2016-01-16T07:14:55.003Z</time>
</trkpt>
<trkpt lat="-27.3565985" lon="152.9564420">
<ele>20.807</ele>
<time>2016-01-16T07:15:07.998Z</time>
</trkpt>
<trkpt lat="-27.3565985" lon="152.9564420">
<ele>20.797</ele>
<time>2016-01-16T07:18:55.005Z</time>
</trkpt>
<trkpt lat="-27.3565991" lon="152.9564457">
<ele>20.907</ele>
<time>2016-01-16T07:19:30.000Z</time>
</trkpt>
<trkpt lat="-27.3565991" lon="152.9564457">
<ele>20.898</ele>
<time>2016-01-16T07:22:58.000Z</time>
</trkpt>
<trkpt lat="-27.3565991" lon="152.9564457">
<ele>20.892</ele>
<time>2016-01-16T07:22:58.100Z</time>
</trkpt>
<trkpt lat="-27.3567515" lon="152.9565671">
<ele>20.888</ele>
<time>2016-01-16T07:23:22.000Z</time>
</trkpt>
<trkpt lat="-27.3567515" lon="152.9565671">
<ele>20.883</ele>
<time>2016-01-16T07:23:29.000Z</time>
</trkpt>
<trkpt lat="-27.3567515" lon="152.9565671">
<ele>20.876</ele>
<time>2016-01-16T07:47:25.662Z</time>
</trkpt>
<trkpt lat="-27.3565586" lon="152.9564435">
<ele>20.868</ele>
<time>2016-01-16T07:47:58.000Z</time>
</trkpt>
<trkpt lat="-27.3565586" lon="152.9564435">
<ele>20.860</ele>
<time>2016-01-16T07:48:03.000Z</time>
</trkpt>
<trkpt lat="-27.3565586" lon="152.9564435">
<ele>20.850</ele>
<time>2016-01-16T08:05:36.448Z</time>
</trkpt>
<trkpt lat="-27.3567559" lon="152.9565305">
<ele>20.842</ele>
<time>2016-01-16T08:06:13.000Z</time>
</trkpt>
<trkpt lat="-27.3567559" lon="152.9565305">
<ele>20.839</ele>
<time>2016-01-16T08:06:22.000Z</time>
</trkpt>
</trkseg>
</trk>
<extensions>
<fpdata xmlns="http://www.motionx.com/GPX-Extensions/1/1" sfv="10" origin="MotionXGPSFull 24.1 Build 5049R64">
<bin enc="base64">
RgIAAAACAAAAoMLXOVOm1UEBAAAA+ADHbX+m1UE5tJ4/u33VQB8fAACcu4wCiqMTWrWB
RECEYfhbqdY0QAAAAAATAAAAR2F0ZXdheSBSdW4gdG8gUU1GABUAAAAxNiBKYW4gMjAx
NiAgNTo0NyBhbQAAAAAAFQHHbX+m1UGJ0hx6f6bVQcWRVAEpbSuRR1+eQCwAAAABAAAA
lBNaYJseY0ADHGSHUls7wIqjE1q1gURAAAAAAAAAPkAAAAAAAAA4QAAAAAAAkq5AAAAA
AAAAAAAAAAAAuh6F61Ewb0B+erX7lys4QAEAAADee53yOJ+DvwEAAAABAAAAJbclOcaq
yj92LBdsVfi5vwEAAAABAAAAAAAAAAAAAAAAAAAAAAAAAAAAAAABAAAAFwAAAEdhdGV3
YXlfUnVuX3RvX1FNRi5ncHgAAQAAAFMhV3d/ptVBCgAAAAEAAAATAAAAR2F0ZXdheSBS
dW4gdG8gUU1GAAAAAAAMAAAAAAAAAAAAAAA8AgAA0gCAf36m1UEAAAAAAAAAAAAAAAAA
AAAA/yVEvAIAAAAAAAAAAAAAAAEAAAAnAAAAMjQuMSBCdWlsZCA1MDQ5UjY0LCBNWEFF
IDguMSBiLiA2MjZSNjQAAAAAADBvAAABAAAAAUQAAADnTJlW/vmZVgTcEwhZU6bVQdwT
CFlTptVBAABAO1EwX0AAAAAAAsbC1zlTptVBaciG9lOm1UEAAGC04JWHQAAAAAACwr1I
DlSm1UGSdQYSVKbVQQAAYK6XDYhAAAAAAALOFQpZVKbVQc5rCF5UptVBAABgbmKtiEAA
AAAAAogpBsZUptVBZJbIC1Wm1UEAAPAE2LKQQAAAAAACDMjKDFWm1UGmYkdbVabVQQAA
kK6hmpVAAAAAAAI02wljVabVQbwjSYNVptVBAAAQN5ael0AAAAAAA+bITpBVptVB5shO
kFWm1UEAAESa90qYQAAAAAAEBtVFtVWm1UEG1UW1VabVQQAAxFxomppAAAAAAALRsoiF
VabVQSmvxslVptVBAACQ/HXim0AAAAAAAlghycpVptVBaAYG0FWm1UEAAJBNRDacQAAA
AAACC1+J2VWm1UF5WEmPVqbVQQAAOPIhyaNAAAAAAAII48qSVqbVQfQ2RplWptVBAACY
kfz8o0AAAAAAAkdXimpXptVBiA4Gb1em1UEAAKBL2iCkQAAAAAACmbsJlVem1UEWFse3
V6bVQQAAiB/FNqVAAAAAAAKaCAm6V6bVQUq5xt1XptVBAAAIpbJUpkAAAAAAAt81099X
ptVBldbF4lem1UEAALiqR2ymQAAAAAAC8bnJh1um1UGUTkyfW6bVQQAA0E9cKKdAAAAA
AAL9hAyzW6bVQaK3BpFcptVBAAD45C0YrkAAAAAAAg69iJdcptVBYynIz1ym1UEAAKBH
KdqvQAAAAAACQL0N01ym1UEqkIndXKbVQQAAeO8DF7BAAAAAAAIZyI8nXabVQfp9B6Jd
ptVBAAD8xuIAskAAAAAAAtwoympeptVBdnKFCl+m1UEAAGTtz3+0QAAAAAACZk3IDF+m
1UGt94Z8X6bVQQAAgJbKPrZAAAAAAAIAUkqAX6bVQVWjQ5JfptVBAADU26+GtkAAAAAA
AimvCQBjptVBJEdGD2Om1UEAAMA7osO2QAAAAAAC4L+JEmOm1UG5b8WlY6bVQQAAJPuQ
ELlAAAAAAAISvAi0Y6bVQRRcRrpjptVBAAAse4cpuUAAAAAAAni0SR9kptVBC9RG6Gam
1UEAALz8vSbCQAAAAAAC4sqG6mam1UEPX45jaKbVQQAAFiXNGMVAAAAAAAJ4ucguaabV
Qcy4xYNqptVBAAC+I8fCx0AAAAAAAnk9SmtuptVBuoWHn26m1UEAAEC0QSvIQAAAAAAC
BmIHo26m1UHMCceqbqbVQQAAzAPBOshAAAAAAAKGcMi0bqbVQU7QBbluptVBAABcwztD
yEAAAAAAAmOZSetuptVBrTFG8W6m1UEAAPDzNE/IQAAAAAACVOIIUm+m1UHka0Z2cKbV
QQAAEAewl8pAAAAAAAK4Ogd6cKbVQfsDRmhzptVBAADLzBY60EAAAAAAAg2qSih0ptVB
3GiHLHSm1UEAAJqLUz7QQAAAAAACFypKhnSm1UEu/8qPd6bVQQAAsWDUR9NAAAAAAAIS
v4uVd6bVQb7bhrN3ptVBAABdfc9l00AAAAAAAwk18tN3ptVBCTXy03em1UEAgGKudYDT
QAAAAAAErBgICnim1UGsGAgKeKbVQQAAApKLttNAAAAAAANdwHUReKbVQV3AdRF4ptVB
AAC7Ofm900AAAAAABJjgxjN4ptVBmODGM3im1UEAQPVZSuDTQAAAAAACKQRMuXem1UEn
wUlKeKbVQQAAWzrN9tNAAAAAAALn44pMeKbVQTP8zV14ptVBAACnUhAI1EAAAAAAAs6l
Tm14ptVBnWgHn3im1UEAAHYVyTnUQAAAAAAC/RUPunim1UEgt8gGeabVQQAAmbaChtRA
AAAAAAIC2YkReabVQQSQiTN5ptVBAACbbYKo1EAAAAAAAlQdijl5ptVBvLGGO3mm1UEA
AAMCf6rUQAAAAAADv5s0f3mm1UG/mzR/eabVQQAAAwJ/qtRAAAAAAATd60eBeabVQd3r
R4F5ptVBAAADAn+q1EAAAAAAA+Hw9CV6ptVB4fD0JXqm1UE5dF/IME/VQAAAAAAEYKxF
T3qm1UFgrEVPeqbVQTk0yoOBeNVAAAAAAAJ3oUmBeabVQZGcRk96ptVBObTlc4J41UAA
AAAAAyLgMhN7ptVBIuAyE3um1UE5tOVzgnjVQAAAAAAEFvtFFXum1UEW+0UVe6bVQTm0
5XOCeNVAAAAAAANkVzQie6bVQWRXNCJ7ptVBObTlc4J41UAAAAAABGX9BUN7ptVBZf0F
Q3um1UE5tOVzgnjVQAAAAAADsTHzVnum1UGxMfNWe6bVQTm05XOCeNVAAAAAAAR+GcZn
e6bVQX4Zxmd7ptVBObTlc4J41UAAAAAAAxY29Ht7ptVBFjb0e3um1UE5tOVzgnjVQAAA
AAAEWg0Gf3um1UFaDQZ/e6bVQTm05XOCeNVAAAAAAAOFlPG3e6bVQYWU8bd7ptVBObTl
c4J41UAAAAAABBq+hsB7ptVBGr6GwHum1UE5tOVzgnjVQAAAAAACEr6I+num1UFUPEb8
e6bVQTm0J/I/etVAAAAAAALqXIlrfabVQeolx2x9ptVBObQnu3171UAAAAAAAg+3SH1+
ptVBhjuGf36m1UE5tJ4/u33VQAAAAAAAAAAA
</bin>
</fpdata>
</extensions>
</gpx>